<?xml version='1.0' encoding='UTF-8'?><gpx version="1.1" creator="JPX - https://github.com/jenetics/jpx" xmlns="http://www.topografix.com/GPX/1/1"><trk><trkseg><trkpt lat="43.1117647" lon="12.3888007"><ele>482.0</ele><time>2026-04-24T06:15:01.027Z</time></trkpt><trkpt lat="43.1117626" lon="12.3887088"><ele>482.00000000000006</ele><time>2026-04-24T06:15:12.018Z</time></trkpt><trkpt lat="43.1117621" lon="12.3886063"><ele>482.0</ele><time>2026-04-24T06:15:33.02Z</time></trkpt><trkpt lat="43.1117054" lon="12.3886524"><ele>482.0</ele><time>2026-04-24T06:16:21.019Z</time></trkpt><trkpt lat="43.1117401" lon="12.3887765"><ele>482.00000000000006</ele><time>2026-04-24T06:17:36.012Z</time></trkpt><trkpt lat="43.1117132" lon="12.3888553"><ele>482.0</ele><time>2026-04-24T06:24:26.028Z</time></trkpt><trkpt lat="43.1117424" lon="12.3887737"><ele>482.0</ele><time>2026-04-24T06:29:20.014Z</time></trkpt><trkpt lat="43.1118132" lon="12.388773"><ele>481.99999999999994</ele><time>2026-04-24T06:30:23.015Z</time></trkpt><trkpt lat="43.1118782" lon="12.3887472"><ele>482.0</ele><time>2026-04-24T06:30:31.026Z</time></trkpt><trkpt lat="43.1119436" lon="12.3887744"><ele>482.0</ele><time>2026-04-24T06:30:38.034Z</time></trkpt><trkpt lat="43.1119796" lon="12.3886983"><ele>482.0</ele><time>2026-04-24T06:33:20.01Z</time></trkpt><trkpt lat="43.1118483" lon="12.3886239"><ele>481.99999999999994</ele><time>2026-04-24T06:34:17.476Z</time></trkpt><trkpt lat="43.1117836" lon="12.388638"><ele>482.0</ele><time>2026-04-24T06:34:27.013Z</time></trkpt><trkpt lat="43.111723" lon="12.3886646"><ele>482.0</ele><time>2026-04-24T06:34:34.017Z</time></trkpt><trkpt lat="43.1117864" lon="12.3887385"><ele>482.0</ele><time>2026-04-24T06:34:53.033Z</time></trkpt><trkpt lat="43.1119307" lon="12.3878353"><ele>481.99999999999994</ele><time>2026-04-24T06:35:21.037Z</time></trkpt><trkpt lat="43.1118962" lon="12.3879374"><ele>482.0</ele><time>2026-04-24T06:35:25.025Z</time></trkpt><trkpt lat="43.1118628" lon="12.388013"><ele>482.0</ele><time>2026-04-24T06:35:28.019Z</time></trkpt><trkpt lat="43.1118645" lon="12.3880994"><ele>482.0</ele><time>2026-04-24T06:35:41.056Z</time></trkpt><trkpt lat="43.1118633" lon="12.3879478"><ele>481.99999999999994</ele><time>2026-04-24T06:36:01.003Z</time></trkpt><trkpt lat="43.1118708" lon="12.3877735"><ele>482.0</ele><time>2026-04-24T06:36:03.005Z</time></trkpt><trkpt lat="43.1118752" lon="12.3876787"><ele>482.0</ele><time>2026-04-24T06:36:04Z</time></trkpt><trkpt lat="43.1118984" lon="12.3875575"><ele>482.00000000000006</ele><time>2026-04-24T06:36:06.008Z</time></trkpt><trkpt lat="43.111883" lon="12.3876844"><ele>482.00000000000006</ele><time>2026-04-24T06:36:19.027Z</time></trkpt><trkpt lat="43.1118723" lon="12.3879007"><ele>482.0</ele><time>2026-04-24T06:36:25.044Z</time></trkpt><trkpt lat="43.1118891" lon="12.3880344"><ele>482.0</ele><time>2026-04-24T06:37:12.023Z</time></trkpt><trkpt lat="43.1118793" lon="12.3881203"><ele>482.0</ele><time>2026-04-24T06:41:43.021Z</time></trkpt><trkpt lat="43.111858" lon="12.3882018"><ele>482.00000000000006</ele><time>2026-04-24T06:43:42.044Z</time></trkpt><trkpt lat="43.1118246" lon="12.3882921"><ele>482.0</ele><time>2026-04-24T06:43:58.017Z</time></trkpt><trkpt lat="43.1118052" lon="12.3883749"><ele>482.0</ele><time>2026-04-24T06:44:22.036Z</time></trkpt><trkpt lat="43.1117951" lon="12.3884671"><ele>482.00000000000006</ele><time>2026-04-24T06:47:36.046Z</time></trkpt><trkpt lat="43.1117544" lon="12.3885603"><ele>482.0</ele><time>2026-04-24T06:48:44.046Z</time></trkpt><trkpt lat="43.1117105" lon="12.3886277"><ele>482.0</ele><time>2026-04-24T06:56:51.045Z</time></trkpt><trkpt lat="43.1116551" lon="12.388682"><ele>481.99999999999994</ele><time>2026-04-24T07:07:15.005Z</time></trkpt><trkpt lat="43.1116643" lon="12.3888798"><ele>482.0</ele><time>2026-04-24T07:07:17.005Z</time></trkpt><trkpt lat="43.1116551" lon="12.3889661"><ele>482.0</ele><time>2026-04-24T07:07:28.005Z</time></trkpt><trkpt lat="43.1117394" lon="12.3889612"><ele>482.0</ele><time>2026-04-24T07:07:41.029Z</time></trkpt><trkpt lat="43.1117023" lon="12.3888915"><ele>481.99999999999994</ele><time>2026-04-24T07:10:42.029Z</time></trkpt><trkpt lat="43.1116519" lon="12.3888384"><ele>482.0</ele><time>2026-04-24T07:21:26.032Z</time></trkpt><trkpt lat="43.1115819" lon="12.3887743"><ele>481.6</ele><time>2026-04-24T07:21:29.02Z</time></trkpt><trkpt lat="43.1115374" lon="12.3886945"><ele>481.20000000000005</ele><time>2026-04-24T07:21:32.007Z</time></trkpt><trkpt lat="43.1115126" lon="12.3886007"><ele>480.8</ele><time>2026-04-24T07:21:34.008Z</time></trkpt><trkpt lat="43.1115203" lon="12.3884796"><ele>480.4</ele><time>2026-04-24T07:21:37.038Z</time></trkpt><trkpt lat="43.1115151" lon="12.3883453"><ele>480.0</ele><time>2026-04-24T07:21:39.011Z</time></trkpt><trkpt lat="43.111505" lon="12.3881701"><ele>480.0</ele><time>2026-04-24T07:21:41.012Z</time></trkpt><trkpt lat="43.1114824" lon="12.3880444"><ele>480.0</ele><time>2026-04-24T07:21:42.033Z</time></trkpt><trkpt lat="43.1114643" lon="12.3878861"><ele>480.0</ele><time>2026-04-24T07:21:43Z</time></trkpt><trkpt lat="43.1115196" lon="12.3875937"><ele>480.0</ele><time>2026-04-24T07:21:45.007Z</time></trkpt><trkpt lat="43.1116058" lon="12.3865556"><ele>463.5</ele><time>2026-04-24T07:21:50.013Z</time></trkpt><trkpt lat="43.1116847" lon="12.3861334"><ele>447.0</ele><time>2026-04-24T07:21:52.001Z</time></trkpt><trkpt lat="43.1117339" lon="12.3859125"><ele>428.0</ele><time>2026-04-24T07:21:53.01Z</time></trkpt><trkpt lat="43.1117698" lon="12.3852081"><ele>428.0</ele><time>2026-04-24T07:21:56.022Z</time></trkpt><trkpt lat="43.1117487" lon="12.3850744"><ele>428.0</ele><time>2026-04-24T07:21:57.017Z</time></trkpt><trkpt lat="43.1117376" lon="12.3849019"><ele>428.0</ele><time>2026-04-24T07:21:58.017Z</time></trkpt><trkpt lat="43.1116751" lon="12.3847193"><ele>428.0</ele><time>2026-04-24T07:21:59.005Z</time></trkpt><trkpt lat="43.1116282" lon="12.3845565"><ele>425.0</ele><time>2026-04-24T07:22:00.02Z</time></trkpt><trkpt lat="43.1116259" lon="12.3843695"><ele>422.0</ele><time>2026-04-24T07:22:01.03Z</time></trkpt><trkpt lat="43.1116504" lon="12.3841753"><ele>419.0</ele><time>2026-04-24T07:22:02.02Z</time></trkpt><trkpt lat="43.111598" lon="12.3837893"><ele>397.0</ele><time>2026-04-24T07:22:04.015Z</time></trkpt><trkpt lat="43.1114163" lon="12.3827568"><ele>385.0</ele><time>2026-04-24T07:22:11.032Z</time></trkpt><trkpt lat="43.1109949" lon="12.3811124"><ele>385.0</ele><time>2026-04-24T07:22:18.015Z</time></trkpt><trkpt lat="43.1109206" lon="12.3810264"><ele>385.0</ele><time>2026-04-24T07:22:19.025Z</time></trkpt><trkpt lat="43.1108538" lon="12.3809122"><ele>385.0</ele><time>2026-04-24T07:22:20.027Z</time></trkpt><trkpt lat="43.1107625" lon="12.3807469"><ele>385.0</ele><time>2026-04-24T07:22:21.033Z</time></trkpt><trkpt lat="43.1107062" lon="12.3805724"><ele>380.6</ele><time>2026-04-24T07:22:22.025Z</time></trkpt><trkpt lat="43.1106839" lon="12.3804379"><ele>376.2</ele><time>2026-04-24T07:22:23.013Z</time></trkpt><trkpt lat="43.1106594" lon="12.3803255"><ele>371.79999999999995</ele><time>2026-04-24T07:22:24.041Z</time></trkpt><trkpt lat="43.1106057" lon="12.3801116"><ele>367.4</ele><time>2026-04-24T07:22:25.035Z</time></trkpt><trkpt lat="43.1105487" lon="12.3800727"><ele>363.0</ele><time>2026-04-24T07:22:27.027Z</time></trkpt><trkpt lat="43.1110356" lon="12.384859"><ele>430.0</ele><time>2026-04-24T07:23:43.023Z</time></trkpt><trkpt lat="43.1113202" lon="12.3855916"><ele>430.0</ele><time>2026-04-24T07:23:46.014Z</time></trkpt><trkpt lat="43.1115408" lon="12.3862033"><ele>444.5</ele><time>2026-04-24T07:23:48.011Z</time></trkpt><trkpt lat="43.111612" lon="12.3865148"><ele>459.0</ele><time>2026-04-24T07:23:49.048Z</time></trkpt><trkpt lat="43.1117044" lon="12.3868643"><ele>465.0</ele><time>2026-04-24T07:23:50.021Z</time></trkpt><trkpt lat="43.1118608" lon="12.3873671"><ele>471.0</ele><time>2026-04-24T07:23:51.025Z</time></trkpt><trkpt lat="43.1119257" lon="12.3876294"><ele>476.5</ele><time>2026-04-24T07:23:52.015Z</time></trkpt><trkpt lat="43.1120564" lon="12.3881956"><ele>482.0</ele><time>2026-04-24T07:23:53.005Z</time></trkpt><trkpt lat="43.1121107" lon="12.3883653"><ele>482.0</ele><time>2026-04-24T07:23:54.028Z</time></trkpt><trkpt lat="43.1121538" lon="12.3885658"><ele>482.00000000000006</ele><time>2026-04-24T07:23:55.047Z</time></trkpt><trkpt lat="43.1120758" lon="12.3886591"><ele>482.00000000000006</ele><time>2026-04-24T07:23:56.005Z</time></trkpt><trkpt lat="43.1120196" lon="12.3887581"><ele>482.0</ele><time>2026-04-24T07:23:58.018Z</time></trkpt><trkpt lat="43.1119917" lon="12.3886461"><ele>482.0</ele><time>2026-04-24T07:24:04.04Z</time></trkpt><trkpt lat="43.1119522" lon="12.3885732"><ele>482.0</ele><time>2026-04-24T07:24:17.026Z</time></trkpt><trkpt lat="43.1119477" lon="12.3884644"><ele>482.00000000000006</ele><time>2026-04-24T07:25:32.036Z</time></trkpt><trkpt lat="43.1119318" lon="12.3885494"><ele>482.0</ele><time>2026-04-24T07:26:41.021Z</time></trkpt><trkpt lat="43.1119658" lon="12.3886261"><ele>482.0</ele><time>2026-04-24T07:27:12.055Z</time></trkpt><trkpt lat="43.1119377" lon="12.388708"><ele>482.00000000000006</ele><time>2026-04-24T07:27:26.016Z</time></trkpt><trkpt lat="43.1118734" lon="12.3887213"><ele>482.0</ele><time>2026-04-24T07:27:48.053Z</time></trkpt><trkpt lat="43.1118061" lon="12.3886981"><ele>482.0</ele><time>2026-04-24T07:28:10.04Z</time></trkpt><trkpt lat="43.111739" lon="12.388703"><ele>481.99999999999994</ele><time>2026-04-24T07:28:31.062Z</time></trkpt><trkpt lat="43.1118042" lon="12.3887236"><ele>482.0</ele><time>2026-04-24T07:33:18.018Z</time></trkpt><trkpt lat="43.1118276" lon="12.3888797"><ele>482.0</ele><time>2026-04-24T07:42:00.044Z</time></trkpt><trkpt lat="43.111883" lon="12.3888217"><ele>482.0</ele><time>2026-04-24T07:47:28.024Z</time></trkpt><trkpt lat="43.1119303" lon="12.3888821"><ele>481.99999999999994</ele><time>2026-04-24T07:47:50.041Z</time></trkpt><trkpt lat="43.1120128" lon="12.3889595"><ele>482.0</ele><time>2026-04-24T07:47:52.045Z</time></trkpt><trkpt lat="43.1120678" lon="12.3890487"><ele>481.99999999999994</ele><time>2026-04-24T07:47:54.033Z</time></trkpt><trkpt lat="43.1121102" lon="12.3891271"><ele>482.0</ele><time>2026-04-24T07:47:57.041Z</time></trkpt><trkpt lat="43.1121562" lon="12.3891973"><ele>482.0</ele><time>2026-04-24T07:48:00.042Z</time></trkpt><trkpt lat="43.1122087" lon="12.3893134"><ele>482.0</ele><time>2026-04-24T07:48:02.017Z</time></trkpt><trkpt lat="43.1122682" lon="12.3894395"><ele>481.99999999999994</ele><time>2026-04-24T07:48:04.052Z</time></trkpt><trkpt lat="43.1123287" lon="12.3895096"><ele>482.0</ele><time>2026-04-24T07:48:06.025Z</time></trkpt><trkpt lat="43.1124119" lon="12.3895203"><ele>481.99999999999994</ele><time>2026-04-24T07:48:08.042Z</time></trkpt><trkpt lat="43.1124786" lon="12.389545"><ele>482.0</ele><time>2026-04-24T07:48:10.013Z</time></trkpt><trkpt lat="43.1125449" lon="12.3895344"><ele>482.0</ele><time>2026-04-24T07:48:16.029Z</time></trkpt><trkpt lat="43.1126192" lon="12.389487"><ele>482.0</ele><time>2026-04-24T07:48:21.041Z</time></trkpt><trkpt lat="43.1126731" lon="12.3894347"><ele>481.99999999999994</ele><time>2026-04-24T07:48:23.032Z</time></trkpt><trkpt lat="43.1127406" lon="12.3894196"><ele>482.0</ele><time>2026-04-24T07:48:25.043Z</time></trkpt><trkpt lat="43.1128411" lon="12.3894534"><ele>482.0</ele><time>2026-04-24T07:48:28.044Z</time></trkpt><trkpt lat="43.112945" lon="12.3894875"><ele>482.00000000000006</ele><time>2026-04-24T07:48:30.03Z</time></trkpt><trkpt lat="43.113055" lon="12.3895226"><ele>482.00000000000006</ele><time>2026-04-24T07:48:32.041Z</time></trkpt><trkpt lat="43.1131515" lon="12.3895738"><ele>482.0</ele><time>2026-04-24T07:48:34.038Z</time></trkpt><trkpt lat="43.1132579" lon="12.3896139"><ele>482.0</ele><time>2026-04-24T07:48:36.026Z</time></trkpt><trkpt lat="43.1133391" lon="12.3896841"><ele>482.8333333333333</ele><time>2026-04-24T07:48:38.031Z</time></trkpt><trkpt lat="43.1133895" lon="12.3897448"><ele>483.66666666666663</ele><time>2026-04-24T07:48:41.036Z</time></trkpt><trkpt lat="43.1134508" lon="12.3898145"><ele>484.5</ele><time>2026-04-24T07:48:46.027Z</time></trkpt><trkpt lat="43.1135207" lon="12.3898502"><ele>485.33333333333337</ele><time>2026-04-24T07:48:49.018Z</time></trkpt><trkpt lat="43.1136089" lon="12.3898802"><ele>486.1666666666667</ele><time>2026-04-24T07:48:52.031Z</time></trkpt><trkpt lat="43.1136878" lon="12.3899122"><ele>487.0</ele><time>2026-04-24T07:48:54.031Z</time></trkpt><trkpt lat="43.1137914" lon="12.389964"><ele>487.00000000000006</ele><time>2026-04-24T07:48:56.015Z</time></trkpt><trkpt lat="43.1138548" lon="12.3900122"><ele>487.0</ele><time>2026-04-24T07:48:58.03Z</time></trkpt><trkpt lat="43.1139284" lon="12.390091"><ele>487.0</ele><time>2026-04-24T07:49:01.014Z</time></trkpt><trkpt lat="43.1140123" lon="12.3901625"><ele>487.0</ele><time>2026-04-24T07:49:03.048Z</time></trkpt><trkpt lat="43.1140672" lon="12.3902063"><ele>487.00000000000006</ele><time>2026-04-24T07:49:05.031Z</time></trkpt><trkpt lat="43.1141339" lon="12.3902775"><ele>487.0</ele><time>2026-04-24T07:49:08.037Z</time></trkpt><trkpt lat="43.1141927" lon="12.3903167"><ele>484.42857142857144</ele><time>2026-04-24T07:49:11.01Z</time></trkpt><trkpt lat="43.1142596" lon="12.3902638"><ele>481.85714285714283</ele><time>2026-04-24T07:49:16.028Z</time></trkpt><trkpt lat="43.1143136" lon="12.390219"><ele>479.2857142857143</ele><time>2026-04-24T07:49:20.045Z</time></trkpt><trkpt lat="43.114359" lon="12.3901286"><ele>476.7142857142857</ele><time>2026-04-24T07:49:24.025Z</time></trkpt><trkpt lat="43.1144027" lon="12.3900304"><ele>474.1428571428571</ele><time>2026-04-24T07:49:27.029Z</time></trkpt><trkpt lat="43.1144408" lon="12.389955"><ele>471.57142857142856</ele><time>2026-04-24T07:49:30.03Z</time></trkpt><trkpt lat="43.1144835" lon="12.3898719"><ele>469.0</ele><time>2026-04-24T07:49:34.029Z</time></trkpt><trkpt lat="43.1145545" lon="12.389825"><ele>469.0</ele><time>2026-04-24T07:49:40.04Z</time></trkpt><trkpt lat="43.1146258" lon="12.3898333"><ele>469.0</ele><time>2026-04-24T07:49:43.026Z</time></trkpt><trkpt lat="43.1147158" lon="12.3898165"><ele>469.0</ele><time>2026-04-24T07:49:46.029Z</time></trkpt><trkpt lat="43.1147803" lon="12.3898101"><ele>469.0</ele><time>2026-04-24T07:49:48.041Z</time></trkpt><trkpt lat="43.1148472" lon="12.3898243"><ele>469.0</ele><time>2026-04-24T07:49:51.033Z</time></trkpt><trkpt lat="43.1149282" lon="12.3898315"><ele>469.0</ele><time>2026-04-24T07:49:56.022Z</time></trkpt><trkpt lat="43.1149715" lon="12.3899104"><ele>469.0</ele><time>2026-04-24T07:50:01.046Z</time></trkpt><trkpt lat="43.1149839" lon="12.3900268"><ele>469.00000000000006</ele><time>2026-04-24T07:50:04.037Z</time></trkpt><trkpt lat="43.1149754" lon="12.3901573"><ele>469.0</ele><time>2026-04-24T07:50:07.041Z</time></trkpt><trkpt lat="43.1149495" lon="12.3902443"><ele>469.0</ele><time>2026-04-24T07:50:09.049Z</time></trkpt><trkpt lat="43.1149232" lon="12.3903425"><ele>469.0</ele><time>2026-04-24T07:50:11.037Z</time></trkpt><trkpt lat="43.1149023" lon="12.390434"><ele>469.00000000000006</ele><time>2026-04-24T07:50:13.024Z</time></trkpt><trkpt lat="43.1148889" lon="12.3905362"><ele>469.0</ele><time>2026-04-24T07:50:15.025Z</time></trkpt><trkpt lat="43.1149275" lon="12.3906515"><ele>468.50000000000006</ele><time>2026-04-24T07:50:18.031Z</time></trkpt><trkpt lat="43.1149788" lon="12.3907278"><ele>468.0</ele><time>2026-04-24T07:50:20.023Z</time></trkpt><trkpt lat="43.1149865" lon="12.3908258"><ele>467.5</ele><time>2026-04-24T07:50:22.05Z</time></trkpt><trkpt lat="43.1149478" lon="12.3909332"><ele>467.0</ele><time>2026-04-24T07:50:24.037Z</time></trkpt><trkpt lat="43.1148932" lon="12.3910474"><ele>466.50000000000006</ele><time>2026-04-24T07:50:26.034Z</time></trkpt><trkpt lat="43.1148286" lon="12.3911723"><ele>466.0</ele><time>2026-04-24T07:50:28.037Z</time></trkpt><trkpt lat="43.1147569" lon="12.3912927"><ele>464.33333333333337</ele><time>2026-04-24T07:50:30.04Z</time></trkpt><trkpt lat="43.1146996" lon="12.3914114"><ele>462.6666666666667</ele><time>2026-04-24T07:50:32.04Z</time></trkpt><trkpt lat="43.1146774" lon="12.3915715"><ele>461.0</ele><time>2026-04-24T07:50:34.038Z</time></trkpt><trkpt lat="43.1146859" lon="12.3916601"><ele>459.33333333333337</ele><time>2026-04-24T07:50:35.032Z</time></trkpt><trkpt lat="43.1147021" lon="12.3917442"><ele>457.6666666666667</ele><time>2026-04-24T07:50:36.045Z</time></trkpt><trkpt lat="43.1147271" lon="12.3918253"><ele>456.0</ele><time>2026-04-24T07:50:37.012Z</time></trkpt><trkpt lat="43.1147548" lon="12.3919098"><ele>456.0</ele><time>2026-04-24T07:50:38.041Z</time></trkpt><trkpt lat="43.1147822" lon="12.3919921"><ele>455.99999999999994</ele><time>2026-04-24T07:50:39.02Z</time></trkpt><trkpt lat="43.1148098" lon="12.392081"><ele>456.0</ele><time>2026-04-24T07:50:40.05Z</time></trkpt><trkpt lat="43.1148373" lon="12.3921666"><ele>456.0</ele><time>2026-04-24T07:50:41.052Z</time></trkpt><trkpt lat="43.1148676" lon="12.3922622"><ele>455.99999999999994</ele><time>2026-04-24T07:50:42.029Z</time></trkpt><trkpt lat="43.1148884" lon="12.3923619"><ele>456.0</ele><time>2026-04-24T07:50:43.048Z</time></trkpt><trkpt lat="43.1148947" lon="12.392468"><ele>456.0</ele><time>2026-04-24T07:50:44.044Z</time></trkpt><trkpt lat="43.1148868" lon="12.3925743"><ele>455.1666666666667</ele><time>2026-04-24T07:50:45.036Z</time></trkpt><trkpt lat="43.1148667" lon="12.392679"><ele>454.33333333333337</ele><time>2026-04-24T07:50:46.05Z</time></trkpt><trkpt lat="43.1148423" lon="12.3927813"><ele>453.5</ele><time>2026-04-24T07:50:47.026Z</time></trkpt><trkpt lat="43.1148145" lon="12.3928757"><ele>452.6666666666667</ele><time>2026-04-24T07:50:48.033Z</time></trkpt><trkpt lat="43.114779" lon="12.3929717"><ele>451.83333333333337</ele><time>2026-04-24T07:50:49.05Z</time></trkpt><trkpt lat="43.114738" lon="12.3930649"><ele>451.0</ele><time>2026-04-24T07:50:50.011Z</time></trkpt><trkpt lat="43.1146964" lon="12.3931572"><ele>450.00000000000006</ele><time>2026-04-24T07:50:51.014Z</time></trkpt><trkpt lat="43.1146566" lon="12.3932538"><ele>449.0</ele><time>2026-04-24T07:50:52.033Z</time></trkpt><trkpt lat="43.1146242" lon="12.3933546"><ele>448.0</ele><time>2026-04-24T07:50:53.03Z</time></trkpt><trkpt lat="43.1145981" lon="12.3934547"><ele>447.0</ele><time>2026-04-24T07:50:54.032Z</time></trkpt><trkpt lat="43.1145871" lon="12.3935543"><ele>446.00000000000006</ele><time>2026-04-24T07:50:55.036Z</time></trkpt><trkpt lat="43.114602" lon="12.393656"><ele>445.0</ele><time>2026-04-24T07:50:56.016Z</time></trkpt><trkpt lat="43.1146342" lon="12.3937463"><ele>445.0</ele><time>2026-04-24T07:50:57.049Z</time></trkpt><trkpt lat="43.1146705" lon="12.393819"><ele>445.0</ele><time>2026-04-24T07:50:58.029Z</time></trkpt><trkpt lat="43.1147483" lon="12.3939556"><ele>445.0</ele><time>2026-04-24T07:51:00.031Z</time></trkpt><trkpt lat="43.1148341" lon="12.3941"><ele>445.0</ele><time>2026-04-24T07:51:02.009Z</time></trkpt><trkpt lat="43.1148924" lon="12.3941795"><ele>445.0</ele><time>2026-04-24T07:51:03.014Z</time></trkpt><trkpt lat="43.1149543" lon="12.3942576"><ele>444.1666666666667</ele><time>2026-04-24T07:51:04.037Z</time></trkpt><trkpt lat="43.1150184" lon="12.3943366"><ele>443.33333333333337</ele><time>2026-04-24T07:51:05.044Z</time></trkpt><trkpt lat="43.1150751" lon="12.3944187"><ele>442.5</ele><time>2026-04-24T07:51:06.047Z</time></trkpt><trkpt lat="43.1151279" lon="12.3945001"><ele>441.66666666666663</ele><time>2026-04-24T07:51:07.021Z</time></trkpt><trkpt lat="43.1151638" lon="12.3945895"><ele>440.8333333333333</ele><time>2026-04-24T07:51:08.039Z</time></trkpt><trkpt lat="43.115196" lon="12.3946831"><ele>440.0</ele><time>2026-04-24T07:51:09.056Z</time></trkpt><trkpt lat="43.1152256" lon="12.3947874"><ele>441.4285714285714</ele><time>2026-04-24T07:51:10.044Z</time></trkpt><trkpt lat="43.1152526" lon="12.3948922"><ele>442.8571428571429</ele><time>2026-04-24T07:51:11.023Z</time></trkpt><trkpt lat="43.1152799" lon="12.3949792"><ele>444.28571428571433</ele><time>2026-04-24T07:51:12.018Z</time></trkpt><trkpt lat="43.1153131" lon="12.3950607"><ele>445.7142857142857</ele><time>2026-04-24T07:51:13.046Z</time></trkpt><trkpt lat="43.1153587" lon="12.3951435"><ele>447.14285714285717</ele><time>2026-04-24T07:51:14.021Z</time></trkpt><trkpt lat="43.1154049" lon="12.3952071"><ele>448.5714285714286</ele><time>2026-04-24T07:51:15.023Z</time></trkpt><trkpt lat="43.1154657" lon="12.3952676"><ele>450.00000000000006</ele><time>2026-04-24T07:51:16.051Z</time></trkpt><trkpt lat="43.1155174" lon="12.395328"><ele>450.0</ele><time>2026-04-24T07:51:17.038Z</time></trkpt><trkpt lat="43.1156196" lon="12.3954247"><ele>450.0</ele><time>2026-04-24T07:51:19.019Z</time></trkpt><trkpt lat="43.1156926" lon="12.3955094"><ele>450.0</ele><time>2026-04-24T07:51:21.035Z</time></trkpt><trkpt lat="43.1157413" lon="12.3956134"><ele>450.0</ele><time>2026-04-24T07:51:23.026Z</time></trkpt><trkpt lat="43.1157813" lon="12.3957103"><ele>450.0</ele><time>2026-04-24T07:51:25.054Z</time></trkpt><trkpt lat="43.1158739" lon="12.3957592"><ele>451.0</ele><time>2026-04-24T07:51:27.035Z</time></trkpt><trkpt lat="43.1159498" lon="12.3957617"><ele>452.0</ele><time>2026-04-24T07:51:28.051Z</time></trkpt><trkpt lat="43.1160324" lon="12.3957643"><ele>453.0</ele><time>2026-04-24T07:51:29.063Z</time></trkpt><trkpt lat="43.1161124" lon="12.3957669"><ele>454.0</ele><time>2026-04-24T07:51:30.04Z</time></trkpt><trkpt lat="43.1161801" lon="12.3957708"><ele>455.0</ele><time>2026-04-24T07:51:31.031Z</time></trkpt><trkpt lat="43.1162569" lon="12.3957866"><ele>456.0</ele><time>2026-04-24T07:51:32.039Z</time></trkpt><trkpt lat="43.1163327" lon="12.3958164"><ele>456.0</ele><time>2026-04-24T07:51:33.048Z</time></trkpt><trkpt lat="43.116411" lon="12.3958722"><ele>456.0</ele><time>2026-04-24T07:51:34.025Z</time></trkpt><trkpt lat="43.1164804" lon="12.395942"><ele>456.0</ele><time>2026-04-24T07:51:35.042Z</time></trkpt><trkpt lat="43.1165399" lon="12.3960202"><ele>456.0</ele><time>2026-04-24T07:51:36.024Z</time></trkpt><trkpt lat="43.1165952" lon="12.3961162"><ele>456.0</ele><time>2026-04-24T07:51:37.041Z</time></trkpt><trkpt lat="43.1166438" lon="12.3962175"><ele>456.0</ele><time>2026-04-24T07:51:38.031Z</time></trkpt><trkpt lat="43.1166845" lon="12.396317"><ele>453.3333333333333</ele><time>2026-04-24T07:51:39.037Z</time></trkpt><trkpt lat="43.1167187" lon="12.396419"><ele>450.66666666666663</ele><time>2026-04-24T07:51:40.032Z</time></trkpt><trkpt lat="43.1167425" lon="12.3965262"><ele>448.0</ele><time>2026-04-24T07:51:41.047Z</time></trkpt><trkpt lat="43.1167596" lon="12.3966373"><ele>445.3333333333333</ele><time>2026-04-24T07:51:42.03Z</time></trkpt><trkpt lat="43.1167709" lon="12.3967485"><ele>442.66666666666663</ele><time>2026-04-24T07:51:43.014Z</time></trkpt><trkpt lat="43.1167797" lon="12.3968571"><ele>440.0</ele><time>2026-04-24T07:51:44.01Z</time></trkpt><trkpt lat="43.1167889" lon="12.3969676"><ele>439.99999999999994</ele><time>2026-04-24T07:51:45.036Z</time></trkpt><trkpt lat="43.116799" lon="12.3970849"><ele>440.0</ele><time>2026-04-24T07:51:46.039Z</time></trkpt><trkpt lat="43.1168244" lon="12.397193"><ele>440.0</ele><time>2026-04-24T07:51:47.024Z</time></trkpt><trkpt lat="43.1168578" lon="12.397292"><ele>440.0</ele><time>2026-04-24T07:51:48.022Z</time></trkpt><trkpt lat="43.1168993" lon="12.3973776"><ele>439.99999999999994</ele><time>2026-04-24T07:51:49.023Z</time></trkpt><trkpt lat="43.1169518" lon="12.397454"><ele>440.0</ele><time>2026-04-24T07:51:50.034Z</time></trkpt><trkpt lat="43.1170193" lon="12.3975281"><ele>440.49999999999994</ele><time>2026-04-24T07:51:51.027Z</time></trkpt><trkpt lat="43.1170962" lon="12.3975832"><ele>441.0</ele><time>2026-04-24T07:51:52.034Z</time></trkpt><trkpt lat="43.1171741" lon="12.3976268"><ele>441.5</ele><time>2026-04-24T07:51:53.03Z</time></trkpt><trkpt lat="43.1172504" lon="12.3976674"><ele>442.0</ele><time>2026-04-24T07:51:54.027Z</time></trkpt><trkpt lat="43.1173359" lon="12.397682"><ele>442.49999999999994</ele><time>2026-04-24T07:51:55.016Z</time></trkpt><trkpt lat="43.1174272" lon="12.3976913"><ele>443.0</ele><time>2026-04-24T07:51:56.018Z</time></trkpt><trkpt lat="43.1175167" lon="12.3976934"><ele>440.3333333333333</ele><time>2026-04-24T07:51:57.032Z</time></trkpt><trkpt lat="43.1176064" lon="12.397697"><ele>437.66666666666663</ele><time>2026-04-24T07:51:58.041Z</time></trkpt><trkpt lat="43.1176966" lon="12.3977068"><ele>435.0</ele><time>2026-04-24T07:51:59.034Z</time></trkpt><trkpt lat="43.1177858" lon="12.3977187"><ele>432.33333333333337</ele><time>2026-04-24T07:52:00.028Z</time></trkpt><trkpt lat="43.117864" lon="12.3977398"><ele>429.6666666666667</ele><time>2026-04-24T07:52:01.03Z</time></trkpt><trkpt lat="43.1179345" lon="12.3977676"><ele>427.0</ele><time>2026-04-24T07:52:02.031Z</time></trkpt><trkpt lat="43.1180016" lon="12.397802"><ele>427.00000000000006</ele><time>2026-04-24T07:52:03.024Z</time></trkpt><trkpt lat="43.1180749" lon="12.3978478"><ele>427.0</ele><time>2026-04-24T07:52:04.024Z</time></trkpt><trkpt lat="43.1181472" lon="12.3978876"><ele>427.0</ele><time>2026-04-24T07:52:05.033Z</time></trkpt><trkpt lat="43.1182211" lon="12.3979423"><ele>427.0</ele><time>2026-04-24T07:52:06.027Z</time></trkpt><trkpt lat="43.1182872" lon="12.398003"><ele>427.00000000000006</ele><time>2026-04-24T07:52:07.028Z</time></trkpt><trkpt lat="43.1183545" lon="12.3980761"><ele>427.0</ele><time>2026-04-24T07:52:08.027Z</time></trkpt><trkpt lat="43.1184203" lon="12.3981411"><ele>426.50000000000006</ele><time>2026-04-24T07:52:09.043Z</time></trkpt><trkpt lat="43.1184819" lon="12.3981971"><ele>426.0</ele><time>2026-04-24T07:52:10.048Z</time></trkpt><trkpt lat="43.1185381" lon="12.3982631"><ele>425.5</ele><time>2026-04-24T07:52:11.03Z</time></trkpt><trkpt lat="43.1185916" lon="12.3983178"><ele>425.0</ele><time>2026-04-24T07:52:12.04Z</time></trkpt><trkpt lat="43.1186454" lon="12.3983772"><ele>424.50000000000006</ele><time>2026-04-24T07:52:13.036Z</time></trkpt><trkpt lat="43.1187263" lon="12.3984783"><ele>424.0</ele><time>2026-04-24T07:52:15.029Z</time></trkpt><trkpt lat="43.1187702" lon="12.3985639"><ele>424.00000000000006</ele><time>2026-04-24T07:52:17.027Z</time></trkpt><trkpt lat="43.1188009" lon="12.3986743"><ele>424.0</ele><time>2026-04-24T07:52:19.026Z</time></trkpt><trkpt lat="43.1188541" lon="12.3988071"><ele>424.0</ele><time>2026-04-24T07:52:21.04Z</time></trkpt><trkpt lat="43.1189119" lon="12.3989466"><ele>424.0</ele><time>2026-04-24T07:52:23.031Z</time></trkpt><trkpt lat="43.1189381" lon="12.3990258"><ele>424.00000000000006</ele><time>2026-04-24T07:52:24.026Z</time></trkpt><trkpt lat="43.1189638" lon="12.3991086"><ele>424.0</ele><time>2026-04-24T07:52:25.038Z</time></trkpt><trkpt lat="43.1189873" lon="12.3991907"><ele>423.83333333333337</ele><time>2026-04-24T07:52:26.03Z</time></trkpt><trkpt lat="43.1189977" lon="12.399293"><ele>423.6666666666667</ele><time>2026-04-24T07:52:28.026Z</time></trkpt><trkpt lat="43.1190093" lon="12.3993825"><ele>423.5</ele><time>2026-04-24T07:52:31.03Z</time></trkpt><trkpt lat="43.1190345" lon="12.3995058"><ele>423.33333333333337</ele><time>2026-04-24T07:52:34.028Z</time></trkpt><trkpt lat="43.1190437" lon="12.3996609"><ele>423.1666666666667</ele><time>2026-04-24T07:52:36.029Z</time></trkpt><trkpt lat="43.1190449" lon="12.3997652"><ele>423.0</ele><time>2026-04-24T07:52:37.029Z</time></trkpt><trkpt lat="43.1190392" lon="12.3998685"><ele>422.1666666666667</ele><time>2026-04-24T07:52:38.031Z</time></trkpt><trkpt lat="43.1190502" lon="12.3999743"><ele>421.33333333333337</ele><time>2026-04-24T07:52:39.022Z</time></trkpt><trkpt lat="43.1190533" lon="12.4000855"><ele>420.5</ele><time>2026-04-24T07:52:40.023Z</time></trkpt><trkpt lat="43.1190526" lon="12.4001941"><ele>419.6666666666667</ele><time>2026-04-24T07:52:41.032Z</time></trkpt><trkpt lat="43.1190491" lon="12.4003089"><ele>418.83333333333337</ele><time>2026-04-24T07:52:42.014Z</time></trkpt><trkpt lat="43.119044" lon="12.4004444"><ele>418.0</ele><time>2026-04-24T07:52:43.038Z</time></trkpt><trkpt lat="43.11904" lon="12.4005793"><ele>417.33333333333337</ele><time>2026-04-24T07:52:44.029Z</time></trkpt><trkpt lat="43.1190415" lon="12.4007014"><ele>416.6666666666667</ele><time>2026-04-24T07:52:45.025Z</time></trkpt><trkpt lat="43.1190333" lon="12.4008369"><ele>416.0</ele><time>2026-04-24T07:52:46.024Z</time></trkpt><trkpt lat="43.1190236" lon="12.4009524"><ele>415.33333333333337</ele><time>2026-04-24T07:52:47.009Z</time></trkpt><trkpt lat="43.119022" lon="12.4010543"><ele>414.6666666666667</ele><time>2026-04-24T07:52:48.03Z</time></trkpt><trkpt lat="43.119027" lon="12.4011447"><ele>414.0</ele><time>2026-04-24T07:52:49.051Z</time></trkpt><trkpt lat="43.1190251" lon="12.4012354"><ele>412.0</ele><time>2026-04-24T07:52:50.016Z</time></trkpt><trkpt lat="43.1190131" lon="12.4013702"><ele>410.0</ele><time>2026-04-24T07:52:52.041Z</time></trkpt><trkpt lat="43.1190108" lon="12.4015098"><ele>408.0</ele><time>2026-04-24T07:53:27.045Z</time></trkpt><trkpt lat="43.1190211" lon="12.4016651"><ele>406.0</ele><time>2026-04-24T07:53:29.033Z</time></trkpt><trkpt lat="43.1190162" lon="12.4017645"><ele>404.0</ele><time>2026-04-24T07:53:30.034Z</time></trkpt><trkpt lat="43.1190081" lon="12.4018825"><ele>404.0</ele><time>2026-04-24T07:53:31.017Z</time></trkpt><trkpt lat="43.1190281" lon="12.4020099"><ele>404.0</ele><time>2026-04-24T07:53:32.013Z</time></trkpt><trkpt lat="43.119032" lon="12.4021762"><ele>404.0</ele><time>2026-04-24T07:53:33.031Z</time></trkpt><trkpt lat="43.119013" lon="12.4023085"><ele>404.0</ele><time>2026-04-24T07:53:34.029Z</time></trkpt><trkpt lat="43.1190027" lon="12.4024462"><ele>404.0</ele><time>2026-04-24T07:53:35.02Z</time></trkpt><trkpt lat="43.118958" lon="12.4025784"><ele>403.2</ele><time>2026-04-24T07:53:36.032Z</time></trkpt><trkpt lat="43.1189255" lon="12.4027155"><ele>402.4</ele><time>2026-04-24T07:53:37.022Z</time></trkpt><trkpt lat="43.1188891" lon="12.4028516"><ele>401.6</ele><time>2026-04-24T07:53:38.03Z</time></trkpt><trkpt lat="43.118845" lon="12.4029849"><ele>400.8</ele><time>2026-04-24T07:53:39.05Z</time></trkpt><trkpt lat="43.1188029" lon="12.4031288"><ele>400.0</ele><time>2026-04-24T07:53:40.036Z</time></trkpt><trkpt lat="43.1187525" lon="12.4032649"><ele>400.0</ele><time>2026-04-24T07:53:41.03Z</time></trkpt><trkpt lat="43.1186975" lon="12.4033962"><ele>400.0</ele><time>2026-04-24T07:53:42.019Z</time></trkpt><trkpt lat="43.1186455" lon="12.4035332"><ele>400.0</ele><time>2026-04-24T07:53:43.015Z</time></trkpt><trkpt lat="43.1185938" lon="12.4036665"><ele>400.0</ele><time>2026-04-24T07:53:44.026Z</time></trkpt><trkpt lat="43.1185437" lon="12.4037985"><ele>400.0</ele><time>2026-04-24T07:53:45.027Z</time></trkpt><trkpt lat="43.1184932" lon="12.4039281"><ele>400.8</ele><time>2026-04-24T07:53:46.027Z</time></trkpt><trkpt lat="43.1184526" lon="12.4040576"><ele>401.6</ele><time>2026-04-24T07:53:47.036Z</time></trkpt><trkpt lat="43.1184015" lon="12.4041748"><ele>402.4</ele><time>2026-04-24T07:53:48.025Z</time></trkpt><trkpt lat="43.1183516" lon="12.4042956"><ele>403.2</ele><time>2026-04-24T07:53:49.032Z</time></trkpt><trkpt lat="43.1183025" lon="12.404424"><ele>404.0</ele><time>2026-04-24T07:53:50.019Z</time></trkpt><trkpt lat="43.1182571" lon="12.4045726"><ele>398.5</ele><time>2026-04-24T07:53:51.024Z</time></trkpt><trkpt lat="43.1182043" lon="12.4047352"><ele>393.0</ele><time>2026-04-24T07:53:52.005Z</time></trkpt><trkpt lat="43.1181534" lon="12.4049092"><ele>387.5</ele><time>2026-04-24T07:53:53.035Z</time></trkpt><trkpt lat="43.118104" lon="12.4050869"><ele>382.0</ele><time>2026-04-24T07:53:54.033Z</time></trkpt><trkpt lat="43.1180552" lon="12.4052671"><ele>382.0</ele><time>2026-04-24T07:53:55.027Z</time></trkpt><trkpt lat="43.118014" lon="12.4054562"><ele>382.0</ele><time>2026-04-24T07:53:56.012Z</time></trkpt><trkpt lat="43.1179684" lon="12.4056366"><ele>382.0</ele><time>2026-04-24T07:53:57.026Z</time></trkpt><trkpt lat="43.1179217" lon="12.4058143"><ele>382.0</ele><time>2026-04-24T07:53:58.031Z</time></trkpt><trkpt lat="43.1178765" lon="12.4059822"><ele>382.5</ele><time>2026-04-24T07:53:59.032Z</time></trkpt><trkpt lat="43.117834" lon="12.4061395"><ele>383.0</ele><time>2026-04-24T07:54:00.031Z</time></trkpt><trkpt lat="43.1177943" lon="12.4063039"><ele>383.5</ele><time>2026-04-24T07:54:01.048Z</time></trkpt><trkpt lat="43.1177543" lon="12.4064727"><ele>384.0</ele><time>2026-04-24T07:54:02.015Z</time></trkpt><trkpt lat="43.1177053" lon="12.4066427"><ele>385.0</ele><time>2026-04-24T07:54:03.019Z</time></trkpt><trkpt lat="43.1176592" lon="12.4068118"><ele>386.0</ele><time>2026-04-24T07:54:04.024Z</time></trkpt><trkpt lat="43.1176171" lon="12.4069826"><ele>387.0</ele><time>2026-04-24T07:54:05.03Z</time></trkpt><trkpt lat="43.1175742" lon="12.4071588"><ele>388.0</ele><time>2026-04-24T07:54:06.032Z</time></trkpt><trkpt lat="43.1175302" lon="12.4073175"><ele>388.5</ele><time>2026-04-24T07:54:07.033Z</time></trkpt><trkpt lat="43.1174832" lon="12.4074791"><ele>389.0</ele><time>2026-04-24T07:54:08.031Z</time></trkpt><trkpt lat="43.1174393" lon="12.407647"><ele>389.5</ele><time>2026-04-24T07:54:09.026Z</time></trkpt><trkpt lat="43.1173932" lon="12.4078203"><ele>390.0</ele><time>2026-04-24T07:54:10.012Z</time></trkpt><trkpt lat="43.1173555" lon="12.408002"><ele>383.5</ele><time>2026-04-24T07:54:11.04Z</time></trkpt><trkpt lat="43.1173256" lon="12.4081793"><ele>377.0</ele><time>2026-04-24T07:54:12.02Z</time></trkpt><trkpt lat="43.1173062" lon="12.4083464"><ele>370.5</ele><time>2026-04-24T07:54:13.028Z</time></trkpt><trkpt lat="43.1172854" lon="12.4085116"><ele>364.0</ele><time>2026-04-24T07:54:14.024Z</time></trkpt><trkpt lat="43.1172663" lon="12.4086751"><ele>364.0</ele><time>2026-04-24T07:54:15.041Z</time></trkpt><trkpt lat="43.117245" lon="12.4088351"><ele>364.0</ele><time>2026-04-24T07:54:16.015Z</time></trkpt><trkpt lat="43.1172234" lon="12.4089855"><ele>364.0</ele><time>2026-04-24T07:54:17.015Z</time></trkpt><trkpt lat="43.1172051" lon="12.4091321"><ele>364.0</ele><time>2026-04-24T07:54:18.033Z</time></trkpt><trkpt lat="43.1171815" lon="12.4092829"><ele>364.0</ele><time>2026-04-24T07:54:19.032Z</time></trkpt><trkpt lat="43.1171611" lon="12.4094304"><ele>364.0</ele><time>2026-04-24T07:54:20.018Z</time></trkpt><trkpt lat="43.1171395" lon="12.4095814"><ele>364.0</ele><time>2026-04-24T07:54:21.026Z</time></trkpt><trkpt lat="43.1171238" lon="12.4097232"><ele>364.0</ele><time>2026-04-24T07:54:22.026Z</time></trkpt><trkpt lat="43.1171252" lon="12.4098722"><ele>364.0</ele><time>2026-04-24T07:54:23.03Z</time></trkpt><trkpt lat="43.117146" lon="12.4100263"><ele>364.0</ele><time>2026-04-24T07:54:24.012Z</time></trkpt><trkpt lat="43.1172058" lon="12.4101619"><ele>364.0</ele><time>2026-04-24T07:54:25.019Z</time></trkpt><trkpt lat="43.1172927" lon="12.4102827"><ele>364.0</ele><time>2026-04-24T07:54:26.025Z</time></trkpt><trkpt lat="43.1173885" lon="12.4104103"><ele>364.0</ele><time>2026-04-24T07:54:27.042Z</time></trkpt><trkpt lat="43.1174797" lon="12.4105374"><ele>365.25</ele><time>2026-04-24T07:54:28.031Z</time></trkpt><trkpt lat="43.1175821" lon="12.4106718"><ele>366.5</ele><time>2026-04-24T07:54:29.035Z</time></trkpt><trkpt lat="43.1176856" lon="12.4108242"><ele>367.75</ele><time>2026-04-24T07:54:30.026Z</time></trkpt><trkpt lat="43.1177871" lon="12.410971"><ele>369.0</ele><time>2026-04-24T07:54:31.026Z</time></trkpt><trkpt lat="43.1178903" lon="12.4111267"><ele>369.0</ele><time>2026-04-24T07:54:32.032Z</time></trkpt><trkpt lat="43.1179849" lon="12.4112927"><ele>369.0</ele><time>2026-04-24T07:54:33.026Z</time></trkpt><trkpt lat="43.1180713" lon="12.4114464"><ele>369.0</ele><time>2026-04-24T07:54:34.031Z</time></trkpt><trkpt lat="43.1181474" lon="12.4115984"><ele>369.0</ele><time>2026-04-24T07:54:35.03Z</time></trkpt><trkpt lat="43.1182053" lon="12.4117558"><ele>368.5</ele><time>2026-04-24T07:54:36.018Z</time></trkpt><trkpt lat="43.1182321" lon="12.4119133"><ele>368.0</ele><time>2026-04-24T07:54:37.012Z</time></trkpt><trkpt lat="43.1182403" lon="12.4120701"><ele>367.5</ele><time>2026-04-24T07:54:38.02Z</time></trkpt><trkpt lat="43.1182419" lon="12.41223"><ele>367.0</ele><time>2026-04-24T07:54:39.024Z</time></trkpt><trkpt lat="43.1182317" lon="12.4123791"><ele>361.25</ele><time>2026-04-24T07:54:40.024Z</time></trkpt><trkpt lat="43.1182231" lon="12.4125269"><ele>355.5</ele><time>2026-04-24T07:54:41.032Z</time></trkpt><trkpt lat="43.1182171" lon="12.4126857"><ele>349.75</ele><time>2026-04-24T07:54:42.015Z</time></trkpt><trkpt lat="43.1182064" lon="12.41284"><ele>344.0</ele><time>2026-04-24T07:54:43.038Z</time></trkpt><trkpt lat="43.1181974" lon="12.4129974"><ele>343.75</ele><time>2026-04-24T07:54:44.017Z</time></trkpt><trkpt lat="43.1181894" lon="12.4131519"><ele>343.5</ele><time>2026-04-24T07:54:45.029Z</time></trkpt><trkpt lat="43.1181784" lon="12.4133015"><ele>343.25</ele><time>2026-04-24T07:54:46.034Z</time></trkpt><trkpt lat="43.1181626" lon="12.4134609"><ele>343.0</ele><time>2026-04-24T07:54:47.045Z</time></trkpt><trkpt lat="43.1181376" lon="12.4136213"><ele>343.0</ele><time>2026-04-24T07:54:48.026Z</time></trkpt><trkpt lat="43.1181055" lon="12.4137755"><ele>343.0</ele><time>2026-04-24T07:54:49.026Z</time></trkpt><trkpt lat="43.1180653" lon="12.4139218"><ele>343.0</ele><time>2026-04-24T07:54:50.025Z</time></trkpt><trkpt lat="43.1180277" lon="12.4140736"><ele>343.0</ele><time>2026-04-24T07:54:51.038Z</time></trkpt><trkpt lat="43.1179923" lon="12.4142248"><ele>343.25</ele><time>2026-04-24T07:54:52.023Z</time></trkpt><trkpt lat="43.1179721" lon="12.4143744"><ele>343.5</ele><time>2026-04-24T07:54:53.019Z</time></trkpt><trkpt lat="43.1179729" lon="12.4145284"><ele>343.75</ele><time>2026-04-24T07:54:54.026Z</time></trkpt><trkpt lat="43.1179961" lon="12.41468"><ele>344.0</ele><time>2026-04-24T07:54:55.009Z</time></trkpt><trkpt lat="43.1180343" lon="12.4148317"><ele>343.2</ele><time>2026-04-24T07:54:56.027Z</time></trkpt><trkpt lat="43.1181115" lon="12.4149417"><ele>342.4</ele><time>2026-04-24T07:54:57.022Z</time></trkpt><trkpt lat="43.1181904" lon="12.4150661"><ele>341.6</ele><time>2026-04-24T07:54:58.022Z</time></trkpt><trkpt lat="43.1182737" lon="12.4151565"><ele>340.8</ele><time>2026-04-24T07:54:59.029Z</time></trkpt><trkpt lat="43.1183485" lon="12.4152418"><ele>340.0</ele><time>2026-04-24T07:55:00.018Z</time></trkpt><trkpt lat="43.1184363" lon="12.4153437"><ele>341.0</ele><time>2026-04-24T07:55:01.024Z</time></trkpt><trkpt lat="43.1185362" lon="12.4154444"><ele>342.0</ele><time>2026-04-24T07:55:02.027Z</time></trkpt><trkpt lat="43.1186375" lon="12.4155452"><ele>343.0</ele><time>2026-04-24T07:55:03.037Z</time></trkpt><trkpt lat="43.1187492" lon="12.4156579"><ele>344.0</ele><time>2026-04-24T07:55:04.035Z</time></trkpt><trkpt lat="43.1188656" lon="12.4157657"><ele>344.0</ele><time>2026-04-24T07:55:05.026Z</time></trkpt><trkpt lat="43.1189798" lon="12.4158667"><ele>344.0</ele><time>2026-04-24T07:55:06.034Z</time></trkpt><trkpt lat="43.1190983" lon="12.4159637"><ele>344.0</ele><time>2026-04-24T07:55:07.039Z</time></trkpt><trkpt lat="43.119217" lon="12.4160615"><ele>344.0</ele><time>2026-04-24T07:55:08.015Z</time></trkpt><trkpt lat="43.1193252" lon="12.4161716"><ele>342.75</ele><time>2026-04-24T07:55:09.02Z</time></trkpt><trkpt lat="43.1194176" lon="12.4162883"><ele>341.5</ele><time>2026-04-24T07:55:10.025Z</time></trkpt><trkpt lat="43.1194852" lon="12.416431"><ele>340.25</ele><time>2026-04-24T07:55:11.013Z</time></trkpt><trkpt lat="43.1195362" lon="12.416568"><ele>339.0</ele><time>2026-04-24T07:55:12.023Z</time></trkpt><trkpt lat="43.1195615" lon="12.4167218"><ele>339.0</ele><time>2026-04-24T07:55:13.013Z</time></trkpt><trkpt lat="43.1195634" lon="12.4168899"><ele>339.0</ele><time>2026-04-24T07:55:14.015Z</time></trkpt><trkpt lat="43.1195265" lon="12.4170628"><ele>339.0</ele><time>2026-04-24T07:55:15.019Z</time></trkpt><trkpt lat="43.1194581" lon="12.4172333"><ele>339.0</ele><time>2026-04-24T07:55:16.023Z</time></trkpt><trkpt lat="43.1193621" lon="12.4173924"><ele>338.75</ele><time>2026-04-24T07:55:17.018Z</time></trkpt><trkpt lat="43.1192639" lon="12.4175234"><ele>338.5</ele><time>2026-04-24T07:55:18.017Z</time></trkpt><trkpt lat="43.1191801" lon="12.4176629"><ele>338.25</ele><time>2026-04-24T07:55:19.022Z</time></trkpt><trkpt lat="43.1191118" lon="12.4178049"><ele>338.0</ele><time>2026-04-24T07:55:20.021Z</time></trkpt><trkpt lat="43.1190599" lon="12.4179583"><ele>333.25</ele><time>2026-04-24T07:55:21.029Z</time></trkpt><trkpt lat="43.1190253" lon="12.4181127"><ele>328.5</ele><time>2026-04-24T07:55:22.017Z</time></trkpt><trkpt lat="43.1189998" lon="12.4182636"><ele>323.75</ele><time>2026-04-24T07:55:23.024Z</time></trkpt><trkpt lat="43.1189791" lon="12.4184251"><ele>319.0</ele><time>2026-04-24T07:55:24.017Z</time></trkpt><trkpt lat="43.1189707" lon="12.4185834"><ele>319.0</ele><time>2026-04-24T07:55:25.021Z</time></trkpt><trkpt lat="43.1189642" lon="12.4187473"><ele>319.0</ele><time>2026-04-24T07:55:26.031Z</time></trkpt><trkpt lat="43.1189519" lon="12.4189147"><ele>319.0</ele><time>2026-04-24T07:55:27.019Z</time></trkpt><trkpt lat="43.1189367" lon="12.4190841"><ele>319.0</ele><time>2026-04-24T07:55:28.014Z</time></trkpt><trkpt lat="43.1189204" lon="12.419256"><ele>321.25</ele><time>2026-04-24T07:55:29.018Z</time></trkpt><trkpt lat="43.1189096" lon="12.4194394"><ele>323.5</ele><time>2026-04-24T07:55:30.014Z</time></trkpt><trkpt lat="43.1188938" lon="12.4196168"><ele>325.75</ele><time>2026-04-24T07:55:31.019Z</time></trkpt><trkpt lat="43.1188794" lon="12.4197902"><ele>328.0</ele><time>2026-04-24T07:55:32.012Z</time></trkpt><trkpt lat="43.1188662" lon="12.4199661"><ele>328.0</ele><time>2026-04-24T07:55:33.016Z</time></trkpt><trkpt lat="43.1188518" lon="12.4201439"><ele>328.0</ele><time>2026-04-24T07:55:34.013Z</time></trkpt><trkpt lat="43.1188346" lon="12.4203228"><ele>328.0</ele><time>2026-04-24T07:55:35.017Z</time></trkpt><trkpt lat="43.1188193" lon="12.4204998"><ele>328.0</ele><time>2026-04-24T07:55:36.006Z</time></trkpt><trkpt lat="43.1187963" lon="12.4206768"><ele>328.5</ele><time>2026-04-24T07:55:37.018Z</time></trkpt><trkpt lat="43.1187727" lon="12.4208333"><ele>329.0</ele><time>2026-04-24T07:55:38.013Z</time></trkpt><trkpt lat="43.1187228" lon="12.4209775"><ele>329.5</ele><time>2026-04-24T07:55:39.014Z</time></trkpt><trkpt lat="43.1186536" lon="12.4210973"><ele>330.0</ele><time>2026-04-24T07:55:40.022Z</time></trkpt><trkpt lat="43.1185637" lon="12.4211926"><ele>330.0</ele><time>2026-04-24T07:55:41.015Z</time></trkpt><trkpt lat="43.1184534" lon="12.4212835"><ele>330.0</ele><time>2026-04-24T07:55:42.021Z</time></trkpt><trkpt lat="43.118332" lon="12.4213643"><ele>330.0</ele><time>2026-04-24T07:55:43.008Z</time></trkpt><trkpt lat="43.118206" lon="12.4214439"><ele>330.0</ele><time>2026-04-24T07:55:44.015Z</time></trkpt><trkpt lat="43.1180889" lon="12.4215399"><ele>328.25</ele><time>2026-04-24T07:55:45.018Z</time></trkpt><trkpt lat="43.1180093" lon="12.421668"><ele>326.5</ele><time>2026-04-24T07:55:46.014Z</time></trkpt><trkpt lat="43.1179508" lon="12.4218229"><ele>324.75</ele><time>2026-04-24T07:55:47.014Z</time></trkpt><trkpt lat="43.1178917" lon="12.4219886"><ele>323.0</ele><time>2026-04-24T07:55:48.044Z</time></trkpt><trkpt lat="43.1178337" lon="12.4221548"><ele>323.0</ele><time>2026-04-24T07:55:49.036Z</time></trkpt><trkpt lat="43.1177741" lon="12.4223162"><ele>323.0</ele><time>2026-04-24T07:55:50.035Z</time></trkpt><trkpt lat="43.1177128" lon="12.42247"><ele>323.0</ele><time>2026-04-24T07:55:51.043Z</time></trkpt><trkpt lat="43.1176511" lon="12.4226262"><ele>323.0</ele><time>2026-04-24T07:55:52.026Z</time></trkpt><trkpt lat="43.1175986" lon="12.4227714"><ele>323.0</ele><time>2026-04-24T07:55:53.032Z</time></trkpt><trkpt lat="43.1175548" lon="12.4229164"><ele>323.0</ele><time>2026-04-24T07:55:54.023Z</time></trkpt><trkpt lat="43.1175501" lon="12.4230702"><ele>323.0</ele><time>2026-04-24T07:55:55.024Z</time></trkpt><trkpt lat="43.1176145" lon="12.4232146"><ele>323.0</ele><time>2026-04-24T07:55:56.04Z</time></trkpt><trkpt lat="43.1176867" lon="12.4233088"><ele>320.75</ele><time>2026-04-24T07:55:57.013Z</time></trkpt><trkpt lat="43.1177899" lon="12.4233644"><ele>318.5</ele><time>2026-04-24T07:55:58.024Z</time></trkpt><trkpt lat="43.1179051" lon="12.4234098"><ele>316.25</ele><time>2026-04-24T07:55:59.026Z</time></trkpt><trkpt lat="43.1180185" lon="12.4234503"><ele>314.0</ele><time>2026-04-24T07:56:00.02Z</time></trkpt><trkpt lat="43.118147" lon="12.4234886"><ele>313.75</ele><time>2026-04-24T07:56:01.02Z</time></trkpt><trkpt lat="43.1182704" lon="12.42355"><ele>313.5</ele><time>2026-04-24T07:56:02.022Z</time></trkpt><trkpt lat="43.1183954" lon="12.4236115"><ele>313.25</ele><time>2026-04-24T07:56:03.013Z</time></trkpt><trkpt lat="43.118494" lon="12.423714"><ele>313.0</ele><time>2026-04-24T07:56:04.009Z</time></trkpt><trkpt lat="43.1185721" lon="12.4238513"><ele>313.0</ele><time>2026-04-24T07:56:05.007Z</time></trkpt><trkpt lat="43.1186289" lon="12.4240036"><ele>313.0</ele><time>2026-04-24T07:56:06.014Z</time></trkpt><trkpt lat="43.1186768" lon="12.4241692"><ele>313.0</ele><time>2026-04-24T07:56:07.014Z</time></trkpt><trkpt lat="43.1187418" lon="12.424353"><ele>313.0</ele><time>2026-04-24T07:56:08.014Z</time></trkpt><trkpt lat="43.1187863" lon="12.4245326"><ele>311.75</ele><time>2026-04-24T07:56:09.018Z</time></trkpt><trkpt lat="43.1188089" lon="12.4247319"><ele>310.5</ele><time>2026-04-24T07:56:10.008Z</time></trkpt><trkpt lat="43.1188008" lon="12.4249186"><ele>309.25</ele><time>2026-04-24T07:56:11.025Z</time></trkpt><trkpt lat="43.1187458" lon="12.425069"><ele>308.0</ele><time>2026-04-24T07:56:12.017Z</time></trkpt><trkpt lat="43.1186549" lon="12.4252007"><ele>308.0</ele><time>2026-04-24T07:56:13.021Z</time></trkpt><trkpt lat="43.118538" lon="12.4253153"><ele>308.0</ele><time>2026-04-24T07:56:14.027Z</time></trkpt><trkpt lat="43.118423" lon="12.4254135"><ele>308.0</ele><time>2026-04-24T07:56:15.013Z</time></trkpt><trkpt lat="43.1183059" lon="12.4255282"><ele>308.0</ele><time>2026-04-24T07:56:16.011Z</time></trkpt><trkpt lat="43.1181886" lon="12.4256284"><ele>307.75</ele><time>2026-04-24T07:56:17.014Z</time></trkpt><trkpt lat="43.118072" lon="12.4257186"><ele>307.5</ele><time>2026-04-24T07:56:18.01Z</time></trkpt><trkpt lat="43.1179468" lon="12.4258169"><ele>307.25</ele><time>2026-04-24T07:56:19.012Z</time></trkpt><trkpt lat="43.1178151" lon="12.4259223"><ele>307.0</ele><time>2026-04-24T07:56:20.006Z</time></trkpt><trkpt lat="43.1176916" lon="12.4260284"><ele>307.0</ele><time>2026-04-24T07:56:21.016Z</time></trkpt><trkpt lat="43.1175814" lon="12.4261217"><ele>307.0</ele><time>2026-04-24T07:56:22.015Z</time></trkpt><trkpt lat="43.1174969" lon="12.4262103"><ele>307.0</ele><time>2026-04-24T07:56:23.023Z</time></trkpt><trkpt lat="43.1174368" lon="12.4263357"><ele>307.0</ele><time>2026-04-24T07:56:24.029Z</time></trkpt><trkpt lat="43.1173783" lon="12.426453"><ele>307.0</ele><time>2026-04-24T07:56:25.021Z</time></trkpt><trkpt lat="43.1173718" lon="12.4265878"><ele>307.0</ele><time>2026-04-24T07:56:26.027Z</time></trkpt><trkpt lat="43.1174139" lon="12.4267234"><ele>307.0</ele><time>2026-04-24T07:56:27.013Z</time></trkpt><trkpt lat="43.1175015" lon="12.426844"><ele>307.0</ele><time>2026-04-24T07:56:28.021Z</time></trkpt><trkpt lat="43.1175958" lon="12.426963"><ele>307.0</ele><time>2026-04-24T07:56:29.009Z</time></trkpt><trkpt lat="43.1176967" lon="12.4270736"><ele>304.75</ele><time>2026-04-24T07:56:30.02Z</time></trkpt><trkpt lat="43.1177947" lon="12.4271924"><ele>302.5</ele><time>2026-04-24T07:56:31.014Z</time></trkpt><trkpt lat="43.1178805" lon="12.4272975"><ele>300.25</ele><time>2026-04-24T07:56:32.01Z</time></trkpt><trkpt lat="43.1179675" lon="12.427404"><ele>298.0</ele><time>2026-04-24T07:56:33.023Z</time></trkpt><trkpt lat="43.118049" lon="12.4275043"><ele>298.0</ele><time>2026-04-24T07:56:34.014Z</time></trkpt><trkpt lat="43.1181259" lon="12.4275898"><ele>298.0</ele><time>2026-04-24T07:56:35.026Z</time></trkpt><trkpt lat="43.1181966" lon="12.4276703"><ele>298.0</ele><time>2026-04-24T07:56:36.013Z</time></trkpt><trkpt lat="43.1182525" lon="12.4277609"><ele>298.0</ele><time>2026-04-24T07:56:37.017Z</time></trkpt><trkpt lat="43.1182925" lon="12.4278644"><ele>298.0</ele><time>2026-04-24T07:56:38.016Z</time></trkpt><trkpt lat="43.1183182" lon="12.4279728"><ele>298.0</ele><time>2026-04-24T07:56:39.029Z</time></trkpt><trkpt lat="43.1183387" lon="12.428086"><ele>298.66666666666663</ele><time>2026-04-24T07:56:40.008Z</time></trkpt><trkpt lat="43.1183538" lon="12.4281983"><ele>299.3333333333333</ele><time>2026-04-24T07:56:41.024Z</time></trkpt><trkpt lat="43.1183689" lon="12.4283142"><ele>300.0</ele><time>2026-04-24T07:56:42.018Z</time></trkpt><trkpt lat="43.1183873" lon="12.4284301"><ele>300.6666666666667</ele><time>2026-04-24T07:56:43.026Z</time></trkpt><trkpt lat="43.1184241" lon="12.4285485"><ele>301.33333333333337</ele><time>2026-04-24T07:56:44.015Z</time></trkpt><trkpt lat="43.1184874" lon="12.4286537"><ele>302.0</ele><time>2026-04-24T07:56:45.018Z</time></trkpt><trkpt lat="43.1185787" lon="12.4287403"><ele>302.0</ele><time>2026-04-24T07:56:46.002Z</time></trkpt><trkpt lat="43.1186941" lon="12.4287976"><ele>302.0</ele><time>2026-04-24T07:56:47.023Z</time></trkpt><trkpt lat="43.1188121" lon="12.4288406"><ele>302.0</ele><time>2026-04-24T07:56:48.009Z</time></trkpt><trkpt lat="43.1189407" lon="12.4288929"><ele>302.0</ele><time>2026-04-24T07:56:49.018Z</time></trkpt><trkpt lat="43.119074" lon="12.4289449"><ele>300.25</ele><time>2026-04-24T07:56:50.019Z</time></trkpt><trkpt lat="43.1192038" lon="12.4289887"><ele>298.5</ele><time>2026-04-24T07:56:51.024Z</time></trkpt><trkpt lat="43.1193257" lon="12.4290314"><ele>296.75</ele><time>2026-04-24T07:56:52.016Z</time></trkpt><trkpt lat="43.1194436" lon="12.4290778"><ele>295.0</ele><time>2026-04-24T07:56:53.031Z</time></trkpt><trkpt lat="43.1195607" lon="12.4291241"><ele>295.0</ele><time>2026-04-24T07:56:54.014Z</time></trkpt><trkpt lat="43.1196764" lon="12.4291696"><ele>295.0</ele><time>2026-04-24T07:56:55.022Z</time></trkpt><trkpt lat="43.1197977" lon="12.4292101"><ele>295.0</ele><time>2026-04-24T07:56:56.042Z</time></trkpt><trkpt lat="43.1199221" lon="12.4292594"><ele>295.0</ele><time>2026-04-24T07:56:57.018Z</time></trkpt><trkpt lat="43.1200266" lon="12.4292935"><ele>295.0</ele><time>2026-04-24T07:56:58.02Z</time></trkpt><trkpt lat="43.1201268" lon="12.4293383"><ele>295.0</ele><time>2026-04-24T07:56:59.022Z</time></trkpt><trkpt lat="43.1202281" lon="12.4293802"><ele>295.0</ele><time>2026-04-24T07:57:00.013Z</time></trkpt><trkpt lat="43.1203295" lon="12.4294192"><ele>295.0</ele><time>2026-04-24T07:57:01.022Z</time></trkpt><trkpt lat="43.1204274" lon="12.429455"><ele>295.0</ele><time>2026-04-24T07:57:02.009Z</time></trkpt><trkpt lat="43.1205216" lon="12.4294992"><ele>295.0</ele><time>2026-04-24T07:57:03.026Z</time></trkpt><trkpt lat="43.1206157" lon="12.4295435"><ele>295.0</ele><time>2026-04-24T07:57:04.015Z</time></trkpt><trkpt lat="43.1206962" lon="12.4296029"><ele>295.0</ele><time>2026-04-24T07:57:05.016Z</time></trkpt><trkpt lat="43.1207688" lon="12.4296613"><ele>295.0</ele><time>2026-04-24T07:57:06.012Z</time></trkpt><trkpt lat="43.1208424" lon="12.4297241"><ele>295.0</ele><time>2026-04-24T07:57:07.01Z</time></trkpt><trkpt lat="43.1209128" lon="12.4297927"><ele>295.0</ele><time>2026-04-24T07:57:08.022Z</time></trkpt><trkpt lat="43.1209861" lon="12.4298664"><ele>293.0</ele><time>2026-04-24T07:57:09.014Z</time></trkpt><trkpt lat="43.1210576" lon="12.4299267"><ele>291.0</ele><time>2026-04-24T07:57:10.024Z</time></trkpt><trkpt lat="43.1211286" lon="12.4299794"><ele>289.0</ele><time>2026-04-24T07:57:11.017Z</time></trkpt><trkpt lat="43.1211902" lon="12.4300477"><ele>287.0</ele><time>2026-04-24T07:57:12.017Z</time></trkpt><trkpt lat="43.1212358" lon="12.4301264"><ele>285.0</ele><time>2026-04-24T07:57:13.024Z</time></trkpt><trkpt lat="43.1212317" lon="12.430272"><ele>283.0</ele><time>2026-04-24T07:57:15.02Z</time></trkpt><trkpt lat="43.121187" lon="12.4303419"><ele>283.0</ele><time>2026-04-24T07:57:16.018Z</time></trkpt><trkpt lat="43.1211167" lon="12.430411"><ele>283.0</ele><time>2026-04-24T07:57:17.019Z</time></trkpt><trkpt lat="43.1210249" lon="12.4304708"><ele>283.0</ele><time>2026-04-24T07:57:18.005Z</time></trkpt><trkpt lat="43.1209148" lon="12.4304894"><ele>283.0</ele><time>2026-04-24T07:57:19.021Z</time></trkpt><trkpt lat="43.1207994" lon="12.4304824"><ele>283.0</ele><time>2026-04-24T07:57:20.019Z</time></trkpt><trkpt lat="43.1206723" lon="12.4304618"><ele>282.0</ele><time>2026-04-24T07:57:21.023Z</time></trkpt><trkpt lat="43.1205522" lon="12.4304271"><ele>281.0</ele><time>2026-04-24T07:57:22.018Z</time></trkpt><trkpt lat="43.1204383" lon="12.4304088"><ele>280.0</ele><time>2026-04-24T07:57:23.026Z</time></trkpt><trkpt lat="43.1203303" lon="12.4304011"><ele>279.0</ele><time>2026-04-24T07:57:24.017Z</time></trkpt><trkpt lat="43.1202267" lon="12.4303951"><ele>278.0</ele><time>2026-04-24T07:57:25.024Z</time></trkpt><trkpt lat="43.1201227" lon="12.4304005"><ele>278.0</ele><time>2026-04-24T07:57:26.017Z</time></trkpt><trkpt lat="43.1200253" lon="12.4304135"><ele>278.0</ele><time>2026-04-24T07:57:27.012Z</time></trkpt><trkpt lat="43.1199287" lon="12.430413"><ele>278.0</ele><time>2026-04-24T07:57:28.019Z</time></trkpt><trkpt lat="43.1198279" lon="12.4304241"><ele>278.0</ele><time>2026-04-24T07:57:29.021Z</time></trkpt><trkpt lat="43.1197297" lon="12.4304492"><ele>278.0</ele><time>2026-04-24T07:57:30.018Z</time></trkpt><trkpt lat="43.1196196" lon="12.4304839"><ele>274.75</ele><time>2026-04-24T07:57:31.019Z</time></trkpt><trkpt lat="43.1195108" lon="12.430536"><ele>271.5</ele><time>2026-04-24T07:57:32.017Z</time></trkpt><trkpt lat="43.1194039" lon="12.4305812"><ele>268.25</ele><time>2026-04-24T07:57:33.027Z</time></trkpt><trkpt lat="43.1192977" lon="12.4306371"><ele>265.0</ele><time>2026-04-24T07:57:34.022Z</time></trkpt><trkpt lat="43.1191913" lon="12.4306942"><ele>265.0</ele><time>2026-04-24T07:57:35.013Z</time></trkpt><trkpt lat="43.1190706" lon="12.4307613"><ele>265.0</ele><time>2026-04-24T07:57:36.008Z</time></trkpt><trkpt lat="43.1189521" lon="12.4308382"><ele>265.0</ele><time>2026-04-24T07:57:37.005Z</time></trkpt><trkpt lat="43.1188331" lon="12.4309133"><ele>265.0</ele><time>2026-04-24T07:57:38.035Z</time></trkpt><trkpt lat="43.1187141" lon="12.4309849"><ele>265.25</ele><time>2026-04-24T07:57:39.025Z</time></trkpt><trkpt lat="43.1185858" lon="12.4310603"><ele>265.5</ele><time>2026-04-24T07:57:40.013Z</time></trkpt><trkpt lat="43.1184737" lon="12.4311454"><ele>265.75</ele><time>2026-04-24T07:57:41.033Z</time></trkpt><trkpt lat="43.1183632" lon="12.4312381"><ele>266.0</ele><time>2026-04-24T07:57:42.013Z</time></trkpt><trkpt lat="43.1182635" lon="12.431334"><ele>264.5</ele><time>2026-04-24T07:57:43.03Z</time></trkpt><trkpt lat="43.1181679" lon="12.4314225"><ele>263.0</ele><time>2026-04-24T07:57:44.009Z</time></trkpt><trkpt lat="43.118066" lon="12.4315107"><ele>261.5</ele><time>2026-04-24T07:57:45.02Z</time></trkpt><trkpt lat="43.1179723" lon="12.4315952"><ele>260.0</ele><time>2026-04-24T07:57:46.017Z</time></trkpt><trkpt lat="43.1178805" lon="12.4316808"><ele>260.0</ele><time>2026-04-24T07:57:47.019Z</time></trkpt><trkpt lat="43.1177855" lon="12.4317732"><ele>260.0</ele><time>2026-04-24T07:57:48.016Z</time></trkpt><trkpt lat="43.1176985" lon="12.431864"><ele>260.0</ele><time>2026-04-24T07:57:49.017Z</time></trkpt><trkpt lat="43.117615" lon="12.431963"><ele>260.0</ele><time>2026-04-24T07:57:50.013Z</time></trkpt><trkpt lat="43.1175355" lon="12.432074"><ele>258.5</ele><time>2026-04-24T07:57:51.02Z</time></trkpt><trkpt lat="43.1174529" lon="12.4322099"><ele>257.0</ele><time>2026-04-24T07:57:52.034Z</time></trkpt><trkpt lat="43.1173666" lon="12.4323459"><ele>255.5</ele><time>2026-04-24T07:57:53.038Z</time></trkpt><trkpt lat="43.1172805" lon="12.4324928"><ele>254.0</ele><time>2026-04-24T07:57:54.014Z</time></trkpt><trkpt lat="43.117191" lon="12.4326366"><ele>254.0</ele><time>2026-04-24T07:57:55.034Z</time></trkpt><trkpt lat="43.1171106" lon="12.4327877"><ele>254.0</ele><time>2026-04-24T07:57:56.027Z</time></trkpt><trkpt lat="43.117029" lon="12.4329405"><ele>254.0</ele><time>2026-04-24T07:57:57.015Z</time></trkpt><trkpt lat="43.1169414" lon="12.4330795"><ele>254.0</ele><time>2026-04-24T07:57:58.034Z</time></trkpt><trkpt lat="43.1168595" lon="12.4332019"><ele>251.2</ele><time>2026-04-24T07:57:59.029Z</time></trkpt><trkpt lat="43.1167757" lon="12.4333117"><ele>248.39999999999998</ele><time>2026-04-24T07:58:00.016Z</time></trkpt><trkpt lat="43.1166947" lon="12.4334052"><ele>245.6</ele><time>2026-04-24T07:58:01.026Z</time></trkpt><trkpt lat="43.1166144" lon="12.4334928"><ele>242.8</ele><time>2026-04-24T07:58:02.025Z</time></trkpt><trkpt lat="43.1165446" lon="12.4335805"><ele>240.0</ele><time>2026-04-24T07:58:03.023Z</time></trkpt><trkpt lat="43.1164754" lon="12.4336564"><ele>239.16666666666666</ele><time>2026-04-24T07:58:04.03Z</time></trkpt><trkpt lat="43.1164016" lon="12.4337165"><ele>238.33333333333331</ele><time>2026-04-24T07:58:05.034Z</time></trkpt><trkpt lat="43.1163261" lon="12.4337371"><ele>237.5</ele><time>2026-04-24T07:58:06.022Z</time></trkpt><trkpt lat="43.1162428" lon="12.433729"><ele>236.66666666666666</ele><time>2026-04-24T07:58:07.016Z</time></trkpt><trkpt lat="43.1161616" lon="12.4336922"><ele>235.83333333333331</ele><time>2026-04-24T07:58:08.01Z</time></trkpt><trkpt lat="43.1160812" lon="12.4336259"><ele>235.0</ele><time>2026-04-24T07:58:09.027Z</time></trkpt><trkpt lat="43.116011" lon="12.4335305"><ele>235.0</ele><time>2026-04-24T07:58:10.027Z</time></trkpt><trkpt lat="43.1159416" lon="12.4334232"><ele>235.0</ele><time>2026-04-24T07:58:11.021Z</time></trkpt><trkpt lat="43.1158638" lon="12.4333044"><ele>235.0</ele><time>2026-04-24T07:58:12.008Z</time></trkpt><trkpt lat="43.1157988" lon="12.4332174"><ele>235.0</ele><time>2026-04-24T07:58:13.021Z</time></trkpt><trkpt lat="43.1157407" lon="12.4330947"><ele>235.0</ele><time>2026-04-24T07:58:14.002Z</time></trkpt><trkpt lat="43.1156884" lon="12.4330086"><ele>232.2</ele><time>2026-04-24T07:58:15.014Z</time></trkpt><trkpt lat="43.1156241" lon="12.4329028"><ele>229.4</ele><time>2026-04-24T07:58:16.009Z</time></trkpt><trkpt lat="43.1155711" lon="12.4328024"><ele>226.60000000000002</ele><time>2026-04-24T07:58:17.022Z</time></trkpt><trkpt lat="43.1155135" lon="12.4327001"><ele>223.8</ele><time>2026-04-24T07:58:18.02Z</time></trkpt><trkpt lat="43.1154603" lon="12.4325998"><ele>221.0</ele><time>2026-04-24T07:58:19.027Z</time></trkpt><trkpt lat="43.1154098" lon="12.4325039"><ele>221.0</ele><time>2026-04-24T07:58:20.017Z</time></trkpt><trkpt lat="43.1153624" lon="12.4324031"><ele>221.00000000000003</ele><time>2026-04-24T07:58:21.031Z</time></trkpt><trkpt lat="43.1153124" lon="12.4322949"><ele>221.00000000000003</ele><time>2026-04-24T07:58:22.024Z</time></trkpt><trkpt lat="43.1152564" lon="12.4321768"><ele>221.0</ele><time>2026-04-24T07:58:23.013Z</time></trkpt><trkpt lat="43.1151976" lon="12.4320497"><ele>221.0</ele><time>2026-04-24T07:58:24.016Z</time></trkpt><trkpt lat="43.1151397" lon="12.4319064"><ele>222.75</ele><time>2026-04-24T07:58:25.02Z</time></trkpt><trkpt lat="43.1150862" lon="12.4317471"><ele>224.5</ele><time>2026-04-24T07:58:26.013Z</time></trkpt><trkpt lat="43.1150316" lon="12.4315945"><ele>226.25</ele><time>2026-04-24T07:58:27.017Z</time></trkpt><trkpt lat="43.1149795" lon="12.4314458"><ele>228.0</ele><time>2026-04-24T07:58:28.02Z</time></trkpt><trkpt lat="43.1149418" lon="12.4312958"><ele>228.4</ele><time>2026-04-24T07:58:29.022Z</time></trkpt><trkpt lat="43.1149228" lon="12.4311568"><ele>228.8</ele><time>2026-04-24T07:58:30.015Z</time></trkpt><trkpt lat="43.1148861" lon="12.4310348"><ele>229.2</ele><time>2026-04-24T07:58:31.018Z</time></trkpt><trkpt lat="43.1148513" lon="12.4309221"><ele>229.6</ele><time>2026-04-24T07:58:32.014Z</time></trkpt><trkpt lat="43.1148132" lon="12.4308196"><ele>230.0</ele><time>2026-04-24T07:58:33.024Z</time></trkpt><trkpt lat="43.1147443" lon="12.4307579"><ele>230.0</ele><time>2026-04-24T07:58:34.035Z</time></trkpt><trkpt lat="43.1146629" lon="12.4307387"><ele>230.0</ele><time>2026-04-24T07:58:35.018Z</time></trkpt><trkpt lat="43.1145904" lon="12.4307823"><ele>230.0</ele><time>2026-04-24T07:58:36.013Z</time></trkpt><trkpt lat="43.1145278" lon="12.4308768"><ele>230.0</ele><time>2026-04-24T07:58:37.03Z</time></trkpt><trkpt lat="43.1144963" lon="12.4310171"><ele>230.0</ele><time>2026-04-24T07:58:38.006Z</time></trkpt><trkpt lat="43.1145033" lon="12.4311861"><ele>228.75</ele><time>2026-04-24T07:58:39.017Z</time></trkpt><trkpt lat="43.1145181" lon="12.4313665"><ele>227.5</ele><time>2026-04-24T07:58:40.016Z</time></trkpt><trkpt lat="43.1145346" lon="12.4315515"><ele>226.25</ele><time>2026-04-24T07:58:41.019Z</time></trkpt><trkpt lat="43.1145482" lon="12.4317235"><ele>225.0</ele><time>2026-04-24T07:58:42.013Z</time></trkpt><trkpt lat="43.114568" lon="12.4318908"><ele>225.0</ele><time>2026-04-24T07:58:43.021Z</time></trkpt><trkpt lat="43.1145928" lon="12.4320536"><ele>225.0</ele><time>2026-04-24T07:58:44.03Z</time></trkpt><trkpt lat="43.1146125" lon="12.4322125"><ele>225.0</ele><time>2026-04-24T07:58:45.016Z</time></trkpt><trkpt lat="43.1146284" lon="12.4323586"><ele>225.0</ele><time>2026-04-24T07:58:46.017Z</time></trkpt><trkpt lat="43.1146492" lon="12.4325022"><ele>223.83333333333334</ele><time>2026-04-24T07:58:47.024Z</time></trkpt><trkpt lat="43.1146606" lon="12.4326404"><ele>222.66666666666669</ele><time>2026-04-24T07:58:48.011Z</time></trkpt><trkpt lat="43.1146729" lon="12.4327588"><ele>221.5</ele><time>2026-04-24T07:58:49.02Z</time></trkpt><trkpt lat="43.1146832" lon="12.4328749"><ele>220.33333333333334</ele><time>2026-04-24T07:58:50.019Z</time></trkpt><trkpt lat="43.1146975" lon="12.4329885"><ele>219.16666666666669</ele><time>2026-04-24T07:58:51.024Z</time></trkpt><trkpt lat="43.1147137" lon="12.4331097"><ele>218.0</ele><time>2026-04-24T07:58:52.008Z</time></trkpt><trkpt lat="43.1147279" lon="12.4332304"><ele>217.8</ele><time>2026-04-24T07:58:53.026Z</time></trkpt><trkpt lat="43.1147425" lon="12.433355"><ele>217.60000000000002</ele><time>2026-04-24T07:58:54.018Z</time></trkpt><trkpt lat="43.1147555" lon="12.4334966"><ele>217.39999999999998</ele><time>2026-04-24T07:58:55.024Z</time></trkpt><trkpt lat="43.1147721" lon="12.4336494"><ele>217.2</ele><time>2026-04-24T07:58:56.009Z</time></trkpt><trkpt lat="43.1147922" lon="12.4338074"><ele>217.0</ele><time>2026-04-24T07:58:57.012Z</time></trkpt><trkpt lat="43.1148107" lon="12.4339644"><ele>217.0</ele><time>2026-04-24T07:58:58.02Z</time></trkpt><trkpt lat="43.1148239" lon="12.434126"><ele>217.0</ele><time>2026-04-24T07:58:59.029Z</time></trkpt><trkpt lat="43.1148405" lon="12.4342803"><ele>217.0</ele><time>2026-04-24T07:59:00.029Z</time></trkpt><trkpt lat="43.1148541" lon="12.4344247"><ele>217.0</ele><time>2026-04-24T07:59:01.026Z</time></trkpt><trkpt lat="43.1148673" lon="12.4345699"><ele>217.0</ele><time>2026-04-24T07:59:02.032Z</time></trkpt><trkpt lat="43.1148834" lon="12.4347166"><ele>217.6</ele><time>2026-04-24T07:59:03.014Z</time></trkpt><trkpt lat="43.114901" lon="12.4348601"><ele>218.2</ele><time>2026-04-24T07:59:04.02Z</time></trkpt><trkpt lat="43.1149275" lon="12.4350067"><ele>218.8</ele><time>2026-04-24T07:59:05.024Z</time></trkpt><trkpt lat="43.1149552" lon="12.4351509"><ele>219.4</ele><time>2026-04-24T07:59:06.035Z</time></trkpt><trkpt lat="43.1149843" lon="12.4353017"><ele>220.0</ele><time>2026-04-24T07:59:07.016Z</time></trkpt><trkpt lat="43.1150158" lon="12.4354454"><ele>216.4</ele><time>2026-04-24T07:59:08.021Z</time></trkpt><trkpt lat="43.1150488" lon="12.4355809"><ele>212.8</ele><time>2026-04-24T07:59:09.027Z</time></trkpt><trkpt lat="43.1150818" lon="12.4357079"><ele>209.2</ele><time>2026-04-24T07:59:10.019Z</time></trkpt><trkpt lat="43.1151167" lon="12.4358346"><ele>205.6</ele><time>2026-04-24T07:59:11.016Z</time></trkpt><trkpt lat="43.1151555" lon="12.4359604"><ele>202.0</ele><time>2026-04-24T07:59:12.024Z</time></trkpt><trkpt lat="43.1151894" lon="12.4360958"><ele>202.0</ele><time>2026-04-24T07:59:13.006Z</time></trkpt><trkpt lat="43.1152256" lon="12.4362276"><ele>202.0</ele><time>2026-04-24T07:59:14.022Z</time></trkpt><trkpt lat="43.1152576" lon="12.4363417"><ele>202.0</ele><time>2026-04-24T07:59:15.029Z</time></trkpt><trkpt lat="43.1152894" lon="12.4364542"><ele>202.0</ele><time>2026-04-24T07:59:16.018Z</time></trkpt><trkpt lat="43.1153297" lon="12.4365624"><ele>202.0</ele><time>2026-04-24T07:59:17.023Z</time></trkpt><trkpt lat="43.1153583" lon="12.4366746"><ele>201.6</ele><time>2026-04-24T07:59:18.024Z</time></trkpt><trkpt lat="43.1153825" lon="12.4367903"><ele>201.2</ele><time>2026-04-24T07:59:19.027Z</time></trkpt><trkpt lat="43.1154" lon="12.4369241"><ele>200.8</ele><time>2026-04-24T07:59:20.013Z</time></trkpt><trkpt lat="43.1153989" lon="12.4370688"><ele>200.4</ele><time>2026-04-24T07:59:21.018Z</time></trkpt><trkpt lat="43.1153728" lon="12.437211"><ele>200.0</ele><time>2026-04-24T07:59:22.026Z</time></trkpt><trkpt lat="43.1153299" lon="12.4373407"><ele>199.8</ele><time>2026-04-24T07:59:23.019Z</time></trkpt><trkpt lat="43.1152818" lon="12.4374798"><ele>199.6</ele><time>2026-04-24T07:59:24.022Z</time></trkpt><trkpt lat="43.1152325" lon="12.4376187"><ele>199.39999999999998</ele><time>2026-04-24T07:59:25.029Z</time></trkpt><trkpt lat="43.1151867" lon="12.4377401"><ele>199.2</ele><time>2026-04-24T07:59:26.028Z</time></trkpt><trkpt lat="43.1151374" lon="12.4378619"><ele>199.0</ele><time>2026-04-24T07:59:27.007Z</time></trkpt><trkpt lat="43.1150656" lon="12.4379577"><ele>199.0</ele><time>2026-04-24T07:59:28.004Z</time></trkpt><trkpt lat="43.1149847" lon="12.4380391"><ele>199.0</ele><time>2026-04-24T07:59:29.018Z</time></trkpt><trkpt lat="43.1149218" lon="12.4381213"><ele>199.0</ele><time>2026-04-24T07:59:30.027Z</time></trkpt><trkpt lat="43.1148421" lon="12.4381896"><ele>199.0</ele><time>2026-04-24T07:59:31.049Z</time></trkpt><trkpt lat="43.1147654" lon="12.4382758"><ele>199.0</ele><time>2026-04-24T07:59:32.012Z</time></trkpt><trkpt lat="43.1146828" lon="12.4383607"><ele>198.99999999999997</ele><time>2026-04-24T07:59:33.025Z</time></trkpt><trkpt lat="43.1146104" lon="12.4384363"><ele>199.0</ele><time>2026-04-24T07:59:34.016Z</time></trkpt><trkpt lat="43.1145344" lon="12.4385122"><ele>199.0</ele><time>2026-04-24T07:59:35.026Z</time></trkpt><trkpt lat="43.1144706" lon="12.4385856"><ele>199.0</ele><time>2026-04-24T07:59:36.022Z</time></trkpt><trkpt lat="43.1143994" lon="12.4386505"><ele>198.99999999999997</ele><time>2026-04-24T07:59:37.025Z</time></trkpt><trkpt lat="43.1143266" lon="12.4387184"><ele>199.0</ele><time>2026-04-24T07:59:38.017Z</time></trkpt><trkpt lat="43.114247" lon="12.4387874"><ele>198.79999999999998</ele><time>2026-04-24T07:59:39.015Z</time></trkpt><trkpt lat="43.1141614" lon="12.4388484"><ele>198.6</ele><time>2026-04-24T07:59:40.013Z</time></trkpt><trkpt lat="43.1140694" lon="12.4389055"><ele>198.4</ele><time>2026-04-24T07:59:41.027Z</time></trkpt><trkpt lat="43.1139705" lon="12.4389684"><ele>198.2</ele><time>2026-04-24T07:59:42.011Z</time></trkpt><trkpt lat="43.1138711" lon="12.4390262"><ele>198.0</ele><time>2026-04-24T07:59:43.024Z</time></trkpt><trkpt lat="43.1137723" lon="12.4390759"><ele>198.60000000000002</ele><time>2026-04-24T07:59:44.02Z</time></trkpt><trkpt lat="43.1136718" lon="12.4391268"><ele>199.20000000000002</ele><time>2026-04-24T07:59:45.022Z</time></trkpt><trkpt lat="43.1135855" lon="12.4391713"><ele>199.8</ele><time>2026-04-24T07:59:46.02Z</time></trkpt><trkpt lat="43.1134939" lon="12.4392133"><ele>200.4</ele><time>2026-04-24T07:59:47.019Z</time></trkpt><trkpt lat="43.1134056" lon="12.4392571"><ele>201.0</ele><time>2026-04-24T07:59:48.009Z</time></trkpt><trkpt lat="43.1133152" lon="12.4393001"><ele>203.8</ele><time>2026-04-24T07:59:49.012Z</time></trkpt><trkpt lat="43.1132224" lon="12.4393492"><ele>206.60000000000002</ele><time>2026-04-24T07:59:50.011Z</time></trkpt><trkpt lat="43.1131225" lon="12.4393973"><ele>209.4</ele><time>2026-04-24T07:59:51.025Z</time></trkpt><trkpt lat="43.1130272" lon="12.4394457"><ele>212.2</ele><time>2026-04-24T07:59:52.01Z</time></trkpt><trkpt lat="43.1129243" lon="12.4394921"><ele>215.0</ele><time>2026-04-24T07:59:53.021Z</time></trkpt><trkpt lat="43.1128235" lon="12.4395408"><ele>215.0</ele><time>2026-04-24T07:59:54.017Z</time></trkpt><trkpt lat="43.1127166" lon="12.4395939"><ele>215.0</ele><time>2026-04-24T07:59:55.013Z</time></trkpt><trkpt lat="43.1126083" lon="12.4396469"><ele>215.0</ele><time>2026-04-24T07:59:56.017Z</time></trkpt><trkpt lat="43.1124984" lon="12.4397013"><ele>215.0</ele><time>2026-04-24T07:59:57.016Z</time></trkpt><trkpt lat="43.1123858" lon="12.4397589"><ele>213.25</ele><time>2026-04-24T07:59:58.02Z</time></trkpt><trkpt lat="43.112264" lon="12.4398145"><ele>211.5</ele><time>2026-04-24T07:59:59.011Z</time></trkpt><trkpt lat="43.112146" lon="12.4398813"><ele>209.75</ele><time>2026-04-24T08:00:00.011Z</time></trkpt><trkpt lat="43.1120277" lon="12.4399476"><ele>208.0</ele><time>2026-04-24T08:00:01.011Z</time></trkpt><trkpt lat="43.1119104" lon="12.4400074"><ele>208.0</ele><time>2026-04-24T08:00:02.008Z</time></trkpt><trkpt lat="43.1117909" lon="12.4400737"><ele>208.0</ele><time>2026-04-24T08:00:03.018Z</time></trkpt><trkpt lat="43.1116744" lon="12.44013"><ele>208.0</ele><time>2026-04-24T08:00:04.017Z</time></trkpt><trkpt lat="43.1115606" lon="12.4401786"><ele>208.0</ele><time>2026-04-24T08:00:05.021Z</time></trkpt><trkpt lat="43.1114457" lon="12.4402209"><ele>207.8</ele><time>2026-04-24T08:00:06.011Z</time></trkpt><trkpt lat="43.1113371" lon="12.4402604"><ele>207.60000000000002</ele><time>2026-04-24T08:00:07.035Z</time></trkpt><trkpt lat="43.1112343" lon="12.4402756"><ele>207.39999999999998</ele><time>2026-04-24T08:00:08.009Z</time></trkpt><trkpt lat="43.1111286" lon="12.4402726"><ele>207.2</ele><time>2026-04-24T08:00:09.01Z</time></trkpt><trkpt lat="43.1110264" lon="12.4402427"><ele>207.0</ele><time>2026-04-24T08:00:10.022Z</time></trkpt><trkpt lat="43.1109333" lon="12.4401887"><ele>207.0</ele><time>2026-04-24T08:00:11.021Z</time></trkpt><trkpt lat="43.1108206" lon="12.4401657"><ele>207.0</ele><time>2026-04-24T08:00:12.028Z</time></trkpt><trkpt lat="43.1107111" lon="12.4402005"><ele>207.0</ele><time>2026-04-24T08:00:13.016Z</time></trkpt><trkpt lat="43.1106218" lon="12.4402849"><ele>207.0</ele><time>2026-04-24T08:00:14.033Z</time></trkpt><trkpt lat="43.110533" lon="12.4403914"><ele>206.66666666666669</ele><time>2026-04-24T08:00:15.022Z</time></trkpt><trkpt lat="43.1104222" lon="12.440503"><ele>206.33333333333334</ele><time>2026-04-24T08:00:16.005Z</time></trkpt><trkpt lat="43.1102834" lon="12.4406348"><ele>206.0</ele><time>2026-04-24T08:00:17.014Z</time></trkpt><trkpt lat="43.1101349" lon="12.4407632"><ele>206.0</ele><time>2026-04-24T08:00:18.005Z</time></trkpt><trkpt lat="43.1099787" lon="12.4409187"><ele>206.0</ele><time>2026-04-24T08:00:19.033Z</time></trkpt><trkpt lat="43.1098177" lon="12.4410791"><ele>206.0</ele><time>2026-04-24T08:00:20.006Z</time></trkpt><trkpt lat="43.1096705" lon="12.4412328"><ele>211.33333333333334</ele><time>2026-04-24T08:00:21.015Z</time></trkpt><trkpt lat="43.1095422" lon="12.441388"><ele>216.66666666666669</ele><time>2026-04-24T08:00:22.021Z</time></trkpt><trkpt lat="43.1094215" lon="12.4415338"><ele>222.0</ele><time>2026-04-24T08:00:23.017Z</time></trkpt><trkpt lat="43.1093022" lon="12.441712"><ele>222.0</ele><time>2026-04-24T08:00:24.028Z</time></trkpt><trkpt lat="43.1091904" lon="12.441887"><ele>222.0</ele><time>2026-04-24T08:00:25.011Z</time></trkpt><trkpt lat="43.1090817" lon="12.4420741"><ele>222.0</ele><time>2026-04-24T08:00:26.022Z</time></trkpt><trkpt lat="43.1089792" lon="12.4422574"><ele>223.5</ele><time>2026-04-24T08:00:27.021Z</time></trkpt><trkpt lat="43.1088871" lon="12.4424305"><ele>225.0</ele><time>2026-04-24T08:00:28.01Z</time></trkpt><trkpt lat="43.108796" lon="12.4425918"><ele>226.5</ele><time>2026-04-24T08:00:29.02Z</time></trkpt><trkpt lat="43.1087134" lon="12.4427374"><ele>228.0</ele><time>2026-04-24T08:00:30.027Z</time></trkpt><trkpt lat="43.1086445" lon="12.4428669"><ele>223.4</ele><time>2026-04-24T08:00:31.036Z</time></trkpt><trkpt lat="43.1085689" lon="12.4429929"><ele>218.8</ele><time>2026-04-24T08:00:32.019Z</time></trkpt><trkpt lat="43.1084938" lon="12.4431114"><ele>214.2</ele><time>2026-04-24T08:00:33.042Z</time></trkpt><trkpt lat="43.1084273" lon="12.4432143"><ele>209.6</ele><time>2026-04-24T08:00:34.013Z</time></trkpt><trkpt lat="43.1083687" lon="12.4433132"><ele>205.0</ele><time>2026-04-24T08:00:35.041Z</time></trkpt><trkpt lat="43.1083239" lon="12.4433866"><ele>205.0</ele><time>2026-04-24T08:00:36.033Z</time></trkpt><trkpt lat="43.1082761" lon="12.4434467"><ele>205.0</ele><time>2026-04-24T08:00:37.025Z</time></trkpt><trkpt lat="43.1082031" lon="12.4435426"><ele>205.0</ele><time>2026-04-24T08:00:39.037Z</time></trkpt><trkpt lat="43.1081558" lon="12.4436073"><ele>205.0</ele><time>2026-04-24T08:00:41.037Z</time></trkpt><trkpt lat="43.1080988" lon="12.4436762"><ele>205.0</ele><time>2026-04-24T08:00:45.027Z</time></trkpt><trkpt lat="43.1080555" lon="12.4437409"><ele>205.0</ele><time>2026-04-24T08:00:49.022Z</time></trkpt><trkpt lat="43.1080077" lon="12.4438085"><ele>205.0</ele><time>2026-04-24T08:00:55.039Z</time></trkpt><trkpt lat="43.1079545" lon="12.4438773"><ele>205.33333333333331</ele><time>2026-04-24T08:01:02.029Z</time></trkpt><trkpt lat="43.1079097" lon="12.4439406"><ele>205.66666666666666</ele><time>2026-04-24T08:01:07.015Z</time></trkpt><trkpt lat="43.1078815" lon="12.4440267"><ele>206.0</ele><time>2026-04-24T08:01:21.019Z</time></trkpt><trkpt lat="43.1078191" lon="12.4441076"><ele>206.33333333333331</ele><time>2026-04-24T08:01:25.018Z</time></trkpt><trkpt lat="43.1077731" lon="12.4441948"><ele>206.66666666666666</ele><time>2026-04-24T08:01:27.034Z</time></trkpt><trkpt lat="43.1077163" lon="12.4442625"><ele>207.0</ele><time>2026-04-24T08:01:30.019Z</time></trkpt><trkpt lat="43.1077228" lon="12.4443882"><ele>207.0</ele><time>2026-04-24T08:01:37.029Z</time></trkpt><trkpt lat="43.1078041" lon="12.4444817"><ele>207.0</ele><time>2026-04-24T08:01:39.021Z</time></trkpt><trkpt lat="43.1079063" lon="12.4445795"><ele>207.0</ele><time>2026-04-24T08:01:41.033Z</time></trkpt><trkpt lat="43.1079683" lon="12.4446335"><ele>207.0</ele><time>2026-04-24T08:01:42.011Z</time></trkpt><trkpt lat="43.1080276" lon="12.4446908"><ele>207.0</ele><time>2026-04-24T08:01:43.036Z</time></trkpt><trkpt lat="43.1080792" lon="12.4447473"><ele>207.0</ele><time>2026-04-24T08:01:44.01Z</time></trkpt><trkpt lat="43.1081712" lon="12.4448373"><ele>204.5</ele><time>2026-04-24T08:01:46.015Z</time></trkpt><trkpt lat="43.1082577" lon="12.4449064"><ele>202.0</ele><time>2026-04-24T08:01:48.022Z</time></trkpt><trkpt lat="43.1083366" lon="12.4449643"><ele>199.5</ele><time>2026-04-24T08:01:50.013Z</time></trkpt><trkpt lat="43.1083906" lon="12.4450093"><ele>197.0</ele><time>2026-04-24T08:01:51.029Z</time></trkpt><trkpt lat="43.1084559" lon="12.445062"><ele>194.5</ele><time>2026-04-24T08:01:52.014Z</time></trkpt><trkpt lat="43.1085326" lon="12.4451268"><ele>192.0</ele><time>2026-04-24T08:01:53.019Z</time></trkpt><trkpt lat="43.108605" lon="12.4451892"><ele>192.0</ele><time>2026-04-24T08:01:54.016Z</time></trkpt><trkpt lat="43.1086804" lon="12.4452473"><ele>192.0</ele><time>2026-04-24T08:01:55.016Z</time></trkpt><trkpt lat="43.1087567" lon="12.445303"><ele>192.0</ele><time>2026-04-24T08:01:56.012Z</time></trkpt><trkpt lat="43.1088364" lon="12.4453715"><ele>192.0</ele><time>2026-04-24T08:01:57.016Z</time></trkpt><trkpt lat="43.1089183" lon="12.4454475"><ele>192.0</ele><time>2026-04-24T08:01:58.021Z</time></trkpt><trkpt lat="43.1090017" lon="12.4455176"><ele>192.16666666666666</ele><time>2026-04-24T08:01:59.016Z</time></trkpt><trkpt lat="43.1090776" lon="12.4455813"><ele>192.33333333333331</ele><time>2026-04-24T08:02:00.016Z</time></trkpt><trkpt lat="43.1091531" lon="12.445637"><ele>192.5</ele><time>2026-04-24T08:02:01.028Z</time></trkpt><trkpt lat="43.1092164" lon="12.4456921"><ele>192.66666666666666</ele><time>2026-04-24T08:02:02.016Z</time></trkpt><trkpt lat="43.1092757" lon="12.4457484"><ele>192.83333333333331</ele><time>2026-04-24T08:02:03.017Z</time></trkpt><trkpt lat="43.1093323" lon="12.4457942"><ele>193.0</ele><time>2026-04-24T08:02:04.033Z</time></trkpt><trkpt lat="43.1094289" lon="12.445888"><ele>193.0</ele><time>2026-04-24T08:02:06.016Z</time></trkpt><trkpt lat="43.1095179" lon="12.4459817"><ele>193.0</ele><time>2026-04-24T08:02:08.023Z</time></trkpt><trkpt lat="43.109609" lon="12.4461056"><ele>193.0</ele><time>2026-04-24T08:02:10.015Z</time></trkpt><trkpt lat="43.1096546" lon="12.4461826"><ele>193.0</ele><time>2026-04-24T08:02:11.017Z</time></trkpt><trkpt lat="43.1097001" lon="12.446264"><ele>193.0</ele><time>2026-04-24T08:02:12.015Z</time></trkpt><trkpt lat="43.1097412" lon="12.4463444"><ele>193.16666666666666</ele><time>2026-04-24T08:02:13.025Z</time></trkpt><trkpt lat="43.1097804" lon="12.44642"><ele>193.33333333333331</ele><time>2026-04-24T08:02:14.014Z</time></trkpt><trkpt lat="43.1098141" lon="12.4464982"><ele>193.5</ele><time>2026-04-24T08:02:15.015Z</time></trkpt><trkpt lat="43.1098516" lon="12.4465711"><ele>193.66666666666669</ele><time>2026-04-24T08:02:16.021Z</time></trkpt><trkpt lat="43.1098885" lon="12.4466462"><ele>193.83333333333334</ele><time>2026-04-24T08:02:17.017Z</time></trkpt><trkpt lat="43.1099615" lon="12.4467713"><ele>194.0</ele><time>2026-04-24T08:02:19.01Z</time></trkpt><trkpt lat="43.1100263" lon="12.4468901"><ele>194.0</ele><time>2026-04-24T08:02:21.018Z</time></trkpt><trkpt lat="43.1101079" lon="12.4470209"><ele>194.0</ele><time>2026-04-24T08:02:23.028Z</time></trkpt><trkpt lat="43.1101396" lon="12.4470963"><ele>194.0</ele><time>2026-04-24T08:02:24.012Z</time></trkpt><trkpt lat="43.1102035" lon="12.447241"><ele>194.0</ele><time>2026-04-24T08:02:26.022Z</time></trkpt><trkpt lat="43.1102721" lon="12.447371"><ele>194.0</ele><time>2026-04-24T08:02:28.03Z</time></trkpt><trkpt lat="43.1103333" lon="12.4475069"><ele>194.14285714285714</ele><time>2026-04-24T08:02:30.029Z</time></trkpt><trkpt lat="43.1103661" lon="12.4475825"><ele>194.2857142857143</ele><time>2026-04-24T08:02:31.028Z</time></trkpt><trkpt lat="43.1104018" lon="12.4476539"><ele>194.42857142857144</ele><time>2026-04-24T08:02:32.024Z</time></trkpt><trkpt lat="43.1104435" lon="12.4477319"><ele>194.57142857142856</ele><time>2026-04-24T08:02:33.028Z</time></trkpt><trkpt lat="43.1104842" lon="12.4478093"><ele>194.71428571428572</ele><time>2026-04-24T08:02:34.027Z</time></trkpt><trkpt lat="43.1105219" lon="12.4478851"><ele>194.85714285714286</ele><time>2026-04-24T08:02:35.044Z</time></trkpt><trkpt lat="43.1105619" lon="12.4479636"><ele>195.0</ele><time>2026-04-24T08:02:36.033Z</time></trkpt><trkpt lat="43.110602" lon="12.4480408"><ele>195.0</ele><time>2026-04-24T08:02:37.029Z</time></trkpt><trkpt lat="43.1106425" lon="12.4481192"><ele>195.0</ele><time>2026-04-24T08:02:38.028Z</time></trkpt><trkpt lat="43.110684" lon="12.4481967"><ele>195.0</ele><time>2026-04-24T08:02:39.021Z</time></trkpt><trkpt lat="43.1107225" lon="12.448273"><ele>195.0</ele><time>2026-04-24T08:02:40.03Z</time></trkpt><trkpt lat="43.1107883" lon="12.448407"><ele>195.0</ele><time>2026-04-24T08:02:42.023Z</time></trkpt><trkpt lat="43.1108586" lon="12.4485298"><ele>195.0</ele><time>2026-04-24T08:02:44.03Z</time></trkpt><trkpt lat="43.1108959" lon="12.4485994"><ele>195.0</ele><time>2026-04-24T08:02:45.026Z</time></trkpt><trkpt lat="43.1109631" lon="12.4487282"><ele>195.0</ele><time>2026-04-24T08:02:47.016Z</time></trkpt><trkpt lat="43.1110235" lon="12.4488657"><ele>195.0</ele><time>2026-04-24T08:02:49.033Z</time></trkpt><trkpt lat="43.11106" lon="12.4489426"><ele>195.0</ele><time>2026-04-24T08:02:50.033Z</time></trkpt><trkpt lat="43.111101" lon="12.4490245"><ele>195.0</ele><time>2026-04-24T08:02:51.025Z</time></trkpt><trkpt lat="43.1111467" lon="12.4491086"><ele>195.0</ele><time>2026-04-24T08:02:52.026Z</time></trkpt><trkpt lat="43.1111954" lon="12.4491982"><ele>195.0</ele><time>2026-04-24T08:02:53.032Z</time></trkpt><trkpt lat="43.1112443" lon="12.4492928"><ele>195.0</ele><time>2026-04-24T08:02:54.021Z</time></trkpt><trkpt lat="43.1112904" lon="12.4493918"><ele>195.0</ele><time>2026-04-24T08:02:55.03Z</time></trkpt><trkpt lat="43.1113421" lon="12.4494949"><ele>195.0</ele><time>2026-04-24T08:02:56.029Z</time></trkpt><trkpt lat="43.1113898" lon="12.449591"><ele>195.0</ele><time>2026-04-24T08:02:57.02Z</time></trkpt><trkpt lat="43.1114357" lon="12.4496897"><ele>195.0</ele><time>2026-04-24T08:02:58.029Z</time></trkpt><trkpt lat="43.11148" lon="12.4497835"><ele>194.83333333333334</ele><time>2026-04-24T08:02:59.035Z</time></trkpt><trkpt lat="43.1115223" lon="12.4498709"><ele>194.66666666666669</ele><time>2026-04-24T08:03:00.036Z</time></trkpt><trkpt lat="43.1115648" lon="12.4499502"><ele>194.5</ele><time>2026-04-24T08:03:01.036Z</time></trkpt><trkpt lat="43.1116149" lon="12.4500377"><ele>194.33333333333334</ele><time>2026-04-24T08:03:02.03Z</time></trkpt><trkpt lat="43.1116712" lon="12.450126"><ele>194.16666666666669</ele><time>2026-04-24T08:03:03.041Z</time></trkpt><trkpt lat="43.1117341" lon="12.4502128"><ele>194.0</ele><time>2026-04-24T08:03:04.036Z</time></trkpt><trkpt lat="43.111803" lon="12.4502939"><ele>193.83333333333334</ele><time>2026-04-24T08:03:05.034Z</time></trkpt><trkpt lat="43.1118768" lon="12.4503664"><ele>193.66666666666669</ele><time>2026-04-24T08:03:06.038Z</time></trkpt><trkpt lat="43.1119567" lon="12.450434"><ele>193.5</ele><time>2026-04-24T08:03:07.034Z</time></trkpt><trkpt lat="43.1120322" lon="12.450502"><ele>193.33333333333331</ele><time>2026-04-24T08:03:08.03Z</time></trkpt><trkpt lat="43.1121024" lon="12.450565"><ele>193.16666666666666</ele><time>2026-04-24T08:03:09.043Z</time></trkpt><trkpt lat="43.1121736" lon="12.4506276"><ele>193.0</ele><time>2026-04-24T08:03:10.044Z</time></trkpt><trkpt lat="43.1122419" lon="12.4506879"><ele>192.99999999999997</ele><time>2026-04-24T08:03:11.036Z</time></trkpt><trkpt lat="43.1123062" lon="12.4507474"><ele>193.0</ele><time>2026-04-24T08:03:12.053Z</time></trkpt><trkpt lat="43.1123774" lon="12.4507982"><ele>193.0</ele><time>2026-04-24T08:03:13.037Z</time></trkpt><trkpt lat="43.1124384" lon="12.4508484"><ele>193.0</ele><time>2026-04-24T08:03:14.021Z</time></trkpt><trkpt lat="43.1125278" lon="12.4509357"><ele>192.99999999999997</ele><time>2026-04-24T08:03:16.041Z</time></trkpt><trkpt lat="43.1125786" lon="12.450987"><ele>193.0</ele><time>2026-04-24T08:03:19.032Z</time></trkpt><trkpt lat="43.1126424" lon="12.4510328"><ele>193.0</ele><time>2026-04-24T08:03:22.046Z</time></trkpt><trkpt lat="43.1127077" lon="12.4511024"><ele>193.0</ele><time>2026-04-24T08:03:25.042Z</time></trkpt><trkpt lat="43.11278" lon="12.4511926"><ele>193.0</ele><time>2026-04-24T08:03:28.008Z</time></trkpt><trkpt lat="43.1128588" lon="12.451324"><ele>193.0</ele><time>2026-04-24T08:03:30.029Z</time></trkpt><trkpt lat="43.1129342" lon="12.4513829"><ele>193.0</ele><time>2026-04-24T08:03:31.042Z</time></trkpt><trkpt lat="43.1130191" lon="12.4514319"><ele>192.99999999999997</ele><time>2026-04-24T08:03:32.023Z</time></trkpt><trkpt lat="43.113094" lon="12.4514617"><ele>193.0</ele><time>2026-04-24T08:03:33.037Z</time></trkpt><trkpt lat="43.1131681" lon="12.4514923"><ele>193.0</ele><time>2026-04-24T08:03:34.017Z</time></trkpt><trkpt lat="43.113239" lon="12.4515317"><ele>193.0</ele><time>2026-04-24T08:03:35.046Z</time></trkpt><trkpt lat="43.1133064" lon="12.4515803"><ele>192.99999999999997</ele><time>2026-04-24T08:03:36.045Z</time></trkpt><trkpt lat="43.1133795" lon="12.4516378"><ele>193.0</ele><time>2026-04-24T08:03:37.043Z</time></trkpt><trkpt lat="43.1134505" lon="12.4516925"><ele>193.0</ele><time>2026-04-24T08:03:38.04Z</time></trkpt><trkpt lat="43.113533" lon="12.4517489"><ele>193.0</ele><time>2026-04-24T08:03:39.029Z</time></trkpt><trkpt lat="43.1136274" lon="12.4518078"><ele>193.0</ele><time>2026-04-24T08:03:40.044Z</time></trkpt><trkpt lat="43.1137236" lon="12.4518688"><ele>193.0</ele><time>2026-04-24T08:03:41.047Z</time></trkpt><trkpt lat="43.11382" lon="12.4519352"><ele>193.0</ele><time>2026-04-24T08:03:42.016Z</time></trkpt><trkpt lat="43.1139144" lon="12.452"><ele>193.0</ele><time>2026-04-24T08:03:43.042Z</time></trkpt><trkpt lat="43.1140125" lon="12.4520632"><ele>193.0</ele><time>2026-04-24T08:03:44.034Z</time></trkpt><trkpt lat="43.1141077" lon="12.4521258"><ele>193.0</ele><time>2026-04-24T08:03:45.043Z</time></trkpt><trkpt lat="43.1141957" lon="12.4521766"><ele>193.0</ele><time>2026-04-24T08:03:46.036Z</time></trkpt><trkpt lat="43.1142792" lon="12.452226"><ele>193.0</ele><time>2026-04-24T08:03:47.055Z</time></trkpt><trkpt lat="43.1143696" lon="12.4522751"><ele>193.5</ele><time>2026-04-24T08:03:48.038Z</time></trkpt><trkpt lat="43.1144694" lon="12.4523198"><ele>194.0</ele><time>2026-04-24T08:03:49.038Z</time></trkpt><trkpt lat="43.1145796" lon="12.4523572"><ele>194.5</ele><time>2026-04-24T08:03:50.047Z</time></trkpt><trkpt lat="43.1146982" lon="12.4523831"><ele>195.0</ele><time>2026-04-24T08:03:51.044Z</time></trkpt><trkpt lat="43.1148251" lon="12.452396"><ele>194.5</ele><time>2026-04-24T08:03:52.047Z</time></trkpt><trkpt lat="43.114963" lon="12.452411"><ele>194.0</ele><time>2026-04-24T08:03:53.036Z</time></trkpt><trkpt lat="43.1151008" lon="12.4524195"><ele>193.5</ele><time>2026-04-24T08:03:54.044Z</time></trkpt><trkpt lat="43.1152366" lon="12.4524349"><ele>193.0</ele><time>2026-04-24T08:03:55.034Z</time></trkpt><trkpt lat="43.1153647" lon="12.4524502"><ele>193.0</ele><time>2026-04-24T08:03:56.053Z</time></trkpt><trkpt lat="43.1154913" lon="12.452472"><ele>193.0</ele><time>2026-04-24T08:03:57.017Z</time></trkpt><trkpt lat="43.1156024" lon="12.4525086"><ele>193.0</ele><time>2026-04-24T08:03:58.035Z</time></trkpt><trkpt lat="43.1156969" lon="12.4525817"><ele>193.0</ele><time>2026-04-24T08:03:59.051Z</time></trkpt><trkpt lat="43.1157798" lon="12.4526985"><ele>193.2</ele><time>2026-04-24T08:04:00.009Z</time></trkpt><trkpt lat="43.1158365" lon="12.4528259"><ele>193.4</ele><time>2026-04-24T08:04:01.031Z</time></trkpt><trkpt lat="43.1158841" lon="12.4529346"><ele>193.6</ele><time>2026-04-24T08:04:02.043Z</time></trkpt><trkpt lat="43.1159228" lon="12.4530493"><ele>193.79999999999998</ele><time>2026-04-24T08:04:03.032Z</time></trkpt><trkpt lat="43.115957" lon="12.4531342"><ele>194.0</ele><time>2026-04-24T08:04:04.023Z</time></trkpt><trkpt lat="43.1160044" lon="12.4532446"><ele>194.0</ele><time>2026-04-24T08:04:06.041Z</time></trkpt><trkpt lat="43.1160149" lon="12.4533482"><ele>194.0</ele><time>2026-04-24T08:04:08.027Z</time></trkpt><trkpt lat="43.1159781" lon="12.4534561"><ele>194.0</ele><time>2026-04-24T08:04:10.055Z</time></trkpt><trkpt lat="43.1158921" lon="12.4535519"><ele>194.0</ele><time>2026-04-24T08:04:12.025Z</time></trkpt><trkpt lat="43.1157975" lon="12.4536076"><ele>194.0</ele><time>2026-04-24T08:04:14.04Z</time></trkpt><trkpt lat="43.1157146" lon="12.4536385"><ele>194.0</ele><time>2026-04-24T08:04:15.046Z</time></trkpt><trkpt lat="43.1156226" lon="12.4536714"><ele>194.0</ele><time>2026-04-24T08:04:16.033Z</time></trkpt><trkpt lat="43.1155255" lon="12.4537183"><ele>194.0</ele><time>2026-04-24T08:04:17.045Z</time></trkpt><trkpt lat="43.1154194" lon="12.4537794"><ele>194.0</ele><time>2026-04-24T08:04:18.033Z</time></trkpt><trkpt lat="43.1153114" lon="12.4538529"><ele>194.0</ele><time>2026-04-24T08:04:19.028Z</time></trkpt><trkpt lat="43.1152046" lon="12.4539482"><ele>194.0</ele><time>2026-04-24T08:04:20.056Z</time></trkpt><trkpt lat="43.1151028" lon="12.4540739"><ele>194.0</ele><time>2026-04-24T08:04:21.026Z</time></trkpt><trkpt lat="43.1150045" lon="12.4541943"><ele>194.0</ele><time>2026-04-24T08:04:22.04Z</time></trkpt><trkpt lat="43.1149008" lon="12.4543273"><ele>194.0</ele><time>2026-04-24T08:04:23.034Z</time></trkpt><trkpt lat="43.1147961" lon="12.4544662"><ele>194.33333333333334</ele><time>2026-04-24T08:04:24.02Z</time></trkpt><trkpt lat="43.1146903" lon="12.4546051"><ele>194.66666666666669</ele><time>2026-04-24T08:04:25.037Z</time></trkpt><trkpt lat="43.1145757" lon="12.4547502"><ele>195.0</ele><time>2026-04-24T08:04:26.032Z</time></trkpt><trkpt lat="43.1144575" lon="12.4548932"><ele>195.0</ele><time>2026-04-24T08:04:27.033Z</time></trkpt><trkpt lat="43.1143328" lon="12.4550457"><ele>195.0</ele><time>2026-04-24T08:04:28.032Z</time></trkpt><trkpt lat="43.1142086" lon="12.455201"><ele>195.0</ele><time>2026-04-24T08:04:29.028Z</time></trkpt><trkpt lat="43.1140861" lon="12.4553553"><ele>194.0</ele><time>2026-04-24T08:04:30.03Z</time></trkpt><trkpt lat="43.1139686" lon="12.4555042"><ele>193.0</ele><time>2026-04-24T08:04:31.038Z</time></trkpt><trkpt lat="43.1138579" lon="12.4556426"><ele>192.0</ele><time>2026-04-24T08:04:32.026Z</time></trkpt><trkpt lat="43.1137537" lon="12.4557757"><ele>192.0</ele><time>2026-04-24T08:04:33.031Z</time></trkpt><trkpt lat="43.113655" lon="12.4559131"><ele>192.0</ele><time>2026-04-24T08:04:34.046Z</time></trkpt><trkpt lat="43.1135642" lon="12.4560699"><ele>192.0</ele><time>2026-04-24T08:04:35.042Z</time></trkpt><trkpt lat="43.1134892" lon="12.4562408"><ele>192.0</ele><time>2026-04-24T08:04:36.043Z</time></trkpt><trkpt lat="43.1134333" lon="12.4564331"><ele>192.0</ele><time>2026-04-24T08:04:37.029Z</time></trkpt><trkpt lat="43.1133851" lon="12.4566377"><ele>192.0</ele><time>2026-04-24T08:04:38.041Z</time></trkpt><trkpt lat="43.1133589" lon="12.4568376"><ele>192.0</ele><time>2026-04-24T08:04:39.038Z</time></trkpt><trkpt lat="43.1133505" lon="12.4570324"><ele>192.0</ele><time>2026-04-24T08:04:40.042Z</time></trkpt><trkpt lat="43.1133576" lon="12.4572235"><ele>192.0</ele><time>2026-04-24T08:04:41.039Z</time></trkpt><trkpt lat="43.1133883" lon="12.4574227"><ele>192.0</ele><time>2026-04-24T08:04:42.038Z</time></trkpt><trkpt lat="43.1134437" lon="12.4576196"><ele>192.0</ele><time>2026-04-24T08:04:43.026Z</time></trkpt><trkpt lat="43.1135069" lon="12.4578107"><ele>192.0</ele><time>2026-04-24T08:04:44.035Z</time></trkpt><trkpt lat="43.1135817" lon="12.4579993"><ele>192.0</ele><time>2026-04-24T08:04:45.043Z</time></trkpt><trkpt lat="43.1136515" lon="12.458174"><ele>192.0</ele><time>2026-04-24T08:04:46.034Z</time></trkpt><trkpt lat="43.1137252" lon="12.4583558"><ele>192.0</ele><time>2026-04-24T08:04:47.034Z</time></trkpt><trkpt lat="43.1138008" lon="12.4585446"><ele>192.0</ele><time>2026-04-24T08:04:48.046Z</time></trkpt><trkpt lat="43.1138778" lon="12.4587288"><ele>192.0</ele><time>2026-04-24T08:04:49.049Z</time></trkpt><trkpt lat="43.1139547" lon="12.4589147"><ele>192.5</ele><time>2026-04-24T08:04:50.035Z</time></trkpt><trkpt lat="43.1140278" lon="12.4590918"><ele>193.0</ele><time>2026-04-24T08:04:51.035Z</time></trkpt><trkpt lat="43.1141011" lon="12.4592686"><ele>193.5</ele><time>2026-04-24T08:04:52.014Z</time></trkpt><trkpt lat="43.1141707" lon="12.4594394"><ele>194.0</ele><time>2026-04-24T08:04:53.043Z</time></trkpt><trkpt lat="43.1142363" lon="12.4596126"><ele>194.0</ele><time>2026-04-24T08:04:54.032Z</time></trkpt><trkpt lat="43.1143095" lon="12.4597833"><ele>194.0</ele><time>2026-04-24T08:04:55.034Z</time></trkpt><trkpt lat="43.1143826" lon="12.4599594"><ele>194.0</ele><time>2026-04-24T08:04:56.039Z</time></trkpt><trkpt lat="43.1144562" lon="12.4601365"><ele>194.0</ele><time>2026-04-24T08:04:57.017Z</time></trkpt><trkpt lat="43.1145276" lon="12.4603056"><ele>194.2</ele><time>2026-04-24T08:04:58.044Z</time></trkpt><trkpt lat="43.1145907" lon="12.4604544"><ele>194.39999999999998</ele><time>2026-04-24T08:04:59.054Z</time></trkpt><trkpt lat="43.114645" lon="12.4605916"><ele>194.6</ele><time>2026-04-24T08:05:00.037Z</time></trkpt><trkpt lat="43.1146913" lon="12.4607077"><ele>194.8</ele><time>2026-04-24T08:05:01.049Z</time></trkpt><trkpt lat="43.1147322" lon="12.4608127"><ele>195.0</ele><time>2026-04-24T08:05:02.034Z</time></trkpt><trkpt lat="43.1147743" lon="12.4609106"><ele>195.0</ele><time>2026-04-24T08:05:03.042Z</time></trkpt><trkpt lat="43.1148155" lon="12.4609975"><ele>195.0</ele><time>2026-04-24T08:05:04.041Z</time></trkpt><trkpt lat="43.1148554" lon="12.4610675"><ele>195.0</ele><time>2026-04-24T08:05:05.037Z</time></trkpt><trkpt lat="43.1149338" lon="12.4611482"><ele>195.0</ele><time>2026-04-24T08:05:07.028Z</time></trkpt><trkpt lat="43.1150149" lon="12.4611309"><ele>195.0</ele><time>2026-04-24T08:05:10.028Z</time></trkpt><trkpt lat="43.1150839" lon="12.4610552"><ele>195.0</ele><time>2026-04-24T08:05:14.038Z</time></trkpt><trkpt lat="43.1151547" lon="12.4609901"><ele>195.2</ele><time>2026-04-24T08:05:17.013Z</time></trkpt><trkpt lat="43.1152334" lon="12.4609165"><ele>195.4</ele><time>2026-04-24T08:05:20.041Z</time></trkpt><trkpt lat="43.1153007" lon="12.4608595"><ele>195.60000000000002</ele><time>2026-04-24T08:05:22.021Z</time></trkpt><trkpt lat="43.1153846" lon="12.4608024"><ele>195.8</ele><time>2026-04-24T08:05:24.05Z</time></trkpt><trkpt lat="43.1154838" lon="12.4607804"><ele>196.0</ele><time>2026-04-24T08:05:26.029Z</time></trkpt><trkpt lat="43.1155927" lon="12.4607814"><ele>195.99999999999997</ele><time>2026-04-24T08:05:28.042Z</time></trkpt><trkpt lat="43.115658" lon="12.4607973"><ele>196.0</ele><time>2026-04-24T08:05:29.038Z</time></trkpt><trkpt lat="43.1157322" lon="12.4608204"><ele>196.0</ele><time>2026-04-24T08:05:30.04Z</time></trkpt><trkpt lat="43.115809" lon="12.4608372"><ele>196.0</ele><time>2026-04-24T08:05:31.051Z</time></trkpt><trkpt lat="43.1158869" lon="12.4608598"><ele>195.99999999999997</ele><time>2026-04-24T08:05:32.036Z</time></trkpt><trkpt lat="43.1159678" lon="12.4608794"><ele>196.0</ele><time>2026-04-24T08:05:33.049Z</time></trkpt><trkpt lat="43.1160595" lon="12.4609054"><ele>196.20000000000002</ele><time>2026-04-24T08:05:34.045Z</time></trkpt><trkpt lat="43.1161588" lon="12.4609285"><ele>196.4</ele><time>2026-04-24T08:05:35.049Z</time></trkpt><trkpt lat="43.1162588" lon="12.4609538"><ele>196.6</ele><time>2026-04-24T08:05:36.032Z</time></trkpt><trkpt lat="43.116367" lon="12.4609768"><ele>196.8</ele><time>2026-04-24T08:05:37.042Z</time></trkpt><trkpt lat="43.1164807" lon="12.4610071"><ele>197.0</ele><time>2026-04-24T08:05:38.04Z</time></trkpt><trkpt lat="43.1165923" lon="12.4610371"><ele>197.8</ele><time>2026-04-24T08:05:39.033Z</time></trkpt><trkpt lat="43.1167018" lon="12.4610609"><ele>198.6</ele><time>2026-04-24T08:05:40.03Z</time></trkpt><trkpt lat="43.1168147" lon="12.4610769"><ele>199.4</ele><time>2026-04-24T08:05:41.038Z</time></trkpt><trkpt lat="43.1169231" lon="12.4611015"><ele>200.20000000000002</ele><time>2026-04-24T08:05:42.033Z</time></trkpt><trkpt lat="43.1170173" lon="12.4611139"><ele>201.0</ele><time>2026-04-24T08:05:43.043Z</time></trkpt><trkpt lat="43.1171014" lon="12.4611398"><ele>201.0</ele><time>2026-04-24T08:05:44.033Z</time></trkpt><trkpt lat="43.1171833" lon="12.461158"><ele>201.0</ele><time>2026-04-24T08:05:45.03Z</time></trkpt><trkpt lat="43.1172568" lon="12.4611857"><ele>201.0</ele><time>2026-04-24T08:05:46.045Z</time></trkpt><trkpt lat="43.1173319" lon="12.4612088"><ele>201.0</ele><time>2026-04-24T08:05:47.034Z</time></trkpt><trkpt lat="43.1174124" lon="12.4612402"><ele>201.0</ele><time>2026-04-24T08:05:48.022Z</time></trkpt><trkpt lat="43.1174971" lon="12.4612669"><ele>201.0</ele><time>2026-04-24T08:05:49.013Z</time></trkpt><trkpt lat="43.1175838" lon="12.4613"><ele>200.8</ele><time>2026-04-24T08:05:50.035Z</time></trkpt><trkpt lat="43.1176695" lon="12.4613307"><ele>200.60000000000002</ele><time>2026-04-24T08:05:51.047Z</time></trkpt><trkpt lat="43.1177603" lon="12.4613636"><ele>200.4</ele><time>2026-04-24T08:05:52.034Z</time></trkpt><trkpt lat="43.1178592" lon="12.4614005"><ele>200.2</ele><time>2026-04-24T08:05:53.053Z</time></trkpt><trkpt lat="43.1179573" lon="12.4614431"><ele>200.0</ele><time>2026-04-24T08:05:54.044Z</time></trkpt><trkpt lat="43.1180538" lon="12.4614894"><ele>200.0</ele><time>2026-04-24T08:05:55.052Z</time></trkpt><trkpt lat="43.1181609" lon="12.4615327"><ele>200.0</ele><time>2026-04-24T08:05:56.034Z</time></trkpt><trkpt lat="43.1182655" lon="12.4615873"><ele>200.0</ele><time>2026-04-24T08:05:57.016Z</time></trkpt><trkpt lat="43.118372" lon="12.4616438"><ele>200.0</ele><time>2026-04-24T08:05:58.029Z</time></trkpt><trkpt lat="43.1184765" lon="12.4617007"><ele>201.25</ele><time>2026-04-24T08:05:59.038Z</time></trkpt><trkpt lat="43.1185884" lon="12.4617609"><ele>202.5</ele><time>2026-04-24T08:06:00.041Z</time></trkpt><trkpt lat="43.1187101" lon="12.461823"><ele>203.75</ele><time>2026-04-24T08:06:01.039Z</time></trkpt><trkpt lat="43.1188445" lon="12.4618991"><ele>205.0</ele><time>2026-04-24T08:06:02.049Z</time></trkpt><trkpt lat="43.1189878" lon="12.4619724"><ele>207.0</ele><time>2026-04-24T08:06:03.032Z</time></trkpt><trkpt lat="43.1191412" lon="12.4620543"><ele>209.0</ele><time>2026-04-24T08:06:04.04Z</time></trkpt><trkpt lat="43.1192994" lon="12.4621398"><ele>211.0</ele><time>2026-04-24T08:06:05.04Z</time></trkpt><trkpt lat="43.1194541" lon="12.4622198"><ele>211.0</ele><time>2026-04-24T08:06:06.05Z</time></trkpt><trkpt lat="43.1195997" lon="12.4622928"><ele>211.0</ele><time>2026-04-24T08:06:07.043Z</time></trkpt><trkpt lat="43.1197216" lon="12.4623564"><ele>211.0</ele><time>2026-04-24T08:06:08.014Z</time></trkpt><trkpt lat="43.1198385" lon="12.4623969"><ele>211.0</ele><time>2026-04-24T08:06:09.029Z</time></trkpt><trkpt lat="43.1199456" lon="12.4624292"><ele>213.0</ele><time>2026-04-24T08:06:10.046Z</time></trkpt><trkpt lat="43.1200556" lon="12.4624503"><ele>215.0</ele><time>2026-04-24T08:06:11.057Z</time></trkpt><trkpt lat="43.1201757" lon="12.462471"><ele>217.0</ele><time>2026-04-24T08:06:12.054Z</time></trkpt><trkpt lat="43.1203026" lon="12.4624851"><ele>219.0</ele><time>2026-04-24T08:06:13.008Z</time></trkpt><trkpt lat="43.1204475" lon="12.4625006"><ele>219.0</ele><time>2026-04-24T08:06:14.043Z</time></trkpt><trkpt lat="43.1206008" lon="12.4625243"><ele>219.0</ele><time>2026-04-24T08:06:15.039Z</time></trkpt><trkpt lat="43.1207701" lon="12.4625528"><ele>219.0</ele><time>2026-04-24T08:06:16.04Z</time></trkpt><trkpt lat="43.120949" lon="12.462578"><ele>220.33333333333331</ele><time>2026-04-24T08:06:17.047Z</time></trkpt><trkpt lat="43.1211322" lon="12.4626176"><ele>221.66666666666666</ele><time>2026-04-24T08:06:18.053Z</time></trkpt><trkpt lat="43.1213094" lon="12.4626566"><ele>223.0</ele><time>2026-04-24T08:06:19.027Z</time></trkpt><trkpt lat="43.1214714" lon="12.4626983"><ele>225.0</ele><time>2026-04-24T08:06:20.034Z</time></trkpt><trkpt lat="43.1216179" lon="12.4627424"><ele>227.0</ele><time>2026-04-24T08:06:21.031Z</time></trkpt><trkpt lat="43.1217626" lon="12.4628131"><ele>229.0</ele><time>2026-04-24T08:06:22.026Z</time></trkpt><trkpt lat="43.1218955" lon="12.4629065"><ele>227.66666666666666</ele><time>2026-04-24T08:06:23.036Z</time></trkpt><trkpt lat="43.1220239" lon="12.4630356"><ele>226.33333333333331</ele><time>2026-04-24T08:06:24.013Z</time></trkpt><trkpt lat="43.12216" lon="12.4631714"><ele>225.0</ele><time>2026-04-24T08:06:25.042Z</time></trkpt><trkpt lat="43.1223045" lon="12.4632938"><ele>228.0</ele><time>2026-04-24T08:06:26.047Z</time></trkpt><trkpt lat="43.1224507" lon="12.4634105"><ele>231.0</ele><time>2026-04-24T08:06:27.039Z</time></trkpt><trkpt lat="43.1225974" lon="12.4635195"><ele>234.0</ele><time>2026-04-24T08:06:28.043Z</time></trkpt><trkpt lat="43.1227475" lon="12.4636277"><ele>234.0</ele><time>2026-04-24T08:06:29.048Z</time></trkpt><trkpt lat="43.1228984" lon="12.4637376"><ele>234.0</ele><time>2026-04-24T08:06:30.033Z</time></trkpt><trkpt lat="43.1230475" lon="12.4638452"><ele>234.0</ele><time>2026-04-24T08:06:31.025Z</time></trkpt><trkpt lat="43.1231839" lon="12.4639494"><ele>234.5</ele><time>2026-04-24T08:06:32.029Z</time></trkpt><trkpt lat="43.1233078" lon="12.4640549"><ele>235.0</ele><time>2026-04-24T08:06:33.051Z</time></trkpt><trkpt lat="43.1234313" lon="12.4641746"><ele>235.5</ele><time>2026-04-24T08:06:34.043Z</time></trkpt><trkpt lat="43.1235578" lon="12.4642873"><ele>236.0</ele><time>2026-04-24T08:06:35.052Z</time></trkpt><trkpt lat="43.1236807" lon="12.4644064"><ele>236.0</ele><time>2026-04-24T08:06:36.008Z</time></trkpt><trkpt lat="43.1237961" lon="12.4645251"><ele>236.0</ele><time>2026-04-24T08:06:37.041Z</time></trkpt><trkpt lat="43.1239084" lon="12.4646521"><ele>236.0</ele><time>2026-04-24T08:06:38.018Z</time></trkpt><trkpt lat="43.1240092" lon="12.4647875"><ele>236.0</ele><time>2026-04-24T08:06:39.024Z</time></trkpt><trkpt lat="43.1241009" lon="12.4649374"><ele>237.0</ele><time>2026-04-24T08:06:40.037Z</time></trkpt><trkpt lat="43.1241904" lon="12.4650586"><ele>238.0</ele><time>2026-04-24T08:06:41.036Z</time></trkpt><trkpt lat="43.1242733" lon="12.4651966"><ele>239.0</ele><time>2026-04-24T08:06:42.015Z</time></trkpt><trkpt lat="43.1243534" lon="12.4653361"><ele>240.0</ele><time>2026-04-24T08:06:43.01Z</time></trkpt><trkpt lat="43.1244367" lon="12.4654783"><ele>240.5</ele><time>2026-04-24T08:06:44.031Z</time></trkpt><trkpt lat="43.1245203" lon="12.4656205"><ele>241.0</ele><time>2026-04-24T08:06:45.032Z</time></trkpt><trkpt lat="43.1246061" lon="12.4657534"><ele>241.5</ele><time>2026-04-24T08:06:46.037Z</time></trkpt><trkpt lat="43.1246837" lon="12.465878"><ele>242.0</ele><time>2026-04-24T08:06:47.04Z</time></trkpt><trkpt lat="43.1247539" lon="12.4659957"><ele>242.0</ele><time>2026-04-24T08:06:48.032Z</time></trkpt><trkpt lat="43.124826" lon="12.4661059"><ele>242.0</ele><time>2026-04-24T08:06:49.037Z</time></trkpt><trkpt lat="43.1248886" lon="12.4662193"><ele>242.0</ele><time>2026-04-24T08:06:50.048Z</time></trkpt><trkpt lat="43.1249417" lon="12.466311"><ele>242.0</ele><time>2026-04-24T08:06:51.05Z</time></trkpt><trkpt lat="43.1249943" lon="12.4663979"><ele>242.0</ele><time>2026-04-24T08:06:52.039Z</time></trkpt><trkpt lat="43.1250369" lon="12.4664941"><ele>243.2</ele><time>2026-04-24T08:06:53.052Z</time></trkpt><trkpt lat="43.1250602" lon="12.4665888"><ele>244.39999999999998</ele><time>2026-04-24T08:06:54.041Z</time></trkpt><trkpt lat="43.1250908" lon="12.4667449"><ele>245.60000000000002</ele><time>2026-04-24T08:06:56.008Z</time></trkpt><trkpt lat="43.1251608" lon="12.4668394"><ele>246.8</ele><time>2026-04-24T08:06:58.039Z</time></trkpt><trkpt lat="43.1252592" lon="12.4668029"><ele>248.0</ele><time>2026-04-24T08:07:00.018Z</time></trkpt><trkpt lat="43.1253304" lon="12.4667761"><ele>248.0</ele><time>2026-04-24T08:07:01.036Z</time></trkpt><trkpt lat="43.1254154" lon="12.4667417"><ele>248.0</ele><time>2026-04-24T08:07:02.029Z</time></trkpt><trkpt lat="43.1255175" lon="12.4667112"><ele>248.0</ele><time>2026-04-24T08:07:03.011Z</time></trkpt><trkpt lat="43.1256311" lon="12.4666933"><ele>248.0</ele><time>2026-04-24T08:07:04.024Z</time></trkpt><trkpt lat="43.1257396" lon="12.4666751"><ele>248.0</ele><time>2026-04-24T08:07:05.032Z</time></trkpt><trkpt lat="43.1258415" lon="12.4666435"><ele>248.2</ele><time>2026-04-24T08:07:06.032Z</time></trkpt><trkpt lat="43.1259446" lon="12.4666239"><ele>248.4</ele><time>2026-04-24T08:07:07.043Z</time></trkpt><trkpt lat="43.1260472" lon="12.4666092"><ele>248.59999999999997</ele><time>2026-04-24T08:07:08.048Z</time></trkpt><trkpt lat="43.1261512" lon="12.4665891"><ele>248.79999999999998</ele><time>2026-04-24T08:07:09.034Z</time></trkpt><trkpt lat="43.1262507" lon="12.4665645"><ele>249.0</ele><time>2026-04-24T08:07:10.043Z</time></trkpt><trkpt lat="43.1263369" lon="12.4665468"><ele>249.0</ele><time>2026-04-24T08:07:11.044Z</time></trkpt><trkpt lat="43.1264315" lon="12.4665322"><ele>248.99999999999997</ele><time>2026-04-24T08:07:12.041Z</time></trkpt><trkpt lat="43.1265333" lon="12.4665214"><ele>248.99999999999997</ele><time>2026-04-24T08:07:13.044Z</time></trkpt><trkpt lat="43.1266389" lon="12.4665299"><ele>249.0</ele><time>2026-04-24T08:07:14.043Z</time></trkpt><trkpt lat="43.1267461" lon="12.4665548"><ele>249.0</ele><time>2026-04-24T08:07:15.039Z</time></trkpt><trkpt lat="43.1268523" lon="12.4665908"><ele>249.0</ele><time>2026-04-24T08:07:16.031Z</time></trkpt><trkpt lat="43.1269622" lon="12.466627"><ele>249.0</ele><time>2026-04-24T08:07:17.03Z</time></trkpt><trkpt lat="43.1270844" lon="12.4666627"><ele>249.0</ele><time>2026-04-24T08:07:18.021Z</time></trkpt><trkpt lat="43.1272185" lon="12.4666685"><ele>249.0</ele><time>2026-04-24T08:07:19.031Z</time></trkpt><trkpt lat="43.1273605" lon="12.4666607"><ele>249.66666666666669</ele><time>2026-04-24T08:07:20.041Z</time></trkpt><trkpt lat="43.1275108" lon="12.4666297"><ele>250.33333333333334</ele><time>2026-04-24T08:07:21.03Z</time></trkpt><trkpt lat="43.1276704" lon="12.46659"><ele>251.0</ele><time>2026-04-24T08:07:22.038Z</time></trkpt><trkpt lat="43.1278177" lon="12.4665608"><ele>251.0</ele><time>2026-04-24T08:07:23.036Z</time></trkpt><trkpt lat="43.1279504" lon="12.46654"><ele>251.0</ele><time>2026-04-24T08:07:24.011Z</time></trkpt><trkpt lat="43.1280831" lon="12.4665222"><ele>251.0</ele><time>2026-04-24T08:07:25.035Z</time></trkpt><trkpt lat="43.1282085" lon="12.4664944"><ele>251.0</ele><time>2026-04-24T08:07:26.025Z</time></trkpt><trkpt lat="43.1283331" lon="12.4664504"><ele>251.75</ele><time>2026-04-24T08:07:27.044Z</time></trkpt><trkpt lat="43.1284608" lon="12.4663803"><ele>252.5</ele><time>2026-04-24T08:07:28.03Z</time></trkpt><trkpt lat="43.1285804" lon="12.4663028"><ele>253.25</ele><time>2026-04-24T08:07:29.041Z</time></trkpt><trkpt lat="43.1286854" lon="12.4662323"><ele>254.0</ele><time>2026-04-24T08:07:30.021Z</time></trkpt><trkpt lat="43.1287747" lon="12.4661783"><ele>254.16666666666669</ele><time>2026-04-24T08:07:31.012Z</time></trkpt><trkpt lat="43.1288526" lon="12.4661272"><ele>254.33333333333334</ele><time>2026-04-24T08:07:32.022Z</time></trkpt><trkpt lat="43.1289205" lon="12.46608"><ele>254.5</ele><time>2026-04-24T08:07:33.034Z</time></trkpt><trkpt lat="43.1289894" lon="12.4660524"><ele>254.66666666666669</ele><time>2026-04-24T08:07:34.025Z</time></trkpt><trkpt lat="43.1291103" lon="12.4659992"><ele>254.83333333333334</ele><time>2026-04-24T08:07:36.033Z</time></trkpt><trkpt lat="43.1291809" lon="12.4659695"><ele>255.0</ele><time>2026-04-24T08:07:37.047Z</time></trkpt><trkpt lat="43.1292589" lon="12.4659305"><ele>256.3333333333333</ele><time>2026-04-24T08:07:38.039Z</time></trkpt><trkpt lat="43.1293362" lon="12.4658921"><ele>257.6666666666667</ele><time>2026-04-24T08:07:39.045Z</time></trkpt><trkpt lat="43.1294163" lon="12.4658517"><ele>259.0</ele><time>2026-04-24T08:07:40.021Z</time></trkpt><trkpt lat="43.129496" lon="12.46581"><ele>260.33333333333337</ele><time>2026-04-24T08:07:41.025Z</time></trkpt><trkpt lat="43.1295813" lon="12.4657608"><ele>261.6666666666667</ele><time>2026-04-24T08:07:42.03Z</time></trkpt><trkpt lat="43.1296615" lon="12.4657198"><ele>263.0</ele><time>2026-04-24T08:07:43.035Z</time></trkpt><trkpt lat="43.1297479" lon="12.4656654"><ele>263.0</ele><time>2026-04-24T08:07:44.031Z</time></trkpt><trkpt lat="43.1298321" lon="12.4656166"><ele>263.0</ele><time>2026-04-24T08:07:45.035Z</time></trkpt><trkpt lat="43.129916" lon="12.4655641"><ele>263.0</ele><time>2026-04-24T08:07:46.031Z</time></trkpt><trkpt lat="43.1300101" lon="12.4655076"><ele>263.0</ele><time>2026-04-24T08:07:47.052Z</time></trkpt><trkpt lat="43.1301068" lon="12.4654496"><ele>263.0</ele><time>2026-04-24T08:07:48.033Z</time></trkpt><trkpt lat="43.1302114" lon="12.4653958"><ele>265.4</ele><time>2026-04-24T08:07:49.04Z</time></trkpt><trkpt lat="43.130322" lon="12.4653444"><ele>267.8</ele><time>2026-04-24T08:07:50.041Z</time></trkpt><trkpt lat="43.130431" lon="12.465298"><ele>270.2</ele><time>2026-04-24T08:07:51.051Z</time></trkpt><trkpt lat="43.130529" lon="12.4652458"><ele>272.6</ele><time>2026-04-24T08:07:52.027Z</time></trkpt><trkpt lat="43.1306167" lon="12.4651889"><ele>275.0</ele><time>2026-04-24T08:07:53.027Z</time></trkpt><trkpt lat="43.1307007" lon="12.4651429"><ele>276.0</ele><time>2026-04-24T08:07:54.023Z</time></trkpt><trkpt lat="43.1307845" lon="12.4651099"><ele>277.0</ele><time>2026-04-24T08:07:55.014Z</time></trkpt><trkpt lat="43.1308743" lon="12.4650927"><ele>278.0</ele><time>2026-04-24T08:07:56.025Z</time></trkpt><trkpt lat="43.1309771" lon="12.4651025"><ele>279.0</ele><time>2026-04-24T08:07:57.016Z</time></trkpt><trkpt lat="43.1310738" lon="12.4651569"><ele>280.0</ele><time>2026-04-24T08:07:58.012Z</time></trkpt><trkpt lat="43.1311811" lon="12.4652345"><ele>280.0</ele><time>2026-04-24T08:07:59.022Z</time></trkpt><trkpt lat="43.1312937" lon="12.4653192"><ele>280.0</ele><time>2026-04-24T08:08:00.032Z</time></trkpt><trkpt lat="43.1314144" lon="12.4653986"><ele>280.0</ele><time>2026-04-24T08:08:01.032Z</time></trkpt><trkpt lat="43.1315359" lon="12.4654822"><ele>280.0</ele><time>2026-04-24T08:08:02.035Z</time></trkpt><trkpt lat="43.1316724" lon="12.4655609"><ele>279.25</ele><time>2026-04-24T08:08:03.046Z</time></trkpt><trkpt lat="43.1317956" lon="12.4656425"><ele>278.5</ele><time>2026-04-24T08:08:04.037Z</time></trkpt><trkpt lat="43.1319112" lon="12.4657215"><ele>277.75</ele><time>2026-04-24T08:08:05.032Z</time></trkpt><trkpt lat="43.1320274" lon="12.4658025"><ele>277.0</ele><time>2026-04-24T08:08:06.032Z</time></trkpt><trkpt lat="43.1321415" lon="12.4658665"><ele>277.0</ele><time>2026-04-24T08:08:07.025Z</time></trkpt><trkpt lat="43.1322427" lon="12.4659053"><ele>277.0</ele><time>2026-04-24T08:08:08.031Z</time></trkpt><trkpt lat="43.132338" lon="12.465944"><ele>277.0</ele><time>2026-04-24T08:08:09.031Z</time></trkpt><trkpt lat="43.1324334" lon="12.4659837"><ele>277.0</ele><time>2026-04-24T08:08:10.032Z</time></trkpt><trkpt lat="43.132517" lon="12.4660419"><ele>277.0</ele><time>2026-04-24T08:08:11.036Z</time></trkpt><trkpt lat="43.1326131" lon="12.4660981"><ele>276.6</ele><time>2026-04-24T08:08:12.026Z</time></trkpt><trkpt lat="43.1327112" lon="12.4661435"><ele>276.2</ele><time>2026-04-24T08:08:13.037Z</time></trkpt><trkpt lat="43.1328086" lon="12.4661874"><ele>275.8</ele><time>2026-04-24T08:08:14.026Z</time></trkpt><trkpt lat="43.1329076" lon="12.4662392"><ele>275.4</ele><time>2026-04-24T08:08:15.033Z</time></trkpt><trkpt lat="43.1330002" lon="12.4662996"><ele>275.0</ele><time>2026-04-24T08:08:16.035Z</time></trkpt><trkpt lat="43.1330896" lon="12.4663702"><ele>275.0</ele><time>2026-04-24T08:08:17.042Z</time></trkpt><trkpt lat="43.1331728" lon="12.4664467"><ele>275.0</ele><time>2026-04-24T08:08:18.029Z</time></trkpt><trkpt lat="43.1332335" lon="12.4665531"><ele>275.0</ele><time>2026-04-24T08:08:19.027Z</time></trkpt><trkpt lat="43.1332752" lon="12.4666817"><ele>275.0</ele><time>2026-04-24T08:08:20.005Z</time></trkpt><trkpt lat="43.1333011" lon="12.4668334"><ele>275.0</ele><time>2026-04-24T08:08:21.048Z</time></trkpt><trkpt lat="43.1333311" lon="12.467008"><ele>273.5</ele><time>2026-04-24T08:08:22.039Z</time></trkpt><trkpt lat="43.1333634" lon="12.4671713"><ele>272.0</ele><time>2026-04-24T08:08:23.036Z</time></trkpt><trkpt lat="43.1333878" lon="12.4673291"><ele>270.5</ele><time>2026-04-24T08:08:24.039Z</time></trkpt><trkpt lat="43.1333991" lon="12.4674912"><ele>269.0</ele><time>2026-04-24T08:08:25.013Z</time></trkpt><trkpt lat="43.133408" lon="12.4676436"><ele>269.0</ele><time>2026-04-24T08:08:26.01Z</time></trkpt><trkpt lat="43.1334148" lon="12.4677967"><ele>269.0</ele><time>2026-04-24T08:08:27.05Z</time></trkpt><trkpt lat="43.1334221" lon="12.4679595"><ele>269.0</ele><time>2026-04-24T08:08:28.033Z</time></trkpt><trkpt lat="43.133439" lon="12.4681335"><ele>269.0</ele><time>2026-04-24T08:08:29.034Z</time></trkpt><trkpt lat="43.1334613" lon="12.468309"><ele>268.75</ele><time>2026-04-24T08:08:30.025Z</time></trkpt><trkpt lat="43.1334778" lon="12.4684836"><ele>268.5</ele><time>2026-04-24T08:08:31.02Z</time></trkpt><trkpt lat="43.1334922" lon="12.4686462"><ele>268.25</ele><time>2026-04-24T08:08:32.036Z</time></trkpt><trkpt lat="43.1335057" lon="12.4687922"><ele>268.0</ele><time>2026-04-24T08:08:33.035Z</time></trkpt><trkpt lat="43.133531" lon="12.4689243"><ele>269.3333333333333</ele><time>2026-04-24T08:08:34.035Z</time></trkpt><trkpt lat="43.1335609" lon="12.4690466"><ele>270.66666666666663</ele><time>2026-04-24T08:08:35.036Z</time></trkpt><trkpt lat="43.1335932" lon="12.469172"><ele>272.0</ele><time>2026-04-24T08:08:36.036Z</time></trkpt><trkpt lat="43.1336256" lon="12.4692909"><ele>273.3333333333333</ele><time>2026-04-24T08:08:37.034Z</time></trkpt><trkpt lat="43.1336572" lon="12.4693912"><ele>274.6666666666667</ele><time>2026-04-24T08:08:38.03Z</time></trkpt><trkpt lat="43.1336866" lon="12.4694784"><ele>276.0</ele><time>2026-04-24T08:08:39.022Z</time></trkpt><trkpt lat="43.1337109" lon="12.4695745"><ele>276.3333333333333</ele><time>2026-04-24T08:08:40.032Z</time></trkpt><trkpt lat="43.1337215" lon="12.4696605"><ele>276.6666666666667</ele><time>2026-04-24T08:08:41.03Z</time></trkpt><trkpt lat="43.1336678" lon="12.4697991"><ele>277.0</ele><time>2026-04-24T08:08:43.038Z</time></trkpt><trkpt lat="43.1336168" lon="12.4698544"><ele>277.33333333333337</ele><time>2026-04-24T08:08:44.014Z</time></trkpt><trkpt lat="43.1335346" lon="12.4699121"><ele>277.6666666666667</ele><time>2026-04-24T08:08:46.023Z</time></trkpt><trkpt lat="43.133481" lon="12.4699604"><ele>278.0</ele><time>2026-04-24T08:08:50.023Z</time></trkpt><trkpt lat="43.1334391" lon="12.4700482"><ele>278.0</ele><time>2026-04-24T08:08:59.037Z</time></trkpt><trkpt lat="43.133364" lon="12.4701295"><ele>278.0</ele><time>2026-04-24T08:09:01.035Z</time></trkpt><trkpt lat="43.1333037" lon="12.4701843"><ele>278.0</ele><time>2026-04-24T08:09:02.021Z</time></trkpt><trkpt lat="43.1332282" lon="12.4702423"><ele>278.0</ele><time>2026-04-24T08:09:03.028Z</time></trkpt><trkpt lat="43.1331458" lon="12.4703016"><ele>278.0</ele><time>2026-04-24T08:09:04.05Z</time></trkpt><trkpt lat="43.1330655" lon="12.4703617"><ele>278.0</ele><time>2026-04-24T08:09:05.025Z</time></trkpt><trkpt lat="43.1329888" lon="12.4704252"><ele>277.2</ele><time>2026-04-24T08:09:06.032Z</time></trkpt><trkpt lat="43.1329169" lon="12.4705087"><ele>276.4</ele><time>2026-04-24T08:09:07.059Z</time></trkpt><trkpt lat="43.1328431" lon="12.4705936"><ele>275.59999999999997</ele><time>2026-04-24T08:09:08.021Z</time></trkpt><trkpt lat="43.1327686" lon="12.4706775"><ele>274.8</ele><time>2026-04-24T08:09:09.038Z</time></trkpt><trkpt lat="43.1326943" lon="12.4707618"><ele>274.0</ele><time>2026-04-24T08:09:10.007Z</time></trkpt><trkpt lat="43.1326352" lon="12.4708347"><ele>274.00000000000006</ele><time>2026-04-24T08:09:11.046Z</time></trkpt><trkpt lat="43.1325852" lon="12.4709152"><ele>274.0</ele><time>2026-04-24T08:09:12.002Z</time></trkpt><trkpt lat="43.1325577" lon="12.4710048"><ele>274.0</ele><time>2026-04-24T08:09:13.053Z</time></trkpt><trkpt lat="43.1325499" lon="12.4710996"><ele>274.0</ele><time>2026-04-24T08:09:14.027Z</time></trkpt><trkpt lat="43.1325442" lon="12.4712047"><ele>274.0</ele><time>2026-04-24T08:09:15.034Z</time></trkpt><trkpt lat="43.1325435" lon="12.4712983"><ele>274.00000000000006</ele><time>2026-04-24T08:09:16.02Z</time></trkpt><trkpt lat="43.1325529" lon="12.471387"><ele>274.0</ele><time>2026-04-24T08:09:17.048Z</time></trkpt><trkpt lat="43.1325531" lon="12.4714761"><ele>273.3333333333333</ele><time>2026-04-24T08:09:18.036Z</time></trkpt><trkpt lat="43.1325043" lon="12.4716149"><ele>272.66666666666663</ele><time>2026-04-24T08:09:20.022Z</time></trkpt><trkpt lat="43.1324441" lon="12.4716564"><ele>272.0</ele><time>2026-04-24T08:09:21.04Z</time></trkpt><trkpt lat="43.1323766" lon="12.4716763"><ele>271.3333333333333</ele><time>2026-04-24T08:09:22.016Z</time></trkpt><trkpt lat="43.1323025" lon="12.4716931"><ele>270.6666666666667</ele><time>2026-04-24T08:09:23.038Z</time></trkpt><trkpt lat="43.1322219" lon="12.471719"><ele>270.0</ele><time>2026-04-24T08:09:24.033Z</time></trkpt><trkpt lat="43.1321425" lon="12.4717472"><ele>268.6666666666667</ele><time>2026-04-24T08:09:25.047Z</time></trkpt><trkpt lat="43.1320581" lon="12.4717772"><ele>267.3333333333333</ele><time>2026-04-24T08:09:26.033Z</time></trkpt><trkpt lat="43.1319736" lon="12.4718124"><ele>266.0</ele><time>2026-04-24T08:09:27.038Z</time></trkpt><trkpt lat="43.1318937" lon="12.471847"><ele>264.66666666666663</ele><time>2026-04-24T08:09:28.027Z</time></trkpt><trkpt lat="43.1318142" lon="12.4718783"><ele>263.3333333333333</ele><time>2026-04-24T08:09:29.029Z</time></trkpt><trkpt lat="43.1317266" lon="12.4719075"><ele>262.0</ele><time>2026-04-24T08:09:30.013Z</time></trkpt><trkpt lat="43.1316434" lon="12.4719314"><ele>260.3333333333333</ele><time>2026-04-24T08:09:31.021Z</time></trkpt><trkpt lat="43.1315551" lon="12.4719684"><ele>258.66666666666663</ele><time>2026-04-24T08:09:32.016Z</time></trkpt><trkpt lat="43.131465" lon="12.4719942"><ele>257.0</ele><time>2026-04-24T08:09:33.029Z</time></trkpt><trkpt lat="43.1313779" lon="12.4720161"><ele>255.33333333333331</ele><time>2026-04-24T08:09:34.029Z</time></trkpt><trkpt lat="43.1312937" lon="12.4720419"><ele>253.66666666666666</ele><time>2026-04-24T08:09:35.025Z</time></trkpt><trkpt lat="43.131207" lon="12.4720723"><ele>252.0</ele><time>2026-04-24T08:09:36.007Z</time></trkpt><trkpt lat="43.1311251" lon="12.4720983"><ele>251.33333333333334</ele><time>2026-04-24T08:09:37.039Z</time></trkpt><trkpt lat="43.1310464" lon="12.4721241"><ele>250.66666666666669</ele><time>2026-04-24T08:09:38.031Z</time></trkpt><trkpt lat="43.1309636" lon="12.47215"><ele>250.0</ele><time>2026-04-24T08:09:39.022Z</time></trkpt><trkpt lat="43.1308876" lon="12.4721686"><ele>249.33333333333334</ele><time>2026-04-24T08:09:40.031Z</time></trkpt><trkpt lat="43.1308039" lon="12.4721871"><ele>248.66666666666669</ele><time>2026-04-24T08:09:41.035Z</time></trkpt><trkpt lat="43.1307257" lon="12.4722178"><ele>248.0</ele><time>2026-04-24T08:09:42.034Z</time></trkpt><trkpt lat="43.1306494" lon="12.4722486"><ele>247.16666666666669</ele><time>2026-04-24T08:09:43.038Z</time></trkpt><trkpt lat="43.1305727" lon="12.4722832"><ele>246.33333333333334</ele><time>2026-04-24T08:09:44.036Z</time></trkpt><trkpt lat="43.1304961" lon="12.4723425"><ele>245.5</ele><time>2026-04-24T08:09:45.045Z</time></trkpt><trkpt lat="43.1304209" lon="12.4724144"><ele>244.66666666666669</ele><time>2026-04-24T08:09:46.037Z</time></trkpt><trkpt lat="43.1303539" lon="12.4725048"><ele>243.83333333333334</ele><time>2026-04-24T08:09:47.043Z</time></trkpt><trkpt lat="43.1302978" lon="12.4726047"><ele>243.0</ele><time>2026-04-24T08:09:48.049Z</time></trkpt><trkpt lat="43.1302519" lon="12.4727084"><ele>243.0</ele><time>2026-04-24T08:09:49.045Z</time></trkpt><trkpt lat="43.1302182" lon="12.4727987"><ele>243.0</ele><time>2026-04-24T08:09:50.025Z</time></trkpt><trkpt lat="43.1301943" lon="12.4728888"><ele>243.0</ele><time>2026-04-24T08:09:51.036Z</time></trkpt><trkpt lat="43.130169" lon="12.4729859"><ele>243.0</ele><time>2026-04-24T08:09:52.034Z</time></trkpt><trkpt lat="43.1301455" lon="12.4730881"><ele>243.0</ele><time>2026-04-24T08:09:53.049Z</time></trkpt><trkpt lat="43.1301171" lon="12.4731959"><ele>243.0</ele><time>2026-04-24T08:09:54.023Z</time></trkpt><trkpt lat="43.1300885" lon="12.4732982"><ele>242.28571428571428</ele><time>2026-04-24T08:09:55.045Z</time></trkpt><trkpt lat="43.130059" lon="12.4733927"><ele>241.57142857142858</ele><time>2026-04-24T08:09:56.044Z</time></trkpt><trkpt lat="43.1300381" lon="12.4734756"><ele>240.85714285714286</ele><time>2026-04-24T08:09:57.012Z</time></trkpt><trkpt lat="43.1300117" lon="12.4735828"><ele>240.14285714285714</ele><time>2026-04-24T08:09:59.026Z</time></trkpt><trkpt lat="43.1300148" lon="12.4736964"><ele>239.42857142857144</ele><time>2026-04-24T08:10:02.026Z</time></trkpt><trkpt lat="43.1300705" lon="12.4737455"><ele>238.71428571428572</ele><time>2026-04-24T08:10:04.034Z</time></trkpt><trkpt lat="43.1301374" lon="12.4737842"><ele>238.0</ele><time>2026-04-24T08:10:06.023Z</time></trkpt><trkpt lat="43.1302607" lon="12.473808"><ele>237.99999999999997</ele><time>2026-04-24T08:10:08.013Z</time></trkpt><trkpt lat="43.1303323" lon="12.4738356"><ele>238.0</ele><time>2026-04-24T08:10:09.04Z</time></trkpt><trkpt lat="43.1304359" lon="12.4738865"><ele>238.0</ele><time>2026-04-24T08:10:11.042Z</time></trkpt><trkpt lat="43.1304977" lon="12.4739172"><ele>238.0</ele><time>2026-04-24T08:10:12.033Z</time></trkpt><trkpt lat="43.1305739" lon="12.4739403"><ele>237.99999999999997</ele><time>2026-04-24T08:10:13.006Z</time></trkpt><trkpt lat="43.1306614" lon="12.4739592"><ele>238.0</ele><time>2026-04-24T08:10:14.043Z</time></trkpt><trkpt lat="43.1307487" lon="12.4739882"><ele>237.99999999999997</ele><time>2026-04-24T08:10:15.023Z</time></trkpt><trkpt lat="43.1308266" lon="12.4740074"><ele>238.0</ele><time>2026-04-24T08:10:16.017Z</time></trkpt><trkpt lat="43.130888" lon="12.4740284"><ele>238.0</ele><time>2026-04-24T08:10:17.038Z</time></trkpt><trkpt lat="43.1309959" lon="12.4740639"><ele>238.0</ele><time>2026-04-24T08:10:19.048Z</time></trkpt><trkpt lat="43.1310581" lon="12.4740837"><ele>237.99999999999997</ele><time>2026-04-24T08:10:20.014Z</time></trkpt><trkpt lat="43.1311317" lon="12.474114"><ele>238.0</ele><time>2026-04-24T08:10:21.034Z</time></trkpt><trkpt lat="43.1312098" lon="12.474147"><ele>237.99999999999997</ele><time>2026-04-24T08:10:22.041Z</time></trkpt><trkpt lat="43.1312848" lon="12.4741794"><ele>238.0</ele><time>2026-04-24T08:10:23.047Z</time></trkpt><trkpt lat="43.1313558" lon="12.4742121"><ele>238.0</ele><time>2026-04-24T08:10:24.049Z</time></trkpt><trkpt lat="43.1314343" lon="12.4742387"><ele>238.0</ele><time>2026-04-24T08:10:25.04Z</time></trkpt><trkpt lat="43.1315069" lon="12.4742616"><ele>237.99999999999997</ele><time>2026-04-24T08:10:26.052Z</time></trkpt><trkpt lat="43.1315776" lon="12.4742868"><ele>238.0</ele><time>2026-04-24T08:10:27.052Z</time></trkpt><trkpt lat="43.1316494" lon="12.4743134"><ele>238.60000000000002</ele><time>2026-04-24T08:10:28.052Z</time></trkpt><trkpt lat="43.1317312" lon="12.4743407"><ele>239.20000000000002</ele><time>2026-04-24T08:10:29.032Z</time></trkpt><trkpt lat="43.1318138" lon="12.4743727"><ele>239.8</ele><time>2026-04-24T08:10:30.039Z</time></trkpt><trkpt lat="43.1319046" lon="12.4744065"><ele>240.4</ele><time>2026-04-24T08:10:31.045Z</time></trkpt><trkpt lat="43.1319982" lon="12.4744479"><ele>241.0</ele><time>2026-04-24T08:10:32.009Z</time></trkpt><trkpt lat="43.1320886" lon="12.4744822"><ele>240.99999999999997</ele><time>2026-04-24T08:10:33.044Z</time></trkpt><trkpt lat="43.1321755" lon="12.4745208"><ele>241.0</ele><time>2026-04-24T08:10:34.047Z</time></trkpt><trkpt lat="43.1322686" lon="12.4745467"><ele>241.0</ele><time>2026-04-24T08:10:35.041Z</time></trkpt><trkpt lat="43.1323524" lon="12.4745685"><ele>241.0</ele><time>2026-04-24T08:10:36.038Z</time></trkpt><trkpt lat="43.1324303" lon="12.4745857"><ele>240.99999999999997</ele><time>2026-04-24T08:10:37.032Z</time></trkpt><trkpt lat="43.1325139" lon="12.4745971"><ele>241.0</ele><time>2026-04-24T08:10:38.028Z</time></trkpt><trkpt lat="43.1326035" lon="12.4746013"><ele>239.66666666666666</ele><time>2026-04-24T08:10:39.025Z</time></trkpt><trkpt lat="43.1326869" lon="12.4746077"><ele>238.33333333333331</ele><time>2026-04-24T08:10:40.017Z</time></trkpt><trkpt lat="43.132775" lon="12.4746185"><ele>237.0</ele><time>2026-04-24T08:10:41.044Z</time></trkpt><trkpt lat="43.132864" lon="12.4746308"><ele>235.66666666666669</ele><time>2026-04-24T08:10:42.039Z</time></trkpt><trkpt lat="43.1329466" lon="12.474651"><ele>234.33333333333334</ele><time>2026-04-24T08:10:43.032Z</time></trkpt><trkpt lat="43.1330367" lon="12.4746775"><ele>233.0</ele><time>2026-04-24T08:10:44.039Z</time></trkpt><trkpt lat="43.1331286" lon="12.4747043"><ele>233.00000000000003</ele><time>2026-04-24T08:10:45.041Z</time></trkpt><trkpt lat="43.1332206" lon="12.4747289"><ele>233.0</ele><time>2026-04-24T08:10:46.032Z</time></trkpt><trkpt lat="43.1333094" lon="12.4747628"><ele>233.0</ele><time>2026-04-24T08:10:47.038Z</time></trkpt><trkpt lat="43.1333939" lon="12.4748042"><ele>233.0</ele><time>2026-04-24T08:10:48.04Z</time></trkpt><trkpt lat="43.1334702" lon="12.4748514"><ele>233.00000000000003</ele><time>2026-04-24T08:10:49.042Z</time></trkpt><trkpt lat="43.1335429" lon="12.4749007"><ele>233.0</ele><time>2026-04-24T08:10:50.045Z</time></trkpt><trkpt lat="43.133621" lon="12.4749508"><ele>232.83333333333334</ele><time>2026-04-24T08:10:51.011Z</time></trkpt><trkpt lat="43.1336955" lon="12.4750027"><ele>232.66666666666669</ele><time>2026-04-24T08:10:52.055Z</time></trkpt><trkpt lat="43.1337615" lon="12.4750494"><ele>232.5</ele><time>2026-04-24T08:10:53.028Z</time></trkpt><trkpt lat="43.1338209" lon="12.4750997"><ele>232.33333333333331</ele><time>2026-04-24T08:10:54.038Z</time></trkpt><trkpt lat="43.1338746" lon="12.4751455"><ele>232.16666666666666</ele><time>2026-04-24T08:10:55.046Z</time></trkpt><trkpt lat="43.1339718" lon="12.4752219"><ele>232.0</ele><time>2026-04-24T08:10:57.005Z</time></trkpt><trkpt lat="43.1340387" lon="12.4752935"><ele>232.2</ele><time>2026-04-24T08:10:59.014Z</time></trkpt><trkpt lat="43.1341133" lon="12.4754202"><ele>232.39999999999998</ele><time>2026-04-24T08:11:01.022Z</time></trkpt><trkpt lat="43.1341446" lon="12.4755534"><ele>232.60000000000002</ele><time>2026-04-24T08:11:03.034Z</time></trkpt><trkpt lat="43.134168" lon="12.4756419"><ele>232.8</ele><time>2026-04-24T08:11:04.012Z</time></trkpt><trkpt lat="43.1342011" lon="12.4757239"><ele>233.0</ele><time>2026-04-24T08:11:05.01Z</time></trkpt><trkpt lat="43.13423" lon="12.4758451"><ele>233.0</ele><time>2026-04-24T08:11:06.031Z</time></trkpt><trkpt lat="43.1342619" lon="12.4759644"><ele>233.0</ele><time>2026-04-24T08:11:07.025Z</time></trkpt><trkpt lat="43.1342889" lon="12.4760969"><ele>233.0</ele><time>2026-04-24T08:11:08.022Z</time></trkpt><trkpt lat="43.1343197" lon="12.4762176"><ele>233.0</ele><time>2026-04-24T08:11:09.012Z</time></trkpt><trkpt lat="43.1343435" lon="12.476343"><ele>233.0</ele><time>2026-04-24T08:11:10.03Z</time></trkpt><trkpt lat="43.1343789" lon="12.4764612"><ele>233.0</ele><time>2026-04-24T08:11:11.022Z</time></trkpt><trkpt lat="43.1344098" lon="12.4765861"><ele>233.0</ele><time>2026-04-24T08:11:12.021Z</time></trkpt><trkpt lat="43.134437" lon="12.4767101"><ele>233.0</ele><time>2026-04-24T08:11:13.004Z</time></trkpt><trkpt lat="43.1344655" lon="12.4768414"><ele>233.0</ele><time>2026-04-24T08:11:14.002Z</time></trkpt><trkpt lat="43.1344917" lon="12.4769489"><ele>233.0</ele><time>2026-04-24T08:11:15.016Z</time></trkpt><trkpt lat="43.134516" lon="12.4770505"><ele>232.83333333333334</ele><time>2026-04-24T08:11:16.033Z</time></trkpt><trkpt lat="43.134528" lon="12.4771575"><ele>232.66666666666669</ele><time>2026-04-24T08:11:17.032Z</time></trkpt><trkpt lat="43.1345576" lon="12.4772806"><ele>232.5</ele><time>2026-04-24T08:11:18.022Z</time></trkpt><trkpt lat="43.1345889" lon="12.4773832"><ele>232.33333333333331</ele><time>2026-04-24T08:11:19.018Z</time></trkpt><trkpt lat="43.1346223" lon="12.4774578"><ele>232.16666666666666</ele><time>2026-04-24T08:11:20.053Z</time></trkpt><trkpt lat="43.1346768" lon="12.4775781"><ele>232.0</ele><time>2026-04-24T08:11:22.023Z</time></trkpt><trkpt lat="43.1347275" lon="12.4776502"><ele>231.99999999999997</ele><time>2026-04-24T08:11:24.025Z</time></trkpt><trkpt lat="43.1348053" lon="12.4776701"><ele>232.0</ele><time>2026-04-24T08:11:26.042Z</time></trkpt><trkpt lat="43.1349091" lon="12.4777445"><ele>232.0</ele><time>2026-04-24T08:11:28.02Z</time></trkpt><trkpt lat="43.1349616" lon="12.4778188"><ele>232.0</ele><time>2026-04-24T08:11:30.01Z</time></trkpt><trkpt lat="43.1350093" lon="12.4778797"><ele>231.99999999999997</ele><time>2026-04-24T08:11:32.028Z</time></trkpt><trkpt lat="43.1350795" lon="12.4779706"><ele>232.0</ele><time>2026-04-24T08:11:34.026Z</time></trkpt><trkpt lat="43.1351413" lon="12.4780617"><ele>232.66666666666666</ele><time>2026-04-24T08:11:36.014Z</time></trkpt><trkpt lat="43.1351895" lon="12.4781356"><ele>233.33333333333331</ele><time>2026-04-24T08:11:37.03Z</time></trkpt><trkpt lat="43.135235" lon="12.4782015"><ele>234.0</ele><time>2026-04-24T08:11:38.03Z</time></trkpt><trkpt lat="43.1352798" lon="12.4782692"><ele>234.66666666666669</ele><time>2026-04-24T08:11:39.032Z</time></trkpt><trkpt lat="43.1353191" lon="12.4783418"><ele>235.33333333333334</ele><time>2026-04-24T08:11:40.011Z</time></trkpt><trkpt lat="43.1353897" lon="12.4784696"><ele>236.0</ele><time>2026-04-24T08:11:42.019Z</time></trkpt><trkpt lat="43.1354593" lon="12.4785933"><ele>236.0</ele><time>2026-04-24T08:11:44.002Z</time></trkpt><trkpt lat="43.1355017" lon="12.4786723"><ele>236.0</ele><time>2026-04-24T08:11:45.015Z</time></trkpt><trkpt lat="43.1355334" lon="12.4787531"><ele>236.0</ele><time>2026-04-24T08:11:46.004Z</time></trkpt><trkpt lat="43.1355581" lon="12.4788345"><ele>236.0</ele><time>2026-04-24T08:11:47.047Z</time></trkpt><trkpt lat="43.1355707" lon="12.4789282"><ele>236.0</ele><time>2026-04-24T08:11:48.005Z</time></trkpt><trkpt lat="43.1355793" lon="12.4790226"><ele>236.0</ele><time>2026-04-24T08:11:49.035Z</time></trkpt><trkpt lat="43.1355887" lon="12.4791176"><ele>236.0</ele><time>2026-04-24T08:11:50.022Z</time></trkpt><trkpt lat="43.1355967" lon="12.4792121"><ele>235.4</ele><time>2026-04-24T08:11:51.022Z</time></trkpt><trkpt lat="43.135595" lon="12.4793663"><ele>234.8</ele><time>2026-04-24T08:11:53.032Z</time></trkpt><trkpt lat="43.1355939" lon="12.4795227"><ele>234.20000000000002</ele><time>2026-04-24T08:11:55.045Z</time></trkpt><trkpt lat="43.1355924" lon="12.4796775"><ele>233.60000000000002</ele><time>2026-04-24T08:11:57.016Z</time></trkpt><trkpt lat="43.1356031" lon="12.4798139"><ele>233.0</ele><time>2026-04-24T08:11:59.024Z</time></trkpt><trkpt lat="43.1356194" lon="12.4799701"><ele>233.33333333333334</ele><time>2026-04-24T08:12:01.032Z</time></trkpt><trkpt lat="43.1356378" lon="12.4800575"><ele>233.66666666666669</ele><time>2026-04-24T08:12:02.012Z</time></trkpt><trkpt lat="43.1356803" lon="12.4802128"><ele>234.0</ele><time>2026-04-24T08:12:04.014Z</time></trkpt><trkpt lat="43.1357065" lon="12.4803041"><ele>234.33333333333331</ele><time>2026-04-24T08:12:05.029Z</time></trkpt><trkpt lat="43.1357392" lon="12.4803894"><ele>234.66666666666666</ele><time>2026-04-24T08:12:06.022Z</time></trkpt><trkpt lat="43.1357771" lon="12.4804692"><ele>235.0</ele><time>2026-04-24T08:12:07.026Z</time></trkpt><trkpt lat="43.1358164" lon="12.4805452"><ele>234.99999999999997</ele><time>2026-04-24T08:12:08.017Z</time></trkpt><trkpt lat="43.1358566" lon="12.4806206"><ele>235.0</ele><time>2026-04-24T08:12:09.026Z</time></trkpt><trkpt lat="43.1359252" lon="12.4807771"><ele>235.0</ele><time>2026-04-24T08:12:11.022Z</time></trkpt><trkpt lat="43.1359687" lon="12.4808612"><ele>235.0</ele><time>2026-04-24T08:12:12.024Z</time></trkpt><trkpt lat="43.1359869" lon="12.4809694"><ele>234.99999999999997</ele><time>2026-04-24T08:12:13.013Z</time></trkpt><trkpt lat="43.1359951" lon="12.4810755"><ele>235.0</ele><time>2026-04-24T08:12:14.026Z</time></trkpt><trkpt lat="43.1360071" lon="12.4811751"><ele>235.0</ele><time>2026-04-24T08:12:15.012Z</time></trkpt><trkpt lat="43.1360182" lon="12.4812636"><ele>234.99999999999997</ele><time>2026-04-24T08:12:16.015Z</time></trkpt><trkpt lat="43.1360226" lon="12.4813612"><ele>235.0</ele><time>2026-04-24T08:12:17.028Z</time></trkpt><trkpt lat="43.1360338" lon="12.4814685"><ele>235.0</ele><time>2026-04-24T08:12:18.011Z</time></trkpt><trkpt lat="43.1360377" lon="12.4815686"><ele>234.99999999999997</ele><time>2026-04-24T08:12:19.011Z</time></trkpt><trkpt lat="43.1360557" lon="12.4816747"><ele>235.0</ele><time>2026-04-24T08:12:20.023Z</time></trkpt><trkpt lat="43.136061" lon="12.4817835"><ele>235.0</ele><time>2026-04-24T08:12:21.022Z</time></trkpt><trkpt lat="43.1360592" lon="12.4818992"><ele>235.4</ele><time>2026-04-24T08:12:22.017Z</time></trkpt><trkpt lat="43.13607" lon="12.4820103"><ele>235.8</ele><time>2026-04-24T08:12:23.017Z</time></trkpt><trkpt lat="43.1360761" lon="12.4821171"><ele>236.2</ele><time>2026-04-24T08:12:24.01Z</time></trkpt><trkpt lat="43.1360799" lon="12.4822131"><ele>236.6</ele><time>2026-04-24T08:12:25.023Z</time></trkpt><trkpt lat="43.1361105" lon="12.4823592"><ele>237.0</ele><time>2026-04-24T08:12:27.015Z</time></trkpt><trkpt lat="43.1361104" lon="12.4825232"><ele>237.0</ele><time>2026-04-24T08:12:29.019Z</time></trkpt><trkpt lat="43.1361067" lon="12.4826408"><ele>237.0</ele><time>2026-04-24T08:12:30.017Z</time></trkpt><trkpt lat="43.1361079" lon="12.4827703"><ele>237.0</ele><time>2026-04-24T08:12:31.018Z</time></trkpt><trkpt lat="43.1361101" lon="12.4829089"><ele>237.0</ele><time>2026-04-24T08:12:32.011Z</time></trkpt><trkpt lat="43.1361127" lon="12.4830456"><ele>237.0</ele><time>2026-04-24T08:12:33.013Z</time></trkpt><trkpt lat="43.136118" lon="12.4831903"><ele>236.8</ele><time>2026-04-24T08:12:34.011Z</time></trkpt><trkpt lat="43.1361207" lon="12.4833399"><ele>236.6</ele><time>2026-04-24T08:12:35.03Z</time></trkpt><trkpt lat="43.1361234" lon="12.4834821"><ele>236.40000000000003</ele><time>2026-04-24T08:12:36.018Z</time></trkpt><trkpt lat="43.1361231" lon="12.4836131"><ele>236.20000000000002</ele><time>2026-04-24T08:12:37.027Z</time></trkpt><trkpt lat="43.136118" lon="12.4837459"><ele>236.0</ele><time>2026-04-24T08:12:38.01Z</time></trkpt><trkpt lat="43.1361198" lon="12.4838917"><ele>235.60000000000002</ele><time>2026-04-24T08:12:39.018Z</time></trkpt><trkpt lat="43.1361163" lon="12.4840483"><ele>235.20000000000002</ele><time>2026-04-24T08:12:40.036Z</time></trkpt><trkpt lat="43.1361158" lon="12.4841911"><ele>234.79999999999998</ele><time>2026-04-24T08:12:41.007Z</time></trkpt><trkpt lat="43.1361148" lon="12.4843366"><ele>234.39999999999998</ele><time>2026-04-24T08:12:42.002Z</time></trkpt><trkpt lat="43.1361149" lon="12.4844669"><ele>234.0</ele><time>2026-04-24T08:12:43.013Z</time></trkpt><trkpt lat="43.1361176" lon="12.4846044"><ele>233.33333333333334</ele><time>2026-04-24T08:12:44.014Z</time></trkpt><trkpt lat="43.1361271" lon="12.484735"><ele>232.66666666666669</ele><time>2026-04-24T08:12:45.023Z</time></trkpt><trkpt lat="43.1361375" lon="12.484864"><ele>232.0</ele><time>2026-04-24T08:12:46.019Z</time></trkpt><trkpt lat="43.1361468" lon="12.4849685"><ele>231.33333333333334</ele><time>2026-04-24T08:12:47.029Z</time></trkpt><trkpt lat="43.1361582" lon="12.4850775"><ele>230.66666666666669</ele><time>2026-04-24T08:12:48.024Z</time></trkpt><trkpt lat="43.1361711" lon="12.4851667"><ele>230.0</ele><time>2026-04-24T08:12:49.034Z</time></trkpt><trkpt lat="43.1361787" lon="12.4853283"><ele>229.33333333333334</ele><time>2026-04-24T08:12:51.017Z</time></trkpt><trkpt lat="43.1362083" lon="12.4854761"><ele>228.66666666666669</ele><time>2026-04-24T08:12:53.019Z</time></trkpt><trkpt lat="43.1362431" lon="12.4855547"><ele>228.0</ele><time>2026-04-24T08:12:54.019Z</time></trkpt><trkpt lat="43.1362686" lon="12.4856494"><ele>227.33333333333331</ele><time>2026-04-24T08:12:55.021Z</time></trkpt><trkpt lat="43.136305" lon="12.4857535"><ele>226.66666666666666</ele><time>2026-04-24T08:12:56.019Z</time></trkpt><trkpt lat="43.1363415" lon="12.4858673"><ele>226.0</ele><time>2026-04-24T08:12:57.019Z</time></trkpt><trkpt lat="43.136381" lon="12.4859821"><ele>225.99999999999997</ele><time>2026-04-24T08:12:58.015Z</time></trkpt><trkpt lat="43.1364308" lon="12.4860821"><ele>226.0</ele><time>2026-04-24T08:12:59.018Z</time></trkpt><trkpt lat="43.1364795" lon="12.4861612"><ele>226.0</ele><time>2026-04-24T08:13:00.016Z</time></trkpt><trkpt lat="43.1365523" lon="12.4862619"><ele>226.0</ele><time>2026-04-24T08:13:02.015Z</time></trkpt><trkpt lat="43.1365821" lon="12.4863433"><ele>225.99999999999997</ele><time>2026-04-24T08:13:04.036Z</time></trkpt><trkpt lat="43.1365809" lon="12.4864767"><ele>226.0</ele><time>2026-04-24T08:13:06.022Z</time></trkpt><trkpt lat="43.1365612" lon="12.4865612"><ele>226.20000000000002</ele><time>2026-04-24T08:13:07.029Z</time></trkpt><trkpt lat="43.1365287" lon="12.4866709"><ele>226.40000000000003</ele><time>2026-04-24T08:13:08.023Z</time></trkpt><trkpt lat="43.1364929" lon="12.4868129"><ele>226.6</ele><time>2026-04-24T08:13:09.021Z</time></trkpt><trkpt lat="43.1364598" lon="12.4869636"><ele>226.8</ele><time>2026-04-24T08:13:10.025Z</time></trkpt><trkpt lat="43.1364397" lon="12.4871161"><ele>227.0</ele><time>2026-04-24T08:13:11.015Z</time></trkpt><trkpt lat="43.1364226" lon="12.4872797"><ele>227.0</ele><time>2026-04-24T08:13:12.016Z</time></trkpt><trkpt lat="43.1364149" lon="12.48745"><ele>227.0</ele><time>2026-04-24T08:13:13.024Z</time></trkpt><trkpt lat="43.1364139" lon="12.4876243"><ele>227.0</ele><time>2026-04-24T08:13:14.033Z</time></trkpt><trkpt lat="43.1364218" lon="12.4878055"><ele>227.0</ele><time>2026-04-24T08:13:15.035Z</time></trkpt><trkpt lat="43.1364459" lon="12.4879899"><ele>227.0</ele><time>2026-04-24T08:13:16.029Z</time></trkpt><trkpt lat="43.136473" lon="12.4881824"><ele>227.0</ele><time>2026-04-24T08:13:17.033Z</time></trkpt><trkpt lat="43.1365023" lon="12.4883881"><ele>227.0</ele><time>2026-04-24T08:13:18.027Z</time></trkpt><trkpt lat="43.1365284" lon="12.4885968"><ele>228.66666666666669</ele><time>2026-04-24T08:13:19.025Z</time></trkpt><trkpt lat="43.1365544" lon="12.4888022"><ele>230.33333333333331</ele><time>2026-04-24T08:13:20.011Z</time></trkpt><trkpt lat="43.1365777" lon="12.4890221"><ele>232.0</ele><time>2026-04-24T08:13:21.027Z</time></trkpt><trkpt lat="43.1366033" lon="12.4892533"><ele>232.0</ele><time>2026-04-24T08:13:22.002Z</time></trkpt><trkpt lat="43.1366281" lon="12.4894689"><ele>232.0</ele><time>2026-04-24T08:13:23.023Z</time></trkpt><trkpt lat="43.13665" lon="12.4896835"><ele>232.0</ele><time>2026-04-24T08:13:24.022Z</time></trkpt><trkpt lat="43.1366708" lon="12.4898961"><ele>231.66666666666666</ele><time>2026-04-24T08:13:25.018Z</time></trkpt><trkpt lat="43.1366831" lon="12.4901062"><ele>231.33333333333331</ele><time>2026-04-24T08:13:26.039Z</time></trkpt><trkpt lat="43.1366912" lon="12.4903139"><ele>231.0</ele><time>2026-04-24T08:13:27.038Z</time></trkpt><trkpt lat="43.1367021" lon="12.4905295"><ele>230.33333333333331</ele><time>2026-04-24T08:13:28.012Z</time></trkpt><trkpt lat="43.1367128" lon="12.4907413"><ele>229.66666666666666</ele><time>2026-04-24T08:13:29.021Z</time></trkpt><trkpt lat="43.1367244" lon="12.4909524"><ele>229.0</ele><time>2026-04-24T08:13:30.015Z</time></trkpt><trkpt lat="43.1367374" lon="12.4911646"><ele>228.0</ele><time>2026-04-24T08:13:31.029Z</time></trkpt><trkpt lat="43.1367563" lon="12.4913728"><ele>227.0</ele><time>2026-04-24T08:13:32.026Z</time></trkpt><trkpt lat="43.1367948" lon="12.4915842"><ele>226.0</ele><time>2026-04-24T08:13:33.037Z</time></trkpt><trkpt lat="43.1368477" lon="12.4917949"><ele>226.0</ele><time>2026-04-24T08:13:34.018Z</time></trkpt><trkpt lat="43.1369003" lon="12.492006"><ele>226.0</ele><time>2026-04-24T08:13:35.024Z</time></trkpt><trkpt lat="43.1369548" lon="12.492214"><ele>226.0</ele><time>2026-04-24T08:13:36.017Z</time></trkpt><trkpt lat="43.1370071" lon="12.4924266"><ele>225.66666666666666</ele><time>2026-04-24T08:13:37.029Z</time></trkpt><trkpt lat="43.1370641" lon="12.4926433"><ele>225.33333333333331</ele><time>2026-04-24T08:13:38.013Z</time></trkpt><trkpt lat="43.1371177" lon="12.4928585"><ele>225.0</ele><time>2026-04-24T08:13:39.026Z</time></trkpt><trkpt lat="43.1371696" lon="12.4930766"><ele>225.66666666666669</ele><time>2026-04-24T08:13:40.029Z</time></trkpt><trkpt lat="43.1372171" lon="12.4932864"><ele>226.33333333333334</ele><time>2026-04-24T08:13:41.046Z</time></trkpt><trkpt lat="43.1372662" lon="12.4934843"><ele>227.0</ele><time>2026-04-24T08:13:42.029Z</time></trkpt><trkpt lat="43.13732" lon="12.4936702"><ele>226.66666666666669</ele><time>2026-04-24T08:13:43.029Z</time></trkpt><trkpt lat="43.1373836" lon="12.4938455"><ele>226.33333333333331</ele><time>2026-04-24T08:13:44.019Z</time></trkpt><trkpt lat="43.1374718" lon="12.4940231"><ele>226.0</ele><time>2026-04-24T08:13:45.03Z</time></trkpt><trkpt lat="43.1375754" lon="12.4941847"><ele>227.0</ele><time>2026-04-24T08:13:46.03Z</time></trkpt><trkpt lat="43.1376894" lon="12.4943302"><ele>228.0</ele><time>2026-04-24T08:13:47.047Z</time></trkpt><trkpt lat="43.13781" lon="12.4944796"><ele>229.0</ele><time>2026-04-24T08:13:48.027Z</time></trkpt><trkpt lat="43.1379357" lon="12.4946343"><ele>229.0</ele><time>2026-04-24T08:13:49.045Z</time></trkpt><trkpt lat="43.138066" lon="12.4947787"><ele>229.0</ele><time>2026-04-24T08:13:50.004Z</time></trkpt><trkpt lat="43.1381905" lon="12.494935"><ele>229.0</ele><time>2026-04-24T08:13:51.029Z</time></trkpt><trkpt lat="43.1383161" lon="12.4950828"><ele>230.0</ele><time>2026-04-24T08:13:52.034Z</time></trkpt><trkpt lat="43.1384408" lon="12.4952285"><ele>231.0</ele><time>2026-04-24T08:13:53.036Z</time></trkpt><trkpt lat="43.1385647" lon="12.4953797"><ele>232.0</ele><time>2026-04-24T08:13:54.014Z</time></trkpt><trkpt lat="43.1386889" lon="12.4955287"><ele>233.0</ele><time>2026-04-24T08:13:55.036Z</time></trkpt><trkpt lat="43.1388155" lon="12.4956759"><ele>234.0</ele><time>2026-04-24T08:13:56.042Z</time></trkpt><trkpt lat="43.1389472" lon="12.4958153"><ele>235.0</ele><time>2026-04-24T08:13:57.021Z</time></trkpt><trkpt lat="43.1390867" lon="12.4959449"><ele>235.0</ele><time>2026-04-24T08:13:58.016Z</time></trkpt><trkpt lat="43.1392249" lon="12.4960686"><ele>235.0</ele><time>2026-04-24T08:13:59.033Z</time></trkpt><trkpt lat="43.1393626" lon="12.4961864"><ele>235.0</ele><time>2026-04-24T08:14:00.031Z</time></trkpt><trkpt lat="43.1394928" lon="12.4962893"><ele>235.75</ele><time>2026-04-24T08:14:01.038Z</time></trkpt><trkpt lat="43.1396101" lon="12.4963808"><ele>236.5</ele><time>2026-04-24T08:14:02.012Z</time></trkpt><trkpt lat="43.1397321" lon="12.4964781"><ele>237.25</ele><time>2026-04-24T08:14:03.03Z</time></trkpt><trkpt lat="43.1398517" lon="12.4965814"><ele>238.0</ele><time>2026-04-24T08:14:04.027Z</time></trkpt><trkpt lat="43.1399605" lon="12.496674"><ele>238.0</ele><time>2026-04-24T08:14:05.028Z</time></trkpt><trkpt lat="43.1400581" lon="12.4967565"><ele>238.0</ele><time>2026-04-24T08:14:06.033Z</time></trkpt><trkpt lat="43.140147" lon="12.4968363"><ele>238.0</ele><time>2026-04-24T08:14:07.016Z</time></trkpt><trkpt lat="43.1402323" lon="12.4969056"><ele>238.0</ele><time>2026-04-24T08:14:08.032Z</time></trkpt><trkpt lat="43.1403053" lon="12.496968"><ele>238.0</ele><time>2026-04-24T08:14:09.036Z</time></trkpt><trkpt lat="43.1403705" lon="12.4970292"><ele>238.0</ele><time>2026-04-24T08:14:10.031Z</time></trkpt><trkpt lat="43.1404285" lon="12.4970787"><ele>238.0</ele><time>2026-04-24T08:14:11.025Z</time></trkpt><trkpt lat="43.1405218" lon="12.4971658"><ele>238.0</ele><time>2026-04-24T08:14:13.041Z</time></trkpt><trkpt lat="43.1406294" lon="12.4972005"><ele>238.0</ele><time>2026-04-24T08:14:15.038Z</time></trkpt><trkpt lat="43.1407501" lon="12.4972347"><ele>238.0</ele><time>2026-04-24T08:14:17.035Z</time></trkpt><trkpt lat="43.1408178" lon="12.4972559"><ele>238.60000000000002</ele><time>2026-04-24T08:14:18.03Z</time></trkpt><trkpt lat="43.1408984" lon="12.4972792"><ele>239.20000000000002</ele><time>2026-04-24T08:14:19.048Z</time></trkpt><trkpt lat="43.1409876" lon="12.4973103"><ele>239.8</ele><time>2026-04-24T08:14:20.027Z</time></trkpt><trkpt lat="43.1410901" lon="12.49734"><ele>240.4</ele><time>2026-04-24T08:14:21.024Z</time></trkpt><trkpt lat="43.1412054" lon="12.4973615"><ele>241.0</ele><time>2026-04-24T08:14:22.026Z</time></trkpt><trkpt lat="43.1413228" lon="12.4973833"><ele>241.0</ele><time>2026-04-24T08:14:23.038Z</time></trkpt><trkpt lat="43.1414487" lon="12.4974056"><ele>241.0</ele><time>2026-04-24T08:14:24.037Z</time></trkpt><trkpt lat="43.1415783" lon="12.4974228"><ele>241.0</ele><time>2026-04-24T08:14:25.034Z</time></trkpt><trkpt lat="43.1417091" lon="12.4974307"><ele>241.0</ele><time>2026-04-24T08:14:26.007Z</time></trkpt><trkpt lat="43.14184" lon="12.4974437"><ele>241.5</ele><time>2026-04-24T08:14:27.012Z</time></trkpt><trkpt lat="43.1419692" lon="12.497459"><ele>242.0</ele><time>2026-04-24T08:14:28.029Z</time></trkpt><trkpt lat="43.1420843" lon="12.4974813"><ele>242.5</ele><time>2026-04-24T08:14:29.042Z</time></trkpt><trkpt lat="43.1421958" lon="12.4974973"><ele>243.0</ele><time>2026-04-24T08:14:30.025Z</time></trkpt><trkpt lat="43.1423131" lon="12.4975186"><ele>243.25</ele><time>2026-04-24T08:14:31.027Z</time></trkpt><trkpt lat="43.1424254" lon="12.4975435"><ele>243.5</ele><time>2026-04-24T08:14:32.036Z</time></trkpt><trkpt lat="43.1425422" lon="12.4975582"><ele>243.75</ele><time>2026-04-24T08:14:33.036Z</time></trkpt><trkpt lat="43.1426561" lon="12.4975626"><ele>244.0</ele><time>2026-04-24T08:14:34.035Z</time></trkpt><trkpt lat="43.1427713" lon="12.4975608"><ele>244.0</ele><time>2026-04-24T08:14:35.025Z</time></trkpt><trkpt lat="43.1428867" lon="12.4975558"><ele>244.0</ele><time>2026-04-24T08:14:36.043Z</time></trkpt><trkpt lat="43.1430072" lon="12.4975698"><ele>244.0</ele><time>2026-04-24T08:14:37.026Z</time></trkpt><trkpt lat="43.1431214" lon="12.497596"><ele>244.0</ele><time>2026-04-24T08:14:38.007Z</time></trkpt><trkpt lat="43.1432376" lon="12.4976288"><ele>245.25</ele><time>2026-04-24T08:14:39.022Z</time></trkpt><trkpt lat="43.1433568" lon="12.4976704"><ele>246.5</ele><time>2026-04-24T08:14:40.022Z</time></trkpt><trkpt lat="43.143486" lon="12.4977136"><ele>247.75</ele><time>2026-04-24T08:14:41.025Z</time></trkpt><trkpt lat="43.1436105" lon="12.4977127"><ele>249.0</ele><time>2026-04-24T08:14:42.012Z</time></trkpt><trkpt lat="43.1437258" lon="12.4977422"><ele>249.0</ele><time>2026-04-24T08:14:43.031Z</time></trkpt><trkpt lat="43.1438372" lon="12.4977851"><ele>249.0</ele><time>2026-04-24T08:14:44.029Z</time></trkpt><trkpt lat="43.1439454" lon="12.4978257"><ele>249.0</ele><time>2026-04-24T08:14:45.027Z</time></trkpt><trkpt lat="43.1440541" lon="12.4978663"><ele>249.0</ele><time>2026-04-24T08:14:46.029Z</time></trkpt><trkpt lat="43.1441625" lon="12.4979123"><ele>251.0</ele><time>2026-04-24T08:14:47.034Z</time></trkpt><trkpt lat="43.1442685" lon="12.4979526"><ele>253.0</ele><time>2026-04-24T08:14:48.011Z</time></trkpt><trkpt lat="43.1443756" lon="12.497993"><ele>255.0</ele><time>2026-04-24T08:14:49.032Z</time></trkpt><trkpt lat="43.1444886" lon="12.4980426"><ele>257.0</ele><time>2026-04-24T08:14:50.024Z</time></trkpt><trkpt lat="43.1445968" lon="12.498116"><ele>257.0</ele><time>2026-04-24T08:14:51.017Z</time></trkpt><trkpt lat="43.144708" lon="12.4982113"><ele>257.0</ele><time>2026-04-24T08:14:52.015Z</time></trkpt><trkpt lat="43.1448171" lon="12.4982912"><ele>257.0</ele><time>2026-04-24T08:14:53.03Z</time></trkpt><trkpt lat="43.1449145" lon="12.4983799"><ele>257.0</ele><time>2026-04-24T08:14:54.016Z</time></trkpt><trkpt lat="43.1450116" lon="12.4984743"><ele>256.75</ele><time>2026-04-24T08:14:55.034Z</time></trkpt><trkpt lat="43.1451048" lon="12.4985674"><ele>256.5</ele><time>2026-04-24T08:14:56.037Z</time></trkpt><trkpt lat="43.1452006" lon="12.4986564"><ele>256.25</ele><time>2026-04-24T08:14:57.028Z</time></trkpt><trkpt lat="43.1453007" lon="12.498756"><ele>256.0</ele><time>2026-04-24T08:14:58.01Z</time></trkpt><trkpt lat="43.1454046" lon="12.4988585"><ele>256.75</ele><time>2026-04-24T08:14:59.048Z</time></trkpt><trkpt lat="43.1455049" lon="12.4989552"><ele>257.5</ele><time>2026-04-24T08:15:00.035Z</time></trkpt><trkpt lat="43.1456085" lon="12.4990464"><ele>258.25</ele><time>2026-04-24T08:15:01.041Z</time></trkpt><trkpt lat="43.145708" lon="12.4991405"><ele>259.0</ele><time>2026-04-24T08:15:02.022Z</time></trkpt><trkpt lat="43.1458102" lon="12.4992285"><ele>259.25</ele><time>2026-04-24T08:15:03.02Z</time></trkpt><trkpt lat="43.1459114" lon="12.4993155"><ele>259.5</ele><time>2026-04-24T08:15:04.014Z</time></trkpt><trkpt lat="43.1460114" lon="12.4994062"><ele>259.75</ele><time>2026-04-24T08:15:05.031Z</time></trkpt><trkpt lat="43.1461087" lon="12.4994867"><ele>260.0</ele><time>2026-04-24T08:15:06.022Z</time></trkpt><trkpt lat="43.1462078" lon="12.4995717"><ele>260.25</ele><time>2026-04-24T08:15:07.038Z</time></trkpt><trkpt lat="43.1463026" lon="12.499657"><ele>260.5</ele><time>2026-04-24T08:15:08.047Z</time></trkpt><trkpt lat="43.1464" lon="12.4997451"><ele>260.75</ele><time>2026-04-24T08:15:09.05Z</time></trkpt><trkpt lat="43.1465007" lon="12.4998271"><ele>261.0</ele><time>2026-04-24T08:15:10.026Z</time></trkpt><trkpt lat="43.1466017" lon="12.499904"><ele>262.40000000000003</ele><time>2026-04-24T08:15:11.042Z</time></trkpt><trkpt lat="43.1467044" lon="12.4999827"><ele>263.8</ele><time>2026-04-24T08:15:12.043Z</time></trkpt><trkpt lat="43.1468011" lon="12.5000594"><ele>265.20000000000005</ele><time>2026-04-24T08:15:13.04Z</time></trkpt><trkpt lat="43.1468946" lon="12.5001415"><ele>266.6</ele><time>2026-04-24T08:15:14.038Z</time></trkpt><trkpt lat="43.1469814" lon="12.5002261"><ele>268.0</ele><time>2026-04-24T08:15:15.022Z</time></trkpt><trkpt lat="43.1470618" lon="12.5003206"><ele>267.6</ele><time>2026-04-24T08:15:16.037Z</time></trkpt><trkpt lat="43.1471364" lon="12.5004255"><ele>267.20000000000005</ele><time>2026-04-24T08:15:17.049Z</time></trkpt><trkpt lat="43.1472051" lon="12.5005426"><ele>266.8</ele><time>2026-04-24T08:15:18.025Z</time></trkpt><trkpt lat="43.1472791" lon="12.5006521"><ele>266.40000000000003</ele><time>2026-04-24T08:15:19.046Z</time></trkpt><trkpt lat="43.147355" lon="12.5007649"><ele>266.0</ele><time>2026-04-24T08:15:20.042Z</time></trkpt><trkpt lat="43.1474311" lon="12.5008778"><ele>267.6</ele><time>2026-04-24T08:15:21.034Z</time></trkpt><trkpt lat="43.1475088" lon="12.5009815"><ele>269.20000000000005</ele><time>2026-04-24T08:15:22.037Z</time></trkpt><trkpt lat="43.1475801" lon="12.501077"><ele>270.79999999999995</ele><time>2026-04-24T08:15:23.052Z</time></trkpt><trkpt lat="43.147652" lon="12.5011757"><ele>272.4</ele><time>2026-04-24T08:15:24.027Z</time></trkpt><trkpt lat="43.1477297" lon="12.501278"><ele>274.0</ele><time>2026-04-24T08:15:25.014Z</time></trkpt><trkpt lat="43.1478039" lon="12.5013729"><ele>274.16666666666663</ele><time>2026-04-24T08:15:26.037Z</time></trkpt><trkpt lat="43.1478751" lon="12.501443"><ele>274.3333333333333</ele><time>2026-04-24T08:15:27.038Z</time></trkpt><trkpt lat="43.1479485" lon="12.501497"><ele>274.5</ele><time>2026-04-24T08:15:28.026Z</time></trkpt><trkpt lat="43.1480235" lon="12.5015476"><ele>274.6666666666667</ele><time>2026-04-24T08:15:29.029Z</time></trkpt><trkpt lat="43.1481072" lon="12.5015865"><ele>274.83333333333337</ele><time>2026-04-24T08:15:30.011Z</time></trkpt><trkpt lat="43.1481969" lon="12.5016261"><ele>275.0</ele><time>2026-04-24T08:15:31.037Z</time></trkpt><trkpt lat="43.148277" lon="12.5016588"><ele>275.33333333333337</ele><time>2026-04-24T08:15:32.045Z</time></trkpt><trkpt lat="43.1483509" lon="12.5016753"><ele>275.6666666666667</ele><time>2026-04-24T08:15:33.031Z</time></trkpt><trkpt lat="43.1484241" lon="12.5016902"><ele>276.0</ele><time>2026-04-24T08:15:34.051Z</time></trkpt><trkpt lat="43.1484896" lon="12.5017055"><ele>276.3333333333333</ele><time>2026-04-24T08:15:35.045Z</time></trkpt><trkpt lat="43.1485973" lon="12.5017236"><ele>276.66666666666663</ele><time>2026-04-24T08:15:37.01Z</time></trkpt><trkpt lat="43.1486632" lon="12.5017444"><ele>277.0</ele><time>2026-04-24T08:15:39.04Z</time></trkpt><trkpt lat="43.1486489" lon="12.5018798"><ele>277.0</ele><time>2026-04-24T08:15:42.031Z</time></trkpt><trkpt lat="43.1485812" lon="12.5019894"><ele>277.0</ele><time>2026-04-24T08:15:44.029Z</time></trkpt><trkpt lat="43.1485224" lon="12.502141"><ele>277.0</ele><time>2026-04-24T08:15:46.038Z</time></trkpt><trkpt lat="43.1484943" lon="12.5022781"><ele>277.0</ele><time>2026-04-24T08:15:48.038Z</time></trkpt><trkpt lat="43.1485287" lon="12.5023921"><ele>277.0</ele><time>2026-04-24T08:15:50.014Z</time></trkpt><trkpt lat="43.148604" lon="12.5025469"><ele>277.42857142857144</ele><time>2026-04-24T08:15:52.025Z</time></trkpt><trkpt lat="43.1486534" lon="12.5026232"><ele>277.85714285714283</ele><time>2026-04-24T08:15:53.034Z</time></trkpt><trkpt lat="43.1487035" lon="12.5026954"><ele>278.2857142857143</ele><time>2026-04-24T08:15:54.031Z</time></trkpt><trkpt lat="43.1487507" lon="12.5027634"><ele>278.7142857142857</ele><time>2026-04-24T08:15:55.038Z</time></trkpt><trkpt lat="43.1487898" lon="12.5028382"><ele>279.1428571428571</ele><time>2026-04-24T08:15:56.016Z</time></trkpt><trkpt lat="43.1488251" lon="12.5029203"><ele>279.57142857142856</ele><time>2026-04-24T08:15:57.043Z</time></trkpt><trkpt lat="43.148853" lon="12.5029994"><ele>280.0</ele><time>2026-04-24T08:15:58.015Z</time></trkpt><trkpt lat="43.1488996" lon="12.5031499"><ele>280.6</ele><time>2026-04-24T08:16:00.044Z</time></trkpt><trkpt lat="43.1489963" lon="12.5032649"><ele>281.2</ele><time>2026-04-24T08:16:02.029Z</time></trkpt><trkpt lat="43.1490577" lon="12.5033078"><ele>281.8</ele><time>2026-04-24T08:16:03.025Z</time></trkpt><trkpt lat="43.1491313" lon="12.5033528"><ele>282.4</ele><time>2026-04-24T08:16:04.035Z</time></trkpt><trkpt lat="43.1492098" lon="12.5034019"><ele>283.0</ele><time>2026-04-24T08:16:05.028Z</time></trkpt><trkpt lat="43.1492964" lon="12.5034429"><ele>283.0</ele><time>2026-04-24T08:16:06.025Z</time></trkpt><trkpt lat="43.1493889" lon="12.5034923"><ele>283.0</ele><time>2026-04-24T08:16:07.027Z</time></trkpt><trkpt lat="43.1494777" lon="12.5035471"><ele>283.0</ele><time>2026-04-24T08:16:08.038Z</time></trkpt><trkpt lat="43.1495738" lon="12.5036029"><ele>283.0</ele><time>2026-04-24T08:16:09.042Z</time></trkpt><trkpt lat="43.1496767" lon="12.5036603"><ele>283.0</ele><time>2026-04-24T08:16:10.047Z</time></trkpt><trkpt lat="43.1497763" lon="12.5037238"><ele>283.2</ele><time>2026-04-24T08:16:11.028Z</time></trkpt><trkpt lat="43.1498737" lon="12.5037639"><ele>283.4</ele><time>2026-04-24T08:16:12.006Z</time></trkpt><trkpt lat="43.1499692" lon="12.5038005"><ele>283.59999999999997</ele><time>2026-04-24T08:16:13.033Z</time></trkpt><trkpt lat="43.1500708" lon="12.5038497"><ele>283.8</ele><time>2026-04-24T08:16:14.027Z</time></trkpt><trkpt lat="43.1501707" lon="12.5039016"><ele>284.0</ele><time>2026-04-24T08:16:15.044Z</time></trkpt><trkpt lat="43.1502725" lon="12.5039691"><ele>284.0</ele><time>2026-04-24T08:16:16.05Z</time></trkpt><trkpt lat="43.150371" lon="12.5040461"><ele>284.0</ele><time>2026-04-24T08:16:17.029Z</time></trkpt><trkpt lat="43.1504622" lon="12.5041324"><ele>284.0</ele><time>2026-04-24T08:16:18.043Z</time></trkpt><trkpt lat="43.1505598" lon="12.5042179"><ele>284.0</ele><time>2026-04-24T08:16:19.046Z</time></trkpt><trkpt lat="43.1506558" lon="12.5042962"><ele>284.75</ele><time>2026-04-24T08:16:20.031Z</time></trkpt><trkpt lat="43.1507502" lon="12.504378"><ele>285.5</ele><time>2026-04-24T08:16:21.041Z</time></trkpt><trkpt lat="43.1508454" lon="12.5044543"><ele>286.25</ele><time>2026-04-24T08:16:22.034Z</time></trkpt><trkpt lat="43.1509407" lon="12.5045341"><ele>287.0</ele><time>2026-04-24T08:16:23.04Z</time></trkpt><trkpt lat="43.1510392" lon="12.5046193"><ele>287.5</ele><time>2026-04-24T08:16:24.016Z</time></trkpt><trkpt lat="43.151134" lon="12.5046996"><ele>288.0</ele><time>2026-04-24T08:16:25.04Z</time></trkpt><trkpt lat="43.1512385" lon="12.5047864"><ele>288.5</ele><time>2026-04-24T08:16:26.045Z</time></trkpt><trkpt lat="43.1513364" lon="12.5048687"><ele>289.0</ele><time>2026-04-24T08:16:27.022Z</time></trkpt><trkpt lat="43.1514256" lon="12.5049421"><ele>289.0</ele><time>2026-04-24T08:16:28.048Z</time></trkpt><trkpt lat="43.1515104" lon="12.5050152"><ele>289.0</ele><time>2026-04-24T08:16:29.036Z</time></trkpt><trkpt lat="43.1515904" lon="12.5051066"><ele>289.0</ele><time>2026-04-24T08:16:30.014Z</time></trkpt><trkpt lat="43.1516517" lon="12.5052055"><ele>289.0</ele><time>2026-04-24T08:16:31.045Z</time></trkpt><trkpt lat="43.1516896" lon="12.5053021"><ele>289.0</ele><time>2026-04-24T08:16:32.045Z</time></trkpt><trkpt lat="43.1517123" lon="12.5054077"><ele>289.8571428571429</ele><time>2026-04-24T08:16:33.035Z</time></trkpt><trkpt lat="43.1517262" lon="12.5054924"><ele>290.7142857142857</ele><time>2026-04-24T08:16:34.024Z</time></trkpt><trkpt lat="43.1517507" lon="12.5055793"><ele>291.57142857142856</ele><time>2026-04-24T08:16:35.022Z</time></trkpt><trkpt lat="43.1517813" lon="12.5056631"><ele>292.42857142857144</ele><time>2026-04-24T08:16:36.028Z</time></trkpt><trkpt lat="43.1518235" lon="12.5057288"><ele>293.2857142857143</ele><time>2026-04-24T08:16:37.037Z</time></trkpt><trkpt lat="43.151882" lon="12.5057885"><ele>294.14285714285717</ele><time>2026-04-24T08:16:38.042Z</time></trkpt><trkpt lat="43.1519561" lon="12.5058529"><ele>295.0</ele><time>2026-04-24T08:16:39.017Z</time></trkpt><trkpt lat="43.1520307" lon="12.5059164"><ele>295.0</ele><time>2026-04-24T08:16:40.031Z</time></trkpt><trkpt lat="43.1521112" lon="12.5059818"><ele>295.0</ele><time>2026-04-24T08:16:41.045Z</time></trkpt><trkpt lat="43.1521944" lon="12.5060358"><ele>295.0</ele><time>2026-04-24T08:16:42.015Z</time></trkpt><trkpt lat="43.1522735" lon="12.5060843"><ele>295.0</ele><time>2026-04-24T08:16:43.02Z</time></trkpt><trkpt lat="43.1523543" lon="12.5061189"><ele>295.0</ele><time>2026-04-24T08:16:44.026Z</time></trkpt><trkpt lat="43.1524412" lon="12.506147"><ele>295.0</ele><time>2026-04-24T08:16:45.03Z</time></trkpt><trkpt lat="43.1525344" lon="12.5061575"><ele>295.2</ele><time>2026-04-24T08:16:46.02Z</time></trkpt><trkpt lat="43.1526131" lon="12.5061712"><ele>295.4</ele><time>2026-04-24T08:16:47.053Z</time></trkpt><trkpt lat="43.1526796" lon="12.5061793"><ele>295.6</ele><time>2026-04-24T08:16:48.02Z</time></trkpt><trkpt lat="43.1528054" lon="12.5062052"><ele>295.8</ele><time>2026-04-24T08:16:50.017Z</time></trkpt><trkpt lat="43.1528716" lon="12.5062093"><ele>296.0</ele><time>2026-04-24T08:16:51.024Z</time></trkpt><trkpt lat="43.1529789" lon="12.5062883"><ele>296.0</ele><time>2026-04-24T08:16:53.047Z</time></trkpt><trkpt lat="43.1530528" lon="12.5063489"><ele>296.0</ele><time>2026-04-24T08:16:54.009Z</time></trkpt><trkpt lat="43.1531455" lon="12.5064093"><ele>296.0</ele><time>2026-04-24T08:16:55.046Z</time></trkpt><trkpt lat="43.1532387" lon="12.5064884"><ele>296.0</ele><time>2026-04-24T08:16:56.029Z</time></trkpt><trkpt lat="43.1533252" lon="12.5065832"><ele>296.0</ele><time>2026-04-24T08:16:57.031Z</time></trkpt><trkpt lat="43.1534296" lon="12.5066528"><ele>297.40000000000003</ele><time>2026-04-24T08:16:58.013Z</time></trkpt><trkpt lat="43.1535228" lon="12.5067238"><ele>298.8</ele><time>2026-04-24T08:16:59.042Z</time></trkpt><trkpt lat="43.1536183" lon="12.5067888"><ele>300.20000000000005</ele><time>2026-04-24T08:17:00.031Z</time></trkpt><trkpt lat="43.1537156" lon="12.5068385"><ele>301.6</ele><time>2026-04-24T08:17:01.049Z</time></trkpt><trkpt lat="43.1538211" lon="12.5068805"><ele>303.0</ele><time>2026-04-24T08:17:02.027Z</time></trkpt><trkpt lat="43.1539317" lon="12.506917"><ele>305.25</ele><time>2026-04-24T08:17:03.042Z</time></trkpt><trkpt lat="43.1540486" lon="12.5069413"><ele>307.5</ele><time>2026-04-24T08:17:04.031Z</time></trkpt><trkpt lat="43.1541668" lon="12.5069746"><ele>309.75</ele><time>2026-04-24T08:17:05.048Z</time></trkpt><trkpt lat="43.1542921" lon="12.5070102"><ele>312.0</ele><time>2026-04-24T08:17:06.027Z</time></trkpt><trkpt lat="43.1544106" lon="12.5070426"><ele>311.75</ele><time>2026-04-24T08:17:07.035Z</time></trkpt><trkpt lat="43.1545308" lon="12.5070795"><ele>311.5</ele><time>2026-04-24T08:17:08.034Z</time></trkpt><trkpt lat="43.15465" lon="12.5071245"><ele>311.25</ele><time>2026-04-24T08:17:09.017Z</time></trkpt><trkpt lat="43.1547736" lon="12.5071619"><ele>311.0</ele><time>2026-04-24T08:17:10.027Z</time></trkpt><trkpt lat="43.1549077" lon="12.5071901"><ele>313.75</ele><time>2026-04-24T08:17:11.023Z</time></trkpt><trkpt lat="43.1550369" lon="12.5072141"><ele>316.5</ele><time>2026-04-24T08:17:12.03Z</time></trkpt><trkpt lat="43.155164" lon="12.5072438"><ele>319.25</ele><time>2026-04-24T08:17:13.038Z</time></trkpt><trkpt lat="43.1552872" lon="12.5072761"><ele>322.0</ele><time>2026-04-24T08:17:14.034Z</time></trkpt><trkpt lat="43.1554102" lon="12.5073075"><ele>322.0</ele><time>2026-04-24T08:17:15.018Z</time></trkpt><trkpt lat="43.1555219" lon="12.5073397"><ele>322.0</ele><time>2026-04-24T08:17:16.016Z</time></trkpt><trkpt lat="43.1556323" lon="12.5073657"><ele>322.0</ele><time>2026-04-24T08:17:17.038Z</time></trkpt><trkpt lat="43.155747" lon="12.5073982"><ele>322.0</ele><time>2026-04-24T08:17:18.035Z</time></trkpt><trkpt lat="43.1558614" lon="12.5074271"><ele>323.5</ele><time>2026-04-24T08:17:19.032Z</time></trkpt><trkpt lat="43.1559765" lon="12.507458"><ele>325.0</ele><time>2026-04-24T08:17:20.04Z</time></trkpt><trkpt lat="43.1560933" lon="12.5074861"><ele>326.5</ele><time>2026-04-24T08:17:21.01Z</time></trkpt><trkpt lat="43.1562066" lon="12.5075172"><ele>328.0</ele><time>2026-04-24T08:17:22.034Z</time></trkpt><trkpt lat="43.1563093" lon="12.5075531"><ele>328.0</ele><time>2026-04-24T08:17:23.028Z</time></trkpt><trkpt lat="43.1564058" lon="12.5075855"><ele>328.0</ele><time>2026-04-24T08:17:24.016Z</time></trkpt><trkpt lat="43.1565076" lon="12.5076198"><ele>328.0</ele><time>2026-04-24T08:17:25.026Z</time></trkpt><trkpt lat="43.1566161" lon="12.5076498"><ele>328.0</ele><time>2026-04-24T08:17:26.129Z</time></trkpt><trkpt lat="43.1568315" lon="12.5077137"><ele>328.79999999999995</ele><time>2026-04-24T08:17:28.035Z</time></trkpt><trkpt lat="43.1569377" lon="12.5077454"><ele>329.6</ele><time>2026-04-24T08:17:29.036Z</time></trkpt><trkpt lat="43.1570512" lon="12.5077703"><ele>330.4</ele><time>2026-04-24T08:17:30.038Z</time></trkpt><trkpt lat="43.1571612" lon="12.5078028"><ele>331.20000000000005</ele><time>2026-04-24T08:17:31.042Z</time></trkpt><trkpt lat="43.1572601" lon="12.5078267"><ele>332.0</ele><time>2026-04-24T08:17:32.043Z</time></trkpt><trkpt lat="43.1573499" lon="12.5078538"><ele>331.83333333333337</ele><time>2026-04-24T08:17:33.032Z</time></trkpt><trkpt lat="43.157432" lon="12.5078806"><ele>331.6666666666667</ele><time>2026-04-24T08:17:34.04Z</time></trkpt><trkpt lat="43.1575066" lon="12.5078966"><ele>331.5</ele><time>2026-04-24T08:17:35.038Z</time></trkpt><trkpt lat="43.1575755" lon="12.5079162"><ele>331.3333333333333</ele><time>2026-04-24T08:17:36.016Z</time></trkpt><trkpt lat="43.1576494" lon="12.507937"><ele>331.16666666666663</ele><time>2026-04-24T08:17:37.034Z</time></trkpt><trkpt lat="43.1577257" lon="12.5079536"><ele>331.0</ele><time>2026-04-24T08:17:38.023Z</time></trkpt><trkpt lat="43.1577927" lon="12.5079735"><ele>330.8</ele><time>2026-04-24T08:17:39.009Z</time></trkpt><trkpt lat="43.1578974" lon="12.5080611"><ele>330.6</ele><time>2026-04-24T08:17:41.028Z</time></trkpt><trkpt lat="43.1579718" lon="12.5081788"><ele>330.4</ele><time>2026-04-24T08:17:43.046Z</time></trkpt><trkpt lat="43.1579835" lon="12.5082788"><ele>330.2</ele><time>2026-04-24T08:17:44.026Z</time></trkpt><trkpt lat="43.1579831" lon="12.5083905"><ele>330.0</ele><time>2026-04-24T08:17:45.033Z</time></trkpt><trkpt lat="43.1579844" lon="12.5085102"><ele>330.0</ele><time>2026-04-24T08:17:46.013Z</time></trkpt><trkpt lat="43.157997" lon="12.508634"><ele>330.0</ele><time>2026-04-24T08:17:47.01Z</time></trkpt><trkpt lat="43.1580091" lon="12.5087855"><ele>330.0</ele><time>2026-04-24T08:17:48.024Z</time></trkpt><trkpt lat="43.1580241" lon="12.5089529"><ele>330.0</ele><time>2026-04-24T08:17:49.032Z</time></trkpt><trkpt lat="43.1580406" lon="12.5091168"><ele>330.0</ele><time>2026-04-24T08:17:50.029Z</time></trkpt><trkpt lat="43.1580625" lon="12.5092776"><ele>328.5</ele><time>2026-04-24T08:17:51.032Z</time></trkpt><trkpt lat="43.1580839" lon="12.5094375"><ele>327.0</ele><time>2026-04-24T08:17:52.026Z</time></trkpt><trkpt lat="43.1580975" lon="12.5096075"><ele>325.5</ele><time>2026-04-24T08:17:53.042Z</time></trkpt><trkpt lat="43.1581051" lon="12.5097733"><ele>324.0</ele><time>2026-04-24T08:17:54.012Z</time></trkpt><trkpt lat="43.1581023" lon="12.5099346"><ele>323.0</ele><time>2026-04-24T08:17:55.032Z</time></trkpt><trkpt lat="43.1580797" lon="12.5100921"><ele>322.0</ele><time>2026-04-24T08:17:56.032Z</time></trkpt><trkpt lat="43.1580294" lon="12.5102394"><ele>321.0</ele><time>2026-04-24T08:17:57.027Z</time></trkpt><trkpt lat="43.1579544" lon="12.510384"><ele>320.0</ele><time>2026-04-24T08:17:58.007Z</time></trkpt><trkpt lat="43.1578628" lon="12.5105265"><ele>317.25</ele><time>2026-04-24T08:17:59.037Z</time></trkpt><trkpt lat="43.1577599" lon="12.5106521"><ele>314.5</ele><time>2026-04-24T08:18:00.024Z</time></trkpt><trkpt lat="43.1576455" lon="12.5107679"><ele>311.75</ele><time>2026-04-24T08:18:01.016Z</time></trkpt><trkpt lat="43.1575282" lon="12.5108747"><ele>309.0</ele><time>2026-04-24T08:18:02.016Z</time></trkpt><trkpt lat="43.1574152" lon="12.510968"><ele>307.75</ele><time>2026-04-24T08:18:03.047Z</time></trkpt><trkpt lat="43.1573053" lon="12.5110617"><ele>306.5</ele><time>2026-04-24T08:18:04.042Z</time></trkpt><trkpt lat="43.1572017" lon="12.5111562"><ele>305.25</ele><time>2026-04-24T08:18:05.042Z</time></trkpt><trkpt lat="43.1571186" lon="12.511266"><ele>304.0</ele><time>2026-04-24T08:18:06.023Z</time></trkpt><trkpt lat="43.1570569" lon="12.5114147"><ele>301.5</ele><time>2026-04-24T08:18:07.036Z</time></trkpt><trkpt lat="43.1570082" lon="12.5115721"><ele>299.0</ele><time>2026-04-24T08:18:08.047Z</time></trkpt><trkpt lat="43.1569554" lon="12.5117448"><ele>296.5</ele><time>2026-04-24T08:18:09.017Z</time></trkpt><trkpt lat="43.156897" lon="12.5119026"><ele>294.0</ele><time>2026-04-24T08:18:10.031Z</time></trkpt><trkpt lat="43.1568214" lon="12.5120531"><ele>293.25</ele><time>2026-04-24T08:18:11.033Z</time></trkpt><trkpt lat="43.1567337" lon="12.5121948"><ele>292.5</ele><time>2026-04-24T08:18:12.009Z</time></trkpt><trkpt lat="43.1566475" lon="12.5123302"><ele>291.75</ele><time>2026-04-24T08:18:13.037Z</time></trkpt><trkpt lat="43.1565508" lon="12.5124551"><ele>291.0</ele><time>2026-04-24T08:18:14.028Z</time></trkpt><trkpt lat="43.1564542" lon="12.512575"><ele>288.5</ele><time>2026-04-24T08:18:15.033Z</time></trkpt><trkpt lat="43.1563545" lon="12.5126854"><ele>286.0</ele><time>2026-04-24T08:18:16.031Z</time></trkpt><trkpt lat="43.1562554" lon="12.5127846"><ele>283.5</ele><time>2026-04-24T08:18:17.037Z</time></trkpt><trkpt lat="43.1561569" lon="12.5128521"><ele>281.0</ele><time>2026-04-24T08:18:18.036Z</time></trkpt><trkpt lat="43.1560606" lon="12.5128894"><ele>280.2</ele><time>2026-04-24T08:18:19.033Z</time></trkpt><trkpt lat="43.1559629" lon="12.5129133"><ele>279.40000000000003</ele><time>2026-04-24T08:18:20.034Z</time></trkpt><trkpt lat="43.1558731" lon="12.5129599"><ele>278.6</ele><time>2026-04-24T08:18:21.044Z</time></trkpt><trkpt lat="43.1558069" lon="12.5130489"><ele>277.8</ele><time>2026-04-24T08:18:22.02Z</time></trkpt><trkpt lat="43.1557636" lon="12.5131654"><ele>277.0</ele><time>2026-04-24T08:18:23.03Z</time></trkpt><trkpt lat="43.155752" lon="12.5132913"><ele>277.0</ele><time>2026-04-24T08:18:24.034Z</time></trkpt><trkpt lat="43.1557666" lon="12.5134087"><ele>277.0</ele><time>2026-04-24T08:18:25.035Z</time></trkpt><trkpt lat="43.1558013" lon="12.5135103"><ele>277.0</ele><time>2026-04-24T08:18:26.044Z</time></trkpt><trkpt lat="43.1558557" lon="12.5135759"><ele>277.0</ele><time>2026-04-24T08:18:27.036Z</time></trkpt><trkpt lat="43.1559318" lon="12.5136131"><ele>277.0</ele><time>2026-04-24T08:18:28.036Z</time></trkpt><trkpt lat="43.1560035" lon="12.5136252"><ele>277.0</ele><time>2026-04-24T08:18:29.037Z</time></trkpt><trkpt lat="43.1560918" lon="12.5136138"><ele>277.0</ele><time>2026-04-24T08:18:31.038Z</time></trkpt><trkpt lat="43.1561548" lon="12.5136245"><ele>277.0</ele><time>2026-04-24T08:18:33.033Z</time></trkpt><trkpt lat="43.1562429" lon="12.5136597"><ele>277.0</ele><time>2026-04-24T08:18:35.041Z</time></trkpt><trkpt lat="43.1563702" lon="12.5137042"><ele>277.0</ele><time>2026-04-24T08:18:37.03Z</time></trkpt><trkpt lat="43.1564556" lon="12.5137243"><ele>277.0</ele><time>2026-04-24T08:18:38.028Z</time></trkpt><trkpt lat="43.1565486" lon="12.5137488"><ele>276.75</ele><time>2026-04-24T08:18:39.033Z</time></trkpt><trkpt lat="43.1566459" lon="12.5138"><ele>276.5</ele><time>2026-04-24T08:18:40.034Z</time></trkpt><trkpt lat="43.1567407" lon="12.5138632"><ele>276.25</ele><time>2026-04-24T08:18:41.036Z</time></trkpt><trkpt lat="43.1568438" lon="12.5139524"><ele>276.0</ele><time>2026-04-24T08:18:42.022Z</time></trkpt><trkpt lat="43.1569529" lon="12.5140509"><ele>276.0</ele><time>2026-04-24T08:18:43.039Z</time></trkpt><trkpt lat="43.1570609" lon="12.51416"><ele>276.0</ele><time>2026-04-24T08:18:44.012Z</time></trkpt><trkpt lat="43.1571756" lon="12.5142752"><ele>276.0</ele><time>2026-04-24T08:18:45.016Z</time></trkpt><trkpt lat="43.1572924" lon="12.5143829"><ele>276.0</ele><time>2026-04-24T08:18:46.037Z</time></trkpt><trkpt lat="43.1574163" lon="12.5144826"><ele>276.5</ele><time>2026-04-24T08:18:47.029Z</time></trkpt><trkpt lat="43.1575483" lon="12.5145818"><ele>277.0</ele><time>2026-04-24T08:18:48.017Z</time></trkpt><trkpt lat="43.157677" lon="12.5146854"><ele>277.5</ele><time>2026-04-24T08:18:49.031Z</time></trkpt><trkpt lat="43.157807" lon="12.5147854"><ele>278.0</ele><time>2026-04-24T08:18:50.024Z</time></trkpt><trkpt lat="43.1579359" lon="12.51488"><ele>278.0</ele><time>2026-04-24T08:18:51.033Z</time></trkpt><trkpt lat="43.1580679" lon="12.5149811"><ele>278.0</ele><time>2026-04-24T08:18:52.017Z</time></trkpt><trkpt lat="43.1581985" lon="12.5150869"><ele>278.0</ele><time>2026-04-24T08:18:53.023Z</time></trkpt><trkpt lat="43.1583284" lon="12.5151929"><ele>278.0</ele><time>2026-04-24T08:18:54.015Z</time></trkpt><trkpt lat="43.1584606" lon="12.5153017"><ele>278.0</ele><time>2026-04-24T08:18:55.032Z</time></trkpt><trkpt lat="43.1585973" lon="12.515407"><ele>278.0</ele><time>2026-04-24T08:18:56.03Z</time></trkpt><trkpt lat="43.1587312" lon="12.5155133"><ele>278.0</ele><time>2026-04-24T08:18:57.026Z</time></trkpt><trkpt lat="43.158864" lon="12.5156264"><ele>278.0</ele><time>2026-04-24T08:18:58.013Z</time></trkpt><trkpt lat="43.1590001" lon="12.5157359"><ele>278.0</ele><time>2026-04-24T08:18:59.014Z</time></trkpt><trkpt lat="43.1591403" lon="12.5158456"><ele>279.6666666666667</ele><time>2026-04-24T08:19:00.034Z</time></trkpt><trkpt lat="43.1592806" lon="12.5159566"><ele>281.3333333333333</ele><time>2026-04-24T08:19:01.041Z</time></trkpt><trkpt lat="43.1594186" lon="12.5160656"><ele>283.0</ele><time>2026-04-24T08:19:02.026Z</time></trkpt><trkpt lat="43.1595523" lon="12.5161694"><ele>283.3333333333333</ele><time>2026-04-24T08:19:03.012Z</time></trkpt><trkpt lat="43.1596838" lon="12.5162785"><ele>283.6666666666667</ele><time>2026-04-24T08:19:04.021Z</time></trkpt><trkpt lat="43.1598141" lon="12.5163877"><ele>284.0</ele><time>2026-04-24T08:19:05.036Z</time></trkpt><trkpt lat="43.1599481" lon="12.5165029"><ele>284.0</ele><time>2026-04-24T08:19:06.019Z</time></trkpt><trkpt lat="43.1600862" lon="12.5166196"><ele>284.0</ele><time>2026-04-24T08:19:07.033Z</time></trkpt><trkpt lat="43.1602254" lon="12.5167355"><ele>284.0</ele><time>2026-04-24T08:19:08.021Z</time></trkpt><trkpt lat="43.1603684" lon="12.5168487"><ele>284.0</ele><time>2026-04-24T08:19:09.021Z</time></trkpt><trkpt lat="43.1605149" lon="12.5169651"><ele>284.0</ele><time>2026-04-24T08:19:10.03Z</time></trkpt><trkpt lat="43.1606585" lon="12.5170813"><ele>284.0</ele><time>2026-04-24T08:19:11.025Z</time></trkpt><trkpt lat="43.1607998" lon="12.5171937"><ele>284.75</ele><time>2026-04-24T08:19:12.029Z</time></trkpt><trkpt lat="43.1609322" lon="12.5172983"><ele>285.5</ele><time>2026-04-24T08:19:13.034Z</time></trkpt><trkpt lat="43.1610566" lon="12.5173881"><ele>286.25</ele><time>2026-04-24T08:19:14.047Z</time></trkpt><trkpt lat="43.1611689" lon="12.5174702"><ele>287.0</ele><time>2026-04-24T08:19:15.027Z</time></trkpt><trkpt lat="43.1612769" lon="12.5175542"><ele>287.0</ele><time>2026-04-24T08:19:16.042Z</time></trkpt><trkpt lat="43.1613871" lon="12.5176407"><ele>287.0</ele><time>2026-04-24T08:19:17.038Z</time></trkpt><trkpt lat="43.1614981" lon="12.5177235"><ele>287.0</ele><time>2026-04-24T08:19:18.008Z</time></trkpt><trkpt lat="43.1616204" lon="12.5178179"><ele>287.0</ele><time>2026-04-24T08:19:19.035Z</time></trkpt><trkpt lat="43.1617545" lon="12.5179016"><ele>288.0</ele><time>2026-04-24T08:19:20.02Z</time></trkpt><trkpt lat="43.1618972" lon="12.5179753"><ele>289.0</ele><time>2026-04-24T08:19:21.025Z</time></trkpt><trkpt lat="43.1620483" lon="12.5180368"><ele>290.0</ele><time>2026-04-24T08:19:22.02Z</time></trkpt><trkpt lat="43.1622116" lon="12.5180858"><ele>291.33333333333337</ele><time>2026-04-24T08:19:23.022Z</time></trkpt><trkpt lat="43.162372" lon="12.5181066"><ele>292.6666666666667</ele><time>2026-04-24T08:19:24.029Z</time></trkpt><trkpt lat="43.1625369" lon="12.5181196"><ele>294.0</ele><time>2026-04-24T08:19:25.038Z</time></trkpt><trkpt lat="43.1626961" lon="12.518144"><ele>294.0</ele><time>2026-04-24T08:19:26.024Z</time></trkpt><trkpt lat="43.1628603" lon="12.5181665"><ele>294.0</ele><time>2026-04-24T08:19:27.028Z</time></trkpt><trkpt lat="43.1630319" lon="12.5181997"><ele>294.0</ele><time>2026-04-24T08:19:28.03Z</time></trkpt><trkpt lat="43.1632049" lon="12.5182368"><ele>294.3333333333333</ele><time>2026-04-24T08:19:29.02Z</time></trkpt><trkpt lat="43.1633881" lon="12.5182688"><ele>294.66666666666663</ele><time>2026-04-24T08:19:30.026Z</time></trkpt><trkpt lat="43.163569" lon="12.5182969"><ele>295.0</ele><time>2026-04-24T08:19:31.03Z</time></trkpt><trkpt lat="43.1637531" lon="12.5183285"><ele>295.0</ele><time>2026-04-24T08:19:32.026Z</time></trkpt><trkpt lat="43.1639413" lon="12.5183622"><ele>295.0</ele><time>2026-04-24T08:19:33.015Z</time></trkpt><trkpt lat="43.1641296" lon="12.5183995"><ele>295.0</ele><time>2026-04-24T08:19:34.026Z</time></trkpt><trkpt lat="43.1643181" lon="12.5184332"><ele>296.0</ele><time>2026-04-24T08:19:35.015Z</time></trkpt><trkpt lat="43.1645118" lon="12.5184653"><ele>297.0</ele><time>2026-04-24T08:19:36.032Z</time></trkpt><trkpt lat="43.1646878" lon="12.5184937"><ele>298.0</ele><time>2026-04-24T08:19:37.036Z</time></trkpt><trkpt lat="43.1648493" lon="12.5185272"><ele>298.4</ele><time>2026-04-24T08:19:38.011Z</time></trkpt><trkpt lat="43.1649819" lon="12.518558"><ele>298.8</ele><time>2026-04-24T08:19:39.027Z</time></trkpt><trkpt lat="43.165105" lon="12.5185798"><ele>299.2</ele><time>2026-04-24T08:19:40.034Z</time></trkpt><trkpt lat="43.1652094" lon="12.5185923"><ele>299.6</ele><time>2026-04-24T08:19:41.031Z</time></trkpt><trkpt lat="43.1652845" lon="12.51861"><ele>300.0</ele><time>2026-04-24T08:19:42.035Z</time></trkpt><trkpt lat="43.1653516" lon="12.5186197"><ele>300.0</ele><time>2026-04-24T08:19:43.043Z</time></trkpt><trkpt lat="43.1654183" lon="12.5186545"><ele>300.0</ele><time>2026-04-24T08:19:45.024Z</time></trkpt><trkpt lat="43.1654616" lon="12.5187559"><ele>300.0</ele><time>2026-04-24T08:19:48.012Z</time></trkpt><trkpt lat="43.1655044" lon="12.51884"><ele>300.0</ele><time>2026-04-24T08:19:51.029Z</time></trkpt><trkpt lat="43.1655758" lon="12.5189343"><ele>300.0</ele><time>2026-04-24T08:19:54.012Z</time></trkpt><trkpt lat="43.1656496" lon="12.5190235"><ele>300.0</ele><time>2026-04-24T08:19:56.012Z</time></trkpt><trkpt lat="43.1657236" lon="12.5191195"><ele>300.1666666666667</ele><time>2026-04-24T08:19:58.016Z</time></trkpt><trkpt lat="43.1658083" lon="12.5192193"><ele>300.3333333333333</ele><time>2026-04-24T08:20:00.036Z</time></trkpt><trkpt lat="43.1658496" lon="12.5192904"><ele>300.5</ele><time>2026-04-24T08:20:01.015Z</time></trkpt><trkpt lat="43.1658938" lon="12.5193647"><ele>300.66666666666663</ele><time>2026-04-24T08:20:02.027Z</time></trkpt><trkpt lat="43.1659447" lon="12.5194446"><ele>300.8333333333333</ele><time>2026-04-24T08:20:03.019Z</time></trkpt><trkpt lat="43.1659989" lon="12.5195272"><ele>301.0</ele><time>2026-04-24T08:20:04.032Z</time></trkpt><trkpt lat="43.1660522" lon="12.5196044"><ele>301.16666666666663</ele><time>2026-04-24T08:20:05.027Z</time></trkpt><trkpt lat="43.1661032" lon="12.5196645"><ele>301.3333333333333</ele><time>2026-04-24T08:20:06.03Z</time></trkpt><trkpt lat="43.1661522" lon="12.5197204"><ele>301.5</ele><time>2026-04-24T08:20:07.014Z</time></trkpt><trkpt lat="43.1662329" lon="12.5198306"><ele>301.6666666666667</ele><time>2026-04-24T08:20:09.028Z</time></trkpt><trkpt lat="43.1662873" lon="12.5199013"><ele>301.83333333333337</ele><time>2026-04-24T08:20:11.044Z</time></trkpt><trkpt lat="43.1663228" lon="12.5199769"><ele>302.0</ele><time>2026-04-24T08:20:13.027Z</time></trkpt><trkpt lat="43.16634" lon="12.5200783"><ele>302.0</ele><time>2026-04-24T08:20:15.022Z</time></trkpt><trkpt lat="43.1663701" lon="12.5202591"><ele>302.0</ele><time>2026-04-24T08:20:17.036Z</time></trkpt><trkpt lat="43.1663879" lon="12.5203743"><ele>302.0</ele><time>2026-04-24T08:20:18.034Z</time></trkpt><trkpt lat="43.166406" lon="12.5205074"><ele>302.0</ele><time>2026-04-24T08:20:19.036Z</time></trkpt><trkpt lat="43.1664116" lon="12.5206414"><ele>302.0</ele><time>2026-04-24T08:20:20.011Z</time></trkpt><trkpt lat="43.1664178" lon="12.5207841"><ele>302.0</ele><time>2026-04-24T08:20:21.029Z</time></trkpt><trkpt lat="43.1664228" lon="12.5209297"><ele>302.0</ele><time>2026-04-24T08:20:22.035Z</time></trkpt><trkpt lat="43.1664277" lon="12.5210695"><ele>302.0</ele><time>2026-04-24T08:20:23.028Z</time></trkpt><trkpt lat="43.1664321" lon="12.5211817"><ele>302.0</ele><time>2026-04-24T08:20:24.033Z</time></trkpt><trkpt lat="43.1664309" lon="12.5213023"><ele>302.0</ele><time>2026-04-24T08:20:25.04Z</time></trkpt><trkpt lat="43.16642" lon="12.5214424"><ele>302.2</ele><time>2026-04-24T08:20:26.018Z</time></trkpt><trkpt lat="43.1664142" lon="12.5215901"><ele>302.4</ele><time>2026-04-24T08:20:27.021Z</time></trkpt><trkpt lat="43.1664079" lon="12.5217345"><ele>302.6</ele><time>2026-04-24T08:20:28.021Z</time></trkpt><trkpt lat="43.1664094" lon="12.5218532"><ele>302.8</ele><time>2026-04-24T08:20:29.013Z</time></trkpt><trkpt lat="43.1664097" lon="12.5219712"><ele>303.0</ele><time>2026-04-24T08:20:30.011Z</time></trkpt><trkpt lat="43.1664118" lon="12.5220947"><ele>303.4</ele><time>2026-04-24T08:20:31.032Z</time></trkpt><trkpt lat="43.1664217" lon="12.5222186"><ele>303.8</ele><time>2026-04-24T08:20:32.011Z</time></trkpt><trkpt lat="43.1664472" lon="12.5223457"><ele>304.2</ele><time>2026-04-24T08:20:33.014Z</time></trkpt><trkpt lat="43.1664834" lon="12.5224716"><ele>304.6</ele><time>2026-04-24T08:20:34.011Z</time></trkpt><trkpt lat="43.1665261" lon="12.5226007"><ele>305.0</ele><time>2026-04-24T08:20:35.017Z</time></trkpt><trkpt lat="43.1665748" lon="12.522715"><ele>305.8</ele><time>2026-04-24T08:20:36.026Z</time></trkpt><trkpt lat="43.1666262" lon="12.522828"><ele>306.6</ele><time>2026-04-24T08:20:37.007Z</time></trkpt><trkpt lat="43.1666773" lon="12.5229403"><ele>307.4</ele><time>2026-04-24T08:20:38.014Z</time></trkpt><trkpt lat="43.1667155" lon="12.5230595"><ele>308.2</ele><time>2026-04-24T08:20:39.023Z</time></trkpt><trkpt lat="43.1667522" lon="12.5231954"><ele>309.0</ele><time>2026-04-24T08:20:40.016Z</time></trkpt><trkpt lat="43.1667727" lon="12.5233272"><ele>309.8</ele><time>2026-04-24T08:20:41.024Z</time></trkpt><trkpt lat="43.1667939" lon="12.5234662"><ele>310.59999999999997</ele><time>2026-04-24T08:20:42.016Z</time></trkpt><trkpt lat="43.1668076" lon="12.5235974"><ele>311.4</ele><time>2026-04-24T08:20:43.018Z</time></trkpt><trkpt lat="43.1668168" lon="12.5237217"><ele>312.2</ele><time>2026-04-24T08:20:44.021Z</time></trkpt><trkpt lat="43.1668129" lon="12.5238499"><ele>313.0</ele><time>2026-04-24T08:20:45.018Z</time></trkpt><trkpt lat="43.1668038" lon="12.5239798"><ele>314.0</ele><time>2026-04-24T08:20:46.005Z</time></trkpt><trkpt lat="43.1667942" lon="12.5241093"><ele>315.0</ele><time>2026-04-24T08:20:47.031Z</time></trkpt><trkpt lat="43.1667826" lon="12.5242436"><ele>316.0</ele><time>2026-04-24T08:20:48.05Z</time></trkpt><trkpt lat="43.1667694" lon="12.5243789"><ele>317.0</ele><time>2026-04-24T08:20:49.041Z</time></trkpt><trkpt lat="43.1667518" lon="12.5245165"><ele>318.0</ele><time>2026-04-24T08:20:50.015Z</time></trkpt><trkpt lat="43.1667336" lon="12.5246472"><ele>319.3333333333333</ele><time>2026-04-24T08:20:51.017Z</time></trkpt><trkpt lat="43.1667163" lon="12.5247694"><ele>320.6666666666667</ele><time>2026-04-24T08:20:52.01Z</time></trkpt><trkpt lat="43.1667155" lon="12.5248763"><ele>322.0</ele><time>2026-04-24T08:20:53.012Z</time></trkpt><trkpt lat="43.166751" lon="12.5249832"><ele>323.33333333333337</ele><time>2026-04-24T08:20:54.014Z</time></trkpt><trkpt lat="43.1667927" lon="12.5250852"><ele>324.6666666666667</ele><time>2026-04-24T08:20:55.026Z</time></trkpt><trkpt lat="43.1668489" lon="12.5251815"><ele>326.0</ele><time>2026-04-24T08:20:56.025Z</time></trkpt><trkpt lat="43.1668992" lon="12.525289"><ele>326.0</ele><time>2026-04-24T08:20:57.021Z</time></trkpt><trkpt lat="43.1669534" lon="12.5253755"><ele>326.0</ele><time>2026-04-24T08:20:58.029Z</time></trkpt><trkpt lat="43.1669934" lon="12.5254619"><ele>326.0</ele><time>2026-04-24T08:20:59.018Z</time></trkpt><trkpt lat="43.1670389" lon="12.5255669"><ele>326.0</ele><time>2026-04-24T08:21:01.03Z</time></trkpt><trkpt lat="43.1670651" lon="12.525647"><ele>326.0</ele><time>2026-04-24T08:21:03.037Z</time></trkpt><trkpt lat="43.1671146" lon="12.5257159"><ele>326.0</ele><time>2026-04-24T08:21:05.011Z</time></trkpt><trkpt lat="43.1671934" lon="12.5258195"><ele>326.4</ele><time>2026-04-24T08:21:07.01Z</time></trkpt><trkpt lat="43.1672784" lon="12.5259504"><ele>326.8</ele><time>2026-04-24T08:21:09.022Z</time></trkpt><trkpt lat="43.1673405" lon="12.5260414"><ele>327.2</ele><time>2026-04-24T08:21:10.023Z</time></trkpt><trkpt lat="43.1674078" lon="12.5261341"><ele>327.59999999999997</ele><time>2026-04-24T08:21:11.023Z</time></trkpt><trkpt lat="43.1674743" lon="12.5262148"><ele>328.0</ele><time>2026-04-24T08:21:12.034Z</time></trkpt><trkpt lat="43.1675428" lon="12.526296"><ele>329.2</ele><time>2026-04-24T08:21:13.04Z</time></trkpt><trkpt lat="43.1676134" lon="12.5263781"><ele>330.4</ele><time>2026-04-24T08:21:14.04Z</time></trkpt><trkpt lat="43.1676839" lon="12.526462"><ele>331.59999999999997</ele><time>2026-04-24T08:21:15.01Z</time></trkpt><trkpt lat="43.1677497" lon="12.5265409"><ele>332.79999999999995</ele><time>2026-04-24T08:21:16.039Z</time></trkpt><trkpt lat="43.1678144" lon="12.5266237"><ele>334.0</ele><time>2026-04-24T08:21:17.03Z</time></trkpt><trkpt lat="43.1678834" lon="12.5267017"><ele>334.0</ele><time>2026-04-24T08:21:18.006Z</time></trkpt><trkpt lat="43.1679533" lon="12.5267936"><ele>334.0</ele><time>2026-04-24T08:21:19.033Z</time></trkpt><trkpt lat="43.1680173" lon="12.5268836"><ele>334.0</ele><time>2026-04-24T08:21:20.023Z</time></trkpt><trkpt lat="43.1680798" lon="12.526957"><ele>334.0</ele><time>2026-04-24T08:21:21.031Z</time></trkpt><trkpt lat="43.1681415" lon="12.5270251"><ele>334.0</ele><time>2026-04-24T08:21:22.029Z</time></trkpt><trkpt lat="43.1682082" lon="12.5270955"><ele>334.0</ele><time>2026-04-24T08:21:23.029Z</time></trkpt><trkpt lat="43.1682709" lon="12.5271675"><ele>332.85714285714283</ele><time>2026-04-24T08:21:24.039Z</time></trkpt><trkpt lat="43.1683253" lon="12.5272286"><ele>331.7142857142857</ele><time>2026-04-24T08:21:25.03Z</time></trkpt><trkpt lat="43.1683848" lon="12.5272937"><ele>330.57142857142856</ele><time>2026-04-24T08:21:26.023Z</time></trkpt><trkpt lat="43.1684398" lon="12.5273547"><ele>329.42857142857144</ele><time>2026-04-24T08:21:27.026Z</time></trkpt><trkpt lat="43.1684943" lon="12.5274251"><ele>328.2857142857143</ele><time>2026-04-24T08:21:28.03Z</time></trkpt><trkpt lat="43.1685414" lon="12.5275015"><ele>327.14285714285717</ele><time>2026-04-24T08:21:29.028Z</time></trkpt><trkpt lat="43.1685671" lon="12.5275832"><ele>326.0</ele><time>2026-04-24T08:21:30.018Z</time></trkpt><trkpt lat="43.1685841" lon="12.5276774"><ele>326.0</ele><time>2026-04-24T08:21:31.002Z</time></trkpt><trkpt lat="43.1685955" lon="12.5277757"><ele>326.0</ele><time>2026-04-24T08:21:32.018Z</time></trkpt><trkpt lat="43.1685871" lon="12.52789"><ele>326.0</ele><time>2026-04-24T08:21:33.033Z</time></trkpt><trkpt lat="43.1685619" lon="12.5280155"><ele>326.0</ele><time>2026-04-24T08:21:34.03Z</time></trkpt><trkpt lat="43.1685344" lon="12.5281329"><ele>326.0</ele><time>2026-04-24T08:21:35.04Z</time></trkpt><trkpt lat="43.1685184" lon="12.5282344"><ele>326.0</ele><time>2026-04-24T08:21:36.014Z</time></trkpt><trkpt lat="43.16855" lon="12.5283907"><ele>327.14285714285717</ele><time>2026-04-24T08:21:38.026Z</time></trkpt><trkpt lat="43.1685909" lon="12.5284565"><ele>328.2857142857143</ele><time>2026-04-24T08:21:39.038Z</time></trkpt><trkpt lat="43.1686546" lon="12.5284821"><ele>329.42857142857144</ele><time>2026-04-24T08:21:40.025Z</time></trkpt><trkpt lat="43.1687238" lon="12.5284871"><ele>330.57142857142856</ele><time>2026-04-24T08:21:41.027Z</time></trkpt><trkpt lat="43.1687878" lon="12.5284656"><ele>331.7142857142857</ele><time>2026-04-24T08:21:42.029Z</time></trkpt><trkpt lat="43.1688577" lon="12.5284276"><ele>332.85714285714283</ele><time>2026-04-24T08:21:43Z</time></trkpt><trkpt lat="43.1689239" lon="12.528366"><ele>334.0</ele><time>2026-04-24T08:21:44.008Z</time></trkpt><trkpt lat="43.1689936" lon="12.5283031"><ele>333.66666666666663</ele><time>2026-04-24T08:21:45.036Z</time></trkpt><trkpt lat="43.1690555" lon="12.5282467"><ele>333.3333333333333</ele><time>2026-04-24T08:21:46.037Z</time></trkpt><trkpt lat="43.1691209" lon="12.5281948"><ele>333.0</ele><time>2026-04-24T08:21:47.037Z</time></trkpt><trkpt lat="43.1691897" lon="12.5281592"><ele>332.6666666666667</ele><time>2026-04-24T08:21:48.006Z</time></trkpt><trkpt lat="43.1693054" lon="12.5281473"><ele>332.33333333333337</ele><time>2026-04-24T08:21:50.017Z</time></trkpt><trkpt lat="43.1693586" lon="12.5282177"><ele>332.0</ele><time>2026-04-24T08:21:53.028Z</time></trkpt><trkpt lat="43.1694252" lon="12.5282479"><ele>332.0</ele><time>2026-04-24T08:21:57.01Z</time></trkpt><trkpt lat="43.1693769" lon="12.5281653"><ele>332.0</ele><time>2026-04-24T08:22:00.004Z</time></trkpt><trkpt lat="43.1692906" lon="12.528153"><ele>332.0</ele><time>2026-04-24T08:22:02.013Z</time></trkpt><trkpt lat="43.1691924" lon="12.5281717"><ele>332.0</ele><time>2026-04-24T08:22:04.036Z</time></trkpt><trkpt lat="43.1690758" lon="12.5282414"><ele>332.0</ele><time>2026-04-24T08:22:06.017Z</time></trkpt><trkpt lat="43.1690026" lon="12.5282909"><ele>332.33333333333337</ele><time>2026-04-24T08:22:07.005Z</time></trkpt><trkpt lat="43.168921" lon="12.5283505"><ele>332.6666666666667</ele><time>2026-04-24T08:22:08.01Z</time></trkpt><trkpt lat="43.1688416" lon="12.5284022"><ele>333.0</ele><time>2026-04-24T08:22:09.024Z</time></trkpt><trkpt lat="43.1687583" lon="12.5284326"><ele>333.3333333333333</ele><time>2026-04-24T08:22:10.035Z</time></trkpt><trkpt lat="43.1686839" lon="12.5284582"><ele>333.66666666666663</ele><time>2026-04-24T08:22:11.036Z</time></trkpt><trkpt lat="43.1686076" lon="12.5284412"><ele>334.0</ele><time>2026-04-24T08:22:12.008Z</time></trkpt><trkpt lat="43.168554" lon="12.5283948"><ele>334.0</ele><time>2026-04-24T08:22:13.034Z</time></trkpt><trkpt lat="43.1685179" lon="12.5283174"><ele>334.0</ele><time>2026-04-24T08:22:14.029Z</time></trkpt><trkpt lat="43.1685115" lon="12.5282195"><ele>334.0</ele><time>2026-04-24T08:22:15.019Z</time></trkpt><trkpt lat="43.1685318" lon="12.5281081"><ele>334.0</ele><time>2026-04-24T08:22:16.012Z</time></trkpt><trkpt lat="43.1685608" lon="12.5279923"><ele>334.0</ele><time>2026-04-24T08:22:17.028Z</time></trkpt><trkpt lat="43.1685859" lon="12.5278732"><ele>334.0</ele><time>2026-04-24T08:22:18.015Z</time></trkpt><trkpt lat="43.1685974" lon="12.5277543"><ele>332.66666666666663</ele><time>2026-04-24T08:22:19.031Z</time></trkpt><trkpt lat="43.1685993" lon="12.5276485"><ele>331.3333333333333</ele><time>2026-04-24T08:22:20.013Z</time></trkpt><trkpt lat="43.1685894" lon="12.5275559"><ele>330.0</ele><time>2026-04-24T08:22:21.021Z</time></trkpt><trkpt lat="43.1685635" lon="12.5274766"><ele>328.6666666666667</ele><time>2026-04-24T08:22:22.034Z</time></trkpt><trkpt lat="43.1685106" lon="12.5274077"><ele>327.33333333333337</ele><time>2026-04-24T08:22:23.028Z</time></trkpt><trkpt lat="43.1684356" lon="12.527328"><ele>326.0</ele><time>2026-04-24T08:22:24.004Z</time></trkpt><trkpt lat="43.1683555" lon="12.5272342"><ele>326.0</ele><time>2026-04-24T08:22:25.013Z</time></trkpt><trkpt lat="43.168268" lon="12.5271479"><ele>326.0</ele><time>2026-04-24T08:22:26.012Z</time></trkpt><trkpt lat="43.168176" lon="12.5270437"><ele>326.0</ele><time>2026-04-24T08:22:27.014Z</time></trkpt><trkpt lat="43.1680803" lon="12.5269241"><ele>326.0</ele><time>2026-04-24T08:22:28.016Z</time></trkpt><trkpt lat="43.1679887" lon="12.5268141"><ele>327.6</ele><time>2026-04-24T08:22:29.027Z</time></trkpt><trkpt lat="43.1679122" lon="12.5267254"><ele>329.20000000000005</ele><time>2026-04-24T08:22:30.008Z</time></trkpt><trkpt lat="43.1678354" lon="12.5266291"><ele>330.79999999999995</ele><time>2026-04-24T08:22:31.03Z</time></trkpt><trkpt lat="43.1677536" lon="12.52653"><ele>332.4</ele><time>2026-04-24T08:22:32.018Z</time></trkpt><trkpt lat="43.167675" lon="12.5264269"><ele>334.0</ele><time>2026-04-24T08:22:33.019Z</time></trkpt><trkpt lat="43.1676021" lon="12.5263339"><ele>334.0</ele><time>2026-04-24T08:22:34.02Z</time></trkpt><trkpt lat="43.1675317" lon="12.5262494"><ele>334.0</ele><time>2026-04-24T08:22:35.023Z</time></trkpt><trkpt lat="43.1674569" lon="12.5261726"><ele>334.0</ele><time>2026-04-24T08:22:36.018Z</time></trkpt><trkpt lat="43.167379" lon="12.5260982"><ele>334.0</ele><time>2026-04-24T08:22:37.037Z</time></trkpt><trkpt lat="43.1673049" lon="12.5260107"><ele>334.0</ele><time>2026-04-24T08:22:38.035Z</time></trkpt><trkpt lat="43.1672449" lon="12.525918"><ele>335.2</ele><time>2026-04-24T08:22:39.007Z</time></trkpt><trkpt lat="43.1671987" lon="12.5258392"><ele>336.4</ele><time>2026-04-24T08:22:40.013Z</time></trkpt><trkpt lat="43.167122" lon="12.525729"><ele>337.6</ele><time>2026-04-24T08:22:42.032Z</time></trkpt><trkpt lat="43.1670481" lon="12.5257065"><ele>338.8</ele><time>2026-04-24T08:22:44.023Z</time></trkpt><trkpt lat="43.1669777" lon="12.5257371"><ele>340.0</ele><time>2026-04-24T08:22:46.014Z</time></trkpt><trkpt lat="43.1668503" lon="12.5257506"><ele>340.0</ele><time>2026-04-24T08:22:48.012Z</time></trkpt><trkpt lat="43.1667763" lon="12.5257721"><ele>340.0</ele><time>2026-04-24T08:22:49.036Z</time></trkpt><trkpt lat="43.1667035" lon="12.5258031"><ele>340.0</ele><time>2026-04-24T08:22:50.038Z</time></trkpt><trkpt lat="43.1666413" lon="12.5258388"><ele>340.0</ele><time>2026-04-24T08:22:51.003Z</time></trkpt><trkpt lat="43.1665855" lon="12.5259024"><ele>340.0</ele><time>2026-04-24T08:22:59.028Z</time></trkpt><trkpt lat="43.1665544" lon="12.5260345"><ele>340.0</ele><time>2026-04-24T08:23:01.043Z</time></trkpt><trkpt lat="43.1665082" lon="12.5261935"><ele>341.3333333333333</ele><time>2026-04-24T08:23:03.028Z</time></trkpt><trkpt lat="43.1664515" lon="12.5263417"><ele>342.66666666666663</ele><time>2026-04-24T08:23:05.043Z</time></trkpt><trkpt lat="43.1663711" lon="12.5264712"><ele>344.0</ele><time>2026-04-24T08:23:07.024Z</time></trkpt><trkpt lat="43.1663262" lon="12.526539"><ele>345.3333333333333</ele><time>2026-04-24T08:23:08.034Z</time></trkpt><trkpt lat="43.1662833" lon="12.5266102"><ele>346.6666666666667</ele><time>2026-04-24T08:23:09.009Z</time></trkpt><trkpt lat="43.1662378" lon="12.5266763"><ele>348.0</ele><time>2026-04-24T08:23:10.024Z</time></trkpt><trkpt lat="43.1661949" lon="12.5267412"><ele>348.0</ele><time>2026-04-24T08:23:11.028Z</time></trkpt><trkpt lat="43.166158" lon="12.5268154"><ele>348.0</ele><time>2026-04-24T08:23:12.009Z</time></trkpt><trkpt lat="43.1661304" lon="12.5269022"><ele>348.0</ele><time>2026-04-24T08:23:13.026Z</time></trkpt><trkpt lat="43.1661019" lon="12.5269975"><ele>348.0</ele><time>2026-04-24T08:23:14.02Z</time></trkpt><trkpt lat="43.1660838" lon="12.5271095"><ele>348.0</ele><time>2026-04-24T08:23:15.031Z</time></trkpt><trkpt lat="43.1660762" lon="12.5272131"><ele>348.0</ele><time>2026-04-24T08:23:16.03Z</time></trkpt><trkpt lat="43.1660758" lon="12.5273026"><ele>348.0</ele><time>2026-04-24T08:23:17.025Z</time></trkpt><trkpt lat="43.1661226" lon="12.5273823"><ele>349.5</ele><time>2026-04-24T08:23:19.019Z</time></trkpt><trkpt lat="43.1662325" lon="12.5274307"><ele>351.0</ele><time>2026-04-24T08:23:21.033Z</time></trkpt><trkpt lat="43.1662936" lon="12.527454"><ele>352.5</ele><time>2026-04-24T08:23:22.022Z</time></trkpt><trkpt lat="43.1663592" lon="12.5274755"><ele>354.0</ele><time>2026-04-24T08:23:23.037Z</time></trkpt><trkpt lat="43.1664317" lon="12.5275051"><ele>355.5</ele><time>2026-04-24T08:23:24.011Z</time></trkpt><trkpt lat="43.1664923" lon="12.5275413"><ele>357.0</ele><time>2026-04-24T08:23:25.03Z</time></trkpt><trkpt lat="43.1665328" lon="12.5276096"><ele>357.0</ele><time>2026-04-24T08:23:26.033Z</time></trkpt><trkpt lat="43.1665529" lon="12.5276942"><ele>357.0</ele><time>2026-04-24T08:23:27.044Z</time></trkpt><trkpt lat="43.1665021" lon="12.5278668"><ele>357.0</ele><time>2026-04-24T08:23:29.021Z</time></trkpt><trkpt lat="43.1664577" lon="12.527957"><ele>357.0</ele><time>2026-04-24T08:23:30.011Z</time></trkpt><trkpt lat="43.1664074" lon="12.5280537"><ele>357.0</ele><time>2026-04-24T08:23:31.04Z</time></trkpt><trkpt lat="43.1663624" lon="12.528149"><ele>357.0</ele><time>2026-04-24T08:23:32.028Z</time></trkpt><trkpt lat="43.16632" lon="12.5282419"><ele>359.5</ele><time>2026-04-24T08:23:33.01Z</time></trkpt><trkpt lat="43.1662776" lon="12.5283313"><ele>362.0</ele><time>2026-04-24T08:23:34.017Z</time></trkpt><trkpt lat="43.1662356" lon="12.5284104"><ele>364.5</ele><time>2026-04-24T08:23:35.037Z</time></trkpt><trkpt lat="43.1661884" lon="12.5284806"><ele>367.0</ele><time>2026-04-24T08:23:36.026Z</time></trkpt><trkpt lat="43.1661421" lon="12.5286062"><ele>369.5</ele><time>2026-04-24T08:23:38.025Z</time></trkpt><trkpt lat="43.1661988" lon="12.5287344"><ele>372.0</ele><time>2026-04-24T08:23:40.029Z</time></trkpt><trkpt lat="43.1662494" lon="12.5287908"><ele>374.1666666666667</ele><time>2026-04-24T08:23:41.026Z</time></trkpt><trkpt lat="43.1663005" lon="12.5288574"><ele>376.33333333333337</ele><time>2026-04-24T08:23:42.012Z</time></trkpt><trkpt lat="43.1663387" lon="12.5289368"><ele>378.5</ele><time>2026-04-24T08:23:43.035Z</time></trkpt><trkpt lat="43.1663661" lon="12.5290259"><ele>380.6666666666667</ele><time>2026-04-24T08:23:44.031Z</time></trkpt><trkpt lat="43.1663819" lon="12.5291258"><ele>382.83333333333337</ele><time>2026-04-24T08:23:45.002Z</time></trkpt><trkpt lat="43.166383" lon="12.5292361"><ele>385.0</ele><time>2026-04-24T08:23:46.021Z</time></trkpt><trkpt lat="43.1663696" lon="12.5293511"><ele>385.00000000000006</ele><time>2026-04-24T08:23:47.016Z</time></trkpt><trkpt lat="43.1663517" lon="12.5294741"><ele>385.0</ele><time>2026-04-24T08:23:48.017Z</time></trkpt><trkpt lat="43.1663394" lon="12.529594"><ele>385.0</ele><time>2026-04-24T08:23:49.046Z</time></trkpt><trkpt lat="43.1663224" lon="12.5297216"><ele>385.0</ele><time>2026-04-24T08:23:50.021Z</time></trkpt><trkpt lat="43.1663122" lon="12.529844"><ele>385.00000000000006</ele><time>2026-04-24T08:23:51.033Z</time></trkpt><trkpt lat="43.1663042" lon="12.5299503"><ele>385.0</ele><time>2026-04-24T08:23:52.026Z</time></trkpt><trkpt lat="43.1662963" lon="12.5300372"><ele>386.50000000000006</ele><time>2026-04-24T08:23:53.033Z</time></trkpt><trkpt lat="43.1662833" lon="12.5301995"><ele>388.0</ele><time>2026-04-24T08:23:55.027Z</time></trkpt><trkpt lat="43.1662792" lon="12.5302861"><ele>389.5</ele><time>2026-04-24T08:23:56.007Z</time></trkpt><trkpt lat="43.1662826" lon="12.5303984"><ele>391.0</ele><time>2026-04-24T08:23:57.04Z</time></trkpt><trkpt lat="43.1662941" lon="12.5305195"><ele>392.50000000000006</ele><time>2026-04-24T08:23:58.009Z</time></trkpt><trkpt lat="43.1663151" lon="12.5306473"><ele>394.0</ele><time>2026-04-24T08:23:59.013Z</time></trkpt><trkpt lat="43.1663423" lon="12.5307716"><ele>396.00000000000006</ele><time>2026-04-24T08:24:00.036Z</time></trkpt><trkpt lat="43.1663768" lon="12.5308853"><ele>398.0</ele><time>2026-04-24T08:24:01.041Z</time></trkpt><trkpt lat="43.1664137" lon="12.5309988"><ele>400.0</ele><time>2026-04-24T08:24:02.018Z</time></trkpt><trkpt lat="43.1664482" lon="12.5311128"><ele>402.0</ele><time>2026-04-24T08:24:03.033Z</time></trkpt><trkpt lat="43.1664622" lon="12.5312296"><ele>404.00000000000006</ele><time>2026-04-24T08:24:04.042Z</time></trkpt><trkpt lat="43.1664717" lon="12.5313428"><ele>406.0</ele><time>2026-04-24T08:24:05.022Z</time></trkpt><trkpt lat="43.1664704" lon="12.531443"><ele>409.6</ele><time>2026-04-24T08:24:06.021Z</time></trkpt><trkpt lat="43.1664373" lon="12.5316024"><ele>413.20000000000005</ele><time>2026-04-24T08:24:08.042Z</time></trkpt><trkpt lat="43.1664109" lon="12.5316837"><ele>416.79999999999995</ele><time>2026-04-24T08:24:09.02Z</time></trkpt><trkpt lat="43.166395" lon="12.5317923"><ele>420.4</ele><time>2026-04-24T08:24:10.033Z</time></trkpt><trkpt lat="43.1663967" lon="12.5319138"><ele>424.0</ele><time>2026-04-24T08:24:11.039Z</time></trkpt><trkpt lat="43.1664029" lon="12.5320436"><ele>421.4</ele><time>2026-04-24T08:24:12.024Z</time></trkpt><trkpt lat="43.166413" lon="12.5321774"><ele>418.79999999999995</ele><time>2026-04-24T08:24:13.041Z</time></trkpt><trkpt lat="43.166426" lon="12.5323131"><ele>416.20000000000005</ele><time>2026-04-24T08:24:14.027Z</time></trkpt><trkpt lat="43.1664572" lon="12.5324402"><ele>413.6</ele><time>2026-04-24T08:24:15.012Z</time></trkpt><trkpt lat="43.1665047" lon="12.5325511"><ele>411.0</ele><time>2026-04-24T08:24:16.018Z</time></trkpt><trkpt lat="43.1665602" lon="12.5326555"><ele>411.0</ele><time>2026-04-24T08:24:17.018Z</time></trkpt><trkpt lat="43.1666181" lon="12.5327465"><ele>411.0</ele><time>2026-04-24T08:24:18.037Z</time></trkpt><trkpt lat="43.1666757" lon="12.5328249"><ele>411.0</ele><time>2026-04-24T08:24:19.002Z</time></trkpt><trkpt lat="43.1667292" lon="12.5329021"><ele>411.0</ele><time>2026-04-24T08:24:20.028Z</time></trkpt><trkpt lat="43.1667823" lon="12.5329766"><ele>411.0</ele><time>2026-04-24T08:24:21.038Z</time></trkpt><trkpt lat="43.1668347" lon="12.533056"><ele>411.0</ele><time>2026-04-24T08:24:22.049Z</time></trkpt><trkpt lat="43.1668915" lon="12.5331766"><ele>413.5</ele><time>2026-04-24T08:24:24.038Z</time></trkpt><trkpt lat="43.1669305" lon="12.5333156"><ele>416.0</ele><time>2026-04-24T08:24:26.034Z</time></trkpt><trkpt lat="43.166947" lon="12.5334003"><ele>418.5</ele><time>2026-04-24T08:24:27.028Z</time></trkpt><trkpt lat="43.1669372" lon="12.5335747"><ele>421.0</ele><time>2026-04-24T08:24:29.032Z</time></trkpt><trkpt lat="43.1669111" lon="12.5336715"><ele>423.5</ele><time>2026-04-24T08:24:30.023Z</time></trkpt><trkpt lat="43.1668839" lon="12.5337644"><ele>426.0</ele><time>2026-04-24T08:24:31.026Z</time></trkpt><trkpt lat="43.1668577" lon="12.5338687"><ele>427.0</ele><time>2026-04-24T08:24:32.02Z</time></trkpt><trkpt lat="43.1668282" lon="12.5339908"><ele>428.0</ele><time>2026-04-24T08:24:33.013Z</time></trkpt><trkpt lat="43.1667943" lon="12.5341258"><ele>429.0</ele><time>2026-04-24T08:24:34.03Z</time></trkpt><trkpt lat="43.1667622" lon="12.5342582"><ele>430.0</ele><time>2026-04-24T08:24:35.04Z</time></trkpt><trkpt lat="43.1667329" lon="12.5343915"><ele>431.0</ele><time>2026-04-24T08:24:36.007Z</time></trkpt><trkpt lat="43.1667094" lon="12.5345283"><ele>431.0</ele><time>2026-04-24T08:24:37.033Z</time></trkpt><trkpt lat="43.1666939" lon="12.5346671"><ele>431.0</ele><time>2026-04-24T08:24:38.031Z</time></trkpt><trkpt lat="43.1666829" lon="12.5348132"><ele>431.0</ele><time>2026-04-24T08:24:39.012Z</time></trkpt><trkpt lat="43.1666766" lon="12.5349592"><ele>431.0</ele><time>2026-04-24T08:24:40.022Z</time></trkpt><trkpt lat="43.1666803" lon="12.5351087"><ele>431.0</ele><time>2026-04-24T08:24:41.03Z</time></trkpt><trkpt lat="43.1666931" lon="12.535253"><ele>431.0</ele><time>2026-04-24T08:24:42.025Z</time></trkpt><trkpt lat="43.1667208" lon="12.5353837"><ele>431.0</ele><time>2026-04-24T08:24:43.03Z</time></trkpt><trkpt lat="43.1667653" lon="12.5355063"><ele>431.0</ele><time>2026-04-24T08:24:44.021Z</time></trkpt><trkpt lat="43.1668042" lon="12.5356215"><ele>431.0</ele><time>2026-04-24T08:24:45.034Z</time></trkpt><trkpt lat="43.1668382" lon="12.5357432"><ele>431.0</ele><time>2026-04-24T08:24:46.037Z</time></trkpt><trkpt lat="43.1668703" lon="12.5358572"><ele>431.7142857142857</ele><time>2026-04-24T08:24:47.033Z</time></trkpt><trkpt lat="43.1668927" lon="12.5359419"><ele>432.4285714285714</ele><time>2026-04-24T08:24:48.028Z</time></trkpt><trkpt lat="43.1668988" lon="12.5360645"><ele>433.1428571428571</ele><time>2026-04-24T08:24:50.031Z</time></trkpt><trkpt lat="43.166857" lon="12.5361421"><ele>433.8571428571429</ele><time>2026-04-24T08:25:14.02Z</time></trkpt><trkpt lat="43.1667953" lon="12.5360813"><ele>434.57142857142856</ele><time>2026-04-24T08:25:17.017Z</time></trkpt><trkpt lat="43.1667475" lon="12.5360074"><ele>435.2857142857143</ele><time>2026-04-24T08:25:49.001Z</time></trkpt><trkpt lat="43.1666956" lon="12.5359533"><ele>436.0</ele><time>2026-04-24T08:25:51.028Z</time></trkpt><trkpt lat="43.1666176" lon="12.5358689"><ele>435.0</ele><time>2026-04-24T08:25:53.031Z</time></trkpt><trkpt lat="43.1665109" lon="12.5357655"><ele>434.0</ele><time>2026-04-24T08:25:55.023Z</time></trkpt><trkpt lat="43.1664569" lon="12.5356974"><ele>433.0</ele><time>2026-04-24T08:25:56.013Z</time></trkpt><trkpt lat="43.1663913" lon="12.535625"><ele>432.0</ele><time>2026-04-24T08:25:57.038Z</time></trkpt><trkpt lat="43.1663092" lon="12.5355586"><ele>431.0</ele><time>2026-04-24T08:25:58.023Z</time></trkpt><trkpt lat="43.1662253" lon="12.535498"><ele>431.0</ele><time>2026-04-24T08:25:59.023Z</time></trkpt><trkpt lat="43.1661358" lon="12.5354349"><ele>431.0</ele><time>2026-04-24T08:26:00.003Z</time></trkpt><trkpt lat="43.1660536" lon="12.5353759"><ele>431.0</ele><time>2026-04-24T08:26:01.035Z</time></trkpt><trkpt lat="43.1659749" lon="12.5353174"><ele>431.0</ele><time>2026-04-24T08:26:02.019Z</time></trkpt><trkpt lat="43.1658912" lon="12.5352544"><ele>431.0</ele><time>2026-04-24T08:26:03.013Z</time></trkpt><trkpt lat="43.1657998" lon="12.5351836"><ele>430.6</ele><time>2026-04-24T08:26:04.029Z</time></trkpt><trkpt lat="43.1657164" lon="12.5351087"><ele>430.20000000000005</ele><time>2026-04-24T08:26:05.043Z</time></trkpt><trkpt lat="43.1656378" lon="12.5350302"><ele>429.79999999999995</ele><time>2026-04-24T08:26:06.013Z</time></trkpt><trkpt lat="43.1655536" lon="12.5349417"><ele>429.4</ele><time>2026-04-24T08:26:07.012Z</time></trkpt><trkpt lat="43.1654649" lon="12.5348552"><ele>429.0</ele><time>2026-04-24T08:26:08.005Z</time></trkpt><trkpt lat="43.1653704" lon="12.5347603"><ele>429.0</ele><time>2026-04-24T08:26:09.035Z</time></trkpt><trkpt lat="43.1652734" lon="12.5346655"><ele>429.0</ele><time>2026-04-24T08:26:10.034Z</time></trkpt><trkpt lat="43.1651801" lon="12.5345728"><ele>429.0</ele><time>2026-04-24T08:26:11.011Z</time></trkpt><trkpt lat="43.1650984" lon="12.5344878"><ele>429.0</ele><time>2026-04-24T08:26:12.009Z</time></trkpt><trkpt lat="43.165023" lon="12.5344005"><ele>429.0</ele><time>2026-04-24T08:26:13.014Z</time></trkpt><trkpt lat="43.1649437" lon="12.5343132"><ele>430.79999999999995</ele><time>2026-04-24T08:26:14.012Z</time></trkpt><trkpt lat="43.1648902" lon="12.534209"><ele>432.59999999999997</ele><time>2026-04-24T08:26:15.02Z</time></trkpt><trkpt lat="43.164824" lon="12.5341109"><ele>434.4</ele><time>2026-04-24T08:26:16.019Z</time></trkpt><trkpt lat="43.1647599" lon="12.5339942"><ele>436.2</ele><time>2026-04-24T08:26:17.033Z</time></trkpt><trkpt lat="43.1647065" lon="12.5338853"><ele>438.0</ele><time>2026-04-24T08:26:18.029Z</time></trkpt><trkpt lat="43.164652" lon="12.5337427"><ele>435.4</ele><time>2026-04-24T08:26:19.022Z</time></trkpt><trkpt lat="43.1645873" lon="12.5336063"><ele>432.79999999999995</ele><time>2026-04-24T08:26:20.023Z</time></trkpt><trkpt lat="43.1645221" lon="12.5334691"><ele>430.2</ele><time>2026-04-24T08:26:21.019Z</time></trkpt><trkpt lat="43.1644574" lon="12.5333565"><ele>427.6</ele><time>2026-04-24T08:26:22.021Z</time></trkpt><trkpt lat="43.1643956" lon="12.5332467"><ele>425.0</ele><time>2026-04-24T08:26:23.024Z</time></trkpt><trkpt lat="43.1643324" lon="12.5331353"><ele>425.0</ele><time>2026-04-24T08:26:24.014Z</time></trkpt><trkpt lat="43.1642678" lon="12.5330209"><ele>425.0</ele><time>2026-04-24T08:26:25.013Z</time></trkpt><trkpt lat="43.1641975" lon="12.5329062"><ele>425.0</ele><time>2026-04-24T08:26:26.017Z</time></trkpt><trkpt lat="43.1641111" lon="12.5327763"><ele>425.0</ele><time>2026-04-24T08:26:27.031Z</time></trkpt><trkpt lat="43.1640316" lon="12.532648"><ele>421.5</ele><time>2026-04-24T08:26:28.009Z</time></trkpt><trkpt lat="43.1639462" lon="12.5325246"><ele>418.0</ele><time>2026-04-24T08:26:29.02Z</time></trkpt><trkpt lat="43.1638581" lon="12.5324238"><ele>414.5</ele><time>2026-04-24T08:26:30.014Z</time></trkpt><trkpt lat="43.1637786" lon="12.5323064"><ele>411.0</ele><time>2026-04-24T08:26:31.005Z</time></trkpt><trkpt lat="43.1637037" lon="12.5321906"><ele>411.0</ele><time>2026-04-24T08:26:32.015Z</time></trkpt><trkpt lat="43.1636364" lon="12.5320995"><ele>411.0</ele><time>2026-04-24T08:26:33.014Z</time></trkpt><trkpt lat="43.1635532" lon="12.5320095"><ele>411.0</ele><time>2026-04-24T08:26:34.016Z</time></trkpt><trkpt lat="43.1634645" lon="12.5319266"><ele>411.0</ele><time>2026-04-24T08:26:35.015Z</time></trkpt><trkpt lat="43.163365" lon="12.5318839"><ele>411.0</ele><time>2026-04-24T08:26:36.012Z</time></trkpt><trkpt lat="43.1632651" lon="12.5318505"><ele>411.5</ele><time>2026-04-24T08:26:37.018Z</time></trkpt><trkpt lat="43.1631763" lon="12.53181"><ele>412.0</ele><time>2026-04-24T08:26:38.006Z</time></trkpt><trkpt lat="43.1630889" lon="12.5317685"><ele>412.5</ele><time>2026-04-24T08:26:39.01Z</time></trkpt><trkpt lat="43.1630079" lon="12.5317336"><ele>413.0</ele><time>2026-04-24T08:26:40.012Z</time></trkpt><trkpt lat="43.1629358" lon="12.5317011"><ele>413.5</ele><time>2026-04-24T08:26:41.012Z</time></trkpt><trkpt lat="43.1628607" lon="12.5316765"><ele>414.0</ele><time>2026-04-24T08:26:42.027Z</time></trkpt><trkpt lat="43.1627907" lon="12.5316648"><ele>414.0</ele><time>2026-04-24T08:26:43.013Z</time></trkpt><trkpt lat="43.1627271" lon="12.5316762"><ele>414.0</ele><time>2026-04-24T08:26:44.017Z</time></trkpt><trkpt lat="43.1626373" lon="12.5318163"><ele>414.0</ele><time>2026-04-24T08:26:46.02Z</time></trkpt><trkpt lat="43.1625968" lon="12.531906"><ele>414.0</ele><time>2026-04-24T08:26:47.019Z</time></trkpt><trkpt lat="43.1625479" lon="12.5319895"><ele>414.0</ele><time>2026-04-24T08:26:48.015Z</time></trkpt><trkpt lat="43.1625002" lon="12.5320596"><ele>414.0</ele><time>2026-04-24T08:26:49.013Z</time></trkpt><trkpt lat="43.1624388" lon="12.5321338"><ele>413.0</ele><time>2026-04-24T08:26:50.028Z</time></trkpt><trkpt lat="43.1623767" lon="12.5322094"><ele>412.0</ele><time>2026-04-24T08:26:51.023Z</time></trkpt><trkpt lat="43.1623073" lon="12.5322784"><ele>411.0</ele><time>2026-04-24T08:26:52.017Z</time></trkpt><trkpt lat="43.16223" lon="12.5323397"><ele>410.0</ele><time>2026-04-24T08:26:53.013Z</time></trkpt><trkpt lat="43.1621435" lon="12.5324024"><ele>409.0</ele><time>2026-04-24T08:26:54.01Z</time></trkpt><trkpt lat="43.1620565" lon="12.5324669"><ele>410.2</ele><time>2026-04-24T08:26:55.015Z</time></trkpt><trkpt lat="43.1619725" lon="12.5325464"><ele>411.4</ele><time>2026-04-24T08:26:56.016Z</time></trkpt><trkpt lat="43.1619071" lon="12.5326221"><ele>412.6</ele><time>2026-04-24T08:26:57.008Z</time></trkpt><trkpt lat="43.1618522" lon="12.5327143"><ele>413.8</ele><time>2026-04-24T08:26:58.027Z</time></trkpt><trkpt lat="43.1618107" lon="12.5328239"><ele>415.0</ele><time>2026-04-24T08:26:59.014Z</time></trkpt><trkpt lat="43.1617687" lon="12.5329608"><ele>415.0</ele><time>2026-04-24T08:27:00.029Z</time></trkpt><trkpt lat="43.1617266" lon="12.5330965"><ele>415.0</ele><time>2026-04-24T08:27:01.013Z</time></trkpt><trkpt lat="43.1616676" lon="12.5332309"><ele>415.0</ele><time>2026-04-24T08:27:02.004Z</time></trkpt><trkpt lat="43.1616057" lon="12.5333736"><ele>415.0</ele><time>2026-04-24T08:27:03.012Z</time></trkpt><trkpt lat="43.1615441" lon="12.5334909"><ele>415.0</ele><time>2026-04-24T08:27:04.029Z</time></trkpt><trkpt lat="43.1614929" lon="12.5335974"><ele>417.00000000000006</ele><time>2026-04-24T08:27:05.021Z</time></trkpt><trkpt lat="43.1614341" lon="12.5336653"><ele>419.0</ele><time>2026-04-24T08:27:06.021Z</time></trkpt><trkpt lat="43.1613456" lon="12.5336823"><ele>421.0</ele><time>2026-04-24T08:27:07.014Z</time></trkpt><trkpt lat="43.1612593" lon="12.5336827"><ele>423.0</ele><time>2026-04-24T08:27:08.015Z</time></trkpt><trkpt lat="43.1611749" lon="12.5336813"><ele>425.00000000000006</ele><time>2026-04-24T08:27:09.016Z</time></trkpt><trkpt lat="43.1610783" lon="12.5336799"><ele>427.0</ele><time>2026-04-24T08:27:10.03Z</time></trkpt><trkpt lat="43.160983" lon="12.5336813"><ele>427.0</ele><time>2026-04-24T08:27:11.029Z</time></trkpt><trkpt lat="43.1608787" lon="12.5336749"><ele>427.00000000000006</ele><time>2026-04-24T08:27:12.018Z</time></trkpt><trkpt lat="43.1607815" lon="12.5336721"><ele>427.00000000000006</ele><time>2026-04-24T08:27:13.012Z</time></trkpt><trkpt lat="43.1606889" lon="12.5336713"><ele>427.0</ele><time>2026-04-24T08:27:14.014Z</time></trkpt><trkpt lat="43.1606098" lon="12.5336366"><ele>427.0</ele><time>2026-04-24T08:27:15.034Z</time></trkpt><trkpt lat="43.1605437" lon="12.5335847"><ele>424.6</ele><time>2026-04-24T08:27:16.017Z</time></trkpt><trkpt lat="43.1604826" lon="12.53351"><ele>422.20000000000005</ele><time>2026-04-24T08:27:17.035Z</time></trkpt><trkpt lat="43.1604189" lon="12.5334202"><ele>419.8</ele><time>2026-04-24T08:27:18.024Z</time></trkpt><trkpt lat="43.1603492" lon="12.5333239"><ele>417.4</ele><time>2026-04-24T08:27:19.019Z</time></trkpt><trkpt lat="43.160248" lon="12.5332215"><ele>415.0</ele><time>2026-04-24T08:27:20.005Z</time></trkpt><trkpt lat="43.1601445" lon="12.5331229"><ele>415.0</ele><time>2026-04-24T08:27:21.015Z</time></trkpt><trkpt lat="43.1600551" lon="12.53304"><ele>415.0</ele><time>2026-04-24T08:27:22.037Z</time></trkpt><trkpt lat="43.1599746" lon="12.5329825"><ele>415.0</ele><time>2026-04-24T08:27:23.031Z</time></trkpt><trkpt lat="43.1598723" lon="12.5329437"><ele>415.0</ele><time>2026-04-24T08:27:24.004Z</time></trkpt><trkpt lat="43.1597739" lon="12.5329086"><ele>415.0</ele><time>2026-04-24T08:27:25.013Z</time></trkpt><trkpt lat="43.1596753" lon="12.5328574"><ele>416.2</ele><time>2026-04-24T08:27:26.037Z</time></trkpt><trkpt lat="43.1595831" lon="12.5328013"><ele>417.4</ele><time>2026-04-24T08:27:27.015Z</time></trkpt><trkpt lat="43.1594857" lon="12.532742"><ele>418.6</ele><time>2026-04-24T08:27:28.025Z</time></trkpt><trkpt lat="43.1593892" lon="12.5326832"><ele>419.8</ele><time>2026-04-24T08:27:29.022Z</time></trkpt><trkpt lat="43.1592961" lon="12.5326392"><ele>421.0</ele><time>2026-04-24T08:27:30.014Z</time></trkpt><trkpt lat="43.159221" lon="12.5325894"><ele>421.00000000000006</ele><time>2026-04-24T08:27:31.024Z</time></trkpt><trkpt lat="43.1591473" lon="12.5325652"><ele>421.0</ele><time>2026-04-24T08:27:32.014Z</time></trkpt><trkpt lat="43.1590661" lon="12.5325713"><ele>421.0</ele><time>2026-04-24T08:27:33.024Z</time></trkpt><trkpt lat="43.1589849" lon="12.5326136"><ele>421.0</ele><time>2026-04-24T08:27:34Z</time></trkpt><trkpt lat="43.1589154" lon="12.532697"><ele>421.00000000000006</ele><time>2026-04-24T08:27:35.013Z</time></trkpt><trkpt lat="43.1588473" lon="12.532783"><ele>421.0</ele><time>2026-04-24T08:27:36.02Z</time></trkpt><trkpt lat="43.1587787" lon="12.532841"><ele>421.00000000000006</ele><time>2026-04-24T08:27:37.027Z</time></trkpt><trkpt lat="43.1587023" lon="12.5328794"><ele>421.0</ele><time>2026-04-24T08:27:38.036Z</time></trkpt><trkpt lat="43.1586249" lon="12.5328877"><ele>421.0</ele><time>2026-04-24T08:27:39.021Z</time></trkpt><trkpt lat="43.1585552" lon="12.5328971"><ele>421.0</ele><time>2026-04-24T08:27:40.01Z</time></trkpt><trkpt lat="43.1584706" lon="12.5329076"><ele>421.00000000000006</ele><time>2026-04-24T08:27:41.027Z</time></trkpt><trkpt lat="43.1583822" lon="12.5329068"><ele>421.0</ele><time>2026-04-24T08:27:42.006Z</time></trkpt><trkpt lat="43.1582942" lon="12.5328967"><ele>417.4</ele><time>2026-04-24T08:27:43.008Z</time></trkpt><trkpt lat="43.1581991" lon="12.5328958"><ele>413.8</ele><time>2026-04-24T08:27:44.036Z</time></trkpt><trkpt lat="43.1580982" lon="12.5328973"><ele>410.2</ele><time>2026-04-24T08:27:45.015Z</time></trkpt><trkpt lat="43.1580132" lon="12.5329059"><ele>406.59999999999997</ele><time>2026-04-24T08:27:46.004Z</time></trkpt><trkpt lat="43.1579239" lon="12.5329342"><ele>403.0</ele><time>2026-04-24T08:27:47.011Z</time></trkpt><trkpt lat="43.1578365" lon="12.5329753"><ele>403.0</ele><time>2026-04-24T08:27:48.02Z</time></trkpt><trkpt lat="43.1577524" lon="12.5330317"><ele>403.0</ele><time>2026-04-24T08:27:49.033Z</time></trkpt><trkpt lat="43.1576584" lon="12.5330765"><ele>403.0</ele><time>2026-04-24T08:27:50.034Z</time></trkpt><trkpt lat="43.1575859" lon="12.5331118"><ele>403.0</ele><time>2026-04-24T08:27:51.028Z</time></trkpt><trkpt lat="43.1575176" lon="12.5331208"><ele>403.0</ele><time>2026-04-24T08:27:52.033Z</time></trkpt><trkpt lat="43.157403" lon="12.5331892"><ele>402.2</ele><time>2026-04-24T08:27:54.01Z</time></trkpt><trkpt lat="43.1573142" lon="12.5333344"><ele>401.4</ele><time>2026-04-24T08:27:56.034Z</time></trkpt><trkpt lat="43.1572663" lon="12.5334283"><ele>400.59999999999997</ele><time>2026-04-24T08:27:57.032Z</time></trkpt><trkpt lat="43.1572096" lon="12.5335262"><ele>399.79999999999995</ele><time>2026-04-24T08:27:58.024Z</time></trkpt><trkpt lat="43.1571387" lon="12.5336218"><ele>399.0</ele><time>2026-04-24T08:27:59.011Z</time></trkpt><trkpt lat="43.1570687" lon="12.533721"><ele>397.0</ele><time>2026-04-24T08:28:00.034Z</time></trkpt><trkpt lat="43.1569933" lon="12.533822"><ele>395.0</ele><time>2026-04-24T08:28:01.045Z</time></trkpt><trkpt lat="43.1569179" lon="12.5339211"><ele>393.0</ele><time>2026-04-24T08:28:02.043Z</time></trkpt><trkpt lat="43.1568378" lon="12.5340215"><ele>391.0</ele><time>2026-04-24T08:28:03.026Z</time></trkpt><trkpt lat="43.1567504" lon="12.5341139"><ele>389.0</ele><time>2026-04-24T08:28:04.026Z</time></trkpt><trkpt lat="43.1566622" lon="12.5341951"><ele>388.99999999999994</ele><time>2026-04-24T08:28:05.042Z</time></trkpt><trkpt lat="43.1565779" lon="12.534253"><ele>389.0</ele><time>2026-04-24T08:28:06.003Z</time></trkpt><trkpt lat="43.1564948" lon="12.5342925"><ele>389.0</ele><time>2026-04-24T08:28:07.03Z</time></trkpt><trkpt lat="43.1564145" lon="12.5343311"><ele>389.0</ele><time>2026-04-24T08:28:08.027Z</time></trkpt><trkpt lat="43.1563343" lon="12.5343427"><ele>388.99999999999994</ele><time>2026-04-24T08:28:09.024Z</time></trkpt><trkpt lat="43.1562442" lon="12.534347"><ele>389.0</ele><time>2026-04-24T08:28:10.031Z</time></trkpt><trkpt lat="43.1561482" lon="12.534342"><ele>388.2</ele><time>2026-04-24T08:28:11.033Z</time></trkpt><trkpt lat="43.1560553" lon="12.5343376"><ele>387.4</ele><time>2026-04-24T08:28:12.036Z</time></trkpt><trkpt lat="43.1559701" lon="12.5343401"><ele>386.6</ele><time>2026-04-24T08:28:13.03Z</time></trkpt><trkpt lat="43.1558827" lon="12.5343749"><ele>385.8</ele><time>2026-04-24T08:28:14.016Z</time></trkpt><trkpt lat="43.1557972" lon="12.534451"><ele>385.0</ele><time>2026-04-24T08:28:15.014Z</time></trkpt><trkpt lat="43.1557269" lon="12.5345616"><ele>382.2</ele><time>2026-04-24T08:28:16.036Z</time></trkpt><trkpt lat="43.1556592" lon="12.5346727"><ele>379.4</ele><time>2026-04-24T08:28:17.005Z</time></trkpt><trkpt lat="43.1555933" lon="12.5347669"><ele>376.6</ele><time>2026-04-24T08:28:18.007Z</time></trkpt><trkpt lat="43.1555312" lon="12.5348608"><ele>373.8</ele><time>2026-04-24T08:28:19.031Z</time></trkpt><trkpt lat="43.1554657" lon="12.5349493"><ele>371.0</ele><time>2026-04-24T08:28:20.028Z</time></trkpt><trkpt lat="43.155404" lon="12.5350401"><ele>371.0</ele><time>2026-04-24T08:28:21.018Z</time></trkpt><trkpt lat="43.1553466" lon="12.5351327"><ele>371.0</ele><time>2026-04-24T08:28:22.032Z</time></trkpt><trkpt lat="43.1552856" lon="12.535211"><ele>371.0</ele><time>2026-04-24T08:28:23.036Z</time></trkpt><trkpt lat="43.1552271" lon="12.5352899"><ele>371.0</ele><time>2026-04-24T08:28:24.013Z</time></trkpt><trkpt lat="43.1551696" lon="12.535369"><ele>371.0</ele><time>2026-04-24T08:28:25.019Z</time></trkpt><trkpt lat="43.1551077" lon="12.535448"><ele>371.0</ele><time>2026-04-24T08:28:26.032Z</time></trkpt><trkpt lat="43.155042" lon="12.5355265"><ele>371.20000000000005</ele><time>2026-04-24T08:28:27.015Z</time></trkpt><trkpt lat="43.1549755" lon="12.5356142"><ele>371.40000000000003</ele><time>2026-04-24T08:28:28.029Z</time></trkpt><trkpt lat="43.1549105" lon="12.5357063"><ele>371.6</ele><time>2026-04-24T08:28:29.007Z</time></trkpt><trkpt lat="43.1548436" lon="12.5357964"><ele>371.8</ele><time>2026-04-24T08:28:30.032Z</time></trkpt><trkpt lat="43.1547742" lon="12.5358895"><ele>372.0</ele><time>2026-04-24T08:28:31.035Z</time></trkpt><trkpt lat="43.1547093" lon="12.5359859"><ele>369.20000000000005</ele><time>2026-04-24T08:28:32.02Z</time></trkpt><trkpt lat="43.1546399" lon="12.536079"><ele>366.4</ele><time>2026-04-24T08:28:33.009Z</time></trkpt><trkpt lat="43.1545674" lon="12.5361745"><ele>363.6</ele><time>2026-04-24T08:28:34.03Z</time></trkpt><trkpt lat="43.1544946" lon="12.5362574"><ele>360.79999999999995</ele><time>2026-04-24T08:28:35.019Z</time></trkpt><trkpt lat="43.1544104" lon="12.5363414"><ele>358.0</ele><time>2026-04-24T08:28:36.028Z</time></trkpt><trkpt lat="43.1543236" lon="12.5364283"><ele>358.0</ele><time>2026-04-24T08:28:37.043Z</time></trkpt><trkpt lat="43.1542291" lon="12.5365086"><ele>358.0</ele><time>2026-04-24T08:28:38.018Z</time></trkpt><trkpt lat="43.1541338" lon="12.5365562"><ele>358.0</ele><time>2026-04-24T08:28:39.018Z</time></trkpt><trkpt lat="43.1540389" lon="12.5365992"><ele>358.0</ele><time>2026-04-24T08:28:40.017Z</time></trkpt><trkpt lat="43.1539447" lon="12.5366326"><ele>358.0</ele><time>2026-04-24T08:28:41.037Z</time></trkpt><trkpt lat="43.1538487" lon="12.5366537"><ele>356.4</ele><time>2026-04-24T08:28:42.001Z</time></trkpt><trkpt lat="43.1537511" lon="12.5366646"><ele>354.79999999999995</ele><time>2026-04-24T08:28:43.034Z</time></trkpt><trkpt lat="43.1536529" lon="12.5366764"><ele>353.2</ele><time>2026-04-24T08:28:44.023Z</time></trkpt><trkpt lat="43.1535558" lon="12.5366754"><ele>351.6</ele><time>2026-04-24T08:28:45.04Z</time></trkpt><trkpt lat="43.1534615" lon="12.5366744"><ele>350.0</ele><time>2026-04-24T08:28:46.025Z</time></trkpt><trkpt lat="43.1533675" lon="12.5366783"><ele>350.0</ele><time>2026-04-24T08:28:47.04Z</time></trkpt><trkpt lat="43.1532706" lon="12.5366901"><ele>350.0</ele><time>2026-04-24T08:28:48.025Z</time></trkpt><trkpt lat="43.1531707" lon="12.5366965"><ele>350.0</ele><time>2026-04-24T08:28:49.002Z</time></trkpt><trkpt lat="43.153068" lon="12.5366976"><ele>350.0</ele><time>2026-04-24T08:28:50.029Z</time></trkpt><trkpt lat="43.1529685" lon="12.5366998"><ele>350.0</ele><time>2026-04-24T08:28:51.038Z</time></trkpt><trkpt lat="43.1528647" lon="12.5366949"><ele>348.4</ele><time>2026-04-24T08:28:52.032Z</time></trkpt><trkpt lat="43.1527616" lon="12.5366925"><ele>346.8</ele><time>2026-04-24T08:28:53.004Z</time></trkpt><trkpt lat="43.1526613" lon="12.5366863"><ele>345.20000000000005</ele><time>2026-04-24T08:28:54.014Z</time></trkpt><trkpt lat="43.1525638" lon="12.536684"><ele>343.6</ele><time>2026-04-24T08:28:55.025Z</time></trkpt><trkpt lat="43.1524699" lon="12.5366834"><ele>342.0</ele><time>2026-04-24T08:28:56.01Z</time></trkpt><trkpt lat="43.1523793" lon="12.5366967"><ele>339.0</ele><time>2026-04-24T08:28:57.023Z</time></trkpt><trkpt lat="43.1522874" lon="12.5367371"><ele>336.0</ele><time>2026-04-24T08:28:58.002Z</time></trkpt><trkpt lat="43.1521973" lon="12.5367744"><ele>333.0</ele><time>2026-04-24T08:28:59.013Z</time></trkpt><trkpt lat="43.1521257" lon="12.5368275"><ele>330.0</ele><time>2026-04-24T08:29:00.003Z</time></trkpt><trkpt lat="43.1520527" lon="12.5369066"><ele>327.0</ele><time>2026-04-24T08:29:01.03Z</time></trkpt><trkpt lat="43.151975" lon="12.5369708"><ele>327.0</ele><time>2026-04-24T08:29:02.001Z</time></trkpt><trkpt lat="43.151893" lon="12.537037"><ele>327.0</ele><time>2026-04-24T08:29:03.025Z</time></trkpt><trkpt lat="43.1518011" lon="12.5370951"><ele>327.0</ele><time>2026-04-24T08:29:04.042Z</time></trkpt><trkpt lat="43.1517164" lon="12.5371383"><ele>327.0</ele><time>2026-04-24T08:29:05.011Z</time></trkpt><trkpt lat="43.1516242" lon="12.5371631"><ele>327.0</ele><time>2026-04-24T08:29:06.019Z</time></trkpt><trkpt lat="43.1515402" lon="12.5371857"><ele>327.6666666666667</ele><time>2026-04-24T08:29:07.031Z</time></trkpt><trkpt lat="43.1514639" lon="12.5371911"><ele>328.3333333333333</ele><time>2026-04-24T08:29:08.021Z</time></trkpt><trkpt lat="43.1513864" lon="12.5371858"><ele>329.0</ele><time>2026-04-24T08:29:09.029Z</time></trkpt><trkpt lat="43.1513203" lon="12.5371878"><ele>329.66666666666663</ele><time>2026-04-24T08:29:10.024Z</time></trkpt><trkpt lat="43.1512172" lon="12.5372459"><ele>330.3333333333333</ele><time>2026-04-24T08:29:12.018Z</time></trkpt><trkpt lat="43.1511747" lon="12.5373123"><ele>331.0</ele><time>2026-04-24T08:29:13.024Z</time></trkpt><trkpt lat="43.1511468" lon="12.5374096"><ele>331.0</ele><time>2026-04-24T08:29:14.007Z</time></trkpt><trkpt lat="43.1511215" lon="12.5375251"><ele>331.0</ele><time>2026-04-24T08:29:15.021Z</time></trkpt><trkpt lat="43.1510958" lon="12.5376234"><ele>331.0</ele><time>2026-04-24T08:29:16.006Z</time></trkpt><trkpt lat="43.151079" lon="12.5377148"><ele>331.0</ele><time>2026-04-24T08:29:17.029Z</time></trkpt><trkpt lat="43.1510426" lon="12.5377972"><ele>331.0</ele><time>2026-04-24T08:29:18.019Z</time></trkpt><trkpt lat="43.1509927" lon="12.5378678"><ele>331.0</ele><time>2026-04-24T08:29:19.028Z</time></trkpt><trkpt lat="43.150938" lon="12.5379355"><ele>331.0</ele><time>2026-04-24T08:29:20.026Z</time></trkpt><trkpt lat="43.1508675" lon="12.5380036"><ele>329.8333333333333</ele><time>2026-04-24T08:29:21.023Z</time></trkpt><trkpt lat="43.1507922" lon="12.5380626"><ele>328.66666666666663</ele><time>2026-04-24T08:29:22.026Z</time></trkpt><trkpt lat="43.1507177" lon="12.5381233"><ele>327.5</ele><time>2026-04-24T08:29:23.03Z</time></trkpt><trkpt lat="43.1506513" lon="12.5381745"><ele>326.3333333333333</ele><time>2026-04-24T08:29:24.018Z</time></trkpt><trkpt lat="43.1505782" lon="12.5382263"><ele>325.1666666666667</ele><time>2026-04-24T08:29:25.025Z</time></trkpt><trkpt lat="43.1505118" lon="12.5382797"><ele>324.0</ele><time>2026-04-24T08:29:26.005Z</time></trkpt><trkpt lat="43.1504532" lon="12.5383393"><ele>324.0</ele><time>2026-04-24T08:29:27.027Z</time></trkpt><trkpt lat="43.1504003" lon="12.538404"><ele>324.0</ele><time>2026-04-24T08:29:28.026Z</time></trkpt><trkpt lat="43.1503473" lon="12.5384611"><ele>324.0</ele><time>2026-04-24T08:29:29.022Z</time></trkpt><trkpt lat="43.1502633" lon="12.53858"><ele>324.0</ele><time>2026-04-24T08:29:31.029Z</time></trkpt><trkpt lat="43.150188" lon="12.5386749"><ele>324.0</ele><time>2026-04-24T08:29:33.016Z</time></trkpt><trkpt lat="43.1501058" lon="12.5387392"><ele>320.0</ele><time>2026-04-24T08:29:36.007Z</time></trkpt><trkpt lat="43.1499991" lon="12.5387915"><ele>316.0</ele><time>2026-04-24T08:29:38.017Z</time></trkpt><trkpt lat="43.149873" lon="12.5388087"><ele>312.0</ele><time>2026-04-24T08:29:40.01Z</time></trkpt><trkpt lat="43.1498056" lon="12.5388068"><ele>308.0</ele><time>2026-04-24T08:29:41.023Z</time></trkpt><trkpt lat="43.1496898" lon="12.5387577"><ele>304.0</ele><time>2026-04-24T08:29:43.014Z</time></trkpt><trkpt lat="43.1495857" lon="12.5386575"><ele>304.0</ele><time>2026-04-24T08:29:45.002Z</time></trkpt><trkpt lat="43.1495358" lon="12.5385912"><ele>304.0</ele><time>2026-04-24T08:29:46.025Z</time></trkpt><trkpt lat="43.1494703" lon="12.5385118"><ele>304.0</ele><time>2026-04-24T08:29:47.018Z</time></trkpt><trkpt lat="43.1494262" lon="12.5384391"><ele>304.0</ele><time>2026-04-24T08:29:48.013Z</time></trkpt><trkpt lat="43.1493267" lon="12.5383548"><ele>304.0</ele><time>2026-04-24T08:29:50.016Z</time></trkpt><trkpt lat="43.1492615" lon="12.5383658"><ele>304.0</ele><time>2026-04-24T08:29:51.029Z</time></trkpt><trkpt lat="43.1491918" lon="12.5384071"><ele>304.0</ele><time>2026-04-24T08:29:52.027Z</time></trkpt><trkpt lat="43.149128" lon="12.5384642"><ele>304.0</ele><time>2026-04-24T08:29:53.028Z</time></trkpt><trkpt lat="43.1490566" lon="12.5385263"><ele>304.0</ele><time>2026-04-24T08:29:54.013Z</time></trkpt><trkpt lat="43.1489807" lon="12.5385766"><ele>304.0</ele><time>2026-04-24T08:29:55.032Z</time></trkpt><trkpt lat="43.1489019" lon="12.5386172"><ele>304.0</ele><time>2026-04-24T08:29:56.013Z</time></trkpt><trkpt lat="43.1488201" lon="12.5386594"><ele>304.0</ele><time>2026-04-24T08:29:57.017Z</time></trkpt><trkpt lat="43.1487419" lon="12.5387054"><ele>300.16666666666663</ele><time>2026-04-24T08:29:58.03Z</time></trkpt><trkpt lat="43.1486557" lon="12.5387661"><ele>296.3333333333333</ele><time>2026-04-24T08:29:59.028Z</time></trkpt><trkpt lat="43.1485907" lon="12.5388518"><ele>292.5</ele><time>2026-04-24T08:30:00.027Z</time></trkpt><trkpt lat="43.1485357" lon="12.5389477"><ele>288.6666666666667</ele><time>2026-04-24T08:30:01.036Z</time></trkpt><trkpt lat="43.148489" lon="12.5390362"><ele>284.83333333333337</ele><time>2026-04-24T08:30:02.031Z</time></trkpt><trkpt lat="43.1484511" lon="12.5391225"><ele>281.0</ele><time>2026-04-24T08:30:03.024Z</time></trkpt><trkpt lat="43.1484025" lon="12.5391868"><ele>281.0</ele><time>2026-04-24T08:30:04.019Z</time></trkpt><trkpt lat="43.1483434" lon="12.5392302"><ele>281.0</ele><time>2026-04-24T08:30:05.024Z</time></trkpt><trkpt lat="43.1482732" lon="12.5392548"><ele>281.0</ele><time>2026-04-24T08:30:06.01Z</time></trkpt><trkpt lat="43.1481901" lon="12.5392313"><ele>281.0</ele><time>2026-04-24T08:30:07.016Z</time></trkpt><trkpt lat="43.1481198" lon="12.5391735"><ele>281.0</ele><time>2026-04-24T08:30:08.034Z</time></trkpt><trkpt lat="43.1480526" lon="12.5391138"><ele>281.0</ele><time>2026-04-24T08:30:09.015Z</time></trkpt><trkpt lat="43.1480068" lon="12.5390448"><ele>278.28571428571433</ele><time>2026-04-24T08:30:10.023Z</time></trkpt><trkpt lat="43.1479771" lon="12.538963"><ele>275.57142857142856</ele><time>2026-04-24T08:30:11.026Z</time></trkpt><trkpt lat="43.1479726" lon="12.5388708"><ele>272.8571428571429</ele><time>2026-04-24T08:30:12.024Z</time></trkpt><trkpt lat="43.1479839" lon="12.5387666"><ele>270.14285714285717</ele><time>2026-04-24T08:30:13.012Z</time></trkpt><trkpt lat="43.1480139" lon="12.5386632"><ele>267.42857142857144</ele><time>2026-04-24T08:30:14.023Z</time></trkpt><trkpt lat="43.1480376" lon="12.5385604"><ele>264.7142857142857</ele><time>2026-04-24T08:30:15.01Z</time></trkpt><trkpt lat="43.1480495" lon="12.5384719"><ele>262.0</ele><time>2026-04-24T08:30:16.015Z</time></trkpt><trkpt lat="43.1480045" lon="12.5383535"><ele>262.0</ele><time>2026-04-24T08:30:18.031Z</time></trkpt><trkpt lat="43.1478868" lon="12.5384097"><ele>262.0</ele><time>2026-04-24T08:30:20.022Z</time></trkpt><trkpt lat="43.1478392" lon="12.5385214"><ele>262.0</ele><time>2026-04-24T08:30:21.015Z</time></trkpt><trkpt lat="43.1477639" lon="12.5385987"><ele>262.0</ele><time>2026-04-24T08:30:22.018Z</time></trkpt><trkpt lat="43.1476742" lon="12.5386663"><ele>262.0</ele><time>2026-04-24T08:30:23.036Z</time></trkpt><trkpt lat="43.1475878" lon="12.5387421"><ele>261.0</ele><time>2026-04-24T08:30:24.004Z</time></trkpt><trkpt lat="43.1475051" lon="12.5388142"><ele>260.0</ele><time>2026-04-24T08:30:25.004Z</time></trkpt><trkpt lat="43.1474292" lon="12.5388952"><ele>259.0</ele><time>2026-04-24T08:30:26.015Z</time></trkpt><trkpt lat="43.1473468" lon="12.5389787"><ele>258.0</ele><time>2026-04-24T08:30:27.023Z</time></trkpt><trkpt lat="43.1472544" lon="12.5390717"><ele>257.0</ele><time>2026-04-24T08:30:28.006Z</time></trkpt><trkpt lat="43.1471465" lon="12.5391629"><ele>255.5</ele><time>2026-04-24T08:30:29.012Z</time></trkpt><trkpt lat="43.1470193" lon="12.5392362"><ele>254.0</ele><time>2026-04-24T08:30:30.006Z</time></trkpt><trkpt lat="43.1468941" lon="12.5393018"><ele>252.5</ele><time>2026-04-24T08:30:31.02Z</time></trkpt><trkpt lat="43.1467737" lon="12.5393689"><ele>251.0</ele><time>2026-04-24T08:30:32.024Z</time></trkpt><trkpt lat="43.1466646" lon="12.5394597"><ele>250.4</ele><time>2026-04-24T08:30:33.013Z</time></trkpt><trkpt lat="43.1465806" lon="12.5395687"><ele>249.8</ele><time>2026-04-24T08:30:34.014Z</time></trkpt><trkpt lat="43.1464996" lon="12.5396664"><ele>249.20000000000002</ele><time>2026-04-24T08:30:35.03Z</time></trkpt><trkpt lat="43.1464149" lon="12.539752"><ele>248.60000000000002</ele><time>2026-04-24T08:30:36.017Z</time></trkpt><trkpt lat="43.146339" lon="12.5398035"><ele>248.0</ele><time>2026-04-24T08:30:37.023Z</time></trkpt><trkpt lat="43.1462594" lon="12.5398501"><ele>248.0</ele><time>2026-04-24T08:30:38.03Z</time></trkpt><trkpt lat="43.1461655" lon="12.5398816"><ele>248.0</ele><time>2026-04-24T08:30:39.013Z</time></trkpt><trkpt lat="43.1460653" lon="12.5399118"><ele>248.0</ele><time>2026-04-24T08:30:40.026Z</time></trkpt><trkpt lat="43.1459625" lon="12.5399467"><ele>248.0</ele><time>2026-04-24T08:30:41.021Z</time></trkpt><trkpt lat="43.1458541" lon="12.5399698"><ele>248.0</ele><time>2026-04-24T08:30:42.023Z</time></trkpt><trkpt lat="43.145739" lon="12.5399834"><ele>247.75</ele><time>2026-04-24T08:30:43.014Z</time></trkpt><trkpt lat="43.1456007" lon="12.5399779"><ele>247.5</ele><time>2026-04-24T08:30:44.028Z</time></trkpt><trkpt lat="43.1454554" lon="12.5399729"><ele>247.25</ele><time>2026-04-24T08:30:45.015Z</time></trkpt><trkpt lat="43.145312" lon="12.5399722"><ele>247.0</ele><time>2026-04-24T08:30:46.02Z</time></trkpt><trkpt lat="43.1451717" lon="12.5399705"><ele>247.0</ele><time>2026-04-24T08:30:47.015Z</time></trkpt><trkpt lat="43.1450487" lon="12.5399683"><ele>247.0</ele><time>2026-04-24T08:30:48.006Z</time></trkpt><trkpt lat="43.1449345" lon="12.5399629"><ele>247.0</ele><time>2026-04-24T08:30:49.012Z</time></trkpt><trkpt lat="43.1448311" lon="12.5399556"><ele>247.0</ele><time>2026-04-24T08:30:50.015Z</time></trkpt><trkpt lat="43.1447371" lon="12.5399384"><ele>247.0</ele><time>2026-04-24T08:30:51.009Z</time></trkpt><trkpt lat="43.1446554" lon="12.5399004"><ele>246.6</ele><time>2026-04-24T08:30:52.021Z</time></trkpt><trkpt lat="43.1445799" lon="12.5398332"><ele>246.2</ele><time>2026-04-24T08:30:53.017Z</time></trkpt><trkpt lat="43.1445172" lon="12.5397322"><ele>245.8</ele><time>2026-04-24T08:30:54.008Z</time></trkpt><trkpt lat="43.1444713" lon="12.5396173"><ele>245.4</ele><time>2026-04-24T08:30:55.016Z</time></trkpt><trkpt lat="43.1444305" lon="12.5395063"><ele>245.0</ele><time>2026-04-24T08:30:56.015Z</time></trkpt><trkpt lat="43.1443859" lon="12.5393884"><ele>245.0</ele><time>2026-04-24T08:30:57.035Z</time></trkpt><trkpt lat="43.1443478" lon="12.5392727"><ele>245.0</ele><time>2026-04-24T08:30:58.019Z</time></trkpt><trkpt lat="43.1443051" lon="12.5391555"><ele>245.0</ele><time>2026-04-24T08:30:59.014Z</time></trkpt><trkpt lat="43.1442681" lon="12.5390243"><ele>245.0</ele><time>2026-04-24T08:31:00.017Z</time></trkpt><trkpt lat="43.1442396" lon="12.5388974"><ele>245.0</ele><time>2026-04-24T08:31:01.011Z</time></trkpt><trkpt lat="43.1442216" lon="12.5387643"><ele>245.00000000000003</ele><time>2026-04-24T08:31:02.017Z</time></trkpt><trkpt lat="43.1442154" lon="12.5386459"><ele>245.0</ele><time>2026-04-24T08:31:03.01Z</time></trkpt><trkpt lat="43.1442093" lon="12.5385192"><ele>245.0</ele><time>2026-04-24T08:31:04.019Z</time></trkpt><trkpt lat="43.1442002" lon="12.5384024"><ele>245.0</ele><time>2026-04-24T08:31:05.017Z</time></trkpt><trkpt lat="43.1441904" lon="12.5382895"><ele>245.00000000000003</ele><time>2026-04-24T08:31:06.003Z</time></trkpt><trkpt lat="43.1441715" lon="12.5381926"><ele>245.0</ele><time>2026-04-24T08:31:07.017Z</time></trkpt><trkpt lat="43.1441346" lon="12.5380559"><ele>245.00000000000003</ele><time>2026-04-24T08:31:09.018Z</time></trkpt><trkpt lat="43.1440729" lon="12.5379201"><ele>245.0</ele><time>2026-04-24T08:31:11.02Z</time></trkpt><trkpt lat="43.1440316" lon="12.5378504"><ele>245.0</ele><time>2026-04-24T08:31:12.008Z</time></trkpt><trkpt lat="43.1439723" lon="12.5377841"><ele>245.0</ele><time>2026-04-24T08:31:13.016Z</time></trkpt><trkpt lat="43.1439058" lon="12.5377213"><ele>245.00000000000003</ele><time>2026-04-24T08:31:14.019Z</time></trkpt><trkpt lat="43.1438282" lon="12.5376596"><ele>245.0</ele><time>2026-04-24T08:31:15.017Z</time></trkpt><trkpt lat="43.1437493" lon="12.5375941"><ele>242.8</ele><time>2026-04-24T08:31:16.013Z</time></trkpt><trkpt lat="43.1436783" lon="12.537513"><ele>240.6</ele><time>2026-04-24T08:31:17.017Z</time></trkpt><trkpt lat="43.1436057" lon="12.5374285"><ele>238.39999999999998</ele><time>2026-04-24T08:31:18.014Z</time></trkpt><trkpt lat="43.143542" lon="12.5373266"><ele>236.2</ele><time>2026-04-24T08:31:19.023Z</time></trkpt><trkpt lat="43.1434793" lon="12.5372185"><ele>234.0</ele><time>2026-04-24T08:31:20.024Z</time></trkpt><trkpt lat="43.1434333" lon="12.5371143"><ele>234.2857142857143</ele><time>2026-04-24T08:31:21.018Z</time></trkpt><trkpt lat="43.1433906" lon="12.5370139"><ele>234.5714285714286</ele><time>2026-04-24T08:31:22.021Z</time></trkpt><trkpt lat="43.1433491" lon="12.5369157"><ele>234.85714285714286</ele><time>2026-04-24T08:31:23.021Z</time></trkpt><trkpt lat="43.1433117" lon="12.5368263"><ele>235.14285714285717</ele><time>2026-04-24T08:31:24.034Z</time></trkpt><trkpt lat="43.1432782" lon="12.5367456"><ele>235.42857142857144</ele><time>2026-04-24T08:31:25.009Z</time></trkpt><trkpt lat="43.1432474" lon="12.5366593"><ele>235.71428571428572</ele><time>2026-04-24T08:31:26.013Z</time></trkpt><trkpt lat="43.1432199" lon="12.536579"><ele>236.0</ele><time>2026-04-24T08:31:27.016Z</time></trkpt><trkpt lat="43.1431382" lon="12.5364758"><ele>235.20000000000002</ele><time>2026-04-24T08:31:29.018Z</time></trkpt><trkpt lat="43.1430043" lon="12.536469"><ele>234.40000000000003</ele><time>2026-04-24T08:31:31.017Z</time></trkpt><trkpt lat="43.1429187" lon="12.5364939"><ele>233.6</ele><time>2026-04-24T08:31:32.027Z</time></trkpt><trkpt lat="43.1428423" lon="12.5365195"><ele>232.8</ele><time>2026-04-24T08:31:33.021Z</time></trkpt><trkpt lat="43.1427614" lon="12.5365404"><ele>232.0</ele><time>2026-04-24T08:31:34.016Z</time></trkpt><trkpt lat="43.14267" lon="12.5365631"><ele>232.0</ele><time>2026-04-24T08:31:35.021Z</time></trkpt><trkpt lat="43.1425788" lon="12.5365879"><ele>232.0</ele><time>2026-04-24T08:31:36.001Z</time></trkpt><trkpt lat="43.1424783" lon="12.5366177"><ele>232.0</ele><time>2026-04-24T08:31:37.014Z</time></trkpt><trkpt lat="43.1423672" lon="12.5366557"><ele>232.0</ele><time>2026-04-24T08:31:38.014Z</time></trkpt><trkpt lat="43.1422664" lon="12.5366961"><ele>232.0</ele><time>2026-04-24T08:31:39.011Z</time></trkpt><trkpt lat="43.1421722" lon="12.5367342"><ele>231.99999999999997</ele><time>2026-04-24T08:31:40.013Z</time></trkpt><trkpt lat="43.1420803" lon="12.5367704"><ele>232.0</ele><time>2026-04-24T08:31:41.025Z</time></trkpt><trkpt lat="43.1420006" lon="12.536805"><ele>232.0</ele><time>2026-04-24T08:31:42.006Z</time></trkpt><trkpt lat="43.1419239" lon="12.53684"><ele>232.0</ele><time>2026-04-24T08:31:43.007Z</time></trkpt><trkpt lat="43.1418501" lon="12.5368801"><ele>231.99999999999997</ele><time>2026-04-24T08:31:44.019Z</time></trkpt><trkpt lat="43.1417775" lon="12.5369194"><ele>232.0</ele><time>2026-04-24T08:31:45.011Z</time></trkpt><trkpt lat="43.1417174" lon="12.5369572"><ele>231.99999999999997</ele><time>2026-04-24T08:31:46.011Z</time></trkpt><trkpt lat="43.1416243" lon="12.5370187"><ele>232.0</ele><time>2026-04-24T08:31:48.015Z</time></trkpt><trkpt lat="43.141566" lon="12.5370642"><ele>232.0</ele><time>2026-04-24T08:31:52.016Z</time></trkpt><trkpt lat="43.1415283" lon="12.53718"><ele>232.0</ele><time>2026-04-24T08:32:03.014Z</time></trkpt><trkpt lat="43.1415618" lon="12.5373354"><ele>231.99999999999997</ele><time>2026-04-24T08:32:05.016Z</time></trkpt><trkpt lat="43.1415911" lon="12.5374166"><ele>232.0</ele><time>2026-04-24T08:32:06.013Z</time></trkpt><trkpt lat="43.1416223" lon="12.5375142"><ele>231.99999999999997</ele><time>2026-04-24T08:32:07.02Z</time></trkpt><trkpt lat="43.1416554" lon="12.5376094"><ele>232.0</ele><time>2026-04-24T08:32:08.018Z</time></trkpt><trkpt lat="43.1416911" lon="12.537705"><ele>232.0</ele><time>2026-04-24T08:32:09.01Z</time></trkpt><trkpt lat="43.141728" lon="12.5378145"><ele>232.0</ele><time>2026-04-24T08:32:10.008Z</time></trkpt><trkpt lat="43.1417703" lon="12.537935"><ele>231.99999999999997</ele><time>2026-04-24T08:32:11.016Z</time></trkpt><trkpt lat="43.1418103" lon="12.5380566"><ele>232.0</ele><time>2026-04-24T08:32:12.01Z</time></trkpt><trkpt lat="43.1418554" lon="12.5381779"><ele>231.6</ele><time>2026-04-24T08:32:13Z</time></trkpt><trkpt lat="43.1419005" lon="12.5383018"><ele>231.2</ele><time>2026-04-24T08:32:14.01Z</time></trkpt><trkpt lat="43.1419487" lon="12.5384289"><ele>230.8</ele><time>2026-04-24T08:32:15.005Z</time></trkpt><trkpt lat="43.1419989" lon="12.538566"><ele>230.4</ele><time>2026-04-24T08:32:16.008Z</time></trkpt><trkpt lat="43.1420506" lon="12.5386935"><ele>230.0</ele><time>2026-04-24T08:32:17.021Z</time></trkpt><trkpt lat="43.1420993" lon="12.5388239"><ele>229.75</ele><time>2026-04-24T08:32:18.006Z</time></trkpt><trkpt lat="43.1421486" lon="12.5389582"><ele>229.5</ele><time>2026-04-24T08:32:19.015Z</time></trkpt><trkpt lat="43.1421961" lon="12.5390957"><ele>229.25</ele><time>2026-04-24T08:32:20.012Z</time></trkpt><trkpt lat="43.1422491" lon="12.5392445"><ele>229.0</ele><time>2026-04-24T08:32:21.017Z</time></trkpt><trkpt lat="43.1423078" lon="12.5394033"><ele>229.0</ele><time>2026-04-24T08:32:22.007Z</time></trkpt><trkpt lat="43.1423632" lon="12.5395587"><ele>229.0</ele><time>2026-04-24T08:32:23.009Z</time></trkpt><trkpt lat="43.1424139" lon="12.5397174"><ele>229.0</ele><time>2026-04-24T08:32:24.019Z</time></trkpt><trkpt lat="43.1424631" lon="12.5398681"><ele>229.0</ele><time>2026-04-24T08:32:25.006Z</time></trkpt><trkpt lat="43.1425135" lon="12.5400161"><ele>229.25</ele><time>2026-04-24T08:32:26.01Z</time></trkpt><trkpt lat="43.1425602" lon="12.5401713"><ele>229.5</ele><time>2026-04-24T08:32:27.008Z</time></trkpt><trkpt lat="43.1426125" lon="12.5403237"><ele>229.75</ele><time>2026-04-24T08:32:28.001Z</time></trkpt><trkpt lat="43.1426667" lon="12.5404813"><ele>230.0</ele><time>2026-04-24T08:32:29.012Z</time></trkpt><trkpt lat="43.14272" lon="12.5406345"><ele>230.0</ele><time>2026-04-24T08:32:30.006Z</time></trkpt><trkpt lat="43.142771" lon="12.5407989"><ele>230.0</ele><time>2026-04-24T08:32:31.012Z</time></trkpt><trkpt lat="43.1428243" lon="12.5409631"><ele>230.0</ele><time>2026-04-24T08:32:32.009Z</time></trkpt><trkpt lat="43.1428798" lon="12.541133"><ele>230.0</ele><time>2026-04-24T08:32:33.008Z</time></trkpt><trkpt lat="43.1429328" lon="12.5412984"><ele>229.5</ele><time>2026-04-24T08:32:34.005Z</time></trkpt><trkpt lat="43.1429751" lon="12.5414595"><ele>229.0</ele><time>2026-04-24T08:32:35.007Z</time></trkpt><trkpt lat="43.143" lon="12.541626"><ele>228.5</ele><time>2026-04-24T08:32:36.008Z</time></trkpt><trkpt lat="43.1430236" lon="12.5417904"><ele>228.0</ele><time>2026-04-24T08:32:37.011Z</time></trkpt><trkpt lat="43.1430353" lon="12.5419542"><ele>227.5</ele><time>2026-04-24T08:32:38.016Z</time></trkpt><trkpt lat="43.1430583" lon="12.5421261"><ele>227.0</ele><time>2026-04-24T08:32:39.033Z</time></trkpt><trkpt lat="43.1430737" lon="12.5422968"><ele>226.5</ele><time>2026-04-24T08:32:40.01Z</time></trkpt><trkpt lat="43.143101" lon="12.5424708"><ele>226.0</ele><time>2026-04-24T08:32:41.006Z</time></trkpt><trkpt lat="43.1431142" lon="12.5426609"><ele>226.0</ele><time>2026-04-24T08:32:42.015Z</time></trkpt><trkpt lat="43.1431338" lon="12.5428479"><ele>226.0</ele><time>2026-04-24T08:32:43.005Z</time></trkpt><trkpt lat="43.1431493" lon="12.5430277"><ele>226.0</ele><time>2026-04-24T08:32:44.003Z</time></trkpt><trkpt lat="43.1431647" lon="12.5432127"><ele>226.0</ele><time>2026-04-24T08:32:45.008Z</time></trkpt><trkpt lat="43.1431755" lon="12.543388"><ele>227.25</ele><time>2026-04-24T08:32:46.01Z</time></trkpt><trkpt lat="43.143185" lon="12.5435643"><ele>228.5</ele><time>2026-04-24T08:32:47.005Z</time></trkpt><trkpt lat="43.1432062" lon="12.5437447"><ele>229.75</ele><time>2026-04-24T08:32:48.025Z</time></trkpt><trkpt lat="43.1432167" lon="12.5439181"><ele>231.0</ele><time>2026-04-24T08:32:49.008Z</time></trkpt><trkpt lat="43.1432267" lon="12.5440951"><ele>231.0</ele><time>2026-04-24T08:32:50.007Z</time></trkpt><trkpt lat="43.1432356" lon="12.5442744"><ele>231.0</ele><time>2026-04-24T08:32:51.011Z</time></trkpt><trkpt lat="43.1432431" lon="12.5444544"><ele>231.0</ele><time>2026-04-24T08:32:52.019Z</time></trkpt><trkpt lat="43.1432514" lon="12.5446414"><ele>231.0</ele><time>2026-04-24T08:32:53.011Z</time></trkpt><trkpt lat="43.1432635" lon="12.5448282"><ele>230.5</ele><time>2026-04-24T08:32:54.001Z</time></trkpt><trkpt lat="43.1432784" lon="12.5450214"><ele>230.0</ele><time>2026-04-24T08:32:55.023Z</time></trkpt><trkpt lat="43.1432934" lon="12.545216"><ele>229.5</ele><time>2026-04-24T08:32:56.005Z</time></trkpt><trkpt lat="43.1433082" lon="12.54542"><ele>229.0</ele><time>2026-04-24T08:32:57.008Z</time></trkpt><trkpt lat="43.1433242" lon="12.5456324"><ele>229.0</ele><time>2026-04-24T08:32:58.012Z</time></trkpt><trkpt lat="43.1433452" lon="12.5458408"><ele>229.0</ele><time>2026-04-24T08:32:59.017Z</time></trkpt><trkpt lat="43.1433684" lon="12.5460592"><ele>229.0</ele><time>2026-04-24T08:33:00.01Z</time></trkpt><trkpt lat="43.1433829" lon="12.5462733"><ele>229.0</ele><time>2026-04-24T08:33:01.018Z</time></trkpt><trkpt lat="43.1434079" lon="12.5464781"><ele>229.0</ele><time>2026-04-24T08:33:02.016Z</time></trkpt><trkpt lat="43.1434296" lon="12.546688"><ele>229.0</ele><time>2026-04-24T08:33:03.007Z</time></trkpt><trkpt lat="43.1434376" lon="12.5469022"><ele>229.33333333333331</ele><time>2026-04-24T08:33:03.998Z</time></trkpt><trkpt lat="43.1434556" lon="12.5471197"><ele>229.66666666666669</ele><time>2026-04-24T08:33:05.002Z</time></trkpt><trkpt lat="43.143473" lon="12.5473344"><ele>230.0</ele><time>2026-04-24T08:33:06.012Z</time></trkpt><trkpt lat="43.1434905" lon="12.5475465"><ele>230.0</ele><time>2026-04-24T08:33:07.012Z</time></trkpt><trkpt lat="43.1435063" lon="12.5477686"><ele>230.0</ele><time>2026-04-24T08:33:08Z</time></trkpt><trkpt lat="43.1435221" lon="12.5479939"><ele>230.0</ele><time>2026-04-24T08:33:09.003Z</time></trkpt><trkpt lat="43.1435407" lon="12.5482228"><ele>230.0</ele><time>2026-04-24T08:33:10.002Z</time></trkpt><trkpt lat="43.1435594" lon="12.548451"><ele>230.0</ele><time>2026-04-24T08:33:11.001Z</time></trkpt><trkpt lat="43.1435788" lon="12.5486844"><ele>230.0</ele><time>2026-04-24T08:33:12.003Z</time></trkpt><trkpt lat="43.1435957" lon="12.5489168"><ele>230.33333333333334</ele><time>2026-04-24T08:33:13.012Z</time></trkpt><trkpt lat="43.1436165" lon="12.5491529"><ele>230.66666666666669</ele><time>2026-04-24T08:33:14.007Z</time></trkpt><trkpt lat="43.1436365" lon="12.5493935"><ele>231.0</ele><time>2026-04-24T08:33:15.006Z</time></trkpt><trkpt lat="43.1436553" lon="12.5496373"><ele>231.33333333333331</ele><time>2026-04-24T08:33:16.012Z</time></trkpt><trkpt lat="43.1436724" lon="12.5498857"><ele>231.66666666666666</ele><time>2026-04-24T08:33:17.014Z</time></trkpt><trkpt lat="43.1436926" lon="12.550139"><ele>232.0</ele><time>2026-04-24T08:33:18.004Z</time></trkpt><trkpt lat="43.1437124" lon="12.5503889"><ele>231.33333333333331</ele><time>2026-04-24T08:33:19.01Z</time></trkpt><trkpt lat="43.1437299" lon="12.5506422"><ele>230.66666666666669</ele><time>2026-04-24T08:33:20.024Z</time></trkpt><trkpt lat="43.1437492" lon="12.5508933"><ele>230.0</ele><time>2026-04-24T08:33:21.006Z</time></trkpt><trkpt lat="43.1437659" lon="12.5511505"><ele>229.33333333333334</ele><time>2026-04-24T08:33:22.011Z</time></trkpt><trkpt lat="43.1437843" lon="12.5514087"><ele>228.66666666666669</ele><time>2026-04-24T08:33:23.015Z</time></trkpt><trkpt lat="43.1438027" lon="12.5516665"><ele>228.0</ele><time>2026-04-24T08:33:24.004Z</time></trkpt><trkpt lat="43.14382" lon="12.5519262"><ele>228.66666666666669</ele><time>2026-04-24T08:33:25.022Z</time></trkpt><trkpt lat="43.1438376" lon="12.5521913"><ele>229.33333333333334</ele><time>2026-04-24T08:33:26.002Z</time></trkpt><trkpt lat="43.1438571" lon="12.55245"><ele>230.0</ele><time>2026-04-24T08:33:27.014Z</time></trkpt><trkpt lat="43.1438751" lon="12.5527153"><ele>230.66666666666669</ele><time>2026-04-24T08:33:28.012Z</time></trkpt><trkpt lat="43.1438893" lon="12.5529783"><ele>231.33333333333331</ele><time>2026-04-24T08:33:29.014Z</time></trkpt><trkpt lat="43.1439062" lon="12.5532443"><ele>232.0</ele><time>2026-04-24T08:33:30.003Z</time></trkpt><trkpt lat="43.1439244" lon="12.5535127"><ele>232.33333333333331</ele><time>2026-04-24T08:33:31.012Z</time></trkpt><trkpt lat="43.1439449" lon="12.5537797"><ele>232.66666666666669</ele><time>2026-04-24T08:33:32.016Z</time></trkpt><trkpt lat="43.1439659" lon="12.5540412"><ele>233.0</ele><time>2026-04-24T08:33:33.01Z</time></trkpt><trkpt lat="43.1439906" lon="12.5543087"><ele>232.66666666666669</ele><time>2026-04-24T08:33:34.02Z</time></trkpt><trkpt lat="43.1440197" lon="12.5545764"><ele>232.33333333333331</ele><time>2026-04-24T08:33:35.017Z</time></trkpt><trkpt lat="43.1440536" lon="12.5548386"><ele>232.0</ele><time>2026-04-24T08:33:36.008Z</time></trkpt><trkpt lat="43.1440893" lon="12.5551055"><ele>237.33333333333331</ele><time>2026-04-24T08:33:37.023Z</time></trkpt><trkpt lat="43.1441156" lon="12.5553747"><ele>242.66666666666669</ele><time>2026-04-24T08:33:38.009Z</time></trkpt><trkpt lat="43.1441466" lon="12.5556366"><ele>248.0</ele><time>2026-04-24T08:33:39.003Z</time></trkpt><trkpt lat="43.1441746" lon="12.555887"><ele>248.0</ele><time>2026-04-24T08:33:40.014Z</time></trkpt><trkpt lat="43.1442033" lon="12.5561359"><ele>248.0</ele><time>2026-04-24T08:33:41.025Z</time></trkpt><trkpt lat="43.1442307" lon="12.5563833"><ele>248.0</ele><time>2026-04-24T08:33:42.005Z</time></trkpt><trkpt lat="43.1442557" lon="12.5566383"><ele>246.66666666666669</ele><time>2026-04-24T08:33:43.001Z</time></trkpt><trkpt lat="43.1442792" lon="12.5568885"><ele>245.33333333333331</ele><time>2026-04-24T08:33:44.015Z</time></trkpt><trkpt lat="43.1442959" lon="12.5571363"><ele>244.0</ele><time>2026-04-24T08:33:45.009Z</time></trkpt><trkpt lat="43.1443036" lon="12.5573909"><ele>243.33333333333331</ele><time>2026-04-24T08:33:46.011Z</time></trkpt><trkpt lat="43.1443076" lon="12.5576367"><ele>242.66666666666669</ele><time>2026-04-24T08:33:47.027Z</time></trkpt><trkpt lat="43.1443069" lon="12.5578915"><ele>242.0</ele><time>2026-04-24T08:33:48.011Z</time></trkpt><trkpt lat="43.1443053" lon="12.5581482"><ele>242.0</ele><time>2026-04-24T08:33:49.019Z</time></trkpt><trkpt lat="43.1442905" lon="12.5584051"><ele>242.0</ele><time>2026-04-24T08:33:50.008Z</time></trkpt><trkpt lat="43.1442694" lon="12.558663"><ele>242.0</ele><time>2026-04-24T08:33:51.022Z</time></trkpt><trkpt lat="43.1442528" lon="12.5589177"><ele>242.66666666666669</ele><time>2026-04-24T08:33:52.012Z</time></trkpt><trkpt lat="43.1442274" lon="12.5591649"><ele>243.33333333333331</ele><time>2026-04-24T08:33:53.02Z</time></trkpt><trkpt lat="43.1442" lon="12.5594071"><ele>244.0</ele><time>2026-04-24T08:33:54.027Z</time></trkpt><trkpt lat="43.1441639" lon="12.55965"><ele>244.66666666666666</ele><time>2026-04-24T08:33:55.029Z</time></trkpt><trkpt lat="43.1441378" lon="12.5598916"><ele>245.33333333333331</ele><time>2026-04-24T08:33:56.013Z</time></trkpt><trkpt lat="43.1441169" lon="12.5601177"><ele>246.0</ele><time>2026-04-24T08:33:57.008Z</time></trkpt><trkpt lat="43.1440937" lon="12.5603238"><ele>247.0</ele><time>2026-04-24T08:33:58.035Z</time></trkpt><trkpt lat="43.1440578" lon="12.5605163"><ele>248.0</ele><time>2026-04-24T08:33:59.01Z</time></trkpt><trkpt lat="43.1440182" lon="12.5607022"><ele>249.0</ele><time>2026-04-24T08:34:00.016Z</time></trkpt><trkpt lat="43.1439863" lon="12.5609096"><ele>250.0</ele><time>2026-04-24T08:34:01.004Z</time></trkpt><trkpt lat="43.1439638" lon="12.5611352"><ele>250.0</ele><time>2026-04-24T08:34:02.026Z</time></trkpt><trkpt lat="43.1439753" lon="12.5613576"><ele>250.0</ele><time>2026-04-24T08:34:03.028Z</time></trkpt><trkpt lat="43.144013" lon="12.5615771"><ele>250.0</ele><time>2026-04-24T08:34:04.015Z</time></trkpt><trkpt lat="43.1440704" lon="12.5617701"><ele>250.0</ele><time>2026-04-24T08:34:05.027Z</time></trkpt><trkpt lat="43.1441376" lon="12.561953"><ele>250.0</ele><time>2026-04-24T08:34:06.02Z</time></trkpt><trkpt lat="43.144214" lon="12.5621295"><ele>250.0</ele><time>2026-04-24T08:34:07.033Z</time></trkpt><trkpt lat="43.1442942" lon="12.5623164"><ele>248.66666666666666</ele><time>2026-04-24T08:34:08.01Z</time></trkpt><trkpt lat="43.1443701" lon="12.5625083"><ele>247.33333333333331</ele><time>2026-04-24T08:34:09.022Z</time></trkpt><trkpt lat="43.1444422" lon="12.5626978"><ele>246.0</ele><time>2026-04-24T08:34:10.023Z</time></trkpt><trkpt lat="43.1445057" lon="12.5628816"><ele>245.0</ele><time>2026-04-24T08:34:11.029Z</time></trkpt><trkpt lat="43.1445537" lon="12.5630602"><ele>244.0</ele><time>2026-04-24T08:34:12.025Z</time></trkpt><trkpt lat="43.1445852" lon="12.5632483"><ele>243.0</ele><time>2026-04-24T08:34:13.022Z</time></trkpt><trkpt lat="43.1446021" lon="12.563447"><ele>242.0</ele><time>2026-04-24T08:34:14.026Z</time></trkpt><trkpt lat="43.14458" lon="12.5636593"><ele>240.66666666666669</ele><time>2026-04-24T08:34:15.009Z</time></trkpt><trkpt lat="43.1445179" lon="12.5638618"><ele>239.33333333333331</ele><time>2026-04-24T08:34:16.022Z</time></trkpt><trkpt lat="43.1444275" lon="12.5640643"><ele>238.0</ele><time>2026-04-24T08:34:17.023Z</time></trkpt><trkpt lat="43.1443201" lon="12.5642642"><ele>238.0</ele><time>2026-04-24T08:34:18.02Z</time></trkpt><trkpt lat="43.1442256" lon="12.5644612"><ele>238.0</ele><time>2026-04-24T08:34:19.022Z</time></trkpt><trkpt lat="43.1441409" lon="12.5646533"><ele>238.0</ele><time>2026-04-24T08:34:20.02Z</time></trkpt><trkpt lat="43.1440601" lon="12.5648379"><ele>237.66666666666666</ele><time>2026-04-24T08:34:21.021Z</time></trkpt><trkpt lat="43.1439759" lon="12.5650216"><ele>237.33333333333331</ele><time>2026-04-24T08:34:22.019Z</time></trkpt><trkpt lat="43.1438849" lon="12.5652129"><ele>237.0</ele><time>2026-04-24T08:34:23.028Z</time></trkpt><trkpt lat="43.1437956" lon="12.565402"><ele>237.0</ele><time>2026-04-24T08:34:24.006Z</time></trkpt><trkpt lat="43.1437104" lon="12.5655773"><ele>237.0</ele><time>2026-04-24T08:34:25.021Z</time></trkpt><trkpt lat="43.1436302" lon="12.5657535"><ele>237.0</ele><time>2026-04-24T08:34:26.021Z</time></trkpt><trkpt lat="43.143564" lon="12.5659195"><ele>237.0</ele><time>2026-04-24T08:34:27.028Z</time></trkpt><trkpt lat="43.1435235" lon="12.5661035"><ele>238.0</ele><time>2026-04-24T08:34:28.024Z</time></trkpt><trkpt lat="43.1435209" lon="12.5662884"><ele>239.0</ele><time>2026-04-24T08:34:29.024Z</time></trkpt><trkpt lat="43.143541" lon="12.5664872"><ele>240.0</ele><time>2026-04-24T08:34:30.013Z</time></trkpt><trkpt lat="43.1435828" lon="12.566689"><ele>241.0</ele><time>2026-04-24T08:34:31.022Z</time></trkpt><trkpt lat="43.1436462" lon="12.5668822"><ele>241.33333333333331</ele><time>2026-04-24T08:34:32.008Z</time></trkpt><trkpt lat="43.1437168" lon="12.567085"><ele>241.66666666666669</ele><time>2026-04-24T08:34:33.024Z</time></trkpt><trkpt lat="43.1437925" lon="12.5672891"><ele>242.0</ele><time>2026-04-24T08:34:34.017Z</time></trkpt><trkpt lat="43.1438638" lon="12.5674981"><ele>242.0</ele><time>2026-04-24T08:34:35.026Z</time></trkpt><trkpt lat="43.143936" lon="12.567712"><ele>242.0</ele><time>2026-04-24T08:34:36.022Z</time></trkpt><trkpt lat="43.1440144" lon="12.5679285"><ele>242.0</ele><time>2026-04-24T08:34:37.018Z</time></trkpt><trkpt lat="43.1440875" lon="12.568143"><ele>241.66666666666669</ele><time>2026-04-24T08:34:38.014Z</time></trkpt><trkpt lat="43.1441631" lon="12.5683567"><ele>241.33333333333331</ele><time>2026-04-24T08:34:39.019Z</time></trkpt><trkpt lat="43.1442374" lon="12.5685683"><ele>241.0</ele><time>2026-04-24T08:34:40.003Z</time></trkpt><trkpt lat="43.1443125" lon="12.568779"><ele>241.0</ele><time>2026-04-24T08:34:41.018Z</time></trkpt><trkpt lat="43.1443833" lon="12.568991"><ele>241.0</ele><time>2026-04-24T08:34:42.017Z</time></trkpt><trkpt lat="43.1444554" lon="12.5692025"><ele>241.0</ele><time>2026-04-24T08:34:43.024Z</time></trkpt><trkpt lat="43.1445293" lon="12.5694146"><ele>243.0</ele><time>2026-04-24T08:34:44.016Z</time></trkpt><trkpt lat="43.1446008" lon="12.5696159"><ele>245.0</ele><time>2026-04-24T08:34:45.018Z</time></trkpt><trkpt lat="43.1446667" lon="12.5698011"><ele>247.0</ele><time>2026-04-24T08:34:46.017Z</time></trkpt><trkpt lat="43.1447308" lon="12.5699812"><ele>247.0</ele><time>2026-04-24T08:34:47.023Z</time></trkpt><trkpt lat="43.1447898" lon="12.5701652"><ele>247.0</ele><time>2026-04-24T08:34:48.008Z</time></trkpt><trkpt lat="43.1448311" lon="12.5703661"><ele>247.0</ele><time>2026-04-24T08:34:49.017Z</time></trkpt><trkpt lat="43.1448396" lon="12.570575"><ele>246.75</ele><time>2026-04-24T08:34:50.028Z</time></trkpt><trkpt lat="43.144818" lon="12.5707807"><ele>246.5</ele><time>2026-04-24T08:34:51.008Z</time></trkpt><trkpt lat="43.1447636" lon="12.5709713"><ele>246.25</ele><time>2026-04-24T08:34:52.012Z</time></trkpt><trkpt lat="43.1447003" lon="12.5711376"><ele>246.0</ele><time>2026-04-24T08:34:53.033Z</time></trkpt><trkpt lat="43.1446238" lon="12.5712909"><ele>246.75</ele><time>2026-04-24T08:34:54.019Z</time></trkpt><trkpt lat="43.1445569" lon="12.5714229"><ele>247.5</ele><time>2026-04-24T08:34:55.023Z</time></trkpt><trkpt lat="43.1444938" lon="12.5715521"><ele>248.25</ele><time>2026-04-24T08:34:56.005Z</time></trkpt><trkpt lat="43.1444292" lon="12.5716878"><ele>249.0</ele><time>2026-04-24T08:34:57.021Z</time></trkpt><trkpt lat="43.1443598" lon="12.5718299"><ele>249.0</ele><time>2026-04-24T08:34:58.022Z</time></trkpt><trkpt lat="43.1442784" lon="12.5719773"><ele>249.0</ele><time>2026-04-24T08:34:59.01Z</time></trkpt><trkpt lat="43.1442023" lon="12.5721314"><ele>249.0</ele><time>2026-04-24T08:35:00.005Z</time></trkpt><trkpt lat="43.1441258" lon="12.5722878"><ele>249.0</ele><time>2026-04-24T08:35:01.023Z</time></trkpt><trkpt lat="43.1440436" lon="12.5724576"><ele>255.0</ele><time>2026-04-24T08:35:02.008Z</time></trkpt><trkpt lat="43.1439764" lon="12.5726202"><ele>261.0</ele><time>2026-04-24T08:35:03.004Z</time></trkpt><trkpt lat="43.1439118" lon="12.5727842"><ele>267.0</ele><time>2026-04-24T08:35:04.011Z</time></trkpt><trkpt lat="43.1438583" lon="12.5729448"><ele>273.0</ele><time>2026-04-24T08:35:05.018Z</time></trkpt><trkpt lat="43.1438205" lon="12.5730928"><ele>273.0</ele><time>2026-04-24T08:35:06.03Z</time></trkpt><trkpt lat="43.1437888" lon="12.5732614"><ele>273.0</ele><time>2026-04-24T08:35:07.009Z</time></trkpt><trkpt lat="43.1437655" lon="12.5733821"><ele>273.0</ele><time>2026-04-24T08:35:08.016Z</time></trkpt><trkpt lat="43.1437378" lon="12.5734997"><ele>273.0</ele><time>2026-04-24T08:35:09.004Z</time></trkpt><trkpt lat="43.1437119" lon="12.5736228"><ele>273.0</ele><time>2026-04-24T08:35:10.016Z</time></trkpt><trkpt lat="43.1436835" lon="12.5737416"><ele>273.0</ele><time>2026-04-24T08:35:11.026Z</time></trkpt><trkpt lat="43.1436561" lon="12.5738457"><ele>273.0</ele><time>2026-04-24T08:35:12.017Z</time></trkpt><trkpt lat="43.1436431" lon="12.5739461"><ele>273.0</ele><time>2026-04-24T08:35:13.018Z</time></trkpt><trkpt lat="43.1436272" lon="12.5740412"><ele>273.0</ele><time>2026-04-24T08:35:14.01Z</time></trkpt><trkpt lat="43.1436116" lon="12.5741269"><ele>273.0</ele><time>2026-04-24T08:35:15.019Z</time></trkpt><trkpt lat="43.1435883" lon="12.5742653"><ele>273.0</ele><time>2026-04-24T08:35:17.023Z</time></trkpt><trkpt lat="43.1435843" lon="12.5743641"><ele>273.0</ele><time>2026-04-24T08:35:18.027Z</time></trkpt><trkpt lat="43.1435821" lon="12.5744727"><ele>273.0</ele><time>2026-04-24T08:35:19.028Z</time></trkpt><trkpt lat="43.1435736" lon="12.574599"><ele>273.0</ele><time>2026-04-24T08:35:20.002Z</time></trkpt><trkpt lat="43.1435681" lon="12.5747382"><ele>273.0</ele><time>2026-04-24T08:35:21.019Z</time></trkpt><trkpt lat="43.1435784" lon="12.5748929"><ele>273.0</ele><time>2026-04-24T08:35:22.009Z</time></trkpt><trkpt lat="43.1435923" lon="12.5750544"><ele>273.5</ele><time>2026-04-24T08:35:23.005Z</time></trkpt><trkpt lat="43.1436245" lon="12.5752104"><ele>274.0</ele><time>2026-04-24T08:35:24.007Z</time></trkpt><trkpt lat="43.143661" lon="12.5753658"><ele>274.5</ele><time>2026-04-24T08:35:25.025Z</time></trkpt><trkpt lat="43.1437071" lon="12.5755211"><ele>275.0</ele><time>2026-04-24T08:35:26.021Z</time></trkpt><trkpt lat="43.1437564" lon="12.5756666"><ele>276.0</ele><time>2026-04-24T08:35:27.024Z</time></trkpt><trkpt lat="43.1438104" lon="12.5758072"><ele>277.0</ele><time>2026-04-24T08:35:28.01Z</time></trkpt><trkpt lat="43.1438687" lon="12.5759442"><ele>278.0</ele><time>2026-04-24T08:35:29.005Z</time></trkpt><trkpt lat="43.1439298" lon="12.5760692"><ele>279.0</ele><time>2026-04-24T08:35:30.017Z</time></trkpt><trkpt lat="43.1439889" lon="12.5762021"><ele>272.8</ele><time>2026-04-24T08:35:31.028Z</time></trkpt><trkpt lat="43.1440481" lon="12.5763346"><ele>266.59999999999997</ele><time>2026-04-24T08:35:32.005Z</time></trkpt><trkpt lat="43.1441096" lon="12.5764645"><ele>260.4</ele><time>2026-04-24T08:35:33.025Z</time></trkpt><trkpt lat="43.1441724" lon="12.5765923"><ele>254.2</ele><time>2026-04-24T08:35:34.011Z</time></trkpt><trkpt lat="43.1442291" lon="12.5767195"><ele>248.0</ele><time>2026-04-24T08:35:35.026Z</time></trkpt><trkpt lat="43.1442833" lon="12.5768492"><ele>248.0</ele><time>2026-04-24T08:35:36.019Z</time></trkpt><trkpt lat="43.1443367" lon="12.5769725"><ele>248.0</ele><time>2026-04-24T08:35:37.008Z</time></trkpt><trkpt lat="43.1443883" lon="12.5770989"><ele>248.0</ele><time>2026-04-24T08:35:38.015Z</time></trkpt><trkpt lat="43.1444418" lon="12.5772315"><ele>248.0</ele><time>2026-04-24T08:35:39.018Z</time></trkpt><trkpt lat="43.1444936" lon="12.5773731"><ele>248.0</ele><time>2026-04-24T08:35:40.021Z</time></trkpt><trkpt lat="43.1445511" lon="12.5775221"><ele>250.75</ele><time>2026-04-24T08:35:41.01Z</time></trkpt><trkpt lat="43.1446155" lon="12.5776785"><ele>253.5</ele><time>2026-04-24T08:35:42.017Z</time></trkpt><trkpt lat="43.1446791" lon="12.5778418"><ele>256.25</ele><time>2026-04-24T08:35:43.018Z</time></trkpt><trkpt lat="43.1447459" lon="12.5780205"><ele>259.0</ele><time>2026-04-24T08:35:44.02Z</time></trkpt><trkpt lat="43.1448133" lon="12.5782043"><ele>256.5</ele><time>2026-04-24T08:35:45.009Z</time></trkpt><trkpt lat="43.144879" lon="12.5783869"><ele>254.0</ele><time>2026-04-24T08:35:46.007Z</time></trkpt><trkpt lat="43.1449434" lon="12.5785513"><ele>251.5</ele><time>2026-04-24T08:35:47.023Z</time></trkpt><trkpt lat="43.145017" lon="12.5787076"><ele>249.0</ele><time>2026-04-24T08:35:48.017Z</time></trkpt><trkpt lat="43.1450943" lon="12.5788482"><ele>254.75</ele><time>2026-04-24T08:35:49.018Z</time></trkpt><trkpt lat="43.1451887" lon="12.5789589"><ele>260.5</ele><time>2026-04-24T08:35:50.016Z</time></trkpt><trkpt lat="43.145301" lon="12.5790482"><ele>266.25</ele><time>2026-04-24T08:35:51.017Z</time></trkpt><trkpt lat="43.1454205" lon="12.5791248"><ele>272.0</ele><time>2026-04-24T08:35:52.024Z</time></trkpt><trkpt lat="43.1455438" lon="12.5791869"><ele>272.0</ele><time>2026-04-24T08:35:53.019Z</time></trkpt><trkpt lat="43.1456811" lon="12.579246"><ele>272.0</ele><time>2026-04-24T08:35:54.019Z</time></trkpt><trkpt lat="43.1458164" lon="12.5792963"><ele>272.0</ele><time>2026-04-24T08:35:55.027Z</time></trkpt><trkpt lat="43.1459536" lon="12.5793358"><ele>272.0</ele><time>2026-04-24T08:35:56.007Z</time></trkpt><trkpt lat="43.1460863" lon="12.5793589"><ele>267.25</ele><time>2026-04-24T08:35:57.019Z</time></trkpt><trkpt lat="43.1462126" lon="12.5793618"><ele>262.5</ele><time>2026-04-24T08:35:58.016Z</time></trkpt><trkpt lat="43.1463292" lon="12.5793588"><ele>257.75</ele><time>2026-04-24T08:35:59.014Z</time></trkpt><trkpt lat="43.1464354" lon="12.5793605"><ele>253.0</ele><time>2026-04-24T08:36:00.008Z</time></trkpt><trkpt lat="43.146544" lon="12.5793576"><ele>251.83333333333331</ele><time>2026-04-24T08:36:01.018Z</time></trkpt><trkpt lat="43.1466403" lon="12.5793574"><ele>250.66666666666666</ele><time>2026-04-24T08:36:02.017Z</time></trkpt><trkpt lat="43.146739" lon="12.5793454"><ele>249.5</ele><time>2026-04-24T08:36:03.021Z</time></trkpt><trkpt lat="43.1468121" lon="12.5793451"><ele>248.33333333333331</ele><time>2026-04-24T08:36:04.012Z</time></trkpt><trkpt lat="43.1468939" lon="12.5793052"><ele>247.16666666666666</ele><time>2026-04-24T08:36:06.012Z</time></trkpt><trkpt lat="43.1468503" lon="12.5792305"><ele>246.0</ele><time>2026-04-24T08:36:09.012Z</time></trkpt><trkpt lat="43.1467646" lon="12.5792873"><ele>246.0</ele><time>2026-04-24T08:36:11.01Z</time></trkpt><trkpt lat="43.1466924" lon="12.5793018"><ele>246.00000000000003</ele><time>2026-04-24T08:36:12.004Z</time></trkpt><trkpt lat="43.1465991" lon="12.5793109"><ele>246.00000000000003</ele><time>2026-04-24T08:36:13.017Z</time></trkpt><trkpt lat="43.1464904" lon="12.5793228"><ele>246.0</ele><time>2026-04-24T08:36:14.009Z</time></trkpt><trkpt lat="43.1463688" lon="12.5793239"><ele>246.0</ele><time>2026-04-24T08:36:15.011Z</time></trkpt><trkpt lat="43.1462327" lon="12.5793306"><ele>248.33333333333331</ele><time>2026-04-24T08:36:16.014Z</time></trkpt><trkpt lat="43.1460891" lon="12.5793287"><ele>250.66666666666666</ele><time>2026-04-24T08:36:17.006Z</time></trkpt><trkpt lat="43.1459371" lon="12.579315"><ele>253.0</ele><time>2026-04-24T08:36:18.022Z</time></trkpt><trkpt lat="43.1457838" lon="12.5792894"><ele>259.3333333333333</ele><time>2026-04-24T08:36:19.008Z</time></trkpt><trkpt lat="43.1456142" lon="12.5792278"><ele>265.6666666666667</ele><time>2026-04-24T08:36:19.996Z</time></trkpt><trkpt lat="43.1454386" lon="12.5791346"><ele>272.0</ele><time>2026-04-24T08:36:21.024Z</time></trkpt><trkpt lat="43.1452802" lon="12.5790326"><ele>272.0</ele><time>2026-04-24T08:36:22.023Z</time></trkpt><trkpt lat="43.1451458" lon="12.5789037"><ele>272.0</ele><time>2026-04-24T08:36:23.024Z</time></trkpt><trkpt lat="43.1450306" lon="12.5787325"><ele>272.0</ele><time>2026-04-24T08:36:24.017Z</time></trkpt><trkpt lat="43.1449346" lon="12.578556"><ele>271.33333333333337</ele><time>2026-04-24T08:36:25.014Z</time></trkpt><trkpt lat="43.1448541" lon="12.5783425"><ele>270.6666666666667</ele><time>2026-04-24T08:36:26.004Z</time></trkpt><trkpt lat="43.1447849" lon="12.578126"><ele>270.0</ele><time>2026-04-24T08:36:27.011Z</time></trkpt><trkpt lat="43.1447098" lon="12.5779182"><ele>266.3333333333333</ele><time>2026-04-24T08:36:28.021Z</time></trkpt><trkpt lat="43.1446388" lon="12.5777227"><ele>262.66666666666663</ele><time>2026-04-24T08:36:29.014Z</time></trkpt><trkpt lat="43.1445691" lon="12.5775361"><ele>259.0</ele><time>2026-04-24T08:36:30.02Z</time></trkpt><trkpt lat="43.1444994" lon="12.577347"><ele>259.0</ele><time>2026-04-24T08:36:31.012Z</time></trkpt><trkpt lat="43.1444248" lon="12.5771563"><ele>259.0</ele><time>2026-04-24T08:36:32.024Z</time></trkpt><trkpt lat="43.1443505" lon="12.5769578"><ele>259.0</ele><time>2026-04-24T08:36:33.008Z</time></trkpt><trkpt lat="43.1442689" lon="12.5767662"><ele>255.33333333333331</ele><time>2026-04-24T08:36:34.012Z</time></trkpt><trkpt lat="43.1441812" lon="12.576582"><ele>251.66666666666669</ele><time>2026-04-24T08:36:35.015Z</time></trkpt><trkpt lat="43.1440916" lon="12.5763983"><ele>248.0</ele><time>2026-04-24T08:36:36.004Z</time></trkpt><trkpt lat="43.1439935" lon="12.5762193"><ele>258.33333333333337</ele><time>2026-04-24T08:36:37.001Z</time></trkpt><trkpt lat="43.1439055" lon="12.5760406"><ele>268.6666666666667</ele><time>2026-04-24T08:36:38.011Z</time></trkpt><trkpt lat="43.1438195" lon="12.5758567"><ele>279.0</ele><time>2026-04-24T08:36:39.019Z</time></trkpt><trkpt lat="43.143748" lon="12.5756604"><ele>279.0</ele><time>2026-04-24T08:36:39.999Z</time></trkpt><trkpt lat="43.1436869" lon="12.5754707"><ele>279.0</ele><time>2026-04-24T08:36:41.011Z</time></trkpt><trkpt lat="43.1436284" lon="12.5752944"><ele>279.0</ele><time>2026-04-24T08:36:42.003Z</time></trkpt><trkpt lat="43.143589" lon="12.5751024"><ele>279.0</ele><time>2026-04-24T08:36:43.014Z</time></trkpt><trkpt lat="43.1435736" lon="12.5748833"><ele>277.6666666666667</ele><time>2026-04-24T08:36:44.005Z</time></trkpt><trkpt lat="43.1435701" lon="12.5746689"><ele>276.33333333333337</ele><time>2026-04-24T08:36:45.027Z</time></trkpt><trkpt lat="43.143573" lon="12.5744568"><ele>275.0</ele><time>2026-04-24T08:36:46.01Z</time></trkpt><trkpt lat="43.1436013" lon="12.5742349"><ele>274.33333333333337</ele><time>2026-04-24T08:36:47.014Z</time></trkpt><trkpt lat="43.1436413" lon="12.5740134"><ele>273.6666666666667</ele><time>2026-04-24T08:36:48.002Z</time></trkpt><trkpt lat="43.1436798" lon="12.5737827"><ele>273.0</ele><time>2026-04-24T08:36:49.006Z</time></trkpt><trkpt lat="43.1437177" lon="12.5735347"><ele>273.0</ele><time>2026-04-24T08:36:50.005Z</time></trkpt><trkpt lat="43.1437676" lon="12.5733039"><ele>273.0</ele><time>2026-04-24T08:36:51.006Z</time></trkpt><trkpt lat="43.1438368" lon="12.5730636"><ele>273.0</ele><time>2026-04-24T08:36:51.997Z</time></trkpt><trkpt lat="43.1439355" lon="12.5728275"><ele>273.0</ele><time>2026-04-24T08:36:53.005Z</time></trkpt><trkpt lat="43.1440353" lon="12.5725908"><ele>273.0</ele><time>2026-04-24T08:36:54.001Z</time></trkpt><trkpt lat="43.1441476" lon="12.5723573"><ele>273.0</ele><time>2026-04-24T08:36:55.005Z</time></trkpt><trkpt lat="43.1442569" lon="12.5721234"><ele>265.0</ele><time>2026-04-24T08:36:55.999Z</time></trkpt><trkpt lat="43.1443705" lon="12.5718889"><ele>257.0</ele><time>2026-04-24T08:36:57.008Z</time></trkpt><trkpt lat="43.1444821" lon="12.5716566"><ele>249.0</ele><time>2026-04-24T08:36:58.011Z</time></trkpt><trkpt lat="43.14459" lon="12.5714339"><ele>249.0</ele><time>2026-04-24T08:36:59.011Z</time></trkpt><trkpt lat="43.1446889" lon="12.5712334"><ele>249.0</ele><time>2026-04-24T08:37:00.007Z</time></trkpt><trkpt lat="43.1447791" lon="12.5710346"><ele>249.0</ele><time>2026-04-24T08:37:01.007Z</time></trkpt><trkpt lat="43.1448345" lon="12.5708323"><ele>248.33333333333331</ele><time>2026-04-24T08:37:02.009Z</time></trkpt><trkpt lat="43.1448652" lon="12.5706288"><ele>247.66666666666666</ele><time>2026-04-24T08:37:03.02Z</time></trkpt><trkpt lat="43.1448582" lon="12.5704093"><ele>247.0</ele><time>2026-04-24T08:37:04.005Z</time></trkpt><trkpt lat="43.1448128" lon="12.570186"><ele>247.0</ele><time>2026-04-24T08:37:05.009Z</time></trkpt><trkpt lat="43.1447441" lon="12.5699614"><ele>247.0</ele><time>2026-04-24T08:37:06.001Z</time></trkpt><trkpt lat="43.1446605" lon="12.5697257"><ele>247.0</ele><time>2026-04-24T08:37:07.008Z</time></trkpt><trkpt lat="43.1445775" lon="12.5694777"><ele>245.0</ele><time>2026-04-24T08:37:08.004Z</time></trkpt><trkpt lat="43.1444852" lon="12.5692142"><ele>243.0</ele><time>2026-04-24T08:37:09.013Z</time></trkpt><trkpt lat="43.1443923" lon="12.5689485"><ele>241.0</ele><time>2026-04-24T08:37:10.005Z</time></trkpt><trkpt lat="43.1442955" lon="12.5686635"><ele>239.0</ele><time>2026-04-24T08:37:11.01Z</time></trkpt><trkpt lat="43.1441964" lon="12.5683691"><ele>237.0</ele><time>2026-04-24T08:37:12.005Z</time></trkpt><trkpt lat="43.1440866" lon="12.5680686"><ele>239.5</ele><time>2026-04-24T08:37:13.018Z</time></trkpt><trkpt lat="43.143976" lon="12.5677705"><ele>242.0</ele><time>2026-04-24T08:37:14.016Z</time></trkpt><trkpt lat="43.1438721" lon="12.5674822"><ele>242.0</ele><time>2026-04-24T08:37:15.012Z</time></trkpt><trkpt lat="43.1437727" lon="12.5672185"><ele>242.0</ele><time>2026-04-24T08:37:16.019Z</time></trkpt><trkpt lat="43.1436793" lon="12.5669602"><ele>242.0</ele><time>2026-04-24T08:37:17.012Z</time></trkpt><trkpt lat="43.143605" lon="12.5667229"><ele>241.66666666666669</ele><time>2026-04-24T08:37:18.01Z</time></trkpt><trkpt lat="43.1435554" lon="12.566485"><ele>241.33333333333331</ele><time>2026-04-24T08:37:19.012Z</time></trkpt><trkpt lat="43.1435348" lon="12.5662377"><ele>241.0</ele><time>2026-04-24T08:37:20.017Z</time></trkpt><trkpt lat="43.1435651" lon="12.5659984"><ele>239.66666666666666</ele><time>2026-04-24T08:37:21.013Z</time></trkpt><trkpt lat="43.1436472" lon="12.56577"><ele>238.33333333333331</ele><time>2026-04-24T08:37:22.012Z</time></trkpt><trkpt lat="43.1437584" lon="12.5655366"><ele>237.0</ele><time>2026-04-24T08:37:23.015Z</time></trkpt><trkpt lat="43.1438737" lon="12.5652946"><ele>236.0</ele><time>2026-04-24T08:37:24.011Z</time></trkpt><trkpt lat="43.1439974" lon="12.5650423"><ele>235.0</ele><time>2026-04-24T08:37:25.022Z</time></trkpt><trkpt lat="43.1441245" lon="12.5647697"><ele>236.0</ele><time>2026-04-24T08:37:26.015Z</time></trkpt><trkpt lat="43.14424" lon="12.5645167"><ele>237.0</ele><time>2026-04-24T08:37:27.017Z</time></trkpt><trkpt lat="43.1443512" lon="12.5642872"><ele>238.0</ele><time>2026-04-24T08:37:28.018Z</time></trkpt><trkpt lat="43.1444533" lon="12.5640713"><ele>238.0</ele><time>2026-04-24T08:37:29.016Z</time></trkpt><trkpt lat="43.14454" lon="12.5638622"><ele>238.0</ele><time>2026-04-24T08:37:30.012Z</time></trkpt><trkpt lat="43.1446043" lon="12.5636658"><ele>238.0</ele><time>2026-04-24T08:37:31.021Z</time></trkpt><trkpt lat="43.1446311" lon="12.5634323"><ele>239.33333333333331</ele><time>2026-04-24T08:37:32.016Z</time></trkpt><trkpt lat="43.1446211" lon="12.5631843"><ele>240.66666666666669</ele><time>2026-04-24T08:37:33.016Z</time></trkpt><trkpt lat="43.1445679" lon="12.5629359"><ele>242.0</ele><time>2026-04-24T08:37:34.003Z</time></trkpt><trkpt lat="43.144484" lon="12.5626979"><ele>243.33333333333334</ele><time>2026-04-24T08:37:35.016Z</time></trkpt><trkpt lat="43.1443823" lon="12.5624521"><ele>244.66666666666669</ele><time>2026-04-24T08:37:36.002Z</time></trkpt><trkpt lat="43.1442722" lon="12.5622106"><ele>246.0</ele><time>2026-04-24T08:37:37.007Z</time></trkpt><trkpt lat="43.1441736" lon="12.5619833"><ele>247.33333333333331</ele><time>2026-04-24T08:37:38.013Z</time></trkpt><trkpt lat="43.1440984" lon="12.5617603"><ele>248.66666666666666</ele><time>2026-04-24T08:37:39.022Z</time></trkpt><trkpt lat="43.144049" lon="12.5615234"><ele>250.0</ele><time>2026-04-24T08:37:40.014Z</time></trkpt><trkpt lat="43.1440227" lon="12.5612602"><ele>250.0</ele><time>2026-04-24T08:37:41.017Z</time></trkpt><trkpt lat="43.1440346" lon="12.5609878"><ele>250.0</ele><time>2026-04-24T08:37:42.005Z</time></trkpt><trkpt lat="43.144069" lon="12.5607081"><ele>250.0</ele><time>2026-04-24T08:37:43.017Z</time></trkpt><trkpt lat="43.1441129" lon="12.5604283"><ele>248.66666666666666</ele><time>2026-04-24T08:37:44.013Z</time></trkpt><trkpt lat="43.1441493" lon="12.5601481"><ele>247.33333333333331</ele><time>2026-04-24T08:37:45.007Z</time></trkpt><trkpt lat="43.144179" lon="12.5598481"><ele>246.0</ele><time>2026-04-24T08:37:46.01Z</time></trkpt><trkpt lat="43.1442112" lon="12.5595407"><ele>245.0</ele><time>2026-04-24T08:37:47.013Z</time></trkpt><trkpt lat="43.1442456" lon="12.5592245"><ele>244.0</ele><time>2026-04-24T08:37:48.008Z</time></trkpt><trkpt lat="43.1442825" lon="12.5588986"><ele>243.0</ele><time>2026-04-24T08:37:49.02Z</time></trkpt><trkpt lat="43.1443108" lon="12.5585636"><ele>242.0</ele><time>2026-04-24T08:37:50.001Z</time></trkpt><trkpt lat="43.144329" lon="12.5582307"><ele>242.0</ele><time>2026-04-24T08:37:51.006Z</time></trkpt><trkpt lat="43.1443391" lon="12.5578999"><ele>242.0</ele><time>2026-04-24T08:37:52.01Z</time></trkpt><trkpt lat="43.1443344" lon="12.5575647"><ele>241.5</ele><time>2026-04-24T08:37:53.012Z</time></trkpt><trkpt lat="43.1443193" lon="12.557225"><ele>241.0</ele><time>2026-04-24T08:37:54.002Z</time></trkpt><trkpt lat="43.1443" lon="12.5568921"><ele>242.5</ele><time>2026-04-24T08:37:55.009Z</time></trkpt><trkpt lat="43.1442696" lon="12.556557"><ele>244.0</ele><time>2026-04-24T08:37:56.015Z</time></trkpt><trkpt lat="43.1442319" lon="12.5562191"><ele>246.0</ele><time>2026-04-24T08:37:57.008Z</time></trkpt><trkpt lat="43.1441929" lon="12.5558866"><ele>248.0</ele><time>2026-04-24T08:37:58.007Z</time></trkpt><trkpt lat="43.1441533" lon="12.5555509"><ele>246.5</ele><time>2026-04-24T08:37:59.006Z</time></trkpt><trkpt lat="43.1441158" lon="12.5552188"><ele>245.0</ele><time>2026-04-24T08:38:00.007Z</time></trkpt><trkpt lat="43.1440796" lon="12.5549045"><ele>245.0</ele><time>2026-04-24T08:38:01.005Z</time></trkpt><trkpt lat="43.1440497" lon="12.5546048"><ele>245.0</ele><time>2026-04-24T08:38:02.005Z</time></trkpt><trkpt lat="43.1440213" lon="12.5543175"><ele>245.0</ele><time>2026-04-24T08:38:03.006Z</time></trkpt><trkpt lat="43.1439971" lon="12.5540335"><ele>241.0</ele><time>2026-04-24T08:38:04.006Z</time></trkpt><trkpt lat="43.1439734" lon="12.553741"><ele>237.0</ele><time>2026-04-24T08:38:05.013Z</time></trkpt><trkpt lat="43.1439522" lon="12.5534468"><ele>233.0</ele><time>2026-04-24T08:38:06.005Z</time></trkpt><trkpt lat="43.1439308" lon="12.5531487"><ele>232.0</ele><time>2026-04-24T08:38:07.003Z</time></trkpt><trkpt lat="43.143911" lon="12.5528459"><ele>231.0</ele><time>2026-04-24T08:38:08.002Z</time></trkpt><trkpt lat="43.1438938" lon="12.5525395"><ele>230.0</ele><time>2026-04-24T08:38:09.01Z</time></trkpt><trkpt lat="43.1438685" lon="12.5522347"><ele>229.0</ele><time>2026-04-24T08:38:10.007Z</time></trkpt><trkpt lat="43.1438478" lon="12.5519215"><ele>228.0</ele><time>2026-04-24T08:38:11.008Z</time></trkpt><trkpt lat="43.1438245" lon="12.5516046"><ele>228.0</ele><time>2026-04-24T08:38:12.022Z</time></trkpt><trkpt lat="43.1438046" lon="12.5512796"><ele>228.0</ele><time>2026-04-24T08:38:13.013Z</time></trkpt><trkpt lat="43.1437791" lon="12.5509575"><ele>229.0</ele><time>2026-04-24T08:38:14.016Z</time></trkpt><trkpt lat="43.1437504" lon="12.550635"><ele>230.0</ele><time>2026-04-24T08:38:15.006Z</time></trkpt><trkpt lat="43.1437264" lon="12.550319"><ele>231.0</ele><time>2026-04-24T08:38:16.012Z</time></trkpt><trkpt lat="43.1437075" lon="12.5500086"><ele>232.0</ele><time>2026-04-24T08:38:17.012Z</time></trkpt><trkpt lat="43.1436849" lon="12.5497036"><ele>231.66666666666666</ele><time>2026-04-24T08:38:18.014Z</time></trkpt><trkpt lat="43.1436643" lon="12.5494069"><ele>231.33333333333331</ele><time>2026-04-24T08:38:19.006Z</time></trkpt><trkpt lat="43.1436446" lon="12.5491129"><ele>231.0</ele><time>2026-04-24T08:38:20.002Z</time></trkpt><trkpt lat="43.143624" lon="12.5488207"><ele>230.66666666666669</ele><time>2026-04-24T08:38:21.005Z</time></trkpt><trkpt lat="43.1436042" lon="12.5485412"><ele>230.33333333333334</ele><time>2026-04-24T08:38:22.01Z</time></trkpt><trkpt lat="43.14359" lon="12.5482804"><ele>230.0</ele><time>2026-04-24T08:38:23.022Z</time></trkpt><trkpt lat="43.1435677" lon="12.5480328"><ele>230.0</ele><time>2026-04-24T08:38:24.005Z</time></trkpt><trkpt lat="43.1435483" lon="12.5478013"><ele>230.0</ele><time>2026-04-24T08:38:25.004Z</time></trkpt><trkpt lat="43.1435291" lon="12.5475752"><ele>230.0</ele><time>2026-04-24T08:38:26.016Z</time></trkpt><trkpt lat="43.1435053" lon="12.5473669"><ele>230.0</ele><time>2026-04-24T08:38:27.009Z</time></trkpt><trkpt lat="43.143488" lon="12.547152"><ele>230.0</ele><time>2026-04-24T08:38:28.018Z</time></trkpt><trkpt lat="43.1434722" lon="12.5469521"><ele>230.0</ele><time>2026-04-24T08:38:29.011Z</time></trkpt><trkpt lat="43.1434557" lon="12.5467567"><ele>230.0</ele><time>2026-04-24T08:38:30.008Z</time></trkpt><trkpt lat="43.1434426" lon="12.5465575"><ele>229.75</ele><time>2026-04-24T08:38:31.008Z</time></trkpt><trkpt lat="43.1434244" lon="12.5463603"><ele>229.5</ele><time>2026-04-24T08:38:32.011Z</time></trkpt><trkpt lat="43.1434109" lon="12.5461598"><ele>229.25</ele><time>2026-04-24T08:38:33.008Z</time></trkpt><trkpt lat="43.1433923" lon="12.5459576"><ele>229.0</ele><time>2026-04-24T08:38:34.003Z</time></trkpt><trkpt lat="43.1433749" lon="12.5457531"><ele>229.0</ele><time>2026-04-24T08:38:35.014Z</time></trkpt><trkpt lat="43.1433597" lon="12.545548"><ele>229.0</ele><time>2026-04-24T08:38:36.001Z</time></trkpt><trkpt lat="43.1433426" lon="12.5453336"><ele>229.0</ele><time>2026-04-24T08:38:37.007Z</time></trkpt><trkpt lat="43.1433246" lon="12.5451216"><ele>229.0</ele><time>2026-04-24T08:38:38.015Z</time></trkpt><trkpt lat="43.1433072" lon="12.5449078"><ele>229.0</ele><time>2026-04-24T08:38:39.001Z</time></trkpt><trkpt lat="43.1432886" lon="12.5446971"><ele>229.0</ele><time>2026-04-24T08:38:40.001Z</time></trkpt><trkpt lat="43.1432685" lon="12.5444843"><ele>229.5</ele><time>2026-04-24T08:38:41.014Z</time></trkpt><trkpt lat="43.1432514" lon="12.5442933"><ele>230.0</ele><time>2026-04-24T08:38:42.004Z</time></trkpt><trkpt lat="43.1432364" lon="12.5441158"><ele>230.5</ele><time>2026-04-24T08:38:42.998Z</time></trkpt><trkpt lat="43.1432273" lon="12.5439461"><ele>231.0</ele><time>2026-04-24T08:38:44Z</time></trkpt><trkpt lat="43.1432145" lon="12.5437679"><ele>231.25</ele><time>2026-04-24T08:38:45.018Z</time></trkpt><trkpt lat="43.1432007" lon="12.5435894"><ele>231.5</ele><time>2026-04-24T08:38:46.001Z</time></trkpt><trkpt lat="43.1431865" lon="12.5433996"><ele>231.75</ele><time>2026-04-24T08:38:47.011Z</time></trkpt><trkpt lat="43.1431659" lon="12.5432086"><ele>232.0</ele><time>2026-04-24T08:38:48.002Z</time></trkpt><trkpt lat="43.1431509" lon="12.5430344"><ele>230.5</ele><time>2026-04-24T08:38:49.012Z</time></trkpt><trkpt lat="43.1431401" lon="12.5428706"><ele>229.0</ele><time>2026-04-24T08:38:50.006Z</time></trkpt><trkpt lat="43.1431298" lon="12.5427133"><ele>227.5</ele><time>2026-04-24T08:38:51.005Z</time></trkpt><trkpt lat="43.1431134" lon="12.5425646"><ele>226.0</ele><time>2026-04-24T08:38:52.003Z</time></trkpt><trkpt lat="43.1430975" lon="12.54242"><ele>226.0</ele><time>2026-04-24T08:38:53.011Z</time></trkpt><trkpt lat="43.1430852" lon="12.5422842"><ele>226.00000000000003</ele><time>2026-04-24T08:38:54.003Z</time></trkpt><trkpt lat="43.1430731" lon="12.5421564"><ele>226.00000000000003</ele><time>2026-04-24T08:38:55.013Z</time></trkpt><trkpt lat="43.1430606" lon="12.54203"><ele>226.0</ele><time>2026-04-24T08:38:56.009Z</time></trkpt><trkpt lat="43.1430448" lon="12.5419037"><ele>226.0</ele><time>2026-04-24T08:38:57.011Z</time></trkpt><trkpt lat="43.1430334" lon="12.541786"><ele>226.33333333333331</ele><time>2026-04-24T08:38:58.019Z</time></trkpt><trkpt lat="43.1430281" lon="12.5416771"><ele>226.66666666666666</ele><time>2026-04-24T08:38:59.015Z</time></trkpt><trkpt lat="43.1430167" lon="12.5415678"><ele>227.0</ele><time>2026-04-24T08:39:00.001Z</time></trkpt><trkpt lat="43.1429972" lon="12.5414632"><ele>227.33333333333331</ele><time>2026-04-24T08:39:01.01Z</time></trkpt><trkpt lat="43.1429806" lon="12.5413732"><ele>227.66666666666666</ele><time>2026-04-24T08:39:02.006Z</time></trkpt><trkpt lat="43.1429629" lon="12.5412831"><ele>228.0</ele><time>2026-04-24T08:39:03.029Z</time></trkpt><trkpt lat="43.1429257" lon="12.5411656"><ele>228.33333333333334</ele><time>2026-04-24T08:39:05.009Z</time></trkpt><trkpt lat="43.142903" lon="12.5410635"><ele>228.66666666666669</ele><time>2026-04-24T08:39:07.014Z</time></trkpt><trkpt lat="43.1428501" lon="12.5409511"><ele>229.0</ele><time>2026-04-24T08:39:20.012Z</time></trkpt><trkpt lat="43.1427956" lon="12.5408374"><ele>229.33333333333334</ele><time>2026-04-24T08:39:22.014Z</time></trkpt><trkpt lat="43.1427706" lon="12.540756"><ele>229.66666666666669</ele><time>2026-04-24T08:39:23.026Z</time></trkpt><trkpt lat="43.1427398" lon="12.5406484"><ele>230.0</ele><time>2026-04-24T08:39:24Z</time></trkpt><trkpt lat="43.1427111" lon="12.5405408"><ele>230.0</ele><time>2026-04-24T08:39:25.013Z</time></trkpt><trkpt lat="43.1426844" lon="12.5404324"><ele>230.0</ele><time>2026-04-24T08:39:26.011Z</time></trkpt><trkpt lat="43.1426567" lon="12.5403243"><ele>230.0</ele><time>2026-04-24T08:39:27.016Z</time></trkpt><trkpt lat="43.1425999" lon="12.5401917"><ele>230.0</ele><time>2026-04-24T08:39:28.02Z</time></trkpt><trkpt lat="43.1425473" lon="12.5400616"><ele>230.0</ele><time>2026-04-24T08:39:29.013Z</time></trkpt><trkpt lat="43.1425024" lon="12.5399043"><ele>230.25</ele><time>2026-04-24T08:39:30.019Z</time></trkpt><trkpt lat="43.142445" lon="12.5397464"><ele>230.5</ele><time>2026-04-24T08:39:31.014Z</time></trkpt><trkpt lat="43.1423923" lon="12.5395985"><ele>230.75</ele><time>2026-04-24T08:39:32.015Z</time></trkpt><trkpt lat="43.1423417" lon="12.5394338"><ele>231.0</ele><time>2026-04-24T08:39:33.02Z</time></trkpt><trkpt lat="43.1422889" lon="12.5392738"><ele>230.75</ele><time>2026-04-24T08:39:34.014Z</time></trkpt><trkpt lat="43.1422355" lon="12.5391132"><ele>230.5</ele><time>2026-04-24T08:39:35.025Z</time></trkpt><trkpt lat="43.1421775" lon="12.5389548"><ele>230.25</ele><time>2026-04-24T08:39:36.013Z</time></trkpt><trkpt lat="43.142122" lon="12.5387827"><ele>230.0</ele><time>2026-04-24T08:39:37.011Z</time></trkpt><trkpt lat="43.1420605" lon="12.5386187"><ele>230.0</ele><time>2026-04-24T08:39:38.014Z</time></trkpt><trkpt lat="43.1420001" lon="12.5384491"><ele>230.0</ele><time>2026-04-24T08:39:39.025Z</time></trkpt><trkpt lat="43.1419366" lon="12.5382792"><ele>230.0</ele><time>2026-04-24T08:39:40.01Z</time></trkpt><trkpt lat="43.1418734" lon="12.5381058"><ele>230.0</ele><time>2026-04-24T08:39:41.022Z</time></trkpt><trkpt lat="43.1418114" lon="12.5379316"><ele>230.5</ele><time>2026-04-24T08:39:42.012Z</time></trkpt><trkpt lat="43.1417513" lon="12.5377667"><ele>231.0</ele><time>2026-04-24T08:39:43.023Z</time></trkpt><trkpt lat="43.1416962" lon="12.537613"><ele>231.5</ele><time>2026-04-24T08:39:44.017Z</time></trkpt><trkpt lat="43.1416454" lon="12.5374711"><ele>232.0</ele><time>2026-04-24T08:39:45.024Z</time></trkpt><trkpt lat="43.1415962" lon="12.5373368"><ele>232.0</ele><time>2026-04-24T08:39:46.03Z</time></trkpt><trkpt lat="43.1415659" lon="12.5372194"><ele>232.0</ele><time>2026-04-24T08:39:47.016Z</time></trkpt><trkpt lat="43.1415754" lon="12.5370754"><ele>232.0</ele><time>2026-04-24T08:39:49.019Z</time></trkpt><trkpt lat="43.1416488" lon="12.5370052"><ele>232.0</ele><time>2026-04-24T08:39:51.023Z</time></trkpt><trkpt lat="43.1417681" lon="12.5369451"><ele>232.0</ele><time>2026-04-24T08:39:53.019Z</time></trkpt><trkpt lat="43.1418495" lon="12.5369032"><ele>232.0</ele><time>2026-04-24T08:39:54.019Z</time></trkpt><trkpt lat="43.1419463" lon="12.5368619"><ele>232.0</ele><time>2026-04-24T08:39:55.01Z</time></trkpt><trkpt lat="43.1420511" lon="12.5368216"><ele>232.0</ele><time>2026-04-24T08:39:56.017Z</time></trkpt><trkpt lat="43.1421672" lon="12.5367703"><ele>232.0</ele><time>2026-04-24T08:39:57.012Z</time></trkpt><trkpt lat="43.1422941" lon="12.5367183"><ele>232.0</ele><time>2026-04-24T08:39:58.026Z</time></trkpt><trkpt lat="43.142431" lon="12.5366708"><ele>232.0</ele><time>2026-04-24T08:39:59.043Z</time></trkpt><trkpt lat="43.1425625" lon="12.5366272"><ele>232.0</ele><time>2026-04-24T08:40:00.006Z</time></trkpt><trkpt lat="43.1426827" lon="12.5365915"><ele>232.0</ele><time>2026-04-24T08:40:01.009Z</time></trkpt><trkpt lat="43.1427997" lon="12.5365493"><ele>232.0</ele><time>2026-04-24T08:40:02.013Z</time></trkpt><trkpt lat="43.1429132" lon="12.5365125"><ele>232.0</ele><time>2026-04-24T08:40:03.017Z</time></trkpt><trkpt lat="43.1430212" lon="12.5364817"><ele>232.0</ele><time>2026-04-24T08:40:04.022Z</time></trkpt><trkpt lat="43.1431151" lon="12.536474"><ele>232.0</ele><time>2026-04-24T08:40:05.01Z</time></trkpt><trkpt lat="43.1431878" lon="12.5365135"><ele>232.0</ele><time>2026-04-24T08:40:06.016Z</time></trkpt><trkpt lat="43.1432295" lon="12.5366039"><ele>232.39999999999998</ele><time>2026-04-24T08:40:07.027Z</time></trkpt><trkpt lat="43.1432681" lon="12.5367144"><ele>232.79999999999998</ele><time>2026-04-24T08:40:07.996Z</time></trkpt><trkpt lat="43.1433023" lon="12.536822"><ele>233.2</ele><time>2026-04-24T08:40:09.03Z</time></trkpt><trkpt lat="43.1433398" lon="12.5369372"><ele>233.6</ele><time>2026-04-24T08:40:10.014Z</time></trkpt><trkpt lat="43.1433843" lon="12.5370627"><ele>234.0</ele><time>2026-04-24T08:40:11.028Z</time></trkpt><trkpt lat="43.1434432" lon="12.5371913"><ele>234.0</ele><time>2026-04-24T08:40:12.015Z</time></trkpt><trkpt lat="43.1435144" lon="12.5373338"><ele>234.0</ele><time>2026-04-24T08:40:13.022Z</time></trkpt><trkpt lat="43.1435958" lon="12.5374497"><ele>234.0</ele><time>2026-04-24T08:40:14.007Z</time></trkpt><trkpt lat="43.1436837" lon="12.5375527"><ele>234.0</ele><time>2026-04-24T08:40:15.026Z</time></trkpt><trkpt lat="43.1437885" lon="12.5376448"><ele>234.0</ele><time>2026-04-24T08:40:16.026Z</time></trkpt><trkpt lat="43.1438864" lon="12.5377156"><ele>234.0</ele><time>2026-04-24T08:40:17.011Z</time></trkpt><trkpt lat="43.1439736" lon="12.5377819"><ele>234.0</ele><time>2026-04-24T08:40:18.013Z</time></trkpt><trkpt lat="43.1440439" lon="12.5378587"><ele>234.0</ele><time>2026-04-24T08:40:19.026Z</time></trkpt><trkpt lat="43.1440922" lon="12.5379324"><ele>234.0</ele><time>2026-04-24T08:40:20.03Z</time></trkpt><trkpt lat="43.1441122" lon="12.5380262"><ele>234.0</ele><time>2026-04-24T08:40:22.023Z</time></trkpt><trkpt lat="43.1440587" lon="12.5380981"><ele>233.6</ele><time>2026-04-24T08:40:24.009Z</time></trkpt><trkpt lat="43.1439409" lon="12.5381138"><ele>233.2</ele><time>2026-04-24T08:40:26.03Z</time></trkpt><trkpt lat="43.1438585" lon="12.5381381"><ele>232.79999999999998</ele><time>2026-04-24T08:40:27.025Z</time></trkpt><trkpt lat="43.1437732" lon="12.5381714"><ele>232.39999999999998</ele><time>2026-04-24T08:40:28.013Z</time></trkpt><trkpt lat="43.143692" lon="12.5382029"><ele>232.0</ele><time>2026-04-24T08:40:29.027Z</time></trkpt><trkpt lat="43.1436192" lon="12.5382487"><ele>231.99999999999997</ele><time>2026-04-24T08:40:30.027Z</time></trkpt><trkpt lat="43.1435673" lon="12.5383244"><ele>232.0</ele><time>2026-04-24T08:40:31.013Z</time></trkpt><trkpt lat="43.1435493" lon="12.5384258"><ele>232.0</ele><time>2026-04-24T08:40:32.02Z</time></trkpt><trkpt lat="43.1435598" lon="12.5385212"><ele>232.0</ele><time>2026-04-24T08:40:33.019Z</time></trkpt><trkpt lat="43.1435709" lon="12.5386293"><ele>231.99999999999997</ele><time>2026-04-24T08:40:34.022Z</time></trkpt><trkpt lat="43.1435813" lon="12.5387512"><ele>232.0</ele><time>2026-04-24T08:40:35.025Z</time></trkpt><trkpt lat="43.143591" lon="12.5388689"><ele>232.00000000000003</ele><time>2026-04-24T08:40:36.006Z</time></trkpt><trkpt lat="43.1435997" lon="12.5389655"><ele>232.0</ele><time>2026-04-24T08:40:37.027Z</time></trkpt><trkpt lat="43.1436069" lon="12.5390673"><ele>232.00000000000003</ele><time>2026-04-24T08:40:39.007Z</time></trkpt><trkpt lat="43.1436299" lon="12.5391482"><ele>232.00000000000003</ele><time>2026-04-24T08:42:36.037Z</time></trkpt><trkpt lat="43.1436751" lon="12.5392745"><ele>232.0</ele><time>2026-04-24T08:42:38.016Z</time></trkpt><trkpt lat="43.1437027" lon="12.5393535"><ele>232.00000000000003</ele><time>2026-04-24T08:42:39.02Z</time></trkpt><trkpt lat="43.1437393" lon="12.5394402"><ele>232.00000000000003</ele><time>2026-04-24T08:42:40.036Z</time></trkpt><trkpt lat="43.143777" lon="12.5395517"><ele>232.0</ele><time>2026-04-24T08:42:41.031Z</time></trkpt><trkpt lat="43.1438152" lon="12.5396794"><ele>232.0</ele><time>2026-04-24T08:42:41.996Z</time></trkpt><trkpt lat="43.1438462" lon="12.5398248"><ele>232.0</ele><time>2026-04-24T08:42:43.027Z</time></trkpt><trkpt lat="43.14388" lon="12.5399792"><ele>232.0</ele><time>2026-04-24T08:42:44.038Z</time></trkpt><trkpt lat="43.143911" lon="12.5401164"><ele>232.0</ele><time>2026-04-24T08:42:45.026Z</time></trkpt><trkpt lat="43.1439439" lon="12.5402457"><ele>231.99999999999997</ele><time>2026-04-24T08:42:46.035Z</time></trkpt><trkpt lat="43.1439703" lon="12.5403683"><ele>232.0</ele><time>2026-04-24T08:42:47.031Z</time></trkpt><trkpt lat="43.1439956" lon="12.5404768"><ele>232.0</ele><time>2026-04-24T08:42:48.05Z</time></trkpt><trkpt lat="43.1440218" lon="12.5405676"><ele>232.0</ele><time>2026-04-24T08:42:49.028Z</time></trkpt><trkpt lat="43.1440534" lon="12.5406614"><ele>231.99999999999997</ele><time>2026-04-24T08:42:51.009Z</time></trkpt><trkpt lat="43.1441313" lon="12.5407222"><ele>232.0</ele><time>2026-04-24T08:43:27.036Z</time></trkpt><trkpt lat="43.1442111" lon="12.5407037"><ele>232.2</ele><time>2026-04-24T08:43:29.003Z</time></trkpt><trkpt lat="43.1442912" lon="12.5407631"><ele>232.39999999999998</ele><time>2026-04-24T08:43:31.045Z</time></trkpt><trkpt lat="43.1443372" lon="12.540892"><ele>232.60000000000002</ele><time>2026-04-24T08:43:33.019Z</time></trkpt><trkpt lat="43.1443733" lon="12.5410121"><ele>232.8</ele><time>2026-04-24T08:43:35.015Z</time></trkpt><trkpt lat="43.1443879" lon="12.5411617"><ele>233.0</ele><time>2026-04-24T08:43:37.018Z</time></trkpt><trkpt lat="43.1444387" lon="12.5412994"><ele>233.0</ele><time>2026-04-24T08:43:39.016Z</time></trkpt><trkpt lat="43.1445157" lon="12.5414192"><ele>233.0</ele><time>2026-04-24T08:43:41.014Z</time></trkpt><trkpt lat="43.1445835" lon="12.5415554"><ele>233.0</ele><time>2026-04-24T08:43:43.044Z</time></trkpt><trkpt lat="43.1446435" lon="12.5417125"><ele>233.0</ele><time>2026-04-24T08:43:45.021Z</time></trkpt><trkpt lat="43.1446869" lon="12.5417961"><ele>233.0</ele><time>2026-04-24T08:43:46.014Z</time></trkpt><trkpt lat="43.1447431" lon="12.541871"><ele>233.0</ele><time>2026-04-24T08:43:47.016Z</time></trkpt><trkpt lat="43.1448128" lon="12.5419312"><ele>233.0</ele><time>2026-04-24T08:43:48.028Z</time></trkpt><trkpt lat="43.1448998" lon="12.5419712"><ele>233.0</ele><time>2026-04-24T08:43:49.021Z</time></trkpt><trkpt lat="43.145004" lon="12.5420064"><ele>233.0</ele><time>2026-04-24T08:43:50.035Z</time></trkpt><trkpt lat="43.1451152" lon="12.5420544"><ele>233.0</ele><time>2026-04-24T08:43:51.024Z</time></trkpt><trkpt lat="43.145222" lon="12.5421246"><ele>237.25</ele><time>2026-04-24T08:43:52.011Z</time></trkpt><trkpt lat="43.1453354" lon="12.5422011"><ele>241.5</ele><time>2026-04-24T08:43:53.019Z</time></trkpt><trkpt lat="43.1454486" lon="12.5422803"><ele>245.75</ele><time>2026-04-24T08:43:54.036Z</time></trkpt><trkpt lat="43.1455625" lon="12.5423631"><ele>250.0</ele><time>2026-04-24T08:43:55.009Z</time></trkpt><trkpt lat="43.145683" lon="12.5424424"><ele>253.0</ele><time>2026-04-24T08:43:56.024Z</time></trkpt><trkpt lat="43.145803" lon="12.5425258"><ele>256.0</ele><time>2026-04-24T08:43:57.018Z</time></trkpt><trkpt lat="43.1459215" lon="12.5426051"><ele>259.0</ele><time>2026-04-24T08:43:58.019Z</time></trkpt><trkpt lat="43.1460435" lon="12.5426917"><ele>262.0</ele><time>2026-04-24T08:43:59.024Z</time></trkpt><trkpt lat="43.1461629" lon="12.5427807"><ele>262.0</ele><time>2026-04-24T08:44:00.017Z</time></trkpt><trkpt lat="43.1462825" lon="12.5428625"><ele>262.0</ele><time>2026-04-24T08:44:01.015Z</time></trkpt><trkpt lat="43.1464007" lon="12.5429649"><ele>262.0</ele><time>2026-04-24T08:44:02.029Z</time></trkpt><trkpt lat="43.1465208" lon="12.543067"><ele>262.0</ele><time>2026-04-24T08:44:03.023Z</time></trkpt><trkpt lat="43.1466516" lon="12.5431631"><ele>264.75</ele><time>2026-04-24T08:44:04.027Z</time></trkpt><trkpt lat="43.146783" lon="12.5432475"><ele>267.5</ele><time>2026-04-24T08:44:05.044Z</time></trkpt><trkpt lat="43.1469243" lon="12.5433191"><ele>270.25</ele><time>2026-04-24T08:44:06.029Z</time></trkpt><trkpt lat="43.1470664" lon="12.5433845"><ele>273.0</ele><time>2026-04-24T08:44:07.024Z</time></trkpt><trkpt lat="43.1471987" lon="12.5434532"><ele>273.0</ele><time>2026-04-24T08:44:08.047Z</time></trkpt><trkpt lat="43.1473014" lon="12.5435462"><ele>273.0</ele><time>2026-04-24T08:44:09.03Z</time></trkpt><trkpt lat="43.1473872" lon="12.5436815"><ele>273.0</ele><time>2026-04-24T08:44:10.018Z</time></trkpt><trkpt lat="43.147446" lon="12.5438286"><ele>273.0</ele><time>2026-04-24T08:44:11.041Z</time></trkpt><trkpt lat="43.1474992" lon="12.5439924"><ele>276.0</ele><time>2026-04-24T08:44:12.022Z</time></trkpt><trkpt lat="43.1475572" lon="12.544156"><ele>279.0</ele><time>2026-04-24T08:44:13.034Z</time></trkpt><trkpt lat="43.1476281" lon="12.5443104"><ele>282.0</ele><time>2026-04-24T08:44:14.029Z</time></trkpt><trkpt lat="43.1477261" lon="12.544452"><ele>285.0</ele><time>2026-04-24T08:44:15.025Z</time></trkpt><trkpt lat="43.1478339" lon="12.5445735"><ele>287.25</ele><time>2026-04-24T08:44:16.042Z</time></trkpt><trkpt lat="43.1479402" lon="12.5446842"><ele>289.5</ele><time>2026-04-24T08:44:17.024Z</time></trkpt><trkpt lat="43.1480441" lon="12.544782"><ele>291.75</ele><time>2026-04-24T08:44:18.003Z</time></trkpt><trkpt lat="43.1481399" lon="12.5448717"><ele>294.0</ele><time>2026-04-24T08:44:19.038Z</time></trkpt><trkpt lat="43.1482192" lon="12.5449739"><ele>294.0</ele><time>2026-04-24T08:44:20.033Z</time></trkpt><trkpt lat="43.1482855" lon="12.5450828"><ele>294.0</ele><time>2026-04-24T08:44:21.043Z</time></trkpt><trkpt lat="43.1483373" lon="12.545213"><ele>294.0</ele><time>2026-04-24T08:44:22.028Z</time></trkpt><trkpt lat="43.148396" lon="12.5453638"><ele>294.0</ele><time>2026-04-24T08:44:23.033Z</time></trkpt><trkpt lat="43.1484748" lon="12.5455017"><ele>297.0</ele><time>2026-04-24T08:44:24.027Z</time></trkpt><trkpt lat="43.1485744" lon="12.5456305"><ele>300.0</ele><time>2026-04-24T08:44:25.017Z</time></trkpt><trkpt lat="43.1487012" lon="12.5457405"><ele>303.0</ele><time>2026-04-24T08:44:26.034Z</time></trkpt><trkpt lat="43.1488271" lon="12.545838"><ele>306.0</ele><time>2026-04-24T08:44:27.03Z</time></trkpt><trkpt lat="43.148951" lon="12.5459125"><ele>305.0</ele><time>2026-04-24T08:44:28.029Z</time></trkpt><trkpt lat="43.1490654" lon="12.5459692"><ele>304.0</ele><time>2026-04-24T08:44:29.037Z</time></trkpt><trkpt lat="43.1491693" lon="12.5460478"><ele>303.0</ele><time>2026-04-24T08:44:30.009Z</time></trkpt><trkpt lat="43.1492564" lon="12.5461581"><ele>302.0</ele><time>2026-04-24T08:44:31.034Z</time></trkpt><trkpt lat="43.1493321" lon="12.5463015"><ele>306.0</ele><time>2026-04-24T08:44:32.029Z</time></trkpt><trkpt lat="43.1493868" lon="12.5464617"><ele>310.0</ele><time>2026-04-24T08:44:33.031Z</time></trkpt><trkpt lat="43.1494363" lon="12.5466268"><ele>314.0</ele><time>2026-04-24T08:44:34.034Z</time></trkpt><trkpt lat="43.1494828" lon="12.5468012"><ele>318.0</ele><time>2026-04-24T08:44:35.031Z</time></trkpt><trkpt lat="43.149521" lon="12.5469752"><ele>319.0</ele><time>2026-04-24T08:44:36.03Z</time></trkpt><trkpt lat="43.1495755" lon="12.5471491"><ele>320.0</ele><time>2026-04-24T08:44:37.02Z</time></trkpt><trkpt lat="43.1496517" lon="12.5473024"><ele>321.0</ele><time>2026-04-24T08:44:38.022Z</time></trkpt><trkpt lat="43.1497528" lon="12.5474213"><ele>322.0</ele><time>2026-04-24T08:44:39.026Z</time></trkpt><trkpt lat="43.1498773" lon="12.5475082"><ele>322.0</ele><time>2026-04-24T08:44:40.019Z</time></trkpt><trkpt lat="43.1500091" lon="12.5475707"><ele>322.0</ele><time>2026-04-24T08:44:41.025Z</time></trkpt><trkpt lat="43.1501456" lon="12.5476356"><ele>322.0</ele><time>2026-04-24T08:44:42.022Z</time></trkpt><trkpt lat="43.1502723" lon="12.5476968"><ele>322.0</ele><time>2026-04-24T08:44:43.019Z</time></trkpt><trkpt lat="43.1503913" lon="12.5477727"><ele>322.0</ele><time>2026-04-24T08:44:44.023Z</time></trkpt><trkpt lat="43.1505026" lon="12.5478581"><ele>322.0</ele><time>2026-04-24T08:44:45.015Z</time></trkpt><trkpt lat="43.1506199" lon="12.5479554"><ele>322.0</ele><time>2026-04-24T08:44:46.023Z</time></trkpt><trkpt lat="43.1507321" lon="12.5480654"><ele>322.0</ele><time>2026-04-24T08:44:47.021Z</time></trkpt><trkpt lat="43.1508384" lon="12.548165"><ele>324.0</ele><time>2026-04-24T08:44:48.015Z</time></trkpt><trkpt lat="43.1509395" lon="12.5482544"><ele>326.0</ele><time>2026-04-24T08:44:49.022Z</time></trkpt><trkpt lat="43.1510297" lon="12.5483415"><ele>328.0</ele><time>2026-04-24T08:44:50.038Z</time></trkpt><trkpt lat="43.1511177" lon="12.548441"><ele>330.0</ele><time>2026-04-24T08:44:51.024Z</time></trkpt><trkpt lat="43.1511989" lon="12.548562"><ele>330.0</ele><time>2026-04-24T08:44:52.029Z</time></trkpt><trkpt lat="43.1512737" lon="12.5486962"><ele>330.0</ele><time>2026-04-24T08:44:53.021Z</time></trkpt><trkpt lat="43.1513545" lon="12.5488385"><ele>330.0</ele><time>2026-04-24T08:44:54.029Z</time></trkpt><trkpt lat="43.1514521" lon="12.5489875"><ele>330.0</ele><time>2026-04-24T08:44:55.034Z</time></trkpt><trkpt lat="43.1515554" lon="12.5491351"><ele>329.5</ele><time>2026-04-24T08:44:56.027Z</time></trkpt><trkpt lat="43.1516598" lon="12.5492793"><ele>329.0</ele><time>2026-04-24T08:44:57.026Z</time></trkpt><trkpt lat="43.1517542" lon="12.549419"><ele>328.5</ele><time>2026-04-24T08:44:58.023Z</time></trkpt><trkpt lat="43.1518551" lon="12.549551"><ele>328.0</ele><time>2026-04-24T08:44:59.032Z</time></trkpt><trkpt lat="43.1519675" lon="12.5496738"><ele>330.5</ele><time>2026-04-24T08:45:00.02Z</time></trkpt><trkpt lat="43.1520877" lon="12.5497737"><ele>333.0</ele><time>2026-04-24T08:45:01.026Z</time></trkpt><trkpt lat="43.1522174" lon="12.5498462"><ele>335.5</ele><time>2026-04-24T08:45:02.01Z</time></trkpt><trkpt lat="43.1523524" lon="12.549889"><ele>338.0</ele><time>2026-04-24T08:45:03.027Z</time></trkpt><trkpt lat="43.1524899" lon="12.5499187"><ele>338.0</ele><time>2026-04-24T08:45:04.018Z</time></trkpt><trkpt lat="43.1526253" lon="12.549961"><ele>338.0</ele><time>2026-04-24T08:45:05.022Z</time></trkpt><trkpt lat="43.1527527" lon="12.5500195"><ele>338.0</ele><time>2026-04-24T08:45:06.021Z</time></trkpt><trkpt lat="43.1528604" lon="12.5500584"><ele>338.0</ele><time>2026-04-24T08:45:07.017Z</time></trkpt><trkpt lat="43.1529685" lon="12.5500667"><ele>338.0</ele><time>2026-04-24T08:45:08.022Z</time></trkpt><trkpt lat="43.1530753" lon="12.5500657"><ele>338.0</ele><time>2026-04-24T08:45:09.029Z</time></trkpt><trkpt lat="43.1531756" lon="12.5500974"><ele>338.0</ele><time>2026-04-24T08:45:10.026Z</time></trkpt><trkpt lat="43.1532612" lon="12.5501768"><ele>338.0</ele><time>2026-04-24T08:45:11.027Z</time></trkpt><trkpt lat="43.1533086" lon="12.5503037"><ele>338.0</ele><time>2026-04-24T08:45:12.041Z</time></trkpt><trkpt lat="43.1533695" lon="12.5504494"><ele>341.25</ele><time>2026-04-24T08:45:13.031Z</time></trkpt><trkpt lat="43.1534423" lon="12.5506005"><ele>344.5</ele><time>2026-04-24T08:45:14.027Z</time></trkpt><trkpt lat="43.1535351" lon="12.5507498"><ele>347.75</ele><time>2026-04-24T08:45:15.027Z</time></trkpt><trkpt lat="43.1536315" lon="12.5508798"><ele>351.0</ele><time>2026-04-24T08:45:16.028Z</time></trkpt><trkpt lat="43.1537203" lon="12.5509668"><ele>351.0</ele><time>2026-04-24T08:45:17.025Z</time></trkpt><trkpt lat="43.1538239" lon="12.5510059"><ele>351.0</ele><time>2026-04-24T08:45:18.02Z</time></trkpt><trkpt lat="43.1539181" lon="12.5509914"><ele>351.0</ele><time>2026-04-24T08:45:19.026Z</time></trkpt><trkpt lat="43.1540067" lon="12.5509198"><ele>351.0</ele><time>2026-04-24T08:45:20.023Z</time></trkpt><trkpt lat="43.1541095" lon="12.5508373"><ele>351.0</ele><time>2026-04-24T08:45:21.022Z</time></trkpt><trkpt lat="43.1542016" lon="12.5508003"><ele>351.8</ele><time>2026-04-24T08:45:22.026Z</time></trkpt><trkpt lat="43.1542757" lon="12.5508168"><ele>352.6</ele><time>2026-04-24T08:45:23.024Z</time></trkpt><trkpt lat="43.1543665" lon="12.5509112"><ele>353.4</ele><time>2026-04-24T08:45:24.022Z</time></trkpt><trkpt lat="43.1544524" lon="12.5510249"><ele>354.2</ele><time>2026-04-24T08:45:25.033Z</time></trkpt><trkpt lat="43.1545525" lon="12.5511229"><ele>355.0</ele><time>2026-04-24T08:45:26.041Z</time></trkpt><trkpt lat="43.1546728" lon="12.5511664"><ele>355.0</ele><time>2026-04-24T08:45:27.026Z</time></trkpt><trkpt lat="43.1548141" lon="12.5512041"><ele>355.0</ele><time>2026-04-24T08:45:28.011Z</time></trkpt><trkpt lat="43.1549619" lon="12.551231"><ele>355.0</ele><time>2026-04-24T08:45:29.024Z</time></trkpt><trkpt lat="43.1551293" lon="12.5512664"><ele>363.66666666666663</ele><time>2026-04-24T08:45:30.018Z</time></trkpt><trkpt lat="43.1552906" lon="12.5513037"><ele>372.3333333333333</ele><time>2026-04-24T08:45:31.031Z</time></trkpt><trkpt lat="43.1554489" lon="12.5513429"><ele>381.0</ele><time>2026-04-24T08:45:32.023Z</time></trkpt><trkpt lat="43.155607" lon="12.5513878"><ele>382.0</ele><time>2026-04-24T08:45:33.031Z</time></trkpt><trkpt lat="43.1557662" lon="12.5514487"><ele>383.0</ele><time>2026-04-24T08:45:34.02Z</time></trkpt><trkpt lat="43.1559109" lon="12.5515279"><ele>384.0</ele><time>2026-04-24T08:45:35.029Z</time></trkpt><trkpt lat="43.1560619" lon="12.5515931"><ele>384.0</ele><time>2026-04-24T08:45:36.014Z</time></trkpt><trkpt lat="43.1562043" lon="12.5516481"><ele>384.0</ele><time>2026-04-24T08:45:37.025Z</time></trkpt><trkpt lat="43.1563357" lon="12.5516827"><ele>384.0</ele><time>2026-04-24T08:45:38.025Z</time></trkpt><trkpt lat="43.1564657" lon="12.5516806"><ele>384.0</ele><time>2026-04-24T08:45:39.019Z</time></trkpt><trkpt lat="43.1566079" lon="12.5516625"><ele>386.0</ele><time>2026-04-24T08:45:40.03Z</time></trkpt><trkpt lat="43.1567451" lon="12.5516476"><ele>388.0</ele><time>2026-04-24T08:45:41.041Z</time></trkpt><trkpt lat="43.1568762" lon="12.5516886"><ele>390.0</ele><time>2026-04-24T08:45:42.021Z</time></trkpt><trkpt lat="43.1569914" lon="12.551747"><ele>392.0</ele><time>2026-04-24T08:45:43.013Z</time></trkpt><trkpt lat="43.1570855" lon="12.5518268"><ele>392.0</ele><time>2026-04-24T08:45:44.03Z</time></trkpt><trkpt lat="43.1571875" lon="12.5518782"><ele>392.0</ele><time>2026-04-24T08:45:45.027Z</time></trkpt><trkpt lat="43.1572798" lon="12.5518469"><ele>392.0</ele><time>2026-04-24T08:45:46.022Z</time></trkpt><trkpt lat="43.1573654" lon="12.5517527"><ele>392.0</ele><time>2026-04-24T08:45:47.027Z</time></trkpt><trkpt lat="43.1574442" lon="12.5516263"><ele>392.0</ele><time>2026-04-24T08:45:48.021Z</time></trkpt><trkpt lat="43.1575248" lon="12.5515014"><ele>391.5</ele><time>2026-04-24T08:45:49.05Z</time></trkpt><trkpt lat="43.1576233" lon="12.5514101"><ele>391.0</ele><time>2026-04-24T08:45:50.024Z</time></trkpt><trkpt lat="43.157735" lon="12.5513275"><ele>390.5</ele><time>2026-04-24T08:45:51.029Z</time></trkpt><trkpt lat="43.1578404" lon="12.5512583"><ele>390.0</ele><time>2026-04-24T08:45:52.01Z</time></trkpt><trkpt lat="43.1579275" lon="12.5511995"><ele>390.0</ele><time>2026-04-24T08:45:53.042Z</time></trkpt><trkpt lat="43.1580128" lon="12.5511601"><ele>390.0</ele><time>2026-04-24T08:45:54.009Z</time></trkpt><trkpt lat="43.1581042" lon="12.5511552"><ele>390.0</ele><time>2026-04-24T08:45:55.03Z</time></trkpt><trkpt lat="43.1582074" lon="12.5511961"><ele>390.0</ele><time>2026-04-24T08:45:56.028Z</time></trkpt><trkpt lat="43.1583029" lon="12.5512723"><ele>390.0</ele><time>2026-04-24T08:45:57.011Z</time></trkpt><trkpt lat="43.1584072" lon="12.5513522"><ele>394.0</ele><time>2026-04-24T08:45:58.03Z</time></trkpt><trkpt lat="43.1585176" lon="12.55145"><ele>398.0</ele><time>2026-04-24T08:45:59.031Z</time></trkpt><trkpt lat="43.1586385" lon="12.5515558"><ele>402.0</ele><time>2026-04-24T08:46:00.003Z</time></trkpt><trkpt lat="43.1587586" lon="12.5516696"><ele>406.0</ele><time>2026-04-24T08:46:01.036Z</time></trkpt><trkpt lat="43.1588756" lon="12.5517883"><ele>406.0</ele><time>2026-04-24T08:46:02.01Z</time></trkpt><trkpt lat="43.1589954" lon="12.5518946"><ele>406.0</ele><time>2026-04-24T08:46:03.028Z</time></trkpt><trkpt lat="43.1591129" lon="12.5520033"><ele>406.0</ele><time>2026-04-24T08:46:04.03Z</time></trkpt><trkpt lat="43.1592239" lon="12.5521087"><ele>406.0</ele><time>2026-04-24T08:46:05.028Z</time></trkpt><trkpt lat="43.1593206" lon="12.5522219"><ele>410.75</ele><time>2026-04-24T08:46:06.038Z</time></trkpt><trkpt lat="43.159416" lon="12.5523547"><ele>415.5</ele><time>2026-04-24T08:46:07.026Z</time></trkpt><trkpt lat="43.1595104" lon="12.5524954"><ele>420.25</ele><time>2026-04-24T08:46:08.021Z</time></trkpt><trkpt lat="43.1596183" lon="12.5526379"><ele>425.0</ele><time>2026-04-24T08:46:09.019Z</time></trkpt><trkpt lat="43.1597333" lon="12.5527709"><ele>427.5</ele><time>2026-04-24T08:46:10.028Z</time></trkpt><trkpt lat="43.1598486" lon="12.5528958"><ele>430.0</ele><time>2026-04-24T08:46:11.034Z</time></trkpt><trkpt lat="43.1599609" lon="12.5530093"><ele>432.5</ele><time>2026-04-24T08:46:12.02Z</time></trkpt><trkpt lat="43.1600781" lon="12.5531111"><ele>435.0</ele><time>2026-04-24T08:46:13.026Z</time></trkpt><trkpt lat="43.1601992" lon="12.5532046"><ele>435.0</ele><time>2026-04-24T08:46:14.016Z</time></trkpt><trkpt lat="43.1603232" lon="12.553287"><ele>435.0</ele><time>2026-04-24T08:46:15.022Z</time></trkpt><trkpt lat="43.1604407" lon="12.5533532"><ele>435.0</ele><time>2026-04-24T08:46:16.023Z</time></trkpt><trkpt lat="43.1605545" lon="12.5534426"><ele>435.0</ele><time>2026-04-24T08:46:17.021Z</time></trkpt><trkpt lat="43.1606527" lon="12.5535599"><ele>438.5</ele><time>2026-04-24T08:46:18.03Z</time></trkpt><trkpt lat="43.1607341" lon="12.5537102"><ele>442.0</ele><time>2026-04-24T08:46:19.021Z</time></trkpt><trkpt lat="43.1608149" lon="12.5538504"><ele>445.5</ele><time>2026-04-24T08:46:20.025Z</time></trkpt><trkpt lat="43.1609125" lon="12.5539836"><ele>449.0</ele><time>2026-04-24T08:46:21.019Z</time></trkpt><trkpt lat="43.1610177" lon="12.5541114"><ele>449.0</ele><time>2026-04-24T08:46:22.02Z</time></trkpt><trkpt lat="43.1611369" lon="12.5542249"><ele>449.0</ele><time>2026-04-24T08:46:23.018Z</time></trkpt><trkpt lat="43.1612625" lon="12.5543266"><ele>449.0</ele><time>2026-04-24T08:46:24.04Z</time></trkpt><trkpt lat="43.1613968" lon="12.5544168"><ele>449.0</ele><time>2026-04-24T08:46:25.033Z</time></trkpt><trkpt lat="43.1615321" lon="12.5544785"><ele>449.0</ele><time>2026-04-24T08:46:26.039Z</time></trkpt><trkpt lat="43.1616665" lon="12.5545188"><ele>449.0</ele><time>2026-04-24T08:46:27.021Z</time></trkpt><trkpt lat="43.1617773" lon="12.5545557"><ele>449.0</ele><time>2026-04-24T08:46:28.016Z</time></trkpt><trkpt lat="43.1618716" lon="12.5546032"><ele>449.0</ele><time>2026-04-24T08:46:29.006Z</time></trkpt><trkpt lat="43.1619433" lon="12.5546903"><ele>449.0</ele><time>2026-04-24T08:46:30.027Z</time></trkpt><trkpt lat="43.1619935" lon="12.5548143"><ele>451.79999999999995</ele><time>2026-04-24T08:46:31.04Z</time></trkpt><trkpt lat="43.1620305" lon="12.5549379"><ele>454.59999999999997</ele><time>2026-04-24T08:46:32.037Z</time></trkpt><trkpt lat="43.1620532" lon="12.5550541"><ele>457.4</ele><time>2026-04-24T08:46:33.023Z</time></trkpt><trkpt lat="43.1620767" lon="12.5551775"><ele>460.2</ele><time>2026-04-24T08:46:34.02Z</time></trkpt><trkpt lat="43.1621304" lon="12.5552837"><ele>463.0</ele><time>2026-04-24T08:46:35.025Z</time></trkpt><trkpt lat="43.1621993" lon="12.5553633"><ele>465.4</ele><time>2026-04-24T08:46:36.029Z</time></trkpt><trkpt lat="43.1622837" lon="12.5554365"><ele>467.79999999999995</ele><time>2026-04-24T08:46:37.022Z</time></trkpt><trkpt lat="43.1623727" lon="12.5555034"><ele>470.2</ele><time>2026-04-24T08:46:38.049Z</time></trkpt><trkpt lat="43.1624543" lon="12.5555818"><ele>472.6</ele><time>2026-04-24T08:46:39.034Z</time></trkpt><trkpt lat="43.1625269" lon="12.5556668"><ele>475.0</ele><time>2026-04-24T08:46:40.029Z</time></trkpt><trkpt lat="43.1625888" lon="12.5557638"><ele>475.1666666666667</ele><time>2026-04-24T08:46:41.029Z</time></trkpt><trkpt lat="43.1626393" lon="12.5558723"><ele>475.33333333333337</ele><time>2026-04-24T08:46:42.028Z</time></trkpt><trkpt lat="43.1626762" lon="12.5559791"><ele>475.5</ele><time>2026-04-24T08:46:43.029Z</time></trkpt><trkpt lat="43.1627051" lon="12.5560807"><ele>475.66666666666663</ele><time>2026-04-24T08:46:44.031Z</time></trkpt><trkpt lat="43.1627322" lon="12.5561895"><ele>475.8333333333333</ele><time>2026-04-24T08:46:45.04Z</time></trkpt><trkpt lat="43.1627611" lon="12.5563057"><ele>476.0</ele><time>2026-04-24T08:46:46.029Z</time></trkpt><trkpt lat="43.162783" lon="12.5564236"><ele>478.0</ele><time>2026-04-24T08:46:47.036Z</time></trkpt><trkpt lat="43.1627967" lon="12.5565498"><ele>480.0</ele><time>2026-04-24T08:46:48.027Z</time></trkpt><trkpt lat="43.1627903" lon="12.5566885"><ele>482.0</ele><time>2026-04-24T08:46:49.031Z</time></trkpt><trkpt lat="43.1627619" lon="12.5568287"><ele>484.0</ele><time>2026-04-24T08:46:50.017Z</time></trkpt><trkpt lat="43.1627214" lon="12.5569622"><ele>486.0</ele><time>2026-04-24T08:46:51.03Z</time></trkpt><trkpt lat="43.1626763" lon="12.5570794"><ele>487.6</ele><time>2026-04-24T08:46:52.03Z</time></trkpt><trkpt lat="43.1626265" lon="12.5572036"><ele>489.20000000000005</ele><time>2026-04-24T08:46:53.032Z</time></trkpt><trkpt lat="43.1625703" lon="12.5573238"><ele>490.79999999999995</ele><time>2026-04-24T08:46:54.03Z</time></trkpt><trkpt lat="43.1625141" lon="12.557447"><ele>492.4</ele><time>2026-04-24T08:46:55.052Z</time></trkpt><trkpt lat="43.1624626" lon="12.557573"><ele>494.0</ele><time>2026-04-24T08:46:56.024Z</time></trkpt><trkpt lat="43.1624047" lon="12.557697"><ele>493.25</ele><time>2026-04-24T08:46:57.037Z</time></trkpt><trkpt lat="43.1623376" lon="12.5578207"><ele>492.5</ele><time>2026-04-24T08:46:58.03Z</time></trkpt><trkpt lat="43.162261" lon="12.5579491"><ele>491.75</ele><time>2026-04-24T08:46:59.026Z</time></trkpt><trkpt lat="43.1621803" lon="12.5580717"><ele>491.0</ele><time>2026-04-24T08:47:00.003Z</time></trkpt><trkpt lat="43.1620896" lon="12.5581889"><ele>494.25</ele><time>2026-04-24T08:47:01.015Z</time></trkpt><trkpt lat="43.1619969" lon="12.5582811"><ele>497.5</ele><time>2026-04-24T08:47:02.011Z</time></trkpt><trkpt lat="43.1618883" lon="12.5583504"><ele>500.75</ele><time>2026-04-24T08:47:03.029Z</time></trkpt><trkpt lat="43.1617662" lon="12.5583908"><ele>504.0</ele><time>2026-04-24T08:47:04.021Z</time></trkpt><trkpt lat="43.161648" lon="12.5584282"><ele>504.5</ele><time>2026-04-24T08:47:05.044Z</time></trkpt><trkpt lat="43.1615308" lon="12.558469"><ele>505.0</ele><time>2026-04-24T08:47:06.032Z</time></trkpt><trkpt lat="43.1614022" lon="12.5585219"><ele>505.5</ele><time>2026-04-24T08:47:07.024Z</time></trkpt><trkpt lat="43.1612764" lon="12.5585697"><ele>506.0</ele><time>2026-04-24T08:47:08.022Z</time></trkpt><trkpt lat="43.1611531" lon="12.5586127"><ele>506.0</ele><time>2026-04-24T08:47:09.001Z</time></trkpt><trkpt lat="43.1610367" lon="12.5586508"><ele>506.0</ele><time>2026-04-24T08:47:10.02Z</time></trkpt><trkpt lat="43.1609174" lon="12.5586889"><ele>506.0</ele><time>2026-04-24T08:47:11.023Z</time></trkpt><trkpt lat="43.1608025" lon="12.5587321"><ele>506.0</ele><time>2026-04-24T08:47:12.029Z</time></trkpt><trkpt lat="43.1606948" lon="12.5587613"><ele>509.6</ele><time>2026-04-24T08:47:13.012Z</time></trkpt><trkpt lat="43.1605842" lon="12.5587908"><ele>513.2</ele><time>2026-04-24T08:47:14.013Z</time></trkpt><trkpt lat="43.1604716" lon="12.5588246"><ele>516.8</ele><time>2026-04-24T08:47:15.027Z</time></trkpt><trkpt lat="43.1603652" lon="12.5588549"><ele>520.4</ele><time>2026-04-24T08:47:16.047Z</time></trkpt><trkpt lat="43.1602635" lon="12.5588948"><ele>524.0</ele><time>2026-04-24T08:47:17.027Z</time></trkpt><trkpt lat="43.1601672" lon="12.5589608"><ele>524.0</ele><time>2026-04-24T08:47:18.033Z</time></trkpt><trkpt lat="43.1600881" lon="12.5590495"><ele>524.0</ele><time>2026-04-24T08:47:19.025Z</time></trkpt><trkpt lat="43.1600241" lon="12.5591639"><ele>524.0</ele><time>2026-04-24T08:47:20.025Z</time></trkpt><trkpt lat="43.1599912" lon="12.5592645"><ele>524.0</ele><time>2026-04-24T08:47:21.022Z</time></trkpt><trkpt lat="43.1599976" lon="12.5593637"><ele>524.0</ele><time>2026-04-24T08:47:21.998Z</time></trkpt><trkpt lat="43.1600309" lon="12.5594405"><ele>524.0</ele><time>2026-04-24T08:47:23.045Z</time></trkpt><trkpt lat="43.160081" lon="12.5594953"><ele>525.0</ele><time>2026-04-24T08:47:24.022Z</time></trkpt><trkpt lat="43.1601306" lon="12.5595518"><ele>526.0</ele><time>2026-04-24T08:47:25.033Z</time></trkpt><trkpt lat="43.1602179" lon="12.5596581"><ele>527.0</ele><time>2026-04-24T08:47:27.027Z</time></trkpt><trkpt lat="43.160276" lon="12.5597269"><ele>528.0</ele><time>2026-04-24T08:47:28.019Z</time></trkpt><trkpt lat="43.1603352" lon="12.5598136"><ele>529.0</ele><time>2026-04-24T08:47:29.02Z</time></trkpt><trkpt lat="43.1604032" lon="12.5598976"><ele>530.0</ele><time>2026-04-24T08:47:30.028Z</time></trkpt><trkpt lat="43.1604678" lon="12.5599921"><ele>530.0</ele><time>2026-04-24T08:47:31.022Z</time></trkpt><trkpt lat="43.1605451" lon="12.5600843"><ele>530.0</ele><time>2026-04-24T08:47:32.019Z</time></trkpt><trkpt lat="43.1606284" lon="12.5601787"><ele>530.0</ele><time>2026-04-24T08:47:33.035Z</time></trkpt><trkpt lat="43.160716" lon="12.5602651"><ele>530.0</ele><time>2026-04-24T08:47:34.036Z</time></trkpt><trkpt lat="43.1607976" lon="12.5603485"><ele>530.0</ele><time>2026-04-24T08:47:35.018Z</time></trkpt><trkpt lat="43.1608819" lon="12.5604118"><ele>532.8</ele><time>2026-04-24T08:47:36.02Z</time></trkpt><trkpt lat="43.1609631" lon="12.5604513"><ele>535.6</ele><time>2026-04-24T08:47:37.024Z</time></trkpt><trkpt lat="43.1610576" lon="12.5604644"><ele>538.4</ele><time>2026-04-24T08:47:38.035Z</time></trkpt><trkpt lat="43.1611515" lon="12.560486"><ele>541.2</ele><time>2026-04-24T08:47:39.021Z</time></trkpt><trkpt lat="43.1612405" lon="12.5605116"><ele>544.0</ele><time>2026-04-24T08:47:40.036Z</time></trkpt><trkpt lat="43.1613306" lon="12.5605453"><ele>544.0</ele><time>2026-04-24T08:47:41.015Z</time></trkpt><trkpt lat="43.1614247" lon="12.5605846"><ele>544.0</ele><time>2026-04-24T08:47:42.009Z</time></trkpt><trkpt lat="43.161515" lon="12.5606304"><ele>544.0</ele><time>2026-04-24T08:47:43.03Z</time></trkpt><trkpt lat="43.161605" lon="12.5606839"><ele>544.0</ele><time>2026-04-24T08:47:44.019Z</time></trkpt><trkpt lat="43.1616948" lon="12.5607398"><ele>544.0</ele><time>2026-04-24T08:47:45.012Z</time></trkpt><trkpt lat="43.1617867" lon="12.560798"><ele>543.5</ele><time>2026-04-24T08:47:46.024Z</time></trkpt><trkpt lat="43.1618789" lon="12.5608541"><ele>543.0</ele><time>2026-04-24T08:47:47.049Z</time></trkpt><trkpt lat="43.1619612" lon="12.5609036"><ele>542.5</ele><time>2026-04-24T08:47:48.04Z</time></trkpt><trkpt lat="43.1620376" lon="12.5609505"><ele>542.0</ele><time>2026-04-24T08:47:49.043Z</time></trkpt><trkpt lat="43.1620991" lon="12.5609903"><ele>541.5</ele><time>2026-04-24T08:47:50.024Z</time></trkpt><trkpt lat="43.1621615" lon="12.5610287"><ele>541.0</ele><time>2026-04-24T08:47:51.023Z</time></trkpt><trkpt lat="43.1622698" lon="12.5611082"><ele>541.0</ele><time>2026-04-24T08:47:53.022Z</time></trkpt><trkpt lat="43.1623218" lon="12.5611636"><ele>541.0</ele><time>2026-04-24T08:47:54.01Z</time></trkpt><trkpt lat="43.1624182" lon="12.5612484"><ele>541.0</ele><time>2026-04-24T08:47:56.024Z</time></trkpt><trkpt lat="43.1624748" lon="12.5613198"><ele>541.0</ele><time>2026-04-24T08:47:58.028Z</time></trkpt><trkpt lat="43.1625256" lon="12.5613923"><ele>541.0</ele><time>2026-04-24T08:48:08.027Z</time></trkpt><trkpt lat="43.1625629" lon="12.5615042"><ele>541.0</ele><time>2026-04-24T08:48:10.037Z</time></trkpt><trkpt lat="43.1625718" lon="12.5615917"><ele>541.8</ele><time>2026-04-24T08:48:11.028Z</time></trkpt><trkpt lat="43.1626129" lon="12.5617726"><ele>542.6</ele><time>2026-04-24T08:48:13.009Z</time></trkpt><trkpt lat="43.1626487" lon="12.5618913"><ele>543.4</ele><time>2026-04-24T08:48:14.028Z</time></trkpt><trkpt lat="43.1626845" lon="12.5620162"><ele>544.2</ele><time>2026-04-24T08:48:15.038Z</time></trkpt><trkpt lat="43.1627154" lon="12.5621394"><ele>545.0</ele><time>2026-04-24T08:48:16.021Z</time></trkpt><trkpt lat="43.1627493" lon="12.5622625"><ele>543.0</ele><time>2026-04-24T08:48:17.034Z</time></trkpt><trkpt lat="43.1627887" lon="12.5623966"><ele>541.0</ele><time>2026-04-24T08:48:18.029Z</time></trkpt><trkpt lat="43.1628306" lon="12.5625342"><ele>539.0</ele><time>2026-04-24T08:48:19.028Z</time></trkpt><trkpt lat="43.1628732" lon="12.5626754"><ele>537.0</ele><time>2026-04-24T08:48:20.016Z</time></trkpt><trkpt lat="43.162918" lon="12.5628256"><ele>535.0</ele><time>2026-04-24T08:48:21.039Z</time></trkpt><trkpt lat="43.1629597" lon="12.5629788"><ele>532.6</ele><time>2026-04-24T08:48:22.029Z</time></trkpt><trkpt lat="43.1629981" lon="12.563137"><ele>530.2</ele><time>2026-04-24T08:48:23.038Z</time></trkpt><trkpt lat="43.1630336" lon="12.5632873"><ele>527.8</ele><time>2026-04-24T08:48:24.024Z</time></trkpt><trkpt lat="43.1630595" lon="12.5634377"><ele>525.4</ele><time>2026-04-24T08:48:25.033Z</time></trkpt><trkpt lat="43.1630784" lon="12.5635722"><ele>523.0</ele><time>2026-04-24T08:48:26.037Z</time></trkpt><trkpt lat="43.1630903" lon="12.5636974"><ele>521.2857142857142</ele><time>2026-04-24T08:48:27.032Z</time></trkpt><trkpt lat="43.1630967" lon="12.563801"><ele>519.5714285714286</ele><time>2026-04-24T08:48:28.027Z</time></trkpt><trkpt lat="43.163091" lon="12.5638943"><ele>517.8571428571429</ele><time>2026-04-24T08:48:29.037Z</time></trkpt><trkpt lat="43.1630585" lon="12.5639719"><ele>516.1428571428571</ele><time>2026-04-24T08:48:30.043Z</time></trkpt><trkpt lat="43.1629982" lon="12.5640139"><ele>514.4285714285714</ele><time>2026-04-24T08:48:31.026Z</time></trkpt><trkpt lat="43.1629224" lon="12.5640255"><ele>512.7142857142857</ele><time>2026-04-24T08:48:32.028Z</time></trkpt><trkpt lat="43.1628506" lon="12.564034"><ele>511.0</ele><time>2026-04-24T08:48:33.022Z</time></trkpt><trkpt lat="43.1627827" lon="12.5640618"><ele>511.00000000000006</ele><time>2026-04-24T08:48:34.015Z</time></trkpt><trkpt lat="43.1627232" lon="12.5641341"><ele>511.0</ele><time>2026-04-24T08:48:35.03Z</time></trkpt><trkpt lat="43.1626705" lon="12.5642276"><ele>511.0</ele><time>2026-04-24T08:48:36.018Z</time></trkpt><trkpt lat="43.1626376" lon="12.5643279"><ele>511.0</ele><time>2026-04-24T08:48:37.024Z</time></trkpt><trkpt lat="43.1626122" lon="12.5644441"><ele>511.00000000000006</ele><time>2026-04-24T08:48:38.026Z</time></trkpt><trkpt lat="43.162593" lon="12.5645617"><ele>511.0</ele><time>2026-04-24T08:48:39.007Z</time></trkpt><trkpt lat="43.1625712" lon="12.5646905"><ele>508.0</ele><time>2026-04-24T08:48:40.02Z</time></trkpt><trkpt lat="43.1625485" lon="12.5648247"><ele>505.0</ele><time>2026-04-24T08:48:41.022Z</time></trkpt><trkpt lat="43.1625206" lon="12.5649575"><ele>502.0</ele><time>2026-04-24T08:48:42.02Z</time></trkpt><trkpt lat="43.162494" lon="12.5650873"><ele>499.0</ele><time>2026-04-24T08:48:43.011Z</time></trkpt><trkpt lat="43.1624681" lon="12.5652197"><ele>496.0</ele><time>2026-04-24T08:48:44.031Z</time></trkpt><trkpt lat="43.1624399" lon="12.5653509"><ele>494.6</ele><time>2026-04-24T08:48:45.018Z</time></trkpt><trkpt lat="43.16241" lon="12.5654783"><ele>493.20000000000005</ele><time>2026-04-24T08:48:46.018Z</time></trkpt><trkpt lat="43.1623837" lon="12.5656135"><ele>491.79999999999995</ele><time>2026-04-24T08:48:47.03Z</time></trkpt><trkpt lat="43.162364" lon="12.565742"><ele>490.4</ele><time>2026-04-24T08:48:48.045Z</time></trkpt><trkpt lat="43.1623385" lon="12.5658778"><ele>489.0</ele><time>2026-04-24T08:48:49.017Z</time></trkpt><trkpt lat="43.1623111" lon="12.5660243"><ele>489.0</ele><time>2026-04-24T08:48:50.024Z</time></trkpt><trkpt lat="43.1622899" lon="12.5661694"><ele>489.0</ele><time>2026-04-24T08:48:51.037Z</time></trkpt><trkpt lat="43.1622598" lon="12.5663165"><ele>489.0</ele><time>2026-04-24T08:48:52.026Z</time></trkpt><trkpt lat="43.1622295" lon="12.5664506"><ele>489.0</ele><time>2026-04-24T08:48:53.03Z</time></trkpt><trkpt lat="43.1622039" lon="12.566581"><ele>489.0</ele><time>2026-04-24T08:48:54.023Z</time></trkpt><trkpt lat="43.162171" lon="12.5666997"><ele>487.0</ele><time>2026-04-24T08:48:55.025Z</time></trkpt><trkpt lat="43.1621328" lon="12.5668054"><ele>485.0</ele><time>2026-04-24T08:48:56.034Z</time></trkpt><trkpt lat="43.1620808" lon="12.5668957"><ele>483.0</ele><time>2026-04-24T08:48:57.046Z</time></trkpt><trkpt lat="43.1620233" lon="12.566974"><ele>481.0</ele><time>2026-04-24T08:48:58.032Z</time></trkpt><trkpt lat="43.1619658" lon="12.5670437"><ele>479.0</ele><time>2026-04-24T08:48:59.015Z</time></trkpt><trkpt lat="43.1619043" lon="12.5671141"><ele>477.0</ele><time>2026-04-24T08:49:00.009Z</time></trkpt><trkpt lat="43.1618612" lon="12.5671864"><ele>475.5</ele><time>2026-04-24T08:49:01.012Z</time></trkpt><trkpt lat="43.1618438" lon="12.56729"><ele>474.0</ele><time>2026-04-24T08:49:02.023Z</time></trkpt><trkpt lat="43.1618517" lon="12.5673903"><ele>472.5</ele><time>2026-04-24T08:49:03.037Z</time></trkpt><trkpt lat="43.1618829" lon="12.5674882"><ele>471.0</ele><time>2026-04-24T08:49:04.025Z</time></trkpt><trkpt lat="43.1619296" lon="12.567583"><ele>469.5</ele><time>2026-04-24T08:49:05.021Z</time></trkpt><trkpt lat="43.1619766" lon="12.5676871"><ele>468.0</ele><time>2026-04-24T08:49:06.034Z</time></trkpt><trkpt lat="43.1620213" lon="12.5678057"><ele>465.4</ele><time>2026-04-24T08:49:07.023Z</time></trkpt><trkpt lat="43.1620417" lon="12.5679244"><ele>462.79999999999995</ele><time>2026-04-24T08:49:08.023Z</time></trkpt><trkpt lat="43.1620405" lon="12.5680481"><ele>460.2</ele><time>2026-04-24T08:49:09.027Z</time></trkpt><trkpt lat="43.1620199" lon="12.5681872"><ele>457.6</ele><time>2026-04-24T08:49:10.028Z</time></trkpt><trkpt lat="43.1619832" lon="12.5683029"><ele>455.0</ele><time>2026-04-24T08:49:11.02Z</time></trkpt><trkpt lat="43.1619306" lon="12.5684214"><ele>455.0</ele><time>2026-04-24T08:49:12.036Z</time></trkpt><trkpt lat="43.161866" lon="12.5685294"><ele>455.0</ele><time>2026-04-24T08:49:13.05Z</time></trkpt><trkpt lat="43.1617971" lon="12.5686184"><ele>455.0</ele><time>2026-04-24T08:49:14.028Z</time></trkpt><trkpt lat="43.161735" lon="12.5687087"><ele>455.0</ele><time>2026-04-24T08:49:15.027Z</time></trkpt><trkpt lat="43.1616594" lon="12.5687966"><ele>455.0</ele><time>2026-04-24T08:49:16.004Z</time></trkpt><trkpt lat="43.1615899" lon="12.5688925"><ele>453.6</ele><time>2026-04-24T08:49:17.033Z</time></trkpt><trkpt lat="43.1615139" lon="12.5689835"><ele>452.2</ele><time>2026-04-24T08:49:18.019Z</time></trkpt><trkpt lat="43.1614326" lon="12.5690724"><ele>450.79999999999995</ele><time>2026-04-24T08:49:19.043Z</time></trkpt><trkpt lat="43.1613456" lon="12.5691494"><ele>449.4</ele><time>2026-04-24T08:49:20.03Z</time></trkpt><trkpt lat="43.1612512" lon="12.5692261"><ele>448.0</ele><time>2026-04-24T08:49:21.023Z</time></trkpt><trkpt lat="43.1611624" lon="12.5692924"><ele>448.0</ele><time>2026-04-24T08:49:22.036Z</time></trkpt><trkpt lat="43.1610819" lon="12.5693773"><ele>447.99999999999994</ele><time>2026-04-24T08:49:23.025Z</time></trkpt><trkpt lat="43.1610093" lon="12.5694755"><ele>447.99999999999994</ele><time>2026-04-24T08:49:24.039Z</time></trkpt><trkpt lat="43.1609406" lon="12.5695792"><ele>448.0</ele><time>2026-04-24T08:49:25.026Z</time></trkpt><trkpt lat="43.1608783" lon="12.5696774"><ele>448.0</ele><time>2026-04-24T08:49:26.014Z</time></trkpt><trkpt lat="43.1608111" lon="12.5697812"><ele>446.59999999999997</ele><time>2026-04-24T08:49:27.028Z</time></trkpt><trkpt lat="43.1607411" lon="12.5698839"><ele>445.19999999999993</ele><time>2026-04-24T08:49:28.026Z</time></trkpt><trkpt lat="43.1606636" lon="12.5699838"><ele>443.8</ele><time>2026-04-24T08:49:29.036Z</time></trkpt><trkpt lat="43.1605753" lon="12.5700757"><ele>442.4</ele><time>2026-04-24T08:49:30.033Z</time></trkpt><trkpt lat="43.1604855" lon="12.5701617"><ele>441.0</ele><time>2026-04-24T08:49:31.021Z</time></trkpt><trkpt lat="43.1603914" lon="12.5702457"><ele>441.0</ele><time>2026-04-24T08:49:32.034Z</time></trkpt><trkpt lat="43.160301" lon="12.5703333"><ele>441.0</ele><time>2026-04-24T08:49:33.034Z</time></trkpt><trkpt lat="43.1602131" lon="12.5704327"><ele>441.0</ele><time>2026-04-24T08:49:34.039Z</time></trkpt><trkpt lat="43.1601335" lon="12.5705155"><ele>441.0</ele><time>2026-04-24T08:49:35.039Z</time></trkpt><trkpt lat="43.1600556" lon="12.5706026"><ele>441.0</ele><time>2026-04-24T08:49:36.044Z</time></trkpt><trkpt lat="43.1599739" lon="12.5706953"><ele>440.75</ele><time>2026-04-24T08:49:37.041Z</time></trkpt><trkpt lat="43.1598877" lon="12.5708038"><ele>440.5</ele><time>2026-04-24T08:49:38.036Z</time></trkpt><trkpt lat="43.1597944" lon="12.5709117"><ele>440.25</ele><time>2026-04-24T08:49:39.038Z</time></trkpt><trkpt lat="43.1597079" lon="12.5710062"><ele>440.0</ele><time>2026-04-24T08:49:40.037Z</time></trkpt><trkpt lat="43.159618" lon="12.571111"><ele>437.6</ele><time>2026-04-24T08:49:41.002Z</time></trkpt><trkpt lat="43.159531" lon="12.5712062"><ele>435.2</ele><time>2026-04-24T08:49:42.039Z</time></trkpt><trkpt lat="43.1594505" lon="12.5712975"><ele>432.79999999999995</ele><time>2026-04-24T08:49:43.026Z</time></trkpt><trkpt lat="43.1593822" lon="12.5713951"><ele>430.4</ele><time>2026-04-24T08:49:44.028Z</time></trkpt><trkpt lat="43.1593466" lon="12.5715058"><ele>428.0</ele><time>2026-04-24T08:49:45.048Z</time></trkpt><trkpt lat="43.1593193" lon="12.5716254"><ele>427.99999999999994</ele><time>2026-04-24T08:49:46.028Z</time></trkpt><trkpt lat="43.1593051" lon="12.5717421"><ele>428.0</ele><time>2026-04-24T08:49:47.031Z</time></trkpt><trkpt lat="43.1592887" lon="12.5718639"><ele>428.0</ele><time>2026-04-24T08:49:48.031Z</time></trkpt><trkpt lat="43.159256" lon="12.5719669"><ele>428.0</ele><time>2026-04-24T08:49:49.041Z</time></trkpt><trkpt lat="43.1591817" lon="12.5720402"><ele>427.99999999999994</ele><time>2026-04-24T08:49:50.038Z</time></trkpt><trkpt lat="43.1590977" lon="12.5720817"><ele>428.0</ele><time>2026-04-24T08:49:51.027Z</time></trkpt><trkpt lat="43.159015" lon="12.5720849"><ele>425.0</ele><time>2026-04-24T08:49:52.022Z</time></trkpt><trkpt lat="43.1589319" lon="12.5720784"><ele>421.99999999999994</ele><time>2026-04-24T08:49:53.042Z</time></trkpt><trkpt lat="43.1588366" lon="12.5720757"><ele>419.0</ele><time>2026-04-24T08:49:54.03Z</time></trkpt><trkpt lat="43.1587335" lon="12.5720679"><ele>416.0</ele><time>2026-04-24T08:49:55.022Z</time></trkpt><trkpt lat="43.1586214" lon="12.5720643"><ele>413.0</ele><time>2026-04-24T08:49:55.992Z</time></trkpt><trkpt lat="43.1585136" lon="12.5720587"><ele>413.0</ele><time>2026-04-24T08:49:57.028Z</time></trkpt><trkpt lat="43.1584061" lon="12.5720536"><ele>413.0</ele><time>2026-04-24T08:49:58.03Z</time></trkpt><trkpt lat="43.1582911" lon="12.5720434"><ele>413.0</ele><time>2026-04-24T08:49:59.022Z</time></trkpt><trkpt lat="43.1581764" lon="12.5720262"><ele>413.0</ele><time>2026-04-24T08:50:00.009Z</time></trkpt><trkpt lat="43.1580602" lon="12.5720067"><ele>416.2</ele><time>2026-04-24T08:50:01.011Z</time></trkpt><trkpt lat="43.1579487" lon="12.5719848"><ele>419.4</ele><time>2026-04-24T08:50:02.025Z</time></trkpt><trkpt lat="43.1578429" lon="12.5719517"><ele>422.59999999999997</ele><time>2026-04-24T08:50:03.031Z</time></trkpt><trkpt lat="43.1577547" lon="12.5719051"><ele>425.79999999999995</ele><time>2026-04-24T08:50:04.024Z</time></trkpt><trkpt lat="43.1576815" lon="12.5718465"><ele>429.0</ele><time>2026-04-24T08:50:05.025Z</time></trkpt><trkpt lat="43.1576224" lon="12.5717766"><ele>429.0</ele><time>2026-04-24T08:50:06.022Z</time></trkpt><trkpt lat="43.1575797" lon="12.5716894"><ele>429.0</ele><time>2026-04-24T08:50:07.043Z</time></trkpt><trkpt lat="43.1575466" lon="12.571594"><ele>429.0</ele><time>2026-04-24T08:50:08.021Z</time></trkpt><trkpt lat="43.1575233" lon="12.5714899"><ele>429.0</ele><time>2026-04-24T08:50:09.034Z</time></trkpt><trkpt lat="43.1575146" lon="12.5713733"><ele>429.0</ele><time>2026-04-24T08:50:10.006Z</time></trkpt><trkpt lat="43.157504" lon="12.5712556"><ele>429.0</ele><time>2026-04-24T08:50:11.029Z</time></trkpt><trkpt lat="43.157471" lon="12.5711442"><ele>430.0</ele><time>2026-04-24T08:50:12.029Z</time></trkpt><trkpt lat="43.1574304" lon="12.57105"><ele>431.0</ele><time>2026-04-24T08:50:13.006Z</time></trkpt><trkpt lat="43.1573701" lon="12.5709673"><ele>432.0</ele><time>2026-04-24T08:50:13.997Z</time></trkpt><trkpt lat="43.1572919" lon="12.5708869"><ele>433.0</ele><time>2026-04-24T08:50:15.02Z</time></trkpt><trkpt lat="43.1572026" lon="12.570841"><ele>434.0</ele><time>2026-04-24T08:50:16.017Z</time></trkpt><trkpt lat="43.157117" lon="12.5708271"><ele>435.0</ele><time>2026-04-24T08:50:17.032Z</time></trkpt><trkpt lat="43.1570473" lon="12.5708337"><ele>435.0</ele><time>2026-04-24T08:50:18.025Z</time></trkpt><trkpt lat="43.1569666" lon="12.5708568"><ele>435.0</ele><time>2026-04-24T08:50:20.026Z</time></trkpt><trkpt lat="43.1568764" lon="12.5708752"><ele>435.0</ele><time>2026-04-24T08:50:31.016Z</time></trkpt><trkpt lat="43.1567938" lon="12.5708931"><ele>435.0</ele><time>2026-04-24T08:50:33.023Z</time></trkpt><trkpt lat="43.1566817" lon="12.5708965"><ele>435.0</ele><time>2026-04-24T08:50:35.026Z</time></trkpt><trkpt lat="43.156618" lon="12.5708819"><ele>435.0</ele><time>2026-04-24T08:50:36.004Z</time></trkpt><trkpt lat="43.1565408" lon="12.5708709"><ele>433.5</ele><time>2026-04-24T08:50:37.034Z</time></trkpt><trkpt lat="43.1564572" lon="12.5708585"><ele>432.0</ele><time>2026-04-24T08:50:38.028Z</time></trkpt><trkpt lat="43.1563734" lon="12.5708452"><ele>430.5</ele><time>2026-04-24T08:50:39.032Z</time></trkpt><trkpt lat="43.1562932" lon="12.5708382"><ele>429.0</ele><time>2026-04-24T08:50:40.015Z</time></trkpt><trkpt lat="43.1562128" lon="12.5708311"><ele>427.5</ele><time>2026-04-24T08:50:41Z</time></trkpt><trkpt lat="43.1561334" lon="12.5708347"><ele>426.0</ele><time>2026-04-24T08:50:42.022Z</time></trkpt><trkpt lat="43.1560619" lon="12.5708334"><ele>426.0</ele><time>2026-04-24T08:50:43.02Z</time></trkpt><trkpt lat="43.1559989" lon="12.5708429"><ele>426.0</ele><time>2026-04-24T08:50:44.033Z</time></trkpt><trkpt lat="43.1558905" lon="12.5708662"><ele>426.0</ele><time>2026-04-24T08:50:46.023Z</time></trkpt><trkpt lat="43.1558076" lon="12.5709071"><ele>426.0</ele><time>2026-04-24T08:50:48.019Z</time></trkpt><trkpt lat="43.1557321" lon="12.5709645"><ele>426.0</ele><time>2026-04-24T08:50:51.005Z</time></trkpt><trkpt lat="43.1556839" lon="12.5710477"><ele>426.0</ele><time>2026-04-24T08:50:54.003Z</time></trkpt><trkpt lat="43.1556465" lon="12.5711759"><ele>422.0</ele><time>2026-04-24T08:50:57.025Z</time></trkpt><trkpt lat="43.1555889" lon="12.5713043"><ele>418.0</ele><time>2026-04-24T08:50:59.001Z</time></trkpt><trkpt lat="43.1555646" lon="12.5714736"><ele>414.0</ele><time>2026-04-24T08:51:01.028Z</time></trkpt><trkpt lat="43.1555603" lon="12.5715772"><ele>410.0</ele><time>2026-04-24T08:51:02.003Z</time></trkpt><trkpt lat="43.1555629" lon="12.5716849"><ele>406.0</ele><time>2026-04-24T08:51:03.025Z</time></trkpt><trkpt lat="43.1555694" lon="12.5717905"><ele>406.0</ele><time>2026-04-24T08:51:04.027Z</time></trkpt><trkpt lat="43.1555699" lon="12.5718965"><ele>406.0</ele><time>2026-04-24T08:51:05.019Z</time></trkpt><trkpt lat="43.1555609" lon="12.5719864"><ele>406.0</ele><time>2026-04-24T08:51:06.025Z</time></trkpt><trkpt lat="43.1555514" lon="12.5720862"><ele>406.0</ele><time>2026-04-24T08:51:07.048Z</time></trkpt><trkpt lat="43.1555402" lon="12.5721775"><ele>406.0</ele><time>2026-04-24T08:51:08.026Z</time></trkpt><trkpt lat="43.1555195" lon="12.5722674"><ele>406.0</ele><time>2026-04-24T08:51:09.031Z</time></trkpt><trkpt lat="43.1555033" lon="12.5723574"><ele>406.0</ele><time>2026-04-24T08:51:10.028Z</time></trkpt><trkpt lat="43.155482" lon="12.5724468"><ele>405.33333333333337</ele><time>2026-04-24T08:51:11.027Z</time></trkpt><trkpt lat="43.1554599" lon="12.5725402"><ele>404.6666666666667</ele><time>2026-04-24T08:51:12.031Z</time></trkpt><trkpt lat="43.1554374" lon="12.5726301"><ele>404.0</ele><time>2026-04-24T08:51:13.041Z</time></trkpt><trkpt lat="43.155412" lon="12.572732"><ele>403.33333333333337</ele><time>2026-04-24T08:51:14.029Z</time></trkpt><trkpt lat="43.1553847" lon="12.5728272"><ele>402.6666666666667</ele><time>2026-04-24T08:51:15.038Z</time></trkpt><trkpt lat="43.1553547" lon="12.5729212"><ele>402.0</ele><time>2026-04-24T08:51:16.001Z</time></trkpt><trkpt lat="43.1553251" lon="12.5730268"><ele>400.8</ele><time>2026-04-24T08:51:17.031Z</time></trkpt><trkpt lat="43.1552953" lon="12.573145"><ele>399.6</ele><time>2026-04-24T08:51:18.02Z</time></trkpt><trkpt lat="43.1552732" lon="12.573272"><ele>398.40000000000003</ele><time>2026-04-24T08:51:19.037Z</time></trkpt><trkpt lat="43.1552593" lon="12.5734111"><ele>397.20000000000005</ele><time>2026-04-24T08:51:20.037Z</time></trkpt><trkpt lat="43.1552506" lon="12.573552"><ele>396.0</ele><time>2026-04-24T08:51:21.034Z</time></trkpt><trkpt lat="43.1552499" lon="12.573681"><ele>394.3333333333333</ele><time>2026-04-24T08:51:22.038Z</time></trkpt><trkpt lat="43.1552541" lon="12.5738052"><ele>392.66666666666663</ele><time>2026-04-24T08:51:23.033Z</time></trkpt><trkpt lat="43.155262" lon="12.573925"><ele>391.0</ele><time>2026-04-24T08:51:24.006Z</time></trkpt><trkpt lat="43.1552669" lon="12.5740365"><ele>389.3333333333333</ele><time>2026-04-24T08:51:25.04Z</time></trkpt><trkpt lat="43.1552716" lon="12.5741416"><ele>387.66666666666663</ele><time>2026-04-24T08:51:26.014Z</time></trkpt><trkpt lat="43.155255" lon="12.574241"><ele>386.0</ele><time>2026-04-24T08:51:27.019Z</time></trkpt><trkpt lat="43.1552143" lon="12.5743303"><ele>386.00000000000006</ele><time>2026-04-24T08:51:28.027Z</time></trkpt><trkpt lat="43.1551546" lon="12.5743927"><ele>386.0</ele><time>2026-04-24T08:51:29.022Z</time></trkpt><trkpt lat="43.1550829" lon="12.5744458"><ele>386.0</ele><time>2026-04-24T08:51:30.044Z</time></trkpt><trkpt lat="43.1550086" lon="12.574472"><ele>386.0</ele><time>2026-04-24T08:51:31.045Z</time></trkpt><trkpt lat="43.1549422" lon="12.5744842"><ele>386.0</ele><time>2026-04-24T08:51:32.036Z</time></trkpt><trkpt lat="43.1548788" lon="12.5745107"><ele>386.00000000000006</ele><time>2026-04-24T08:51:33.009Z</time></trkpt><trkpt lat="43.1548259" lon="12.57456"><ele>386.0</ele><time>2026-04-24T08:51:34.033Z</time></trkpt><trkpt lat="43.1547846" lon="12.5746375"><ele>380.3333333333333</ele><time>2026-04-24T08:51:35.037Z</time></trkpt><trkpt lat="43.1547493" lon="12.5747367"><ele>374.66666666666663</ele><time>2026-04-24T08:51:36.018Z</time></trkpt><trkpt lat="43.1547381" lon="12.5748514"><ele>369.0</ele><time>2026-04-24T08:51:37.032Z</time></trkpt><trkpt lat="43.1547383" lon="12.5749801"><ele>363.3333333333333</ele><time>2026-04-24T08:51:38.009Z</time></trkpt><trkpt lat="43.1547255" lon="12.5751088"><ele>357.66666666666663</ele><time>2026-04-24T08:51:39.022Z</time></trkpt><trkpt lat="43.1547165" lon="12.5752388"><ele>352.0</ele><time>2026-04-24T08:51:40.042Z</time></trkpt><trkpt lat="43.1547042" lon="12.5753763"><ele>350.5</ele><time>2026-04-24T08:51:41.047Z</time></trkpt><trkpt lat="43.1546878" lon="12.5755286"><ele>349.0</ele><time>2026-04-24T08:51:42.023Z</time></trkpt><trkpt lat="43.1546788" lon="12.5756784"><ele>347.5</ele><time>2026-04-24T08:51:43.032Z</time></trkpt><trkpt lat="43.1546679" lon="12.5758308"><ele>346.0</ele><time>2026-04-24T08:51:44.032Z</time></trkpt><trkpt lat="43.1546583" lon="12.5759901"><ele>346.0</ele><time>2026-04-24T08:51:45.036Z</time></trkpt><trkpt lat="43.1546545" lon="12.5761457"><ele>346.0</ele><time>2026-04-24T08:51:46.016Z</time></trkpt><trkpt lat="43.1546464" lon="12.5762999"><ele>346.0</ele><time>2026-04-24T08:51:47.013Z</time></trkpt><trkpt lat="43.1546343" lon="12.5764554"><ele>346.0</ele><time>2026-04-24T08:51:48.019Z</time></trkpt><trkpt lat="43.1546255" lon="12.5766094"><ele>344.4</ele><time>2026-04-24T08:51:49.008Z</time></trkpt><trkpt lat="43.1546156" lon="12.5767686"><ele>342.8</ele><time>2026-04-24T08:51:50.031Z</time></trkpt><trkpt lat="43.1546023" lon="12.5769223"><ele>341.2</ele><time>2026-04-24T08:51:51.013Z</time></trkpt><trkpt lat="43.1545886" lon="12.5770616"><ele>339.59999999999997</ele><time>2026-04-24T08:51:52.025Z</time></trkpt><trkpt lat="43.1545735" lon="12.5771895"><ele>338.0</ele><time>2026-04-24T08:51:53.026Z</time></trkpt><trkpt lat="43.1545508" lon="12.5773152"><ele>337.5</ele><time>2026-04-24T08:51:54.015Z</time></trkpt><trkpt lat="43.1545228" lon="12.5774333"><ele>337.0</ele><time>2026-04-24T08:51:55.027Z</time></trkpt><trkpt lat="43.1544948" lon="12.5775424"><ele>336.5</ele><time>2026-04-24T08:51:56.016Z</time></trkpt><trkpt lat="43.1544682" lon="12.5776592"><ele>336.0</ele><time>2026-04-24T08:51:57.015Z</time></trkpt><trkpt lat="43.1544439" lon="12.5777711"><ele>335.5</ele><time>2026-04-24T08:51:58.028Z</time></trkpt><trkpt lat="43.1544231" lon="12.5778774"><ele>335.0</ele><time>2026-04-24T08:51:59.009Z</time></trkpt><trkpt lat="43.1543984" lon="12.5779853"><ele>334.5</ele><time>2026-04-24T08:52:00.031Z</time></trkpt><trkpt lat="43.1543699" lon="12.5780867"><ele>334.0</ele><time>2026-04-24T08:52:01.03Z</time></trkpt><trkpt lat="43.1543437" lon="12.5781911"><ele>333.5</ele><time>2026-04-24T08:52:02.018Z</time></trkpt><trkpt lat="43.1543229" lon="12.578297"><ele>333.0</ele><time>2026-04-24T08:52:03.016Z</time></trkpt><trkpt lat="43.1543152" lon="12.5783987"><ele>332.5</ele><time>2026-04-24T08:52:04.03Z</time></trkpt><trkpt lat="43.1543267" lon="12.5784897"><ele>332.0</ele><time>2026-04-24T08:52:05.013Z</time></trkpt><trkpt lat="43.1543615" lon="12.5785816"><ele>332.0</ele><time>2026-04-24T08:52:06.025Z</time></trkpt><trkpt lat="43.1544267" lon="12.5786517"><ele>332.0</ele><time>2026-04-24T08:52:07.013Z</time></trkpt><trkpt lat="43.1544998" lon="12.5787202"><ele>332.0</ele><time>2026-04-24T08:52:08.025Z</time></trkpt><trkpt lat="43.1545618" lon="12.5788052"><ele>332.0</ele><time>2026-04-24T08:52:09.025Z</time></trkpt><trkpt lat="43.1546234" lon="12.5788571"><ele>332.0</ele><time>2026-04-24T08:52:10.01Z</time></trkpt><trkpt lat="43.1547107" lon="12.5788719"><ele>332.0</ele><time>2026-04-24T08:52:11.02Z</time></trkpt><trkpt lat="43.1547859" lon="12.5788932"><ele>330.83333333333337</ele><time>2026-04-24T08:52:12.009Z</time></trkpt><trkpt lat="43.1548733" lon="12.5788924"><ele>329.6666666666667</ele><time>2026-04-24T08:52:13.029Z</time></trkpt><trkpt lat="43.1549634" lon="12.57888"><ele>328.5</ele><time>2026-04-24T08:52:14.016Z</time></trkpt><trkpt lat="43.1550427" lon="12.5788581"><ele>327.3333333333333</ele><time>2026-04-24T08:52:15.021Z</time></trkpt><trkpt lat="43.1551174" lon="12.5788149"><ele>326.16666666666663</ele><time>2026-04-24T08:52:16.007Z</time></trkpt><trkpt lat="43.1551807" lon="12.578758"><ele>325.0</ele><time>2026-04-24T08:52:17.019Z</time></trkpt><trkpt lat="43.1552346" lon="12.5786828"><ele>325.0</ele><time>2026-04-24T08:52:18.02Z</time></trkpt><trkpt lat="43.1552821" lon="12.5785973"><ele>325.0</ele><time>2026-04-24T08:52:19.018Z</time></trkpt><trkpt lat="43.1553159" lon="12.5785011"><ele>325.0</ele><time>2026-04-24T08:52:19.994Z</time></trkpt><trkpt lat="43.155344" lon="12.5783842"><ele>325.0</ele><time>2026-04-24T08:52:21.01Z</time></trkpt><trkpt lat="43.155375" lon="12.5782473"><ele>325.0</ele><time>2026-04-24T08:52:22.021Z</time></trkpt><trkpt lat="43.1554015" lon="12.578108"><ele>325.0</ele><time>2026-04-24T08:52:23.012Z</time></trkpt><trkpt lat="43.1554284" lon="12.5779685"><ele>325.0</ele><time>2026-04-24T08:52:24.026Z</time></trkpt><trkpt lat="43.1554662" lon="12.5778261"><ele>325.0</ele><time>2026-04-24T08:52:25.009Z</time></trkpt><trkpt lat="43.1555089" lon="12.577703"><ele>325.0</ele><time>2026-04-24T08:52:26.015Z</time></trkpt><trkpt lat="43.15555" lon="12.5775889"><ele>325.0</ele><time>2026-04-24T08:52:27.007Z</time></trkpt><trkpt lat="43.1555889" lon="12.5774807"><ele>326.0</ele><time>2026-04-24T08:52:28.006Z</time></trkpt><trkpt lat="43.1556188" lon="12.5773771"><ele>327.0</ele><time>2026-04-24T08:52:29.015Z</time></trkpt><trkpt lat="43.1556502" lon="12.5772734"><ele>328.0</ele><time>2026-04-24T08:52:30.035Z</time></trkpt><trkpt lat="43.1556765" lon="12.5771842"><ele>329.0</ele><time>2026-04-24T08:52:31.042Z</time></trkpt><trkpt lat="43.1557108" lon="12.5771025"><ele>330.0</ele><time>2026-04-24T08:52:32.035Z</time></trkpt><trkpt lat="43.1557955" lon="12.576983"><ele>331.0</ele><time>2026-04-24T08:52:34.023Z</time></trkpt><trkpt lat="43.1559144" lon="12.5769645"><ele>327.57142857142856</ele><time>2026-04-24T08:52:36.035Z</time></trkpt><trkpt lat="43.1559658" lon="12.5770247"><ele>324.1428571428571</ele><time>2026-04-24T08:52:37.039Z</time></trkpt><trkpt lat="43.1559979" lon="12.5771113"><ele>320.71428571428567</ele><time>2026-04-24T08:52:38.047Z</time></trkpt><trkpt lat="43.1560217" lon="12.5772041"><ele>317.2857142857143</ele><time>2026-04-24T08:52:39.008Z</time></trkpt><trkpt lat="43.1560186" lon="12.5773088"><ele>313.85714285714283</ele><time>2026-04-24T08:52:40.027Z</time></trkpt><trkpt lat="43.1560051" lon="12.5774076"><ele>310.4285714285714</ele><time>2026-04-24T08:52:41.025Z</time></trkpt><trkpt lat="43.1560187" lon="12.577517"><ele>307.0</ele><time>2026-04-24T08:52:42.003Z</time></trkpt><trkpt lat="43.1560704" lon="12.5776469"><ele>307.0</ele><time>2026-04-24T08:52:43.026Z</time></trkpt><trkpt lat="43.1561368" lon="12.5777733"><ele>307.0</ele><time>2026-04-24T08:52:44.01Z</time></trkpt><trkpt lat="43.1562063" lon="12.5778881"><ele>307.0</ele><time>2026-04-24T08:52:45.011Z</time></trkpt><trkpt lat="43.156276" lon="12.5779845"><ele>307.0</ele><time>2026-04-24T08:52:46.023Z</time></trkpt><trkpt lat="43.156342" lon="12.5780769"><ele>307.0</ele><time>2026-04-24T08:52:47.023Z</time></trkpt><trkpt lat="43.1564124" lon="12.5781514"><ele>306.0</ele><time>2026-04-24T08:52:48.022Z</time></trkpt><trkpt lat="43.1564865" lon="12.5782088"><ele>305.0</ele><time>2026-04-24T08:52:49.033Z</time></trkpt><trkpt lat="43.1565732" lon="12.5782527"><ele>304.0</ele><time>2026-04-24T08:52:50.017Z</time></trkpt><trkpt lat="43.1566603" lon="12.5782721"><ele>303.0</ele><time>2026-04-24T08:52:51.03Z</time></trkpt><trkpt lat="43.1567684" lon="12.5782872"><ele>302.0</ele><time>2026-04-24T08:52:52.034Z</time></trkpt><trkpt lat="43.1568688" lon="12.5783028"><ele>297.8</ele><time>2026-04-24T08:52:53.021Z</time></trkpt><trkpt lat="43.1569786" lon="12.578309"><ele>293.6</ele><time>2026-04-24T08:52:54.002Z</time></trkpt><trkpt lat="43.1570802" lon="12.5783017"><ele>289.40000000000003</ele><time>2026-04-24T08:52:55.025Z</time></trkpt><trkpt lat="43.1571759" lon="12.578264"><ele>285.2</ele><time>2026-04-24T08:52:56.022Z</time></trkpt><trkpt lat="43.1572697" lon="12.5782113"><ele>281.0</ele><time>2026-04-24T08:52:57.025Z</time></trkpt><trkpt lat="43.1573631" lon="12.5781344"><ele>280.6</ele><time>2026-04-24T08:52:58.008Z</time></trkpt><trkpt lat="43.1574471" lon="12.5780354"><ele>280.20000000000005</ele><time>2026-04-24T08:52:59.02Z</time></trkpt><trkpt lat="43.1575156" lon="12.5779384"><ele>279.79999999999995</ele><time>2026-04-24T08:53:00.008Z</time></trkpt><trkpt lat="43.1575813" lon="12.5778562"><ele>279.4</ele><time>2026-04-24T08:53:01.006Z</time></trkpt><trkpt lat="43.1576487" lon="12.5777841"><ele>279.0</ele><time>2026-04-24T08:53:02.022Z</time></trkpt><trkpt lat="43.1577208" lon="12.5777076"><ele>279.0</ele><time>2026-04-24T08:53:03.043Z</time></trkpt><trkpt lat="43.157783" lon="12.5776519"><ele>279.0</ele><time>2026-04-24T08:53:04.018Z</time></trkpt><trkpt lat="43.1578864" lon="12.5776828"><ele>279.0</ele><time>2026-04-24T08:53:06.032Z</time></trkpt><trkpt lat="43.1579263" lon="12.5777536"><ele>279.0</ele><time>2026-04-24T08:53:07.023Z</time></trkpt><trkpt lat="43.1579296" lon="12.5778465"><ele>279.0</ele><time>2026-04-24T08:53:08.031Z</time></trkpt><trkpt lat="43.1579289" lon="12.5779404"><ele>279.0</ele><time>2026-04-24T08:53:09.043Z</time></trkpt><trkpt lat="43.1579094" lon="12.5780469"><ele>278.0</ele><time>2026-04-24T08:53:10.006Z</time></trkpt><trkpt lat="43.1578871" lon="12.578169"><ele>277.0</ele><time>2026-04-24T08:53:11.023Z</time></trkpt><trkpt lat="43.1578547" lon="12.5783071"><ele>276.0</ele><time>2026-04-24T08:53:12Z</time></trkpt><trkpt lat="43.1578225" lon="12.578453"><ele>275.0</ele><time>2026-04-24T08:53:13.033Z</time></trkpt><trkpt lat="43.1577907" lon="12.5785975"><ele>274.0</ele><time>2026-04-24T08:53:14.024Z</time></trkpt><trkpt lat="43.1577805" lon="12.5787407"><ele>273.16666666666663</ele><time>2026-04-24T08:53:15.021Z</time></trkpt><trkpt lat="43.1577894" lon="12.5788718"><ele>272.3333333333333</ele><time>2026-04-24T08:53:16.032Z</time></trkpt><trkpt lat="43.1578282" lon="12.5789858"><ele>271.5</ele><time>2026-04-24T08:53:17.023Z</time></trkpt><trkpt lat="43.157877" lon="12.5790709"><ele>270.6666666666667</ele><time>2026-04-24T08:53:18.025Z</time></trkpt><trkpt lat="43.1579239" lon="12.5791463"><ele>269.83333333333337</ele><time>2026-04-24T08:53:19.044Z</time></trkpt><trkpt lat="43.1579819" lon="12.5792521"><ele>269.0</ele><time>2026-04-24T08:53:21.015Z</time></trkpt><trkpt lat="43.1579938" lon="12.5793688"><ele>269.0</ele><time>2026-04-24T08:53:23.017Z</time></trkpt><trkpt lat="43.1579237" lon="12.5794332"><ele>269.0</ele><time>2026-04-24T08:53:25.013Z</time></trkpt><trkpt lat="43.1578061" lon="12.579409"><ele>269.0</ele><time>2026-04-24T08:53:27.016Z</time></trkpt><trkpt lat="43.1577048" lon="12.579395"><ele>269.0</ele><time>2026-04-24T08:53:29.031Z</time></trkpt><trkpt lat="43.1575644" lon="12.5794269"><ele>269.0</ele><time>2026-04-24T08:53:31.029Z</time></trkpt><trkpt lat="43.1574703" lon="12.5794651"><ele>269.0</ele><time>2026-04-24T08:53:32.018Z</time></trkpt><trkpt lat="43.1573805" lon="12.5795135"><ele>269.0</ele><time>2026-04-24T08:53:33.036Z</time></trkpt><trkpt lat="43.1572937" lon="12.5795653"><ele>269.0</ele><time>2026-04-24T08:53:34.033Z</time></trkpt><trkpt lat="43.1572025" lon="12.5796097"><ele>269.0</ele><time>2026-04-24T08:53:35.033Z</time></trkpt><trkpt lat="43.1571108" lon="12.5796584"><ele>269.0</ele><time>2026-04-24T08:53:36.036Z</time></trkpt><trkpt lat="43.157006" lon="12.5796889"><ele>269.59999999999997</ele><time>2026-04-24T08:53:37.042Z</time></trkpt><trkpt lat="43.1569051" lon="12.5796999"><ele>270.2</ele><time>2026-04-24T08:53:38.04Z</time></trkpt><trkpt lat="43.1568105" lon="12.5796937"><ele>270.79999999999995</ele><time>2026-04-24T08:53:39.043Z</time></trkpt><trkpt lat="43.156722" lon="12.5797183"><ele>271.4</ele><time>2026-04-24T08:53:40.037Z</time></trkpt><trkpt lat="43.1566413" lon="12.5797696"><ele>272.0</ele><time>2026-04-24T08:53:41.038Z</time></trkpt><trkpt lat="43.1565677" lon="12.5798517"><ele>272.25</ele><time>2026-04-24T08:53:42.018Z</time></trkpt><trkpt lat="43.1564827" lon="12.5799636"><ele>272.5</ele><time>2026-04-24T08:53:43.025Z</time></trkpt><trkpt lat="43.1563895" lon="12.5800904"><ele>272.75</ele><time>2026-04-24T08:53:44.019Z</time></trkpt><trkpt lat="43.1562919" lon="12.5802256"><ele>273.0</ele><time>2026-04-24T08:53:45.029Z</time></trkpt><trkpt lat="43.1561849" lon="12.5803704"><ele>273.0</ele><time>2026-04-24T08:53:46.029Z</time></trkpt><trkpt lat="43.1560841" lon="12.5805153"><ele>273.0</ele><time>2026-04-24T08:53:47.035Z</time></trkpt><trkpt lat="43.1559979" lon="12.5806544"><ele>273.0</ele><time>2026-04-24T08:53:48.024Z</time></trkpt><trkpt lat="43.1559251" lon="12.5807767"><ele>273.0</ele><time>2026-04-24T08:53:49.02Z</time></trkpt><trkpt lat="43.1558497" lon="12.5808776"><ele>273.0</ele><time>2026-04-24T08:53:50.01Z</time></trkpt><trkpt lat="43.1557641" lon="12.5809466"><ele>273.0</ele><time>2026-04-24T08:53:51.019Z</time></trkpt><trkpt lat="43.1556669" lon="12.5809758"><ele>273.0</ele><time>2026-04-24T08:53:52.011Z</time></trkpt><trkpt lat="43.1555664" lon="12.5809776"><ele>273.0</ele><time>2026-04-24T08:53:53.021Z</time></trkpt><trkpt lat="43.1554548" lon="12.580966"><ele>273.0</ele><time>2026-04-24T08:53:54.023Z</time></trkpt><trkpt lat="43.1553535" lon="12.5809832"><ele>273.75</ele><time>2026-04-24T08:53:55.024Z</time></trkpt><trkpt lat="43.1552518" lon="12.5810806"><ele>274.5</ele><time>2026-04-24T08:53:56.021Z</time></trkpt><trkpt lat="43.1551241" lon="12.5811976"><ele>275.25</ele><time>2026-04-24T08:53:57.023Z</time></trkpt><trkpt lat="43.1549981" lon="12.5812739"><ele>276.0</ele><time>2026-04-24T08:53:58.019Z</time></trkpt><trkpt lat="43.1548925" lon="12.5813314"><ele>273.6</ele><time>2026-04-24T08:53:59.021Z</time></trkpt><trkpt lat="43.154793" lon="12.5813875"><ele>271.20000000000005</ele><time>2026-04-24T08:54:00.021Z</time></trkpt><trkpt lat="43.1547031" lon="12.5814711"><ele>268.79999999999995</ele><time>2026-04-24T08:54:01.003Z</time></trkpt><trkpt lat="43.1546147" lon="12.5815499"><ele>266.4</ele><time>2026-04-24T08:54:02.025Z</time></trkpt><trkpt lat="43.1545208" lon="12.5816262"><ele>264.0</ele><time>2026-04-24T08:54:03.017Z</time></trkpt><trkpt lat="43.1544169" lon="12.5817068"><ele>264.0</ele><time>2026-04-24T08:54:04.026Z</time></trkpt><trkpt lat="43.154309" lon="12.5817852"><ele>264.0</ele><time>2026-04-24T08:54:05.025Z</time></trkpt><trkpt lat="43.15421" lon="12.5818513"><ele>264.0</ele><time>2026-04-24T08:54:06.019Z</time></trkpt><trkpt lat="43.1541043" lon="12.5819017"><ele>264.0</ele><time>2026-04-24T08:54:07.022Z</time></trkpt><trkpt lat="43.1540087" lon="12.5819414"><ele>264.0</ele><time>2026-04-24T08:54:08.018Z</time></trkpt><trkpt lat="43.153923" lon="12.5819895"><ele>261.0</ele><time>2026-04-24T08:54:09.026Z</time></trkpt><trkpt lat="43.1538526" lon="12.5820705"><ele>258.0</ele><time>2026-04-24T08:54:10.019Z</time></trkpt><trkpt lat="43.1538279" lon="12.582175"><ele>255.0</ele><time>2026-04-24T08:54:11.021Z</time></trkpt><trkpt lat="43.153835" lon="12.5822616"><ele>252.0</ele><time>2026-04-24T08:54:12.023Z</time></trkpt><trkpt lat="43.153886" lon="12.582338"><ele>249.0</ele><time>2026-04-24T08:54:13.026Z</time></trkpt><trkpt lat="43.153946" lon="12.5824388"><ele>246.0</ele><time>2026-04-24T08:54:14.022Z</time></trkpt><trkpt lat="43.1540203" lon="12.5825262"><ele>247.5</ele><time>2026-04-24T08:54:15.026Z</time></trkpt><trkpt lat="43.1541029" lon="12.5826295"><ele>249.0</ele><time>2026-04-24T08:54:16.027Z</time></trkpt><trkpt lat="43.1541924" lon="12.5827412"><ele>250.5</ele><time>2026-04-24T08:54:17.032Z</time></trkpt><trkpt lat="43.1542878" lon="12.5828629"><ele>252.0</ele><time>2026-04-24T08:54:18.029Z</time></trkpt><trkpt lat="43.1543706" lon="12.5829868"><ele>252.0</ele><time>2026-04-24T08:54:19.006Z</time></trkpt><trkpt lat="43.1544455" lon="12.5831172"><ele>252.0</ele><time>2026-04-24T08:54:20.028Z</time></trkpt><trkpt lat="43.1545139" lon="12.5832589"><ele>252.0</ele><time>2026-04-24T08:54:21.021Z</time></trkpt><trkpt lat="43.1545852" lon="12.5834181"><ele>252.0</ele><time>2026-04-24T08:54:22.026Z</time></trkpt><trkpt lat="43.1546619" lon="12.5835775"><ele>250.5</ele><time>2026-04-24T08:54:23.026Z</time></trkpt><trkpt lat="43.1547492" lon="12.5837336"><ele>249.0</ele><time>2026-04-24T08:54:24.029Z</time></trkpt><trkpt lat="43.1548341" lon="12.5838922"><ele>247.5</ele><time>2026-04-24T08:54:25.027Z</time></trkpt><trkpt lat="43.1549113" lon="12.5840489"><ele>246.0</ele><time>2026-04-24T08:54:26.004Z</time></trkpt><trkpt lat="43.1549671" lon="12.5841977"><ele>248.5</ele><time>2026-04-24T08:54:27.039Z</time></trkpt><trkpt lat="43.1550191" lon="12.5843468"><ele>251.0</ele><time>2026-04-24T08:54:28.023Z</time></trkpt><trkpt lat="43.1550661" lon="12.5845193"><ele>253.5</ele><time>2026-04-24T08:54:29.039Z</time></trkpt><trkpt lat="43.1551168" lon="12.5846983"><ele>256.0</ele><time>2026-04-24T08:54:30.029Z</time></trkpt><trkpt lat="43.1551692" lon="12.5848805"><ele>256.0</ele><time>2026-04-24T08:54:31.018Z</time></trkpt><trkpt lat="43.1552292" lon="12.5850641"><ele>256.0</ele><time>2026-04-24T08:54:32.018Z</time></trkpt><trkpt lat="43.1552907" lon="12.5852373"><ele>256.0</ele><time>2026-04-24T08:54:33.005Z</time></trkpt><trkpt lat="43.1553529" lon="12.585411"><ele>256.0</ele><time>2026-04-24T08:54:34.035Z</time></trkpt><trkpt lat="43.1554103" lon="12.585579"><ele>254.0</ele><time>2026-04-24T08:54:35.032Z</time></trkpt><trkpt lat="43.155465" lon="12.5857491"><ele>252.0</ele><time>2026-04-24T08:54:36.034Z</time></trkpt><trkpt lat="43.1555312" lon="12.5859059"><ele>250.0</ele><time>2026-04-24T08:54:37.027Z</time></trkpt><trkpt lat="43.1556041" lon="12.586051"><ele>248.0</ele><time>2026-04-24T08:54:38.023Z</time></trkpt><trkpt lat="43.1556876" lon="12.5861652"><ele>249.75</ele><time>2026-04-24T08:54:39.033Z</time></trkpt><trkpt lat="43.1557928" lon="12.5862728"><ele>251.5</ele><time>2026-04-24T08:54:40.038Z</time></trkpt><trkpt lat="43.1559177" lon="12.586363"><ele>253.25</ele><time>2026-04-24T08:54:41.041Z</time></trkpt><trkpt lat="43.1560437" lon="12.5864367"><ele>255.0</ele><time>2026-04-24T08:54:42.032Z</time></trkpt><trkpt lat="43.1561788" lon="12.5865069"><ele>255.0</ele><time>2026-04-24T08:54:43.037Z</time></trkpt><trkpt lat="43.1563109" lon="12.5865883"><ele>255.0</ele><time>2026-04-24T08:54:44.018Z</time></trkpt><trkpt lat="43.1564498" lon="12.5866764"><ele>255.0</ele><time>2026-04-24T08:54:45.041Z</time></trkpt><trkpt lat="43.1565861" lon="12.5867855"><ele>254.33333333333331</ele><time>2026-04-24T08:54:46.032Z</time></trkpt><trkpt lat="43.1567169" lon="12.586912"><ele>253.66666666666666</ele><time>2026-04-24T08:54:47.031Z</time></trkpt><trkpt lat="43.1568535" lon="12.5870409"><ele>253.0</ele><time>2026-04-24T08:54:48.02Z</time></trkpt><trkpt lat="43.1569935" lon="12.5871784"><ele>253.0</ele><time>2026-04-24T08:54:49.028Z</time></trkpt><trkpt lat="43.1571412" lon="12.5873258"><ele>253.0</ele><time>2026-04-24T08:54:50.031Z</time></trkpt><trkpt lat="43.1572971" lon="12.5874709"><ele>253.0</ele><time>2026-04-24T08:54:51.032Z</time></trkpt><trkpt lat="43.1574585" lon="12.5876269"><ele>254.33333333333331</ele><time>2026-04-24T08:54:52.029Z</time></trkpt><trkpt lat="43.1576088" lon="12.5877772"><ele>255.66666666666669</ele><time>2026-04-24T08:54:53.025Z</time></trkpt><trkpt lat="43.1577491" lon="12.5879105"><ele>257.0</ele><time>2026-04-24T08:54:54.009Z</time></trkpt><trkpt lat="43.1578735" lon="12.5880295"><ele>257.0</ele><time>2026-04-24T08:54:55.026Z</time></trkpt><trkpt lat="43.1579756" lon="12.588128"><ele>257.0</ele><time>2026-04-24T08:54:56.034Z</time></trkpt><trkpt lat="43.1580624" lon="12.588214"><ele>257.0</ele><time>2026-04-24T08:54:57.043Z</time></trkpt><trkpt lat="43.158123" lon="12.5882939"><ele>257.0</ele><time>2026-04-24T08:54:58.044Z</time></trkpt><trkpt lat="43.1581638" lon="12.5883806"><ele>257.0</ele><time>2026-04-24T08:54:59.02Z</time></trkpt><trkpt lat="43.1581878" lon="12.5884827"><ele>257.0</ele><time>2026-04-24T08:55:00.033Z</time></trkpt><trkpt lat="43.1581867" lon="12.588591"><ele>257.0</ele><time>2026-04-24T08:55:01.01Z</time></trkpt><trkpt lat="43.1581831" lon="12.5886874"><ele>257.0</ele><time>2026-04-24T08:55:02.041Z</time></trkpt><trkpt lat="43.1582061" lon="12.5887743"><ele>257.0</ele><time>2026-04-24T08:55:03.025Z</time></trkpt><trkpt lat="43.1582473" lon="12.5888539"><ele>257.0</ele><time>2026-04-24T08:55:04.028Z</time></trkpt><trkpt lat="43.1583" lon="12.5889187"><ele>257.0</ele><time>2026-04-24T08:55:05.014Z</time></trkpt><trkpt lat="43.1583917" lon="12.5890268"><ele>256.4</ele><time>2026-04-24T08:55:07.028Z</time></trkpt><trkpt lat="43.1584603" lon="12.5891103"><ele>255.79999999999998</ele><time>2026-04-24T08:55:09.033Z</time></trkpt><trkpt lat="43.1585243" lon="12.5892103"><ele>255.2</ele><time>2026-04-24T08:55:11.014Z</time></trkpt><trkpt lat="43.1585942" lon="12.5893493"><ele>254.6</ele><time>2026-04-24T08:55:13.027Z</time></trkpt><trkpt lat="43.1586563" lon="12.5894308"><ele>254.0</ele><time>2026-04-24T08:55:14.024Z</time></trkpt><trkpt lat="43.1587378" lon="12.5895113"><ele>253.75</ele><time>2026-04-24T08:55:15.043Z</time></trkpt><trkpt lat="43.1588264" lon="12.5895976"><ele>253.5</ele><time>2026-04-24T08:55:16.04Z</time></trkpt><trkpt lat="43.1589267" lon="12.5896925"><ele>253.25</ele><time>2026-04-24T08:55:17.014Z</time></trkpt><trkpt lat="43.1590311" lon="12.5897906"><ele>253.0</ele><time>2026-04-24T08:55:18.026Z</time></trkpt><trkpt lat="43.1591412" lon="12.5898908"><ele>252.0</ele><time>2026-04-24T08:55:19.03Z</time></trkpt><trkpt lat="43.159262" lon="12.5900082"><ele>251.0</ele><time>2026-04-24T08:55:20.036Z</time></trkpt><trkpt lat="43.1593921" lon="12.5901258"><ele>250.0</ele><time>2026-04-24T08:55:21.03Z</time></trkpt><trkpt lat="43.1595313" lon="12.5902542"><ele>250.33333333333331</ele><time>2026-04-24T08:55:22.019Z</time></trkpt><trkpt lat="43.159678" lon="12.5903918"><ele>250.66666666666669</ele><time>2026-04-24T08:55:23.046Z</time></trkpt><trkpt lat="43.1598302" lon="12.5905312"><ele>251.0</ele><time>2026-04-24T08:55:24.035Z</time></trkpt><trkpt lat="43.1599854" lon="12.5906775"><ele>251.66666666666669</ele><time>2026-04-24T08:55:25.038Z</time></trkpt><trkpt lat="43.1601474" lon="12.5908287"><ele>252.33333333333331</ele><time>2026-04-24T08:55:26.044Z</time></trkpt><trkpt lat="43.1603117" lon="12.5909816"><ele>253.0</ele><time>2026-04-24T08:55:27.032Z</time></trkpt><trkpt lat="43.1604655" lon="12.5911281"><ele>253.0</ele><time>2026-04-24T08:55:28.017Z</time></trkpt><trkpt lat="43.1606113" lon="12.5912612"><ele>253.0</ele><time>2026-04-24T08:55:29.038Z</time></trkpt><trkpt lat="43.1607518" lon="12.5913907"><ele>253.0</ele><time>2026-04-24T08:55:30.044Z</time></trkpt><trkpt lat="43.1608873" lon="12.5915201"><ele>253.0</ele><time>2026-04-24T08:55:31.043Z</time></trkpt><trkpt lat="43.1610126" lon="12.5916403"><ele>253.0</ele><time>2026-04-24T08:55:32.013Z</time></trkpt><trkpt lat="43.1611245" lon="12.5917534"><ele>253.0</ele><time>2026-04-24T08:55:33.042Z</time></trkpt><trkpt lat="43.1612311" lon="12.5918648"><ele>253.0</ele><time>2026-04-24T08:55:34.033Z</time></trkpt><trkpt lat="43.1613278" lon="12.5919768"><ele>252.75</ele><time>2026-04-24T08:55:35.02Z</time></trkpt><trkpt lat="43.1614171" lon="12.592083"><ele>252.5</ele><time>2026-04-24T08:55:36.029Z</time></trkpt><trkpt lat="43.1615092" lon="12.5921835"><ele>252.25</ele><time>2026-04-24T08:55:37.044Z</time></trkpt><trkpt lat="43.1616073" lon="12.592275"><ele>252.0</ele><time>2026-04-24T08:55:38.039Z</time></trkpt><trkpt lat="43.1617094" lon="12.5923671"><ele>253.25</ele><time>2026-04-24T08:55:39.04Z</time></trkpt><trkpt lat="43.161817" lon="12.5924534"><ele>254.5</ele><time>2026-04-24T08:55:40.038Z</time></trkpt><trkpt lat="43.1619283" lon="12.5925367"><ele>255.75</ele><time>2026-04-24T08:55:41.049Z</time></trkpt><trkpt lat="43.1620336" lon="12.5926071"><ele>257.0</ele><time>2026-04-24T08:55:42.039Z</time></trkpt><trkpt lat="43.1621295" lon="12.5926714"><ele>257.0</ele><time>2026-04-24T08:55:43.029Z</time></trkpt><trkpt lat="43.1622069" lon="12.5927228"><ele>257.0</ele><time>2026-04-24T08:55:44.019Z</time></trkpt><trkpt lat="43.1622621" lon="12.5927802"><ele>257.0</ele><time>2026-04-24T08:55:45.022Z</time></trkpt><trkpt lat="43.1622999" lon="12.5928602"><ele>257.0</ele><time>2026-04-24T08:55:46.034Z</time></trkpt><trkpt lat="43.1623088" lon="12.592948"><ele>257.0</ele><time>2026-04-24T08:55:47.051Z</time></trkpt><trkpt lat="43.1622814" lon="12.593044"><ele>257.0</ele><time>2026-04-24T08:55:48.043Z</time></trkpt><trkpt lat="43.1622355" lon="12.5931427"><ele>256.25</ele><time>2026-04-24T08:55:49.031Z</time></trkpt><trkpt lat="43.1621809" lon="12.5932617"><ele>255.5</ele><time>2026-04-24T08:55:50.029Z</time></trkpt><trkpt lat="43.1621174" lon="12.5933913"><ele>254.75</ele><time>2026-04-24T08:55:51.044Z</time></trkpt><trkpt lat="43.1620508" lon="12.5935358"><ele>254.0</ele><time>2026-04-24T08:55:52.02Z</time></trkpt><trkpt lat="43.1619808" lon="12.5936886"><ele>253.75</ele><time>2026-04-24T08:55:53.044Z</time></trkpt><trkpt lat="43.1619066" lon="12.5938395"><ele>253.5</ele><time>2026-04-24T08:55:54.035Z</time></trkpt><trkpt lat="43.1618332" lon="12.593997"><ele>253.25</ele><time>2026-04-24T08:55:55.049Z</time></trkpt><trkpt lat="43.1617573" lon="12.5941579"><ele>253.0</ele><time>2026-04-24T08:55:56.023Z</time></trkpt><trkpt lat="43.1616851" lon="12.594314"><ele>253.0</ele><time>2026-04-24T08:55:57.037Z</time></trkpt><trkpt lat="43.1616149" lon="12.594458"><ele>253.0</ele><time>2026-04-24T08:55:58.045Z</time></trkpt><trkpt lat="43.1615518" lon="12.5945941"><ele>253.0</ele><time>2026-04-24T08:55:59.052Z</time></trkpt><trkpt lat="43.161487" lon="12.5947407"><ele>253.0</ele><time>2026-04-24T08:56:00.031Z</time></trkpt><trkpt lat="43.1614146" lon="12.5948932"><ele>252.5</ele><time>2026-04-24T08:56:01.014Z</time></trkpt><trkpt lat="43.1613396" lon="12.5950485"><ele>252.0</ele><time>2026-04-24T08:56:02.017Z</time></trkpt><trkpt lat="43.1612659" lon="12.5952002"><ele>251.5</ele><time>2026-04-24T08:56:03.008Z</time></trkpt><trkpt lat="43.1611923" lon="12.5953525"><ele>251.0</ele><time>2026-04-24T08:56:04.035Z</time></trkpt><trkpt lat="43.1611312" lon="12.5954929"><ele>251.0</ele><time>2026-04-24T08:56:05.015Z</time></trkpt><trkpt lat="43.1610752" lon="12.5956136"><ele>251.00000000000003</ele><time>2026-04-24T08:56:06.012Z</time></trkpt><trkpt lat="43.1610251" lon="12.5957234"><ele>251.00000000000003</ele><time>2026-04-24T08:56:07.028Z</time></trkpt><trkpt lat="43.1609906" lon="12.5958358"><ele>251.0</ele><time>2026-04-24T08:56:08.009Z</time></trkpt><trkpt lat="43.1609698" lon="12.5959476"><ele>251.0</ele><time>2026-04-24T08:56:09.039Z</time></trkpt><trkpt lat="43.160962" lon="12.5960683"><ele>251.33333333333334</ele><time>2026-04-24T08:56:10.043Z</time></trkpt><trkpt lat="43.1609505" lon="12.5961927"><ele>251.66666666666669</ele><time>2026-04-24T08:56:11.031Z</time></trkpt><trkpt lat="43.1609383" lon="12.5963064"><ele>252.0</ele><time>2026-04-24T08:56:12.045Z</time></trkpt><trkpt lat="43.1609292" lon="12.596416"><ele>252.33333333333331</ele><time>2026-04-24T08:56:13.03Z</time></trkpt><trkpt lat="43.1609183" lon="12.5965288"><ele>252.66666666666666</ele><time>2026-04-24T08:56:14.018Z</time></trkpt><trkpt lat="43.1608983" lon="12.596643"><ele>253.0</ele><time>2026-04-24T08:56:15.012Z</time></trkpt><trkpt lat="43.1608834" lon="12.5967561"><ele>252.99999999999997</ele><time>2026-04-24T08:56:16.025Z</time></trkpt><trkpt lat="43.1608653" lon="12.5968669"><ele>253.0</ele><time>2026-04-24T08:56:17.011Z</time></trkpt><trkpt lat="43.1608443" lon="12.5969659"><ele>253.0</ele><time>2026-04-24T08:56:18.035Z</time></trkpt><trkpt lat="43.1608208" lon="12.5970752"><ele>253.0</ele><time>2026-04-24T08:56:19.039Z</time></trkpt><trkpt lat="43.1607972" lon="12.5971922"><ele>252.99999999999997</ele><time>2026-04-24T08:56:20.038Z</time></trkpt><trkpt lat="43.1607703" lon="12.5973127"><ele>253.0</ele><time>2026-04-24T08:56:21.037Z</time></trkpt><trkpt lat="43.1607396" lon="12.5974401"><ele>253.8</ele><time>2026-04-24T08:56:22.029Z</time></trkpt><trkpt lat="43.1607095" lon="12.597566"><ele>254.60000000000002</ele><time>2026-04-24T08:56:23.035Z</time></trkpt><trkpt lat="43.160672" lon="12.5976922"><ele>255.39999999999998</ele><time>2026-04-24T08:56:24.035Z</time></trkpt><trkpt lat="43.1606336" lon="12.5978133"><ele>256.2</ele><time>2026-04-24T08:56:25.046Z</time></trkpt><trkpt lat="43.1605906" lon="12.5979382"><ele>257.0</ele><time>2026-04-24T08:56:26.029Z</time></trkpt><trkpt lat="43.1605459" lon="12.5980592"><ele>259.2</ele><time>2026-04-24T08:56:27.021Z</time></trkpt><trkpt lat="43.1604984" lon="12.598191"><ele>261.4</ele><time>2026-04-24T08:56:28.019Z</time></trkpt><trkpt lat="43.1604502" lon="12.5983084"><ele>263.6</ele><time>2026-04-24T08:56:29.041Z</time></trkpt><trkpt lat="43.1604011" lon="12.598421"><ele>265.8</ele><time>2026-04-24T08:56:30.015Z</time></trkpt><trkpt lat="43.1603522" lon="12.5985375"><ele>268.0</ele><time>2026-04-24T08:56:31.034Z</time></trkpt><trkpt lat="43.1602926" lon="12.5986377"><ele>268.66666666666663</ele><time>2026-04-24T08:56:32.038Z</time></trkpt><trkpt lat="43.1602324" lon="12.5987241"><ele>269.3333333333333</ele><time>2026-04-24T08:56:33.044Z</time></trkpt><trkpt lat="43.1601676" lon="12.598802"><ele>270.0</ele><time>2026-04-24T08:56:34.029Z</time></trkpt><trkpt lat="43.1601043" lon="12.5988696"><ele>270.6666666666667</ele><time>2026-04-24T08:56:35.028Z</time></trkpt><trkpt lat="43.1600346" lon="12.5989344"><ele>271.33333333333337</ele><time>2026-04-24T08:56:36.012Z</time></trkpt><trkpt lat="43.1599664" lon="12.5989975"><ele>272.0</ele><time>2026-04-24T08:56:37.015Z</time></trkpt><trkpt lat="43.1598913" lon="12.5990623"><ele>271.33333333333337</ele><time>2026-04-24T08:56:38.038Z</time></trkpt><trkpt lat="43.1598282" lon="12.5991176"><ele>270.6666666666667</ele><time>2026-04-24T08:56:39.023Z</time></trkpt><trkpt lat="43.1597682" lon="12.5991744"><ele>270.0</ele><time>2026-04-24T08:56:40.011Z</time></trkpt><trkpt lat="43.1597071" lon="12.5992488"><ele>269.3333333333333</ele><time>2026-04-24T08:56:41.029Z</time></trkpt><trkpt lat="43.1596474" lon="12.5993233"><ele>268.66666666666663</ele><time>2026-04-24T08:56:42.028Z</time></trkpt><trkpt lat="43.1595824" lon="12.5994018"><ele>268.0</ele><time>2026-04-24T08:56:43.022Z</time></trkpt><trkpt lat="43.1595188" lon="12.5994836"><ele>270.5</ele><time>2026-04-24T08:56:44.004Z</time></trkpt><trkpt lat="43.1594638" lon="12.5995685"><ele>273.0</ele><time>2026-04-24T08:56:45.009Z</time></trkpt><trkpt lat="43.1594116" lon="12.5996496"><ele>275.5</ele><time>2026-04-24T08:56:46.031Z</time></trkpt><trkpt lat="43.1593608" lon="12.5997304"><ele>278.0</ele><time>2026-04-24T08:56:47.028Z</time></trkpt><trkpt lat="43.1593111" lon="12.5998027"><ele>280.5</ele><time>2026-04-24T08:56:48.028Z</time></trkpt><trkpt lat="43.1592628" lon="12.5999219"><ele>283.0</ele><time>2026-04-24T08:56:50.041Z</time></trkpt><trkpt lat="43.1592822" lon="12.6000385"><ele>283.0</ele><time>2026-04-24T08:56:52.032Z</time></trkpt><trkpt lat="43.1593674" lon="12.6001018"><ele>283.0</ele><time>2026-04-24T08:56:54.03Z</time></trkpt><trkpt lat="43.1594952" lon="12.6001493"><ele>283.0</ele><time>2026-04-24T08:56:56.034Z</time></trkpt><trkpt lat="43.1595784" lon="12.6001763"><ele>283.0</ele><time>2026-04-24T08:56:57.036Z</time></trkpt><trkpt lat="43.1596821" lon="12.600213"><ele>283.0</ele><time>2026-04-24T08:56:58.018Z</time></trkpt><trkpt lat="43.1597786" lon="12.6002456"><ele>283.0</ele><time>2026-04-24T08:56:59.03Z</time></trkpt><trkpt lat="43.1598609" lon="12.6002686"><ele>283.0</ele><time>2026-04-24T08:57:00.029Z</time></trkpt><trkpt lat="43.1599352" lon="12.6002997"><ele>283.0</ele><time>2026-04-24T08:57:01.015Z</time></trkpt><trkpt lat="43.1600083" lon="12.6003313"><ele>283.0</ele><time>2026-04-24T08:57:02.03Z</time></trkpt><trkpt lat="43.160089" lon="12.6003556"><ele>283.0</ele><time>2026-04-24T08:57:03.04Z</time></trkpt><trkpt lat="43.1601763" lon="12.600387"><ele>283.0</ele><time>2026-04-24T08:57:04.026Z</time></trkpt><trkpt lat="43.1602609" lon="12.6004096"><ele>284.4</ele><time>2026-04-24T08:57:05.042Z</time></trkpt><trkpt lat="43.1603305" lon="12.6004348"><ele>285.8</ele><time>2026-04-24T08:57:06.033Z</time></trkpt><trkpt lat="43.1604356" lon="12.6005093"><ele>287.2</ele><time>2026-04-24T08:57:08.023Z</time></trkpt><trkpt lat="43.1604679" lon="12.6006209"><ele>288.6</ele><time>2026-04-24T08:57:10Z</time></trkpt><trkpt lat="43.1604685" lon="12.6007687"><ele>290.0</ele><time>2026-04-24T08:57:12.021Z</time></trkpt><trkpt lat="43.160467" lon="12.6008686"><ele>290.0</ele><time>2026-04-24T08:57:13.013Z</time></trkpt><trkpt lat="43.1604641" lon="12.6010171"><ele>290.0</ele><time>2026-04-24T08:57:15.011Z</time></trkpt><trkpt lat="43.1604572" lon="12.6011506"><ele>290.0</ele><time>2026-04-24T08:57:17.007Z</time></trkpt><trkpt lat="43.1604645" lon="12.6012525"><ele>290.0</ele><time>2026-04-24T08:57:20.012Z</time></trkpt><trkpt lat="43.1604714" lon="12.601343"><ele>290.0</ele><time>2026-04-24T08:57:27.017Z</time></trkpt><trkpt lat="43.1604611" lon="12.6014577"><ele>290.0</ele><time>2026-04-24T08:57:36.032Z</time></trkpt><trkpt lat="43.1604593" lon="12.6015574"><ele>290.8</ele><time>2026-04-24T08:57:38.017Z</time></trkpt><trkpt lat="43.1604781" lon="12.6016677"><ele>291.6</ele><time>2026-04-24T08:58:00.021Z</time></trkpt><trkpt lat="43.1604686" lon="12.601809"><ele>292.4</ele><time>2026-04-24T08:58:02.014Z</time></trkpt><trkpt lat="43.1604818" lon="12.6019719"><ele>293.2</ele><time>2026-04-24T08:58:04.038Z</time></trkpt><trkpt lat="43.160492" lon="12.6020776"><ele>294.0</ele><time>2026-04-24T08:58:05.013Z</time></trkpt><trkpt lat="43.1605035" lon="12.6021949"><ele>295.0</ele><time>2026-04-24T08:58:06.019Z</time></trkpt><trkpt lat="43.1605058" lon="12.602303"><ele>296.0</ele><time>2026-04-24T08:58:07.034Z</time></trkpt><trkpt lat="43.160481" lon="12.6023974"><ele>297.0</ele><time>2026-04-24T08:58:08.028Z</time></trkpt><trkpt lat="43.1604336" lon="12.6024593"><ele>298.0</ele><time>2026-04-24T08:58:09.017Z</time></trkpt><trkpt lat="43.1603384" lon="12.6024884"><ele>299.0</ele><time>2026-04-24T08:58:10.014Z</time></trkpt><trkpt lat="43.160251" lon="12.6025083"><ele>300.0</ele><time>2026-04-24T08:58:11.018Z</time></trkpt><trkpt lat="43.1601593" lon="12.6025202"><ele>300.0</ele><time>2026-04-24T08:58:12.02Z</time></trkpt><trkpt lat="43.1600757" lon="12.6025223"><ele>300.0</ele><time>2026-04-24T08:58:13.036Z</time></trkpt><trkpt lat="43.159998" lon="12.6025225"><ele>300.0</ele><time>2026-04-24T08:58:14.027Z</time></trkpt><trkpt lat="43.1599264" lon="12.6025234"><ele>300.0</ele><time>2026-04-24T08:58:15.026Z</time></trkpt><trkpt lat="43.1598063" lon="12.602544"><ele>300.0</ele><time>2026-04-24T08:58:17.038Z</time></trkpt><trkpt lat="43.159738" lon="12.6025416"><ele>300.0</ele><time>2026-04-24T08:58:18.023Z</time></trkpt><trkpt lat="43.1596548" lon="12.6025186"><ele>299.2</ele><time>2026-04-24T08:58:19.042Z</time></trkpt><trkpt lat="43.1595818" lon="12.6024918"><ele>298.4</ele><time>2026-04-24T08:58:20.025Z</time></trkpt><trkpt lat="43.1595071" lon="12.6024792"><ele>297.6</ele><time>2026-04-24T08:58:21.018Z</time></trkpt><trkpt lat="43.1594335" lon="12.602501"><ele>296.8</ele><time>2026-04-24T08:58:22.006Z</time></trkpt><trkpt lat="43.1593278" lon="12.6026071"><ele>296.0</ele><time>2026-04-24T08:58:24.027Z</time></trkpt><trkpt lat="43.1592801" lon="12.602722"><ele>296.0</ele><time>2026-04-24T08:58:26.021Z</time></trkpt><trkpt lat="43.1592277" lon="12.6028148"><ele>296.0</ele><time>2026-04-24T08:58:28.025Z</time></trkpt><trkpt lat="43.1591607" lon="12.6028726"><ele>296.0</ele><time>2026-04-24T08:58:30.034Z</time></trkpt><trkpt lat="43.1590725" lon="12.6028746"><ele>296.0</ele><time>2026-04-24T08:58:32.045Z</time></trkpt><trkpt lat="43.1590077" lon="12.6027626"><ele>296.0</ele><time>2026-04-24T08:58:34.023Z</time></trkpt><trkpt lat="43.1589542" lon="12.6026182"><ele>295.5</ele><time>2026-04-24T08:58:36.033Z</time></trkpt><trkpt lat="43.1589024" lon="12.6024785"><ele>295.0</ele><time>2026-04-24T08:58:38.018Z</time></trkpt><trkpt lat="43.15886" lon="12.6023611"><ele>294.5</ele><time>2026-04-24T08:58:40.021Z</time></trkpt><trkpt lat="43.1588235" lon="12.602256"><ele>294.0</ele><time>2026-04-24T08:58:42.023Z</time></trkpt><trkpt lat="43.1587924" lon="12.602177"><ele>293.5</ele><time>2026-04-24T08:58:46.013Z</time></trkpt><trkpt lat="43.1588099" lon="12.6022805"><ele>293.0</ele><time>2026-04-24T08:59:02.035Z</time></trkpt><trkpt lat="43.1588778" lon="12.6024066"><ele>293.0</ele><time>2026-04-24T08:59:04.008Z</time></trkpt><trkpt lat="43.1588897" lon="12.6024958"><ele>293.0</ele><time>2026-04-24T08:59:05.018Z</time></trkpt><trkpt lat="43.1589192" lon="12.6025827"><ele>293.0</ele><time>2026-04-24T08:59:06.024Z</time></trkpt><trkpt lat="43.1589561" lon="12.6026869"><ele>293.0</ele><time>2026-04-24T08:59:07.017Z</time></trkpt><trkpt lat="43.1589832" lon="12.6027952"><ele>293.0</ele><time>2026-04-24T08:59:08.004Z</time></trkpt><trkpt lat="43.1590254" lon="12.6028688"><ele>293.0</ele><time>2026-04-24T08:59:09.024Z</time></trkpt><trkpt lat="43.1591222" lon="12.6029107"><ele>294.1666666666667</ele><time>2026-04-24T08:59:11.012Z</time></trkpt><trkpt lat="43.1592081" lon="12.6028595"><ele>295.33333333333337</ele><time>2026-04-24T08:59:13.01Z</time></trkpt><trkpt lat="43.159272" lon="12.6028553"><ele>296.5</ele><time>2026-04-24T08:59:15.036Z</time></trkpt><trkpt lat="43.1593247" lon="12.6029259"><ele>297.6666666666667</ele><time>2026-04-24T08:59:17.033Z</time></trkpt><trkpt lat="43.1593512" lon="12.6030296"><ele>298.8333333333333</ele><time>2026-04-24T08:59:42.039Z</time></trkpt><trkpt lat="43.1593277" lon="12.6031299"><ele>300.0</ele><time>2026-04-24T08:59:45.035Z</time></trkpt><trkpt lat="43.159271" lon="12.6032413"><ele>300.0</ele><time>2026-04-24T08:59:47.015Z</time></trkpt><trkpt lat="43.1592039" lon="12.6033834"><ele>300.0</ele><time>2026-04-24T08:59:49.036Z</time></trkpt><trkpt lat="43.1591672" lon="12.6034562"><ele>300.0</ele><time>2026-04-24T08:59:50.026Z</time></trkpt><trkpt lat="43.1591238" lon="12.6035267"><ele>300.0</ele><time>2026-04-24T08:59:51.028Z</time></trkpt><trkpt lat="43.1590374" lon="12.6036556"><ele>300.0</ele><time>2026-04-24T08:59:53.033Z</time></trkpt><trkpt lat="43.1589916" lon="12.6037271"><ele>301.5</ele><time>2026-04-24T08:59:54.008Z</time></trkpt><trkpt lat="43.1589477" lon="12.6038106"><ele>303.0</ele><time>2026-04-24T08:59:55.03Z</time></trkpt><trkpt lat="43.1589118" lon="12.6038893"><ele>304.5</ele><time>2026-04-24T08:59:56.032Z</time></trkpt><trkpt lat="43.1588547" lon="12.6040431"><ele>306.0</ele><time>2026-04-24T08:59:58.021Z</time></trkpt><trkpt lat="43.1588317" lon="12.6041265"><ele>307.5</ele><time>2026-04-24T08:59:59.026Z</time></trkpt><trkpt lat="43.1588053" lon="12.6042107"><ele>309.0</ele><time>2026-04-24T09:00:00.024Z</time></trkpt><trkpt lat="43.1587782" lon="12.6043042"><ele>309.00000000000006</ele><time>2026-04-24T09:00:01.034Z</time></trkpt><trkpt lat="43.1587518" lon="12.6043931"><ele>309.0</ele><time>2026-04-24T09:00:02.002Z</time></trkpt><trkpt lat="43.1587216" lon="12.6044878"><ele>309.0</ele><time>2026-04-24T09:00:03.026Z</time></trkpt><trkpt lat="43.1586979" lon="12.6045758"><ele>309.0</ele><time>2026-04-24T09:00:04.009Z</time></trkpt><trkpt lat="43.1586732" lon="12.6046599"><ele>309.0</ele><time>2026-04-24T09:00:05.029Z</time></trkpt><trkpt lat="43.1586438" lon="12.6047451"><ele>309.00000000000006</ele><time>2026-04-24T09:00:06.044Z</time></trkpt><trkpt lat="43.1586175" lon="12.6048266"><ele>309.0</ele><time>2026-04-24T09:00:07.04Z</time></trkpt><trkpt lat="43.1585816" lon="12.6049789"><ele>310.8333333333333</ele><time>2026-04-24T09:00:09.017Z</time></trkpt><trkpt lat="43.15855" lon="12.6050665"><ele>312.6666666666667</ele><time>2026-04-24T09:00:10Z</time></trkpt><trkpt lat="43.1585146" lon="12.6051705"><ele>314.5</ele><time>2026-04-24T09:00:11.02Z</time></trkpt><trkpt lat="43.1584847" lon="12.605274"><ele>316.33333333333337</ele><time>2026-04-24T09:00:12.017Z</time></trkpt><trkpt lat="43.1584549" lon="12.6053832"><ele>318.1666666666667</ele><time>2026-04-24T09:00:13.038Z</time></trkpt><trkpt lat="43.1584301" lon="12.6054846"><ele>320.0</ele><time>2026-04-24T09:00:14.011Z</time></trkpt><trkpt lat="43.1583987" lon="12.6055901"><ele>321.0</ele><time>2026-04-24T09:00:15.014Z</time></trkpt><trkpt lat="43.1583698" lon="12.60569"><ele>322.0</ele><time>2026-04-24T09:00:16.025Z</time></trkpt><trkpt lat="43.1583377" lon="12.6057878"><ele>323.0</ele><time>2026-04-24T09:00:17.039Z</time></trkpt><trkpt lat="43.1583075" lon="12.6058795"><ele>324.0</ele><time>2026-04-24T09:00:18.035Z</time></trkpt><trkpt lat="43.15828" lon="12.6059604"><ele>325.0</ele><time>2026-04-24T09:00:19.04Z</time></trkpt><trkpt lat="43.1582336" lon="12.6060642"><ele>326.0</ele><time>2026-04-24T09:00:21.033Z</time></trkpt><trkpt lat="43.1581922" lon="12.6061514"><ele>324.8</ele><time>2026-04-24T09:00:24.02Z</time></trkpt><trkpt lat="43.1581624" lon="12.6062354"><ele>323.6</ele><time>2026-04-24T09:01:02.028Z</time></trkpt><trkpt lat="43.1581553" lon="12.6063743"><ele>322.4</ele><time>2026-04-24T09:01:03.995Z</time></trkpt><trkpt lat="43.1581619" lon="12.6065384"><ele>321.2</ele><time>2026-04-24T09:01:06.04Z</time></trkpt><trkpt lat="43.1581636" lon="12.6066531"><ele>320.0</ele><time>2026-04-24T09:01:07.03Z</time></trkpt><trkpt lat="43.1581581" lon="12.6067904"><ele>320.0</ele><time>2026-04-24T09:01:08.007Z</time></trkpt><trkpt lat="43.1581551" lon="12.6069217"><ele>320.0</ele><time>2026-04-24T09:01:09.045Z</time></trkpt><trkpt lat="43.1581544" lon="12.6070478"><ele>320.0</ele><time>2026-04-24T09:01:10.039Z</time></trkpt><trkpt lat="43.1581587" lon="12.6071699"><ele>320.0</ele><time>2026-04-24T09:01:11.035Z</time></trkpt><trkpt lat="43.1581596" lon="12.6072899"><ele>320.0</ele><time>2026-04-24T09:01:12.021Z</time></trkpt><trkpt lat="43.158159" lon="12.6074015"><ele>320.0</ele><time>2026-04-24T09:01:13.041Z</time></trkpt><trkpt lat="43.1581442" lon="12.6075085"><ele>318.7142857142857</ele><time>2026-04-24T09:01:14.036Z</time></trkpt><trkpt lat="43.1581302" lon="12.6076222"><ele>317.42857142857144</ele><time>2026-04-24T09:01:15.037Z</time></trkpt><trkpt lat="43.1581186" lon="12.6077325"><ele>316.1428571428571</ele><time>2026-04-24T09:01:16.031Z</time></trkpt><trkpt lat="43.1581032" lon="12.6078362"><ele>314.8571428571429</ele><time>2026-04-24T09:01:17.026Z</time></trkpt><trkpt lat="43.1580917" lon="12.6079256"><ele>313.5714285714286</ele><time>2026-04-24T09:01:18.037Z</time></trkpt><trkpt lat="43.1580891" lon="12.6080135"><ele>312.2857142857143</ele><time>2026-04-24T09:01:19.008Z</time></trkpt><trkpt lat="43.1580994" lon="12.6081042"><ele>311.0</ele><time>2026-04-24T09:01:20.018Z</time></trkpt><trkpt lat="43.1581192" lon="12.6081879"><ele>310.6666666666667</ele><time>2026-04-24T09:01:21.005Z</time></trkpt><trkpt lat="43.1581443" lon="12.6082688"><ele>310.33333333333337</ele><time>2026-04-24T09:01:22.012Z</time></trkpt><trkpt lat="43.1581904" lon="12.6083639"><ele>310.0</ele><time>2026-04-24T09:01:24.022Z</time></trkpt><trkpt lat="43.1582319" lon="12.6084307"><ele>309.6666666666667</ele><time>2026-04-24T09:01:51.026Z</time></trkpt><trkpt lat="43.1582758" lon="12.6084988"><ele>309.3333333333333</ele><time>2026-04-24T09:01:53.009Z</time></trkpt><trkpt lat="43.1583509" lon="12.6086186"><ele>309.0</ele><time>2026-04-24T09:01:55.021Z</time></trkpt><trkpt lat="43.1584471" lon="12.6087507"><ele>309.0</ele><time>2026-04-24T09:01:57.017Z</time></trkpt><trkpt lat="43.1584955" lon="12.6088287"><ele>309.0</ele><time>2026-04-24T09:01:58.019Z</time></trkpt><trkpt lat="43.1585511" lon="12.6089251"><ele>309.0</ele><time>2026-04-24T09:01:59.021Z</time></trkpt><trkpt lat="43.1586144" lon="12.6090081"><ele>309.0</ele><time>2026-04-24T09:02:00.038Z</time></trkpt><trkpt lat="43.1586768" lon="12.609096"><ele>309.0</ele><time>2026-04-24T09:02:01.017Z</time></trkpt><trkpt lat="43.1587469" lon="12.6091724"><ele>309.0</ele><time>2026-04-24T09:02:02.01Z</time></trkpt><trkpt lat="43.158822" lon="12.6092303"><ele>309.0</ele><time>2026-04-24T09:02:03.018Z</time></trkpt><trkpt lat="43.1588944" lon="12.6092787"><ele>309.0</ele><time>2026-04-24T09:02:04.019Z</time></trkpt><trkpt lat="43.1589698" lon="12.6093096"><ele>309.0</ele><time>2026-04-24T09:02:05.026Z</time></trkpt><trkpt lat="43.1590324" lon="12.6093598"><ele>309.0</ele><time>2026-04-24T09:02:06.018Z</time></trkpt><trkpt lat="43.1590885" lon="12.6094235"><ele>309.0</ele><time>2026-04-24T09:02:07.032Z</time></trkpt><trkpt lat="43.159118" lon="12.6095227"><ele>309.0</ele><time>2026-04-24T09:02:08.008Z</time></trkpt><trkpt lat="43.1591398" lon="12.6096355"><ele>308.8</ele><time>2026-04-24T09:02:09.023Z</time></trkpt><trkpt lat="43.159168" lon="12.6097563"><ele>308.59999999999997</ele><time>2026-04-24T09:02:10.012Z</time></trkpt><trkpt lat="43.1591936" lon="12.6098767"><ele>308.4</ele><time>2026-04-24T09:02:11.016Z</time></trkpt><trkpt lat="43.1592246" lon="12.6099983"><ele>308.2</ele><time>2026-04-24T09:02:12.022Z</time></trkpt><trkpt lat="43.1592595" lon="12.6101151"><ele>308.0</ele><time>2026-04-24T09:02:13.016Z</time></trkpt><trkpt lat="43.1592868" lon="12.6102354"><ele>307.14285714285717</ele><time>2026-04-24T09:02:14.008Z</time></trkpt><trkpt lat="43.159309" lon="12.6103427"><ele>306.2857142857143</ele><time>2026-04-24T09:02:15.025Z</time></trkpt><trkpt lat="43.1593188" lon="12.6104432"><ele>305.42857142857144</ele><time>2026-04-24T09:02:16.015Z</time></trkpt><trkpt lat="43.159309" lon="12.6105329"><ele>304.57142857142856</ele><time>2026-04-24T09:02:17.027Z</time></trkpt><trkpt lat="43.1592763" lon="12.6106074"><ele>303.7142857142857</ele><time>2026-04-24T09:02:18.012Z</time></trkpt><trkpt lat="43.1592334" lon="12.6106829"><ele>302.8571428571429</ele><time>2026-04-24T09:02:19.015Z</time></trkpt><trkpt lat="43.1591757" lon="12.6107771"><ele>302.0</ele><time>2026-04-24T09:02:20.022Z</time></trkpt><trkpt lat="43.1591315" lon="12.6108967"><ele>302.0</ele><time>2026-04-24T09:02:21.014Z</time></trkpt><trkpt lat="43.1590987" lon="12.6110206"><ele>302.0</ele><time>2026-04-24T09:02:22.032Z</time></trkpt><trkpt lat="43.1590911" lon="12.6111311"><ele>302.0</ele><time>2026-04-24T09:02:23.032Z</time></trkpt><trkpt lat="43.1590888" lon="12.6112251"><ele>302.0</ele><time>2026-04-24T09:02:24.02Z</time></trkpt><trkpt lat="43.1590983" lon="12.611377"><ele>302.0</ele><time>2026-04-24T09:02:26.022Z</time></trkpt><trkpt lat="43.1591251" lon="12.6114613"><ele>302.0</ele><time>2026-04-24T09:02:27.035Z</time></trkpt><trkpt lat="43.1591708" lon="12.6115625"><ele>301.8</ele><time>2026-04-24T09:02:28.015Z</time></trkpt><trkpt lat="43.1592262" lon="12.6116672"><ele>301.6</ele><time>2026-04-24T09:02:29.036Z</time></trkpt><trkpt lat="43.1592829" lon="12.6117778"><ele>301.40000000000003</ele><time>2026-04-24T09:02:30.014Z</time></trkpt><trkpt lat="43.1593484" lon="12.6118921"><ele>301.2</ele><time>2026-04-24T09:02:31.026Z</time></trkpt><trkpt lat="43.1594062" lon="12.6120023"><ele>301.0</ele><time>2026-04-24T09:02:32.022Z</time></trkpt><trkpt lat="43.1594588" lon="12.6121096"><ele>301.0</ele><time>2026-04-24T09:02:33.034Z</time></trkpt><trkpt lat="43.1595092" lon="12.6122261"><ele>301.0</ele><time>2026-04-24T09:02:34.025Z</time></trkpt><trkpt lat="43.1595509" lon="12.6123383"><ele>301.0</ele><time>2026-04-24T09:02:35.026Z</time></trkpt><trkpt lat="43.1595894" lon="12.6124482"><ele>301.0</ele><time>2026-04-24T09:02:36.017Z</time></trkpt><trkpt lat="43.1596285" lon="12.6125404"><ele>301.0</ele><time>2026-04-24T09:02:37.022Z</time></trkpt><trkpt lat="43.1596727" lon="12.6126232"><ele>301.0</ele><time>2026-04-24T09:02:38.027Z</time></trkpt><trkpt lat="43.1597203" lon="12.6126832"><ele>301.0</ele><time>2026-04-24T09:02:39.02Z</time></trkpt><trkpt lat="43.1598459" lon="12.6127283"><ele>301.0</ele><time>2026-04-24T09:02:41.01Z</time></trkpt><trkpt lat="43.1599209" lon="12.6127314"><ele>301.0</ele><time>2026-04-24T09:02:42.009Z</time></trkpt><trkpt lat="43.159997" lon="12.6127154"><ele>301.0</ele><time>2026-04-24T09:02:43.016Z</time></trkpt><trkpt lat="43.1600723" lon="12.6126727"><ele>301.0</ele><time>2026-04-24T09:02:44.014Z</time></trkpt><trkpt lat="43.1601476" lon="12.612604"><ele>301.0</ele><time>2026-04-24T09:02:45.017Z</time></trkpt><trkpt lat="43.1602113" lon="12.6125336"><ele>301.0</ele><time>2026-04-24T09:02:46.011Z</time></trkpt><trkpt lat="43.1602923" lon="12.612481"><ele>301.0</ele><time>2026-04-24T09:02:47.018Z</time></trkpt><trkpt lat="43.1603731" lon="12.612462"><ele>301.0</ele><time>2026-04-24T09:02:48.024Z</time></trkpt><trkpt lat="43.1604471" lon="12.6124926"><ele>301.0</ele><time>2026-04-24T09:02:49.017Z</time></trkpt><trkpt lat="43.1605166" lon="12.6125499"><ele>301.0</ele><time>2026-04-24T09:02:50.013Z</time></trkpt><trkpt lat="43.1605883" lon="12.6126076"><ele>301.0</ele><time>2026-04-24T09:02:51.031Z</time></trkpt><trkpt lat="43.160669" lon="12.6126914"><ele>301.0</ele><time>2026-04-24T09:02:52.022Z</time></trkpt><trkpt lat="43.160763" lon="12.6127846"><ele>301.0</ele><time>2026-04-24T09:02:53.022Z</time></trkpt><trkpt lat="43.160845" lon="12.612888"><ele>301.0</ele><time>2026-04-24T09:02:54.025Z</time></trkpt><trkpt lat="43.1609128" lon="12.6130094"><ele>301.0</ele><time>2026-04-24T09:02:55.031Z</time></trkpt><trkpt lat="43.160971" lon="12.6131393"><ele>302.5</ele><time>2026-04-24T09:02:56.032Z</time></trkpt><trkpt lat="43.1610245" lon="12.6132793"><ele>304.0</ele><time>2026-04-24T09:02:57.019Z</time></trkpt><trkpt lat="43.1610778" lon="12.6134219"><ele>305.5</ele><time>2026-04-24T09:02:58.027Z</time></trkpt><trkpt lat="43.161135" lon="12.6135652"><ele>307.0</ele><time>2026-04-24T09:02:59.023Z</time></trkpt><trkpt lat="43.1611843" lon="12.6137113"><ele>308.0</ele><time>2026-04-24T09:03:00.031Z</time></trkpt><trkpt lat="43.1612345" lon="12.6138645"><ele>309.0</ele><time>2026-04-24T09:03:01.022Z</time></trkpt><trkpt lat="43.161284" lon="12.6140054"><ele>310.0</ele><time>2026-04-24T09:03:02.016Z</time></trkpt><trkpt lat="43.161337" lon="12.6141325"><ele>311.0</ele><time>2026-04-24T09:03:03.012Z</time></trkpt><trkpt lat="43.1613823" lon="12.6142662"><ele>311.0</ele><time>2026-04-24T09:03:04.012Z</time></trkpt><trkpt lat="43.1614269" lon="12.6143843"><ele>311.0</ele><time>2026-04-24T09:03:05.017Z</time></trkpt><trkpt lat="43.16148" lon="12.6144718"><ele>311.0</ele><time>2026-04-24T09:03:06.011Z</time></trkpt><trkpt lat="43.1615377" lon="12.6145248"><ele>311.0</ele><time>2026-04-24T09:03:07.02Z</time></trkpt><trkpt lat="43.1616133" lon="12.6145499"><ele>311.0</ele><time>2026-04-24T09:03:08.012Z</time></trkpt><trkpt lat="43.1616968" lon="12.6145418"><ele>311.0</ele><time>2026-04-24T09:03:09.027Z</time></trkpt><trkpt lat="43.1617751" lon="12.6145092"><ele>311.1666666666667</ele><time>2026-04-24T09:03:10.029Z</time></trkpt><trkpt lat="43.1618553" lon="12.6144742"><ele>311.33333333333337</ele><time>2026-04-24T09:03:11.016Z</time></trkpt><trkpt lat="43.1619339" lon="12.6144546"><ele>311.5</ele><time>2026-04-24T09:03:12.022Z</time></trkpt><trkpt lat="43.1620059" lon="12.6144707"><ele>311.6666666666667</ele><time>2026-04-24T09:03:13.013Z</time></trkpt><trkpt lat="43.1620613" lon="12.6145183"><ele>311.8333333333333</ele><time>2026-04-24T09:03:14.009Z</time></trkpt><trkpt lat="43.1620982" lon="12.6145964"><ele>312.0</ele><time>2026-04-24T09:03:15.013Z</time></trkpt><trkpt lat="43.1621138" lon="12.6147078"><ele>312.0</ele><time>2026-04-24T09:03:16.016Z</time></trkpt><trkpt lat="43.1621217" lon="12.6148375"><ele>312.0</ele><time>2026-04-24T09:03:17.017Z</time></trkpt><trkpt lat="43.1621226" lon="12.6149562"><ele>312.0</ele><time>2026-04-24T09:03:18.004Z</time></trkpt><trkpt lat="43.1621292" lon="12.6151093"><ele>312.0</ele><time>2026-04-24T09:03:19.017Z</time></trkpt><trkpt lat="43.162136" lon="12.6152572"><ele>312.0</ele><time>2026-04-24T09:03:20.021Z</time></trkpt><trkpt lat="43.1621543" lon="12.6154103"><ele>313.0</ele><time>2026-04-24T09:03:21.008Z</time></trkpt><trkpt lat="43.16218" lon="12.6155545"><ele>314.0</ele><time>2026-04-24T09:03:22.021Z</time></trkpt><trkpt lat="43.1622076" lon="12.6157027"><ele>315.0</ele><time>2026-04-24T09:03:23.026Z</time></trkpt><trkpt lat="43.1622358" lon="12.6158463"><ele>316.0</ele><time>2026-04-24T09:03:24.026Z</time></trkpt><trkpt lat="43.1622633" lon="12.615997"><ele>317.0</ele><time>2026-04-24T09:03:25.019Z</time></trkpt><trkpt lat="43.1622881" lon="12.6161377"><ele>318.0</ele><time>2026-04-24T09:03:26.023Z</time></trkpt><trkpt lat="43.1623106" lon="12.6162763"><ele>319.0</ele><time>2026-04-24T09:03:27.02Z</time></trkpt><trkpt lat="43.1623486" lon="12.6164048"><ele>320.0</ele><time>2026-04-24T09:03:28.025Z</time></trkpt><trkpt lat="43.1623893" lon="12.6165301"><ele>321.0</ele><time>2026-04-24T09:03:29.022Z</time></trkpt><trkpt lat="43.1624374" lon="12.6166388"><ele>322.0</ele><time>2026-04-24T09:03:30.026Z</time></trkpt><trkpt lat="43.1624909" lon="12.6167323"><ele>322.8333333333333</ele><time>2026-04-24T09:03:31.016Z</time></trkpt><trkpt lat="43.1625312" lon="12.6168185"><ele>323.66666666666663</ele><time>2026-04-24T09:03:32.023Z</time></trkpt><trkpt lat="43.1625543" lon="12.6169012"><ele>324.5</ele><time>2026-04-24T09:03:33Z</time></trkpt><trkpt lat="43.1625463" lon="12.617069"><ele>325.3333333333333</ele><time>2026-04-24T09:03:35.028Z</time></trkpt><trkpt lat="43.1625549" lon="12.6171654"><ele>326.1666666666667</ele><time>2026-04-24T09:03:36.022Z</time></trkpt><trkpt lat="43.1626001" lon="12.6172681"><ele>327.0</ele><time>2026-04-24T09:03:37.029Z</time></trkpt><trkpt lat="43.162661" lon="12.6173529"><ele>327.0</ele><time>2026-04-24T09:03:38.024Z</time></trkpt><trkpt lat="43.1627262" lon="12.6174254"><ele>327.0</ele><time>2026-04-24T09:03:39.018Z</time></trkpt><trkpt lat="43.1627685" lon="12.6175026"><ele>327.0</ele><time>2026-04-24T09:03:40.014Z</time></trkpt><trkpt lat="43.1628053" lon="12.6175838"><ele>327.0</ele><time>2026-04-24T09:03:41.021Z</time></trkpt><trkpt lat="43.1628328" lon="12.6176704"><ele>327.0</ele><time>2026-04-24T09:03:42.017Z</time></trkpt><trkpt lat="43.1628118" lon="12.6178187"><ele>327.0</ele><time>2026-04-24T09:03:44.02Z</time></trkpt><trkpt lat="43.1627253" lon="12.6179348"><ele>327.5</ele><time>2026-04-24T09:03:46.02Z</time></trkpt><trkpt lat="43.162674" lon="12.6179898"><ele>328.0</ele><time>2026-04-24T09:03:47.005Z</time></trkpt><trkpt lat="43.162599" lon="12.6180516"><ele>328.5</ele><time>2026-04-24T09:03:48.013Z</time></trkpt><trkpt lat="43.1625228" lon="12.6181152"><ele>329.0</ele><time>2026-04-24T09:03:49.025Z</time></trkpt><trkpt lat="43.1624624" lon="12.6182021"><ele>329.5</ele><time>2026-04-24T09:03:50.023Z</time></trkpt><trkpt lat="43.1624188" lon="12.6182994"><ele>330.0</ele><time>2026-04-24T09:03:51.02Z</time></trkpt><trkpt lat="43.1623991" lon="12.6183986"><ele>330.0</ele><time>2026-04-24T09:03:52.021Z</time></trkpt><trkpt lat="43.1624087" lon="12.6185101"><ele>330.0</ele><time>2026-04-24T09:03:53.01Z</time></trkpt><trkpt lat="43.1624313" lon="12.6186409"><ele>330.0</ele><time>2026-04-24T09:03:54.018Z</time></trkpt><trkpt lat="43.1624774" lon="12.6187742"><ele>330.0</ele><time>2026-04-24T09:03:55.018Z</time></trkpt><trkpt lat="43.162533" lon="12.6189065"><ele>330.0</ele><time>2026-04-24T09:03:56.012Z</time></trkpt><trkpt lat="43.1626086" lon="12.6190307"><ele>331.25</ele><time>2026-04-24T09:03:57.011Z</time></trkpt><trkpt lat="43.1626939" lon="12.6191439"><ele>332.5</ele><time>2026-04-24T09:03:57.997Z</time></trkpt><trkpt lat="43.162795" lon="12.6192353"><ele>333.75</ele><time>2026-04-24T09:03:59.026Z</time></trkpt><trkpt lat="43.1628825" lon="12.6193321"><ele>335.0</ele><time>2026-04-24T09:04:00.018Z</time></trkpt><trkpt lat="43.1629625" lon="12.619459"><ele>336.0</ele><time>2026-04-24T09:04:01.029Z</time></trkpt><trkpt lat="43.1630395" lon="12.6195965"><ele>337.0</ele><time>2026-04-24T09:04:02.012Z</time></trkpt><trkpt lat="43.1631182" lon="12.6197388"><ele>338.0</ele><time>2026-04-24T09:04:03.026Z</time></trkpt><trkpt lat="43.1631915" lon="12.6198826"><ele>339.0</ele><time>2026-04-24T09:04:04.027Z</time></trkpt><trkpt lat="43.1632371" lon="12.6200248"><ele>339.0</ele><time>2026-04-24T09:04:05.031Z</time></trkpt><trkpt lat="43.1632866" lon="12.6201621"><ele>339.0</ele><time>2026-04-24T09:04:06.011Z</time></trkpt><trkpt lat="43.1633486" lon="12.6202879"><ele>339.0</ele><time>2026-04-24T09:04:07.02Z</time></trkpt><trkpt lat="43.1634074" lon="12.6204071"><ele>339.0</ele><time>2026-04-24T09:04:08.018Z</time></trkpt><trkpt lat="43.1634728" lon="12.6205329"><ele>339.0</ele><time>2026-04-24T09:04:09.022Z</time></trkpt><trkpt lat="43.1635391" lon="12.6206674"><ele>339.25</ele><time>2026-04-24T09:04:10.007Z</time></trkpt><trkpt lat="43.1636059" lon="12.6208023"><ele>339.5</ele><time>2026-04-24T09:04:11.025Z</time></trkpt><trkpt lat="43.1636799" lon="12.6209407"><ele>339.75</ele><time>2026-04-24T09:04:12.005Z</time></trkpt><trkpt lat="43.1637627" lon="12.6210644"><ele>340.0</ele><time>2026-04-24T09:04:13.018Z</time></trkpt><trkpt lat="43.1638491" lon="12.621187"><ele>339.5</ele><time>2026-04-24T09:04:14.013Z</time></trkpt><trkpt lat="43.1639488" lon="12.6212944"><ele>339.0</ele><time>2026-04-24T09:04:15.025Z</time></trkpt><trkpt lat="43.1640491" lon="12.6214048"><ele>338.5</ele><time>2026-04-24T09:04:16.022Z</time></trkpt><trkpt lat="43.1641641" lon="12.621502"><ele>338.0</ele><time>2026-04-24T09:04:17.013Z</time></trkpt><trkpt lat="43.1642785" lon="12.6216095"><ele>338.0</ele><time>2026-04-24T09:04:18.026Z</time></trkpt><trkpt lat="43.164392" lon="12.6217069"><ele>338.0</ele><time>2026-04-24T09:04:19.023Z</time></trkpt><trkpt lat="43.1644884" lon="12.6218004"><ele>338.0</ele><time>2026-04-24T09:04:20.017Z</time></trkpt><trkpt lat="43.1645777" lon="12.6218913"><ele>338.0</ele><time>2026-04-24T09:04:21.029Z</time></trkpt><trkpt lat="43.1646589" lon="12.6219865"><ele>339.0</ele><time>2026-04-24T09:04:22.02Z</time></trkpt><trkpt lat="43.1647295" lon="12.6220842"><ele>340.0</ele><time>2026-04-24T09:04:23.007Z</time></trkpt><trkpt lat="43.1648015" lon="12.6221828"><ele>341.0</ele><time>2026-04-24T09:04:24.006Z</time></trkpt><trkpt lat="43.1648534" lon="12.622322"><ele>342.0</ele><time>2026-04-24T09:04:25.022Z</time></trkpt><trkpt lat="43.16489" lon="12.6224629"><ele>343.0</ele><time>2026-04-24T09:04:26.019Z</time></trkpt><trkpt lat="43.1649078" lon="12.622586"><ele>343.0</ele><time>2026-04-24T09:04:27.031Z</time></trkpt><trkpt lat="43.1649052" lon="12.622703"><ele>343.0</ele><time>2026-04-24T09:04:28.006Z</time></trkpt><trkpt lat="43.1648752" lon="12.622824"><ele>343.0</ele><time>2026-04-24T09:04:29.025Z</time></trkpt><trkpt lat="43.1648419" lon="12.6229579"><ele>343.0</ele><time>2026-04-24T09:04:30.015Z</time></trkpt><trkpt lat="43.1648309" lon="12.6231028"><ele>343.0</ele><time>2026-04-24T09:04:31.014Z</time></trkpt><trkpt lat="43.1648192" lon="12.6232561"><ele>346.0</ele><time>2026-04-24T09:04:32.01Z</time></trkpt><trkpt lat="43.1648055" lon="12.6233957"><ele>349.0</ele><time>2026-04-24T09:04:33.017Z</time></trkpt><trkpt lat="43.1647712" lon="12.6235404"><ele>352.0</ele><time>2026-04-24T09:04:34.027Z</time></trkpt><trkpt lat="43.1647388" lon="12.6236793"><ele>355.0</ele><time>2026-04-24T09:04:35.019Z</time></trkpt><trkpt lat="43.1647134" lon="12.6238427"><ele>358.0</ele><time>2026-04-24T09:04:36.015Z</time></trkpt><trkpt lat="43.1646983" lon="12.6240072"><ele>359.79999999999995</ele><time>2026-04-24T09:04:37.026Z</time></trkpt><trkpt lat="43.1646941" lon="12.6241808"><ele>361.6</ele><time>2026-04-24T09:04:38.016Z</time></trkpt><trkpt lat="43.1646784" lon="12.6243405"><ele>363.4</ele><time>2026-04-24T09:04:39.02Z</time></trkpt><trkpt lat="43.1646593" lon="12.6244846"><ele>365.20000000000005</ele><time>2026-04-24T09:04:40.013Z</time></trkpt><trkpt lat="43.1646449" lon="12.6246159"><ele>367.0</ele><time>2026-04-24T09:04:41.039Z</time></trkpt><trkpt lat="43.1646184" lon="12.6247316"><ele>368.20000000000005</ele><time>2026-04-24T09:04:42.017Z</time></trkpt><trkpt lat="43.1645659" lon="12.624831"><ele>369.4</ele><time>2026-04-24T09:04:43.02Z</time></trkpt><trkpt lat="43.1645139" lon="12.6249475"><ele>370.6</ele><time>2026-04-24T09:04:44.015Z</time></trkpt><trkpt lat="43.1644845" lon="12.6250846"><ele>371.79999999999995</ele><time>2026-04-24T09:04:45.017Z</time></trkpt><trkpt lat="43.1644741" lon="12.6252281"><ele>373.0</ele><time>2026-04-24T09:04:46.023Z</time></trkpt><trkpt lat="43.1644694" lon="12.6253727"><ele>373.2</ele><time>2026-04-24T09:04:47.02Z</time></trkpt><trkpt lat="43.1644779" lon="12.6255167"><ele>373.4</ele><time>2026-04-24T09:04:48.001Z</time></trkpt><trkpt lat="43.1644891" lon="12.6256602"><ele>373.59999999999997</ele><time>2026-04-24T09:04:49.02Z</time></trkpt><trkpt lat="43.1644974" lon="12.6258022"><ele>373.79999999999995</ele><time>2026-04-24T09:04:50.025Z</time></trkpt><trkpt lat="43.1644961" lon="12.6259446"><ele>374.0</ele><time>2026-04-24T09:04:51.02Z</time></trkpt><trkpt lat="43.1644712" lon="12.6260841"><ele>375.1666666666667</ele><time>2026-04-24T09:04:52.002Z</time></trkpt><trkpt lat="43.1644466" lon="12.6262067"><ele>376.33333333333337</ele><time>2026-04-24T09:04:53.024Z</time></trkpt><trkpt lat="43.1644158" lon="12.6263033"><ele>377.5</ele><time>2026-04-24T09:04:54.022Z</time></trkpt><trkpt lat="43.1643716" lon="12.6263767"><ele>378.6666666666667</ele><time>2026-04-24T09:04:55.02Z</time></trkpt><trkpt lat="43.1642794" lon="12.626367"><ele>379.8333333333333</ele><time>2026-04-24T09:04:57.004Z</time></trkpt><trkpt lat="43.1642288" lon="12.6263134"><ele>381.0</ele><time>2026-04-24T09:04:58.006Z</time></trkpt><trkpt lat="43.1641897" lon="12.6262332"><ele>381.0</ele><time>2026-04-24T09:04:59.025Z</time></trkpt><trkpt lat="43.1641336" lon="12.626145"><ele>381.0</ele><time>2026-04-24T09:05:00.027Z</time></trkpt><trkpt lat="43.164091" lon="12.6260369"><ele>381.0</ele><time>2026-04-24T09:05:01.007Z</time></trkpt><trkpt lat="43.1640369" lon="12.6259347"><ele>381.0</ele><time>2026-04-24T09:05:02.029Z</time></trkpt><trkpt lat="43.1639825" lon="12.6258306"><ele>381.0</ele><time>2026-04-24T09:05:03.032Z</time></trkpt><trkpt lat="43.1639312" lon="12.6257311"><ele>381.0</ele><time>2026-04-24T09:05:04.013Z</time></trkpt><trkpt lat="43.1638716" lon="12.6256098"><ele>383.5</ele><time>2026-04-24T09:05:06.025Z</time></trkpt><trkpt lat="43.1638009" lon="12.6255695"><ele>386.0</ele><time>2026-04-24T09:05:08.019Z</time></trkpt><trkpt lat="43.163736" lon="12.6256537"><ele>388.5</ele><time>2026-04-24T09:05:09.993Z</time></trkpt><trkpt lat="43.163716" lon="12.6258217"><ele>391.0</ele><time>2026-04-24T09:05:12.017Z</time></trkpt><trkpt lat="43.1637245" lon="12.6259247"><ele>393.5</ele><time>2026-04-24T09:05:13.02Z</time></trkpt><trkpt lat="43.1637403" lon="12.6260353"><ele>396.0</ele><time>2026-04-24T09:05:14.022Z</time></trkpt><trkpt lat="43.1637739" lon="12.6261478"><ele>397.0</ele><time>2026-04-24T09:05:15.008Z</time></trkpt><trkpt lat="43.1638097" lon="12.6262573"><ele>398.0</ele><time>2026-04-24T09:05:16.028Z</time></trkpt><trkpt lat="43.1638419" lon="12.6263679"><ele>399.0</ele><time>2026-04-24T09:05:17.028Z</time></trkpt><trkpt lat="43.1638745" lon="12.6264775"><ele>400.0</ele><time>2026-04-24T09:05:18.014Z</time></trkpt><trkpt lat="43.1638886" lon="12.6265914"><ele>401.0</ele><time>2026-04-24T09:05:19.012Z</time></trkpt><trkpt lat="43.1638917" lon="12.6267169"><ele>402.0</ele><time>2026-04-24T09:05:20.016Z</time></trkpt><trkpt lat="43.1638947" lon="12.6268471"><ele>404.0</ele><time>2026-04-24T09:05:21.014Z</time></trkpt><trkpt lat="43.1639065" lon="12.6269786"><ele>406.0</ele><time>2026-04-24T09:05:22.012Z</time></trkpt><trkpt lat="43.1639181" lon="12.6271255"><ele>408.0</ele><time>2026-04-24T09:05:23.025Z</time></trkpt><trkpt lat="43.1639266" lon="12.6272791"><ele>410.0</ele><time>2026-04-24T09:05:24.015Z</time></trkpt><trkpt lat="43.1639383" lon="12.6274343"><ele>412.0</ele><time>2026-04-24T09:05:25.034Z</time></trkpt><trkpt lat="43.1639623" lon="12.627584"><ele>412.0</ele><time>2026-04-24T09:05:26.017Z</time></trkpt><trkpt lat="43.1639794" lon="12.6277227"><ele>412.0</ele><time>2026-04-24T09:05:27.001Z</time></trkpt><trkpt lat="43.1640083" lon="12.6278457"><ele>412.0</ele><time>2026-04-24T09:05:28.026Z</time></trkpt><trkpt lat="43.1640408" lon="12.6279664"><ele>412.0</ele><time>2026-04-24T09:05:29.034Z</time></trkpt><trkpt lat="43.16406" lon="12.6280808"><ele>412.0</ele><time>2026-04-24T09:05:30.017Z</time></trkpt><trkpt lat="43.1640725" lon="12.6282089"><ele>411.1666666666667</ele><time>2026-04-24T09:05:31.017Z</time></trkpt><trkpt lat="43.1640878" lon="12.6283352"><ele>410.33333333333337</ele><time>2026-04-24T09:05:32.025Z</time></trkpt><trkpt lat="43.1641211" lon="12.6284573"><ele>409.5</ele><time>2026-04-24T09:05:33.023Z</time></trkpt><trkpt lat="43.1641681" lon="12.628561"><ele>408.66666666666663</ele><time>2026-04-24T09:05:34.025Z</time></trkpt><trkpt lat="43.1642158" lon="12.6286383"><ele>407.8333333333333</ele><time>2026-04-24T09:05:35.015Z</time></trkpt><trkpt lat="43.1642494" lon="12.6287204"><ele>407.0</ele><time>2026-04-24T09:05:36.019Z</time></trkpt><trkpt lat="43.1642845" lon="12.6288127"><ele>407.0</ele><time>2026-04-24T09:05:37.03Z</time></trkpt><trkpt lat="43.1643101" lon="12.6289111"><ele>407.0</ele><time>2026-04-24T09:05:37.999Z</time></trkpt><trkpt lat="43.1643154" lon="12.6290519"><ele>407.0</ele><time>2026-04-24T09:05:39.021Z</time></trkpt><trkpt lat="43.1643092" lon="12.6292101"><ele>407.0</ele><time>2026-04-24T09:05:40.018Z</time></trkpt><trkpt lat="43.1643067" lon="12.6293535"><ele>407.0</ele><time>2026-04-24T09:05:41.022Z</time></trkpt><trkpt lat="43.1643125" lon="12.6294909"><ele>405.8</ele><time>2026-04-24T09:05:42.005Z</time></trkpt><trkpt lat="43.1643228" lon="12.6296197"><ele>404.6</ele><time>2026-04-24T09:05:43.018Z</time></trkpt><trkpt lat="43.1643331" lon="12.6297452"><ele>403.40000000000003</ele><time>2026-04-24T09:05:44.014Z</time></trkpt><trkpt lat="43.1643408" lon="12.6298703"><ele>402.20000000000005</ele><time>2026-04-24T09:05:45.027Z</time></trkpt><trkpt lat="43.1643367" lon="12.6299893"><ele>401.0</ele><time>2026-04-24T09:05:46.026Z</time></trkpt><trkpt lat="43.1643335" lon="12.6301279"><ele>400.99999999999994</ele><time>2026-04-24T09:05:47.004Z</time></trkpt><trkpt lat="43.1643315" lon="12.6302646"><ele>401.0</ele><time>2026-04-24T09:05:48.029Z</time></trkpt><trkpt lat="43.1643319" lon="12.6303969"><ele>401.0</ele><time>2026-04-24T09:05:49.032Z</time></trkpt><trkpt lat="43.1643312" lon="12.6305143"><ele>401.0</ele><time>2026-04-24T09:05:49.996Z</time></trkpt><trkpt lat="43.1643319" lon="12.6306181"><ele>400.99999999999994</ele><time>2026-04-24T09:05:51.02Z</time></trkpt><trkpt lat="43.1643201" lon="12.6307227"><ele>401.0</ele><time>2026-04-24T09:05:52.021Z</time></trkpt><trkpt lat="43.164297" lon="12.6308372"><ele>400.8</ele><time>2026-04-24T09:05:53.032Z</time></trkpt><trkpt lat="43.1642648" lon="12.630961"><ele>400.6</ele><time>2026-04-24T09:05:54.017Z</time></trkpt><trkpt lat="43.164241" lon="12.631087"><ele>400.4</ele><time>2026-04-24T09:05:55.024Z</time></trkpt><trkpt lat="43.1642158" lon="12.6312112"><ele>400.2</ele><time>2026-04-24T09:05:56.006Z</time></trkpt><trkpt lat="43.1642019" lon="12.6313325"><ele>400.0</ele><time>2026-04-24T09:05:57.023Z</time></trkpt><trkpt lat="43.1641923" lon="12.6314519"><ele>399.83333333333337</ele><time>2026-04-24T09:05:58.015Z</time></trkpt><trkpt lat="43.1641866" lon="12.6315626"><ele>399.6666666666667</ele><time>2026-04-24T09:05:59.017Z</time></trkpt><trkpt lat="43.1641783" lon="12.6316603"><ele>399.5</ele><time>2026-04-24T09:06:00.033Z</time></trkpt><trkpt lat="43.1641736" lon="12.6317506"><ele>399.33333333333337</ele><time>2026-04-24T09:06:01.022Z</time></trkpt><trkpt lat="43.1641702" lon="12.6318696"><ele>399.1666666666667</ele><time>2026-04-24T09:06:03.026Z</time></trkpt><trkpt lat="43.1641671" lon="12.6319737"><ele>399.0</ele><time>2026-04-24T09:06:25.021Z</time></trkpt><trkpt lat="43.1641593" lon="12.6320975"><ele>400.4</ele><time>2026-04-24T09:06:27.031Z</time></trkpt><trkpt lat="43.1641685" lon="12.6322813"><ele>401.79999999999995</ele><time>2026-04-24T09:06:29.025Z</time></trkpt><trkpt lat="43.1641746" lon="12.6323947"><ele>403.20000000000005</ele><time>2026-04-24T09:06:30.012Z</time></trkpt><trkpt lat="43.1641697" lon="12.6325135"><ele>404.6</ele><time>2026-04-24T09:06:31.022Z</time></trkpt><trkpt lat="43.1641673" lon="12.6326298"><ele>406.0</ele><time>2026-04-24T09:06:32.033Z</time></trkpt><trkpt lat="43.164157" lon="12.6327482"><ele>407.83333333333337</ele><time>2026-04-24T09:06:33.022Z</time></trkpt><trkpt lat="43.164149" lon="12.6328731"><ele>409.6666666666667</ele><time>2026-04-24T09:06:34.031Z</time></trkpt><trkpt lat="43.1641478" lon="12.6329971"><ele>411.5</ele><time>2026-04-24T09:06:35.033Z</time></trkpt><trkpt lat="43.1641423" lon="12.6331162"><ele>413.33333333333337</ele><time>2026-04-24T09:06:36.028Z</time></trkpt><trkpt lat="43.1641319" lon="12.6332258"><ele>415.1666666666667</ele><time>2026-04-24T09:06:37.016Z</time></trkpt><trkpt lat="43.1641124" lon="12.633334"><ele>417.0</ele><time>2026-04-24T09:06:37.997Z</time></trkpt><trkpt lat="43.1640945" lon="12.6334381"><ele>417.0</ele><time>2026-04-24T09:06:39.031Z</time></trkpt><trkpt lat="43.1640655" lon="12.633536"><ele>417.0</ele><time>2026-04-24T09:06:40.03Z</time></trkpt><trkpt lat="43.1640278" lon="12.6336428"><ele>417.0</ele><time>2026-04-24T09:06:41.009Z</time></trkpt><trkpt lat="43.1639804" lon="12.6337484"><ele>417.0</ele><time>2026-04-24T09:06:42.011Z</time></trkpt><trkpt lat="43.1639335" lon="12.6338508"><ele>417.0</ele><time>2026-04-24T09:06:43.023Z</time></trkpt><trkpt lat="43.1638895" lon="12.6339601"><ele>417.0</ele><time>2026-04-24T09:06:44.008Z</time></trkpt><trkpt lat="43.163849" lon="12.6340708"><ele>422.1666666666667</ele><time>2026-04-24T09:06:45.022Z</time></trkpt><trkpt lat="43.1638134" lon="12.6341704"><ele>427.33333333333337</ele><time>2026-04-24T09:06:45.995Z</time></trkpt><trkpt lat="43.1637701" lon="12.6342526"><ele>432.5</ele><time>2026-04-24T09:06:47.023Z</time></trkpt><trkpt lat="43.1636852" lon="12.6343219"><ele>437.6666666666667</ele><time>2026-04-24T09:06:49.016Z</time></trkpt><trkpt lat="43.163616" lon="12.634295"><ele>442.83333333333337</ele><time>2026-04-24T09:06:51.007Z</time></trkpt><trkpt lat="43.1635511" lon="12.6341701"><ele>448.0</ele><time>2026-04-24T09:06:53.028Z</time></trkpt><trkpt lat="43.1634727" lon="12.6340405"><ele>448.00000000000006</ele><time>2026-04-24T09:06:55.017Z</time></trkpt><trkpt lat="43.1634202" lon="12.6339674"><ele>448.0</ele><time>2026-04-24T09:06:56.026Z</time></trkpt><trkpt lat="43.1633586" lon="12.6338804"><ele>448.0</ele><time>2026-04-24T09:06:57.011Z</time></trkpt><trkpt lat="43.1632948" lon="12.6337887"><ele>448.0</ele><time>2026-04-24T09:06:58.003Z</time></trkpt><trkpt lat="43.1632395" lon="12.6337105"><ele>448.00000000000006</ele><time>2026-04-24T09:06:59.014Z</time></trkpt><trkpt lat="43.1631812" lon="12.6336456"><ele>448.0</ele><time>2026-04-24T09:07:00.01Z</time></trkpt><trkpt lat="43.1631204" lon="12.6336079"><ele>449.83333333333337</ele><time>2026-04-24T09:07:01.014Z</time></trkpt><trkpt lat="43.1630556" lon="12.6335758"><ele>451.6666666666667</ele><time>2026-04-24T09:07:02.005Z</time></trkpt><trkpt lat="43.1629888" lon="12.6335635"><ele>453.5</ele><time>2026-04-24T09:07:03.017Z</time></trkpt><trkpt lat="43.1628925" lon="12.6335839"><ele>455.33333333333337</ele><time>2026-04-24T09:07:05.011Z</time></trkpt><trkpt lat="43.1628238" lon="12.6336854"><ele>457.1666666666667</ele><time>2026-04-24T09:07:07.028Z</time></trkpt><trkpt lat="43.1628243" lon="12.6338075"><ele>459.0</ele><time>2026-04-24T09:07:08.997Z</time></trkpt><trkpt lat="43.1628675" lon="12.6339493"><ele>460.79999999999995</ele><time>2026-04-24T09:07:11.002Z</time></trkpt><trkpt lat="43.1629056" lon="12.6340319"><ele>462.59999999999997</ele><time>2026-04-24T09:07:12.006Z</time></trkpt><trkpt lat="43.162928" lon="12.6341347"><ele>464.4</ele><time>2026-04-24T09:07:13.017Z</time></trkpt><trkpt lat="43.1629201" lon="12.634293"><ele>466.2</ele><time>2026-04-24T09:07:15.003Z</time></trkpt><trkpt lat="43.1628233" lon="12.6343804"><ele>468.0</ele><time>2026-04-24T09:07:17.042Z</time></trkpt><trkpt lat="43.1627463" lon="12.6344006"><ele>468.0</ele><time>2026-04-24T09:07:18.031Z</time></trkpt><trkpt lat="43.1626655" lon="12.6344229"><ele>468.0</ele><time>2026-04-24T09:07:19.012Z</time></trkpt><trkpt lat="43.1625845" lon="12.6344347"><ele>468.0</ele><time>2026-04-24T09:07:20.013Z</time></trkpt><trkpt lat="43.1624959" lon="12.6344383"><ele>468.0</ele><time>2026-04-24T09:07:21.036Z</time></trkpt><trkpt lat="43.1624106" lon="12.6344426"><ele>468.0</ele><time>2026-04-24T09:07:22.036Z</time></trkpt><trkpt lat="43.1623284" lon="12.6344389"><ele>468.0</ele><time>2026-04-24T09:07:23.001Z</time></trkpt><trkpt lat="43.1622483" lon="12.634429"><ele>470.59999999999997</ele><time>2026-04-24T09:07:24.02Z</time></trkpt><trkpt lat="43.1621671" lon="12.6344243"><ele>473.19999999999993</ele><time>2026-04-24T09:07:25.023Z</time></trkpt><trkpt lat="43.1620589" lon="12.6344016"><ele>475.8</ele><time>2026-04-24T09:07:26.015Z</time></trkpt><trkpt lat="43.1619674" lon="12.6344086"><ele>478.4</ele><time>2026-04-24T09:07:27.029Z</time></trkpt><trkpt lat="43.1618739" lon="12.6344011"><ele>481.0</ele><time>2026-04-24T09:07:28.006Z</time></trkpt><trkpt lat="43.1617827" lon="12.6343888"><ele>481.0</ele><time>2026-04-24T09:07:29.032Z</time></trkpt><trkpt lat="43.1616969" lon="12.6343674"><ele>481.0</ele><time>2026-04-24T09:07:30.035Z</time></trkpt><trkpt lat="43.161617" lon="12.6343405"><ele>481.0</ele><time>2026-04-24T09:07:31.012Z</time></trkpt><trkpt lat="43.1615056" lon="12.6342896"><ele>481.0</ele><time>2026-04-24T09:07:33.012Z</time></trkpt><trkpt lat="43.1614462" lon="12.6341608"><ele>481.0</ele><time>2026-04-24T09:07:35.026Z</time></trkpt><trkpt lat="43.1614499" lon="12.6340742"><ele>483.6</ele><time>2026-04-24T09:07:35.999Z</time></trkpt><trkpt lat="43.1614422" lon="12.6339401"><ele>486.20000000000005</ele><time>2026-04-24T09:07:37.014Z</time></trkpt><trkpt lat="43.1614273" lon="12.6337945"><ele>488.79999999999995</ele><time>2026-04-24T09:07:38.013Z</time></trkpt><trkpt lat="43.1613962" lon="12.6336394"><ele>491.4</ele><time>2026-04-24T09:07:39.029Z</time></trkpt><trkpt lat="43.1613629" lon="12.6335087"><ele>494.0</ele><time>2026-04-24T09:07:40.018Z</time></trkpt><trkpt lat="43.1613068" lon="12.6333863"><ele>494.0</ele><time>2026-04-24T09:07:41.021Z</time></trkpt><trkpt lat="43.1612597" lon="12.6332804"><ele>494.0</ele><time>2026-04-24T09:07:42.003Z</time></trkpt><trkpt lat="43.1612277" lon="12.6331786"><ele>494.0</ele><time>2026-04-24T09:07:43.005Z</time></trkpt><trkpt lat="43.1612004" lon="12.6330611"><ele>494.0</ele><time>2026-04-24T09:07:44.005Z</time></trkpt><trkpt lat="43.1611731" lon="12.6329038"><ele>494.0</ele><time>2026-04-24T09:07:45.026Z</time></trkpt><trkpt lat="43.1611378" lon="12.6327323"><ele>493.5</ele><time>2026-04-24T09:07:46.022Z</time></trkpt><trkpt lat="43.1610996" lon="12.6325572"><ele>493.0</ele><time>2026-04-24T09:07:47.022Z</time></trkpt><trkpt lat="43.1610507" lon="12.632388"><ele>492.5</ele><time>2026-04-24T09:07:48.014Z</time></trkpt><trkpt lat="43.1609975" lon="12.6322251"><ele>492.0</ele><time>2026-04-24T09:07:49.024Z</time></trkpt><trkpt lat="43.1609632" lon="12.6320774"><ele>492.3333333333333</ele><time>2026-04-24T09:07:50.018Z</time></trkpt><trkpt lat="43.1609387" lon="12.6319432"><ele>492.66666666666663</ele><time>2026-04-24T09:07:51.02Z</time></trkpt><trkpt lat="43.1609247" lon="12.631823"><ele>493.0</ele><time>2026-04-24T09:07:52.026Z</time></trkpt><trkpt lat="43.1609195" lon="12.6317318"><ele>493.3333333333333</ele><time>2026-04-24T09:07:53.015Z</time></trkpt><trkpt lat="43.1609213" lon="12.6316218"><ele>493.66666666666663</ele><time>2026-04-24T09:07:55.02Z</time></trkpt><trkpt lat="43.160889" lon="12.6315443"><ele>494.0</ele><time>2026-04-24T09:07:58.004Z</time></trkpt><trkpt lat="43.1608365" lon="12.6314773"><ele>493.99999999999994</ele><time>2026-04-24T09:08:00.025Z</time></trkpt><trkpt lat="43.1607497" lon="12.6313789"><ele>494.0</ele><time>2026-04-24T09:08:02.004Z</time></trkpt><trkpt lat="43.1607046" lon="12.6313056"><ele>494.0</ele><time>2026-04-24T09:08:03.01Z</time></trkpt><trkpt lat="43.1606596" lon="12.6312108"><ele>494.0</ele><time>2026-04-24T09:08:03.997Z</time></trkpt><trkpt lat="43.160607" lon="12.6311103"><ele>493.99999999999994</ele><time>2026-04-24T09:08:05.026Z</time></trkpt><trkpt lat="43.1605665" lon="12.6310082"><ele>494.0</ele><time>2026-04-24T09:08:06.022Z</time></trkpt><trkpt lat="43.1605372" lon="12.630903"><ele>495.49999999999994</ele><time>2026-04-24T09:08:07.005Z</time></trkpt><trkpt lat="43.1605042" lon="12.6308037"><ele>497.0</ele><time>2026-04-24T09:08:08.001Z</time></trkpt><trkpt lat="43.1604596" lon="12.6307255"><ele>498.5</ele><time>2026-04-24T09:08:09.014Z</time></trkpt><trkpt lat="43.1604032" lon="12.6306643"><ele>500.0</ele><time>2026-04-24T09:08:10.009Z</time></trkpt><trkpt lat="43.1602994" lon="12.6306079"><ele>501.49999999999994</ele><time>2026-04-24T09:08:12.027Z</time></trkpt><trkpt lat="43.1602158" lon="12.6305311"><ele>503.0</ele><time>2026-04-24T09:08:14.017Z</time></trkpt><trkpt lat="43.1601798" lon="12.6304448"><ele>502.99999999999994</ele><time>2026-04-24T09:08:15.033Z</time></trkpt><trkpt lat="43.1601663" lon="12.6303489"><ele>503.0</ele><time>2026-04-24T09:08:16.011Z</time></trkpt><trkpt lat="43.1601586" lon="12.6302628"><ele>503.0</ele><time>2026-04-24T09:08:17.005Z</time></trkpt><trkpt lat="43.1601599" lon="12.6301752"><ele>503.0</ele><time>2026-04-24T09:08:18.014Z</time></trkpt><trkpt lat="43.160143" lon="12.6300059"><ele>502.99999999999994</ele><time>2026-04-24T09:08:20.032Z</time></trkpt><trkpt lat="43.1601415" lon="12.6299094"><ele>503.0</ele><time>2026-04-24T09:08:21.031Z</time></trkpt><trkpt lat="43.1601319" lon="12.6297938"><ele>502.99999999999994</ele><time>2026-04-24T09:08:22.006Z</time></trkpt><trkpt lat="43.1601187" lon="12.6296953"><ele>503.0</ele><time>2026-04-24T09:08:22.998Z</time></trkpt><trkpt lat="43.1600964" lon="12.6295963"><ele>503.0</ele><time>2026-04-24T09:08:24.009Z</time></trkpt><trkpt lat="43.1600686" lon="12.629506"><ele>503.0</ele><time>2026-04-24T09:08:25.031Z</time></trkpt><trkpt lat="43.1600312" lon="12.6294278"><ele>502.99999999999994</ele><time>2026-04-24T09:08:26.031Z</time></trkpt><trkpt lat="43.1599553" lon="12.6293222"><ele>503.0</ele><time>2026-04-24T09:08:28.011Z</time></trkpt><trkpt lat="43.159878" lon="12.6292205"><ele>504.4</ele><time>2026-04-24T09:08:30.022Z</time></trkpt><trkpt lat="43.1598166" lon="12.6290917"><ele>505.79999999999995</ele><time>2026-04-24T09:08:32.022Z</time></trkpt><trkpt lat="43.1597872" lon="12.6290108"><ele>507.2</ele><time>2026-04-24T09:08:32.998Z</time></trkpt><trkpt lat="43.1597452" lon="12.6288749"><ele>508.6</ele><time>2026-04-24T09:08:34.998Z</time></trkpt><trkpt lat="43.159713" lon="12.6287628"><ele>510.0</ele><time>2026-04-24T09:08:36.997Z</time></trkpt><trkpt lat="43.159681" lon="12.6286644"><ele>509.8333333333333</ele><time>2026-04-24T09:08:39.021Z</time></trkpt><trkpt lat="43.1596491" lon="12.6285833"><ele>509.66666666666663</ele><time>2026-04-24T09:08:41.01Z</time></trkpt><trkpt lat="43.1596166" lon="12.6284919"><ele>509.5</ele><time>2026-04-24T09:08:43.015Z</time></trkpt><trkpt lat="43.1595887" lon="12.628401"><ele>509.3333333333333</ele><time>2026-04-24T09:08:45.016Z</time></trkpt><trkpt lat="43.1595597" lon="12.6283085"><ele>509.16666666666663</ele><time>2026-04-24T09:09:02.012Z</time></trkpt><trkpt lat="43.1595419" lon="12.6281466"><ele>509.0</ele><time>2026-04-24T09:09:04.002Z</time></trkpt><trkpt lat="43.1595436" lon="12.6280582"><ele>508.99999999999994</ele><time>2026-04-24T09:09:05.013Z</time></trkpt><trkpt lat="43.159534" lon="12.6279642"><ele>509.0</ele><time>2026-04-24T09:09:06.016Z</time></trkpt><trkpt lat="43.1595158" lon="12.6278498"><ele>509.0</ele><time>2026-04-24T09:09:07.022Z</time></trkpt><trkpt lat="43.1594881" lon="12.6277395"><ele>509.0</ele><time>2026-04-24T09:09:08.019Z</time></trkpt><trkpt lat="43.159435" lon="12.6276422"><ele>508.99999999999994</ele><time>2026-04-24T09:09:09.016Z</time></trkpt><trkpt lat="43.1593601" lon="12.6275574"><ele>509.0</ele><time>2026-04-24T09:09:10.02Z</time></trkpt><trkpt lat="43.1592493" lon="12.6274838"><ele>508.75</ele><time>2026-04-24T09:09:11.019Z</time></trkpt><trkpt lat="43.1591379" lon="12.6274284"><ele>508.5</ele><time>2026-04-24T09:09:12.018Z</time></trkpt><trkpt lat="43.1590275" lon="12.6273867"><ele>508.25</ele><time>2026-04-24T09:09:13.01Z</time></trkpt><trkpt lat="43.1589088" lon="12.6273664"><ele>508.0</ele><time>2026-04-24T09:09:14.022Z</time></trkpt><trkpt lat="43.1587822" lon="12.6273533"><ele>508.0</ele><time>2026-04-24T09:09:15.026Z</time></trkpt><trkpt lat="43.1586622" lon="12.6273544"><ele>507.99999999999994</ele><time>2026-04-24T09:09:16.016Z</time></trkpt><trkpt lat="43.1585586" lon="12.6273672"><ele>507.99999999999994</ele><time>2026-04-24T09:09:17.025Z</time></trkpt><trkpt lat="43.1584768" lon="12.627395"><ele>508.0</ele><time>2026-04-24T09:09:17.999Z</time></trkpt><trkpt lat="43.1584016" lon="12.6274437"><ele>508.0</ele><time>2026-04-24T09:09:19.017Z</time></trkpt><trkpt lat="43.1583352" lon="12.627522"><ele>508.0</ele><time>2026-04-24T09:09:20.01Z</time></trkpt><trkpt lat="43.1582498" lon="12.6276277"><ele>508.0</ele><time>2026-04-24T09:09:21.014Z</time></trkpt><trkpt lat="43.1581551" lon="12.627728"><ele>508.0</ele><time>2026-04-24T09:09:22.016Z</time></trkpt><trkpt lat="43.1580408" lon="12.627804"><ele>508.0</ele><time>2026-04-24T09:09:23.021Z</time></trkpt><trkpt lat="43.1579276" lon="12.6278575"><ele>510.0</ele><time>2026-04-24T09:09:24.008Z</time></trkpt><trkpt lat="43.1578239" lon="12.6279074"><ele>511.99999999999994</ele><time>2026-04-24T09:09:25.017Z</time></trkpt><trkpt lat="43.1577225" lon="12.6279551"><ele>514.0</ele><time>2026-04-24T09:09:26.015Z</time></trkpt><trkpt lat="43.1576404" lon="12.6280026"><ele>516.0</ele><time>2026-04-24T09:09:27.02Z</time></trkpt><trkpt lat="43.1575735" lon="12.6280832"><ele>518.0</ele><time>2026-04-24T09:09:28.015Z</time></trkpt><trkpt lat="43.1575078" lon="12.6281811"><ele>518.0</ele><time>2026-04-24T09:09:29.018Z</time></trkpt><trkpt lat="43.1574415" lon="12.6282951"><ele>518.0</ele><time>2026-04-24T09:09:30.009Z</time></trkpt><trkpt lat="43.1573744" lon="12.628413"><ele>518.0</ele><time>2026-04-24T09:09:31.01Z</time></trkpt><trkpt lat="43.157306" lon="12.6285386"><ele>518.0</ele><time>2026-04-24T09:09:32.012Z</time></trkpt><trkpt lat="43.1572276" lon="12.628667"><ele>517.5</ele><time>2026-04-24T09:09:33.021Z</time></trkpt><trkpt lat="43.1571384" lon="12.6287945"><ele>517.0</ele><time>2026-04-24T09:09:34.024Z</time></trkpt><trkpt lat="43.1570456" lon="12.6289028"><ele>516.5</ele><time>2026-04-24T09:09:35.025Z</time></trkpt><trkpt lat="43.1569372" lon="12.6289926"><ele>516.0</ele><time>2026-04-24T09:09:36.017Z</time></trkpt><trkpt lat="43.156828" lon="12.6290546"><ele>516.0</ele><time>2026-04-24T09:09:37.006Z</time></trkpt><trkpt lat="43.1567151" lon="12.6291202"><ele>516.0</ele><time>2026-04-24T09:09:37.999Z</time></trkpt><trkpt lat="43.1566005" lon="12.62918"><ele>516.0</ele><time>2026-04-24T09:09:39.024Z</time></trkpt><trkpt lat="43.1564834" lon="12.6292415"><ele>516.0</ele><time>2026-04-24T09:09:40.016Z</time></trkpt><trkpt lat="43.1563682" lon="12.6293049"><ele>516.25</ele><time>2026-04-24T09:09:41.024Z</time></trkpt><trkpt lat="43.1562452" lon="12.6293868"><ele>516.5</ele><time>2026-04-24T09:09:42.014Z</time></trkpt><trkpt lat="43.1561185" lon="12.6294708"><ele>516.75</ele><time>2026-04-24T09:09:43.01Z</time></trkpt><trkpt lat="43.1560137" lon="12.6295488"><ele>517.0</ele><time>2026-04-24T09:09:44.004Z</time></trkpt><trkpt lat="43.1559166" lon="12.6296022"><ele>517.0</ele><time>2026-04-24T09:09:45.012Z</time></trkpt><trkpt lat="43.1558261" lon="12.6296406"><ele>517.0</ele><time>2026-04-24T09:09:46.005Z</time></trkpt><trkpt lat="43.1557389" lon="12.6296874"><ele>517.0</ele><time>2026-04-24T09:09:47.013Z</time></trkpt><trkpt lat="43.1556451" lon="12.6297503"><ele>517.0</ele><time>2026-04-24T09:09:48.018Z</time></trkpt><trkpt lat="43.1555436" lon="12.629829"><ele>517.0</ele><time>2026-04-24T09:09:49.02Z</time></trkpt><trkpt lat="43.155446" lon="12.6299212"><ele>516.2</ele><time>2026-04-24T09:09:50.029Z</time></trkpt><trkpt lat="43.1553571" lon="12.6299884"><ele>515.4000000000001</ele><time>2026-04-24T09:09:51.031Z</time></trkpt><trkpt lat="43.1552717" lon="12.6300617"><ele>514.5999999999999</ele><time>2026-04-24T09:09:52.025Z</time></trkpt><trkpt lat="43.1551908" lon="12.6301363"><ele>513.8</ele><time>2026-04-24T09:09:53.015Z</time></trkpt><trkpt lat="43.1551122" lon="12.6302223"><ele>513.0</ele><time>2026-04-24T09:09:54.028Z</time></trkpt><trkpt lat="43.1550405" lon="12.6303125"><ele>514.4</ele><time>2026-04-24T09:09:55.005Z</time></trkpt><trkpt lat="43.1549677" lon="12.6303971"><ele>515.8</ele><time>2026-04-24T09:09:56.025Z</time></trkpt><trkpt lat="43.1548982" lon="12.6304741"><ele>517.2</ele><time>2026-04-24T09:09:57.011Z</time></trkpt><trkpt lat="43.1548384" lon="12.6305371"><ele>518.6</ele><time>2026-04-24T09:09:58.03Z</time></trkpt><trkpt lat="43.1547347" lon="12.6306264"><ele>520.0</ele><time>2026-04-24T09:10:00.028Z</time></trkpt><trkpt lat="43.1546258" lon="12.630651"><ele>520.0</ele><time>2026-04-24T09:10:02.006Z</time></trkpt><trkpt lat="43.1545648" lon="12.6306287"><ele>520.0</ele><time>2026-04-24T09:10:04.036Z</time></trkpt><trkpt lat="43.1544884" lon="12.6306897"><ele>520.0</ele><time>2026-04-24T09:10:40.003Z</time></trkpt><trkpt lat="43.1544445" lon="12.6308313"><ele>520.0</ele><time>2026-04-24T09:10:42.013Z</time></trkpt><trkpt lat="43.1544192" lon="12.6309161"><ele>520.0</ele><time>2026-04-24T09:10:43.028Z</time></trkpt><trkpt lat="43.1543855" lon="12.6309993"><ele>520.0</ele><time>2026-04-24T09:10:44.017Z</time></trkpt><trkpt lat="43.1543424" lon="12.6310876"><ele>519.4</ele><time>2026-04-24T09:10:45.031Z</time></trkpt><trkpt lat="43.1542881" lon="12.6311807"><ele>518.8</ele><time>2026-04-24T09:10:45.999Z</time></trkpt><trkpt lat="43.1542222" lon="12.6312925"><ele>518.2</ele><time>2026-04-24T09:10:47.027Z</time></trkpt><trkpt lat="43.1541559" lon="12.6314057"><ele>517.6</ele><time>2026-04-24T09:10:48.021Z</time></trkpt><trkpt lat="43.1540781" lon="12.6315224"><ele>517.0</ele><time>2026-04-24T09:10:49.012Z</time></trkpt><trkpt lat="43.1539807" lon="12.631623"><ele>517.0</ele><time>2026-04-24T09:10:50.03Z</time></trkpt><trkpt lat="43.153889" lon="12.6316979"><ele>517.0</ele><time>2026-04-24T09:10:51.03Z</time></trkpt><trkpt lat="43.1538072" lon="12.6317482"><ele>517.0</ele><time>2026-04-24T09:10:52.007Z</time></trkpt><trkpt lat="43.1537456" lon="12.6318181"><ele>517.0</ele><time>2026-04-24T09:10:53.01Z</time></trkpt><trkpt lat="43.1536731" lon="12.6318871"><ele>517.0</ele><time>2026-04-24T09:10:54.011Z</time></trkpt><trkpt lat="43.1536071" lon="12.6319877"><ele>519.8000000000001</ele><time>2026-04-24T09:10:55.003Z</time></trkpt><trkpt lat="43.1535449" lon="12.6321017"><ele>522.6</ele><time>2026-04-24T09:10:56.01Z</time></trkpt><trkpt lat="43.1535064" lon="12.6322198"><ele>525.4000000000001</ele><time>2026-04-24T09:10:57.023Z</time></trkpt><trkpt lat="43.1534464" lon="12.6323603"><ele>528.2</ele><time>2026-04-24T09:10:58.022Z</time></trkpt><trkpt lat="43.1533853" lon="12.6325127"><ele>531.0</ele><time>2026-04-24T09:10:59.012Z</time></trkpt><trkpt lat="43.1533096" lon="12.6326748"><ele>533.25</ele><time>2026-04-24T09:11:00.015Z</time></trkpt><trkpt lat="43.1532156" lon="12.6328141"><ele>535.5</ele><time>2026-04-24T09:11:01.024Z</time></trkpt><trkpt lat="43.1530959" lon="12.6329267"><ele>537.75</ele><time>2026-04-24T09:11:02.009Z</time></trkpt><trkpt lat="43.152973" lon="12.6330197"><ele>540.0</ele><time>2026-04-24T09:11:03.005Z</time></trkpt><trkpt lat="43.1528501" lon="12.6331109"><ele>540.0</ele><time>2026-04-24T09:11:04.012Z</time></trkpt><trkpt lat="43.1527295" lon="12.6332004"><ele>540.0</ele><time>2026-04-24T09:11:05.024Z</time></trkpt><trkpt lat="43.1525978" lon="12.6332833"><ele>540.0</ele><time>2026-04-24T09:11:06.022Z</time></trkpt><trkpt lat="43.1524515" lon="12.633372"><ele>540.0</ele><time>2026-04-24T09:11:07.025Z</time></trkpt><trkpt lat="43.1522927" lon="12.6334625"><ele>539.25</ele><time>2026-04-24T09:11:08.003Z</time></trkpt><trkpt lat="43.1521429" lon="12.6335427"><ele>538.5</ele><time>2026-04-24T09:11:09.024Z</time></trkpt><trkpt lat="43.1520019" lon="12.6336093"><ele>537.75</ele><time>2026-04-24T09:11:10.024Z</time></trkpt><trkpt lat="43.1518712" lon="12.6336665"><ele>537.0</ele><time>2026-04-24T09:11:11.034Z</time></trkpt><trkpt lat="43.1517431" lon="12.6337193"><ele>537.5</ele><time>2026-04-24T09:11:12.019Z</time></trkpt><trkpt lat="43.1516222" lon="12.6337727"><ele>538.0</ele><time>2026-04-24T09:11:13.021Z</time></trkpt><trkpt lat="43.1515107" lon="12.6338239"><ele>538.5</ele><time>2026-04-24T09:11:14.005Z</time></trkpt><trkpt lat="43.1514082" lon="12.6338647"><ele>539.0</ele><time>2026-04-24T09:11:15.021Z</time></trkpt><trkpt lat="43.1513141" lon="12.6339049"><ele>539.0</ele><time>2026-04-24T09:11:16.027Z</time></trkpt><trkpt lat="43.151241" lon="12.6339655"><ele>539.0</ele><time>2026-04-24T09:11:17.024Z</time></trkpt><trkpt lat="43.1511898" lon="12.6340577"><ele>539.0</ele><time>2026-04-24T09:11:18.01Z</time></trkpt><trkpt lat="43.151164" lon="12.6341531"><ele>539.0</ele><time>2026-04-24T09:11:19.019Z</time></trkpt><trkpt lat="43.1511545" lon="12.6342405"><ele>539.0</ele><time>2026-04-24T09:11:20.022Z</time></trkpt><trkpt lat="43.1511308" lon="12.634321"><ele>539.0</ele><time>2026-04-24T09:11:21.039Z</time></trkpt><trkpt lat="43.1510936" lon="12.6344209"><ele>539.0</ele><time>2026-04-24T09:11:23.036Z</time></trkpt><trkpt lat="43.1510469" lon="12.6345048"><ele>539.0</ele><time>2026-04-24T09:11:26.021Z</time></trkpt><trkpt lat="43.1511218" lon="12.6344592"><ele>539.0</ele><time>2026-04-24T09:12:21.024Z</time></trkpt><trkpt lat="43.1511878" lon="12.634541"><ele>539.0</ele><time>2026-04-24T09:12:24.002Z</time></trkpt><trkpt lat="43.1512594" lon="12.6346632"><ele>539.0</ele><time>2026-04-24T09:12:26.005Z</time></trkpt><trkpt lat="43.1513598" lon="12.6347418"><ele>539.7142857142857</ele><time>2026-04-24T09:12:28.008Z</time></trkpt><trkpt lat="43.1514243" lon="12.63477"><ele>540.4285714285714</ele><time>2026-04-24T09:12:29.015Z</time></trkpt><trkpt lat="43.1514814" lon="12.6348202"><ele>541.1428571428571</ele><time>2026-04-24T09:12:30.011Z</time></trkpt><trkpt lat="43.151521" lon="12.6348938"><ele>541.8571428571429</ele><time>2026-04-24T09:12:31.021Z</time></trkpt><trkpt lat="43.1515363" lon="12.634981"><ele>542.5714285714286</ele><time>2026-04-24T09:12:32.009Z</time></trkpt><trkpt lat="43.1515464" lon="12.6350762"><ele>543.2857142857142</ele><time>2026-04-24T09:12:33.008Z</time></trkpt><trkpt lat="43.1515464" lon="12.6351695"><ele>544.0</ele><time>2026-04-24T09:12:34.012Z</time></trkpt><trkpt lat="43.1515532" lon="12.6352731"><ele>547.3333333333334</ele><time>2026-04-24T09:12:35.017Z</time></trkpt><trkpt lat="43.1515698" lon="12.6353712"><ele>550.6666666666667</ele><time>2026-04-24T09:12:36.01Z</time></trkpt><trkpt lat="43.1516046" lon="12.6354708"><ele>554.0</ele><time>2026-04-24T09:12:37.017Z</time></trkpt><trkpt lat="43.151667" lon="12.6355329"><ele>557.3333333333334</ele><time>2026-04-24T09:12:38.006Z</time></trkpt><trkpt lat="43.1517398" lon="12.6355866"><ele>560.6666666666666</ele><time>2026-04-24T09:12:39.016Z</time></trkpt><trkpt lat="43.1518275" lon="12.6356525"><ele>564.0</ele><time>2026-04-24T09:12:40.013Z</time></trkpt><trkpt lat="43.1519258" lon="12.6357246"><ele>564.0</ele><time>2026-04-24T09:12:41.025Z</time></trkpt><trkpt lat="43.1520284" lon="12.6358114"><ele>564.0</ele><time>2026-04-24T09:12:42.008Z</time></trkpt><trkpt lat="43.1521427" lon="12.6358978"><ele>564.0</ele><time>2026-04-24T09:12:43.019Z</time></trkpt><trkpt lat="43.1522475" lon="12.6359933"><ele>564.0</ele><time>2026-04-24T09:12:44.01Z</time></trkpt><trkpt lat="43.1523449" lon="12.6360815"><ele>565.0</ele><time>2026-04-24T09:12:45.008Z</time></trkpt><trkpt lat="43.1524485" lon="12.6361499"><ele>566.0</ele><time>2026-04-24T09:12:46.015Z</time></trkpt><trkpt lat="43.1525463" lon="12.6361753"><ele>567.0</ele><time>2026-04-24T09:12:47.01Z</time></trkpt><trkpt lat="43.1526463" lon="12.6361662"><ele>568.0</ele><time>2026-04-24T09:12:48.005Z</time></trkpt><trkpt lat="43.1527508" lon="12.6361337"><ele>569.0</ele><time>2026-04-24T09:12:49.009Z</time></trkpt><trkpt lat="43.1528574" lon="12.6360909"><ele>569.0</ele><time>2026-04-24T09:12:50.002Z</time></trkpt><trkpt lat="43.1529572" lon="12.636049"><ele>569.0</ele><time>2026-04-24T09:12:51.02Z</time></trkpt><trkpt lat="43.1530424" lon="12.6360161"><ele>569.0</ele><time>2026-04-24T09:12:52.001Z</time></trkpt><trkpt lat="43.1531155" lon="12.6359916"><ele>569.0</ele><time>2026-04-24T09:12:53.017Z</time></trkpt><trkpt lat="43.1531913" lon="12.6360486"><ele>569.0</ele><time>2026-04-24T09:12:55.017Z</time></trkpt><trkpt lat="43.1531788" lon="12.6361368"><ele>569.0</ele><time>2026-04-24T09:12:57.023Z</time></trkpt><trkpt lat="43.1530788" lon="12.6362592"><ele>571.6</ele><time>2026-04-24T09:12:59.01Z</time></trkpt><trkpt lat="43.1530381" lon="12.6363648"><ele>574.2</ele><time>2026-04-24T09:13:00.022Z</time></trkpt><trkpt lat="43.1530079" lon="12.6365039"><ele>576.8000000000001</ele><time>2026-04-24T09:13:01.009Z</time></trkpt><trkpt lat="43.1529673" lon="12.6366602"><ele>579.4</ele><time>2026-04-24T09:13:02.016Z</time></trkpt><trkpt lat="43.1529196" lon="12.6368153"><ele>582.0</ele><time>2026-04-24T09:13:03.016Z</time></trkpt><trkpt lat="43.1528351" lon="12.6369772"><ele>583.5</ele><time>2026-04-24T09:13:04.009Z</time></trkpt><trkpt lat="43.1527513" lon="12.6371099"><ele>585.0</ele><time>2026-04-24T09:13:05.017Z</time></trkpt><trkpt lat="43.1526717" lon="12.6372409"><ele>586.5</ele><time>2026-04-24T09:13:06.019Z</time></trkpt><trkpt lat="43.1526259" lon="12.6373678"><ele>588.0</ele><time>2026-04-24T09:13:07.036Z</time></trkpt><trkpt lat="43.1525891" lon="12.6375098"><ele>588.0</ele><time>2026-04-24T09:13:08Z</time></trkpt><trkpt lat="43.1525588" lon="12.6376561"><ele>588.0</ele><time>2026-04-24T09:13:09.021Z</time></trkpt><trkpt lat="43.1525313" lon="12.6377922"><ele>588.0</ele><time>2026-04-24T09:13:10.018Z</time></trkpt><trkpt lat="43.152504" lon="12.6379316"><ele>588.0</ele><time>2026-04-24T09:13:11.009Z</time></trkpt><trkpt lat="43.1524803" lon="12.6380674"><ele>588.0</ele><time>2026-04-24T09:13:12.017Z</time></trkpt><trkpt lat="43.1524565" lon="12.6382011"><ele>588.1999999999999</ele><time>2026-04-24T09:13:13.021Z</time></trkpt><trkpt lat="43.1524297" lon="12.6383329"><ele>588.4</ele><time>2026-04-24T09:13:14.03Z</time></trkpt><trkpt lat="43.1523924" lon="12.6384695"><ele>588.5999999999999</ele><time>2026-04-24T09:13:15.022Z</time></trkpt><trkpt lat="43.1523339" lon="12.6386056"><ele>588.8</ele><time>2026-04-24T09:13:16.016Z</time></trkpt><trkpt lat="43.1522734" lon="12.6387396"><ele>589.0</ele><time>2026-04-24T09:13:17.019Z</time></trkpt><trkpt lat="43.1522109" lon="12.6388664"><ele>592.25</ele><time>2026-04-24T09:13:18.018Z</time></trkpt><trkpt lat="43.1521478" lon="12.6389964"><ele>595.5</ele><time>2026-04-24T09:13:19.021Z</time></trkpt><trkpt lat="43.1520914" lon="12.6391436"><ele>598.75</ele><time>2026-04-24T09:13:20.009Z</time></trkpt><trkpt lat="43.1520481" lon="12.6392932"><ele>602.0</ele><time>2026-04-24T09:13:21.026Z</time></trkpt><trkpt lat="43.1520055" lon="12.6394401"><ele>602.4</ele><time>2026-04-24T09:13:22.021Z</time></trkpt><trkpt lat="43.1519526" lon="12.6395732"><ele>602.8000000000001</ele><time>2026-04-24T09:13:23.024Z</time></trkpt><trkpt lat="43.1519" lon="12.6396921"><ele>603.2</ele><time>2026-04-24T09:13:24.023Z</time></trkpt><trkpt lat="43.1518264" lon="12.6397812"><ele>603.6</ele><time>2026-04-24T09:13:25.027Z</time></trkpt><trkpt lat="43.1517535" lon="12.6398584"><ele>604.0</ele><time>2026-04-24T09:13:26.023Z</time></trkpt><trkpt lat="43.1516793" lon="12.6399261"><ele>604.0</ele><time>2026-04-24T09:13:27.007Z</time></trkpt><trkpt lat="43.1515855" lon="12.6400108"><ele>604.0</ele><time>2026-04-24T09:13:28.012Z</time></trkpt><trkpt lat="43.1515026" lon="12.6400972"><ele>604.0</ele><time>2026-04-24T09:13:29.017Z</time></trkpt><trkpt lat="43.1514285" lon="12.6402035"><ele>604.0</ele><time>2026-04-24T09:13:30.019Z</time></trkpt><trkpt lat="43.1513685" lon="12.6403286"><ele>604.0</ele><time>2026-04-24T09:13:31.022Z</time></trkpt><trkpt lat="43.1513204" lon="12.6404575"><ele>603.6</ele><time>2026-04-24T09:13:32.016Z</time></trkpt><trkpt lat="43.1512697" lon="12.6405955"><ele>603.2</ele><time>2026-04-24T09:13:33.022Z</time></trkpt><trkpt lat="43.1512242" lon="12.6407316"><ele>602.8000000000001</ele><time>2026-04-24T09:13:34.013Z</time></trkpt><trkpt lat="43.1511756" lon="12.6408654"><ele>602.4</ele><time>2026-04-24T09:13:35.018Z</time></trkpt><trkpt lat="43.151136" lon="12.6410016"><ele>602.0</ele><time>2026-04-24T09:13:36.008Z</time></trkpt><trkpt lat="43.151118" lon="12.6411365"><ele>602.0</ele><time>2026-04-24T09:13:37.023Z</time></trkpt><trkpt lat="43.1511213" lon="12.6412847"><ele>602.0</ele><time>2026-04-24T09:13:38.015Z</time></trkpt><trkpt lat="43.1511371" lon="12.641435"><ele>602.0</ele><time>2026-04-24T09:13:39.008Z</time></trkpt><trkpt lat="43.1511702" lon="12.6415906"><ele>602.0</ele><time>2026-04-24T09:13:40.023Z</time></trkpt><trkpt lat="43.1512172" lon="12.6417411"><ele>602.0</ele><time>2026-04-24T09:13:41.021Z</time></trkpt><trkpt lat="43.151275" lon="12.6418921"><ele>602.0</ele><time>2026-04-24T09:13:42.024Z</time></trkpt><trkpt lat="43.1513418" lon="12.6420506"><ele>602.0</ele><time>2026-04-24T09:13:43.022Z</time></trkpt><trkpt lat="43.1514013" lon="12.6422064"><ele>602.0</ele><time>2026-04-24T09:13:44.022Z</time></trkpt><trkpt lat="43.1514582" lon="12.6423651"><ele>602.25</ele><time>2026-04-24T09:13:45.022Z</time></trkpt><trkpt lat="43.1515091" lon="12.6425274"><ele>602.5</ele><time>2026-04-24T09:13:46.024Z</time></trkpt><trkpt lat="43.1515624" lon="12.6426904"><ele>602.75</ele><time>2026-04-24T09:13:47.026Z</time></trkpt><trkpt lat="43.1516216" lon="12.6428561"><ele>603.0</ele><time>2026-04-24T09:13:48.016Z</time></trkpt><trkpt lat="43.1516888" lon="12.6430001"><ele>605.6</ele><time>2026-04-24T09:13:49.028Z</time></trkpt><trkpt lat="43.1517616" lon="12.6431199"><ele>608.1999999999999</ele><time>2026-04-24T09:13:50.02Z</time></trkpt><trkpt lat="43.1518446" lon="12.6432107"><ele>610.8</ele><time>2026-04-24T09:13:51.025Z</time></trkpt><trkpt lat="43.1519194" lon="12.6432708"><ele>613.4</ele><time>2026-04-24T09:13:52.035Z</time></trkpt><trkpt lat="43.151984" lon="12.6433293"><ele>616.0</ele><time>2026-04-24T09:13:53.012Z</time></trkpt><trkpt lat="43.1520436" lon="12.6434041"><ele>616.0</ele><time>2026-04-24T09:13:54.022Z</time></trkpt><trkpt lat="43.1520929" lon="12.6435156"><ele>616.0</ele><time>2026-04-24T09:13:55.025Z</time></trkpt><trkpt lat="43.1521262" lon="12.6436585"><ele>616.0</ele><time>2026-04-24T09:13:56.019Z</time></trkpt><trkpt lat="43.1521401" lon="12.6438109"><ele>616.0</ele><time>2026-04-24T09:13:57.019Z</time></trkpt><trkpt lat="43.1521327" lon="12.6439422"><ele>616.0</ele><time>2026-04-24T09:13:58.002Z</time></trkpt><trkpt lat="43.1521242" lon="12.6440672"><ele>615.0</ele><time>2026-04-24T09:13:59.015Z</time></trkpt><trkpt lat="43.1521154" lon="12.6442055"><ele>614.0</ele><time>2026-04-24T09:14:00.014Z</time></trkpt><trkpt lat="43.1521175" lon="12.6443649"><ele>613.0</ele><time>2026-04-24T09:14:01.015Z</time></trkpt><trkpt lat="43.1521481" lon="12.6445297"><ele>612.0</ele><time>2026-04-24T09:14:02.013Z</time></trkpt><trkpt lat="43.1521842" lon="12.6446718"><ele>612.0</ele><time>2026-04-24T09:14:03.012Z</time></trkpt><trkpt lat="43.152234" lon="12.6448313"><ele>612.0</ele><time>2026-04-24T09:14:04.014Z</time></trkpt><trkpt lat="43.1522673" lon="12.6449817"><ele>612.0</ele><time>2026-04-24T09:14:05.013Z</time></trkpt><trkpt lat="43.1522777" lon="12.6451452"><ele>612.0</ele><time>2026-04-24T09:14:06.025Z</time></trkpt><trkpt lat="43.1522638" lon="12.6453117"><ele>612.0</ele><time>2026-04-24T09:14:07.025Z</time></trkpt><trkpt lat="43.1522459" lon="12.6454819"><ele>612.0</ele><time>2026-04-24T09:14:08.02Z</time></trkpt><trkpt lat="43.1522279" lon="12.6456475"><ele>612.0</ele><time>2026-04-24T09:14:09.016Z</time></trkpt><trkpt lat="43.1522071" lon="12.6458127"><ele>612.0</ele><time>2026-04-24T09:14:10.017Z</time></trkpt><trkpt lat="43.1521932" lon="12.6459659"><ele>612.0</ele><time>2026-04-24T09:14:11.029Z</time></trkpt><trkpt lat="43.1521759" lon="12.6461089"><ele>612.0</ele><time>2026-04-24T09:14:12.013Z</time></trkpt><trkpt lat="43.1521621" lon="12.6462449"><ele>612.0</ele><time>2026-04-24T09:14:13.019Z</time></trkpt><trkpt lat="43.1521475" lon="12.6463708"><ele>612.0</ele><time>2026-04-24T09:14:14.012Z</time></trkpt><trkpt lat="43.1521487" lon="12.6464982"><ele>612.0</ele><time>2026-04-24T09:14:15.016Z</time></trkpt><trkpt lat="43.1521638" lon="12.6466158"><ele>612.6666666666666</ele><time>2026-04-24T09:14:16.017Z</time></trkpt><trkpt lat="43.1521874" lon="12.6467234"><ele>613.3333333333334</ele><time>2026-04-24T09:14:17.01Z</time></trkpt><trkpt lat="43.1522092" lon="12.6468142"><ele>614.0</ele><time>2026-04-24T09:14:18.026Z</time></trkpt><trkpt lat="43.1522368" lon="12.6469364"><ele>614.6666666666667</ele><time>2026-04-24T09:14:20.015Z</time></trkpt><trkpt lat="43.1522571" lon="12.6470276"><ele>615.3333333333334</ele><time>2026-04-24T09:14:22.017Z</time></trkpt><trkpt lat="43.1522642" lon="12.647147"><ele>616.0</ele><time>2026-04-24T09:14:24.005Z</time></trkpt><trkpt lat="43.1522282" lon="12.6472781"><ele>617.4</ele><time>2026-04-24T09:14:26.005Z</time></trkpt><trkpt lat="43.1521375" lon="12.6473699"><ele>618.8</ele><time>2026-04-24T09:14:28Z</time></trkpt><trkpt lat="43.1520434" lon="12.6474785"><ele>620.1999999999999</ele><time>2026-04-24T09:14:30.03Z</time></trkpt><trkpt lat="43.1519992" lon="12.6475456"><ele>621.6</ele><time>2026-04-24T09:14:31.02Z</time></trkpt><trkpt lat="43.151946" lon="12.647613"><ele>623.0</ele><time>2026-04-24T09:14:32.015Z</time></trkpt><trkpt lat="43.1518806" lon="12.6476802"><ele>623.0</ele><time>2026-04-24T09:14:33.022Z</time></trkpt><trkpt lat="43.151802" lon="12.6477468"><ele>623.0</ele><time>2026-04-24T09:14:34.012Z</time></trkpt><trkpt lat="43.1517209" lon="12.6478118"><ele>623.0</ele><time>2026-04-24T09:14:35Z</time></trkpt><trkpt lat="43.1516365" lon="12.6478788"><ele>623.0</ele><time>2026-04-24T09:14:36.017Z</time></trkpt><trkpt lat="43.1515454" lon="12.6479512"><ele>623.0</ele><time>2026-04-24T09:14:37.014Z</time></trkpt><trkpt lat="43.151456" lon="12.648019"><ele>624.6</ele><time>2026-04-24T09:14:38.018Z</time></trkpt><trkpt lat="43.1513687" lon="12.6480913"><ele>626.1999999999999</ele><time>2026-04-24T09:14:39.015Z</time></trkpt><trkpt lat="43.1513025" lon="12.6481848"><ele>627.8</ele><time>2026-04-24T09:14:40.023Z</time></trkpt><trkpt lat="43.1512568" lon="12.6483038"><ele>629.4</ele><time>2026-04-24T09:14:41.022Z</time></trkpt><trkpt lat="43.1512235" lon="12.6484273"><ele>631.0</ele><time>2026-04-24T09:14:42.018Z</time></trkpt><trkpt lat="43.1512035" lon="12.6485424"><ele>630.8333333333334</ele><time>2026-04-24T09:14:43.018Z</time></trkpt><trkpt lat="43.1511843" lon="12.6486419"><ele>630.6666666666667</ele><time>2026-04-24T09:14:44.021Z</time></trkpt><trkpt lat="43.1511859" lon="12.6487437"><ele>630.5</ele><time>2026-04-24T09:14:45.024Z</time></trkpt><trkpt lat="43.1512206" lon="12.6488348"><ele>630.3333333333334</ele><time>2026-04-24T09:14:46.025Z</time></trkpt><trkpt lat="43.1512954" lon="12.6489104"><ele>630.1666666666666</ele><time>2026-04-24T09:14:47.018Z</time></trkpt><trkpt lat="43.1513779" lon="12.6489527"><ele>630.0</ele><time>2026-04-24T09:14:48.015Z</time></trkpt><trkpt lat="43.1514665" lon="12.6490023"><ele>631.6</ele><time>2026-04-24T09:14:49.023Z</time></trkpt><trkpt lat="43.1515646" lon="12.6490689"><ele>633.2</ele><time>2026-04-24T09:14:50.026Z</time></trkpt><trkpt lat="43.1516575" lon="12.6491312"><ele>634.8</ele><time>2026-04-24T09:14:51.035Z</time></trkpt><trkpt lat="43.1517546" lon="12.6491897"><ele>636.4</ele><time>2026-04-24T09:14:52.009Z</time></trkpt><trkpt lat="43.1518632" lon="12.6492512"><ele>638.0</ele><time>2026-04-24T09:14:53.002Z</time></trkpt><trkpt lat="43.1519829" lon="12.6493208"><ele>638.0</ele><time>2026-04-24T09:14:54.028Z</time></trkpt><trkpt lat="43.1521158" lon="12.6494029"><ele>638.0</ele><time>2026-04-24T09:14:55.026Z</time></trkpt><trkpt lat="43.152254" lon="12.6494937"><ele>638.0</ele><time>2026-04-24T09:14:56.02Z</time></trkpt><trkpt lat="43.1523993" lon="12.6495866"><ele>641.5</ele><time>2026-04-24T09:14:57.025Z</time></trkpt><trkpt lat="43.1525356" lon="12.6496798"><ele>645.0</ele><time>2026-04-24T09:14:58.02Z</time></trkpt><trkpt lat="43.1526552" lon="12.6497716"><ele>648.5</ele><time>2026-04-24T09:14:59.031Z</time></trkpt><trkpt lat="43.1527571" lon="12.6498639"><ele>652.0</ele><time>2026-04-24T09:15:00.022Z</time></trkpt><trkpt lat="43.1528329" lon="12.6499773"><ele>652.0</ele><time>2026-04-24T09:15:01.027Z</time></trkpt><trkpt lat="43.1528971" lon="12.6501077"><ele>652.0</ele><time>2026-04-24T09:15:02.019Z</time></trkpt><trkpt lat="43.1529508" lon="12.6502571"><ele>652.0</ele><time>2026-04-24T09:15:03.008Z</time></trkpt><trkpt lat="43.1529901" lon="12.6504261"><ele>652.0</ele><time>2026-04-24T09:15:04.015Z</time></trkpt><trkpt lat="43.153013" lon="12.6505901"><ele>654.0</ele><time>2026-04-24T09:15:05.01Z</time></trkpt><trkpt lat="43.1530172" lon="12.650764"><ele>656.0</ele><time>2026-04-24T09:15:06.021Z</time></trkpt><trkpt lat="43.1530187" lon="12.6509453"><ele>658.0</ele><time>2026-04-24T09:15:07.021Z</time></trkpt><trkpt lat="43.1530296" lon="12.6511262"><ele>660.0</ele><time>2026-04-24T09:15:08.017Z</time></trkpt><trkpt lat="43.1530577" lon="12.6512996"><ele>661.2</ele><time>2026-04-24T09:15:09.038Z</time></trkpt><trkpt lat="43.1530801" lon="12.6514683"><ele>662.4</ele><time>2026-04-24T09:15:10.015Z</time></trkpt><trkpt lat="43.1530917" lon="12.6516233"><ele>663.5999999999999</ele><time>2026-04-24T09:15:11.029Z</time></trkpt><trkpt lat="43.1530883" lon="12.6517642"><ele>664.8</ele><time>2026-04-24T09:15:12.015Z</time></trkpt><trkpt lat="43.1530792" lon="12.6519066"><ele>666.0</ele><time>2026-04-24T09:15:13.011Z</time></trkpt><trkpt lat="43.1530806" lon="12.6520711"><ele>666.0</ele><time>2026-04-24T09:15:14.014Z</time></trkpt><trkpt lat="43.1530903" lon="12.6522515"><ele>666.0</ele><time>2026-04-24T09:15:15.02Z</time></trkpt><trkpt lat="43.1531075" lon="12.652446"><ele>666.0</ele><time>2026-04-24T09:15:16.023Z</time></trkpt><trkpt lat="43.1531255" lon="12.6526511"><ele>666.0</ele><time>2026-04-24T09:15:17.041Z</time></trkpt><trkpt lat="43.1531482" lon="12.6528543"><ele>665.3333333333334</ele><time>2026-04-24T09:15:18.008Z</time></trkpt><trkpt lat="43.1531758" lon="12.6530732"><ele>664.6666666666667</ele><time>2026-04-24T09:15:19.016Z</time></trkpt><trkpt lat="43.1532142" lon="12.653298"><ele>664.0</ele><time>2026-04-24T09:15:20.018Z</time></trkpt><trkpt lat="43.1532686" lon="12.6535276"><ele>670.3333333333334</ele><time>2026-04-24T09:15:21.021Z</time></trkpt><trkpt lat="43.1533248" lon="12.6537468"><ele>676.6666666666666</ele><time>2026-04-24T09:15:22.004Z</time></trkpt><trkpt lat="43.1533819" lon="12.6539417"><ele>683.0</ele><time>2026-04-24T09:15:23.026Z</time></trkpt><trkpt lat="43.1534372" lon="12.6541311"><ele>683.0</ele><time>2026-04-24T09:15:24.015Z</time></trkpt><trkpt lat="43.1534929" lon="12.6543194"><ele>683.0</ele><time>2026-04-24T09:15:25.015Z</time></trkpt><trkpt lat="43.1535441" lon="12.6545147"><ele>683.0</ele><time>2026-04-24T09:15:26.02Z</time></trkpt><trkpt lat="43.1536009" lon="12.6547044"><ele>683.0</ele><time>2026-04-24T09:15:27.015Z</time></trkpt><trkpt lat="43.1536731" lon="12.6548793"><ele>680.75</ele><time>2026-04-24T09:15:28.005Z</time></trkpt><trkpt lat="43.1537562" lon="12.6550451"><ele>678.5</ele><time>2026-04-24T09:15:29.03Z</time></trkpt><trkpt lat="43.1538399" lon="12.6551935"><ele>676.25</ele><time>2026-04-24T09:15:30.022Z</time></trkpt><trkpt lat="43.1539056" lon="12.6553447"><ele>674.0</ele><time>2026-04-24T09:15:31.02Z</time></trkpt><trkpt lat="43.1539505" lon="12.6555141"><ele>671.5</ele><time>2026-04-24T09:15:32.028Z</time></trkpt><trkpt lat="43.1539792" lon="12.6556908"><ele>669.0</ele><time>2026-04-24T09:15:33.017Z</time></trkpt><trkpt lat="43.154003" lon="12.6558716"><ele>666.5</ele><time>2026-04-24T09:15:34.024Z</time></trkpt><trkpt lat="43.1540176" lon="12.6560467"><ele>664.0</ele><time>2026-04-24T09:15:35.017Z</time></trkpt><trkpt lat="43.1540166" lon="12.6562148"><ele>663.25</ele><time>2026-04-24T09:15:36.01Z</time></trkpt><trkpt lat="43.1540136" lon="12.6563883"><ele>662.5</ele><time>2026-04-24T09:15:37.012Z</time></trkpt><trkpt lat="43.1540162" lon="12.6565506"><ele>661.75</ele><time>2026-04-24T09:15:38.01Z</time></trkpt><trkpt lat="43.1540268" lon="12.6567138"><ele>661.0</ele><time>2026-04-24T09:15:39.013Z</time></trkpt><trkpt lat="43.1540419" lon="12.6568921"><ele>666.25</ele><time>2026-04-24T09:15:40.009Z</time></trkpt><trkpt lat="43.1540639" lon="12.6570692"><ele>671.5</ele><time>2026-04-24T09:15:41.023Z</time></trkpt><trkpt lat="43.1540866" lon="12.6572547"><ele>676.75</ele><time>2026-04-24T09:15:42.002Z</time></trkpt><trkpt lat="43.1541154" lon="12.6574303"><ele>682.0</ele><time>2026-04-24T09:15:43.003Z</time></trkpt><trkpt lat="43.1541459" lon="12.6575976"><ele>682.0</ele><time>2026-04-24T09:15:44.017Z</time></trkpt><trkpt lat="43.1541798" lon="12.6577703"><ele>682.0</ele><time>2026-04-24T09:15:45.006Z</time></trkpt><trkpt lat="43.1542173" lon="12.6579379"><ele>682.0</ele><time>2026-04-24T09:15:46.012Z</time></trkpt><trkpt lat="43.1542607" lon="12.6581076"><ele>682.0</ele><time>2026-04-24T09:15:47.028Z</time></trkpt><trkpt lat="43.1543157" lon="12.6582752"><ele>681.5</ele><time>2026-04-24T09:15:48.017Z</time></trkpt><trkpt lat="43.1543812" lon="12.6584306"><ele>681.0</ele><time>2026-04-24T09:15:49.02Z</time></trkpt><trkpt lat="43.1544508" lon="12.6585836"><ele>680.5</ele><time>2026-04-24T09:15:50.015Z</time></trkpt><trkpt lat="43.1545102" lon="12.6587418"><ele>680.0</ele><time>2026-04-24T09:15:51.029Z</time></trkpt><trkpt lat="43.1545391" lon="12.6589044"><ele>680.0</ele><time>2026-04-24T09:15:52.02Z</time></trkpt><trkpt lat="43.1545403" lon="12.6590908"><ele>680.0</ele><time>2026-04-24T09:15:53.006Z</time></trkpt><trkpt lat="43.1545337" lon="12.6592911"><ele>680.0</ele><time>2026-04-24T09:15:54.016Z</time></trkpt><trkpt lat="43.1545348" lon="12.6594847"><ele>680.0</ele><time>2026-04-24T09:15:55.037Z</time></trkpt><trkpt lat="43.1545431" lon="12.6596744"><ele>679.75</ele><time>2026-04-24T09:15:56.023Z</time></trkpt><trkpt lat="43.1545511" lon="12.6598478"><ele>679.5</ele><time>2026-04-24T09:15:57.008Z</time></trkpt><trkpt lat="43.1545367" lon="12.6599989"><ele>679.25</ele><time>2026-04-24T09:15:58.022Z</time></trkpt><trkpt lat="43.1544972" lon="12.6601374"><ele>679.0</ele><time>2026-04-24T09:15:59.023Z</time></trkpt><trkpt lat="43.1544548" lon="12.6602958"><ele>677.25</ele><time>2026-04-24T09:16:00.026Z</time></trkpt><trkpt lat="43.1544419" lon="12.6604711"><ele>675.5</ele><time>2026-04-24T09:16:01.026Z</time></trkpt><trkpt lat="43.154462" lon="12.6606496"><ele>673.75</ele><time>2026-04-24T09:16:02.025Z</time></trkpt><trkpt lat="43.1545107" lon="12.6608282"><ele>672.0</ele><time>2026-04-24T09:16:03.007Z</time></trkpt><trkpt lat="43.1545671" lon="12.6609958"><ele>670.75</ele><time>2026-04-24T09:16:04.011Z</time></trkpt><trkpt lat="43.1546019" lon="12.6611747"><ele>669.5</ele><time>2026-04-24T09:16:05.024Z</time></trkpt><trkpt lat="43.1546247" lon="12.6613585"><ele>668.25</ele><time>2026-04-24T09:16:06.027Z</time></trkpt><trkpt lat="43.1546406" lon="12.6615593"><ele>667.0</ele><time>2026-04-24T09:16:07.011Z</time></trkpt><trkpt lat="43.1546498" lon="12.6617511"><ele>667.0</ele><time>2026-04-24T09:16:08.013Z</time></trkpt><trkpt lat="43.1546581" lon="12.6619349"><ele>667.0</ele><time>2026-04-24T09:16:09.029Z</time></trkpt><trkpt lat="43.1546441" lon="12.6620985"><ele>667.0</ele><time>2026-04-24T09:16:10.012Z</time></trkpt><trkpt lat="43.1546107" lon="12.662243"><ele>667.0</ele><time>2026-04-24T09:16:11.021Z</time></trkpt><trkpt lat="43.1545913" lon="12.6623651"><ele>667.0</ele><time>2026-04-24T09:16:12.028Z</time></trkpt><trkpt lat="43.1545897" lon="12.6624897"><ele>667.0</ele><time>2026-04-24T09:16:13.019Z</time></trkpt><trkpt lat="43.1546124" lon="12.6626047"><ele>667.0</ele><time>2026-04-24T09:16:14.019Z</time></trkpt><trkpt lat="43.1546613" lon="12.6626938"><ele>667.0</ele><time>2026-04-24T09:16:15.033Z</time></trkpt><trkpt lat="43.1547381" lon="12.6627712"><ele>667.0</ele><time>2026-04-24T09:16:16.024Z</time></trkpt><trkpt lat="43.1548088" lon="12.6628441"><ele>667.0</ele><time>2026-04-24T09:16:17.01Z</time></trkpt><trkpt lat="43.1548685" lon="12.6629331"><ele>667.5</ele><time>2026-04-24T09:16:18.013Z</time></trkpt><trkpt lat="43.154915" lon="12.6630379"><ele>668.0</ele><time>2026-04-24T09:16:19.025Z</time></trkpt><trkpt lat="43.1549528" lon="12.6631374"><ele>668.5</ele><time>2026-04-24T09:16:20.005Z</time></trkpt><trkpt lat="43.1549896" lon="12.6632418"><ele>669.0</ele><time>2026-04-24T09:16:21.022Z</time></trkpt><trkpt lat="43.1550331" lon="12.6633548"><ele>669.5</ele><time>2026-04-24T09:16:22.027Z</time></trkpt><trkpt lat="43.155087" lon="12.6634659"><ele>670.0</ele><time>2026-04-24T09:16:23.021Z</time></trkpt><trkpt lat="43.1551484" lon="12.6635864"><ele>669.0</ele><time>2026-04-24T09:16:24.022Z</time></trkpt><trkpt lat="43.15521" lon="12.6637048"><ele>668.0</ele><time>2026-04-24T09:16:25.025Z</time></trkpt><trkpt lat="43.155284" lon="12.6638375"><ele>667.0</ele><time>2026-04-24T09:16:26.003Z</time></trkpt><trkpt lat="43.1553535" lon="12.6639769"><ele>666.0</ele><time>2026-04-24T09:16:27.003Z</time></trkpt><trkpt lat="43.155419" lon="12.6641229"><ele>666.0</ele><time>2026-04-24T09:16:28.02Z</time></trkpt><trkpt lat="43.1554755" lon="12.664268"><ele>666.0</ele><time>2026-04-24T09:16:29.033Z</time></trkpt><trkpt lat="43.1555368" lon="12.6644146"><ele>666.0</ele><time>2026-04-24T09:16:30.006Z</time></trkpt><trkpt lat="43.1555973" lon="12.6645645"><ele>666.0</ele><time>2026-04-24T09:16:31.002Z</time></trkpt><trkpt lat="43.1556595" lon="12.6647254"><ele>667.0</ele><time>2026-04-24T09:16:32.018Z</time></trkpt><trkpt lat="43.1557176" lon="12.6648948"><ele>668.0</ele><time>2026-04-24T09:16:33.021Z</time></trkpt><trkpt lat="43.1557737" lon="12.6650689"><ele>669.0</ele><time>2026-04-24T09:16:34.004Z</time></trkpt><trkpt lat="43.1558282" lon="12.6652494"><ele>670.0</ele><time>2026-04-24T09:16:35.029Z</time></trkpt><trkpt lat="43.1558843" lon="12.6654315"><ele>670.0</ele><time>2026-04-24T09:16:36.017Z</time></trkpt><trkpt lat="43.1559399" lon="12.6656156"><ele>670.0</ele><time>2026-04-24T09:16:37.013Z</time></trkpt><trkpt lat="43.156" lon="12.665805"><ele>670.0</ele><time>2026-04-24T09:16:38.02Z</time></trkpt><trkpt lat="43.1560505" lon="12.6659982"><ele>670.0</ele><time>2026-04-24T09:16:39.007Z</time></trkpt><trkpt lat="43.1560997" lon="12.6661891"><ele>668.75</ele><time>2026-04-24T09:16:40.015Z</time></trkpt><trkpt lat="43.1561493" lon="12.6663846"><ele>667.5</ele><time>2026-04-24T09:16:41.022Z</time></trkpt><trkpt lat="43.1561917" lon="12.666569"><ele>666.25</ele><time>2026-04-24T09:16:42.026Z</time></trkpt><trkpt lat="43.1562297" lon="12.6667395"><ele>665.0</ele><time>2026-04-24T09:16:43.03Z</time></trkpt><trkpt lat="43.1562721" lon="12.6669047"><ele>663.25</ele><time>2026-04-24T09:16:44.023Z</time></trkpt><trkpt lat="43.1563273" lon="12.6670747"><ele>661.5</ele><time>2026-04-24T09:16:45.023Z</time></trkpt><trkpt lat="43.1564001" lon="12.6672397"><ele>659.75</ele><time>2026-04-24T09:16:46.027Z</time></trkpt><trkpt lat="43.1564769" lon="12.667404"><ele>658.0</ele><time>2026-04-24T09:16:47.015Z</time></trkpt><trkpt lat="43.1565687" lon="12.66756"><ele>661.0</ele><time>2026-04-24T09:16:48.012Z</time></trkpt><trkpt lat="43.1566733" lon="12.6677028"><ele>664.0</ele><time>2026-04-24T09:16:49.025Z</time></trkpt><trkpt lat="43.1567713" lon="12.6678252"><ele>667.0</ele><time>2026-04-24T09:16:50.025Z</time></trkpt><trkpt lat="43.1568687" lon="12.6679443"><ele>670.0</ele><time>2026-04-24T09:16:51.025Z</time></trkpt><trkpt lat="43.1569585" lon="12.6680555"><ele>670.0</ele><time>2026-04-24T09:16:52.024Z</time></trkpt><trkpt lat="43.1570589" lon="12.6681526"><ele>670.0</ele><time>2026-04-24T09:16:53.019Z</time></trkpt><trkpt lat="43.157167" lon="12.6682409"><ele>670.0</ele><time>2026-04-24T09:16:54.024Z</time></trkpt><trkpt lat="43.1572825" lon="12.6683194"><ele>670.0</ele><time>2026-04-24T09:16:55.023Z</time></trkpt><trkpt lat="43.1574097" lon="12.6683802"><ele>671.5</ele><time>2026-04-24T09:16:56.028Z</time></trkpt><trkpt lat="43.1575316" lon="12.6684382"><ele>673.0</ele><time>2026-04-24T09:16:57.016Z</time></trkpt><trkpt lat="43.157632" lon="12.6685223"><ele>674.5</ele><time>2026-04-24T09:16:58.023Z</time></trkpt><trkpt lat="43.1576967" lon="12.6686358"><ele>676.0</ele><time>2026-04-24T09:16:59.022Z</time></trkpt><trkpt lat="43.1577423" lon="12.6687574"><ele>676.0</ele><time>2026-04-24T09:17:00.009Z</time></trkpt><trkpt lat="43.1577797" lon="12.66889"><ele>676.0</ele><time>2026-04-24T09:17:01.02Z</time></trkpt><trkpt lat="43.1578263" lon="12.6690351"><ele>676.0</ele><time>2026-04-24T09:17:01.996Z</time></trkpt><trkpt lat="43.1578863" lon="12.6691765"><ele>676.0</ele><time>2026-04-24T09:17:03.011Z</time></trkpt><trkpt lat="43.1579553" lon="12.6693113"><ele>676.0</ele><time>2026-04-24T09:17:04.006Z</time></trkpt><trkpt lat="43.1580335" lon="12.6694345"><ele>676.0</ele><time>2026-04-24T09:17:05.02Z</time></trkpt><trkpt lat="43.1580817" lon="12.6695642"><ele>676.0</ele><time>2026-04-24T09:17:06.018Z</time></trkpt><trkpt lat="43.1580967" lon="12.6697241"><ele>676.0</ele><time>2026-04-24T09:17:07.008Z</time></trkpt><trkpt lat="43.1580787" lon="12.6698723"><ele>677.0</ele><time>2026-04-24T09:17:08.017Z</time></trkpt><trkpt lat="43.1580324" lon="12.6700115"><ele>678.0</ele><time>2026-04-24T09:17:09.015Z</time></trkpt><trkpt lat="43.1579635" lon="12.6701462"><ele>679.0</ele><time>2026-04-24T09:17:10.003Z</time></trkpt><trkpt lat="43.1578882" lon="12.6702922"><ele>680.0</ele><time>2026-04-24T09:17:11.017Z</time></trkpt><trkpt lat="43.1578187" lon="12.6704546"><ele>681.5</ele><time>2026-04-24T09:17:12.021Z</time></trkpt><trkpt lat="43.1577752" lon="12.6706126"><ele>683.0</ele><time>2026-04-24T09:17:13.022Z</time></trkpt><trkpt lat="43.1577515" lon="12.6707698"><ele>684.5</ele><time>2026-04-24T09:17:14.016Z</time></trkpt><trkpt lat="43.1577477" lon="12.6709245"><ele>686.0</ele><time>2026-04-24T09:17:15.031Z</time></trkpt><trkpt lat="43.1577727" lon="12.6710888"><ele>687.5</ele><time>2026-04-24T09:17:16.021Z</time></trkpt><trkpt lat="43.1577875" lon="12.6712741"><ele>689.0</ele><time>2026-04-24T09:17:17.02Z</time></trkpt><trkpt lat="43.157776" lon="12.6714468"><ele>690.5</ele><time>2026-04-24T09:17:18.013Z</time></trkpt><trkpt lat="43.1577165" lon="12.6716158"><ele>692.0</ele><time>2026-04-24T09:17:19.024Z</time></trkpt><trkpt lat="43.1576543" lon="12.6717761"><ele>692.0</ele><time>2026-04-24T09:17:20.012Z</time></trkpt><trkpt lat="43.1576109" lon="12.6719317"><ele>692.0</ele><time>2026-04-24T09:17:21.017Z</time></trkpt><trkpt lat="43.1576009" lon="12.6720905"><ele>692.0</ele><time>2026-04-24T09:17:22.013Z</time></trkpt><trkpt lat="43.1576019" lon="12.6722422"><ele>692.0</ele><time>2026-04-24T09:17:23.016Z</time></trkpt><trkpt lat="43.1576125" lon="12.6723882"><ele>693.0</ele><time>2026-04-24T09:17:24.016Z</time></trkpt><trkpt lat="43.1576273" lon="12.6725314"><ele>694.0</ele><time>2026-04-24T09:17:25.031Z</time></trkpt><trkpt lat="43.1576191" lon="12.6726757"><ele>695.0</ele><time>2026-04-24T09:17:26.023Z</time></trkpt><trkpt lat="43.1575729" lon="12.6728048"><ele>696.0</ele><time>2026-04-24T09:17:27.018Z</time></trkpt><trkpt lat="43.1575006" lon="12.6729319"><ele>697.0</ele><time>2026-04-24T09:17:28.008Z</time></trkpt><trkpt lat="43.1574324" lon="12.6730305"><ele>695.0</ele><time>2026-04-24T09:17:29.012Z</time></trkpt><trkpt lat="43.1573668" lon="12.6731358"><ele>693.0</ele><time>2026-04-24T09:17:30.026Z</time></trkpt><trkpt lat="43.1573262" lon="12.673265"><ele>691.0</ele><time>2026-04-24T09:17:31.015Z</time></trkpt><trkpt lat="43.1573053" lon="12.6733969"><ele>689.0</ele><time>2026-04-24T09:17:32.023Z</time></trkpt><trkpt lat="43.1572844" lon="12.6735297"><ele>687.0</ele><time>2026-04-24T09:17:33.03Z</time></trkpt><trkpt lat="43.1572716" lon="12.6736737"><ele>687.0</ele><time>2026-04-24T09:17:34.016Z</time></trkpt><trkpt lat="43.1572644" lon="12.6738143"><ele>687.0</ele><time>2026-04-24T09:17:35.028Z</time></trkpt><trkpt lat="43.1572819" lon="12.6739545"><ele>687.0</ele><time>2026-04-24T09:17:36.027Z</time></trkpt><trkpt lat="43.157317" lon="12.6740857"><ele>687.0</ele><time>2026-04-24T09:17:37.018Z</time></trkpt><trkpt lat="43.1573611" lon="12.674205"><ele>687.0</ele><time>2026-04-24T09:17:38.008Z</time></trkpt><trkpt lat="43.1574076" lon="12.674328"><ele>693.8</ele><time>2026-04-24T09:17:39.029Z</time></trkpt><trkpt lat="43.1574549" lon="12.67445"><ele>700.6</ele><time>2026-04-24T09:17:40.025Z</time></trkpt><trkpt lat="43.1574869" lon="12.674577"><ele>707.4</ele><time>2026-04-24T09:17:41.023Z</time></trkpt><trkpt lat="43.1575061" lon="12.6747176"><ele>714.1999999999999</ele><time>2026-04-24T09:17:42.009Z</time></trkpt><trkpt lat="43.1575111" lon="12.6748407"><ele>721.0</ele><time>2026-04-24T09:17:43.016Z</time></trkpt><trkpt lat="43.1574934" lon="12.6749591"><ele>721.0</ele><time>2026-04-24T09:17:44.002Z</time></trkpt><trkpt lat="43.1574729" lon="12.6750867"><ele>721.0</ele><time>2026-04-24T09:17:45.026Z</time></trkpt><trkpt lat="43.1574432" lon="12.6752087"><ele>721.0</ele><time>2026-04-24T09:17:46.001Z</time></trkpt><trkpt lat="43.157408" lon="12.6753174"><ele>721.0</ele><time>2026-04-24T09:17:47.008Z</time></trkpt><trkpt lat="43.1573816" lon="12.6753979"><ele>721.0</ele><time>2026-04-24T09:17:48.013Z</time></trkpt><trkpt lat="43.1573556" lon="12.6754905"><ele>721.0</ele><time>2026-04-24T09:17:49.019Z</time></trkpt><trkpt lat="43.157323" lon="12.675644"><ele>719.8333333333334</ele><time>2026-04-24T09:17:51.029Z</time></trkpt><trkpt lat="43.1573031" lon="12.6757459"><ele>718.6666666666667</ele><time>2026-04-24T09:17:52.009Z</time></trkpt><trkpt lat="43.1572931" lon="12.6758516"><ele>717.5</ele><time>2026-04-24T09:17:53.023Z</time></trkpt><trkpt lat="43.1572648" lon="12.6759485"><ele>716.3333333333334</ele><time>2026-04-24T09:17:54.029Z</time></trkpt><trkpt lat="43.1572244" lon="12.6760378"><ele>715.1666666666666</ele><time>2026-04-24T09:17:55.014Z</time></trkpt><trkpt lat="43.1571751" lon="12.6761191"><ele>714.0</ele><time>2026-04-24T09:17:56.014Z</time></trkpt><trkpt lat="43.1571205" lon="12.676208"><ele>717.0</ele><time>2026-04-24T09:17:57.005Z</time></trkpt><trkpt lat="43.1570599" lon="12.6763172"><ele>720.0</ele><time>2026-04-24T09:17:58.017Z</time></trkpt><trkpt lat="43.1570022" lon="12.6764292"><ele>723.0</ele><time>2026-04-24T09:17:59.026Z</time></trkpt><trkpt lat="43.1569391" lon="12.6765507"><ele>726.0</ele><time>2026-04-24T09:18:00.017Z</time></trkpt><trkpt lat="43.1568869" lon="12.6766654"><ele>729.0</ele><time>2026-04-24T09:18:01.009Z</time></trkpt><trkpt lat="43.1568312" lon="12.6767781"><ele>729.0</ele><time>2026-04-24T09:18:02Z</time></trkpt><trkpt lat="43.156785" lon="12.6768837"><ele>729.0</ele><time>2026-04-24T09:18:03.006Z</time></trkpt><trkpt lat="43.1567482" lon="12.6769982"><ele>729.0</ele><time>2026-04-24T09:18:04.015Z</time></trkpt><trkpt lat="43.156722" lon="12.677109"><ele>729.0</ele><time>2026-04-24T09:18:05.024Z</time></trkpt><trkpt lat="43.156706" lon="12.6772154"><ele>729.0</ele><time>2026-04-24T09:18:06.016Z</time></trkpt><trkpt lat="43.1566893" lon="12.6773021"><ele>729.0</ele><time>2026-04-24T09:18:07.009Z</time></trkpt><trkpt lat="43.15667" lon="12.6773992"><ele>729.3333333333334</ele><time>2026-04-24T09:18:09.027Z</time></trkpt><trkpt lat="43.1566461" lon="12.6774926"><ele>729.6666666666666</ele><time>2026-04-24T09:18:14.017Z</time></trkpt><trkpt lat="43.156607" lon="12.6775625"><ele>730.0</ele><time>2026-04-24T09:18:18.016Z</time></trkpt><trkpt lat="43.1565105" lon="12.6775744"><ele>730.3333333333333</ele><time>2026-04-24T09:24:50.038Z</time></trkpt><trkpt lat="43.1564469" lon="12.6775743"><ele>730.6666666666666</ele><time>2026-04-24T09:24:51.046Z</time></trkpt><trkpt lat="43.1563737" lon="12.6775851"><ele>731.0</ele><time>2026-04-24T09:24:52.049Z</time></trkpt><trkpt lat="43.1562941" lon="12.6775929"><ele>731.0</ele><time>2026-04-24T09:24:53.05Z</time></trkpt><trkpt lat="43.1562113" lon="12.6776005"><ele>731.0</ele><time>2026-04-24T09:24:54.05Z</time></trkpt><trkpt lat="43.1561271" lon="12.6776104"><ele>731.0</ele><time>2026-04-24T09:24:55.033Z</time></trkpt><trkpt lat="43.1560393" lon="12.6776378"><ele>731.0</ele><time>2026-04-24T09:24:56.038Z</time></trkpt><trkpt lat="43.1559593" lon="12.6776841"><ele>731.0</ele><time>2026-04-24T09:24:57.048Z</time></trkpt><trkpt lat="43.1558848" lon="12.6777568"><ele>731.0</ele><time>2026-04-24T09:24:58.043Z</time></trkpt><trkpt lat="43.1558086" lon="12.6778346"><ele>730.6666666666666</ele><time>2026-04-24T09:24:59.034Z</time></trkpt><trkpt lat="43.1557435" lon="12.677913"><ele>730.3333333333333</ele><time>2026-04-24T09:25:00.038Z</time></trkpt><trkpt lat="43.1556915" lon="12.6780019"><ele>730.0</ele><time>2026-04-24T09:25:01.006Z</time></trkpt><trkpt lat="43.1556445" lon="12.6780998"><ele>729.6666666666666</ele><time>2026-04-24T09:25:02.043Z</time></trkpt><trkpt lat="43.1555992" lon="12.6781997"><ele>729.3333333333334</ele><time>2026-04-24T09:25:03.054Z</time></trkpt><trkpt lat="43.1555524" lon="12.6782787"><ele>729.0</ele><time>2026-04-24T09:25:04.009Z</time></trkpt><trkpt lat="43.1554958" lon="12.6783418"><ele>729.6666666666666</ele><time>2026-04-24T09:25:05.038Z</time></trkpt><trkpt lat="43.155436" lon="12.678404"><ele>730.3333333333334</ele><time>2026-04-24T09:25:06.019Z</time></trkpt><trkpt lat="43.1553792" lon="12.6784509"><ele>731.0</ele><time>2026-04-24T09:25:07.04Z</time></trkpt><trkpt lat="43.1553147" lon="12.6784931"><ele>731.6666666666667</ele><time>2026-04-24T09:25:08.045Z</time></trkpt><trkpt lat="43.1552361" lon="12.6785257"><ele>732.3333333333334</ele><time>2026-04-24T09:25:09.027Z</time></trkpt><trkpt lat="43.1551409" lon="12.6785459"><ele>733.0</ele><time>2026-04-24T09:25:10.034Z</time></trkpt><trkpt lat="43.1550359" lon="12.6785495"><ele>733.0</ele><time>2026-04-24T09:25:11.052Z</time></trkpt><trkpt lat="43.1549245" lon="12.6785559"><ele>733.0</ele><time>2026-04-24T09:25:12.031Z</time></trkpt><trkpt lat="43.1547958" lon="12.678576"><ele>733.0</ele><time>2026-04-24T09:25:13.034Z</time></trkpt><trkpt lat="43.1546707" lon="12.6786316"><ele>733.0</ele><time>2026-04-24T09:25:14.039Z</time></trkpt><trkpt lat="43.1545537" lon="12.6787133"><ele>734.75</ele><time>2026-04-24T09:25:15.037Z</time></trkpt><trkpt lat="43.1544482" lon="12.6787884"><ele>736.5</ele><time>2026-04-24T09:25:16.033Z</time></trkpt><trkpt lat="43.154337" lon="12.6788583"><ele>738.25</ele><time>2026-04-24T09:25:17.039Z</time></trkpt><trkpt lat="43.1542315" lon="12.6789321"><ele>740.0</ele><time>2026-04-24T09:25:18.036Z</time></trkpt><trkpt lat="43.1541395" lon="12.6790251"><ele>740.0</ele><time>2026-04-24T09:25:19.024Z</time></trkpt><trkpt lat="43.1540636" lon="12.6791218"><ele>740.0</ele><time>2026-04-24T09:25:20.015Z</time></trkpt><trkpt lat="43.154003" lon="12.679234"><ele>740.0</ele><time>2026-04-24T09:25:21.03Z</time></trkpt><trkpt lat="43.1539315" lon="12.6793638"><ele>740.0</ele><time>2026-04-24T09:25:22.044Z</time></trkpt><trkpt lat="43.1538323" lon="12.6794902"><ele>737.3333333333333</ele><time>2026-04-24T09:25:23.04Z</time></trkpt><trkpt lat="43.153719" lon="12.6795967"><ele>734.6666666666666</ele><time>2026-04-24T09:25:24.036Z</time></trkpt><trkpt lat="43.1535871" lon="12.6797135"><ele>732.0</ele><time>2026-04-24T09:25:25.037Z</time></trkpt><trkpt lat="43.1534513" lon="12.679824"><ele>732.0</ele><time>2026-04-24T09:25:26.033Z</time></trkpt><trkpt lat="43.1533281" lon="12.6799294"><ele>732.0</ele><time>2026-04-24T09:25:27.038Z</time></trkpt><trkpt lat="43.1532004" lon="12.6800293"><ele>732.0</ele><time>2026-04-24T09:25:28.033Z</time></trkpt><trkpt lat="43.1530696" lon="12.6801253"><ele>732.0</ele><time>2026-04-24T09:25:29.04Z</time></trkpt><trkpt lat="43.1529404" lon="12.6802374"><ele>729.3333333333334</ele><time>2026-04-24T09:25:30.044Z</time></trkpt><trkpt lat="43.1528171" lon="12.6803875"><ele>726.6666666666667</ele><time>2026-04-24T09:25:31.05Z</time></trkpt><trkpt lat="43.1527106" lon="12.6805357"><ele>724.0</ele><time>2026-04-24T09:25:32.039Z</time></trkpt><trkpt lat="43.1526139" lon="12.6806828"><ele>724.0</ele><time>2026-04-24T09:25:33.045Z</time></trkpt><trkpt lat="43.1525111" lon="12.6808161"><ele>724.0</ele><time>2026-04-24T09:25:34.045Z</time></trkpt><trkpt lat="43.1523996" lon="12.6809215"><ele>724.0</ele><time>2026-04-24T09:25:35.044Z</time></trkpt><trkpt lat="43.1522769" lon="12.6809952"><ele>724.0</ele><time>2026-04-24T09:25:36.04Z</time></trkpt><trkpt lat="43.152138" lon="12.6810405"><ele>723.0</ele><time>2026-04-24T09:25:37.048Z</time></trkpt><trkpt lat="43.1519861" lon="12.6810825"><ele>722.0</ele><time>2026-04-24T09:25:38.012Z</time></trkpt><trkpt lat="43.1518168" lon="12.6811163"><ele>721.0</ele><time>2026-04-24T09:25:39.041Z</time></trkpt><trkpt lat="43.1516327" lon="12.6811548"><ele>724.6666666666667</ele><time>2026-04-24T09:25:40.042Z</time></trkpt><trkpt lat="43.151448" lon="12.6811877"><ele>728.3333333333334</ele><time>2026-04-24T09:25:41.039Z</time></trkpt><trkpt lat="43.1512681" lon="12.6812222"><ele>732.0</ele><time>2026-04-24T09:25:42.04Z</time></trkpt><trkpt lat="43.1511097" lon="12.6812587"><ele>732.0</ele><time>2026-04-24T09:25:43.05Z</time></trkpt><trkpt lat="43.1509692" lon="12.6812975"><ele>732.0</ele><time>2026-04-24T09:25:44.031Z</time></trkpt><trkpt lat="43.1508248" lon="12.6813377"><ele>732.0</ele><time>2026-04-24T09:25:45.045Z</time></trkpt><trkpt lat="43.1506721" lon="12.68138"><ele>732.0</ele><time>2026-04-24T09:25:46.044Z</time></trkpt><trkpt lat="43.1505255" lon="12.6814224"><ele>730.0</ele><time>2026-04-24T09:25:47.036Z</time></trkpt><trkpt lat="43.1503771" lon="12.6814505"><ele>728.0</ele><time>2026-04-24T09:25:48.042Z</time></trkpt><trkpt lat="43.1502179" lon="12.6814566"><ele>726.0</ele><time>2026-04-24T09:25:49.037Z</time></trkpt><trkpt lat="43.1500562" lon="12.6814598"><ele>726.0</ele><time>2026-04-24T09:25:50.04Z</time></trkpt><trkpt lat="43.1498956" lon="12.681475"><ele>726.0</ele><time>2026-04-24T09:25:51.025Z</time></trkpt><trkpt lat="43.1497439" lon="12.6814932"><ele>726.0</ele><time>2026-04-24T09:25:52.039Z</time></trkpt><trkpt lat="43.1495974" lon="12.6814991"><ele>723.75</ele><time>2026-04-24T09:25:53.044Z</time></trkpt><trkpt lat="43.1494595" lon="12.6815205"><ele>721.5</ele><time>2026-04-24T09:25:54.041Z</time></trkpt><trkpt lat="43.1493268" lon="12.6815592"><ele>719.25</ele><time>2026-04-24T09:25:55.014Z</time></trkpt><trkpt lat="43.1491973" lon="12.6816143"><ele>717.0</ele><time>2026-04-24T09:25:56.039Z</time></trkpt><trkpt lat="43.1490622" lon="12.6816586"><ele>713.25</ele><time>2026-04-24T09:25:57.03Z</time></trkpt><trkpt lat="43.1489264" lon="12.6817136"><ele>709.5</ele><time>2026-04-24T09:25:58.016Z</time></trkpt><trkpt lat="43.1487877" lon="12.6817767"><ele>705.75</ele><time>2026-04-24T09:25:59.062Z</time></trkpt><trkpt lat="43.1486445" lon="12.6818156"><ele>702.0</ele><time>2026-04-24T09:26:00.027Z</time></trkpt><trkpt lat="43.1484966" lon="12.6818477"><ele>702.0</ele><time>2026-04-24T09:26:01.035Z</time></trkpt><trkpt lat="43.1483709" lon="12.6818764"><ele>702.0</ele><time>2026-04-24T09:26:02.045Z</time></trkpt><trkpt lat="43.1482485" lon="12.6819302"><ele>702.0</ele><time>2026-04-24T09:26:03.038Z</time></trkpt><trkpt lat="43.1481276" lon="12.6820145"><ele>702.0</ele><time>2026-04-24T09:26:04.007Z</time></trkpt><trkpt lat="43.1479976" lon="12.6820935"><ele>704.0</ele><time>2026-04-24T09:26:05.021Z</time></trkpt><trkpt lat="43.1478716" lon="12.6821716"><ele>706.0</ele><time>2026-04-24T09:26:06.038Z</time></trkpt><trkpt lat="43.1477615" lon="12.6822447"><ele>708.0</ele><time>2026-04-24T09:26:07.04Z</time></trkpt><trkpt lat="43.1476592" lon="12.6823238"><ele>710.0</ele><time>2026-04-24T09:26:08.036Z</time></trkpt><trkpt lat="43.1475665" lon="12.6824122"><ele>710.0</ele><time>2026-04-24T09:26:09.04Z</time></trkpt><trkpt lat="43.1474794" lon="12.6825089"><ele>710.0</ele><time>2026-04-24T09:26:10.034Z</time></trkpt><trkpt lat="43.1473949" lon="12.6826174"><ele>710.0</ele><time>2026-04-24T09:26:11.041Z</time></trkpt><trkpt lat="43.1473299" lon="12.6827371"><ele>710.0</ele><time>2026-04-24T09:26:12.037Z</time></trkpt><trkpt lat="43.1472732" lon="12.6828607"><ele>710.0</ele><time>2026-04-24T09:26:13.038Z</time></trkpt><trkpt lat="43.1472454" lon="12.6830034"><ele>711.0</ele><time>2026-04-24T09:26:14.032Z</time></trkpt><trkpt lat="43.1472151" lon="12.6831592"><ele>712.0</ele><time>2026-04-24T09:26:15.042Z</time></trkpt><trkpt lat="43.147183" lon="12.6833258"><ele>713.0</ele><time>2026-04-24T09:26:16.022Z</time></trkpt><trkpt lat="43.1471476" lon="12.6834997"><ele>714.0</ele><time>2026-04-24T09:26:17.044Z</time></trkpt><trkpt lat="43.1470922" lon="12.6836645"><ele>714.0</ele><time>2026-04-24T09:26:18.031Z</time></trkpt><trkpt lat="43.1470106" lon="12.6838075"><ele>714.0</ele><time>2026-04-24T09:26:19.04Z</time></trkpt><trkpt lat="43.1469006" lon="12.683916"><ele>714.0</ele><time>2026-04-24T09:26:20.026Z</time></trkpt><trkpt lat="43.1467982" lon="12.6839943"><ele>714.0</ele><time>2026-04-24T09:26:21.032Z</time></trkpt><trkpt lat="43.1466892" lon="12.6840815"><ele>714.0</ele><time>2026-04-24T09:26:22.019Z</time></trkpt><trkpt lat="43.1465958" lon="12.6842041"><ele>714.0</ele><time>2026-04-24T09:26:23.039Z</time></trkpt><trkpt lat="43.1465017" lon="12.6843117"><ele>714.0</ele><time>2026-04-24T09:26:24.04Z</time></trkpt><trkpt lat="43.1464064" lon="12.6843578"><ele>714.0</ele><time>2026-04-24T09:26:25.047Z</time></trkpt><trkpt lat="43.1462951" lon="12.6843192"><ele>713.5</ele><time>2026-04-24T09:26:26.029Z</time></trkpt><trkpt lat="43.146201" lon="12.6842133"><ele>713.0</ele><time>2026-04-24T09:26:27.032Z</time></trkpt><trkpt lat="43.1461036" lon="12.684085"><ele>712.5</ele><time>2026-04-24T09:26:28.03Z</time></trkpt><trkpt lat="43.1459839" lon="12.6840032"><ele>712.0</ele><time>2026-04-24T09:26:29.033Z</time></trkpt><trkpt lat="43.1458407" lon="12.6839703"><ele>712.0</ele><time>2026-04-24T09:26:30.015Z</time></trkpt><trkpt lat="43.1457133" lon="12.6839509"><ele>712.0</ele><time>2026-04-24T09:26:31.03Z</time></trkpt><trkpt lat="43.1455836" lon="12.6839671"><ele>712.0</ele><time>2026-04-24T09:26:32.008Z</time></trkpt><trkpt lat="43.1454631" lon="12.683998"><ele>712.0</ele><time>2026-04-24T09:26:33.035Z</time></trkpt><trkpt lat="43.1453558" lon="12.6840301"><ele>712.8</ele><time>2026-04-24T09:26:34.028Z</time></trkpt><trkpt lat="43.1452614" lon="12.6840621"><ele>713.6</ele><time>2026-04-24T09:26:35.01Z</time></trkpt><trkpt lat="43.1451735" lon="12.6840871"><ele>714.4</ele><time>2026-04-24T09:26:36.025Z</time></trkpt><trkpt lat="43.1450581" lon="12.6841004"><ele>715.1999999999999</ele><time>2026-04-24T09:26:37.022Z</time></trkpt><trkpt lat="43.1449677" lon="12.6840864"><ele>716.0</ele><time>2026-04-24T09:26:38.006Z</time></trkpt><trkpt lat="43.1448678" lon="12.6840579"><ele>721.25</ele><time>2026-04-24T09:26:39.028Z</time></trkpt><trkpt lat="43.144766" lon="12.6839719"><ele>726.5</ele><time>2026-04-24T09:26:40.035Z</time></trkpt><trkpt lat="43.1446689" lon="12.6838828"><ele>731.75</ele><time>2026-04-24T09:26:41.036Z</time></trkpt><trkpt lat="43.144571" lon="12.6837866"><ele>737.0</ele><time>2026-04-24T09:26:42.037Z</time></trkpt><trkpt lat="43.1444771" lon="12.6836962"><ele>733.75</ele><time>2026-04-24T09:26:43.042Z</time></trkpt><trkpt lat="43.1443748" lon="12.6835905"><ele>730.5</ele><time>2026-04-24T09:26:44.035Z</time></trkpt><trkpt lat="43.1442862" lon="12.6834726"><ele>727.25</ele><time>2026-04-24T09:26:45.034Z</time></trkpt><trkpt lat="43.1442186" lon="12.6833432"><ele>724.0</ele><time>2026-04-24T09:26:46.029Z</time></trkpt><trkpt lat="43.1441841" lon="12.6832163"><ele>724.0</ele><time>2026-04-24T09:26:47.036Z</time></trkpt><trkpt lat="43.1441702" lon="12.6830731"><ele>724.0</ele><time>2026-04-24T09:26:48.032Z</time></trkpt><trkpt lat="43.1441787" lon="12.6829236"><ele>724.0</ele><time>2026-04-24T09:26:49.038Z</time></trkpt><trkpt lat="43.1441825" lon="12.6827786"><ele>724.0</ele><time>2026-04-24T09:26:50.036Z</time></trkpt><trkpt lat="43.1441675" lon="12.6826363"><ele>724.0</ele><time>2026-04-24T09:26:51.043Z</time></trkpt><trkpt lat="43.1441244" lon="12.682491"><ele>723.6</ele><time>2026-04-24T09:26:52.032Z</time></trkpt><trkpt lat="43.1440616" lon="12.6823531"><ele>723.2</ele><time>2026-04-24T09:26:53.039Z</time></trkpt><trkpt lat="43.1439894" lon="12.682255"><ele>722.8000000000001</ele><time>2026-04-24T09:26:54.036Z</time></trkpt><trkpt lat="43.1438956" lon="12.682194"><ele>722.4000000000001</ele><time>2026-04-24T09:26:55.048Z</time></trkpt><trkpt lat="43.1437992" lon="12.6821806"><ele>722.0</ele><time>2026-04-24T09:26:56.048Z</time></trkpt><trkpt lat="43.1437036" lon="12.6822004"><ele>723.6</ele><time>2026-04-24T09:26:57.044Z</time></trkpt><trkpt lat="43.1436221" lon="12.6822658"><ele>725.2</ele><time>2026-04-24T09:26:58.039Z</time></trkpt><trkpt lat="43.1435439" lon="12.6823504"><ele>726.8</ele><time>2026-04-24T09:26:59.031Z</time></trkpt><trkpt lat="43.1434613" lon="12.6824509"><ele>728.4</ele><time>2026-04-24T09:27:00.036Z</time></trkpt><trkpt lat="43.1433675" lon="12.6825601"><ele>730.0</ele><time>2026-04-24T09:27:01.043Z</time></trkpt><trkpt lat="43.1432657" lon="12.6826658"><ele>730.5</ele><time>2026-04-24T09:27:02.041Z</time></trkpt><trkpt lat="43.1431474" lon="12.6827313"><ele>731.0</ele><time>2026-04-24T09:27:03.041Z</time></trkpt><trkpt lat="43.143017" lon="12.6827423"><ele>731.5</ele><time>2026-04-24T09:27:04.004Z</time></trkpt><trkpt lat="43.1428754" lon="12.6827568"><ele>732.0</ele><time>2026-04-24T09:27:05.031Z</time></trkpt><trkpt lat="43.1427198" lon="12.6827643"><ele>737.3333333333334</ele><time>2026-04-24T09:27:06.029Z</time></trkpt><trkpt lat="43.1425514" lon="12.6827734"><ele>742.6666666666667</ele><time>2026-04-24T09:27:07.044Z</time></trkpt><trkpt lat="43.1423794" lon="12.6827828"><ele>748.0</ele><time>2026-04-24T09:27:08.036Z</time></trkpt><trkpt lat="43.1422299" lon="12.6827911"><ele>749.25</ele><time>2026-04-24T09:27:09.037Z</time></trkpt><trkpt lat="43.1420875" lon="12.6828046"><ele>750.5</ele><time>2026-04-24T09:27:10.032Z</time></trkpt><trkpt lat="43.1419448" lon="12.6828202"><ele>751.75</ele><time>2026-04-24T09:27:11.033Z</time></trkpt><trkpt lat="43.1418097" lon="12.6828835"><ele>753.0</ele><time>2026-04-24T09:27:12.048Z</time></trkpt><trkpt lat="43.1416885" lon="12.6829649"><ele>753.0</ele><time>2026-04-24T09:27:13Z</time></trkpt><trkpt lat="43.1415754" lon="12.6830283"><ele>753.0</ele><time>2026-04-24T09:27:14.029Z</time></trkpt><trkpt lat="43.1414649" lon="12.6830434"><ele>753.0</ele><time>2026-04-24T09:27:15.038Z</time></trkpt><trkpt lat="43.1413646" lon="12.6830079"><ele>753.0</ele><time>2026-04-24T09:27:15.993Z</time></trkpt><trkpt lat="43.1412756" lon="12.6829125"><ele>754.25</ele><time>2026-04-24T09:27:17.043Z</time></trkpt><trkpt lat="43.1412054" lon="12.6827892"><ele>755.5</ele><time>2026-04-24T09:27:18.031Z</time></trkpt><trkpt lat="43.1411223" lon="12.6826412"><ele>756.75</ele><time>2026-04-24T09:27:19.028Z</time></trkpt><trkpt lat="43.1410413" lon="12.6824954"><ele>758.0</ele><time>2026-04-24T09:27:20.025Z</time></trkpt><trkpt lat="43.1409431" lon="12.682364"><ele>758.0</ele><time>2026-04-24T09:27:21.033Z</time></trkpt><trkpt lat="43.1408518" lon="12.6822482"><ele>758.0</ele><time>2026-04-24T09:27:22.039Z</time></trkpt><trkpt lat="43.1407628" lon="12.6821378"><ele>758.0</ele><time>2026-04-24T09:27:23.037Z</time></trkpt><trkpt lat="43.1406767" lon="12.6820332"><ele>758.0</ele><time>2026-04-24T09:27:24.046Z</time></trkpt><trkpt lat="43.1405944" lon="12.6819464"><ele>756.0</ele><time>2026-04-24T09:27:25.039Z</time></trkpt><trkpt lat="43.1405066" lon="12.681895"><ele>754.0</ele><time>2026-04-24T09:27:26.038Z</time></trkpt><trkpt lat="43.1404068" lon="12.6818883"><ele>752.0</ele><time>2026-04-24T09:27:27.009Z</time></trkpt><trkpt lat="43.1403173" lon="12.6819035"><ele>750.0</ele><time>2026-04-24T09:27:28.047Z</time></trkpt><trkpt lat="43.1402503" lon="12.6819384"><ele>748.0</ele><time>2026-04-24T09:27:29.031Z</time></trkpt><trkpt lat="43.1401772" lon="12.6819963"><ele>746.0</ele><time>2026-04-24T09:27:31.04Z</time></trkpt><trkpt lat="43.1402008" lon="12.6821025"><ele>750.8</ele><time>2026-04-24T09:27:35.038Z</time></trkpt><trkpt lat="43.1402706" lon="12.6821163"><ele>755.5999999999999</ele><time>2026-04-24T09:27:36.032Z</time></trkpt><trkpt lat="43.140343" lon="12.6821285"><ele>760.4</ele><time>2026-04-24T09:27:37.028Z</time></trkpt><trkpt lat="43.1404304" lon="12.6821529"><ele>765.2</ele><time>2026-04-24T09:27:38.045Z</time></trkpt><trkpt lat="43.1405222" lon="12.6822259"><ele>770.0</ele><time>2026-04-24T09:27:39.009Z</time></trkpt><trkpt lat="43.1406141" lon="12.6823256"><ele>770.0</ele><time>2026-04-24T09:27:40.003Z</time></trkpt><trkpt lat="43.1406902" lon="12.6824658"><ele>770.0</ele><time>2026-04-24T09:27:41.012Z</time></trkpt><trkpt lat="43.140764" lon="12.6826221"><ele>770.0</ele><time>2026-04-24T09:27:42.021Z</time></trkpt><trkpt lat="43.1408427" lon="12.68279"><ele>770.0</ele><time>2026-04-24T09:27:43.011Z</time></trkpt><trkpt lat="43.1409323" lon="12.6829342"><ele>772.6666666666667</ele><time>2026-04-24T09:27:44.01Z</time></trkpt><trkpt lat="43.141007" lon="12.6831018"><ele>775.3333333333333</ele><time>2026-04-24T09:27:45.012Z</time></trkpt><trkpt lat="43.1410664" lon="12.6832936"><ele>778.0</ele><time>2026-04-24T09:27:46.005Z</time></trkpt><trkpt lat="43.1411246" lon="12.6834905"><ele>782.25</ele><time>2026-04-24T09:27:47.007Z</time></trkpt><trkpt lat="43.1411846" lon="12.6836796"><ele>786.5</ele><time>2026-04-24T09:27:48.01Z</time></trkpt><trkpt lat="43.1412675" lon="12.6838462"><ele>790.75</ele><time>2026-04-24T09:27:49.006Z</time></trkpt><trkpt lat="43.1413729" lon="12.6839758"><ele>795.0</ele><time>2026-04-24T09:27:50.016Z</time></trkpt><trkpt lat="43.1414876" lon="12.6840923"><ele>787.0</ele><time>2026-04-24T09:27:51.011Z</time></trkpt><trkpt lat="43.1416195" lon="12.6841855"><ele>779.0</ele><time>2026-04-24T09:27:52Z</time></trkpt><trkpt lat="43.1417686" lon="12.6842688"><ele>771.0</ele><time>2026-04-24T09:27:53.017Z</time></trkpt><trkpt lat="43.1419306" lon="12.684356"><ele>773.0</ele><time>2026-04-24T09:27:54.02Z</time></trkpt><trkpt lat="43.1421029" lon="12.6844524"><ele>775.0</ele><time>2026-04-24T09:27:55.022Z</time></trkpt><trkpt lat="43.1422745" lon="12.6845532"><ele>777.0</ele><time>2026-04-24T09:27:56.01Z</time></trkpt><trkpt lat="43.142445" lon="12.6846543"><ele>777.0</ele><time>2026-04-24T09:27:57.012Z</time></trkpt><trkpt lat="43.1426075" lon="12.6847456"><ele>777.0</ele><time>2026-04-24T09:27:58.033Z</time></trkpt><trkpt lat="43.1427664" lon="12.6848063"><ele>777.0</ele><time>2026-04-24T09:27:58.997Z</time></trkpt><trkpt lat="43.1429299" lon="12.6848495"><ele>777.0</ele><time>2026-04-24T09:28:00.036Z</time></trkpt><trkpt lat="43.1430845" lon="12.684867"><ele>777.0</ele><time>2026-04-24T09:28:00.998Z</time></trkpt><trkpt lat="43.1432394" lon="12.6848766"><ele>777.0</ele><time>2026-04-24T09:28:02.038Z</time></trkpt><trkpt lat="43.1433807" lon="12.6849057"><ele>776.5</ele><time>2026-04-24T09:28:02.998Z</time></trkpt><trkpt lat="43.1434993" lon="12.6849702"><ele>776.0</ele><time>2026-04-24T09:28:04.001Z</time></trkpt><trkpt lat="43.1435856" lon="12.6850804"><ele>775.5</ele><time>2026-04-24T09:28:05.007Z</time></trkpt><trkpt lat="43.1436396" lon="12.6852152"><ele>775.0</ele><time>2026-04-24T09:28:06.034Z</time></trkpt><trkpt lat="43.1436696" lon="12.6853611"><ele>779.5</ele><time>2026-04-24T09:28:06.998Z</time></trkpt><trkpt lat="43.1436839" lon="12.6855315"><ele>784.0</ele><time>2026-04-24T09:28:08.03Z</time></trkpt><trkpt lat="43.1437008" lon="12.6857087"><ele>788.5</ele><time>2026-04-24T09:28:09.044Z</time></trkpt><trkpt lat="43.1437273" lon="12.685883"><ele>793.0</ele><time>2026-04-24T09:28:10.001Z</time></trkpt><trkpt lat="43.1437727" lon="12.6860644"><ele>790.0</ele><time>2026-04-24T09:28:11.026Z</time></trkpt><trkpt lat="43.1438351" lon="12.6862414"><ele>787.0</ele><time>2026-04-24T09:28:12.021Z</time></trkpt><trkpt lat="43.1439136" lon="12.6864225"><ele>784.0</ele><time>2026-04-24T09:28:13.004Z</time></trkpt><trkpt lat="43.1439966" lon="12.6865938"><ele>781.0</ele><time>2026-04-24T09:28:14.037Z</time></trkpt><trkpt lat="43.1440883" lon="12.6867545"><ele>781.0</ele><time>2026-04-24T09:28:15.028Z</time></trkpt><trkpt lat="43.1441717" lon="12.6869048"><ele>781.0</ele><time>2026-04-24T09:28:16.023Z</time></trkpt><trkpt lat="43.1442401" lon="12.6870444"><ele>781.0</ele><time>2026-04-24T09:28:17.027Z</time></trkpt><trkpt lat="43.1443047" lon="12.6871745"><ele>781.0</ele><time>2026-04-24T09:28:18.03Z</time></trkpt><trkpt lat="43.144368" lon="12.6872941"><ele>783.1999999999999</ele><time>2026-04-24T09:28:19.037Z</time></trkpt><trkpt lat="43.1444256" lon="12.6874034"><ele>785.4</ele><time>2026-04-24T09:28:20.036Z</time></trkpt><trkpt lat="43.1444802" lon="12.6875124"><ele>787.6</ele><time>2026-04-24T09:28:21.036Z</time></trkpt><trkpt lat="43.1445303" lon="12.6876214"><ele>789.8</ele><time>2026-04-24T09:28:22.028Z</time></trkpt><trkpt lat="43.1445768" lon="12.6877402"><ele>792.0</ele><time>2026-04-24T09:28:23.051Z</time></trkpt><trkpt lat="43.144625" lon="12.6878567"><ele>792.75</ele><time>2026-04-24T09:28:24.041Z</time></trkpt><trkpt lat="43.1446725" lon="12.6879882"><ele>793.5</ele><time>2026-04-24T09:28:25.036Z</time></trkpt><trkpt lat="43.1447245" lon="12.6881306"><ele>794.25</ele><time>2026-04-24T09:28:26.035Z</time></trkpt><trkpt lat="43.1447689" lon="12.688272"><ele>795.0</ele><time>2026-04-24T09:28:27.031Z</time></trkpt><trkpt lat="43.144811" lon="12.6884241"><ele>795.0</ele><time>2026-04-24T09:28:28.04Z</time></trkpt><trkpt lat="43.1448429" lon="12.6885684"><ele>795.0</ele><time>2026-04-24T09:28:29.044Z</time></trkpt><trkpt lat="43.1448646" lon="12.688703"><ele>795.0</ele><time>2026-04-24T09:28:30.036Z</time></trkpt><trkpt lat="43.1448872" lon="12.6888122"><ele>795.0</ele><time>2026-04-24T09:28:31.041Z</time></trkpt><trkpt lat="43.1449015" lon="12.6888994"><ele>795.0</ele><time>2026-04-24T09:28:32.012Z</time></trkpt><trkpt lat="43.1449068" lon="12.6890327"><ele>794.6666666666666</ele><time>2026-04-24T09:28:34.042Z</time></trkpt><trkpt lat="43.1448313" lon="12.6891053"><ele>794.3333333333333</ele><time>2026-04-24T09:28:37.006Z</time></trkpt><trkpt lat="43.1447632" lon="12.6891187"><ele>794.0</ele><time>2026-04-24T09:28:39.037Z</time></trkpt><trkpt lat="43.1447013" lon="12.6891626"><ele>793.6666666666666</ele><time>2026-04-24T09:28:41.027Z</time></trkpt><trkpt lat="43.1446338" lon="12.6892407"><ele>793.3333333333333</ele><time>2026-04-24T09:28:43.031Z</time></trkpt><trkpt lat="43.1445849" lon="12.689308"><ele>793.0</ele><time>2026-04-24T09:28:44.047Z</time></trkpt><trkpt lat="43.1445224" lon="12.6893931"><ele>791.8</ele><time>2026-04-24T09:28:45.02Z</time></trkpt><trkpt lat="43.1444566" lon="12.6894898"><ele>790.5999999999999</ele><time>2026-04-24T09:28:46.038Z</time></trkpt><trkpt lat="43.1443877" lon="12.6895927"><ele>789.4000000000001</ele><time>2026-04-24T09:28:47.021Z</time></trkpt><trkpt lat="43.1443194" lon="12.6897215"><ele>788.2</ele><time>2026-04-24T09:28:48.038Z</time></trkpt><trkpt lat="43.1442485" lon="12.6898413"><ele>787.0</ele><time>2026-04-24T09:28:49.05Z</time></trkpt><trkpt lat="43.1441678" lon="12.689967"><ele>787.0</ele><time>2026-04-24T09:28:50.042Z</time></trkpt><trkpt lat="43.1440819" lon="12.6900761"><ele>787.0</ele><time>2026-04-24T09:28:51.041Z</time></trkpt><trkpt lat="43.143991" lon="12.6901702"><ele>787.0</ele><time>2026-04-24T09:28:52.042Z</time></trkpt><trkpt lat="43.1438864" lon="12.6902446"><ele>787.0</ele><time>2026-04-24T09:28:53.042Z</time></trkpt><trkpt lat="43.1437851" lon="12.690316"><ele>787.75</ele><time>2026-04-24T09:28:54.046Z</time></trkpt><trkpt lat="43.1436838" lon="12.6904036"><ele>788.5</ele><time>2026-04-24T09:28:55.044Z</time></trkpt><trkpt lat="43.1435965" lon="12.6904973"><ele>789.25</ele><time>2026-04-24T09:28:56.014Z</time></trkpt><trkpt lat="43.1435135" lon="12.6906131"><ele>790.0</ele><time>2026-04-24T09:28:57.033Z</time></trkpt><trkpt lat="43.143453" lon="12.6907354"><ele>790.0</ele><time>2026-04-24T09:28:58.047Z</time></trkpt><trkpt lat="43.1434063" lon="12.690868"><ele>790.0</ele><time>2026-04-24T09:28:59.044Z</time></trkpt><trkpt lat="43.143359" lon="12.6910067"><ele>790.0</ele><time>2026-04-24T09:29:00.038Z</time></trkpt><trkpt lat="43.1433069" lon="12.6911216"><ele>790.0</ele><time>2026-04-24T09:29:01.039Z</time></trkpt><trkpt lat="43.1432428" lon="12.6912247"><ele>790.0</ele><time>2026-04-24T09:29:02.029Z</time></trkpt><trkpt lat="43.1431775" lon="12.6912966"><ele>788.0</ele><time>2026-04-24T09:29:03.048Z</time></trkpt><trkpt lat="43.1431073" lon="12.6913301"><ele>786.0</ele><time>2026-04-24T09:29:04.002Z</time></trkpt><trkpt lat="43.1429778" lon="12.6912997"><ele>784.0</ele><time>2026-04-24T09:29:06.041Z</time></trkpt><trkpt lat="43.1429126" lon="12.6912319"><ele>782.0</ele><time>2026-04-24T09:29:07.041Z</time></trkpt><trkpt lat="43.1428384" lon="12.6911709"><ele>780.0</ele><time>2026-04-24T09:29:08.038Z</time></trkpt><trkpt lat="43.142751" lon="12.6911036"><ele>779.6666666666666</ele><time>2026-04-24T09:29:09.045Z</time></trkpt><trkpt lat="43.1426713" lon="12.6910568"><ele>779.3333333333333</ele><time>2026-04-24T09:29:10.041Z</time></trkpt><trkpt lat="43.1425996" lon="12.6910194"><ele>779.0</ele><time>2026-04-24T09:29:11.049Z</time></trkpt><trkpt lat="43.1425362" lon="12.6909865"><ele>778.6666666666666</ele><time>2026-04-24T09:29:12.027Z</time></trkpt><trkpt lat="43.1424749" lon="12.6909381"><ele>778.3333333333333</ele><time>2026-04-24T09:29:13.029Z</time></trkpt><trkpt lat="43.1424125" lon="12.6908745"><ele>778.0</ele><time>2026-04-24T09:29:14.041Z</time></trkpt><trkpt lat="43.1423596" lon="12.6908009"><ele>778.0</ele><time>2026-04-24T09:29:15.042Z</time></trkpt><trkpt lat="43.1422992" lon="12.6907271"><ele>778.0</ele><time>2026-04-24T09:29:16.031Z</time></trkpt><trkpt lat="43.1422412" lon="12.6906361"><ele>778.0</ele><time>2026-04-24T09:29:17.035Z</time></trkpt><trkpt lat="43.1421864" lon="12.6905426"><ele>778.0</ele><time>2026-04-24T09:29:18.025Z</time></trkpt><trkpt lat="43.1421229" lon="12.6904436"><ele>778.0</ele><time>2026-04-24T09:29:19.037Z</time></trkpt><trkpt lat="43.142041" lon="12.6903511"><ele>778.0</ele><time>2026-04-24T09:29:20.041Z</time></trkpt><trkpt lat="43.1419433" lon="12.6902677"><ele>778.0</ele><time>2026-04-24T09:29:21.051Z</time></trkpt><trkpt lat="43.1418322" lon="12.6901986"><ele>778.0</ele><time>2026-04-24T09:29:22.016Z</time></trkpt><trkpt lat="43.1417096" lon="12.6901525"><ele>778.0</ele><time>2026-04-24T09:29:23.034Z</time></trkpt><trkpt lat="43.1415814" lon="12.6901021"><ele>783.0</ele><time>2026-04-24T09:29:24.025Z</time></trkpt><trkpt lat="43.1414474" lon="12.6900554"><ele>788.0</ele><time>2026-04-24T09:29:25.035Z</time></trkpt><trkpt lat="43.141323" lon="12.6900189"><ele>793.0</ele><time>2026-04-24T09:29:26.038Z</time></trkpt><trkpt lat="43.1411956" lon="12.689991"><ele>798.0</ele><time>2026-04-24T09:29:27.035Z</time></trkpt><trkpt lat="43.141063" lon="12.6899737"><ele>798.0</ele><time>2026-04-24T09:29:28.026Z</time></trkpt><trkpt lat="43.1409403" lon="12.6899743"><ele>798.0</ele><time>2026-04-24T09:29:29.03Z</time></trkpt><trkpt lat="43.1408181" lon="12.6900002"><ele>798.0</ele><time>2026-04-24T09:29:30.039Z</time></trkpt><trkpt lat="43.1407041" lon="12.6900302"><ele>798.0</ele><time>2026-04-24T09:29:31.028Z</time></trkpt><trkpt lat="43.1406047" lon="12.6900468"><ele>797.4</ele><time>2026-04-24T09:29:32.031Z</time></trkpt><trkpt lat="43.1404989" lon="12.6900309"><ele>796.8</ele><time>2026-04-24T09:29:33.041Z</time></trkpt><trkpt lat="43.1403981" lon="12.6899882"><ele>796.2</ele><time>2026-04-24T09:29:34.032Z</time></trkpt><trkpt lat="43.1402938" lon="12.6899144"><ele>795.6</ele><time>2026-04-24T09:29:35.014Z</time></trkpt><trkpt lat="43.140186" lon="12.6898448"><ele>795.0</ele><time>2026-04-24T09:29:36.044Z</time></trkpt><trkpt lat="43.1400823" lon="12.6898089"><ele>795.0</ele><time>2026-04-24T09:29:37.038Z</time></trkpt><trkpt lat="43.1399668" lon="12.6898143"><ele>795.0</ele><time>2026-04-24T09:29:38.032Z</time></trkpt><trkpt lat="43.139846" lon="12.6898468"><ele>795.0</ele><time>2026-04-24T09:29:39.044Z</time></trkpt><trkpt lat="43.1397336" lon="12.6899154"><ele>795.0</ele><time>2026-04-24T09:29:40.013Z</time></trkpt><trkpt lat="43.139623" lon="12.6899722"><ele>794.6</ele><time>2026-04-24T09:29:41.04Z</time></trkpt><trkpt lat="43.1395244" lon="12.690009"><ele>794.2</ele><time>2026-04-24T09:29:42.046Z</time></trkpt><trkpt lat="43.1394291" lon="12.6900488"><ele>793.8</ele><time>2026-04-24T09:29:43.044Z</time></trkpt><trkpt lat="43.1393335" lon="12.6901048"><ele>793.4</ele><time>2026-04-24T09:29:44.043Z</time></trkpt><trkpt lat="43.1392313" lon="12.6901799"><ele>793.0</ele><time>2026-04-24T09:29:45.036Z</time></trkpt><trkpt lat="43.139148" lon="12.6902794"><ele>792.5999999999999</ele><time>2026-04-24T09:29:46.041Z</time></trkpt><trkpt lat="43.1390755" lon="12.6903884"><ele>792.1999999999999</ele><time>2026-04-24T09:29:47.045Z</time></trkpt><trkpt lat="43.1390084" lon="12.6905129"><ele>791.8</ele><time>2026-04-24T09:29:48.027Z</time></trkpt><trkpt lat="43.1389589" lon="12.6906316"><ele>791.4</ele><time>2026-04-24T09:29:49.038Z</time></trkpt><trkpt lat="43.1389326" lon="12.6907519"><ele>791.0</ele><time>2026-04-24T09:29:50.045Z</time></trkpt><trkpt lat="43.1389306" lon="12.6908796"><ele>791.0</ele><time>2026-04-24T09:29:51.017Z</time></trkpt><trkpt lat="43.1389393" lon="12.6910098"><ele>791.0</ele><time>2026-04-24T09:29:52.036Z</time></trkpt><trkpt lat="43.1389698" lon="12.6911459"><ele>791.0</ele><time>2026-04-24T09:29:53.044Z</time></trkpt><trkpt lat="43.1390065" lon="12.6912847"><ele>791.0</ele><time>2026-04-24T09:29:54.035Z</time></trkpt><trkpt lat="43.13904" lon="12.6914257"><ele>791.0</ele><time>2026-04-24T09:29:55.041Z</time></trkpt><trkpt lat="43.1390731" lon="12.691555"><ele>789.5999999999999</ele><time>2026-04-24T09:29:56.026Z</time></trkpt><trkpt lat="43.1391018" lon="12.6916857"><ele>788.2</ele><time>2026-04-24T09:29:57.017Z</time></trkpt><trkpt lat="43.1391113" lon="12.6918115"><ele>786.8</ele><time>2026-04-24T09:29:58.038Z</time></trkpt><trkpt lat="43.1390945" lon="12.6919453"><ele>785.4000000000001</ele><time>2026-04-24T09:29:59.043Z</time></trkpt><trkpt lat="43.1390456" lon="12.692082"><ele>784.0</ele><time>2026-04-24T09:30:00.049Z</time></trkpt><trkpt lat="43.1389779" lon="12.6922172"><ele>790.75</ele><time>2026-04-24T09:30:01.018Z</time></trkpt><trkpt lat="43.1389063" lon="12.692347"><ele>797.5</ele><time>2026-04-24T09:30:02.053Z</time></trkpt><trkpt lat="43.1388671" lon="12.6924821"><ele>804.25</ele><time>2026-04-24T09:30:03.049Z</time></trkpt><trkpt lat="43.1388389" lon="12.6926358"><ele>811.0</ele><time>2026-04-24T09:30:04.025Z</time></trkpt><trkpt lat="43.1388206" lon="12.6928186"><ele>812.5</ele><time>2026-04-24T09:30:05.008Z</time></trkpt><trkpt lat="43.1388076" lon="12.6930058"><ele>814.0</ele><time>2026-04-24T09:30:06.018Z</time></trkpt><trkpt lat="43.1387941" lon="12.693175"><ele>815.5</ele><time>2026-04-24T09:30:07.043Z</time></trkpt><trkpt lat="43.1387978" lon="12.6933352"><ele>817.0</ele><time>2026-04-24T09:30:08.041Z</time></trkpt><trkpt lat="43.1388335" lon="12.6934895"><ele>816.0</ele><time>2026-04-24T09:30:09.026Z</time></trkpt><trkpt lat="43.1388806" lon="12.6936374"><ele>815.0</ele><time>2026-04-24T09:30:10.033Z</time></trkpt><trkpt lat="43.1389305" lon="12.6937801"><ele>814.0</ele><time>2026-04-24T09:30:11.036Z</time></trkpt><trkpt lat="43.1389582" lon="12.6939122"><ele>813.0</ele><time>2026-04-24T09:30:12.037Z</time></trkpt><trkpt lat="43.1389525" lon="12.6940415"><ele>812.0</ele><time>2026-04-24T09:30:13.038Z</time></trkpt><trkpt lat="43.1389237" lon="12.6941377"><ele>812.0000000000001</ele><time>2026-04-24T09:30:14.036Z</time></trkpt><trkpt lat="43.1388797" lon="12.6942281"><ele>812.0</ele><time>2026-04-24T09:30:15.037Z</time></trkpt><trkpt lat="43.1388064" lon="12.6942762"><ele>812.0</ele><time>2026-04-24T09:30:16.024Z</time></trkpt><trkpt lat="43.1387264" lon="12.6943074"><ele>812.0</ele><time>2026-04-24T09:30:17.02Z</time></trkpt><trkpt lat="43.1386337" lon="12.6943274"><ele>812.0000000000001</ele><time>2026-04-24T09:30:18.04Z</time></trkpt><trkpt lat="43.1385291" lon="12.6943595"><ele>812.0</ele><time>2026-04-24T09:30:19.047Z</time></trkpt><trkpt lat="43.1384246" lon="12.69441"><ele>814.0</ele><time>2026-04-24T09:30:20.04Z</time></trkpt><trkpt lat="43.138335" lon="12.6944893"><ele>816.0</ele><time>2026-04-24T09:30:21.051Z</time></trkpt><trkpt lat="43.1382652" lon="12.694601"><ele>818.0</ele><time>2026-04-24T09:30:22.039Z</time></trkpt><trkpt lat="43.1382213" lon="12.6947325"><ele>820.0</ele><time>2026-04-24T09:30:23.039Z</time></trkpt><trkpt lat="43.1381903" lon="12.6948866"><ele>822.0</ele><time>2026-04-24T09:30:24.029Z</time></trkpt><trkpt lat="43.1381707" lon="12.6950487"><ele>822.0</ele><time>2026-04-24T09:30:25.039Z</time></trkpt><trkpt lat="43.1381623" lon="12.6952042"><ele>822.0</ele><time>2026-04-24T09:30:26.05Z</time></trkpt><trkpt lat="43.1381473" lon="12.69535"><ele>822.0</ele><time>2026-04-24T09:30:27.03Z</time></trkpt><trkpt lat="43.1381331" lon="12.6954701"><ele>822.0</ele><time>2026-04-24T09:30:28.036Z</time></trkpt><trkpt lat="43.1381097" lon="12.6955771"><ele>822.0</ele><time>2026-04-24T09:30:29.048Z</time></trkpt><trkpt lat="43.1380655" lon="12.6956664"><ele>819.4000000000001</ele><time>2026-04-24T09:30:30.035Z</time></trkpt><trkpt lat="43.1379955" lon="12.6957252"><ele>816.8000000000001</ele><time>2026-04-24T09:30:31.009Z</time></trkpt><trkpt lat="43.1379044" lon="12.6957534"><ele>814.2</ele><time>2026-04-24T09:30:32.035Z</time></trkpt><trkpt lat="43.137805" lon="12.6957741"><ele>811.6</ele><time>2026-04-24T09:30:33.043Z</time></trkpt><trkpt lat="43.1377004" lon="12.6958081"><ele>809.0</ele><time>2026-04-24T09:30:34.016Z</time></trkpt><trkpt lat="43.137599" lon="12.6958692"><ele>809.0</ele><time>2026-04-24T09:30:35.037Z</time></trkpt><trkpt lat="43.1375018" lon="12.6959581"><ele>809.0</ele><time>2026-04-24T09:30:36.034Z</time></trkpt><trkpt lat="43.1374241" lon="12.6960588"><ele>809.0</ele><time>2026-04-24T09:30:37.008Z</time></trkpt><trkpt lat="43.1373691" lon="12.6961806"><ele>809.0</ele><time>2026-04-24T09:30:38.036Z</time></trkpt><trkpt lat="43.137314" lon="12.6963153"><ele>809.0</ele><time>2026-04-24T09:30:39.034Z</time></trkpt><trkpt lat="43.1372662" lon="12.6964603"><ele>810.25</ele><time>2026-04-24T09:30:40.042Z</time></trkpt><trkpt lat="43.137209" lon="12.6965875"><ele>811.5</ele><time>2026-04-24T09:30:41.037Z</time></trkpt><trkpt lat="43.1371721" lon="12.6967215"><ele>812.75</ele><time>2026-04-24T09:30:42.029Z</time></trkpt><trkpt lat="43.1371752" lon="12.6968964"><ele>814.0</ele><time>2026-04-24T09:30:43.033Z</time></trkpt><trkpt lat="43.1372002" lon="12.6970663"><ele>814.0</ele><time>2026-04-24T09:30:44.026Z</time></trkpt><trkpt lat="43.137212" lon="12.6972341"><ele>814.0</ele><time>2026-04-24T09:30:45.033Z</time></trkpt><trkpt lat="43.1371892" lon="12.6973782"><ele>814.0</ele><time>2026-04-24T09:30:46.026Z</time></trkpt><trkpt lat="43.1371543" lon="12.6975222"><ele>814.0</ele><time>2026-04-24T09:30:47.016Z</time></trkpt><trkpt lat="43.1371009" lon="12.6976679"><ele>810.5</ele><time>2026-04-24T09:30:48.026Z</time></trkpt><trkpt lat="43.13707" lon="12.6978163"><ele>807.0</ele><time>2026-04-24T09:30:49.03Z</time></trkpt><trkpt lat="43.1370609" lon="12.6979729"><ele>803.5</ele><time>2026-04-24T09:30:50.021Z</time></trkpt><trkpt lat="43.1370926" lon="12.6981415"><ele>800.0</ele><time>2026-04-24T09:30:51.035Z</time></trkpt><trkpt lat="43.1371539" lon="12.6982987"><ele>800.0</ele><time>2026-04-24T09:30:52.012Z</time></trkpt><trkpt lat="43.1371991" lon="12.6984404"><ele>800.0</ele><time>2026-04-24T09:30:53.016Z</time></trkpt><trkpt lat="43.1372154" lon="12.6985831"><ele>800.0</ele><time>2026-04-24T09:30:54.039Z</time></trkpt><trkpt lat="43.1372029" lon="12.6987089"><ele>800.0</ele><time>2026-04-24T09:30:55.031Z</time></trkpt><trkpt lat="43.1371733" lon="12.6988084"><ele>800.0</ele><time>2026-04-24T09:30:56.032Z</time></trkpt><trkpt lat="43.1371229" lon="12.6988726"><ele>796.8333333333334</ele><time>2026-04-24T09:30:57.028Z</time></trkpt><trkpt lat="43.1370599" lon="12.6988946"><ele>793.6666666666667</ele><time>2026-04-24T09:30:58.04Z</time></trkpt><trkpt lat="43.1369893" lon="12.6988858"><ele>790.5</ele><time>2026-04-24T09:30:59.033Z</time></trkpt><trkpt lat="43.1369228" lon="12.6988373"><ele>787.3333333333333</ele><time>2026-04-24T09:31:00.038Z</time></trkpt><trkpt lat="43.1368359" lon="12.6987784"><ele>784.1666666666666</ele><time>2026-04-24T09:31:01.039Z</time></trkpt><trkpt lat="43.1367427" lon="12.6987276"><ele>781.0</ele><time>2026-04-24T09:31:02.038Z</time></trkpt><trkpt lat="43.1366488" lon="12.6986771"><ele>780.4</ele><time>2026-04-24T09:31:03.042Z</time></trkpt><trkpt lat="43.136547" lon="12.6986252"><ele>779.8</ele><time>2026-04-24T09:31:04.025Z</time></trkpt><trkpt lat="43.1364382" lon="12.6985709"><ele>779.1999999999999</ele><time>2026-04-24T09:31:05.007Z</time></trkpt><trkpt lat="43.1363319" lon="12.6985177"><ele>778.5999999999999</ele><time>2026-04-24T09:31:06.005Z</time></trkpt><trkpt lat="43.1362319" lon="12.6984733"><ele>778.0</ele><time>2026-04-24T09:31:07.009Z</time></trkpt><trkpt lat="43.1361366" lon="12.6984525"><ele>778.0</ele><time>2026-04-24T09:31:08.026Z</time></trkpt><trkpt lat="43.1360485" lon="12.6984512"><ele>778.0</ele><time>2026-04-24T09:31:09.04Z</time></trkpt><trkpt lat="43.1359617" lon="12.6984826"><ele>778.0</ele><time>2026-04-24T09:31:10.037Z</time></trkpt><trkpt lat="43.1358791" lon="12.6985649"><ele>778.0</ele><time>2026-04-24T09:31:11.007Z</time></trkpt><trkpt lat="43.1358233" lon="12.6986719"><ele>778.0</ele><time>2026-04-24T09:31:12.041Z</time></trkpt><trkpt lat="43.1357832" lon="12.6988021"><ele>778.0</ele><time>2026-04-24T09:31:13.043Z</time></trkpt><trkpt lat="43.1357588" lon="12.6989404"><ele>778.0</ele><time>2026-04-24T09:31:14.033Z</time></trkpt><trkpt lat="43.1357429" lon="12.6990648"><ele>778.0</ele><time>2026-04-24T09:31:15.037Z</time></trkpt><trkpt lat="43.1357093" lon="12.6991903"><ele>778.0</ele><time>2026-04-24T09:31:16.024Z</time></trkpt><trkpt lat="43.1356528" lon="12.6992904"><ele>778.0</ele><time>2026-04-24T09:31:17.051Z</time></trkpt><trkpt lat="43.1355712" lon="12.6993524"><ele>777.5999999999999</ele><time>2026-04-24T09:31:18.041Z</time></trkpt><trkpt lat="43.1354871" lon="12.6993926"><ele>777.1999999999999</ele><time>2026-04-24T09:31:19.006Z</time></trkpt><trkpt lat="43.1353959" lon="12.6994264"><ele>776.8</ele><time>2026-04-24T09:31:20.013Z</time></trkpt><trkpt lat="43.1353131" lon="12.6994738"><ele>776.4</ele><time>2026-04-24T09:31:21.042Z</time></trkpt><trkpt lat="43.135233" lon="12.6995598"><ele>776.0</ele><time>2026-04-24T09:31:22.046Z</time></trkpt><trkpt lat="43.1351742" lon="12.6996867"><ele>776.0</ele><time>2026-04-24T09:31:23.029Z</time></trkpt><trkpt lat="43.1351115" lon="12.699813"><ele>776.0</ele><time>2026-04-24T09:31:24.033Z</time></trkpt><trkpt lat="43.1350232" lon="12.6999117"><ele>776.0</ele><time>2026-04-24T09:31:25.042Z</time></trkpt><trkpt lat="43.1349104" lon="12.6999821"><ele>776.0</ele><time>2026-04-24T09:31:26.045Z</time></trkpt><trkpt lat="43.1347868" lon="12.7000264"><ele>774.0</ele><time>2026-04-24T09:31:27.038Z</time></trkpt><trkpt lat="43.1346485" lon="12.7000735"><ele>772.0</ele><time>2026-04-24T09:31:28.036Z</time></trkpt><trkpt lat="43.1345308" lon="12.700128"><ele>770.0</ele><time>2026-04-24T09:31:29.043Z</time></trkpt><trkpt lat="43.1344156" lon="12.7002123"><ele>768.0</ele><time>2026-04-24T09:31:30.029Z</time></trkpt><trkpt lat="43.1343101" lon="12.7003016"><ele>768.0</ele><time>2026-04-24T09:31:31.032Z</time></trkpt><trkpt lat="43.1342046" lon="12.7004131"><ele>768.0</ele><time>2026-04-24T09:31:32.037Z</time></trkpt><trkpt lat="43.1341059" lon="12.7005206"><ele>768.0</ele><time>2026-04-24T09:31:33Z</time></trkpt><trkpt lat="43.1340149" lon="12.7006103"><ele>768.0</ele><time>2026-04-24T09:31:34.039Z</time></trkpt><trkpt lat="43.1339293" lon="12.7006706"><ele>767.4</ele><time>2026-04-24T09:31:35.034Z</time></trkpt><trkpt lat="43.1338325" lon="12.7007009"><ele>766.8</ele><time>2026-04-24T09:31:36.038Z</time></trkpt><trkpt lat="43.1337272" lon="12.7006903"><ele>766.2</ele><time>2026-04-24T09:31:37.041Z</time></trkpt><trkpt lat="43.1336207" lon="12.7006455"><ele>765.6</ele><time>2026-04-24T09:31:38.041Z</time></trkpt><trkpt lat="43.1335158" lon="12.7005837"><ele>765.0</ele><time>2026-04-24T09:31:39.031Z</time></trkpt><trkpt lat="43.1334378" lon="12.7005268"><ele>765.0</ele><time>2026-04-24T09:31:40.006Z</time></trkpt><trkpt lat="43.1333759" lon="12.7004869"><ele>765.0</ele><time>2026-04-24T09:31:41.025Z</time></trkpt><trkpt lat="43.1333153" lon="12.7004551"><ele>765.0</ele><time>2026-04-24T09:31:43.027Z</time></trkpt><trkpt lat="43.1332511" lon="12.7004088"><ele>765.0</ele><time>2026-04-24T09:31:59.026Z</time></trkpt><trkpt lat="43.1331174" lon="12.7003486"><ele>765.0</ele><time>2026-04-24T09:32:01.03Z</time></trkpt><trkpt lat="43.1330288" lon="12.7003138"><ele>765.0</ele><time>2026-04-24T09:32:02.033Z</time></trkpt><trkpt lat="43.1329207" lon="12.7002677"><ele>769.2</ele><time>2026-04-24T09:32:03.042Z</time></trkpt><trkpt lat="43.1328102" lon="12.7002241"><ele>773.4</ele><time>2026-04-24T09:32:04.045Z</time></trkpt><trkpt lat="43.1327031" lon="12.7001801"><ele>777.5999999999999</ele><time>2026-04-24T09:32:05.005Z</time></trkpt><trkpt lat="43.1325996" lon="12.7001425"><ele>781.8</ele><time>2026-04-24T09:32:05.999Z</time></trkpt><trkpt lat="43.132514" lon="12.7001238"><ele>786.0</ele><time>2026-04-24T09:32:07.037Z</time></trkpt><trkpt lat="43.1324424" lon="12.7001251"><ele>787.1999999999999</ele><time>2026-04-24T09:32:07.998Z</time></trkpt><trkpt lat="43.1323378" lon="12.7002109"><ele>788.4</ele><time>2026-04-24T09:32:10.029Z</time></trkpt><trkpt lat="43.1322946" lon="12.7002918"><ele>789.6</ele><time>2026-04-24T09:32:11Z</time></trkpt><trkpt lat="43.1322695" lon="12.7003967"><ele>790.8</ele><time>2026-04-24T09:32:12.027Z</time></trkpt><trkpt lat="43.1322568" lon="12.7005182"><ele>792.0</ele><time>2026-04-24T09:32:13.041Z</time></trkpt><trkpt lat="43.1322386" lon="12.7006416"><ele>792.0</ele><time>2026-04-24T09:32:14.037Z</time></trkpt><trkpt lat="43.1322129" lon="12.7007499"><ele>792.0</ele><time>2026-04-24T09:32:15.021Z</time></trkpt><trkpt lat="43.1321832" lon="12.7008553"><ele>792.0</ele><time>2026-04-24T09:32:16.012Z</time></trkpt><trkpt lat="43.1321444" lon="12.7009488"><ele>792.0</ele><time>2026-04-24T09:32:17.031Z</time></trkpt><trkpt lat="43.1320942" lon="12.7010329"><ele>792.0</ele><time>2026-04-24T09:32:18.037Z</time></trkpt><trkpt lat="43.1320426" lon="12.7011246"><ele>792.0</ele><time>2026-04-24T09:32:19.049Z</time></trkpt><trkpt lat="43.1320006" lon="12.701231"><ele>790.1666666666666</ele><time>2026-04-24T09:32:20.03Z</time></trkpt><trkpt lat="43.1319691" lon="12.7013474"><ele>788.3333333333333</ele><time>2026-04-24T09:32:21.03Z</time></trkpt><trkpt lat="43.1319552" lon="12.7014695"><ele>786.5</ele><time>2026-04-24T09:32:22.038Z</time></trkpt><trkpt lat="43.1319647" lon="12.7015937"><ele>784.6666666666666</ele><time>2026-04-24T09:32:23.013Z</time></trkpt><trkpt lat="43.1319798" lon="12.7017101"><ele>782.8333333333333</ele><time>2026-04-24T09:32:24.009Z</time></trkpt><trkpt lat="43.1319845" lon="12.7018242"><ele>781.0</ele><time>2026-04-24T09:32:25.005Z</time></trkpt><trkpt lat="43.1319749" lon="12.7019363"><ele>778.5999999999999</ele><time>2026-04-24T09:32:26Z</time></trkpt><trkpt lat="43.1319489" lon="12.7020377"><ele>776.2</ele><time>2026-04-24T09:32:27.034Z</time></trkpt><trkpt lat="43.1319003" lon="12.7021351"><ele>773.8</ele><time>2026-04-24T09:32:28.012Z</time></trkpt><trkpt lat="43.1318477" lon="12.7022358"><ele>771.4000000000001</ele><time>2026-04-24T09:32:29.032Z</time></trkpt><trkpt lat="43.1317916" lon="12.7023482"><ele>769.0</ele><time>2026-04-24T09:32:30.025Z</time></trkpt><trkpt lat="43.1317385" lon="12.7024615"><ele>769.0</ele><time>2026-04-24T09:32:31.003Z</time></trkpt><trkpt lat="43.1316977" lon="12.7025871"><ele>769.0</ele><time>2026-04-24T09:32:32.022Z</time></trkpt><trkpt lat="43.1316688" lon="12.7027292"><ele>769.0</ele><time>2026-04-24T09:32:33.032Z</time></trkpt><trkpt lat="43.1316545" lon="12.7028976"><ele>769.0</ele><time>2026-04-24T09:32:34.024Z</time></trkpt><trkpt lat="43.1316457" lon="12.7030838"><ele>767.25</ele><time>2026-04-24T09:32:35.02Z</time></trkpt><trkpt lat="43.1316422" lon="12.7032606"><ele>765.5</ele><time>2026-04-24T09:32:36.009Z</time></trkpt><trkpt lat="43.1316506" lon="12.7034325"><ele>763.75</ele><time>2026-04-24T09:32:37.043Z</time></trkpt><trkpt lat="43.1316639" lon="12.7035928"><ele>762.0</ele><time>2026-04-24T09:32:38.039Z</time></trkpt><trkpt lat="43.1316846" lon="12.7037425"><ele>761.6</ele><time>2026-04-24T09:32:39.04Z</time></trkpt><trkpt lat="43.131699" lon="12.703887"><ele>761.2</ele><time>2026-04-24T09:32:40.031Z</time></trkpt><trkpt lat="43.1316962" lon="12.704023"><ele>760.8</ele><time>2026-04-24T09:32:41.041Z</time></trkpt><trkpt lat="43.1316773" lon="12.7041572"><ele>760.4</ele><time>2026-04-24T09:32:42.034Z</time></trkpt><trkpt lat="43.131646" lon="12.7042954"><ele>760.0</ele><time>2026-04-24T09:32:43.044Z</time></trkpt><trkpt lat="43.1316093" lon="12.7044134"><ele>760.0</ele><time>2026-04-24T09:32:44.021Z</time></trkpt><trkpt lat="43.1315761" lon="12.7045217"><ele>760.0</ele><time>2026-04-24T09:32:45.035Z</time></trkpt><trkpt lat="43.1315597" lon="12.7046366"><ele>760.0</ele><time>2026-04-24T09:32:46.034Z</time></trkpt><trkpt lat="43.1315694" lon="12.7047581"><ele>760.0</ele><time>2026-04-24T09:32:47.036Z</time></trkpt><trkpt lat="43.1316039" lon="12.7048748"><ele>760.0</ele><time>2026-04-24T09:32:48.002Z</time></trkpt><trkpt lat="43.1316635" lon="12.7049822"><ele>760.0</ele><time>2026-04-24T09:32:49.02Z</time></trkpt><trkpt lat="43.1317423" lon="12.7050702"><ele>760.0</ele><time>2026-04-24T09:32:50.021Z</time></trkpt><trkpt lat="43.1318422" lon="12.7051351"><ele>760.0</ele><time>2026-04-24T09:32:51.03Z</time></trkpt><trkpt lat="43.1319452" lon="12.7051971"><ele>760.0</ele><time>2026-04-24T09:32:52.029Z</time></trkpt><trkpt lat="43.1320194" lon="12.7052683"><ele>760.0</ele><time>2026-04-24T09:32:53.036Z</time></trkpt><trkpt lat="43.1320833" lon="12.7053552"><ele>762.8</ele><time>2026-04-24T09:32:53.996Z</time></trkpt><trkpt lat="43.1321238" lon="12.7054646"><ele>765.6</ele><time>2026-04-24T09:32:55.033Z</time></trkpt><trkpt lat="43.1321507" lon="12.7055947"><ele>768.4000000000001</ele><time>2026-04-24T09:32:56.037Z</time></trkpt><trkpt lat="43.1321719" lon="12.7057515"><ele>771.2</ele><time>2026-04-24T09:32:57.038Z</time></trkpt><trkpt lat="43.1322004" lon="12.7059289"><ele>774.0</ele><time>2026-04-24T09:32:58.028Z</time></trkpt><trkpt lat="43.1322272" lon="12.7061041"><ele>774.6</ele><time>2026-04-24T09:32:59.002Z</time></trkpt><trkpt lat="43.132244" lon="12.706264"><ele>775.2</ele><time>2026-04-24T09:33:00.026Z</time></trkpt><trkpt lat="43.1322403" lon="12.7064129"><ele>775.8000000000001</ele><time>2026-04-24T09:33:01.033Z</time></trkpt><trkpt lat="43.1322216" lon="12.7065555"><ele>776.4000000000001</ele><time>2026-04-24T09:33:02.034Z</time></trkpt><trkpt lat="43.1322052" lon="12.7067013"><ele>777.0</ele><time>2026-04-24T09:33:03.017Z</time></trkpt><trkpt lat="43.1321972" lon="12.7068528"><ele>774.6</ele><time>2026-04-24T09:33:04.015Z</time></trkpt><trkpt lat="43.1322026" lon="12.7070018"><ele>772.2</ele><time>2026-04-24T09:33:05.007Z</time></trkpt><trkpt lat="43.1322254" lon="12.7071309"><ele>769.8</ele><time>2026-04-24T09:33:06.037Z</time></trkpt><trkpt lat="43.13226" lon="12.7072538"><ele>767.4</ele><time>2026-04-24T09:33:07.01Z</time></trkpt><trkpt lat="43.1323062" lon="12.707367"><ele>765.0</ele><time>2026-04-24T09:33:08.031Z</time></trkpt><trkpt lat="43.1323525" lon="12.7074743"><ele>765.0</ele><time>2026-04-24T09:33:09.01Z</time></trkpt><trkpt lat="43.132401" lon="12.7075851"><ele>765.0</ele><time>2026-04-24T09:33:10.046Z</time></trkpt><trkpt lat="43.1324443" lon="12.7077013"><ele>765.0</ele><time>2026-04-24T09:33:11.048Z</time></trkpt><trkpt lat="43.1324741" lon="12.7078285"><ele>765.0</ele><time>2026-04-24T09:33:12.044Z</time></trkpt><trkpt lat="43.1324979" lon="12.7079635"><ele>765.0</ele><time>2026-04-24T09:33:13.048Z</time></trkpt><trkpt lat="43.1325207" lon="12.7080916"><ele>764.6666666666666</ele><time>2026-04-24T09:33:14.041Z</time></trkpt><trkpt lat="43.1325462" lon="12.7082015"><ele>764.3333333333334</ele><time>2026-04-24T09:33:15.035Z</time></trkpt><trkpt lat="43.1325786" lon="12.7083041"><ele>764.0</ele><time>2026-04-24T09:33:16.023Z</time></trkpt><trkpt lat="43.1326196" lon="12.7084061"><ele>763.6666666666667</ele><time>2026-04-24T09:33:17.049Z</time></trkpt><trkpt lat="43.1326727" lon="12.7085138"><ele>763.3333333333334</ele><time>2026-04-24T09:33:18.015Z</time></trkpt><trkpt lat="43.1327296" lon="12.7086152"><ele>763.0</ele><time>2026-04-24T09:33:19.037Z</time></trkpt><trkpt lat="43.1327982" lon="12.7087128"><ele>759.5999999999999</ele><time>2026-04-24T09:33:20.037Z</time></trkpt><trkpt lat="43.132864" lon="12.7087902"><ele>756.1999999999999</ele><time>2026-04-24T09:33:21.046Z</time></trkpt><trkpt lat="43.1329418" lon="12.7088713"><ele>752.8</ele><time>2026-04-24T09:33:22.047Z</time></trkpt><trkpt lat="43.1330217" lon="12.7089458"><ele>749.4</ele><time>2026-04-24T09:33:23.039Z</time></trkpt><trkpt lat="43.1331107" lon="12.7090206"><ele>746.0</ele><time>2026-04-24T09:33:24.025Z</time></trkpt><trkpt lat="43.1331967" lon="12.7090976"><ele>748.4</ele><time>2026-04-24T09:33:25.049Z</time></trkpt><trkpt lat="43.133288" lon="12.7091563"><ele>750.8</ele><time>2026-04-24T09:33:26.042Z</time></trkpt><trkpt lat="43.1333799" lon="12.7091981"><ele>753.1999999999999</ele><time>2026-04-24T09:33:27.045Z</time></trkpt><trkpt lat="43.1334736" lon="12.7092371"><ele>755.5999999999999</ele><time>2026-04-24T09:33:28.035Z</time></trkpt><trkpt lat="43.1335599" lon="12.7092925"><ele>758.0</ele><time>2026-04-24T09:33:29Z</time></trkpt><trkpt lat="43.1336487" lon="12.7093865"><ele>757.5</ele><time>2026-04-24T09:33:30.032Z</time></trkpt><trkpt lat="43.1337479" lon="12.7094966"><ele>757.0</ele><time>2026-04-24T09:33:31.037Z</time></trkpt><trkpt lat="43.1338506" lon="12.7096021"><ele>756.5</ele><time>2026-04-24T09:33:32.05Z</time></trkpt><trkpt lat="43.1339511" lon="12.7096961"><ele>756.0</ele><time>2026-04-24T09:33:33.052Z</time></trkpt><trkpt lat="43.1340623" lon="12.7097959"><ele>756.0</ele><time>2026-04-24T09:33:34.002Z</time></trkpt><trkpt lat="43.1341694" lon="12.7098895"><ele>756.0</ele><time>2026-04-24T09:33:35.045Z</time></trkpt><trkpt lat="43.1342726" lon="12.7099679"><ele>756.0</ele><time>2026-04-24T09:33:36.04Z</time></trkpt><trkpt lat="43.1343686" lon="12.7100306"><ele>756.0</ele><time>2026-04-24T09:33:37.04Z</time></trkpt><trkpt lat="43.1344606" lon="12.7100832"><ele>756.0</ele><time>2026-04-24T09:33:38.044Z</time></trkpt><trkpt lat="43.134548" lon="12.7101497"><ele>756.0</ele><time>2026-04-24T09:33:39.047Z</time></trkpt><trkpt lat="43.1346325" lon="12.7102382"><ele>756.0</ele><time>2026-04-24T09:33:40.041Z</time></trkpt><trkpt lat="43.134707" lon="12.7103556"><ele>756.0</ele><time>2026-04-24T09:33:41.044Z</time></trkpt><trkpt lat="43.1347603" lon="12.7104977"><ele>756.0</ele><time>2026-04-24T09:33:42.014Z</time></trkpt><trkpt lat="43.1347744" lon="12.7106384"><ele>754.1999999999999</ele><time>2026-04-24T09:33:43.047Z</time></trkpt><trkpt lat="43.1347604" lon="12.7107689"><ele>752.4</ele><time>2026-04-24T09:33:44.031Z</time></trkpt><trkpt lat="43.1347489" lon="12.7109213"><ele>750.6</ele><time>2026-04-24T09:33:45.047Z</time></trkpt><trkpt lat="43.134765" lon="12.7110666"><ele>748.8</ele><time>2026-04-24T09:33:46.047Z</time></trkpt><trkpt lat="43.1348091" lon="12.7112055"><ele>747.0</ele><time>2026-04-24T09:33:47.037Z</time></trkpt><trkpt lat="43.1348721" lon="12.7113405"><ele>751.0</ele><time>2026-04-24T09:33:47.998Z</time></trkpt><trkpt lat="43.1349471" lon="12.7114706"><ele>755.0</ele><time>2026-04-24T09:33:49.049Z</time></trkpt><trkpt lat="43.1350331" lon="12.7115887"><ele>759.0</ele><time>2026-04-24T09:33:50.033Z</time></trkpt><trkpt lat="43.1351271" lon="12.7117003"><ele>763.0</ele><time>2026-04-24T09:33:51.041Z</time></trkpt><trkpt lat="43.135217" lon="12.7117872"><ele>763.0</ele><time>2026-04-24T09:33:51.999Z</time></trkpt><trkpt lat="43.1352989" lon="12.7118726"><ele>763.0</ele><time>2026-04-24T09:33:53.047Z</time></trkpt><trkpt lat="43.1353657" lon="12.7119674"><ele>763.0</ele><time>2026-04-24T09:33:54.031Z</time></trkpt><trkpt lat="43.1354131" lon="12.7120763"><ele>763.0</ele><time>2026-04-24T09:33:55.048Z</time></trkpt><trkpt lat="43.1354368" lon="12.7121999"><ele>763.0</ele><time>2026-04-24T09:33:55.998Z</time></trkpt><trkpt lat="43.1354392" lon="12.7123172"><ele>763.3333333333334</ele><time>2026-04-24T09:33:57.048Z</time></trkpt><trkpt lat="43.1354257" lon="12.7124099"><ele>763.6666666666667</ele><time>2026-04-24T09:33:58.006Z</time></trkpt><trkpt lat="43.1354117" lon="12.7125072"><ele>764.0</ele><time>2026-04-24T09:33:59.037Z</time></trkpt><trkpt lat="43.13539" lon="12.7126029"><ele>764.3333333333334</ele><time>2026-04-24T09:34:00.002Z</time></trkpt><trkpt lat="43.1353569" lon="12.7126982"><ele>764.6666666666666</ele><time>2026-04-24T09:34:01.002Z</time></trkpt><trkpt lat="43.1353045" lon="12.7128048"><ele>765.0</ele><time>2026-04-24T09:34:02.001Z</time></trkpt><trkpt lat="43.1352292" lon="12.7128931"><ele>769.25</ele><time>2026-04-24T09:34:02.998Z</time></trkpt><trkpt lat="43.1351505" lon="12.712983"><ele>773.5</ele><time>2026-04-24T09:34:03.997Z</time></trkpt><trkpt lat="43.1350796" lon="12.7131026"><ele>777.75</ele><time>2026-04-24T09:34:05.009Z</time></trkpt><trkpt lat="43.1349985" lon="12.7132255"><ele>782.0</ele><time>2026-04-24T09:34:06.036Z</time></trkpt><trkpt lat="43.1349322" lon="12.7133729"><ele>780.5</ele><time>2026-04-24T09:34:07.048Z</time></trkpt><trkpt lat="43.1348815" lon="12.713537"><ele>779.0</ele><time>2026-04-24T09:34:08.04Z</time></trkpt><trkpt lat="43.1348273" lon="12.7136893"><ele>777.5</ele><time>2026-04-24T09:34:09.044Z</time></trkpt><trkpt lat="43.1347561" lon="12.713821"><ele>776.0</ele><time>2026-04-24T09:34:10.037Z</time></trkpt><trkpt lat="43.1346749" lon="12.7139192"><ele>776.0000000000001</ele><time>2026-04-24T09:34:11.036Z</time></trkpt><trkpt lat="43.1346013" lon="12.7139963"><ele>776.0</ele><time>2026-04-24T09:34:12.025Z</time></trkpt><trkpt lat="43.1345376" lon="12.714067"><ele>776.0</ele><time>2026-04-24T09:34:13Z</time></trkpt><trkpt lat="43.1344876" lon="12.7141487"><ele>776.0</ele><time>2026-04-24T09:34:14.017Z</time></trkpt><trkpt lat="43.1344588" lon="12.7142466"><ele>776.0000000000001</ele><time>2026-04-24T09:34:15.036Z</time></trkpt><trkpt lat="43.134449" lon="12.7143544"><ele>776.0</ele><time>2026-04-24T09:34:16.008Z</time></trkpt><trkpt lat="43.1344551" lon="12.7144713"><ele>778.0</ele><time>2026-04-24T09:34:17.011Z</time></trkpt><trkpt lat="43.1344471" lon="12.7146049"><ele>780.0</ele><time>2026-04-24T09:34:18.003Z</time></trkpt><trkpt lat="43.134417" lon="12.7147346"><ele>782.0</ele><time>2026-04-24T09:34:19.009Z</time></trkpt><trkpt lat="43.1343738" lon="12.7148734"><ele>784.0</ele><time>2026-04-24T09:34:20.004Z</time></trkpt><trkpt lat="43.1343269" lon="12.7150158"><ele>786.0</ele><time>2026-04-24T09:34:21.013Z</time></trkpt><trkpt lat="43.1342841" lon="12.7151576"><ele>786.5999999999999</ele><time>2026-04-24T09:34:22.009Z</time></trkpt><trkpt lat="43.1342476" lon="12.7152845"><ele>787.2</ele><time>2026-04-24T09:34:23.01Z</time></trkpt><trkpt lat="43.1342266" lon="12.7153888"><ele>787.8</ele><time>2026-04-24T09:34:24.013Z</time></trkpt><trkpt lat="43.1342213" lon="12.7154982"><ele>788.4000000000001</ele><time>2026-04-24T09:34:25.014Z</time></trkpt><trkpt lat="43.1342458" lon="12.7156194"><ele>789.0</ele><time>2026-04-24T09:34:26.025Z</time></trkpt><trkpt lat="43.1342867" lon="12.7157616"><ele>789.0</ele><time>2026-04-24T09:34:27.007Z</time></trkpt><trkpt lat="43.1343261" lon="12.7159079"><ele>789.0</ele><time>2026-04-24T09:34:28.008Z</time></trkpt><trkpt lat="43.1343845" lon="12.7160277"><ele>789.0</ele><time>2026-04-24T09:34:29.043Z</time></trkpt><trkpt lat="43.1344269" lon="12.7161406"><ele>789.0</ele><time>2026-04-24T09:34:30.028Z</time></trkpt><trkpt lat="43.1344679" lon="12.7162394"><ele>789.0</ele><time>2026-04-24T09:34:31.044Z</time></trkpt><trkpt lat="43.1345057" lon="12.7163292"><ele>789.6666666666666</ele><time>2026-04-24T09:34:31.992Z</time></trkpt><trkpt lat="43.1345354" lon="12.7164144"><ele>790.3333333333333</ele><time>2026-04-24T09:34:33.043Z</time></trkpt><trkpt lat="43.1345769" lon="12.7164821"><ele>791.0</ele><time>2026-04-24T09:34:34.037Z</time></trkpt><trkpt lat="43.1346825" lon="12.71656"><ele>791.6666666666666</ele><time>2026-04-24T09:34:36Z</time></trkpt><trkpt lat="43.1347492" lon="12.7165766"><ele>792.3333333333333</ele><time>2026-04-24T09:34:37.019Z</time></trkpt><trkpt lat="43.1348341" lon="12.7165836"><ele>793.0</ele><time>2026-04-24T09:34:38.001Z</time></trkpt><trkpt lat="43.1349351" lon="12.7165848"><ele>793.0</ele><time>2026-04-24T09:34:39.008Z</time></trkpt><trkpt lat="43.1350301" lon="12.7165772"><ele>793.0</ele><time>2026-04-24T09:34:39.997Z</time></trkpt><trkpt lat="43.1351235" lon="12.716573"><ele>793.0</ele><time>2026-04-24T09:34:41.008Z</time></trkpt><trkpt lat="43.1352147" lon="12.7165804"><ele>793.0</ele><time>2026-04-24T09:34:42.022Z</time></trkpt><trkpt lat="43.1353023" lon="12.7166069"><ele>793.0</ele><time>2026-04-24T09:34:43Z</time></trkpt><trkpt lat="43.1353764" lon="12.7166564"><ele>792.9999999999999</ele><time>2026-04-24T09:34:44.017Z</time></trkpt><trkpt lat="43.1354365" lon="12.7167237"><ele>793.0</ele><time>2026-04-24T09:34:45.045Z</time></trkpt><trkpt lat="43.1354927" lon="12.716797"><ele>793.0</ele><time>2026-04-24T09:34:46.006Z</time></trkpt><trkpt lat="43.1355472" lon="12.7168593"><ele>793.0</ele><time>2026-04-24T09:34:47.045Z</time></trkpt><trkpt lat="43.1356382" lon="12.7169332"><ele>792.9999999999999</ele><time>2026-04-24T09:34:48.998Z</time></trkpt><trkpt lat="43.1357157" lon="12.7170506"><ele>793.0</ele><time>2026-04-24T09:34:51.035Z</time></trkpt><trkpt lat="43.1357662" lon="12.7171206"><ele>791.8333333333333</ele><time>2026-04-24T09:34:52.036Z</time></trkpt><trkpt lat="43.1358042" lon="12.7171954"><ele>790.6666666666666</ele><time>2026-04-24T09:34:53.032Z</time></trkpt><trkpt lat="43.1358688" lon="12.7172161"><ele>789.5</ele><time>2026-04-24T09:34:54.023Z</time></trkpt><trkpt lat="43.135946" lon="12.7172023"><ele>788.3333333333333</ele><time>2026-04-24T09:34:54.999Z</time></trkpt><trkpt lat="43.1360354" lon="12.7171703"><ele>787.1666666666666</ele><time>2026-04-24T09:34:56.044Z</time></trkpt><trkpt lat="43.1361305" lon="12.7171372"><ele>786.0</ele><time>2026-04-24T09:34:57.033Z</time></trkpt><trkpt lat="43.1362261" lon="12.7171023"><ele>786.0</ele><time>2026-04-24T09:34:58.036Z</time></trkpt><trkpt lat="43.1363266" lon="12.7170591"><ele>786.0</ele><time>2026-04-24T09:34:59.004Z</time></trkpt><trkpt lat="43.1364234" lon="12.7170057"><ele>786.0</ele><time>2026-04-24T09:35:00.029Z</time></trkpt><trkpt lat="43.1365297" lon="12.7169458"><ele>786.0</ele><time>2026-04-24T09:35:01.027Z</time></trkpt><trkpt lat="43.1366471" lon="12.7168793"><ele>791.5</ele><time>2026-04-24T09:35:02.02Z</time></trkpt><trkpt lat="43.136769" lon="12.7168095"><ele>797.0</ele><time>2026-04-24T09:35:03.026Z</time></trkpt><trkpt lat="43.1368905" lon="12.7167454"><ele>802.5</ele><time>2026-04-24T09:35:04.002Z</time></trkpt><trkpt lat="43.1370128" lon="12.7167046"><ele>808.0</ele><time>2026-04-24T09:35:05.007Z</time></trkpt><trkpt lat="43.1371289" lon="12.7166746"><ele>808.0</ele><time>2026-04-24T09:35:06.025Z</time></trkpt><trkpt lat="43.137239" lon="12.7166416"><ele>808.0</ele><time>2026-04-24T09:35:07.024Z</time></trkpt><trkpt lat="43.1373446" lon="12.7166086"><ele>808.0</ele><time>2026-04-24T09:35:08.024Z</time></trkpt><trkpt lat="43.1374544" lon="12.7165954"><ele>808.0</ele><time>2026-04-24T09:35:09.016Z</time></trkpt><trkpt lat="43.1375599" lon="12.7165957"><ele>808.0</ele><time>2026-04-24T09:35:10.044Z</time></trkpt><trkpt lat="43.1376603" lon="12.7166053"><ele>807.2</ele><time>2026-04-24T09:35:11.02Z</time></trkpt><trkpt lat="43.137773" lon="12.7166014"><ele>806.4</ele><time>2026-04-24T09:35:12.018Z</time></trkpt><trkpt lat="43.137892" lon="12.7165907"><ele>805.6</ele><time>2026-04-24T09:35:13.027Z</time></trkpt><trkpt lat="43.1380003" lon="12.7165766"><ele>804.8000000000001</ele><time>2026-04-24T09:35:14.024Z</time></trkpt><trkpt lat="43.1380986" lon="12.7165502"><ele>804.0</ele><time>2026-04-24T09:35:15.007Z</time></trkpt><trkpt lat="43.1381903" lon="12.7165197"><ele>805.1666666666666</ele><time>2026-04-24T09:35:16.02Z</time></trkpt><trkpt lat="43.138277" lon="12.7164937"><ele>806.3333333333333</ele><time>2026-04-24T09:35:17.013Z</time></trkpt><trkpt lat="43.1383548" lon="12.7164793"><ele>807.5</ele><time>2026-04-24T09:35:18.023Z</time></trkpt><trkpt lat="43.138432" lon="12.7164831"><ele>808.6666666666666</ele><time>2026-04-24T09:35:19Z</time></trkpt><trkpt lat="43.138517" lon="12.7165031"><ele>809.8333333333333</ele><time>2026-04-24T09:35:20.005Z</time></trkpt><trkpt lat="43.1385941" lon="12.7165421"><ele>811.0</ele><time>2026-04-24T09:35:21.03Z</time></trkpt><trkpt lat="43.1386767" lon="12.7165922"><ele>811.0</ele><time>2026-04-24T09:35:22.005Z</time></trkpt><trkpt lat="43.1387531" lon="12.7166492"><ele>811.0</ele><time>2026-04-24T09:35:23.041Z</time></trkpt><trkpt lat="43.1388307" lon="12.716702"><ele>811.0</ele><time>2026-04-24T09:35:23.997Z</time></trkpt><trkpt lat="43.1389213" lon="12.7167518"><ele>811.0</ele><time>2026-04-24T09:35:24.999Z</time></trkpt><trkpt lat="43.1390217" lon="12.7168056"><ele>811.0</ele><time>2026-04-24T09:35:26.001Z</time></trkpt><trkpt lat="43.139126" lon="12.7168492"><ele>810.1999999999999</ele><time>2026-04-24T09:35:27.035Z</time></trkpt><trkpt lat="43.1392375" lon="12.7168819"><ele>809.4</ele><time>2026-04-24T09:35:28.035Z</time></trkpt><trkpt lat="43.1393465" lon="12.7169067"><ele>808.6</ele><time>2026-04-24T09:35:29.036Z</time></trkpt><trkpt lat="43.1394539" lon="12.7169272"><ele>807.8</ele><time>2026-04-24T09:35:30.025Z</time></trkpt><trkpt lat="43.139563" lon="12.7169402"><ele>807.0</ele><time>2026-04-24T09:35:31.036Z</time></trkpt><trkpt lat="43.1396596" lon="12.7169372"><ele>807.0</ele><time>2026-04-24T09:35:31.994Z</time></trkpt><trkpt lat="43.1397496" lon="12.7169233"><ele>807.0</ele><time>2026-04-24T09:35:33.035Z</time></trkpt><trkpt lat="43.1398386" lon="12.7168995"><ele>807.0</ele><time>2026-04-24T09:35:34.037Z</time></trkpt><trkpt lat="43.1399339" lon="12.716888"><ele>807.0</ele><time>2026-04-24T09:35:35.033Z</time></trkpt><trkpt lat="43.1400245" lon="12.7169024"><ele>807.0</ele><time>2026-04-24T09:35:36.022Z</time></trkpt><trkpt lat="43.1401144" lon="12.7169393"><ele>814.25</ele><time>2026-04-24T09:35:37.019Z</time></trkpt><trkpt lat="43.1402164" lon="12.7170103"><ele>821.5</ele><time>2026-04-24T09:35:38.016Z</time></trkpt><trkpt lat="43.1403311" lon="12.717075"><ele>828.75</ele><time>2026-04-24T09:35:39.017Z</time></trkpt><trkpt lat="43.1404433" lon="12.7171155"><ele>836.0</ele><time>2026-04-24T09:35:40.031Z</time></trkpt><trkpt lat="43.1405514" lon="12.7171372"><ele>836.0</ele><time>2026-04-24T09:35:40.998Z</time></trkpt><trkpt lat="43.1406542" lon="12.717133"><ele>836.0</ele><time>2026-04-24T09:35:41.997Z</time></trkpt><trkpt lat="43.1407481" lon="12.7170768"><ele>836.0</ele><time>2026-04-24T09:35:43.029Z</time></trkpt><trkpt lat="43.140843" lon="12.7170088"><ele>836.0</ele><time>2026-04-24T09:35:44.022Z</time></trkpt><trkpt lat="43.1409461" lon="12.7169498"><ele>836.0</ele><time>2026-04-24T09:35:45.026Z</time></trkpt><trkpt lat="43.1410549" lon="12.7169152"><ele>827.5</ele><time>2026-04-24T09:35:46.025Z</time></trkpt><trkpt lat="43.1411843" lon="12.7169019"><ele>819.0</ele><time>2026-04-24T09:35:47.023Z</time></trkpt><trkpt lat="43.141318" lon="12.7168924"><ele>810.5</ele><time>2026-04-24T09:35:48.025Z</time></trkpt><trkpt lat="43.1414432" lon="12.7168885"><ele>802.0</ele><time>2026-04-24T09:35:49.002Z</time></trkpt><trkpt lat="43.1415544" lon="12.7168859"><ele>802.0</ele><time>2026-04-24T09:35:50.016Z</time></trkpt><trkpt lat="43.1416459" lon="12.7168901"><ele>802.0</ele><time>2026-04-24T09:35:51.014Z</time></trkpt><trkpt lat="43.1417324" lon="12.7169072"><ele>802.0</ele><time>2026-04-24T09:35:52.018Z</time></trkpt><trkpt lat="43.1418099" lon="12.7169311"><ele>802.0</ele><time>2026-04-24T09:35:53.002Z</time></trkpt><trkpt lat="43.1418868" lon="12.7169885"><ele>802.0</ele><time>2026-04-24T09:35:53.994Z</time></trkpt><trkpt lat="43.1419766" lon="12.7170854"><ele>806.0</ele><time>2026-04-24T09:35:55.023Z</time></trkpt><trkpt lat="43.1420757" lon="12.7171733"><ele>810.0</ele><time>2026-04-24T09:35:56.019Z</time></trkpt><trkpt lat="43.1421807" lon="12.7172578"><ele>814.0</ele><time>2026-04-24T09:35:57.035Z</time></trkpt><trkpt lat="43.142279" lon="12.7173263"><ele>818.0</ele><time>2026-04-24T09:35:57.988Z</time></trkpt><trkpt lat="43.1423857" lon="12.7173568"><ele>818.0</ele><time>2026-04-24T09:35:58.995Z</time></trkpt><trkpt lat="43.1425006" lon="12.7173632"><ele>818.0</ele><time>2026-04-24T09:36:00.017Z</time></trkpt><trkpt lat="43.1426286" lon="12.717358"><ele>818.0</ele><time>2026-04-24T09:36:01.025Z</time></trkpt><trkpt lat="43.1427675" lon="12.7173504"><ele>818.0</ele><time>2026-04-24T09:36:02.029Z</time></trkpt><trkpt lat="43.1428983" lon="12.7173315"><ele>818.0</ele><time>2026-04-24T09:36:02.999Z</time></trkpt><trkpt lat="43.1430246" lon="12.7173073"><ele>818.0</ele><time>2026-04-24T09:36:04.02Z</time></trkpt><trkpt lat="43.1431336" lon="12.7172724"><ele>818.0</ele><time>2026-04-24T09:36:04.997Z</time></trkpt><trkpt lat="43.1432169" lon="12.7172086"><ele>818.0</ele><time>2026-04-24T09:36:06.02Z</time></trkpt><trkpt lat="43.1432835" lon="12.7171176"><ele>818.0</ele><time>2026-04-24T09:36:07.02Z</time></trkpt><trkpt lat="43.1433572" lon="12.7170046"><ele>816.0000000000001</ele><time>2026-04-24T09:36:08.016Z</time></trkpt><trkpt lat="43.1434091" lon="12.7168812"><ele>814.0</ele><time>2026-04-24T09:36:09.021Z</time></trkpt><trkpt lat="43.1434525" lon="12.7167974"><ele>812.0</ele><time>2026-04-24T09:36:10.026Z</time></trkpt><trkpt lat="43.1435196" lon="12.7167239"><ele>810.0</ele><time>2026-04-24T09:36:11.037Z</time></trkpt><trkpt lat="43.1435936" lon="12.7166958"><ele>808.0000000000001</ele><time>2026-04-24T09:36:12.027Z</time></trkpt><trkpt lat="43.1436783" lon="12.7166839"><ele>806.0</ele><time>2026-04-24T09:36:13.028Z</time></trkpt><trkpt lat="43.1437648" lon="12.7166746"><ele>806.0000000000001</ele><time>2026-04-24T09:36:14.022Z</time></trkpt><trkpt lat="43.1438531" lon="12.7166937"><ele>806.0</ele><time>2026-04-24T09:36:15.023Z</time></trkpt><trkpt lat="43.1439397" lon="12.7167358"><ele>806.0</ele><time>2026-04-24T09:36:16.001Z</time></trkpt><trkpt lat="43.1440265" lon="12.7167888"><ele>806.0</ele><time>2026-04-24T09:36:17.032Z</time></trkpt><trkpt lat="43.1441056" lon="12.7168402"><ele>806.0000000000001</ele><time>2026-04-24T09:36:18.038Z</time></trkpt><trkpt lat="43.1441722" lon="12.7169088"><ele>806.0</ele><time>2026-04-24T09:36:18.999Z</time></trkpt><trkpt lat="43.1442049" lon="12.7169874"><ele>808.8333333333334</ele><time>2026-04-24T09:36:20.048Z</time></trkpt><trkpt lat="43.1442096" lon="12.7170884"><ele>811.6666666666667</ele><time>2026-04-24T09:36:21.044Z</time></trkpt><trkpt lat="43.1442053" lon="12.7171914"><ele>814.5</ele><time>2026-04-24T09:36:21.994Z</time></trkpt><trkpt lat="43.1442073" lon="12.717299"><ele>817.3333333333333</ele><time>2026-04-24T09:36:23.006Z</time></trkpt><trkpt lat="43.1442309" lon="12.7174024"><ele>820.1666666666666</ele><time>2026-04-24T09:36:24.031Z</time></trkpt><trkpt lat="43.1442839" lon="12.7174887"><ele>823.0</ele><time>2026-04-24T09:36:25.044Z</time></trkpt><trkpt lat="43.1443565" lon="12.7175571"><ele>822.9999999999999</ele><time>2026-04-24T09:36:26.042Z</time></trkpt><trkpt lat="43.1444297" lon="12.7176063"><ele>823.0</ele><time>2026-04-24T09:36:27.004Z</time></trkpt><trkpt lat="43.1444903" lon="12.7176691"><ele>823.0</ele><time>2026-04-24T09:36:28.043Z</time></trkpt><trkpt lat="43.1445281" lon="12.7177427"><ele>823.0</ele><time>2026-04-24T09:36:29.03Z</time></trkpt><trkpt lat="43.1445469" lon="12.717834"><ele>822.9999999999999</ele><time>2026-04-24T09:36:30Z</time></trkpt><trkpt lat="43.1445527" lon="12.7179362"><ele>823.0</ele><time>2026-04-24T09:36:31.005Z</time></trkpt><trkpt lat="43.1445455" lon="12.7180527"><ele>823.25</ele><time>2026-04-24T09:36:32.039Z</time></trkpt><trkpt lat="43.1445431" lon="12.7182042"><ele>823.5</ele><time>2026-04-24T09:36:33.04Z</time></trkpt><trkpt lat="43.1445432" lon="12.7183745"><ele>823.75</ele><time>2026-04-24T09:36:34.021Z</time></trkpt><trkpt lat="43.1445368" lon="12.7185461"><ele>824.0</ele><time>2026-04-24T09:36:35Z</time></trkpt><trkpt lat="43.144538" lon="12.7187246"><ele>824.0</ele><time>2026-04-24T09:36:36.036Z</time></trkpt><trkpt lat="43.1445463" lon="12.7189058"><ele>824.0</ele><time>2026-04-24T09:36:37.046Z</time></trkpt><trkpt lat="43.1445532" lon="12.7190859"><ele>824.0</ele><time>2026-04-24T09:36:37.994Z</time></trkpt><trkpt lat="43.14456" lon="12.7192507"><ele>824.0</ele><time>2026-04-24T09:36:39Z</time></trkpt><trkpt lat="43.1445561" lon="12.7194174"><ele>823.2</ele><time>2026-04-24T09:36:40.038Z</time></trkpt><trkpt lat="43.1445532" lon="12.7195842"><ele>822.4000000000001</ele><time>2026-04-24T09:36:41.046Z</time></trkpt><trkpt lat="43.1445511" lon="12.7197397"><ele>821.6</ele><time>2026-04-24T09:36:41.995Z</time></trkpt><trkpt lat="43.1445511" lon="12.7198878"><ele>820.8</ele><time>2026-04-24T09:36:43Z</time></trkpt><trkpt lat="43.1445517" lon="12.720032"><ele>820.0</ele><time>2026-04-24T09:36:44.041Z</time></trkpt><trkpt lat="43.1445549" lon="12.7201706"><ele>819.4</ele><time>2026-04-24T09:36:45Z</time></trkpt><trkpt lat="43.1445698" lon="12.720311"><ele>818.8</ele><time>2026-04-24T09:36:46.03Z</time></trkpt><trkpt lat="43.1445869" lon="12.720448"><ele>818.2</ele><time>2026-04-24T09:36:47.016Z</time></trkpt><trkpt lat="43.1446082" lon="12.7205773"><ele>817.6</ele><time>2026-04-24T09:36:48Z</time></trkpt><trkpt lat="43.1446242" lon="12.7207036"><ele>817.0</ele><time>2026-04-24T09:36:48.996Z</time></trkpt><trkpt lat="43.1446344" lon="12.7208289"><ele>817.0</ele><time>2026-04-24T09:36:50.036Z</time></trkpt><trkpt lat="43.1446298" lon="12.7209523"><ele>817.0</ele><time>2026-04-24T09:36:51.048Z</time></trkpt><trkpt lat="43.1445975" lon="12.7210722"><ele>817.0</ele><time>2026-04-24T09:36:51.996Z</time></trkpt><trkpt lat="43.1445472" lon="12.7211814"><ele>817.0</ele><time>2026-04-24T09:36:52.999Z</time></trkpt><trkpt lat="43.1444939" lon="12.7212768"><ele>817.0</ele><time>2026-04-24T09:36:54.027Z</time></trkpt><trkpt lat="43.1444568" lon="12.7213853"><ele>816.4999999999999</ele><time>2026-04-24T09:36:55.035Z</time></trkpt><trkpt lat="43.14443" lon="12.7214889"><ele>816.0</ele><time>2026-04-24T09:36:55.999Z</time></trkpt><trkpt lat="43.1444101" lon="12.7216009"><ele>815.5</ele><time>2026-04-24T09:36:56.999Z</time></trkpt><trkpt lat="43.1443968" lon="12.7217097"><ele>815.0</ele><time>2026-04-24T09:36:58.036Z</time></trkpt><trkpt lat="43.1443977" lon="12.7218214"><ele>814.4999999999999</ele><time>2026-04-24T09:36:59.03Z</time></trkpt><trkpt lat="43.1444086" lon="12.7219298"><ele>814.0</ele><time>2026-04-24T09:36:59.997Z</time></trkpt><trkpt lat="43.1444168" lon="12.7220494"><ele>814.0</ele><time>2026-04-24T09:37:01.031Z</time></trkpt><trkpt lat="43.144434" lon="12.7221816"><ele>814.0</ele><time>2026-04-24T09:37:02.033Z</time></trkpt><trkpt lat="43.1444503" lon="12.7223169"><ele>814.0</ele><time>2026-04-24T09:37:03.04Z</time></trkpt><trkpt lat="43.1444612" lon="12.7224642"><ele>814.0</ele><time>2026-04-24T09:37:03.995Z</time></trkpt><trkpt lat="43.1444452" lon="12.7226037"><ele>814.0</ele><time>2026-04-24T09:37:05.009Z</time></trkpt><trkpt lat="43.1444193" lon="12.7227288"><ele>814.8000000000001</ele><time>2026-04-24T09:37:06.027Z</time></trkpt><trkpt lat="43.1443706" lon="12.7228445"><ele>815.6</ele><time>2026-04-24T09:37:07.002Z</time></trkpt><trkpt lat="43.1443048" lon="12.7229515"><ele>816.4</ele><time>2026-04-24T09:37:08.017Z</time></trkpt><trkpt lat="43.1442326" lon="12.7230593"><ele>817.2</ele><time>2026-04-24T09:37:09.033Z</time></trkpt><trkpt lat="43.1441835" lon="12.7231813"><ele>818.0</ele><time>2026-04-24T09:37:10.035Z</time></trkpt><trkpt lat="43.1441471" lon="12.7233197"><ele>818.0</ele><time>2026-04-24T09:37:11.018Z</time></trkpt><trkpt lat="43.1441179" lon="12.7234866"><ele>818.0</ele><time>2026-04-24T09:37:12.032Z</time></trkpt><trkpt lat="43.1440812" lon="12.7236618"><ele>818.0</ele><time>2026-04-24T09:37:13.034Z</time></trkpt><trkpt lat="43.1440623" lon="12.7238281"><ele>818.0</ele><time>2026-04-24T09:37:14.03Z</time></trkpt><trkpt lat="43.1440672" lon="12.7239857"><ele>819.25</ele><time>2026-04-24T09:37:15.001Z</time></trkpt><trkpt lat="43.1440915" lon="12.724139"><ele>820.5</ele><time>2026-04-24T09:37:16.032Z</time></trkpt><trkpt lat="43.1441349" lon="12.7242867"><ele>821.75</ele><time>2026-04-24T09:37:17.042Z</time></trkpt><trkpt lat="43.1441894" lon="12.7244161"><ele>823.0</ele><time>2026-04-24T09:37:18.001Z</time></trkpt><trkpt lat="43.144275" lon="12.7245275"><ele>825.5</ele><time>2026-04-24T09:37:19.041Z</time></trkpt><trkpt lat="43.1443867" lon="12.7246233"><ele>828.0</ele><time>2026-04-24T09:37:20.036Z</time></trkpt><trkpt lat="43.1445075" lon="12.7246919"><ele>830.5</ele><time>2026-04-24T09:37:20.998Z</time></trkpt><trkpt lat="43.1446295" lon="12.7247514"><ele>833.0</ele><time>2026-04-24T09:37:22.033Z</time></trkpt><trkpt lat="43.1447366" lon="12.7248016"><ele>833.0000000000001</ele><time>2026-04-24T09:37:23.015Z</time></trkpt><trkpt lat="43.1448193" lon="12.7248415"><ele>833.0</ele><time>2026-04-24T09:37:23.993Z</time></trkpt><trkpt lat="43.1448844" lon="12.7248683"><ele>833.0</ele><time>2026-04-24T09:37:25.041Z</time></trkpt><trkpt lat="43.1450069" lon="12.7248985"><ele>833.0</ele><time>2026-04-24T09:37:27.025Z</time></trkpt><trkpt lat="43.1450839" lon="12.7249123"><ele>833.0000000000001</ele><time>2026-04-24T09:37:27.993Z</time></trkpt><trkpt lat="43.1451732" lon="12.724927"><ele>833.0</ele><time>2026-04-24T09:37:28.998Z</time></trkpt><trkpt lat="43.1452681" lon="12.7249337"><ele>833.2</ele><time>2026-04-24T09:37:30.039Z</time></trkpt><trkpt lat="43.1453675" lon="12.7249277"><ele>833.4</ele><time>2026-04-24T09:37:31.042Z</time></trkpt><trkpt lat="43.1454642" lon="12.7249209"><ele>833.6</ele><time>2026-04-24T09:37:32.002Z</time></trkpt><trkpt lat="43.1455593" lon="12.7249349"><ele>833.8000000000001</ele><time>2026-04-24T09:37:33.028Z</time></trkpt><trkpt lat="43.1456519" lon="12.7249736"><ele>834.0</ele><time>2026-04-24T09:37:34.002Z</time></trkpt><trkpt lat="43.1457523" lon="12.7250258"><ele>832.25</ele><time>2026-04-24T09:37:35.046Z</time></trkpt><trkpt lat="43.1458756" lon="12.725077"><ele>830.5</ele><time>2026-04-24T09:37:36.04Z</time></trkpt><trkpt lat="43.1460166" lon="12.7251141"><ele>828.75</ele><time>2026-04-24T09:37:37.004Z</time></trkpt><trkpt lat="43.1461503" lon="12.7251383"><ele>827.0</ele><time>2026-04-24T09:37:38.038Z</time></trkpt><trkpt lat="43.1462766" lon="12.7251645"><ele>827.0</ele><time>2026-04-24T09:37:39.001Z</time></trkpt><trkpt lat="43.1463975" lon="12.725183"><ele>827.0</ele><time>2026-04-24T09:37:40.032Z</time></trkpt><trkpt lat="43.1465075" lon="12.7252079"><ele>827.0</ele><time>2026-04-24T09:37:41.002Z</time></trkpt><trkpt lat="43.1465999" lon="12.725254"><ele>827.0</ele><time>2026-04-24T09:37:42.038Z</time></trkpt><trkpt lat="43.1466929" lon="12.7253005"><ele>827.0</ele><time>2026-04-24T09:37:43Z</time></trkpt><trkpt lat="43.1467748" lon="12.7253567"><ele>825.8</ele><time>2026-04-24T09:37:44.008Z</time></trkpt><trkpt lat="43.1468522" lon="12.7254325"><ele>824.6</ele><time>2026-04-24T09:37:45.005Z</time></trkpt><trkpt lat="43.1469244" lon="12.7255211"><ele>823.4</ele><time>2026-04-24T09:37:46.002Z</time></trkpt><trkpt lat="43.1469792" lon="12.725628"><ele>822.1999999999999</ele><time>2026-04-24T09:37:47.016Z</time></trkpt><trkpt lat="43.147014" lon="12.7257501"><ele>821.0</ele><time>2026-04-24T09:37:48.039Z</time></trkpt><trkpt lat="43.1470426" lon="12.7258869"><ele>821.0</ele><time>2026-04-24T09:37:49.046Z</time></trkpt><trkpt lat="43.1470695" lon="12.7260185"><ele>821.0</ele><time>2026-04-24T09:37:49.993Z</time></trkpt><trkpt lat="43.1471125" lon="12.7261319"><ele>821.0</ele><time>2026-04-24T09:37:51.032Z</time></trkpt><trkpt lat="43.1471678" lon="12.7262336"><ele>821.0</ele><time>2026-04-24T09:37:51.997Z</time></trkpt><trkpt lat="43.147242" lon="12.7263178"><ele>821.0</ele><time>2026-04-24T09:37:53.038Z</time></trkpt><trkpt lat="43.14733" lon="12.7263755"><ele>817.5999999999999</ele><time>2026-04-24T09:37:54.048Z</time></trkpt><trkpt lat="43.1474262" lon="12.7264081"><ele>814.2</ele><time>2026-04-24T09:37:55.002Z</time></trkpt><trkpt lat="43.1475263" lon="12.7264365"><ele>810.8</ele><time>2026-04-24T09:37:56.041Z</time></trkpt><trkpt lat="43.1476282" lon="12.7264466"><ele>807.4000000000001</ele><time>2026-04-24T09:37:57Z</time></trkpt><trkpt lat="43.1477435" lon="12.7264334"><ele>804.0</ele><time>2026-04-24T09:37:58.033Z</time></trkpt><trkpt lat="43.1478542" lon="12.7264069"><ele>804.0</ele><time>2026-04-24T09:37:59.041Z</time></trkpt><trkpt lat="43.1479632" lon="12.7263884"><ele>804.0</ele><time>2026-04-24T09:38:00.028Z</time></trkpt><trkpt lat="43.1480534" lon="12.7263799"><ele>804.0</ele><time>2026-04-24T09:38:01.003Z</time></trkpt><trkpt lat="43.1481416" lon="12.7263534"><ele>804.0</ele><time>2026-04-24T09:38:02.044Z</time></trkpt><trkpt lat="43.1482316" lon="12.7263045"><ele>804.0</ele><time>2026-04-24T09:38:03Z</time></trkpt><trkpt lat="43.1483166" lon="12.7262454"><ele>801.3333333333334</ele><time>2026-04-24T09:38:04.04Z</time></trkpt><trkpt lat="43.1483953" lon="12.726188"><ele>798.6666666666667</ele><time>2026-04-24T09:38:05.015Z</time></trkpt><trkpt lat="43.1484647" lon="12.7261548"><ele>796.0</ele><time>2026-04-24T09:38:06.018Z</time></trkpt><trkpt lat="43.1485278" lon="12.7261465"><ele>793.3333333333334</ele><time>2026-04-24T09:38:07.005Z</time></trkpt><trkpt lat="43.1486504" lon="12.7262096"><ele>790.6666666666667</ele><time>2026-04-24T09:38:09.049Z</time></trkpt><trkpt lat="43.1487137" lon="12.7262758"><ele>788.0</ele><time>2026-04-24T09:38:10.006Z</time></trkpt><trkpt lat="43.1487884" lon="12.7263541"><ele>788.0</ele><time>2026-04-24T09:38:11.002Z</time></trkpt><trkpt lat="43.1488724" lon="12.726447"><ele>788.0</ele><time>2026-04-24T09:38:12.039Z</time></trkpt><trkpt lat="43.148963" lon="12.7265398"><ele>788.0</ele><time>2026-04-24T09:38:12.999Z</time></trkpt><trkpt lat="43.1490488" lon="12.726635"><ele>788.0</ele><time>2026-04-24T09:38:14.001Z</time></trkpt><trkpt lat="43.1491398" lon="12.726733"><ele>788.0</ele><time>2026-04-24T09:38:15.022Z</time></trkpt><trkpt lat="43.1492321" lon="12.7268349"><ele>785.0</ele><time>2026-04-24T09:38:15.997Z</time></trkpt><trkpt lat="43.1493224" lon="12.7269366"><ele>782.0</ele><time>2026-04-24T09:38:17.004Z</time></trkpt><trkpt lat="43.1494072" lon="12.7270352"><ele>779.0</ele><time>2026-04-24T09:38:18Z</time></trkpt><trkpt lat="43.1494775" lon="12.7271276"><ele>776.0</ele><time>2026-04-24T09:38:19.003Z</time></trkpt><trkpt lat="43.1495473" lon="12.7272264"><ele>773.0</ele><time>2026-04-24T09:38:20.002Z</time></trkpt><trkpt lat="43.1496175" lon="12.7273248"><ele>773.0</ele><time>2026-04-24T09:38:20.997Z</time></trkpt><trkpt lat="43.1496999" lon="12.7274217"><ele>773.0</ele><time>2026-04-24T09:38:21.997Z</time></trkpt><trkpt lat="43.1498021" lon="12.7275056"><ele>773.0</ele><time>2026-04-24T09:38:23.015Z</time></trkpt><trkpt lat="43.1499006" lon="12.7275993"><ele>773.0</ele><time>2026-04-24T09:38:24.008Z</time></trkpt><trkpt lat="43.1499878" lon="12.7276872"><ele>771.5999999999999</ele><time>2026-04-24T09:38:25.005Z</time></trkpt><trkpt lat="43.150076" lon="12.7277781"><ele>770.1999999999999</ele><time>2026-04-24T09:38:26.026Z</time></trkpt><trkpt lat="43.1501815" lon="12.7278564"><ele>768.8</ele><time>2026-04-24T09:38:27.015Z</time></trkpt><trkpt lat="43.1502769" lon="12.7279081"><ele>767.4</ele><time>2026-04-24T09:38:28.015Z</time></trkpt><trkpt lat="43.150383" lon="12.7279472"><ele>766.0</ele><time>2026-04-24T09:38:29.047Z</time></trkpt><trkpt lat="43.1504905" lon="12.7279659"><ele>766.0</ele><time>2026-04-24T09:38:30.015Z</time></trkpt><trkpt lat="43.1505803" lon="12.7279733"><ele>766.0</ele><time>2026-04-24T09:38:31.01Z</time></trkpt><trkpt lat="43.1506729" lon="12.7279858"><ele>766.0</ele><time>2026-04-24T09:38:32.041Z</time></trkpt><trkpt lat="43.1507692" lon="12.7279806"><ele>766.0</ele><time>2026-04-24T09:38:33.035Z</time></trkpt><trkpt lat="43.1508581" lon="12.7279826"><ele>766.0</ele><time>2026-04-24T09:38:34.024Z</time></trkpt><trkpt lat="43.1509452" lon="12.7279869"><ele>763.0</ele><time>2026-04-24T09:38:35.028Z</time></trkpt><trkpt lat="43.1510202" lon="12.7280023"><ele>760.0</ele><time>2026-04-24T09:38:36.032Z</time></trkpt><trkpt lat="43.1510839" lon="12.7280225"><ele>757.0</ele><time>2026-04-24T09:38:37.033Z</time></trkpt><trkpt lat="43.1511911" lon="12.7281012"><ele>754.0</ele><time>2026-04-24T09:38:39.034Z</time></trkpt><trkpt lat="43.1512543" lon="12.7282567"><ele>751.0</ele><time>2026-04-24T09:38:41.037Z</time></trkpt><trkpt lat="43.1512768" lon="12.7283661"><ele>751.0</ele><time>2026-04-24T09:38:42.029Z</time></trkpt><trkpt lat="43.1512985" lon="12.7284823"><ele>751.0</ele><time>2026-04-24T09:38:43.006Z</time></trkpt><trkpt lat="43.1513283" lon="12.7286047"><ele>751.0</ele><time>2026-04-24T09:38:44.007Z</time></trkpt><trkpt lat="43.151364" lon="12.7287447"><ele>751.0</ele><time>2026-04-24T09:38:45.039Z</time></trkpt><trkpt lat="43.1514094" lon="12.7288809"><ele>751.0</ele><time>2026-04-24T09:38:46.021Z</time></trkpt><trkpt lat="43.1514615" lon="12.7290115"><ele>754.1999999999999</ele><time>2026-04-24T09:38:47.032Z</time></trkpt><trkpt lat="43.1515316" lon="12.7291154"><ele>757.4</ele><time>2026-04-24T09:38:48.038Z</time></trkpt><trkpt lat="43.1516084" lon="12.729204"><ele>760.6</ele><time>2026-04-24T09:38:49.044Z</time></trkpt><trkpt lat="43.1516943" lon="12.7292695"><ele>763.8</ele><time>2026-04-24T09:38:50.011Z</time></trkpt><trkpt lat="43.1517867" lon="12.729314"><ele>767.0</ele><time>2026-04-24T09:38:51.034Z</time></trkpt><trkpt lat="43.1518739" lon="12.7293392"><ele>762.1666666666666</ele><time>2026-04-24T09:38:52.03Z</time></trkpt><trkpt lat="43.1519577" lon="12.7293792"><ele>757.3333333333333</ele><time>2026-04-24T09:38:53.021Z</time></trkpt><trkpt lat="43.1520388" lon="12.7294376"><ele>752.5</ele><time>2026-04-24T09:38:54.029Z</time></trkpt><trkpt lat="43.1521111" lon="12.7295087"><ele>747.6666666666666</ele><time>2026-04-24T09:38:54.996Z</time></trkpt><trkpt lat="43.152156" lon="12.7295798"><ele>742.8333333333334</ele><time>2026-04-24T09:38:56.014Z</time></trkpt><trkpt lat="43.152189" lon="12.729663"><ele>738.0</ele><time>2026-04-24T09:38:57.037Z</time></trkpt><trkpt lat="43.1521983" lon="12.7297497"><ele>738.0</ele><time>2026-04-24T09:38:58.034Z</time></trkpt><trkpt lat="43.1521788" lon="12.7298469"><ele>738.0</ele><time>2026-04-24T09:38:59.045Z</time></trkpt><trkpt lat="43.1521598" lon="12.7299464"><ele>738.0</ele><time>2026-04-24T09:39:00.032Z</time></trkpt><trkpt lat="43.1521186" lon="12.7300527"><ele>738.0</ele><time>2026-04-24T09:39:01.021Z</time></trkpt><trkpt lat="43.1520926" lon="12.7301845"><ele>738.0</ele><time>2026-04-24T09:39:02.004Z</time></trkpt><trkpt lat="43.1520758" lon="12.7303267"><ele>738.0</ele><time>2026-04-24T09:39:03.036Z</time></trkpt><trkpt lat="43.1520511" lon="12.7304694"><ele>734.8</ele><time>2026-04-24T09:39:04.03Z</time></trkpt><trkpt lat="43.1520216" lon="12.730609"><ele>731.5999999999999</ele><time>2026-04-24T09:39:05.006Z</time></trkpt><trkpt lat="43.1519904" lon="12.7307374"><ele>728.4000000000001</ele><time>2026-04-24T09:39:06.039Z</time></trkpt><trkpt lat="43.1519621" lon="12.7308621"><ele>725.2</ele><time>2026-04-24T09:39:07.026Z</time></trkpt><trkpt lat="43.1519269" lon="12.7309726"><ele>722.0</ele><time>2026-04-24T09:39:08.027Z</time></trkpt><trkpt lat="43.1518893" lon="12.7310678"><ele>720.0</ele><time>2026-04-24T09:39:09.009Z</time></trkpt><trkpt lat="43.1518424" lon="12.7311488"><ele>718.0</ele><time>2026-04-24T09:39:10.041Z</time></trkpt><trkpt lat="43.151778" lon="12.7312267"><ele>716.0</ele><time>2026-04-24T09:39:11.041Z</time></trkpt><trkpt lat="43.1516976" lon="12.7312918"><ele>714.0</ele><time>2026-04-24T09:39:12.035Z</time></trkpt><trkpt lat="43.1516078" lon="12.7313576"><ele>712.0</ele><time>2026-04-24T09:39:13.04Z</time></trkpt><trkpt lat="43.151507" lon="12.7314371"><ele>712.0</ele><time>2026-04-24T09:39:14.039Z</time></trkpt><trkpt lat="43.151405" lon="12.7315149"><ele>712.0</ele><time>2026-04-24T09:39:15.041Z</time></trkpt><trkpt lat="43.1512986" lon="12.7316045"><ele>712.0</ele><time>2026-04-24T09:39:16.036Z</time></trkpt><trkpt lat="43.1511956" lon="12.731701"><ele>712.0</ele><time>2026-04-24T09:39:17.026Z</time></trkpt><trkpt lat="43.1511143" lon="12.7318106"><ele>707.5</ele><time>2026-04-24T09:39:18.026Z</time></trkpt><trkpt lat="43.1510469" lon="12.7319381"><ele>703.0</ele><time>2026-04-24T09:39:19.035Z</time></trkpt><trkpt lat="43.1509956" lon="12.7320703"><ele>698.5</ele><time>2026-04-24T09:39:20.026Z</time></trkpt><trkpt lat="43.1509575" lon="12.7322246"><ele>694.0</ele><time>2026-04-24T09:39:21.037Z</time></trkpt><trkpt lat="43.1509209" lon="12.7323885"><ele>694.0</ele><time>2026-04-24T09:39:22.029Z</time></trkpt><trkpt lat="43.1508924" lon="12.7325623"><ele>694.0</ele><time>2026-04-24T09:39:23.033Z</time></trkpt><trkpt lat="43.1508724" lon="12.732733"><ele>694.0</ele><time>2026-04-24T09:39:24Z</time></trkpt><trkpt lat="43.1508605" lon="12.7328948"><ele>694.0</ele><time>2026-04-24T09:39:25.031Z</time></trkpt><trkpt lat="43.1508443" lon="12.7330532"><ele>691.2</ele><time>2026-04-24T09:39:26.032Z</time></trkpt><trkpt lat="43.1508237" lon="12.7332063"><ele>688.4000000000001</ele><time>2026-04-24T09:39:27.038Z</time></trkpt><trkpt lat="43.1507967" lon="12.7333603"><ele>685.6</ele><time>2026-04-24T09:39:28.007Z</time></trkpt><trkpt lat="43.1507719" lon="12.7335015"><ele>682.8</ele><time>2026-04-24T09:39:29.032Z</time></trkpt><trkpt lat="43.1507346" lon="12.7336306"><ele>680.0</ele><time>2026-04-24T09:39:30.025Z</time></trkpt><trkpt lat="43.1506883" lon="12.7337486"><ele>679.8</ele><time>2026-04-24T09:39:31.009Z</time></trkpt><trkpt lat="43.1506327" lon="12.733863"><ele>679.6</ele><time>2026-04-24T09:39:32.043Z</time></trkpt><trkpt lat="43.1505678" lon="12.7339725"><ele>679.4000000000001</ele><time>2026-04-24T09:39:33.033Z</time></trkpt><trkpt lat="43.1505005" lon="12.7340709"><ele>679.2</ele><time>2026-04-24T09:39:34.034Z</time></trkpt><trkpt lat="43.1504398" lon="12.7341616"><ele>679.0</ele><time>2026-04-24T09:39:35.032Z</time></trkpt><trkpt lat="43.1503855" lon="12.7342454"><ele>679.0</ele><time>2026-04-24T09:39:36.004Z</time></trkpt><trkpt lat="43.1503433" lon="12.7343159"><ele>679.0</ele><time>2026-04-24T09:39:37.027Z</time></trkpt><trkpt lat="43.1502814" lon="12.7343749"><ele>679.0</ele><time>2026-04-24T09:39:39.046Z</time></trkpt><trkpt lat="43.1502068" lon="12.7343953"><ele>679.0</ele><time>2026-04-24T09:39:41.03Z</time></trkpt><trkpt lat="43.1500863" lon="12.7343921"><ele>679.0</ele><time>2026-04-24T09:39:43.026Z</time></trkpt><trkpt lat="43.1500216" lon="12.7343692"><ele>679.0</ele><time>2026-04-24T09:39:44.048Z</time></trkpt><trkpt lat="43.1499563" lon="12.7343317"><ele>679.0</ele><time>2026-04-24T09:39:45.043Z</time></trkpt><trkpt lat="43.1499009" lon="12.7342698"><ele>679.0</ele><time>2026-04-24T09:39:46.019Z</time></trkpt><trkpt lat="43.1498565" lon="12.7341972"><ele>679.0</ele><time>2026-04-24T09:39:47.038Z</time></trkpt><trkpt lat="43.1498088" lon="12.7341132"><ele>679.0</ele><time>2026-04-24T09:39:48.025Z</time></trkpt><trkpt lat="43.1497581" lon="12.7340272"><ele>679.0</ele><time>2026-04-24T09:39:49.036Z</time></trkpt><trkpt lat="43.1496944" lon="12.7339501"><ele>679.0</ele><time>2026-04-24T09:39:50.037Z</time></trkpt><trkpt lat="43.1496157" lon="12.7338865"><ele>677.0</ele><time>2026-04-24T09:39:51.03Z</time></trkpt><trkpt lat="43.1495278" lon="12.733832"><ele>675.0</ele><time>2026-04-24T09:39:52.043Z</time></trkpt><trkpt lat="43.1494197" lon="12.7337875"><ele>673.0</ele><time>2026-04-24T09:39:53.044Z</time></trkpt><trkpt lat="43.149295" lon="12.7337481"><ele>671.0</ele><time>2026-04-24T09:39:54.032Z</time></trkpt><trkpt lat="43.1491727" lon="12.7337088"><ele>671.0</ele><time>2026-04-24T09:39:55.035Z</time></trkpt><trkpt lat="43.1490559" lon="12.7336622"><ele>671.0</ele><time>2026-04-24T09:39:56.024Z</time></trkpt><trkpt lat="43.1489458" lon="12.7336021"><ele>671.0</ele><time>2026-04-24T09:39:57.029Z</time></trkpt><trkpt lat="43.148833" lon="12.7335184"><ele>671.0</ele><time>2026-04-24T09:39:58.029Z</time></trkpt><trkpt lat="43.1487207" lon="12.7334238"><ele>675.25</ele><time>2026-04-24T09:39:59.015Z</time></trkpt><trkpt lat="43.1486157" lon="12.7333053"><ele>679.5</ele><time>2026-04-24T09:40:00.042Z</time></trkpt><trkpt lat="43.1485149" lon="12.7331804"><ele>683.75</ele><time>2026-04-24T09:40:01.029Z</time></trkpt><trkpt lat="43.1484241" lon="12.733062"><ele>688.0</ele><time>2026-04-24T09:40:02.044Z</time></trkpt><trkpt lat="43.14835" lon="12.7329587"><ele>688.0</ele><time>2026-04-24T09:40:03.041Z</time></trkpt><trkpt lat="43.1482964" lon="12.7328733"><ele>688.0</ele><time>2026-04-24T09:40:04.039Z</time></trkpt><trkpt lat="43.1482213" lon="12.7328098"><ele>688.0</ele><time>2026-04-24T09:40:05.009Z</time></trkpt><trkpt lat="43.1481268" lon="12.7327838"><ele>688.0</ele><time>2026-04-24T09:40:06.026Z</time></trkpt><trkpt lat="43.1480288" lon="12.7327881"><ele>688.0</ele><time>2026-04-24T09:40:07.039Z</time></trkpt><trkpt lat="43.1479384" lon="12.7328065"><ele>689.5999999999999</ele><time>2026-04-24T09:40:08.03Z</time></trkpt><trkpt lat="43.1478477" lon="12.7328448"><ele>691.1999999999999</ele><time>2026-04-24T09:40:09.025Z</time></trkpt><trkpt lat="43.1477548" lon="12.732891"><ele>692.8</ele><time>2026-04-24T09:40:10.001Z</time></trkpt><trkpt lat="43.1476667" lon="12.7329396"><ele>694.4</ele><time>2026-04-24T09:40:11.039Z</time></trkpt><trkpt lat="43.1475687" lon="12.7329836"><ele>696.0</ele><time>2026-04-24T09:40:12.022Z</time></trkpt><trkpt lat="43.147466" lon="12.7329965"><ele>696.0</ele><time>2026-04-24T09:40:13.022Z</time></trkpt><trkpt lat="43.1473662" lon="12.7329714"><ele>696.0</ele><time>2026-04-24T09:40:14.039Z</time></trkpt><trkpt lat="43.1472772" lon="12.732894"><ele>696.0</ele><time>2026-04-24T09:40:15.036Z</time></trkpt><trkpt lat="43.1471908" lon="12.7328037"><ele>696.0</ele><time>2026-04-24T09:40:16.04Z</time></trkpt><trkpt lat="43.1470954" lon="12.7327377"><ele>696.0</ele><time>2026-04-24T09:40:17.022Z</time></trkpt><trkpt lat="43.1470003" lon="12.7327356"><ele>696.0</ele><time>2026-04-24T09:40:18.023Z</time></trkpt><trkpt lat="43.1469019" lon="12.7327616"><ele>696.0</ele><time>2026-04-24T09:40:19.036Z</time></trkpt><trkpt lat="43.1468079" lon="12.7328123"><ele>696.0</ele><time>2026-04-24T09:40:20.009Z</time></trkpt><trkpt lat="43.1467112" lon="12.7328472"><ele>696.0</ele><time>2026-04-24T09:40:21.001Z</time></trkpt><trkpt lat="43.1466018" lon="12.7328696"><ele>696.0</ele><time>2026-04-24T09:40:22.044Z</time></trkpt><trkpt lat="43.1464921" lon="12.7328717"><ele>695.75</ele><time>2026-04-24T09:40:23.054Z</time></trkpt><trkpt lat="43.1463723" lon="12.7328892"><ele>695.5</ele><time>2026-04-24T09:40:24.027Z</time></trkpt><trkpt lat="43.1462448" lon="12.7329043"><ele>695.25</ele><time>2026-04-24T09:40:25.038Z</time></trkpt><trkpt lat="43.1461148" lon="12.7329031"><ele>695.0</ele><time>2026-04-24T09:40:26.031Z</time></trkpt><trkpt lat="43.1459933" lon="12.7328992"><ele>695.0</ele><time>2026-04-24T09:40:27.048Z</time></trkpt><trkpt lat="43.145878" lon="12.7329033"><ele>695.0</ele><time>2026-04-24T09:40:28.018Z</time></trkpt><trkpt lat="43.1457709" lon="12.7328886"><ele>695.0</ele><time>2026-04-24T09:40:29.026Z</time></trkpt><trkpt lat="43.1456765" lon="12.7328453"><ele>695.0</ele><time>2026-04-24T09:40:30.02Z</time></trkpt><trkpt lat="43.1455955" lon="12.7327801"><ele>695.0</ele><time>2026-04-24T09:40:31.039Z</time></trkpt><trkpt lat="43.1455252" lon="12.7327037"><ele>697.8333333333333</ele><time>2026-04-24T09:40:32.038Z</time></trkpt><trkpt lat="43.1454706" lon="12.7326302"><ele>700.6666666666666</ele><time>2026-04-24T09:40:33.043Z</time></trkpt><trkpt lat="43.1454156" lon="12.732563"><ele>703.5</ele><time>2026-04-24T09:40:34.034Z</time></trkpt><trkpt lat="43.1453496" lon="12.7325064"><ele>706.3333333333334</ele><time>2026-04-24T09:40:35.035Z</time></trkpt><trkpt lat="43.1452812" lon="12.7324367"><ele>709.1666666666667</ele><time>2026-04-24T09:40:36.028Z</time></trkpt><trkpt lat="43.1452243" lon="12.7323562"><ele>712.0</ele><time>2026-04-24T09:40:37.042Z</time></trkpt><trkpt lat="43.1451837" lon="12.7322523"><ele>712.0</ele><time>2026-04-24T09:40:38.034Z</time></trkpt><trkpt lat="43.1451496" lon="12.7321544"><ele>712.0</ele><time>2026-04-24T09:40:39.036Z</time></trkpt><trkpt lat="43.1451379" lon="12.7320416"><ele>712.0</ele><time>2026-04-24T09:40:40.028Z</time></trkpt><trkpt lat="43.1451329" lon="12.7319021"><ele>712.0</ele><time>2026-04-24T09:40:41.04Z</time></trkpt><trkpt lat="43.1451307" lon="12.7317612"><ele>712.0</ele><time>2026-04-24T09:40:42.006Z</time></trkpt><trkpt lat="43.1451088" lon="12.7316279"><ele>717.0</ele><time>2026-04-24T09:40:43.041Z</time></trkpt><trkpt lat="43.1450624" lon="12.7315014"><ele>722.0</ele><time>2026-04-24T09:40:44.033Z</time></trkpt><trkpt lat="43.1450027" lon="12.731371"><ele>727.0</ele><time>2026-04-24T09:40:45.024Z</time></trkpt><trkpt lat="43.1449433" lon="12.7312333"><ele>732.0</ele><time>2026-04-24T09:40:46.002Z</time></trkpt><trkpt lat="43.1448871" lon="12.7311068"><ele>737.0</ele><time>2026-04-24T09:40:47.04Z</time></trkpt><trkpt lat="43.1448136" lon="12.7309979"><ele>741.0</ele><time>2026-04-24T09:40:48.026Z</time></trkpt><trkpt lat="43.144713" lon="12.7309156"><ele>745.0</ele><time>2026-04-24T09:40:49.036Z</time></trkpt><trkpt lat="43.1445896" lon="12.7308504"><ele>749.0</ele><time>2026-04-24T09:40:50.03Z</time></trkpt><trkpt lat="43.1444654" lon="12.7308262"><ele>753.0</ele><time>2026-04-24T09:40:51.028Z</time></trkpt><trkpt lat="43.1443383" lon="12.7308282"><ele>753.0</ele><time>2026-04-24T09:40:52.021Z</time></trkpt><trkpt lat="43.1442134" lon="12.7308379"><ele>753.0</ele><time>2026-04-24T09:40:53.038Z</time></trkpt><trkpt lat="43.1441052" lon="12.7308322"><ele>753.0</ele><time>2026-04-24T09:40:54.026Z</time></trkpt><trkpt lat="43.1440197" lon="12.7307981"><ele>753.0</ele><time>2026-04-24T09:40:55.005Z</time></trkpt><trkpt lat="43.143939" lon="12.7307378"><ele>753.0</ele><time>2026-04-24T09:40:56.015Z</time></trkpt><trkpt lat="43.1438952" lon="12.7306117"><ele>751.0</ele><time>2026-04-24T09:40:57.006Z</time></trkpt><trkpt lat="43.1438515" lon="12.7304792"><ele>749.0</ele><time>2026-04-24T09:40:58.037Z</time></trkpt><trkpt lat="43.1438433" lon="12.730351"><ele>747.0</ele><time>2026-04-24T09:40:59.033Z</time></trkpt><trkpt lat="43.143848" lon="12.7302413"><ele>745.0</ele><time>2026-04-24T09:41:00.024Z</time></trkpt><trkpt lat="43.143856" lon="12.7301386"><ele>743.0</ele><time>2026-04-24T09:41:01.002Z</time></trkpt><trkpt lat="43.1438586" lon="12.7300289"><ele>741.0</ele><time>2026-04-24T09:41:02.045Z</time></trkpt><trkpt lat="43.1438796" lon="12.729904"><ele>741.0</ele><time>2026-04-24T09:41:03.029Z</time></trkpt><trkpt lat="43.143911" lon="12.7297621"><ele>741.0</ele><time>2026-04-24T09:41:04.029Z</time></trkpt><trkpt lat="43.1439448" lon="12.7296239"><ele>741.0</ele><time>2026-04-24T09:41:05.032Z</time></trkpt><trkpt lat="43.1439768" lon="12.7294989"><ele>741.0</ele><time>2026-04-24T09:41:06.04Z</time></trkpt><trkpt lat="43.144" lon="12.7293919"><ele>741.0</ele><time>2026-04-24T09:41:07.044Z</time></trkpt><trkpt lat="43.1440072" lon="12.7292989"><ele>743.0</ele><time>2026-04-24T09:41:08.034Z</time></trkpt><trkpt lat="43.1440009" lon="12.7292063"><ele>745.0</ele><time>2026-04-24T09:41:09.021Z</time></trkpt><trkpt lat="43.1439593" lon="12.7291071"><ele>747.0</ele><time>2026-04-24T09:41:10.016Z</time></trkpt><trkpt lat="43.1439034" lon="12.7290099"><ele>749.0</ele><time>2026-04-24T09:41:10.998Z</time></trkpt><trkpt lat="43.1438457" lon="12.7289033"><ele>751.0</ele><time>2026-04-24T09:41:12.042Z</time></trkpt><trkpt lat="43.1438028" lon="12.7288007"><ele>753.0</ele><time>2026-04-24T09:41:13.005Z</time></trkpt><trkpt lat="43.1437721" lon="12.7286976"><ele>753.0</ele><time>2026-04-24T09:41:14.015Z</time></trkpt><trkpt lat="43.143763" lon="12.7285839"><ele>753.0</ele><time>2026-04-24T09:41:15.012Z</time></trkpt><trkpt lat="43.1437727" lon="12.7284588"><ele>753.0</ele><time>2026-04-24T09:41:16.009Z</time></trkpt><trkpt lat="43.1437956" lon="12.7283293"><ele>753.0</ele><time>2026-04-24T09:41:17.033Z</time></trkpt><trkpt lat="43.1438166" lon="12.7282063"><ele>753.0</ele><time>2026-04-24T09:41:18.042Z</time></trkpt><trkpt lat="43.143811" lon="12.7281064"><ele>753.0</ele><time>2026-04-24T09:41:19.037Z</time></trkpt><trkpt lat="43.1437268" lon="12.7279957"><ele>757.5999999999999</ele><time>2026-04-24T09:41:21.029Z</time></trkpt><trkpt lat="43.1436633" lon="12.727975"><ele>762.1999999999999</ele><time>2026-04-24T09:41:22.031Z</time></trkpt><trkpt lat="43.143583" lon="12.7279438"><ele>766.8</ele><time>2026-04-24T09:41:23.016Z</time></trkpt><trkpt lat="43.1434834" lon="12.7279098"><ele>771.4</ele><time>2026-04-24T09:41:24.014Z</time></trkpt><trkpt lat="43.1433798" lon="12.7278648"><ele>776.0</ele><time>2026-04-24T09:41:25.037Z</time></trkpt><trkpt lat="43.1432805" lon="12.7278027"><ele>777.8</ele><time>2026-04-24T09:41:26.034Z</time></trkpt><trkpt lat="43.1431776" lon="12.7277413"><ele>779.5999999999999</ele><time>2026-04-24T09:41:27.041Z</time></trkpt><trkpt lat="43.1430824" lon="12.7276897"><ele>781.4</ele><time>2026-04-24T09:41:28.038Z</time></trkpt><trkpt lat="43.1429945" lon="12.7276407"><ele>783.2</ele><time>2026-04-24T09:41:29.043Z</time></trkpt><trkpt lat="43.1429102" lon="12.7275827"><ele>785.0</ele><time>2026-04-24T09:41:30.043Z</time></trkpt><trkpt lat="43.142832" lon="12.727502"><ele>785.0</ele><time>2026-04-24T09:41:31.043Z</time></trkpt><trkpt lat="43.1427562" lon="12.7274039"><ele>785.0</ele><time>2026-04-24T09:41:32.037Z</time></trkpt><trkpt lat="43.1426789" lon="12.7272936"><ele>785.0</ele><time>2026-04-24T09:41:33.041Z</time></trkpt><trkpt lat="43.1426056" lon="12.7271838"><ele>785.0</ele><time>2026-04-24T09:41:34.043Z</time></trkpt><trkpt lat="43.142522" lon="12.7270839"><ele>785.0</ele><time>2026-04-24T09:41:35.042Z</time></trkpt><trkpt lat="43.1424517" lon="12.7269866"><ele>784.4</ele><time>2026-04-24T09:41:36.031Z</time></trkpt><trkpt lat="43.1423941" lon="12.7268728"><ele>783.8</ele><time>2026-04-24T09:41:37.009Z</time></trkpt><trkpt lat="43.1423463" lon="12.7267469"><ele>783.2</ele><time>2026-04-24T09:41:38.038Z</time></trkpt><trkpt lat="43.1422983" lon="12.726599"><ele>782.6</ele><time>2026-04-24T09:41:39.04Z</time></trkpt><trkpt lat="43.1422505" lon="12.7264546"><ele>782.0</ele><time>2026-04-24T09:41:40.016Z</time></trkpt><trkpt lat="43.1422113" lon="12.7263297"><ele>782.0</ele><time>2026-04-24T09:41:41.014Z</time></trkpt><trkpt lat="43.1421735" lon="12.7262231"><ele>782.0</ele><time>2026-04-24T09:41:42.033Z</time></trkpt><trkpt lat="43.1421139" lon="12.7261264"><ele>782.0</ele><time>2026-04-24T09:41:43.031Z</time></trkpt><trkpt lat="43.1420413" lon="12.7260445"><ele>782.0</ele><time>2026-04-24T09:41:44.033Z</time></trkpt><trkpt lat="43.141951" lon="12.7259809"><ele>782.0</ele><time>2026-04-24T09:41:45.028Z</time></trkpt><trkpt lat="43.1418489" lon="12.7259177"><ele>778.6</ele><time>2026-04-24T09:41:46.024Z</time></trkpt><trkpt lat="43.1417515" lon="12.7258593"><ele>775.2</ele><time>2026-04-24T09:41:47.043Z</time></trkpt><trkpt lat="43.1416725" lon="12.7257968"><ele>771.8</ele><time>2026-04-24T09:41:48.037Z</time></trkpt><trkpt lat="43.1415998" lon="12.7257268"><ele>768.4</ele><time>2026-04-24T09:41:49.013Z</time></trkpt><trkpt lat="43.1415521" lon="12.7256255"><ele>765.0</ele><time>2026-04-24T09:41:50.013Z</time></trkpt><trkpt lat="43.1415055" lon="12.7255124"><ele>765.0</ele><time>2026-04-24T09:41:51.039Z</time></trkpt><trkpt lat="43.1414339" lon="12.7253963"><ele>765.0</ele><time>2026-04-24T09:41:52.029Z</time></trkpt><trkpt lat="43.1413376" lon="12.7252712"><ele>765.0</ele><time>2026-04-24T09:41:53.044Z</time></trkpt><trkpt lat="43.1412505" lon="12.725152"><ele>765.0</ele><time>2026-04-24T09:41:54.032Z</time></trkpt><trkpt lat="43.1411638" lon="12.7250717"><ele>764.6666666666666</ele><time>2026-04-24T09:41:55.045Z</time></trkpt><trkpt lat="43.1410887" lon="12.725028"><ele>764.3333333333334</ele><time>2026-04-24T09:41:56.004Z</time></trkpt><trkpt lat="43.141011" lon="12.7250125"><ele>764.0</ele><time>2026-04-24T09:41:57.018Z</time></trkpt><trkpt lat="43.140928" lon="12.725004"><ele>763.6666666666667</ele><time>2026-04-24T09:41:58.032Z</time></trkpt><trkpt lat="43.1408495" lon="12.7249785"><ele>763.3333333333334</ele><time>2026-04-24T09:41:59.047Z</time></trkpt><trkpt lat="43.1407736" lon="12.7249306"><ele>763.0</ele><time>2026-04-24T09:42:00.028Z</time></trkpt><trkpt lat="43.1407026" lon="12.7248551"><ele>763.0</ele><time>2026-04-24T09:42:01.035Z</time></trkpt><trkpt lat="43.1406261" lon="12.7247543"><ele>763.0</ele><time>2026-04-24T09:42:02.031Z</time></trkpt><trkpt lat="43.1405473" lon="12.7246367"><ele>763.0</ele><time>2026-04-24T09:42:03.036Z</time></trkpt><trkpt lat="43.1404664" lon="12.7245188"><ele>763.0</ele><time>2026-04-24T09:42:04.038Z</time></trkpt><trkpt lat="43.1403789" lon="12.7244038"><ele>767.5999999999999</ele><time>2026-04-24T09:42:05.012Z</time></trkpt><trkpt lat="43.1402878" lon="12.724295"><ele>772.1999999999999</ele><time>2026-04-24T09:42:06.036Z</time></trkpt><trkpt lat="43.1402051" lon="12.7241885"><ele>776.8</ele><time>2026-04-24T09:42:07.004Z</time></trkpt><trkpt lat="43.1401484" lon="12.7240835"><ele>781.4</ele><time>2026-04-24T09:42:08.034Z</time></trkpt><trkpt lat="43.1401147" lon="12.72397"><ele>786.0</ele><time>2026-04-24T09:42:09.038Z</time></trkpt><trkpt lat="43.14009" lon="12.7238485"><ele>786.0000000000001</ele><time>2026-04-24T09:42:10.036Z</time></trkpt><trkpt lat="43.1400717" lon="12.723751"><ele>786.0</ele><time>2026-04-24T09:42:11.032Z</time></trkpt><trkpt lat="43.1400282" lon="12.7236799"><ele>786.0</ele><time>2026-04-24T09:42:12.011Z</time></trkpt><trkpt lat="43.1399783" lon="12.7236147"><ele>786.0</ele><time>2026-04-24T09:42:13.024Z</time></trkpt><trkpt lat="43.1399188" lon="12.7235823"><ele>786.0</ele><time>2026-04-24T09:42:14.028Z</time></trkpt><trkpt lat="43.1398456" lon="12.7235698"><ele>786.0000000000001</ele><time>2026-04-24T09:42:15.024Z</time></trkpt><trkpt lat="43.1397701" lon="12.7235554"><ele>786.0</ele><time>2026-04-24T09:42:15.998Z</time></trkpt><trkpt lat="43.1396966" lon="12.7235376"><ele>789.4</ele><time>2026-04-24T09:42:17.024Z</time></trkpt><trkpt lat="43.13963" lon="12.7234905"><ele>792.8</ele><time>2026-04-24T09:42:18.035Z</time></trkpt><trkpt lat="43.1395503" lon="12.7234198"><ele>796.1999999999999</ele><time>2026-04-24T09:42:19.003Z</time></trkpt><trkpt lat="43.1394672" lon="12.7233433"><ele>799.5999999999999</ele><time>2026-04-24T09:42:20.021Z</time></trkpt><trkpt lat="43.1393768" lon="12.7232823"><ele>803.0</ele><time>2026-04-24T09:42:21.035Z</time></trkpt><trkpt lat="43.1392925" lon="12.7232287"><ele>803.0000000000001</ele><time>2026-04-24T09:42:22.025Z</time></trkpt><trkpt lat="43.1392089" lon="12.7231741"><ele>803.0</ele><time>2026-04-24T09:42:23.037Z</time></trkpt><trkpt lat="43.1391361" lon="12.7231413"><ele>803.0</ele><time>2026-04-24T09:42:24.021Z</time></trkpt><trkpt lat="43.1390582" lon="12.7231383"><ele>803.0</ele><time>2026-04-24T09:42:25.034Z</time></trkpt><trkpt lat="43.1389773" lon="12.7231663"><ele>803.0000000000001</ele><time>2026-04-24T09:42:26.03Z</time></trkpt><trkpt lat="43.1388956" lon="12.7232348"><ele>803.0</ele><time>2026-04-24T09:42:27.022Z</time></trkpt><trkpt lat="43.138803" lon="12.7233192"><ele>802.5999999999999</ele><time>2026-04-24T09:42:28.028Z</time></trkpt><trkpt lat="43.1387189" lon="12.723408"><ele>802.1999999999999</ele><time>2026-04-24T09:42:29.024Z</time></trkpt><trkpt lat="43.1386477" lon="12.723513"><ele>801.8</ele><time>2026-04-24T09:42:30.023Z</time></trkpt><trkpt lat="43.1385757" lon="12.7236218"><ele>801.4</ele><time>2026-04-24T09:42:31.021Z</time></trkpt><trkpt lat="43.1385133" lon="12.7237172"><ele>801.0</ele><time>2026-04-24T09:42:32.031Z</time></trkpt><trkpt lat="43.1384518" lon="12.7238003"><ele>801.0</ele><time>2026-04-24T09:42:33.022Z</time></trkpt><trkpt lat="43.1383926" lon="12.7238394"><ele>801.0</ele><time>2026-04-24T09:42:34.008Z</time></trkpt><trkpt lat="43.1382882" lon="12.7238287"><ele>801.0</ele><time>2026-04-24T09:42:36.016Z</time></trkpt><trkpt lat="43.1381804" lon="12.7237699"><ele>801.0</ele><time>2026-04-24T09:42:38.026Z</time></trkpt><trkpt lat="43.1381178" lon="12.7237457"><ele>801.0</ele><time>2026-04-24T09:42:39.02Z</time></trkpt><trkpt lat="43.1380049" lon="12.7237788"><ele>801.5</ele><time>2026-04-24T09:42:41.01Z</time></trkpt><trkpt lat="43.1378846" lon="12.72388"><ele>802.0</ele><time>2026-04-24T09:42:43.032Z</time></trkpt><trkpt lat="43.1377917" lon="12.7239638"><ele>802.5</ele><time>2026-04-24T09:42:44.028Z</time></trkpt><trkpt lat="43.1377052" lon="12.7240553"><ele>803.0</ele><time>2026-04-24T09:42:45.004Z</time></trkpt><trkpt lat="43.1376356" lon="12.7241459"><ele>803.0000000000001</ele><time>2026-04-24T09:42:46.027Z</time></trkpt><trkpt lat="43.137584" lon="12.724253"><ele>803.0</ele><time>2026-04-24T09:42:47.035Z</time></trkpt><trkpt lat="43.1375342" lon="12.7243576"><ele>803.0</ele><time>2026-04-24T09:42:48.02Z</time></trkpt><trkpt lat="43.1374863" lon="12.7244546"><ele>803.0</ele><time>2026-04-24T09:42:49.033Z</time></trkpt><trkpt lat="43.1374453" lon="12.7245407"><ele>803.0000000000001</ele><time>2026-04-24T09:42:50.013Z</time></trkpt><trkpt lat="43.137405" lon="12.7246234"><ele>803.0</ele><time>2026-04-24T09:42:51.012Z</time></trkpt><trkpt lat="43.1373599" lon="12.7246965"><ele>800.2</ele><time>2026-04-24T09:42:52.033Z</time></trkpt><trkpt lat="43.1372549" lon="12.7247338"><ele>797.4</ele><time>2026-04-24T09:42:54.019Z</time></trkpt><trkpt lat="43.1371681" lon="12.7246518"><ele>794.6</ele><time>2026-04-24T09:42:56.03Z</time></trkpt><trkpt lat="43.1370705" lon="12.7245419"><ele>791.8000000000001</ele><time>2026-04-24T09:42:58.031Z</time></trkpt><trkpt lat="43.1370113" lon="12.7244577"><ele>789.0</ele><time>2026-04-24T09:42:59.015Z</time></trkpt><trkpt lat="43.136953" lon="12.7243567"><ele>789.0</ele><time>2026-04-24T09:43:00.009Z</time></trkpt><trkpt lat="43.1368976" lon="12.7242422"><ele>789.0</ele><time>2026-04-24T09:43:01.029Z</time></trkpt><trkpt lat="43.1368409" lon="12.7241199"><ele>789.0</ele><time>2026-04-24T09:43:02.042Z</time></trkpt><trkpt lat="43.1367874" lon="12.7239997"><ele>789.0</ele><time>2026-04-24T09:43:03.017Z</time></trkpt><trkpt lat="43.1367318" lon="12.7238853"><ele>789.0</ele><time>2026-04-24T09:43:04.017Z</time></trkpt><trkpt lat="43.1366739" lon="12.7237884"><ele>789.0</ele><time>2026-04-24T09:43:05.035Z</time></trkpt><trkpt lat="43.1366228" lon="12.7236916"><ele>789.0</ele><time>2026-04-24T09:43:06.023Z</time></trkpt><trkpt lat="43.1365753" lon="12.7235998"><ele>789.0</ele><time>2026-04-24T09:43:07.028Z</time></trkpt><trkpt lat="43.1365297" lon="12.7235155"><ele>789.0</ele><time>2026-04-24T09:43:08.008Z</time></trkpt><trkpt lat="43.1364855" lon="12.7234305"><ele>789.0</ele><time>2026-04-24T09:43:09.021Z</time></trkpt><trkpt lat="43.1364396" lon="12.7233383"><ele>789.0</ele><time>2026-04-24T09:43:10.017Z</time></trkpt><trkpt lat="43.1364018" lon="12.7232517"><ele>788.5</ele><time>2026-04-24T09:43:11.005Z</time></trkpt><trkpt lat="43.1363563" lon="12.7231501"><ele>788.0</ele><time>2026-04-24T09:43:11.993Z</time></trkpt><trkpt lat="43.1363015" lon="12.7230433"><ele>787.5</ele><time>2026-04-24T09:43:13.003Z</time></trkpt><trkpt lat="43.1362469" lon="12.7229385"><ele>787.0</ele><time>2026-04-24T09:43:14.014Z</time></trkpt><trkpt lat="43.1361998" lon="12.7228379"><ele>786.5</ele><time>2026-04-24T09:43:15.026Z</time></trkpt><trkpt lat="43.1361507" lon="12.722744"><ele>786.0</ele><time>2026-04-24T09:43:16.006Z</time></trkpt><trkpt lat="43.1360979" lon="12.7226561"><ele>786.0</ele><time>2026-04-24T09:43:17.009Z</time></trkpt><trkpt lat="43.1360381" lon="12.7225685"><ele>786.0</ele><time>2026-04-24T09:43:18.015Z</time></trkpt><trkpt lat="43.1359789" lon="12.7224768"><ele>786.0</ele><time>2026-04-24T09:43:19.038Z</time></trkpt><trkpt lat="43.1359204" lon="12.7223787"><ele>786.0</ele><time>2026-04-24T09:43:20.007Z</time></trkpt><trkpt lat="43.1358536" lon="12.7222821"><ele>786.0</ele><time>2026-04-24T09:43:21.041Z</time></trkpt><trkpt lat="43.135785" lon="12.7221909"><ele>784.5999999999999</ele><time>2026-04-24T09:43:22.044Z</time></trkpt><trkpt lat="43.135715" lon="12.7221035"><ele>783.2</ele><time>2026-04-24T09:43:23.022Z</time></trkpt><trkpt lat="43.1356473" lon="12.7220198"><ele>781.8</ele><time>2026-04-24T09:43:24.028Z</time></trkpt><trkpt lat="43.1355727" lon="12.7219415"><ele>780.4000000000001</ele><time>2026-04-24T09:43:25.039Z</time></trkpt><trkpt lat="43.1354975" lon="12.7218712"><ele>779.0</ele><time>2026-04-24T09:43:26.03Z</time></trkpt><trkpt lat="43.1354178" lon="12.7218151"><ele>779.0000000000001</ele><time>2026-04-24T09:43:27.043Z</time></trkpt><trkpt lat="43.1353433" lon="12.7217687"><ele>779.0</ele><time>2026-04-24T09:43:28.001Z</time></trkpt><trkpt lat="43.1352683" lon="12.7217278"><ele>779.0</ele><time>2026-04-24T09:43:29.037Z</time></trkpt><trkpt lat="43.1351971" lon="12.7217114"><ele>779.0</ele><time>2026-04-24T09:43:30.04Z</time></trkpt><trkpt lat="43.1351227" lon="12.7217182"><ele>779.0000000000001</ele><time>2026-04-24T09:43:31.025Z</time></trkpt><trkpt lat="43.1350453" lon="12.7217371"><ele>779.0</ele><time>2026-04-24T09:43:32.015Z</time></trkpt><trkpt lat="43.1349637" lon="12.7217645"><ele>779.0000000000001</ele><time>2026-04-24T09:43:33.031Z</time></trkpt><trkpt lat="43.1348918" lon="12.7217916"><ele>779.0</ele><time>2026-04-24T09:43:34.042Z</time></trkpt><trkpt lat="43.134818" lon="12.7218097"><ele>779.0</ele><time>2026-04-24T09:43:35.036Z</time></trkpt><trkpt lat="43.1347517" lon="12.7218358"><ele>779.0</ele><time>2026-04-24T09:43:36.023Z</time></trkpt><trkpt lat="43.1346886" lon="12.7218666"><ele>779.0000000000001</ele><time>2026-04-24T09:43:37.037Z</time></trkpt><trkpt lat="43.1346369" lon="12.7219163"><ele>779.0</ele><time>2026-04-24T09:43:38.033Z</time></trkpt><trkpt lat="43.1345508" lon="12.7220158"><ele>778.6</ele><time>2026-04-24T09:43:40.009Z</time></trkpt><trkpt lat="43.1344712" lon="12.722118"><ele>778.2</ele><time>2026-04-24T09:43:42.024Z</time></trkpt><trkpt lat="43.1343813" lon="12.7222235"><ele>777.8000000000001</ele><time>2026-04-24T09:43:44.021Z</time></trkpt><trkpt lat="43.1342811" lon="12.7223266"><ele>777.4000000000001</ele><time>2026-04-24T09:43:46.038Z</time></trkpt><trkpt lat="43.1342272" lon="12.722372"><ele>777.0</ele><time>2026-04-24T09:43:47.044Z</time></trkpt><trkpt lat="43.1341303" lon="12.7224568"><ele>777.0</ele><time>2026-04-24T09:43:49.028Z</time></trkpt><trkpt lat="43.1340634" lon="12.7225852"><ele>777.0</ele><time>2026-04-24T09:43:51.018Z</time></trkpt><trkpt lat="43.1340586" lon="12.7226773"><ele>777.0</ele><time>2026-04-24T09:43:52.032Z</time></trkpt><trkpt lat="43.1340664" lon="12.7227788"><ele>777.0</ele><time>2026-04-24T09:43:53.013Z</time></trkpt><trkpt lat="43.1340763" lon="12.7228964"><ele>777.0</ele><time>2026-04-24T09:43:54.038Z</time></trkpt><trkpt lat="43.1340889" lon="12.7230358"><ele>777.0</ele><time>2026-04-24T09:43:55.023Z</time></trkpt><trkpt lat="43.1340987" lon="12.7231788"><ele>776.2</ele><time>2026-04-24T09:43:56.04Z</time></trkpt><trkpt lat="43.1341056" lon="12.7233313"><ele>775.4000000000001</ele><time>2026-04-24T09:43:57.027Z</time></trkpt><trkpt lat="43.1341073" lon="12.723475"><ele>774.5999999999999</ele><time>2026-04-24T09:43:58.046Z</time></trkpt><trkpt lat="43.1341064" lon="12.7236068"><ele>773.8</ele><time>2026-04-24T09:43:59.029Z</time></trkpt><trkpt lat="43.1340993" lon="12.7237433"><ele>773.0</ele><time>2026-04-24T09:44:00.028Z</time></trkpt><trkpt lat="43.1340919" lon="12.7238827"><ele>771.4</ele><time>2026-04-24T09:44:01.043Z</time></trkpt><trkpt lat="43.1340891" lon="12.7240258"><ele>769.8</ele><time>2026-04-24T09:44:02.038Z</time></trkpt><trkpt lat="43.1340904" lon="12.7241714"><ele>768.2</ele><time>2026-04-24T09:44:03.025Z</time></trkpt><trkpt lat="43.1340843" lon="12.7243091"><ele>766.6</ele><time>2026-04-24T09:44:04.033Z</time></trkpt><trkpt lat="43.1340736" lon="12.7244428"><ele>765.0</ele><time>2026-04-24T09:44:05.034Z</time></trkpt><trkpt lat="43.1340576" lon="12.7245654"><ele>764.6666666666666</ele><time>2026-04-24T09:44:06.047Z</time></trkpt><trkpt lat="43.1340431" lon="12.7246828"><ele>764.3333333333334</ele><time>2026-04-24T09:44:07.043Z</time></trkpt><trkpt lat="43.1340281" lon="12.7247948"><ele>764.0</ele><time>2026-04-24T09:44:07.995Z</time></trkpt><trkpt lat="43.1340239" lon="12.7249071"><ele>763.6666666666667</ele><time>2026-04-24T09:44:09.027Z</time></trkpt><trkpt lat="43.1340296" lon="12.7250192"><ele>763.3333333333334</ele><time>2026-04-24T09:44:10.028Z</time></trkpt><trkpt lat="43.134046" lon="12.7251311"><ele>763.0</ele><time>2026-04-24T09:44:11.039Z</time></trkpt><trkpt lat="43.1340702" lon="12.7252486"><ele>760.3333333333334</ele><time>2026-04-24T09:44:12.031Z</time></trkpt><trkpt lat="43.1340945" lon="12.7253673"><ele>757.6666666666667</ele><time>2026-04-24T09:44:13.037Z</time></trkpt><trkpt lat="43.1341218" lon="12.7254824"><ele>755.0</ele><time>2026-04-24T09:44:14.036Z</time></trkpt><trkpt lat="43.1341417" lon="12.7255995"><ele>752.3333333333334</ele><time>2026-04-24T09:44:15.022Z</time></trkpt><trkpt lat="43.1341591" lon="12.7257109"><ele>749.6666666666666</ele><time>2026-04-24T09:44:16.026Z</time></trkpt><trkpt lat="43.1341857" lon="12.725811"><ele>747.0</ele><time>2026-04-24T09:44:17.025Z</time></trkpt><trkpt lat="43.134228" lon="12.7259007"><ele>747.0</ele><time>2026-04-24T09:44:18.024Z</time></trkpt><trkpt lat="43.1342846" lon="12.7259816"><ele>747.0</ele><time>2026-04-24T09:44:19.015Z</time></trkpt><trkpt lat="43.1343523" lon="12.7260647"><ele>747.0</ele><time>2026-04-24T09:44:20.034Z</time></trkpt><trkpt lat="43.1344011" lon="12.726164"><ele>747.0</ele><time>2026-04-24T09:44:21.04Z</time></trkpt><trkpt lat="43.1344338" lon="12.726289"><ele>747.0</ele><time>2026-04-24T09:44:22.032Z</time></trkpt><trkpt lat="43.1344546" lon="12.7264138"><ele>745.3333333333334</ele><time>2026-04-24T09:44:23Z</time></trkpt><trkpt lat="43.1344696" lon="12.7265299"><ele>743.6666666666666</ele><time>2026-04-24T09:44:24.012Z</time></trkpt><trkpt lat="43.1344721" lon="12.7266339"><ele>742.0</ele><time>2026-04-24T09:44:25.015Z</time></trkpt><trkpt lat="43.1344534" lon="12.7267278"><ele>740.3333333333333</ele><time>2026-04-24T09:44:26.025Z</time></trkpt><trkpt lat="43.1344159" lon="12.7268095"><ele>738.6666666666666</ele><time>2026-04-24T09:44:27.029Z</time></trkpt><trkpt lat="43.1343634" lon="12.7268899"><ele>737.0</ele><time>2026-04-24T09:44:28.03Z</time></trkpt><trkpt lat="43.1343076" lon="12.7269711"><ele>734.6666666666666</ele><time>2026-04-24T09:44:29.023Z</time></trkpt><trkpt lat="43.1342591" lon="12.7270384"><ele>732.3333333333333</ele><time>2026-04-24T09:44:30.045Z</time></trkpt><trkpt lat="43.1342193" lon="12.7271729"><ele>730.0</ele><time>2026-04-24T09:44:32.029Z</time></trkpt><trkpt lat="43.1342636" lon="12.7272858"><ele>727.6666666666666</ele><time>2026-04-24T09:44:34.023Z</time></trkpt><trkpt lat="43.1343192" lon="12.7273616"><ele>725.3333333333334</ele><time>2026-04-24T09:44:35.029Z</time></trkpt><trkpt lat="43.1343707" lon="12.7274444"><ele>723.0</ele><time>2026-04-24T09:44:36.03Z</time></trkpt><trkpt lat="43.134421" lon="12.7275221"><ele>723.0</ele><time>2026-04-24T09:44:37.033Z</time></trkpt><trkpt lat="43.1344795" lon="12.727601"><ele>723.0</ele><time>2026-04-24T09:44:38.023Z</time></trkpt><trkpt lat="43.1345516" lon="12.7276717"><ele>723.0</ele><time>2026-04-24T09:44:39.027Z</time></trkpt><trkpt lat="43.1346304" lon="12.7277263"><ele>723.0</ele><time>2026-04-24T09:44:40.025Z</time></trkpt><trkpt lat="43.1347017" lon="12.7277652"><ele>723.0</ele><time>2026-04-24T09:44:41.036Z</time></trkpt><trkpt lat="43.1348216" lon="12.7278058"><ele>722.0000000000001</ele><time>2026-04-24T09:44:43.035Z</time></trkpt><trkpt lat="43.1348863" lon="12.7277957"><ele>721.0</ele><time>2026-04-24T09:44:44.026Z</time></trkpt><trkpt lat="43.134948" lon="12.727762"><ele>720.0</ele><time>2026-04-24T09:44:45.033Z</time></trkpt><trkpt lat="43.134998" lon="12.7277061"><ele>719.0</ele><time>2026-04-24T09:44:46.021Z</time></trkpt><trkpt lat="43.1350388" lon="12.7276393"><ele>718.0</ele><time>2026-04-24T09:44:47.023Z</time></trkpt><trkpt lat="43.1350693" lon="12.7275605"><ele>717.0000000000001</ele><time>2026-04-24T09:44:48.012Z</time></trkpt><trkpt lat="43.1350919" lon="12.727476"><ele>716.0</ele><time>2026-04-24T09:44:49.02Z</time></trkpt><trkpt lat="43.1351171" lon="12.7273792"><ele>715.3333333333333</ele><time>2026-04-24T09:44:50.034Z</time></trkpt><trkpt lat="43.1351407" lon="12.7272915"><ele>714.6666666666666</ele><time>2026-04-24T09:44:51.037Z</time></trkpt><trkpt lat="43.1351722" lon="12.7271581"><ele>714.0</ele><time>2026-04-24T09:44:53.035Z</time></trkpt><trkpt lat="43.1352187" lon="12.7270936"><ele>713.3333333333334</ele><time>2026-04-24T09:44:55.038Z</time></trkpt><trkpt lat="43.1352644" lon="12.7271609"><ele>712.6666666666667</ele><time>2026-04-24T09:44:56.999Z</time></trkpt><trkpt lat="43.1352833" lon="12.7272524"><ele>712.0</ele><time>2026-04-24T09:44:58.026Z</time></trkpt><trkpt lat="43.1353059" lon="12.7273667"><ele>712.0</ele><time>2026-04-24T09:44:59.023Z</time></trkpt><trkpt lat="43.1353285" lon="12.7274736"><ele>712.0</ele><time>2026-04-24T09:45:00.026Z</time></trkpt><trkpt lat="43.1353539" lon="12.727587"><ele>712.0</ele><time>2026-04-24T09:45:01.034Z</time></trkpt><trkpt lat="43.1353736" lon="12.7277006"><ele>712.0</ele><time>2026-04-24T09:45:02.023Z</time></trkpt><trkpt lat="43.1353855" lon="12.7278186"><ele>712.0</ele><time>2026-04-24T09:45:03.033Z</time></trkpt><trkpt lat="43.1353943" lon="12.7279266"><ele>712.0</ele><time>2026-04-24T09:45:04.007Z</time></trkpt><trkpt lat="43.1354089" lon="12.7280235"><ele>710.4000000000001</ele><time>2026-04-24T09:45:05.023Z</time></trkpt><trkpt lat="43.1354763" lon="12.7281665"><ele>708.8000000000001</ele><time>2026-04-24T09:45:07.022Z</time></trkpt><trkpt lat="43.1355252" lon="12.7282268"><ele>707.2</ele><time>2026-04-24T09:45:08.022Z</time></trkpt><trkpt lat="43.1356054" lon="12.7282879"><ele>705.6</ele><time>2026-04-24T09:45:09.038Z</time></trkpt><trkpt lat="43.1356947" lon="12.7283313"><ele>704.0</ele><time>2026-04-24T09:45:10.023Z</time></trkpt><trkpt lat="43.1357917" lon="12.7283499"><ele>702.6666666666666</ele><time>2026-04-24T09:45:10.995Z</time></trkpt><trkpt lat="43.1358786" lon="12.7283376"><ele>701.3333333333333</ele><time>2026-04-24T09:45:12.017Z</time></trkpt><trkpt lat="43.1359636" lon="12.7283041"><ele>700.0</ele><time>2026-04-24T09:45:13.038Z</time></trkpt><trkpt lat="43.136048" lon="12.7282862"><ele>698.6666666666666</ele><time>2026-04-24T09:45:14.037Z</time></trkpt><trkpt lat="43.1361228" lon="12.7282846"><ele>697.3333333333334</ele><time>2026-04-24T09:45:15.039Z</time></trkpt><trkpt lat="43.1361936" lon="12.7283205"><ele>696.0</ele><time>2026-04-24T09:45:16.011Z</time></trkpt><trkpt lat="43.1362655" lon="12.7283911"><ele>696.0</ele><time>2026-04-24T09:45:17.021Z</time></trkpt><trkpt lat="43.1363302" lon="12.7284836"><ele>696.0</ele><time>2026-04-24T09:45:18.019Z</time></trkpt><trkpt lat="43.1363928" lon="12.7285724"><ele>696.0</ele><time>2026-04-24T09:45:19.038Z</time></trkpt><trkpt lat="43.136449" lon="12.7286571"><ele>696.0</ele><time>2026-04-24T09:45:20.024Z</time></trkpt><trkpt lat="43.1364991" lon="12.7287394"><ele>696.0</ele><time>2026-04-24T09:45:21.039Z</time></trkpt><trkpt lat="43.1365373" lon="12.728813"><ele>696.0</ele><time>2026-04-24T09:45:22.038Z</time></trkpt><trkpt lat="43.1365772" lon="12.728884"><ele>696.3333333333334</ele><time>2026-04-24T09:45:25.008Z</time></trkpt><trkpt lat="43.1366261" lon="12.7289702"><ele>696.6666666666666</ele><time>2026-04-24T09:45:42.021Z</time></trkpt><trkpt lat="43.1367023" lon="12.7290962"><ele>697.0</ele><time>2026-04-24T09:45:44.019Z</time></trkpt><trkpt lat="43.1367432" lon="12.7291788"><ele>697.3333333333333</ele><time>2026-04-24T09:45:45.032Z</time></trkpt><trkpt lat="43.1367899" lon="12.7292667"><ele>697.6666666666666</ele><time>2026-04-24T09:45:46.033Z</time></trkpt><trkpt lat="43.1368409" lon="12.7293679"><ele>698.0</ele><time>2026-04-24T09:45:47.014Z</time></trkpt><trkpt lat="43.1368984" lon="12.729486"><ele>700.8</ele><time>2026-04-24T09:45:48.017Z</time></trkpt><trkpt lat="43.136947" lon="12.7296197"><ele>703.5999999999999</ele><time>2026-04-24T09:45:49.021Z</time></trkpt><trkpt lat="43.1370005" lon="12.7297602"><ele>706.4000000000001</ele><time>2026-04-24T09:45:49.998Z</time></trkpt><trkpt lat="43.1370584" lon="12.7298873"><ele>709.2</ele><time>2026-04-24T09:45:51.035Z</time></trkpt><trkpt lat="43.1371339" lon="12.7299778"><ele>712.0</ele><time>2026-04-24T09:45:52.022Z</time></trkpt><trkpt lat="43.1372272" lon="12.7300284"><ele>712.0</ele><time>2026-04-24T09:45:53.025Z</time></trkpt><trkpt lat="43.1373311" lon="12.7300735"><ele>712.0</ele><time>2026-04-24T09:45:54.033Z</time></trkpt><trkpt lat="43.1374384" lon="12.7301329"><ele>712.0</ele><time>2026-04-24T09:45:55.036Z</time></trkpt><trkpt lat="43.137523" lon="12.7301956"><ele>712.0</ele><time>2026-04-24T09:45:56.019Z</time></trkpt><trkpt lat="43.1375812" lon="12.7302646"><ele>712.0</ele><time>2026-04-24T09:45:57.018Z</time></trkpt><trkpt lat="43.1376252" lon="12.7303487"><ele>713.2</ele><time>2026-04-24T09:45:58.028Z</time></trkpt><trkpt lat="43.1376609" lon="12.7304501"><ele>714.4000000000001</ele><time>2026-04-24T09:45:59.022Z</time></trkpt><trkpt lat="43.1376921" lon="12.7305749"><ele>715.5999999999999</ele><time>2026-04-24T09:46:00.012Z</time></trkpt><trkpt lat="43.1377235" lon="12.730731"><ele>716.8</ele><time>2026-04-24T09:46:01.001Z</time></trkpt><trkpt lat="43.1377662" lon="12.7308903"><ele>718.0</ele><time>2026-04-24T09:46:02.026Z</time></trkpt><trkpt lat="43.1378076" lon="12.7310199"><ele>718.8</ele><time>2026-04-24T09:46:03.037Z</time></trkpt><trkpt lat="43.1378566" lon="12.7311351"><ele>719.5999999999999</ele><time>2026-04-24T09:46:04.035Z</time></trkpt><trkpt lat="43.137924" lon="12.7312295"><ele>720.4000000000001</ele><time>2026-04-24T09:46:05.033Z</time></trkpt><trkpt lat="43.1380214" lon="12.7312975"><ele>721.2</ele><time>2026-04-24T09:46:06.024Z</time></trkpt><trkpt lat="43.138137" lon="12.7313545"><ele>722.0</ele><time>2026-04-24T09:46:07.02Z</time></trkpt><trkpt lat="43.138254" lon="12.7314"><ele>722.0</ele><time>2026-04-24T09:46:08.033Z</time></trkpt><trkpt lat="43.1383558" lon="12.7314483"><ele>722.0</ele><time>2026-04-24T09:46:09.03Z</time></trkpt><trkpt lat="43.1384459" lon="12.7315052"><ele>722.0</ele><time>2026-04-24T09:46:10.036Z</time></trkpt><trkpt lat="43.1385083" lon="12.7315813"><ele>722.0</ele><time>2026-04-24T09:46:11.035Z</time></trkpt><trkpt lat="43.1385489" lon="12.7316928"><ele>722.0</ele><time>2026-04-24T09:46:12.021Z</time></trkpt><trkpt lat="43.1385728" lon="12.7318314"><ele>724.0</ele><time>2026-04-24T09:46:13.042Z</time></trkpt><trkpt lat="43.1386003" lon="12.7319723"><ele>726.0</ele><time>2026-04-24T09:46:14.018Z</time></trkpt><trkpt lat="43.138641" lon="12.7320841"><ele>728.0</ele><time>2026-04-24T09:46:15.034Z</time></trkpt><trkpt lat="43.1387022" lon="12.7321884"><ele>730.0</ele><time>2026-04-24T09:46:15.994Z</time></trkpt><trkpt lat="43.1387603" lon="12.7322941"><ele>732.0</ele><time>2026-04-24T09:46:17.021Z</time></trkpt><trkpt lat="43.1388153" lon="12.7324008"><ele>732.0</ele><time>2026-04-24T09:46:18.031Z</time></trkpt><trkpt lat="43.1388364" lon="12.7325258"><ele>732.0</ele><time>2026-04-24T09:46:19.027Z</time></trkpt><trkpt lat="43.1388241" lon="12.7326594"><ele>732.0</ele><time>2026-04-24T09:46:20.026Z</time></trkpt><trkpt lat="43.1387953" lon="12.7328201"><ele>732.0</ele><time>2026-04-24T09:46:21.02Z</time></trkpt><trkpt lat="43.1387642" lon="12.7329706"><ele>732.0</ele><time>2026-04-24T09:46:22.016Z</time></trkpt><trkpt lat="43.1387547" lon="12.7331089"><ele>732.5</ele><time>2026-04-24T09:46:23.025Z</time></trkpt><trkpt lat="43.1387733" lon="12.7332353"><ele>733.0</ele><time>2026-04-24T09:46:24.025Z</time></trkpt><trkpt lat="43.138814" lon="12.7333852"><ele>733.5</ele><time>2026-04-24T09:46:25.018Z</time></trkpt><trkpt lat="43.1388767" lon="12.7335533"><ele>734.0</ele><time>2026-04-24T09:46:26.03Z</time></trkpt><trkpt lat="43.1389537" lon="12.7337257"><ele>735.3333333333333</ele><time>2026-04-24T09:46:27.016Z</time></trkpt><trkpt lat="43.1390368" lon="12.7339082"><ele>736.6666666666666</ele><time>2026-04-24T09:46:28.03Z</time></trkpt><trkpt lat="43.1391276" lon="12.7341027"><ele>738.0</ele><time>2026-04-24T09:46:29.02Z</time></trkpt><trkpt lat="43.1392173" lon="12.734281"><ele>737.5</ele><time>2026-04-24T09:46:30.03Z</time></trkpt><trkpt lat="43.1393105" lon="12.7344384"><ele>737.0</ele><time>2026-04-24T09:46:31.013Z</time></trkpt><trkpt lat="43.1393911" lon="12.7345768"><ele>736.5</ele><time>2026-04-24T09:46:32.031Z</time></trkpt><trkpt lat="43.1394696" lon="12.7347037"><ele>736.0</ele><time>2026-04-24T09:46:33.029Z</time></trkpt><trkpt lat="43.1395415" lon="12.7348194"><ele>736.0</ele><time>2026-04-24T09:46:34.012Z</time></trkpt><trkpt lat="43.1396029" lon="12.7349396"><ele>736.0</ele><time>2026-04-24T09:46:35.04Z</time></trkpt><trkpt lat="43.1396583" lon="12.735046"><ele>736.0</ele><time>2026-04-24T09:46:36.041Z</time></trkpt><trkpt lat="43.1397136" lon="12.7351491"><ele>736.0</ele><time>2026-04-24T09:46:37.029Z</time></trkpt><trkpt lat="43.1397758" lon="12.7352531"><ele>736.0</ele><time>2026-04-24T09:46:38.035Z</time></trkpt><trkpt lat="43.1398384" lon="12.7353483"><ele>735.0</ele><time>2026-04-24T09:46:39.038Z</time></trkpt><trkpt lat="43.139885" lon="12.7354435"><ele>734.0</ele><time>2026-04-24T09:46:40.028Z</time></trkpt><trkpt lat="43.1399131" lon="12.7355649"><ele>733.0</ele><time>2026-04-24T09:46:41.027Z</time></trkpt><trkpt lat="43.1399333" lon="12.7357154"><ele>732.0</ele><time>2026-04-24T09:46:41.997Z</time></trkpt><trkpt lat="43.1399701" lon="12.735889"><ele>731.0</ele><time>2026-04-24T09:46:43.031Z</time></trkpt><trkpt lat="43.1400371" lon="12.7360699"><ele>731.0</ele><time>2026-04-24T09:46:44.013Z</time></trkpt><trkpt lat="43.1401118" lon="12.7362651"><ele>731.0</ele><time>2026-04-24T09:46:45.023Z</time></trkpt><trkpt lat="43.1401734" lon="12.7364435"><ele>731.0</ele><time>2026-04-24T09:46:45.994Z</time></trkpt><trkpt lat="43.1402368" lon="12.7366105"><ele>731.0</ele><time>2026-04-24T09:46:47.029Z</time></trkpt><trkpt lat="43.1402921" lon="12.7367628"><ele>733.5</ele><time>2026-04-24T09:46:48.022Z</time></trkpt><trkpt lat="43.1403427" lon="12.7369065"><ele>736.0</ele><time>2026-04-24T09:46:49.016Z</time></trkpt><trkpt lat="43.1403851" lon="12.7370532"><ele>738.5</ele><time>2026-04-24T09:46:50.012Z</time></trkpt><trkpt lat="43.1404069" lon="12.7372056"><ele>741.0</ele><time>2026-04-24T09:46:51.004Z</time></trkpt><trkpt lat="43.1404177" lon="12.7373646"><ele>741.0</ele><time>2026-04-24T09:46:52.01Z</time></trkpt><trkpt lat="43.140415" lon="12.7375211"><ele>741.0</ele><time>2026-04-24T09:46:53.019Z</time></trkpt><trkpt lat="43.1404062" lon="12.7376766"><ele>741.0</ele><time>2026-04-24T09:46:54.033Z</time></trkpt><trkpt lat="43.1403835" lon="12.7378187"><ele>741.0</ele><time>2026-04-24T09:46:55.036Z</time></trkpt><trkpt lat="43.140352" lon="12.7379598"><ele>741.0</ele><time>2026-04-24T09:46:56.025Z</time></trkpt><trkpt lat="43.1403156" lon="12.7380946"><ele>739.4</ele><time>2026-04-24T09:46:57.016Z</time></trkpt><trkpt lat="43.1402813" lon="12.7382214"><ele>737.8</ele><time>2026-04-24T09:46:58.014Z</time></trkpt><trkpt lat="43.1402548" lon="12.7383463"><ele>736.1999999999999</ele><time>2026-04-24T09:46:59.015Z</time></trkpt><trkpt lat="43.1402483" lon="12.7384651"><ele>734.5999999999999</ele><time>2026-04-24T09:47:00.016Z</time></trkpt><trkpt lat="43.1402754" lon="12.7385823"><ele>733.0</ele><time>2026-04-24T09:47:01.011Z</time></trkpt><trkpt lat="43.1403401" lon="12.7386999"><ele>732.2</ele><time>2026-04-24T09:47:02.02Z</time></trkpt><trkpt lat="43.1404336" lon="12.7388123"><ele>731.4</ele><time>2026-04-24T09:47:03.013Z</time></trkpt><trkpt lat="43.1405289" lon="12.7389208"><ele>730.6</ele><time>2026-04-24T09:47:04.009Z</time></trkpt><trkpt lat="43.1406013" lon="12.7390171"><ele>729.8000000000001</ele><time>2026-04-24T09:47:05.005Z</time></trkpt><trkpt lat="43.1406535" lon="12.7391142"><ele>729.0</ele><time>2026-04-24T09:47:06.021Z</time></trkpt><trkpt lat="43.1406821" lon="12.7392237"><ele>729.0</ele><time>2026-04-24T09:47:07.034Z</time></trkpt><trkpt lat="43.140685" lon="12.7393572"><ele>729.0</ele><time>2026-04-24T09:47:08.027Z</time></trkpt><trkpt lat="43.1406398" lon="12.7394761"><ele>729.0</ele><time>2026-04-24T09:47:09.028Z</time></trkpt><trkpt lat="43.1405701" lon="12.7395961"><ele>729.0</ele><time>2026-04-24T09:47:10.003Z</time></trkpt><trkpt lat="43.1404746" lon="12.7397086"><ele>729.0</ele><time>2026-04-24T09:47:11.014Z</time></trkpt><trkpt lat="43.1404161" lon="12.7398448"><ele>728.25</ele><time>2026-04-24T09:47:12.024Z</time></trkpt><trkpt lat="43.1403944" lon="12.7400075"><ele>727.5</ele><time>2026-04-24T09:47:13.025Z</time></trkpt><trkpt lat="43.1403844" lon="12.7401773"><ele>726.75</ele><time>2026-04-24T09:47:14.006Z</time></trkpt><trkpt lat="43.1403783" lon="12.7403391"><ele>726.0</ele><time>2026-04-24T09:47:15.025Z</time></trkpt><trkpt lat="43.1403688" lon="12.7405065"><ele>722.5</ele><time>2026-04-24T09:47:16.013Z</time></trkpt><trkpt lat="43.1403291" lon="12.7406667"><ele>719.0</ele><time>2026-04-24T09:47:17.012Z</time></trkpt><trkpt lat="43.1402909" lon="12.7408268"><ele>715.5</ele><time>2026-04-24T09:47:18.017Z</time></trkpt><trkpt lat="43.1402639" lon="12.7409796"><ele>712.0</ele><time>2026-04-24T09:47:19.008Z</time></trkpt><trkpt lat="43.1402563" lon="12.7411313"><ele>709.0</ele><time>2026-04-24T09:47:20.026Z</time></trkpt><trkpt lat="43.1402642" lon="12.7412712"><ele>706.0</ele><time>2026-04-24T09:47:21.017Z</time></trkpt><trkpt lat="43.1402796" lon="12.7413966"><ele>703.0</ele><time>2026-04-24T09:47:22.026Z</time></trkpt><trkpt lat="43.1403082" lon="12.7415079"><ele>700.0</ele><time>2026-04-24T09:47:23.022Z</time></trkpt><trkpt lat="43.140348" lon="12.7416157"><ele>697.0</ele><time>2026-04-24T09:47:24Z</time></trkpt><trkpt lat="43.1403975" lon="12.741709"><ele>697.0</ele><time>2026-04-24T09:47:25.03Z</time></trkpt><trkpt lat="43.1404479" lon="12.7418039"><ele>697.0</ele><time>2026-04-24T09:47:26.016Z</time></trkpt><trkpt lat="43.1404927" lon="12.7418888"><ele>697.0</ele><time>2026-04-24T09:47:27.003Z</time></trkpt><trkpt lat="43.140502" lon="12.7420426"><ele>697.0</ele><time>2026-04-24T09:47:29.02Z</time></trkpt><trkpt lat="43.1404649" lon="12.7421822"><ele>697.0</ele><time>2026-04-24T09:47:31.023Z</time></trkpt><trkpt lat="43.140397" lon="12.7423161"><ele>695.0</ele><time>2026-04-24T09:47:33.023Z</time></trkpt><trkpt lat="43.1403487" lon="12.7423958"><ele>693.0</ele><time>2026-04-24T09:47:34.014Z</time></trkpt><trkpt lat="43.1402977" lon="12.7424798"><ele>691.0</ele><time>2026-04-24T09:47:35.025Z</time></trkpt><trkpt lat="43.1402437" lon="12.7425587"><ele>689.0</ele><time>2026-04-24T09:47:36.002Z</time></trkpt><trkpt lat="43.1401874" lon="12.7426351"><ele>687.0</ele><time>2026-04-24T09:47:37.029Z</time></trkpt><trkpt lat="43.1401291" lon="12.7427137"><ele>685.0</ele><time>2026-04-24T09:47:38.032Z</time></trkpt><trkpt lat="43.1400683" lon="12.7427965"><ele>683.0</ele><time>2026-04-24T09:47:39.021Z</time></trkpt><trkpt lat="43.1400014" lon="12.7428708"><ele>681.0</ele><time>2026-04-24T09:47:40.013Z</time></trkpt><trkpt lat="43.1399268" lon="12.7429426"><ele>679.0</ele><time>2026-04-24T09:47:41.031Z</time></trkpt><trkpt lat="43.1398497" lon="12.7429825"><ele>677.0</ele><time>2026-04-24T09:47:42.017Z</time></trkpt><trkpt lat="43.1397646" lon="12.7430115"><ele>675.0</ele><time>2026-04-24T09:47:43.008Z</time></trkpt><trkpt lat="43.1396828" lon="12.7430557"><ele>673.0</ele><time>2026-04-24T09:47:44.001Z</time></trkpt><trkpt lat="43.139611" lon="12.7431262"><ele>672.2</ele><time>2026-04-24T09:47:45.014Z</time></trkpt><trkpt lat="43.1395446" lon="12.7432135"><ele>671.4</ele><time>2026-04-24T09:47:46.015Z</time></trkpt><trkpt lat="43.1394817" lon="12.7433218"><ele>670.6</ele><time>2026-04-24T09:47:47.012Z</time></trkpt><trkpt lat="43.1394351" lon="12.7434396"><ele>669.8000000000001</ele><time>2026-04-24T09:47:48.007Z</time></trkpt><trkpt lat="43.1394003" lon="12.7435587"><ele>669.0</ele><time>2026-04-24T09:47:49.009Z</time></trkpt><trkpt lat="43.1393698" lon="12.7436645"><ele>667.5</ele><time>2026-04-24T09:47:50.014Z</time></trkpt><trkpt lat="43.1393433" lon="12.7437649"><ele>666.0</ele><time>2026-04-24T09:47:51.009Z</time></trkpt><trkpt lat="43.1393153" lon="12.7438609"><ele>664.5</ele><time>2026-04-24T09:47:52.006Z</time></trkpt><trkpt lat="43.1392838" lon="12.7439488"><ele>663.0</ele><time>2026-04-24T09:47:53.017Z</time></trkpt><trkpt lat="43.1392491" lon="12.7440301"><ele>661.5</ele><time>2026-04-24T09:47:54.009Z</time></trkpt><trkpt lat="43.1391913" lon="12.744117"><ele>660.0</ele><time>2026-04-24T09:47:56.009Z</time></trkpt><trkpt lat="43.1392775" lon="12.7440623"><ele>660.0</ele><time>2026-04-24T09:48:13.01Z</time></trkpt><trkpt lat="43.1394106" lon="12.7440453"><ele>660.0</ele><time>2026-04-24T09:48:15.014Z</time></trkpt><trkpt lat="43.1394843" lon="12.7440798"><ele>660.0</ele><time>2026-04-24T09:48:16.01Z</time></trkpt><trkpt lat="43.1395772" lon="12.7441303"><ele>660.0</ele><time>2026-04-24T09:48:17.01Z</time></trkpt><trkpt lat="43.1396742" lon="12.744192"><ele>660.0</ele><time>2026-04-24T09:48:18.012Z</time></trkpt><trkpt lat="43.1397813" lon="12.7442532"><ele>660.0</ele><time>2026-04-24T09:48:19.014Z</time></trkpt><trkpt lat="43.1398976" lon="12.7443092"><ele>660.0</ele><time>2026-04-24T09:48:20.006Z</time></trkpt><trkpt lat="43.1400274" lon="12.7443611"><ele>660.0</ele><time>2026-04-24T09:48:21.021Z</time></trkpt><trkpt lat="43.1401683" lon="12.7444042"><ele>660.0</ele><time>2026-04-24T09:48:22.01Z</time></trkpt><trkpt lat="43.1403135" lon="12.7444534"><ele>658.0</ele><time>2026-04-24T09:48:23.022Z</time></trkpt><trkpt lat="43.1404635" lon="12.7445037"><ele>656.0</ele><time>2026-04-24T09:48:24.004Z</time></trkpt><trkpt lat="43.1406178" lon="12.7445553"><ele>654.0</ele><time>2026-04-24T09:48:25.035Z</time></trkpt><trkpt lat="43.1407673" lon="12.7446086"><ele>654.0</ele><time>2026-04-24T09:48:26.029Z</time></trkpt><trkpt lat="43.1409077" lon="12.7446581"><ele>654.0</ele><time>2026-04-24T09:48:27.016Z</time></trkpt><trkpt lat="43.1410347" lon="12.7447119"><ele>654.0</ele><time>2026-04-24T09:48:28.013Z</time></trkpt><trkpt lat="43.1411547" lon="12.7447648"><ele>654.0</ele><time>2026-04-24T09:48:29.021Z</time></trkpt><trkpt lat="43.1412821" lon="12.7448186"><ele>654.0</ele><time>2026-04-24T09:48:30.005Z</time></trkpt><trkpt lat="43.141413" lon="12.7448702"><ele>654.0</ele><time>2026-04-24T09:48:31.026Z</time></trkpt><trkpt lat="43.1415411" lon="12.744905"><ele>654.0</ele><time>2026-04-24T09:48:32.004Z</time></trkpt><trkpt lat="43.1416687" lon="12.7449224"><ele>654.0</ele><time>2026-04-24T09:48:33.038Z</time></trkpt><trkpt lat="43.1417972" lon="12.744924"><ele>656.0</ele><time>2026-04-24T09:48:34.007Z</time></trkpt><trkpt lat="43.1419192" lon="12.7448998"><ele>658.0</ele><time>2026-04-24T09:48:35.013Z</time></trkpt><trkpt lat="43.1420381" lon="12.7448519"><ele>660.0</ele><time>2026-04-24T09:48:36.016Z</time></trkpt><trkpt lat="43.1421562" lon="12.7447766"><ele>662.0</ele><time>2026-04-24T09:48:37.017Z</time></trkpt><trkpt lat="43.1422689" lon="12.7446836"><ele>662.0</ele><time>2026-04-24T09:48:38.019Z</time></trkpt><trkpt lat="43.1423671" lon="12.7445534"><ele>662.0</ele><time>2026-04-24T09:48:39.013Z</time></trkpt><trkpt lat="43.1424759" lon="12.7444194"><ele>662.0</ele><time>2026-04-24T09:48:40.009Z</time></trkpt><trkpt lat="43.1425772" lon="12.7442994"><ele>662.0</ele><time>2026-04-24T09:48:41.017Z</time></trkpt><trkpt lat="43.1426858" lon="12.7441896"><ele>664.0</ele><time>2026-04-24T09:48:42.014Z</time></trkpt><trkpt lat="43.1428043" lon="12.7440866"><ele>666.0</ele><time>2026-04-24T09:48:43.009Z</time></trkpt><trkpt lat="43.1429262" lon="12.7439821"><ele>668.0</ele><time>2026-04-24T09:48:44.006Z</time></trkpt><trkpt lat="43.143051" lon="12.7438819"><ele>670.0</ele><time>2026-04-24T09:48:45.022Z</time></trkpt><trkpt lat="43.1431763" lon="12.7437815"><ele>669.0</ele><time>2026-04-24T09:48:46.007Z</time></trkpt><trkpt lat="43.1433014" lon="12.7436822"><ele>668.0</ele><time>2026-04-24T09:48:47.015Z</time></trkpt><trkpt lat="43.1434188" lon="12.743592"><ele>667.0</ele><time>2026-04-24T09:48:48.01Z</time></trkpt><trkpt lat="43.1435294" lon="12.7434966"><ele>666.0</ele><time>2026-04-24T09:48:49.018Z</time></trkpt><trkpt lat="43.1436336" lon="12.7433901"><ele>666.0</ele><time>2026-04-24T09:48:50.027Z</time></trkpt><trkpt lat="43.1437358" lon="12.7432801"><ele>666.0</ele><time>2026-04-24T09:48:51.02Z</time></trkpt><trkpt lat="43.1438313" lon="12.7431601"><ele>666.0</ele><time>2026-04-24T09:48:52.013Z</time></trkpt><trkpt lat="43.143927" lon="12.7430325"><ele>666.0</ele><time>2026-04-24T09:48:53.016Z</time></trkpt><trkpt lat="43.1440112" lon="12.7429019"><ele>662.8</ele><time>2026-04-24T09:48:54.007Z</time></trkpt><trkpt lat="43.1440908" lon="12.7427881"><ele>659.5999999999999</ele><time>2026-04-24T09:48:55.023Z</time></trkpt><trkpt lat="43.1441761" lon="12.742723"><ele>656.4</ele><time>2026-04-24T09:48:56.016Z</time></trkpt><trkpt lat="43.1442891" lon="12.7427077"><ele>653.2</ele><time>2026-04-24T09:48:57.02Z</time></trkpt><trkpt lat="43.1444001" lon="12.7427539"><ele>650.0</ele><time>2026-04-24T09:48:58.022Z</time></trkpt><trkpt lat="43.1445076" lon="12.742831"><ele>649.5</ele><time>2026-04-24T09:48:59.022Z</time></trkpt><trkpt lat="43.14461" lon="12.7429325"><ele>649.0</ele><time>2026-04-24T09:49:00.017Z</time></trkpt><trkpt lat="43.1446891" lon="12.7430593"><ele>648.5</ele><time>2026-04-24T09:49:01.019Z</time></trkpt><trkpt lat="43.1447485" lon="12.7432148"><ele>648.0</ele><time>2026-04-24T09:49:01.999Z</time></trkpt><trkpt lat="43.144799" lon="12.7434065"><ele>645.0</ele><time>2026-04-24T09:49:03.03Z</time></trkpt><trkpt lat="43.1448561" lon="12.7436116"><ele>642.0</ele><time>2026-04-24T09:49:04.025Z</time></trkpt><trkpt lat="43.1449159" lon="12.7438224"><ele>639.0</ele><time>2026-04-24T09:49:05.013Z</time></trkpt><trkpt lat="43.1449716" lon="12.7440146"><ele>636.75</ele><time>2026-04-24T09:49:06.022Z</time></trkpt><trkpt lat="43.1450354" lon="12.7441938"><ele>634.5</ele><time>2026-04-24T09:49:07.02Z</time></trkpt><trkpt lat="43.1451065" lon="12.7443601"><ele>632.25</ele><time>2026-04-24T09:49:08.018Z</time></trkpt><trkpt lat="43.1451845" lon="12.7445215"><ele>630.0</ele><time>2026-04-24T09:49:09.019Z</time></trkpt><trkpt lat="43.1452715" lon="12.7446714"><ele>627.75</ele><time>2026-04-24T09:49:10.004Z</time></trkpt><trkpt lat="43.1453722" lon="12.7448154"><ele>625.5</ele><time>2026-04-24T09:49:11.009Z</time></trkpt><trkpt lat="43.1454729" lon="12.7449481"><ele>623.25</ele><time>2026-04-24T09:49:12.021Z</time></trkpt><trkpt lat="43.1455817" lon="12.7450806"><ele>621.0</ele><time>2026-04-24T09:49:13.015Z</time></trkpt><trkpt lat="43.1456978" lon="12.7451993"><ele>616.25</ele><time>2026-04-24T09:49:14.017Z</time></trkpt><trkpt lat="43.1458155" lon="12.7453031"><ele>611.5</ele><time>2026-04-24T09:49:15.031Z</time></trkpt><trkpt lat="43.1459545" lon="12.7453774"><ele>606.75</ele><time>2026-04-24T09:49:16.011Z</time></trkpt><trkpt lat="43.1460939" lon="12.7454195"><ele>602.0</ele><time>2026-04-24T09:49:17.008Z</time></trkpt><trkpt lat="43.1462382" lon="12.7454557"><ele>602.0</ele><time>2026-04-24T09:49:18.007Z</time></trkpt><trkpt lat="43.1463781" lon="12.7454992"><ele>602.0</ele><time>2026-04-24T09:49:19.017Z</time></trkpt><trkpt lat="43.1465129" lon="12.7455551"><ele>602.0</ele><time>2026-04-24T09:49:20.029Z</time></trkpt><trkpt lat="43.1466341" lon="12.7456232"><ele>602.0</ele><time>2026-04-24T09:49:21.024Z</time></trkpt><trkpt lat="43.1467469" lon="12.7457334"><ele>602.3333333333333</ele><time>2026-04-24T09:49:22.006Z</time></trkpt><trkpt lat="43.1468503" lon="12.7458669"><ele>602.6666666666666</ele><time>2026-04-24T09:49:23.022Z</time></trkpt><trkpt lat="43.1469683" lon="12.7460136"><ele>603.0</ele><time>2026-04-24T09:49:24.022Z</time></trkpt><trkpt lat="43.1471138" lon="12.7461471"><ele>600.0</ele><time>2026-04-24T09:49:25.002Z</time></trkpt><trkpt lat="43.1472646" lon="12.7462644"><ele>597.0</ele><time>2026-04-24T09:49:26.03Z</time></trkpt><trkpt lat="43.1474128" lon="12.7463665"><ele>594.0</ele><time>2026-04-24T09:49:27.033Z</time></trkpt><trkpt lat="43.1475561" lon="12.7464577"><ele>594.0</ele><time>2026-04-24T09:49:28.01Z</time></trkpt><trkpt lat="43.1477054" lon="12.7465165"><ele>594.0</ele><time>2026-04-24T09:49:29.008Z</time></trkpt><trkpt lat="43.1478555" lon="12.7465512"><ele>594.0</ele><time>2026-04-24T09:49:30.012Z</time></trkpt><trkpt lat="43.1480037" lon="12.7465709"><ele>594.0</ele><time>2026-04-24T09:49:31.034Z</time></trkpt><trkpt lat="43.1481389" lon="12.7466057"><ele>594.0</ele><time>2026-04-24T09:49:32.012Z</time></trkpt><trkpt lat="43.1482603" lon="12.7466759"><ele>594.0</ele><time>2026-04-24T09:49:33.03Z</time></trkpt><trkpt lat="43.148365" lon="12.7467743"><ele>594.0</ele><time>2026-04-24T09:49:34.017Z</time></trkpt><trkpt lat="43.1484593" lon="12.7469093"><ele>592.75</ele><time>2026-04-24T09:49:35.012Z</time></trkpt><trkpt lat="43.1485567" lon="12.7470622"><ele>591.5</ele><time>2026-04-24T09:49:36.013Z</time></trkpt><trkpt lat="43.1486552" lon="12.7472118"><ele>590.25</ele><time>2026-04-24T09:49:37.034Z</time></trkpt><trkpt lat="43.1487759" lon="12.7473395"><ele>589.0</ele><time>2026-04-24T09:49:38.024Z</time></trkpt><trkpt lat="43.1488891" lon="12.7474546"><ele>589.0</ele><time>2026-04-24T09:49:39.025Z</time></trkpt><trkpt lat="43.1489873" lon="12.7475563"><ele>589.0</ele><time>2026-04-24T09:49:40.009Z</time></trkpt><trkpt lat="43.1490788" lon="12.7476544"><ele>589.0</ele><time>2026-04-24T09:49:41.031Z</time></trkpt><trkpt lat="43.1491656" lon="12.7477536"><ele>589.0</ele><time>2026-04-24T09:49:42.003Z</time></trkpt><trkpt lat="43.149252" lon="12.7478596"><ele>590.5</ele><time>2026-04-24T09:49:43.033Z</time></trkpt><trkpt lat="43.1493424" lon="12.7479711"><ele>592.0</ele><time>2026-04-24T09:49:44.01Z</time></trkpt><trkpt lat="43.1494497" lon="12.7480763"><ele>593.5</ele><time>2026-04-24T09:49:45.015Z</time></trkpt><trkpt lat="43.149564" lon="12.7481685"><ele>595.0</ele><time>2026-04-24T09:49:46.019Z</time></trkpt><trkpt lat="43.1496949" lon="12.7482325"><ele>595.0</ele><time>2026-04-24T09:49:47.011Z</time></trkpt><trkpt lat="43.1498173" lon="12.7482639"><ele>595.0</ele><time>2026-04-24T09:49:48.01Z</time></trkpt><trkpt lat="43.1499393" lon="12.7482867"><ele>595.0</ele><time>2026-04-24T09:49:49.006Z</time></trkpt><trkpt lat="43.1500519" lon="12.7483086"><ele>595.0</ele><time>2026-04-24T09:49:50.025Z</time></trkpt><trkpt lat="43.1501576" lon="12.7483388"><ele>595.0</ele><time>2026-04-24T09:49:51.02Z</time></trkpt><trkpt lat="43.1502539" lon="12.7483747"><ele>595.0</ele><time>2026-04-24T09:49:52.014Z</time></trkpt><trkpt lat="43.1503434" lon="12.7484093"><ele>595.0</ele><time>2026-04-24T09:49:53.014Z</time></trkpt><trkpt lat="43.1504274" lon="12.7484373"><ele>595.0</ele><time>2026-04-24T09:49:54.005Z</time></trkpt><trkpt lat="43.1504963" lon="12.7484649"><ele>595.0</ele><time>2026-04-24T09:49:55.029Z</time></trkpt><trkpt lat="43.1505552" lon="12.7484959"><ele>595.0</ele><time>2026-04-24T09:49:55.998Z</time></trkpt><trkpt lat="43.1506124" lon="12.7485403"><ele>594.0</ele><time>2026-04-24T09:49:57.023Z</time></trkpt><trkpt lat="43.1506577" lon="12.7486027"><ele>593.0</ele><time>2026-04-24T09:49:58.008Z</time></trkpt><trkpt lat="43.1506958" lon="12.7486933"><ele>592.0</ele><time>2026-04-24T09:49:59.027Z</time></trkpt><trkpt lat="43.1507284" lon="12.7487878"><ele>591.0</ele><time>2026-04-24T09:50:00.011Z</time></trkpt><trkpt lat="43.150768" lon="12.7488782"><ele>590.0</ele><time>2026-04-24T09:50:01.002Z</time></trkpt><trkpt lat="43.1508148" lon="12.7489621"><ele>589.0</ele><time>2026-04-24T09:50:02.039Z</time></trkpt><trkpt lat="43.1508823" lon="12.7490286"><ele>591.6</ele><time>2026-04-24T09:50:03.011Z</time></trkpt><trkpt lat="43.1509449" lon="12.7490833"><ele>594.2</ele><time>2026-04-24T09:50:04.008Z</time></trkpt><trkpt lat="43.1509989" lon="12.7491398"><ele>596.8000000000001</ele><time>2026-04-24T09:50:05.005Z</time></trkpt><trkpt lat="43.1510494" lon="12.7492605"><ele>599.4</ele><time>2026-04-24T09:50:07.009Z</time></trkpt><trkpt lat="43.1511253" lon="12.7493405"><ele>602.0</ele><time>2026-04-24T09:50:10.004Z</time></trkpt><trkpt lat="43.1512442" lon="12.7493494"><ele>602.0</ele><time>2026-04-24T09:50:12.006Z</time></trkpt><trkpt lat="43.1513091" lon="12.7493451"><ele>602.0</ele><time>2026-04-24T09:50:13.015Z</time></trkpt><trkpt lat="43.1514298" lon="12.7493466"><ele>602.0</ele><time>2026-04-24T09:50:15.007Z</time></trkpt><trkpt lat="43.1514959" lon="12.7493353"><ele>602.0</ele><time>2026-04-24T09:50:16.004Z</time></trkpt><trkpt lat="43.1515614" lon="12.749292"><ele>602.0</ele><time>2026-04-24T09:50:17.024Z</time></trkpt><trkpt lat="43.1516261" lon="12.749242"><ele>602.0</ele><time>2026-04-24T09:50:18.007Z</time></trkpt><trkpt lat="43.1517003" lon="12.7491929"><ele>601.8000000000001</ele><time>2026-04-24T09:50:19.029Z</time></trkpt><trkpt lat="43.1517877" lon="12.7491585"><ele>601.6</ele><time>2026-04-24T09:50:20.01Z</time></trkpt><trkpt lat="43.1518707" lon="12.7491866"><ele>601.4000000000001</ele><time>2026-04-24T09:50:21.006Z</time></trkpt><trkpt lat="43.1519449" lon="12.7492486"><ele>601.2</ele><time>2026-04-24T09:50:22.001Z</time></trkpt><trkpt lat="43.1520144" lon="12.7493488"><ele>601.0</ele><time>2026-04-24T09:50:23.023Z</time></trkpt><trkpt lat="43.152076" lon="12.7494571"><ele>601.2</ele><time>2026-04-24T09:50:24.004Z</time></trkpt><trkpt lat="43.1521338" lon="12.749579"><ele>601.4000000000001</ele><time>2026-04-24T09:50:25.028Z</time></trkpt><trkpt lat="43.152191" lon="12.7497068"><ele>601.6</ele><time>2026-04-24T09:50:26.02Z</time></trkpt><trkpt lat="43.1522455" lon="12.7498352"><ele>601.8000000000001</ele><time>2026-04-24T09:50:27.032Z</time></trkpt><trkpt lat="43.1523101" lon="12.749964"><ele>602.0</ele><time>2026-04-24T09:50:28.015Z</time></trkpt><trkpt lat="43.1523814" lon="12.7500893"><ele>602.25</ele><time>2026-04-24T09:50:29.011Z</time></trkpt><trkpt lat="43.1524546" lon="12.7502131"><ele>602.5</ele><time>2026-04-24T09:50:30.009Z</time></trkpt><trkpt lat="43.1525341" lon="12.7503312"><ele>602.75</ele><time>2026-04-24T09:50:31.018Z</time></trkpt><trkpt lat="43.1526165" lon="12.750454"><ele>603.0</ele><time>2026-04-24T09:50:32.006Z</time></trkpt><trkpt lat="43.152701" lon="12.7505757"><ele>603.0</ele><time>2026-04-24T09:50:33.015Z</time></trkpt><trkpt lat="43.152783" lon="12.750698"><ele>603.0</ele><time>2026-04-24T09:50:34.009Z</time></trkpt><trkpt lat="43.1528695" lon="12.7508215"><ele>603.0</ele><time>2026-04-24T09:50:35.006Z</time></trkpt><trkpt lat="43.1529604" lon="12.750945"><ele>603.0</ele><time>2026-04-24T09:50:36.006Z</time></trkpt><trkpt lat="43.1530573" lon="12.7510618"><ele>601.75</ele><time>2026-04-24T09:50:37.008Z</time></trkpt><trkpt lat="43.1531673" lon="12.7511762"><ele>600.5</ele><time>2026-04-24T09:50:38Z</time></trkpt><trkpt lat="43.1532854" lon="12.7512828"><ele>599.25</ele><time>2026-04-24T09:50:39.01Z</time></trkpt><trkpt lat="43.1534116" lon="12.7513919"><ele>598.0</ele><time>2026-04-24T09:50:40.012Z</time></trkpt><trkpt lat="43.1535401" lon="12.7515101"><ele>599.0</ele><time>2026-04-24T09:50:41.013Z</time></trkpt><trkpt lat="43.1536694" lon="12.7516479"><ele>600.0</ele><time>2026-04-24T09:50:42.004Z</time></trkpt><trkpt lat="43.1537989" lon="12.7517971"><ele>601.0</ele><time>2026-04-24T09:50:43.007Z</time></trkpt><trkpt lat="43.1539206" lon="12.7519547"><ele>601.0</ele><time>2026-04-24T09:50:44.009Z</time></trkpt><trkpt lat="43.1540338" lon="12.7521158"><ele>601.0</ele><time>2026-04-24T09:50:45.002Z</time></trkpt><trkpt lat="43.154145" lon="12.7522733"><ele>601.0</ele><time>2026-04-24T09:50:46.007Z</time></trkpt><trkpt lat="43.1542528" lon="12.7524339"><ele>603.3333333333334</ele><time>2026-04-24T09:50:47.004Z</time></trkpt><trkpt lat="43.1543546" lon="12.7526012"><ele>605.6666666666666</ele><time>2026-04-24T09:50:48.003Z</time></trkpt><trkpt lat="43.1544539" lon="12.7527763"><ele>608.0</ele><time>2026-04-24T09:50:49.006Z</time></trkpt><trkpt lat="43.1545523" lon="12.7529585"><ele>608.0</ele><time>2026-04-24T09:50:50.002Z</time></trkpt><trkpt lat="43.154642" lon="12.7531501"><ele>608.0</ele><time>2026-04-24T09:50:51.011Z</time></trkpt><trkpt lat="43.1547196" lon="12.7533337"><ele>608.0</ele><time>2026-04-24T09:50:52.009Z</time></trkpt><trkpt lat="43.1547834" lon="12.7535114"><ele>604.75</ele><time>2026-04-24T09:50:53.01Z</time></trkpt><trkpt lat="43.1548442" lon="12.7536885"><ele>601.5</ele><time>2026-04-24T09:50:54.01Z</time></trkpt><trkpt lat="43.154903" lon="12.7538679"><ele>598.25</ele><time>2026-04-24T09:50:55.008Z</time></trkpt><trkpt lat="43.1549628" lon="12.7540462"><ele>595.0</ele><time>2026-04-24T09:50:56.008Z</time></trkpt><trkpt lat="43.1550212" lon="12.7542267"><ele>600.0</ele><time>2026-04-24T09:50:57.008Z</time></trkpt><trkpt lat="43.1550801" lon="12.7544073"><ele>605.0</ele><time>2026-04-24T09:50:58.001Z</time></trkpt><trkpt lat="43.1551403" lon="12.7545925"><ele>610.0</ele><time>2026-04-24T09:50:59.003Z</time></trkpt><trkpt lat="43.1552012" lon="12.7547695"><ele>615.0</ele><time>2026-04-24T09:51:00.009Z</time></trkpt><trkpt lat="43.1552636" lon="12.7549468"><ele>615.0</ele><time>2026-04-24T09:51:01.008Z</time></trkpt><trkpt lat="43.1553275" lon="12.7551201"><ele>615.0</ele><time>2026-04-24T09:51:02.005Z</time></trkpt><trkpt lat="43.1553853" lon="12.7552839"><ele>615.0</ele><time>2026-04-24T09:51:03.009Z</time></trkpt><trkpt lat="43.1554289" lon="12.7554528"><ele>615.0</ele><time>2026-04-24T09:51:04.013Z</time></trkpt><trkpt lat="43.15546" lon="12.7556353"><ele>615.0</ele><time>2026-04-24T09:51:05.025Z</time></trkpt><trkpt lat="43.1554802" lon="12.7558268"><ele>615.0</ele><time>2026-04-24T09:51:06.014Z</time></trkpt><trkpt lat="43.1554921" lon="12.7560198"><ele>615.0</ele><time>2026-04-24T09:51:07.011Z</time></trkpt><trkpt lat="43.1554907" lon="12.7562091"><ele>615.0</ele><time>2026-04-24T09:51:08.004Z</time></trkpt><trkpt lat="43.1554752" lon="12.7563934"><ele>616.0</ele><time>2026-04-24T09:51:09.01Z</time></trkpt><trkpt lat="43.155422" lon="12.7565735"><ele>617.0</ele><time>2026-04-24T09:51:10.011Z</time></trkpt><trkpt lat="43.155339" lon="12.7567379"><ele>618.0</ele><time>2026-04-24T09:51:11.009Z</time></trkpt><trkpt lat="43.1552315" lon="12.7568921"><ele>619.0</ele><time>2026-04-24T09:51:12.011Z</time></trkpt><trkpt lat="43.1551092" lon="12.757031"><ele>619.3333333333334</ele><time>2026-04-24T09:51:13.011Z</time></trkpt><trkpt lat="43.1549834" lon="12.7571898"><ele>619.6666666666666</ele><time>2026-04-24T09:51:14.01Z</time></trkpt><trkpt lat="43.1548653" lon="12.7573446"><ele>620.0</ele><time>2026-04-24T09:51:15.014Z</time></trkpt><trkpt lat="43.1547629" lon="12.7574966"><ele>620.0</ele><time>2026-04-24T09:51:16.011Z</time></trkpt><trkpt lat="43.1546705" lon="12.7576347"><ele>620.0</ele><time>2026-04-24T09:51:17.013Z</time></trkpt><trkpt lat="43.1545789" lon="12.757753"><ele>620.0</ele><time>2026-04-24T09:51:18.01Z</time></trkpt><trkpt lat="43.1544797" lon="12.7578385"><ele>620.0</ele><time>2026-04-24T09:51:19.024Z</time></trkpt><trkpt lat="43.1543628" lon="12.7578841"><ele>622.0</ele><time>2026-04-24T09:51:20.008Z</time></trkpt><trkpt lat="43.1542441" lon="12.7578905"><ele>624.0</ele><time>2026-04-24T09:51:21.03Z</time></trkpt><trkpt lat="43.1541187" lon="12.7578837"><ele>626.0</ele><time>2026-04-24T09:51:22.011Z</time></trkpt><trkpt lat="43.1539845" lon="12.7578623"><ele>628.0</ele><time>2026-04-24T09:51:23.018Z</time></trkpt><trkpt lat="43.1538447" lon="12.7578247"><ele>627.75</ele><time>2026-04-24T09:51:24.011Z</time></trkpt><trkpt lat="43.1537017" lon="12.7577716"><ele>627.5</ele><time>2026-04-24T09:51:25.017Z</time></trkpt><trkpt lat="43.1535766" lon="12.7577058"><ele>627.25</ele><time>2026-04-24T09:51:26.009Z</time></trkpt><trkpt lat="43.1534694" lon="12.7576551"><ele>627.0</ele><time>2026-04-24T09:51:27.022Z</time></trkpt><trkpt lat="43.1533679" lon="12.7576077"><ele>627.0</ele><time>2026-04-24T09:51:28.026Z</time></trkpt><trkpt lat="43.1532772" lon="12.7575691"><ele>627.0</ele><time>2026-04-24T09:51:29.007Z</time></trkpt><trkpt lat="43.1531762" lon="12.7575528"><ele>627.0</ele><time>2026-04-24T09:51:30.009Z</time></trkpt><trkpt lat="43.153066" lon="12.7575851"><ele>627.0</ele><time>2026-04-24T09:51:31.016Z</time></trkpt><trkpt lat="43.1529704" lon="12.757656"><ele>627.0</ele><time>2026-04-24T09:51:32.012Z</time></trkpt><trkpt lat="43.1528812" lon="12.7577449"><ele>629.2</ele><time>2026-04-24T09:51:33.014Z</time></trkpt><trkpt lat="43.1527995" lon="12.7578302"><ele>631.4000000000001</ele><time>2026-04-24T09:51:34.01Z</time></trkpt><trkpt lat="43.1527089" lon="12.7579152"><ele>633.5999999999999</ele><time>2026-04-24T09:51:35.009Z</time></trkpt><trkpt lat="43.15262" lon="12.7579993"><ele>635.8</ele><time>2026-04-24T09:51:36.013Z</time></trkpt><trkpt lat="43.1525379" lon="12.7580972"><ele>638.0</ele><time>2026-04-24T09:51:37.02Z</time></trkpt><trkpt lat="43.1524902" lon="12.7582289"><ele>638.0</ele><time>2026-04-24T09:51:38.013Z</time></trkpt><trkpt lat="43.1524446" lon="12.7583872"><ele>638.0</ele><time>2026-04-24T09:51:39.041Z</time></trkpt><trkpt lat="43.1524042" lon="12.7585709"><ele>638.0</ele><time>2026-04-24T09:51:40.011Z</time></trkpt><trkpt lat="43.1523625" lon="12.7587418"><ele>638.0</ele><time>2026-04-24T09:51:41.017Z</time></trkpt><trkpt lat="43.1523288" lon="12.758903"><ele>635.75</ele><time>2026-04-24T09:51:42.012Z</time></trkpt><trkpt lat="43.1522859" lon="12.7590511"><ele>633.5</ele><time>2026-04-24T09:51:43.019Z</time></trkpt><trkpt lat="43.1522365" lon="12.7591867"><ele>631.25</ele><time>2026-04-24T09:51:44.023Z</time></trkpt><trkpt lat="43.1521558" lon="12.7592895"><ele>629.0</ele><time>2026-04-24T09:51:45.027Z</time></trkpt><trkpt lat="43.15206" lon="12.7593832"><ele>629.0</ele><time>2026-04-24T09:51:46.014Z</time></trkpt><trkpt lat="43.1519525" lon="12.7594689"><ele>629.0</ele><time>2026-04-24T09:51:47.023Z</time></trkpt><trkpt lat="43.1518613" lon="12.7595751"><ele>629.0</ele><time>2026-04-24T09:51:48.018Z</time></trkpt><trkpt lat="43.1517876" lon="12.7597038"><ele>629.0</ele><time>2026-04-24T09:51:49.007Z</time></trkpt><trkpt lat="43.151708" lon="12.7598643"><ele>629.0</ele><time>2026-04-24T09:51:50.024Z</time></trkpt><trkpt lat="43.1516275" lon="12.7600232"><ele>629.0</ele><time>2026-04-24T09:51:51.017Z</time></trkpt><trkpt lat="43.1515507" lon="12.7601776"><ele>629.0</ele><time>2026-04-24T09:51:52.017Z</time></trkpt><trkpt lat="43.151474" lon="12.760325"><ele>629.0</ele><time>2026-04-24T09:51:53.021Z</time></trkpt><trkpt lat="43.1514007" lon="12.7604619"><ele>626.8</ele><time>2026-04-24T09:51:54.017Z</time></trkpt><trkpt lat="43.1513302" lon="12.7605764"><ele>624.5999999999999</ele><time>2026-04-24T09:51:55.012Z</time></trkpt><trkpt lat="43.1512529" lon="12.7606646"><ele>622.4</ele><time>2026-04-24T09:51:56.025Z</time></trkpt><trkpt lat="43.1511681" lon="12.7607179"><ele>620.1999999999999</ele><time>2026-04-24T09:51:57.019Z</time></trkpt><trkpt lat="43.1510733" lon="12.7607545"><ele>618.0</ele><time>2026-04-24T09:51:58.004Z</time></trkpt><trkpt lat="43.150965" lon="12.7607827"><ele>618.0</ele><time>2026-04-24T09:51:59.029Z</time></trkpt><trkpt lat="43.1508451" lon="12.7607939"><ele>618.0</ele><time>2026-04-24T09:52:00.023Z</time></trkpt><trkpt lat="43.1507151" lon="12.7607984"><ele>618.0</ele><time>2026-04-24T09:52:01.025Z</time></trkpt><trkpt lat="43.1505586" lon="12.7608075"><ele>618.0</ele><time>2026-04-24T09:52:02.023Z</time></trkpt><trkpt lat="43.1503928" lon="12.7608179"><ele>619.0</ele><time>2026-04-24T09:52:03.021Z</time></trkpt><trkpt lat="43.1502313" lon="12.7608285"><ele>620.0</ele><time>2026-04-24T09:52:04.036Z</time></trkpt><trkpt lat="43.1500766" lon="12.7608391"><ele>621.0</ele><time>2026-04-24T09:52:05.024Z</time></trkpt><trkpt lat="43.1499356" lon="12.7608525"><ele>622.75</ele><time>2026-04-24T09:52:06.034Z</time></trkpt><trkpt lat="43.1497958" lon="12.760872"><ele>624.5</ele><time>2026-04-24T09:52:07.027Z</time></trkpt><trkpt lat="43.1496657" lon="12.7608979"><ele>626.25</ele><time>2026-04-24T09:52:08.006Z</time></trkpt><trkpt lat="43.1495411" lon="12.7609325"><ele>628.0</ele><time>2026-04-24T09:52:09.03Z</time></trkpt><trkpt lat="43.1494168" lon="12.7609766"><ele>628.0</ele><time>2026-04-24T09:52:10.034Z</time></trkpt><trkpt lat="43.1492973" lon="12.7610277"><ele>628.0</ele><time>2026-04-24T09:52:11.03Z</time></trkpt><trkpt lat="43.1491807" lon="12.7610807"><ele>628.0</ele><time>2026-04-24T09:52:12.041Z</time></trkpt><trkpt lat="43.1490706" lon="12.7611473"><ele>628.0</ele><time>2026-04-24T09:52:13.03Z</time></trkpt><trkpt lat="43.1489808" lon="12.7612265"><ele>629.6</ele><time>2026-04-24T09:52:14.03Z</time></trkpt><trkpt lat="43.1489073" lon="12.7613109"><ele>631.1999999999999</ele><time>2026-04-24T09:52:15.038Z</time></trkpt><trkpt lat="43.1488385" lon="12.7614"><ele>632.8</ele><time>2026-04-24T09:52:16.038Z</time></trkpt><trkpt lat="43.1487711" lon="12.7614864"><ele>634.4</ele><time>2026-04-24T09:52:17.033Z</time></trkpt><trkpt lat="43.1486965" lon="12.7615668"><ele>636.0</ele><time>2026-04-24T09:52:18.035Z</time></trkpt><trkpt lat="43.1486153" lon="12.7616294"><ele>636.0</ele><time>2026-04-24T09:52:19.025Z</time></trkpt><trkpt lat="43.1485294" lon="12.7616694"><ele>636.0</ele><time>2026-04-24T09:52:20.039Z</time></trkpt><trkpt lat="43.1484447" lon="12.7617035"><ele>636.0</ele><time>2026-04-24T09:52:21.043Z</time></trkpt><trkpt lat="43.1483544" lon="12.761729"><ele>636.0</ele><time>2026-04-24T09:52:22.03Z</time></trkpt><trkpt lat="43.1482612" lon="12.7617363"><ele>636.0</ele><time>2026-04-24T09:52:23.042Z</time></trkpt><trkpt lat="43.1481586" lon="12.7617553"><ele>636.4</ele><time>2026-04-24T09:52:24.041Z</time></trkpt><trkpt lat="43.1480525" lon="12.7617932"><ele>636.8</ele><time>2026-04-24T09:52:25.04Z</time></trkpt><trkpt lat="43.1479516" lon="12.7618491"><ele>637.1999999999999</ele><time>2026-04-24T09:52:26.005Z</time></trkpt><trkpt lat="43.1478563" lon="12.7619263"><ele>637.6</ele><time>2026-04-24T09:52:27.031Z</time></trkpt><trkpt lat="43.1477584" lon="12.7620086"><ele>638.0</ele><time>2026-04-24T09:52:28.034Z</time></trkpt><trkpt lat="43.1476492" lon="12.7620983"><ele>638.0</ele><time>2026-04-24T09:52:29.039Z</time></trkpt><trkpt lat="43.1475442" lon="12.7621807"><ele>638.0</ele><time>2026-04-24T09:52:30.03Z</time></trkpt><trkpt lat="43.1474416" lon="12.7622482"><ele>638.0</ele><time>2026-04-24T09:52:31.037Z</time></trkpt><trkpt lat="43.1473543" lon="12.7623154"><ele>638.0</ele><time>2026-04-24T09:52:32.043Z</time></trkpt><trkpt lat="43.147266" lon="12.7623826"><ele>638.0</ele><time>2026-04-24T09:52:33.047Z</time></trkpt><trkpt lat="43.147184" lon="12.762455"><ele>635.8</ele><time>2026-04-24T09:52:34.038Z</time></trkpt><trkpt lat="43.147111" lon="12.7625455"><ele>633.5999999999999</ele><time>2026-04-24T09:52:35.044Z</time></trkpt><trkpt lat="43.1470536" lon="12.7626594"><ele>631.4000000000001</ele><time>2026-04-24T09:52:36.04Z</time></trkpt><trkpt lat="43.1470216" lon="12.7627981"><ele>629.2</ele><time>2026-04-24T09:52:37.039Z</time></trkpt><trkpt lat="43.1470138" lon="12.7629461"><ele>627.0</ele><time>2026-04-24T09:52:38.03Z</time></trkpt><trkpt lat="43.1470299" lon="12.7630924"><ele>627.0</ele><time>2026-04-24T09:52:39.043Z</time></trkpt><trkpt lat="43.1470666" lon="12.7632251"><ele>627.0</ele><time>2026-04-24T09:52:40.038Z</time></trkpt><trkpt lat="43.1471085" lon="12.7633528"><ele>627.0</ele><time>2026-04-24T09:52:41.049Z</time></trkpt><trkpt lat="43.1471396" lon="12.7634778"><ele>627.0</ele><time>2026-04-24T09:52:42.033Z</time></trkpt><trkpt lat="43.1471488" lon="12.763591"><ele>627.0</ele><time>2026-04-24T09:52:43.043Z</time></trkpt><trkpt lat="43.1471345" lon="12.7637043"><ele>628.0</ele><time>2026-04-24T09:52:44.035Z</time></trkpt><trkpt lat="43.1470923" lon="12.7637922"><ele>629.0</ele><time>2026-04-24T09:52:45.029Z</time></trkpt><trkpt lat="43.1470168" lon="12.7638202"><ele>630.0</ele><time>2026-04-24T09:52:46.034Z</time></trkpt><trkpt lat="43.1469335" lon="12.7638059"><ele>631.0</ele><time>2026-04-24T09:52:47.035Z</time></trkpt><trkpt lat="43.1468567" lon="12.7637643"><ele>632.0</ele><time>2026-04-24T09:52:48.037Z</time></trkpt><trkpt lat="43.1467694" lon="12.7637155"><ele>633.0</ele><time>2026-04-24T09:52:49.019Z</time></trkpt><trkpt lat="43.1466846" lon="12.7636664"><ele>633.0</ele><time>2026-04-24T09:52:50.024Z</time></trkpt><trkpt lat="43.1465991" lon="12.7636148"><ele>633.0</ele><time>2026-04-24T09:52:51.031Z</time></trkpt><trkpt lat="43.1465007" lon="12.7635725"><ele>633.0</ele><time>2026-04-24T09:52:52.031Z</time></trkpt><trkpt lat="43.1463918" lon="12.7635343"><ele>633.0</ele><time>2026-04-24T09:52:53.033Z</time></trkpt><trkpt lat="43.1462688" lon="12.7634963"><ele>633.0</ele><time>2026-04-24T09:52:54.033Z</time></trkpt><trkpt lat="43.1461396" lon="12.7634642"><ele>629.0</ele><time>2026-04-24T09:52:55.032Z</time></trkpt><trkpt lat="43.1460155" lon="12.7634379"><ele>625.0</ele><time>2026-04-24T09:52:56.028Z</time></trkpt><trkpt lat="43.1458953" lon="12.7634027"><ele>621.0</ele><time>2026-04-24T09:52:57.044Z</time></trkpt><trkpt lat="43.1457799" lon="12.7633437"><ele>617.0</ele><time>2026-04-24T09:52:58.038Z</time></trkpt><trkpt lat="43.1456681" lon="12.763259"><ele>615.25</ele><time>2026-04-24T09:52:59.035Z</time></trkpt><trkpt lat="43.1455518" lon="12.7631533"><ele>613.5</ele><time>2026-04-24T09:53:00.03Z</time></trkpt><trkpt lat="43.145441" lon="12.7630564"><ele>611.75</ele><time>2026-04-24T09:53:01.034Z</time></trkpt><trkpt lat="43.1453337" lon="12.7630084"><ele>610.0</ele><time>2026-04-24T09:53:02.043Z</time></trkpt><trkpt lat="43.1452334" lon="12.7630131"><ele>610.0</ele><time>2026-04-24T09:53:03.039Z</time></trkpt><trkpt lat="43.1451531" lon="12.7630691"><ele>610.0</ele><time>2026-04-24T09:53:04.03Z</time></trkpt><trkpt lat="43.145085" lon="12.7631853"><ele>610.0</ele><time>2026-04-24T09:53:05.05Z</time></trkpt><trkpt lat="43.1450248" lon="12.7633317"><ele>610.0</ele><time>2026-04-24T09:53:06.03Z</time></trkpt><trkpt lat="43.1449573" lon="12.7634927"><ele>607.75</ele><time>2026-04-24T09:53:07.035Z</time></trkpt><trkpt lat="43.1448818" lon="12.7636574"><ele>605.5</ele><time>2026-04-24T09:53:08.045Z</time></trkpt><trkpt lat="43.1447941" lon="12.7638159"><ele>603.25</ele><time>2026-04-24T09:53:09.043Z</time></trkpt><trkpt lat="43.1447066" lon="12.763972"><ele>601.0</ele><time>2026-04-24T09:53:10.028Z</time></trkpt><trkpt lat="43.1446214" lon="12.7641229"><ele>601.0</ele><time>2026-04-24T09:53:11.039Z</time></trkpt><trkpt lat="43.1445279" lon="12.764271"><ele>601.0</ele><time>2026-04-24T09:53:12.033Z</time></trkpt><trkpt lat="43.1444118" lon="12.7644226"><ele>601.0</ele><time>2026-04-24T09:53:13.039Z</time></trkpt><trkpt lat="43.1442885" lon="12.7645581"><ele>600.5</ele><time>2026-04-24T09:53:14.041Z</time></trkpt><trkpt lat="43.1441673" lon="12.764685"><ele>600.0</ele><time>2026-04-24T09:53:15.042Z</time></trkpt><trkpt lat="43.1440606" lon="12.7648039"><ele>599.5</ele><time>2026-04-24T09:53:16.037Z</time></trkpt><trkpt lat="43.1439562" lon="12.764937"><ele>599.0</ele><time>2026-04-24T09:53:17.04Z</time></trkpt><trkpt lat="43.1438707" lon="12.7650914"><ele>600.5</ele><time>2026-04-24T09:53:18.047Z</time></trkpt><trkpt lat="43.1438094" lon="12.7652711"><ele>602.0</ele><time>2026-04-24T09:53:19.032Z</time></trkpt><trkpt lat="43.1437737" lon="12.7654563"><ele>603.5</ele><time>2026-04-24T09:53:20.026Z</time></trkpt><trkpt lat="43.1437381" lon="12.7656447"><ele>605.0</ele><time>2026-04-24T09:53:21.03Z</time></trkpt><trkpt lat="43.1436815" lon="12.7658151"><ele>605.0</ele><time>2026-04-24T09:53:22.046Z</time></trkpt><trkpt lat="43.1436032" lon="12.7659562"><ele>605.0</ele><time>2026-04-24T09:53:23.036Z</time></trkpt><trkpt lat="43.1435095" lon="12.7660791"><ele>605.0</ele><time>2026-04-24T09:53:24.027Z</time></trkpt><trkpt lat="43.1434116" lon="12.7661812"><ele>605.0</ele><time>2026-04-24T09:53:25.045Z</time></trkpt><trkpt lat="43.1433062" lon="12.7662858"><ele>602.75</ele><time>2026-04-24T09:53:26.024Z</time></trkpt><trkpt lat="43.1432038" lon="12.7663964"><ele>600.5</ele><time>2026-04-24T09:53:27.006Z</time></trkpt><trkpt lat="43.1431134" lon="12.766525"><ele>598.25</ele><time>2026-04-24T09:53:28.017Z</time></trkpt><trkpt lat="43.14304" lon="12.7666589"><ele>596.0</ele><time>2026-04-24T09:53:29.038Z</time></trkpt><trkpt lat="43.1429773" lon="12.766809"><ele>595.75</ele><time>2026-04-24T09:53:30.037Z</time></trkpt><trkpt lat="43.1429367" lon="12.766975"><ele>595.5</ele><time>2026-04-24T09:53:31.041Z</time></trkpt><trkpt lat="43.1429092" lon="12.7671414"><ele>595.25</ele><time>2026-04-24T09:53:32.044Z</time></trkpt><trkpt lat="43.1428892" lon="12.7673075"><ele>595.0</ele><time>2026-04-24T09:53:33.038Z</time></trkpt><trkpt lat="43.1428749" lon="12.7674679"><ele>595.0</ele><time>2026-04-24T09:53:34.045Z</time></trkpt><trkpt lat="43.1428471" lon="12.7676153"><ele>595.0</ele><time>2026-04-24T09:53:35.041Z</time></trkpt><trkpt lat="43.1427946" lon="12.7677589"><ele>595.0</ele><time>2026-04-24T09:53:36.047Z</time></trkpt><trkpt lat="43.1427238" lon="12.7678962"><ele>595.0</ele><time>2026-04-24T09:53:36.996Z</time></trkpt><trkpt lat="43.1426478" lon="12.7680266"><ele>594.25</ele><time>2026-04-24T09:53:38.043Z</time></trkpt><trkpt lat="43.1425647" lon="12.7681598"><ele>593.5</ele><time>2026-04-24T09:53:39.038Z</time></trkpt><trkpt lat="43.1424623" lon="12.7682794"><ele>592.75</ele><time>2026-04-24T09:53:40.038Z</time></trkpt><trkpt lat="43.1423546" lon="12.7683798"><ele>592.0</ele><time>2026-04-24T09:53:41.036Z</time></trkpt><trkpt lat="43.1422421" lon="12.7684495"><ele>592.0</ele><time>2026-04-24T09:53:42.038Z</time></trkpt><trkpt lat="43.1421207" lon="12.7685004"><ele>592.0</ele><time>2026-04-24T09:53:43.035Z</time></trkpt><trkpt lat="43.141972" lon="12.768531"><ele>592.0</ele><time>2026-04-24T09:53:44.026Z</time></trkpt><trkpt lat="43.141821" lon="12.7685445"><ele>592.0</ele><time>2026-04-24T09:53:45.036Z</time></trkpt><trkpt lat="43.1416679" lon="12.7685361"><ele>589.5</ele><time>2026-04-24T09:53:46.036Z</time></trkpt><trkpt lat="43.1415402" lon="12.7685231"><ele>587.0</ele><time>2026-04-24T09:53:47.034Z</time></trkpt><trkpt lat="43.1414286" lon="12.7684968"><ele>584.5</ele><time>2026-04-24T09:53:48.032Z</time></trkpt><trkpt lat="43.1413249" lon="12.7684395"><ele>582.0</ele><time>2026-04-24T09:53:49.04Z</time></trkpt><trkpt lat="43.141236" lon="12.7683461"><ele>582.0</ele><time>2026-04-24T09:53:50.041Z</time></trkpt><trkpt lat="43.1411538" lon="12.7682323"><ele>582.0</ele><time>2026-04-24T09:53:51.045Z</time></trkpt><trkpt lat="43.1410651" lon="12.7680966"><ele>582.0</ele><time>2026-04-24T09:53:52.01Z</time></trkpt><trkpt lat="43.1409686" lon="12.7679627"><ele>582.0</ele><time>2026-04-24T09:53:53.043Z</time></trkpt><trkpt lat="43.1408813" lon="12.7678258"><ele>582.0</ele><time>2026-04-24T09:53:54.038Z</time></trkpt><trkpt lat="43.1407886" lon="12.7676938"><ele>582.0</ele><time>2026-04-24T09:53:55.046Z</time></trkpt><trkpt lat="43.1406877" lon="12.7675719"><ele>582.0</ele><time>2026-04-24T09:53:56.038Z</time></trkpt><trkpt lat="43.1405855" lon="12.7674548"><ele>582.0</ele><time>2026-04-24T09:53:57.049Z</time></trkpt><trkpt lat="43.1404787" lon="12.7673409"><ele>577.25</ele><time>2026-04-24T09:53:58.038Z</time></trkpt><trkpt lat="43.1403746" lon="12.7672285"><ele>572.5</ele><time>2026-04-24T09:53:59.043Z</time></trkpt><trkpt lat="43.1402735" lon="12.7671041"><ele>567.75</ele><time>2026-04-24T09:54:00.052Z</time></trkpt><trkpt lat="43.1401877" lon="12.7669606"><ele>563.0</ele><time>2026-04-24T09:54:01.034Z</time></trkpt><trkpt lat="43.1401248" lon="12.7668047"><ele>563.0</ele><time>2026-04-24T09:54:02.034Z</time></trkpt><trkpt lat="43.1400785" lon="12.7666361"><ele>563.0</ele><time>2026-04-24T09:54:03.047Z</time></trkpt><trkpt lat="43.1400366" lon="12.7664748"><ele>563.0</ele><time>2026-04-24T09:54:04.027Z</time></trkpt><trkpt lat="43.1399944" lon="12.7663336"><ele>563.0</ele><time>2026-04-24T09:54:05.038Z</time></trkpt><trkpt lat="43.1399534" lon="12.7662248"><ele>563.0</ele><time>2026-04-24T09:54:06.009Z</time></trkpt><trkpt lat="43.1398954" lon="12.7661734"><ele>563.0</ele><time>2026-04-24T09:54:07.037Z</time></trkpt><trkpt lat="43.1398321" lon="12.7661689"><ele>563.0</ele><time>2026-04-24T09:54:08.031Z</time></trkpt><trkpt lat="43.1397745" lon="12.7663319"><ele>563.0</ele><time>2026-04-24T09:54:10.034Z</time></trkpt><trkpt lat="43.1397969" lon="12.7664475"><ele>563.0</ele><time>2026-04-24T09:54:11.039Z</time></trkpt><trkpt lat="43.1398546" lon="12.7665955"><ele>563.0</ele><time>2026-04-24T09:54:12.017Z</time></trkpt><trkpt lat="43.1398893" lon="12.7667687"><ele>563.0</ele><time>2026-04-24T09:54:13.037Z</time></trkpt><trkpt lat="43.1399196" lon="12.7669668"><ele>563.0</ele><time>2026-04-24T09:54:14.023Z</time></trkpt><trkpt lat="43.1399551" lon="12.7671553"><ele>563.0</ele><time>2026-04-24T09:54:15.043Z</time></trkpt><trkpt lat="43.1400073" lon="12.767337"><ele>562.0</ele><time>2026-04-24T09:54:16.016Z</time></trkpt><trkpt lat="43.1400623" lon="12.7675038"><ele>561.0</ele><time>2026-04-24T09:54:17.039Z</time></trkpt><trkpt lat="43.1401007" lon="12.7676535"><ele>560.0</ele><time>2026-04-24T09:54:18.036Z</time></trkpt><trkpt lat="43.1401158" lon="12.7677883"><ele>559.0</ele><time>2026-04-24T09:54:19.031Z</time></trkpt><trkpt lat="43.1400927" lon="12.7679222"><ele>558.0</ele><time>2026-04-24T09:54:20.034Z</time></trkpt><trkpt lat="43.1400256" lon="12.7680391"><ele>558.0</ele><time>2026-04-24T09:54:21.022Z</time></trkpt><trkpt lat="43.139924" lon="12.7680914"><ele>558.0</ele><time>2026-04-24T09:54:22.027Z</time></trkpt><trkpt lat="43.139803" lon="12.7681249"><ele>558.0</ele><time>2026-04-24T09:54:23.042Z</time></trkpt><trkpt lat="43.1396926" lon="12.768155"><ele>558.0</ele><time>2026-04-24T09:54:24.032Z</time></trkpt><trkpt lat="43.1395903" lon="12.7681734"><ele>558.0</ele><time>2026-04-24T09:54:25.041Z</time></trkpt><trkpt lat="43.1394889" lon="12.7681819"><ele>553.6</ele><time>2026-04-24T09:54:26Z</time></trkpt><trkpt lat="43.1393953" lon="12.7681911"><ele>549.1999999999999</ele><time>2026-04-24T09:54:27.004Z</time></trkpt><trkpt lat="43.13931" lon="12.7682109"><ele>544.8</ele><time>2026-04-24T09:54:28.039Z</time></trkpt><trkpt lat="43.1392296" lon="12.7682481"><ele>540.4</ele><time>2026-04-24T09:54:29.046Z</time></trkpt><trkpt lat="43.1391664" lon="12.7683465"><ele>536.0</ele><time>2026-04-24T09:54:30.038Z</time></trkpt><trkpt lat="43.1391292" lon="12.7684655"><ele>536.0</ele><time>2026-04-24T09:54:31.038Z</time></trkpt><trkpt lat="43.1390978" lon="12.7685929"><ele>536.0</ele><time>2026-04-24T09:54:32.033Z</time></trkpt><trkpt lat="43.139065" lon="12.7687165"><ele>536.0</ele><time>2026-04-24T09:54:33.039Z</time></trkpt><trkpt lat="43.1390258" lon="12.7688406"><ele>536.0</ele><time>2026-04-24T09:54:34.034Z</time></trkpt><trkpt lat="43.1389954" lon="12.7689626"><ele>536.0</ele><time>2026-04-24T09:54:35.024Z</time></trkpt><trkpt lat="43.138995" lon="12.7690882"><ele>536.0</ele><time>2026-04-24T09:54:36.038Z</time></trkpt><trkpt lat="43.1390446" lon="12.7691923"><ele>536.0</ele><time>2026-04-24T09:54:37.05Z</time></trkpt><trkpt lat="43.139129" lon="12.7692688"><ele>536.0</ele><time>2026-04-24T09:54:38.022Z</time></trkpt><trkpt lat="43.1392279" lon="12.769337"><ele>536.0</ele><time>2026-04-24T09:54:39.037Z</time></trkpt><trkpt lat="43.1393415" lon="12.7694285"><ele>536.0</ele><time>2026-04-24T09:54:40.039Z</time></trkpt><trkpt lat="43.1394615" lon="12.7695424"><ele>529.6666666666666</ele><time>2026-04-24T09:54:41.047Z</time></trkpt><trkpt lat="43.139584" lon="12.7696716"><ele>523.3333333333334</ele><time>2026-04-24T09:54:42.03Z</time></trkpt><trkpt lat="43.1397103" lon="12.7698174"><ele>517.0</ele><time>2026-04-24T09:54:43.037Z</time></trkpt><trkpt lat="43.139842" lon="12.769964"><ele>519.6666666666667</ele><time>2026-04-24T09:54:44.029Z</time></trkpt><trkpt lat="43.1399657" lon="12.7701203"><ele>522.3333333333334</ele><time>2026-04-24T09:54:45.034Z</time></trkpt><trkpt lat="43.1400823" lon="12.7702825"><ele>525.0</ele><time>2026-04-24T09:54:46.029Z</time></trkpt><trkpt lat="43.1401882" lon="12.7704579"><ele>525.0</ele><time>2026-04-24T09:54:47.041Z</time></trkpt><trkpt lat="43.1402724" lon="12.7706186"><ele>525.0</ele><time>2026-04-24T09:54:48.036Z</time></trkpt><trkpt lat="43.1403536" lon="12.7707595"><ele>525.0</ele><time>2026-04-24T09:54:49.042Z</time></trkpt><trkpt lat="43.1404371" lon="12.7708632"><ele>525.0</ele><time>2026-04-24T09:54:50.02Z</time></trkpt><trkpt lat="43.1405476" lon="12.7709244"><ele>525.0</ele><time>2026-04-24T09:54:51.005Z</time></trkpt><trkpt lat="43.140684" lon="12.7709337"><ele>525.0</ele><time>2026-04-24T09:54:52.033Z</time></trkpt><trkpt lat="43.1408205" lon="12.7709122"><ele>525.0</ele><time>2026-04-24T09:54:53.038Z</time></trkpt><trkpt lat="43.1409482" lon="12.7709208"><ele>525.0</ele><time>2026-04-24T09:54:54.037Z</time></trkpt><trkpt lat="43.1410603" lon="12.7709607"><ele>523.25</ele><time>2026-04-24T09:54:55.038Z</time></trkpt><trkpt lat="43.1411622" lon="12.771052"><ele>521.5</ele><time>2026-04-24T09:54:56.048Z</time></trkpt><trkpt lat="43.1412503" lon="12.7711822"><ele>519.75</ele><time>2026-04-24T09:54:57.034Z</time></trkpt><trkpt lat="43.1413398" lon="12.7713153"><ele>518.0</ele><time>2026-04-24T09:54:58.036Z</time></trkpt><trkpt lat="43.1414234" lon="12.7714339"><ele>518.0</ele><time>2026-04-24T09:54:59.038Z</time></trkpt><trkpt lat="43.1415135" lon="12.7715364"><ele>518.0</ele><time>2026-04-24T09:55:00.035Z</time></trkpt><trkpt lat="43.1416253" lon="12.7716023"><ele>518.0</ele><time>2026-04-24T09:55:01.048Z</time></trkpt><trkpt lat="43.1417539" lon="12.7715997"><ele>518.0</ele><time>2026-04-24T09:55:02.03Z</time></trkpt><trkpt lat="43.1418722" lon="12.7715375"><ele>518.75</ele><time>2026-04-24T09:55:03.034Z</time></trkpt><trkpt lat="43.1419849" lon="12.7714502"><ele>519.5</ele><time>2026-04-24T09:55:04.035Z</time></trkpt><trkpt lat="43.1421045" lon="12.7714141"><ele>520.25</ele><time>2026-04-24T09:55:05.039Z</time></trkpt><trkpt lat="43.1422128" lon="12.7714357"><ele>521.0</ele><time>2026-04-24T09:55:06.034Z</time></trkpt><trkpt lat="43.1423217" lon="12.7715183"><ele>519.5</ele><time>2026-04-24T09:55:07.03Z</time></trkpt><trkpt lat="43.1424247" lon="12.7716449"><ele>518.0</ele><time>2026-04-24T09:55:08.028Z</time></trkpt><trkpt lat="43.1425301" lon="12.7717683"><ele>516.5</ele><time>2026-04-24T09:55:09.043Z</time></trkpt><trkpt lat="43.1426307" lon="12.7718929"><ele>515.0</ele><time>2026-04-24T09:55:10.042Z</time></trkpt><trkpt lat="43.1427366" lon="12.7720063"><ele>511.0</ele><time>2026-04-24T09:55:11.04Z</time></trkpt><trkpt lat="43.1428425" lon="12.7720993"><ele>507.0</ele><time>2026-04-24T09:55:12.04Z</time></trkpt><trkpt lat="43.1429485" lon="12.7721707"><ele>503.0</ele><time>2026-04-24T09:55:13.038Z</time></trkpt><trkpt lat="43.1430482" lon="12.7722217"><ele>499.0</ele><time>2026-04-24T09:55:14.044Z</time></trkpt><trkpt lat="43.1431418" lon="12.7722601"><ele>495.0</ele><time>2026-04-24T09:55:15.034Z</time></trkpt><trkpt lat="43.1432204" lon="12.7722924"><ele>495.0</ele><time>2026-04-24T09:55:16.036Z</time></trkpt><trkpt lat="43.1432762" lon="12.7723409"><ele>495.0</ele><time>2026-04-24T09:55:17.038Z</time></trkpt><trkpt lat="43.1433049" lon="12.7724249"><ele>495.0</ele><time>2026-04-24T09:55:18.041Z</time></trkpt><trkpt lat="43.1432285" lon="12.7725469"><ele>495.0</ele><time>2026-04-24T09:55:20.013Z</time></trkpt><trkpt lat="43.1431502" lon="12.7725405"><ele>495.0</ele><time>2026-04-24T09:55:21.024Z</time></trkpt><trkpt lat="43.1430338" lon="12.772517"><ele>495.0</ele><time>2026-04-24T09:55:22.039Z</time></trkpt><trkpt lat="43.1429017" lon="12.7724875"><ele>495.0</ele><time>2026-04-24T09:55:23.039Z</time></trkpt><trkpt lat="43.1427623" lon="12.7724895"><ele>495.0</ele><time>2026-04-24T09:55:24.043Z</time></trkpt><trkpt lat="43.1426196" lon="12.7725078"><ele>495.0</ele><time>2026-04-24T09:55:25.046Z</time></trkpt><trkpt lat="43.1424894" lon="12.7725425"><ele>495.0</ele><time>2026-04-24T09:55:26.025Z</time></trkpt><trkpt lat="43.142373" lon="12.7725875"><ele>496.5</ele><time>2026-04-24T09:55:27.007Z</time></trkpt><trkpt lat="43.1422686" lon="12.772655"><ele>498.0</ele><time>2026-04-24T09:55:28.034Z</time></trkpt><trkpt lat="43.1421677" lon="12.7727436"><ele>499.5</ele><time>2026-04-24T09:55:29.042Z</time></trkpt><trkpt lat="43.1420751" lon="12.772844"><ele>501.0</ele><time>2026-04-24T09:55:30.024Z</time></trkpt><trkpt lat="43.1419856" lon="12.7729538"><ele>496.25</ele><time>2026-04-24T09:55:31.059Z</time></trkpt><trkpt lat="43.1418879" lon="12.7730617"><ele>491.5</ele><time>2026-04-24T09:55:32.043Z</time></trkpt><trkpt lat="43.1417717" lon="12.7731494"><ele>486.75</ele><time>2026-04-24T09:55:33.032Z</time></trkpt><trkpt lat="43.1416471" lon="12.7732091"><ele>482.0</ele><time>2026-04-24T09:55:34.038Z</time></trkpt><trkpt lat="43.1415128" lon="12.7732334"><ele>482.0</ele><time>2026-04-24T09:55:35.04Z</time></trkpt><trkpt lat="43.1413809" lon="12.7732214"><ele>482.0</ele><time>2026-04-24T09:55:36.037Z</time></trkpt><trkpt lat="43.1412608" lon="12.7732165"><ele>482.0</ele><time>2026-04-24T09:55:37.033Z</time></trkpt><trkpt lat="43.1411542" lon="12.7732239"><ele>482.0</ele><time>2026-04-24T09:55:38.031Z</time></trkpt><trkpt lat="43.1410649" lon="12.7732869"><ele>482.0</ele><time>2026-04-24T09:55:39.031Z</time></trkpt><trkpt lat="43.1410055" lon="12.7733998"><ele>482.0</ele><time>2026-04-24T09:55:40.032Z</time></trkpt><trkpt lat="43.1409657" lon="12.7735575"><ele>482.0</ele><time>2026-04-24T09:55:41.031Z</time></trkpt><trkpt lat="43.1409328" lon="12.7737254"><ele>482.0</ele><time>2026-04-24T09:55:42.03Z</time></trkpt><trkpt lat="43.1409326" lon="12.7738859"><ele>479.40000000000003</ele><time>2026-04-24T09:55:43.038Z</time></trkpt><trkpt lat="43.1409324" lon="12.7740267"><ele>476.80000000000007</ele><time>2026-04-24T09:55:44.032Z</time></trkpt><trkpt lat="43.1409229" lon="12.7741633"><ele>474.2</ele><time>2026-04-24T09:55:45.04Z</time></trkpt><trkpt lat="43.1408804" lon="12.7742871"><ele>471.6</ele><time>2026-04-24T09:55:46.033Z</time></trkpt><trkpt lat="43.1408165" lon="12.774393"><ele>469.0</ele><time>2026-04-24T09:55:47.028Z</time></trkpt><trkpt lat="43.1407316" lon="12.7744523"><ele>463.0</ele><time>2026-04-24T09:55:48.03Z</time></trkpt><trkpt lat="43.1406408" lon="12.7744788"><ele>457.0</ele><time>2026-04-24T09:55:49.029Z</time></trkpt><trkpt lat="43.1405357" lon="12.77447"><ele>451.0</ele><time>2026-04-24T09:55:50.01Z</time></trkpt><trkpt lat="43.140424" lon="12.7744419"><ele>445.0</ele><time>2026-04-24T09:55:51.033Z</time></trkpt><trkpt lat="43.140289" lon="12.7743954"><ele>444.33333333333337</ele><time>2026-04-24T09:55:52.033Z</time></trkpt><trkpt lat="43.1401395" lon="12.7743156"><ele>443.66666666666663</ele><time>2026-04-24T09:55:53.044Z</time></trkpt><trkpt lat="43.1399813" lon="12.7742068"><ele>443.0</ele><time>2026-04-24T09:55:54.034Z</time></trkpt><trkpt lat="43.1398289" lon="12.7741057"><ele>443.0</ele><time>2026-04-24T09:55:55.025Z</time></trkpt><trkpt lat="43.1396766" lon="12.7740185"><ele>443.0</ele><time>2026-04-24T09:55:56.054Z</time></trkpt><trkpt lat="43.139523" lon="12.7739414"><ele>443.0</ele><time>2026-04-24T09:55:57.029Z</time></trkpt><trkpt lat="43.1393692" lon="12.7738638"><ele>443.0</ele><time>2026-04-24T09:55:58.029Z</time></trkpt><trkpt lat="43.1392118" lon="12.773809"><ele>443.0</ele><time>2026-04-24T09:55:59.032Z</time></trkpt><trkpt lat="43.1390588" lon="12.7737625"><ele>443.0</ele><time>2026-04-24T09:56:00.039Z</time></trkpt><trkpt lat="43.1389095" lon="12.7737229"><ele>439.66666666666663</ele><time>2026-04-24T09:56:01.032Z</time></trkpt><trkpt lat="43.1387621" lon="12.7736875"><ele>436.33333333333337</ele><time>2026-04-24T09:56:02.029Z</time></trkpt><trkpt lat="43.1386117" lon="12.7736455"><ele>433.0</ele><time>2026-04-24T09:56:03.031Z</time></trkpt><trkpt lat="43.1384583" lon="12.7735901"><ele>433.75</ele><time>2026-04-24T09:56:04.035Z</time></trkpt><trkpt lat="43.1383063" lon="12.7735104"><ele>434.5</ele><time>2026-04-24T09:56:05.032Z</time></trkpt><trkpt lat="43.1381814" lon="12.7734107"><ele>435.25</ele><time>2026-04-24T09:56:06.035Z</time></trkpt><trkpt lat="43.138077" lon="12.7732838"><ele>436.0</ele><time>2026-04-24T09:56:07.036Z</time></trkpt><trkpt lat="43.1379855" lon="12.7731353"><ele>436.0</ele><time>2026-04-24T09:56:08.036Z</time></trkpt><trkpt lat="43.1378961" lon="12.7729952"><ele>436.0</ele><time>2026-04-24T09:56:09.022Z</time></trkpt><trkpt lat="43.1378075" lon="12.7728689"><ele>436.0</ele><time>2026-04-24T09:56:10.034Z</time></trkpt><trkpt lat="43.1377188" lon="12.7727761"><ele>436.0</ele><time>2026-04-24T09:56:11.031Z</time></trkpt><trkpt lat="43.137616" lon="12.7727336"><ele>436.0</ele><time>2026-04-24T09:56:12.032Z</time></trkpt><trkpt lat="43.1375339" lon="12.7727576"><ele>436.0</ele><time>2026-04-24T09:56:13.006Z</time></trkpt><trkpt lat="43.1374419" lon="12.772831"><ele>436.0</ele><time>2026-04-24T09:56:14.008Z</time></trkpt><trkpt lat="43.1373517" lon="12.772906"><ele>436.0</ele><time>2026-04-24T09:56:15.045Z</time></trkpt><trkpt lat="43.1372505" lon="12.7729651"><ele>436.0</ele><time>2026-04-24T09:56:16.033Z</time></trkpt><trkpt lat="43.1371569" lon="12.7729869"><ele>435.4</ele><time>2026-04-24T09:56:17.044Z</time></trkpt><trkpt lat="43.137054" lon="12.7730007"><ele>434.8</ele><time>2026-04-24T09:56:18.028Z</time></trkpt><trkpt lat="43.1369552" lon="12.772988"><ele>434.19999999999993</ele><time>2026-04-24T09:56:19.038Z</time></trkpt><trkpt lat="43.1368448" lon="12.7729621"><ele>433.59999999999997</ele><time>2026-04-24T09:56:20.026Z</time></trkpt><trkpt lat="43.1367265" lon="12.7729129"><ele>433.0</ele><time>2026-04-24T09:56:21.031Z</time></trkpt><trkpt lat="43.1366032" lon="12.7728494"><ele>432.75</ele><time>2026-04-24T09:56:22.047Z</time></trkpt><trkpt lat="43.1364855" lon="12.7727643"><ele>432.5</ele><time>2026-04-24T09:56:23.028Z</time></trkpt><trkpt lat="43.1363834" lon="12.7726682"><ele>432.25</ele><time>2026-04-24T09:56:24.044Z</time></trkpt><trkpt lat="43.1362775" lon="12.7725978"><ele>432.0</ele><time>2026-04-24T09:56:25.046Z</time></trkpt><trkpt lat="43.136172" lon="12.7725548"><ele>432.0</ele><time>2026-04-24T09:56:26.023Z</time></trkpt><trkpt lat="43.136073" lon="12.772528"><ele>432.00000000000006</ele><time>2026-04-24T09:56:27.003Z</time></trkpt><trkpt lat="43.1359851" lon="12.7725212"><ele>432.00000000000006</ele><time>2026-04-24T09:56:28.035Z</time></trkpt><trkpt lat="43.1359005" lon="12.7725523"><ele>432.0</ele><time>2026-04-24T09:56:29.034Z</time></trkpt><trkpt lat="43.13582" lon="12.7726335"><ele>432.0</ele><time>2026-04-24T09:56:30.036Z</time></trkpt><trkpt lat="43.1357564" lon="12.7727393"><ele>430.6666666666667</ele><time>2026-04-24T09:56:31.04Z</time></trkpt><trkpt lat="43.1356993" lon="12.7728448"><ele>429.33333333333337</ele><time>2026-04-24T09:56:32.03Z</time></trkpt><trkpt lat="43.1356462" lon="12.7729434"><ele>428.0</ele><time>2026-04-24T09:56:33.048Z</time></trkpt><trkpt lat="43.1355958" lon="12.7730419"><ele>426.6666666666667</ele><time>2026-04-24T09:56:34.043Z</time></trkpt><trkpt lat="43.1355623" lon="12.7731176"><ele>425.33333333333337</ele><time>2026-04-24T09:56:35.035Z</time></trkpt><trkpt lat="43.1355208" lon="12.7732377"><ele>424.0</ele><time>2026-04-24T09:56:37.025Z</time></trkpt><trkpt lat="43.1355134" lon="12.7733455"><ele>424.0</ele><time>2026-04-24T09:56:39.012Z</time></trkpt><trkpt lat="43.1355333" lon="12.7734722"><ele>424.0</ele><time>2026-04-24T09:56:41.021Z</time></trkpt><trkpt lat="43.1355525" lon="12.7735664"><ele>424.0</ele><time>2026-04-24T09:56:42.037Z</time></trkpt><trkpt lat="43.1355753" lon="12.7736707"><ele>424.0</ele><time>2026-04-24T09:56:43.036Z</time></trkpt><trkpt lat="43.1355778" lon="12.7738122"><ele>424.0</ele><time>2026-04-24T09:56:44.047Z</time></trkpt><trkpt lat="43.1355591" lon="12.773967"><ele>424.6</ele><time>2026-04-24T09:56:45.042Z</time></trkpt><trkpt lat="43.1355259" lon="12.7741275"><ele>425.2</ele><time>2026-04-24T09:56:46.043Z</time></trkpt><trkpt lat="43.1354863" lon="12.7742772"><ele>425.80000000000007</ele><time>2026-04-24T09:56:47.045Z</time></trkpt><trkpt lat="43.1354381" lon="12.7743942"><ele>426.40000000000003</ele><time>2026-04-24T09:56:48.037Z</time></trkpt><trkpt lat="43.1353837" lon="12.7744876"><ele>427.0</ele><time>2026-04-24T09:56:49.037Z</time></trkpt><trkpt lat="43.135342" lon="12.7745622"><ele>427.6666666666667</ele><time>2026-04-24T09:56:50.028Z</time></trkpt><trkpt lat="43.135338" lon="12.7746586"><ele>428.33333333333337</ele><time>2026-04-24T09:56:52.032Z</time></trkpt><trkpt lat="43.1354195" lon="12.7746847"><ele>429.0</ele><time>2026-04-24T09:56:54.036Z</time></trkpt><trkpt lat="43.1355399" lon="12.7747342"><ele>429.66666666666663</ele><time>2026-04-24T09:56:56.023Z</time></trkpt><trkpt lat="43.1355987" lon="12.7747844"><ele>430.3333333333333</ele><time>2026-04-24T09:56:57.04Z</time></trkpt><trkpt lat="43.1356517" lon="12.7748526"><ele>431.0</ele><time>2026-04-24T09:56:58.035Z</time></trkpt><trkpt lat="43.1357025" lon="12.7749293"><ele>430.8</ele><time>2026-04-24T09:56:59.031Z</time></trkpt><trkpt lat="43.1357412" lon="12.775002"><ele>430.6</ele><time>2026-04-24T09:57:00.006Z</time></trkpt><trkpt lat="43.1357836" lon="12.7750703"><ele>430.4</ele><time>2026-04-24T09:57:01Z</time></trkpt><trkpt lat="43.1358601" lon="12.7751668"><ele>430.2</ele><time>2026-04-24T09:57:03.035Z</time></trkpt><trkpt lat="43.1359577" lon="12.775291"><ele>430.0</ele><time>2026-04-24T09:57:05.041Z</time></trkpt><trkpt lat="43.1360207" lon="12.7753623"><ele>431.0</ele><time>2026-04-24T09:57:06.037Z</time></trkpt><trkpt lat="43.1360814" lon="12.7754335"><ele>432.0</ele><time>2026-04-24T09:57:07.036Z</time></trkpt><trkpt lat="43.1361458" lon="12.7755011"><ele>433.0</ele><time>2026-04-24T09:57:08.034Z</time></trkpt><trkpt lat="43.1362049" lon="12.7755683"><ele>434.0</ele><time>2026-04-24T09:57:09.035Z</time></trkpt><trkpt lat="43.1362565" lon="12.7756328"><ele>435.0</ele><time>2026-04-24T09:57:10.011Z</time></trkpt><trkpt lat="43.1363079" lon="12.7756964"><ele>436.0</ele><time>2026-04-24T09:57:11.036Z</time></trkpt><trkpt lat="43.136357" lon="12.7757537"><ele>437.0</ele><time>2026-04-24T09:57:12.028Z</time></trkpt><trkpt lat="43.1364136" lon="12.7758091"><ele>437.0</ele><time>2026-04-24T09:57:12.998Z</time></trkpt><trkpt lat="43.1364714" lon="12.775863"><ele>437.0</ele><time>2026-04-24T09:57:14.033Z</time></trkpt><trkpt lat="43.1365311" lon="12.7759251"><ele>437.0</ele><time>2026-04-24T09:57:15.036Z</time></trkpt><trkpt lat="43.1365916" lon="12.7759763"><ele>437.0</ele><time>2026-04-24T09:57:16.035Z</time></trkpt><trkpt lat="43.1366546" lon="12.7760219"><ele>437.0</ele><time>2026-04-24T09:57:17.035Z</time></trkpt><trkpt lat="43.1367143" lon="12.7760601"><ele>437.0</ele><time>2026-04-24T09:57:18.038Z</time></trkpt><trkpt lat="43.1367746" lon="12.7760916"><ele>437.0</ele><time>2026-04-24T09:57:19.041Z</time></trkpt><trkpt lat="43.1368844" lon="12.7761458"><ele>437.6</ele><time>2026-04-24T09:57:21.044Z</time></trkpt><trkpt lat="43.1369841" lon="12.7762084"><ele>438.20000000000005</ele><time>2026-04-24T09:57:23.045Z</time></trkpt><trkpt lat="43.1370846" lon="12.776299"><ele>438.8</ele><time>2026-04-24T09:57:25.031Z</time></trkpt><trkpt lat="43.1371741" lon="12.7763838"><ele>439.4</ele><time>2026-04-24T09:57:27.006Z</time></trkpt><trkpt lat="43.1372581" lon="12.7764677"><ele>440.0</ele><time>2026-04-24T09:57:29.041Z</time></trkpt><trkpt lat="43.1373273" lon="12.7765409"><ele>439.4</ele><time>2026-04-24T09:57:31.041Z</time></trkpt><trkpt lat="43.1374015" lon="12.7766129"><ele>438.8</ele><time>2026-04-24T09:57:33.026Z</time></trkpt><trkpt lat="43.1374816" lon="12.7767039"><ele>438.20000000000005</ele><time>2026-04-24T09:57:35.035Z</time></trkpt><trkpt lat="43.1375604" lon="12.7768192"><ele>437.6</ele><time>2026-04-24T09:57:37.023Z</time></trkpt><trkpt lat="43.1376336" lon="12.7769436"><ele>437.0</ele><time>2026-04-24T09:57:39.01Z</time></trkpt><trkpt lat="43.1376806" lon="12.7770584"><ele>437.0</ele><time>2026-04-24T09:57:41.047Z</time></trkpt><trkpt lat="43.1377159" lon="12.7771651"><ele>437.00000000000006</ele><time>2026-04-24T09:57:43.034Z</time></trkpt><trkpt lat="43.1377303" lon="12.7772623"><ele>437.00000000000006</ele><time>2026-04-24T09:57:45.041Z</time></trkpt><trkpt lat="43.1377617" lon="12.7774154"><ele>437.0</ele><time>2026-04-24T09:57:47.027Z</time></trkpt><trkpt lat="43.1378087" lon="12.777572"><ele>437.0</ele><time>2026-04-24T09:57:49.041Z</time></trkpt><trkpt lat="43.1378552" lon="12.7776766"><ele>437.16666666666663</ele><time>2026-04-24T09:57:51.03Z</time></trkpt><trkpt lat="43.1379118" lon="12.7777535"><ele>437.3333333333333</ele><time>2026-04-24T09:57:53.045Z</time></trkpt><trkpt lat="43.1379806" lon="12.7778495"><ele>437.5</ele><time>2026-04-24T09:57:55.04Z</time></trkpt><trkpt lat="43.1380473" lon="12.7779286"><ele>437.66666666666663</ele><time>2026-04-24T09:57:57.017Z</time></trkpt><trkpt lat="43.1381162" lon="12.7780111"><ele>437.8333333333333</ele><time>2026-04-24T09:57:59.031Z</time></trkpt><trkpt lat="43.1381622" lon="12.7780933"><ele>438.0</ele><time>2026-04-24T09:58:01.037Z</time></trkpt><trkpt lat="43.138203" lon="12.778176"><ele>437.5</ele><time>2026-04-24T09:58:05.033Z</time></trkpt><trkpt lat="43.1382533" lon="12.7782794"><ele>437.0</ele><time>2026-04-24T09:58:08.024Z</time></trkpt><trkpt lat="43.1382855" lon="12.7783609"><ele>436.5</ele><time>2026-04-24T09:58:10.039Z</time></trkpt><trkpt lat="43.1383262" lon="12.7784435"><ele>436.0</ele><time>2026-04-24T09:58:12.038Z</time></trkpt><trkpt lat="43.1383739" lon="12.7785426"><ele>435.5</ele><time>2026-04-24T09:58:15.039Z</time></trkpt><trkpt lat="43.1384155" lon="12.7786198"><ele>435.0</ele><time>2026-04-24T09:58:17.041Z</time></trkpt><trkpt lat="43.1384499" lon="12.7786957"><ele>436.8333333333333</ele><time>2026-04-24T09:58:19.032Z</time></trkpt><trkpt lat="43.1384775" lon="12.7787736"><ele>438.66666666666663</ele><time>2026-04-24T09:58:21.051Z</time></trkpt><trkpt lat="43.1384915" lon="12.7788865"><ele>440.5</ele><time>2026-04-24T09:58:24.037Z</time></trkpt><trkpt lat="43.1384912" lon="12.7789966"><ele>442.3333333333333</ele><time>2026-04-24T09:58:26.042Z</time></trkpt><trkpt lat="43.1384551" lon="12.7790753"><ele>444.16666666666663</ele><time>2026-04-24T09:58:28.026Z</time></trkpt><trkpt lat="43.1383934" lon="12.7791846"><ele>446.0</ele><time>2026-04-24T09:58:30.049Z</time></trkpt><trkpt lat="43.1383159" lon="12.7793292"><ele>445.8333333333333</ele><time>2026-04-24T09:58:32.035Z</time></trkpt><trkpt lat="43.1382688" lon="12.7794152"><ele>445.66666666666663</ele><time>2026-04-24T09:58:33.028Z</time></trkpt><trkpt lat="43.1382195" lon="12.7795046"><ele>445.5</ele><time>2026-04-24T09:58:34.037Z</time></trkpt><trkpt lat="43.1381758" lon="12.7795931"><ele>445.33333333333337</ele><time>2026-04-24T09:58:35.037Z</time></trkpt><trkpt lat="43.1381341" lon="12.7796879"><ele>445.1666666666667</ele><time>2026-04-24T09:58:36.034Z</time></trkpt><trkpt lat="43.138092" lon="12.7797931"><ele>445.0</ele><time>2026-04-24T09:58:37.046Z</time></trkpt><trkpt lat="43.1380549" lon="12.7799117"><ele>445.0</ele><time>2026-04-24T09:58:38.014Z</time></trkpt><trkpt lat="43.1380066" lon="12.7800413"><ele>445.0</ele><time>2026-04-24T09:58:39.034Z</time></trkpt><trkpt lat="43.1379574" lon="12.780183"><ele>445.0</ele><time>2026-04-24T09:58:40.028Z</time></trkpt><trkpt lat="43.1379047" lon="12.7803275"><ele>445.0</ele><time>2026-04-24T09:58:41.049Z</time></trkpt><trkpt lat="43.1378483" lon="12.7804789"><ele>445.75</ele><time>2026-04-24T09:58:42.023Z</time></trkpt><trkpt lat="43.1377871" lon="12.7806225"><ele>446.5</ele><time>2026-04-24T09:58:43.023Z</time></trkpt><trkpt lat="43.1377339" lon="12.7807658"><ele>447.25</ele><time>2026-04-24T09:58:44.029Z</time></trkpt><trkpt lat="43.1376883" lon="12.7809025"><ele>448.0</ele><time>2026-04-24T09:58:45.044Z</time></trkpt><trkpt lat="43.137656" lon="12.7810413"><ele>448.25</ele><time>2026-04-24T09:58:46.028Z</time></trkpt><trkpt lat="43.1376277" lon="12.7811884"><ele>448.5</ele><time>2026-04-24T09:58:47.048Z</time></trkpt><trkpt lat="43.1375988" lon="12.7813441"><ele>448.75</ele><time>2026-04-24T09:58:48.033Z</time></trkpt><trkpt lat="43.1375851" lon="12.7815098"><ele>449.0</ele><time>2026-04-24T09:58:49.011Z</time></trkpt><trkpt lat="43.13758" lon="12.7816881"><ele>450.0</ele><time>2026-04-24T09:58:50.03Z</time></trkpt><trkpt lat="43.1375728" lon="12.7818683"><ele>451.0</ele><time>2026-04-24T09:58:51.003Z</time></trkpt><trkpt lat="43.1375626" lon="12.7820525"><ele>452.0</ele><time>2026-04-24T09:58:52.042Z</time></trkpt><trkpt lat="43.1375575" lon="12.7822501"><ele>453.0</ele><time>2026-04-24T09:58:53.039Z</time></trkpt><trkpt lat="43.1375533" lon="12.7824616"><ele>454.33333333333337</ele><time>2026-04-24T09:58:54.044Z</time></trkpt><trkpt lat="43.1375585" lon="12.7826908"><ele>455.6666666666667</ele><time>2026-04-24T09:58:55.042Z</time></trkpt><trkpt lat="43.137558" lon="12.7829189"><ele>457.0</ele><time>2026-04-24T09:58:56.005Z</time></trkpt><trkpt lat="43.1375624" lon="12.7831324"><ele>457.0</ele><time>2026-04-24T09:58:57.033Z</time></trkpt><trkpt lat="43.1375639" lon="12.7833397"><ele>457.0</ele><time>2026-04-24T09:58:58.043Z</time></trkpt><trkpt lat="43.1375619" lon="12.7835458"><ele>457.0</ele><time>2026-04-24T09:58:59.037Z</time></trkpt><trkpt lat="43.1375632" lon="12.7837613"><ele>459.0</ele><time>2026-04-24T09:59:00.045Z</time></trkpt><trkpt lat="43.1375751" lon="12.7839708"><ele>461.0</ele><time>2026-04-24T09:59:01.039Z</time></trkpt><trkpt lat="43.1376101" lon="12.7841752"><ele>463.0</ele><time>2026-04-24T09:59:02.039Z</time></trkpt><trkpt lat="43.1376592" lon="12.7843783"><ele>464.6666666666667</ele><time>2026-04-24T09:59:03.033Z</time></trkpt><trkpt lat="43.1377184" lon="12.7845862"><ele>466.33333333333337</ele><time>2026-04-24T09:59:04.035Z</time></trkpt><trkpt lat="43.1377904" lon="12.7847905"><ele>468.0</ele><time>2026-04-24T09:59:05.045Z</time></trkpt><trkpt lat="43.1378541" lon="12.7849952"><ele>468.66666666666663</ele><time>2026-04-24T09:59:06.032Z</time></trkpt><trkpt lat="43.1379224" lon="12.7852067"><ele>469.3333333333333</ele><time>2026-04-24T09:59:07.041Z</time></trkpt><trkpt lat="43.1379851" lon="12.7854259"><ele>470.0</ele><time>2026-04-24T09:59:07.997Z</time></trkpt><trkpt lat="43.138027" lon="12.7856426"><ele>470.0</ele><time>2026-04-24T09:59:09.029Z</time></trkpt><trkpt lat="43.1380695" lon="12.7858743"><ele>470.0</ele><time>2026-04-24T09:59:10.034Z</time></trkpt><trkpt lat="43.1381102" lon="12.7861112"><ele>470.0</ele><time>2026-04-24T09:59:11.037Z</time></trkpt><trkpt lat="43.1381549" lon="12.78633"><ele>470.0</ele><time>2026-04-24T09:59:12.032Z</time></trkpt><trkpt lat="43.1382017" lon="12.786536"><ele>470.0</ele><time>2026-04-24T09:59:13.038Z</time></trkpt><trkpt lat="43.138239" lon="12.7867252"><ele>470.0</ele><time>2026-04-24T09:59:14.037Z</time></trkpt><trkpt lat="43.1382602" lon="12.7869003"><ele>470.0</ele><time>2026-04-24T09:59:15.042Z</time></trkpt><trkpt lat="43.1382707" lon="12.7870884"><ele>470.0</ele><time>2026-04-24T09:59:16.035Z</time></trkpt><trkpt lat="43.1382794" lon="12.7872659"><ele>470.0</ele><time>2026-04-24T09:59:17.033Z</time></trkpt><trkpt lat="43.1382848" lon="12.7874415"><ele>470.0</ele><time>2026-04-24T09:59:18.035Z</time></trkpt><trkpt lat="43.1382873" lon="12.7876224"><ele>470.0</ele><time>2026-04-24T09:59:19.048Z</time></trkpt><trkpt lat="43.1382915" lon="12.7878088"><ele>471.0</ele><time>2026-04-24T09:59:20.023Z</time></trkpt><trkpt lat="43.138282" lon="12.788009"><ele>472.0</ele><time>2026-04-24T09:59:21.041Z</time></trkpt><trkpt lat="43.1382609" lon="12.7882232"><ele>473.0</ele><time>2026-04-24T09:59:22.045Z</time></trkpt><trkpt lat="43.1382301" lon="12.7884345"><ele>474.66666666666663</ele><time>2026-04-24T09:59:23.047Z</time></trkpt><trkpt lat="43.1381887" lon="12.7886428"><ele>476.33333333333337</ele><time>2026-04-24T09:59:24.04Z</time></trkpt><trkpt lat="43.1381514" lon="12.7888459"><ele>478.0</ele><time>2026-04-24T09:59:25.041Z</time></trkpt><trkpt lat="43.13811" lon="12.789063"><ele>478.0</ele><time>2026-04-24T09:59:26.009Z</time></trkpt><trkpt lat="43.138062" lon="12.7892914"><ele>478.0</ele><time>2026-04-24T09:59:27.006Z</time></trkpt><trkpt lat="43.1380149" lon="12.7895281"><ele>478.0</ele><time>2026-04-24T09:59:28.042Z</time></trkpt><trkpt lat="43.1379605" lon="12.7897526"><ele>478.5</ele><time>2026-04-24T09:59:29.042Z</time></trkpt><trkpt lat="43.1379115" lon="12.7899633"><ele>479.0</ele><time>2026-04-24T09:59:30.038Z</time></trkpt><trkpt lat="43.1378644" lon="12.7901579"><ele>479.5</ele><time>2026-04-24T09:59:31.042Z</time></trkpt><trkpt lat="43.1378137" lon="12.7903297"><ele>480.0</ele><time>2026-04-24T09:59:32.032Z</time></trkpt><trkpt lat="43.1377709" lon="12.7904918"><ele>480.5</ele><time>2026-04-24T09:59:33.047Z</time></trkpt><trkpt lat="43.1377296" lon="12.7906348"><ele>481.0</ele><time>2026-04-24T09:59:34.032Z</time></trkpt><trkpt lat="43.137693" lon="12.7907474"><ele>481.5</ele><time>2026-04-24T09:59:35.043Z</time></trkpt><trkpt lat="43.1376565" lon="12.7908328"><ele>482.0</ele><time>2026-04-24T09:59:36.042Z</time></trkpt><trkpt lat="43.1376024" lon="12.7908932"><ele>482.5</ele><time>2026-04-24T09:59:37.01Z</time></trkpt><trkpt lat="43.1375212" lon="12.7909256"><ele>483.0</ele><time>2026-04-24T09:59:38.03Z</time></trkpt><trkpt lat="43.1374174" lon="12.7909443"><ele>482.25</ele><time>2026-04-24T09:59:39.035Z</time></trkpt><trkpt lat="43.1372952" lon="12.7909733"><ele>481.5</ele><time>2026-04-24T09:59:40.033Z</time></trkpt><trkpt lat="43.137166" lon="12.7910178"><ele>480.75</ele><time>2026-04-24T09:59:41.039Z</time></trkpt><trkpt lat="43.137028" lon="12.7910801"><ele>480.0</ele><time>2026-04-24T09:59:42.026Z</time></trkpt><trkpt lat="43.1368993" lon="12.7911447"><ele>480.0</ele><time>2026-04-24T09:59:43.013Z</time></trkpt><trkpt lat="43.1367771" lon="12.7912133"><ele>480.0</ele><time>2026-04-24T09:59:44.034Z</time></trkpt><trkpt lat="43.1366547" lon="12.7912791"><ele>480.0</ele><time>2026-04-24T09:59:45.037Z</time></trkpt><trkpt lat="43.1365308" lon="12.7913462"><ele>480.0</ele><time>2026-04-24T09:59:46.028Z</time></trkpt><trkpt lat="43.1364104" lon="12.7914102"><ele>478.6</ele><time>2026-04-24T09:59:47.046Z</time></trkpt><trkpt lat="43.1362971" lon="12.791469"><ele>477.2</ele><time>2026-04-24T09:59:48.041Z</time></trkpt><trkpt lat="43.1362031" lon="12.7915209"><ele>475.79999999999995</ele><time>2026-04-24T09:59:49.044Z</time></trkpt><trkpt lat="43.136127" lon="12.7915718"><ele>474.4</ele><time>2026-04-24T09:59:50.033Z</time></trkpt><trkpt lat="43.1360708" lon="12.7916489"><ele>473.0</ele><time>2026-04-24T09:59:51.026Z</time></trkpt><trkpt lat="43.1360379" lon="12.7917506"><ele>473.66666666666663</ele><time>2026-04-24T09:59:52.03Z</time></trkpt><trkpt lat="43.136022" lon="12.7918745"><ele>474.3333333333333</ele><time>2026-04-24T09:59:53.027Z</time></trkpt><trkpt lat="43.1360224" lon="12.7919922"><ele>475.0</ele><time>2026-04-24T09:59:54.043Z</time></trkpt><trkpt lat="43.1360333" lon="12.7920796"><ele>475.66666666666663</ele><time>2026-04-24T09:59:55.039Z</time></trkpt><trkpt lat="43.1360732" lon="12.7922022"><ele>476.3333333333333</ele><time>2026-04-24T09:59:57.037Z</time></trkpt><trkpt lat="43.1360749" lon="12.7923273"><ele>477.0</ele><time>2026-04-24T09:59:59.039Z</time></trkpt><trkpt lat="43.1359876" lon="12.7924614"><ele>477.0</ele><time>2026-04-24T10:00:01.038Z</time></trkpt><trkpt lat="43.1359139" lon="12.7925183"><ele>477.00000000000006</ele><time>2026-04-24T10:00:02.02Z</time></trkpt><trkpt lat="43.1358322" lon="12.7925641"><ele>477.00000000000006</ele><time>2026-04-24T10:00:03.02Z</time></trkpt><trkpt lat="43.1357412" lon="12.7926142"><ele>477.0</ele><time>2026-04-24T10:00:04.04Z</time></trkpt><trkpt lat="43.1356514" lon="12.7926661"><ele>477.0</ele><time>2026-04-24T10:00:05.037Z</time></trkpt><trkpt lat="43.1355611" lon="12.7927235"><ele>479.40000000000003</ele><time>2026-04-24T10:00:06.035Z</time></trkpt><trkpt lat="43.1354704" lon="12.7927868"><ele>481.80000000000007</ele><time>2026-04-24T10:00:07.034Z</time></trkpt><trkpt lat="43.1353902" lon="12.7928667"><ele>484.2</ele><time>2026-04-24T10:00:08.044Z</time></trkpt><trkpt lat="43.1353153" lon="12.7929809"><ele>486.6</ele><time>2026-04-24T10:00:09.03Z</time></trkpt><trkpt lat="43.1352871" lon="12.7931207"><ele>489.0</ele><time>2026-04-24T10:00:10.034Z</time></trkpt><trkpt lat="43.1352763" lon="12.7932663"><ele>489.0</ele><time>2026-04-24T10:00:11.046Z</time></trkpt><trkpt lat="43.1352725" lon="12.7934031"><ele>489.0</ele><time>2026-04-24T10:00:12.029Z</time></trkpt><trkpt lat="43.135256" lon="12.7935368"><ele>489.0</ele><time>2026-04-24T10:00:13.042Z</time></trkpt><trkpt lat="43.135235" lon="12.7936672"><ele>489.0</ele><time>2026-04-24T10:00:14.035Z</time></trkpt><trkpt lat="43.1352143" lon="12.7937947"><ele>489.0</ele><time>2026-04-24T10:00:15.039Z</time></trkpt><trkpt lat="43.1351881" lon="12.7939155"><ele>490.2</ele><time>2026-04-24T10:00:16.015Z</time></trkpt><trkpt lat="43.1351561" lon="12.7940293"><ele>491.4</ele><time>2026-04-24T10:00:17.015Z</time></trkpt><trkpt lat="43.1351161" lon="12.7941384"><ele>492.6</ele><time>2026-04-24T10:00:18.037Z</time></trkpt><trkpt lat="43.1350623" lon="12.7942453"><ele>493.8</ele><time>2026-04-24T10:00:19.021Z</time></trkpt><trkpt lat="43.1350102" lon="12.7943769"><ele>495.0</ele><time>2026-04-24T10:00:20.037Z</time></trkpt><trkpt lat="43.1349831" lon="12.7945336"><ele>496.4</ele><time>2026-04-24T10:00:21.041Z</time></trkpt><trkpt lat="43.1349799" lon="12.7947019"><ele>497.8</ele><time>2026-04-24T10:00:22.037Z</time></trkpt><trkpt lat="43.1350052" lon="12.7948772"><ele>499.20000000000005</ele><time>2026-04-24T10:00:23.034Z</time></trkpt><trkpt lat="43.1350366" lon="12.7950162"><ele>500.6</ele><time>2026-04-24T10:00:24.032Z</time></trkpt><trkpt lat="43.1350762" lon="12.795121"><ele>502.0</ele><time>2026-04-24T10:00:25.039Z</time></trkpt><trkpt lat="43.1351244" lon="12.7952199"><ele>504.75</ele><time>2026-04-24T10:00:26.011Z</time></trkpt><trkpt lat="43.1351967" lon="12.7953154"><ele>507.5</ele><time>2026-04-24T10:00:27.006Z</time></trkpt><trkpt lat="43.1352836" lon="12.7954159"><ele>510.25</ele><time>2026-04-24T10:00:28.007Z</time></trkpt><trkpt lat="43.1353769" lon="12.7955291"><ele>513.0</ele><time>2026-04-24T10:00:29.037Z</time></trkpt><trkpt lat="43.1354614" lon="12.7956373"><ele>513.0</ele><time>2026-04-24T10:00:30.039Z</time></trkpt><trkpt lat="43.1355553" lon="12.7957514"><ele>513.0</ele><time>2026-04-24T10:00:31.034Z</time></trkpt><trkpt lat="43.135655" lon="12.7958789"><ele>513.0</ele><time>2026-04-24T10:00:32.044Z</time></trkpt><trkpt lat="43.1357519" lon="12.7960219"><ele>513.0</ele><time>2026-04-24T10:00:33.042Z</time></trkpt><trkpt lat="43.1358404" lon="12.7961885"><ele>514.0</ele><time>2026-04-24T10:00:34.031Z</time></trkpt><trkpt lat="43.1359356" lon="12.7963834"><ele>515.0</ele><time>2026-04-24T10:00:35.03Z</time></trkpt><trkpt lat="43.1360298" lon="12.7965952"><ele>516.0</ele><time>2026-04-24T10:00:36.039Z</time></trkpt><trkpt lat="43.1361373" lon="12.7968059"><ele>525.3333333333334</ele><time>2026-04-24T10:00:37.029Z</time></trkpt><trkpt lat="43.1362425" lon="12.7970091"><ele>534.6666666666667</ele><time>2026-04-24T10:00:38.003Z</time></trkpt><trkpt lat="43.1363506" lon="12.7971822"><ele>544.0</ele><time>2026-04-24T10:00:39.027Z</time></trkpt><trkpt lat="43.13646" lon="12.7973458"><ele>537.3333333333334</ele><time>2026-04-24T10:00:40.004Z</time></trkpt><trkpt lat="43.1365738" lon="12.7975278"><ele>530.6666666666666</ele><time>2026-04-24T10:00:41.028Z</time></trkpt><trkpt lat="43.1366787" lon="12.7976841"><ele>524.0</ele><time>2026-04-24T10:00:42.02Z</time></trkpt><trkpt lat="43.1367801" lon="12.7978218"><ele>524.0</ele><time>2026-04-24T10:00:43.027Z</time></trkpt><trkpt lat="43.1368863" lon="12.797941"><ele>524.0</ele><time>2026-04-24T10:00:44.03Z</time></trkpt><trkpt lat="43.1370188" lon="12.7980566"><ele>524.0</ele><time>2026-04-24T10:00:45.037Z</time></trkpt><trkpt lat="43.1371601" lon="12.7981696"><ele>524.0</ele><time>2026-04-24T10:00:46.027Z</time></trkpt><trkpt lat="43.1373019" lon="12.7982768"><ele>524.0</ele><time>2026-04-24T10:00:47.029Z</time></trkpt><trkpt lat="43.1374325" lon="12.7983703"><ele>524.0</ele><time>2026-04-24T10:00:48.011Z</time></trkpt><trkpt lat="43.1375535" lon="12.7984696"><ele>523.5</ele><time>2026-04-24T10:00:49.027Z</time></trkpt><trkpt lat="43.137664" lon="12.7985725"><ele>523.0</ele><time>2026-04-24T10:00:50.029Z</time></trkpt><trkpt lat="43.1377492" lon="12.7986914"><ele>522.5</ele><time>2026-04-24T10:00:51.037Z</time></trkpt><trkpt lat="43.1378286" lon="12.7988248"><ele>522.0</ele><time>2026-04-24T10:00:52.035Z</time></trkpt><trkpt lat="43.1378922" lon="12.798978"><ele>522.0</ele><time>2026-04-24T10:00:53.022Z</time></trkpt><trkpt lat="43.137949" lon="12.7991483"><ele>522.0</ele><time>2026-04-24T10:00:54.037Z</time></trkpt><trkpt lat="43.1379994" lon="12.7993304"><ele>522.0</ele><time>2026-04-24T10:00:55.015Z</time></trkpt><trkpt lat="43.1380579" lon="12.7995282"><ele>522.0</ele><time>2026-04-24T10:00:56.021Z</time></trkpt><trkpt lat="43.1381269" lon="12.7997406"><ele>524.6666666666666</ele><time>2026-04-24T10:00:57.028Z</time></trkpt><trkpt lat="43.1382081" lon="12.7999702"><ele>527.3333333333333</ele><time>2026-04-24T10:00:58.042Z</time></trkpt><trkpt lat="43.1383054" lon="12.800203"><ele>530.0</ele><time>2026-04-24T10:00:59.038Z</time></trkpt><trkpt lat="43.1384002" lon="12.8004301"><ele>530.0</ele><time>2026-04-24T10:01:00.026Z</time></trkpt><trkpt lat="43.1384819" lon="12.8006411"><ele>530.0</ele><time>2026-04-24T10:01:01.031Z</time></trkpt><trkpt lat="43.1385367" lon="12.8008561"><ele>530.0</ele><time>2026-04-24T10:01:02.038Z</time></trkpt><trkpt lat="43.1385591" lon="12.8010874"><ele>532.0</ele><time>2026-04-24T10:01:03.032Z</time></trkpt><trkpt lat="43.1385583" lon="12.8013459"><ele>534.0</ele><time>2026-04-24T10:01:04.028Z</time></trkpt><trkpt lat="43.1385479" lon="12.8016121"><ele>536.0</ele><time>2026-04-24T10:01:05.039Z</time></trkpt><trkpt lat="43.1385367" lon="12.8018853"><ele>539.3333333333333</ele><time>2026-04-24T10:01:06.029Z</time></trkpt><trkpt lat="43.1385308" lon="12.8021493"><ele>542.6666666666666</ele><time>2026-04-24T10:01:07Z</time></trkpt><trkpt lat="43.1385338" lon="12.8023843"><ele>546.0</ele><time>2026-04-24T10:01:08.023Z</time></trkpt><trkpt lat="43.1385658" lon="12.8026"><ele>547.6666666666666</ele><time>2026-04-24T10:01:09.046Z</time></trkpt><trkpt lat="43.138625" lon="12.8028101"><ele>549.3333333333333</ele><time>2026-04-24T10:01:10.028Z</time></trkpt><trkpt lat="43.1387066" lon="12.8030134"><ele>551.0</ele><time>2026-04-24T10:01:11.037Z</time></trkpt><trkpt lat="43.1387989" lon="12.8032041"><ele>551.0</ele><time>2026-04-24T10:01:12.012Z</time></trkpt><trkpt lat="43.1388842" lon="12.8033646"><ele>551.0</ele><time>2026-04-24T10:01:13.025Z</time></trkpt><trkpt lat="43.1389591" lon="12.803505"><ele>551.0</ele><time>2026-04-24T10:01:14.034Z</time></trkpt><trkpt lat="43.1390309" lon="12.8036251"><ele>551.0</ele><time>2026-04-24T10:01:15.039Z</time></trkpt><trkpt lat="43.1390959" lon="12.8037315"><ele>548.0</ele><time>2026-04-24T10:01:16.041Z</time></trkpt><trkpt lat="43.1391611" lon="12.8038132"><ele>545.0</ele><time>2026-04-24T10:01:17.035Z</time></trkpt><trkpt lat="43.1392412" lon="12.80387"><ele>542.0</ele><time>2026-04-24T10:01:18.029Z</time></trkpt><trkpt lat="43.1393289" lon="12.803897"><ele>539.0</ele><time>2026-04-24T10:01:19.045Z</time></trkpt><trkpt lat="43.139413" lon="12.8039052"><ele>536.0</ele><time>2026-04-24T10:01:20.021Z</time></trkpt><trkpt lat="43.1394978" lon="12.8038833"><ele>533.0</ele><time>2026-04-24T10:01:21.017Z</time></trkpt><trkpt lat="43.1395788" lon="12.8038237"><ele>533.0</ele><time>2026-04-24T10:01:22.025Z</time></trkpt><trkpt lat="43.1396249" lon="12.8037179"><ele>533.0</ele><time>2026-04-24T10:01:23.003Z</time></trkpt><trkpt lat="43.1396389" lon="12.8035868"><ele>533.0</ele><time>2026-04-24T10:01:24.011Z</time></trkpt><trkpt lat="43.1396364" lon="12.8034384"><ele>533.0</ele><time>2026-04-24T10:01:25.032Z</time></trkpt><trkpt lat="43.1396434" lon="12.8032883"><ele>533.0</ele><time>2026-04-24T10:01:26.027Z</time></trkpt><trkpt lat="43.1396492" lon="12.8031268"><ele>532.25</ele><time>2026-04-24T10:01:27.01Z</time></trkpt><trkpt lat="43.1396608" lon="12.8029478"><ele>531.5</ele><time>2026-04-24T10:01:28.023Z</time></trkpt><trkpt lat="43.1396776" lon="12.8027543"><ele>530.75</ele><time>2026-04-24T10:01:29.009Z</time></trkpt><trkpt lat="43.1397101" lon="12.8025391"><ele>530.0</ele><time>2026-04-24T10:01:30.002Z</time></trkpt><trkpt lat="43.1397376" lon="12.8023124"><ele>529.3333333333333</ele><time>2026-04-24T10:01:31.007Z</time></trkpt><trkpt lat="43.1397566" lon="12.802096"><ele>528.6666666666666</ele><time>2026-04-24T10:01:32.026Z</time></trkpt><trkpt lat="43.1397606" lon="12.8018934"><ele>528.0</ele><time>2026-04-24T10:01:33.009Z</time></trkpt><trkpt lat="43.1397713" lon="12.8016684"><ele>528.0</ele><time>2026-04-24T10:01:34.009Z</time></trkpt><trkpt lat="43.1397566" lon="12.8014786"><ele>528.0</ele><time>2026-04-24T10:01:35.03Z</time></trkpt><trkpt lat="43.1397435" lon="12.8012875"><ele>528.0</ele><time>2026-04-24T10:01:36.007Z</time></trkpt><trkpt lat="43.1397237" lon="12.8011047"><ele>528.0</ele><time>2026-04-24T10:01:37.033Z</time></trkpt><trkpt lat="43.1397008" lon="12.8009412"><ele>528.4</ele><time>2026-04-24T10:01:38.025Z</time></trkpt><trkpt lat="43.139678" lon="12.8007802"><ele>528.8</ele><time>2026-04-24T10:01:39.038Z</time></trkpt><trkpt lat="43.1396562" lon="12.8006419"><ele>529.2</ele><time>2026-04-24T10:01:40.027Z</time></trkpt><trkpt lat="43.139638" lon="12.800518"><ele>529.6</ele><time>2026-04-24T10:01:41.025Z</time></trkpt><trkpt lat="43.1396172" lon="12.8004057"><ele>530.0</ele><time>2026-04-24T10:01:42.014Z</time></trkpt><trkpt lat="43.1395877" lon="12.8003071"><ele>530.0</ele><time>2026-04-24T10:01:42.994Z</time></trkpt><trkpt lat="43.1395496" lon="12.8002161"><ele>530.0</ele><time>2026-04-24T10:01:44.03Z</time></trkpt><trkpt lat="43.1395298" lon="12.8001232"><ele>530.0</ele><time>2026-04-24T10:01:45.038Z</time></trkpt><trkpt lat="43.139534" lon="12.8000236"><ele>530.0</ele><time>2026-04-24T10:01:46.006Z</time></trkpt><trkpt lat="43.1395701" lon="12.7999297"><ele>530.0</ele><time>2026-04-24T10:01:47.007Z</time></trkpt><trkpt lat="43.1396166" lon="12.7998138"><ele>530.0</ele><time>2026-04-24T10:01:48.002Z</time></trkpt><trkpt lat="43.1396837" lon="12.7997142"><ele>531.0</ele><time>2026-04-24T10:01:49.006Z</time></trkpt><trkpt lat="43.1397578" lon="12.7996194"><ele>532.0</ele><time>2026-04-24T10:01:50.011Z</time></trkpt><trkpt lat="43.1398376" lon="12.7995334"><ele>533.0</ele><time>2026-04-24T10:01:51.019Z</time></trkpt><trkpt lat="43.1399174" lon="12.7994714"><ele>534.0</ele><time>2026-04-24T10:01:52.029Z</time></trkpt><trkpt lat="43.1399932" lon="12.7994192"><ele>535.0</ele><time>2026-04-24T10:01:53.005Z</time></trkpt><trkpt lat="43.1400898" lon="12.79939"><ele>543.0</ele><time>2026-04-24T10:01:54.02Z</time></trkpt><trkpt lat="43.140195" lon="12.7993932"><ele>551.0</ele><time>2026-04-24T10:01:55.028Z</time></trkpt><trkpt lat="43.1403045" lon="12.7993883"><ele>559.0</ele><time>2026-04-24T10:01:56.013Z</time></trkpt><trkpt lat="43.140426" lon="12.7993956"><ele>567.0</ele><time>2026-04-24T10:01:57.009Z</time></trkpt><trkpt lat="43.1405521" lon="12.799392"><ele>567.0</ele><time>2026-04-24T10:01:58.005Z</time></trkpt><trkpt lat="43.1406764" lon="12.7993914"><ele>567.0</ele><time>2026-04-24T10:01:59.029Z</time></trkpt><trkpt lat="43.1407987" lon="12.7993971"><ele>567.0</ele><time>2026-04-24T10:02:00.034Z</time></trkpt><trkpt lat="43.1409257" lon="12.7994111"><ele>567.0</ele><time>2026-04-24T10:02:01.036Z</time></trkpt><trkpt lat="43.1410564" lon="12.799435"><ele>569.6666666666666</ele><time>2026-04-24T10:02:02.044Z</time></trkpt><trkpt lat="43.1411928" lon="12.7994785"><ele>572.3333333333333</ele><time>2026-04-24T10:02:03.036Z</time></trkpt><trkpt lat="43.141347" lon="12.799544"><ele>575.0</ele><time>2026-04-24T10:02:04.036Z</time></trkpt><trkpt lat="43.1415013" lon="12.7996093"><ele>575.0</ele><time>2026-04-24T10:02:05.044Z</time></trkpt><trkpt lat="43.1416564" lon="12.7996696"><ele>575.0</ele><time>2026-04-24T10:02:06.037Z</time></trkpt><trkpt lat="43.1418158" lon="12.7997279"><ele>575.0</ele><time>2026-04-24T10:02:07.023Z</time></trkpt><trkpt lat="43.1419762" lon="12.7997811"><ele>575.0</ele><time>2026-04-24T10:02:08.031Z</time></trkpt><trkpt lat="43.1421382" lon="12.7998368"><ele>575.0</ele><time>2026-04-24T10:02:09.029Z</time></trkpt><trkpt lat="43.1422947" lon="12.7998944"><ele>575.0</ele><time>2026-04-24T10:02:10.034Z</time></trkpt><trkpt lat="43.1424379" lon="12.7999568"><ele>575.25</ele><time>2026-04-24T10:02:11.021Z</time></trkpt><trkpt lat="43.1425649" lon="12.800017"><ele>575.5</ele><time>2026-04-24T10:02:12.019Z</time></trkpt><trkpt lat="43.1426914" lon="12.800082"><ele>575.75</ele><time>2026-04-24T10:02:13.02Z</time></trkpt><trkpt lat="43.1428199" lon="12.8001496"><ele>576.0</ele><time>2026-04-24T10:02:14.005Z</time></trkpt><trkpt lat="43.1429468" lon="12.8002125"><ele>584.25</ele><time>2026-04-24T10:02:15.023Z</time></trkpt><trkpt lat="43.1430845" lon="12.8002678"><ele>592.5</ele><time>2026-04-24T10:02:15.996Z</time></trkpt><trkpt lat="43.1432333" lon="12.8003201"><ele>600.75</ele><time>2026-04-24T10:02:17.01Z</time></trkpt><trkpt lat="43.1433767" lon="12.8003839"><ele>609.0</ele><time>2026-04-24T10:02:18.024Z</time></trkpt><trkpt lat="43.1435184" lon="12.8004277"><ele>609.75</ele><time>2026-04-24T10:02:19.03Z</time></trkpt><trkpt lat="43.1436466" lon="12.8004772"><ele>610.5</ele><time>2026-04-24T10:02:20.032Z</time></trkpt><trkpt lat="43.1437787" lon="12.8005382"><ele>611.25</ele><time>2026-04-24T10:02:21.014Z</time></trkpt><trkpt lat="43.1439016" lon="12.8006"><ele>612.0</ele><time>2026-04-24T10:02:21.997Z</time></trkpt><trkpt lat="43.144007" lon="12.8006669"><ele>610.4</ele><time>2026-04-24T10:02:23.007Z</time></trkpt><trkpt lat="43.144101" lon="12.8007155"><ele>608.8000000000001</ele><time>2026-04-24T10:02:23.996Z</time></trkpt><trkpt lat="43.1441984" lon="12.8007373"><ele>607.2</ele><time>2026-04-24T10:02:25.015Z</time></trkpt><trkpt lat="43.1442926" lon="12.8006973"><ele>605.6</ele><time>2026-04-24T10:02:26.011Z</time></trkpt><trkpt lat="43.1443984" lon="12.8006459"><ele>604.0</ele><time>2026-04-24T10:02:27.032Z</time></trkpt><trkpt lat="43.1445071" lon="12.8006408"><ele>604.0</ele><time>2026-04-24T10:02:28.039Z</time></trkpt><trkpt lat="43.1446216" lon="12.8006543"><ele>604.0</ele><time>2026-04-24T10:02:29.028Z</time></trkpt><trkpt lat="43.1447333" lon="12.8007172"><ele>604.0</ele><time>2026-04-24T10:02:30.021Z</time></trkpt><trkpt lat="43.1448554" lon="12.8007664"><ele>604.0</ele><time>2026-04-24T10:02:31.003Z</time></trkpt><trkpt lat="43.1449891" lon="12.8008163"><ele>603.0</ele><time>2026-04-24T10:02:32.031Z</time></trkpt><trkpt lat="43.1451172" lon="12.8008689"><ele>602.0</ele><time>2026-04-24T10:02:33.035Z</time></trkpt><trkpt lat="43.1452453" lon="12.8009285"><ele>601.0</ele><time>2026-04-24T10:02:33.998Z</time></trkpt><trkpt lat="43.1453672" lon="12.8009983"><ele>600.0</ele><time>2026-04-24T10:02:35.004Z</time></trkpt><trkpt lat="43.1454917" lon="12.8010796"><ele>605.25</ele><time>2026-04-24T10:02:35.991Z</time></trkpt><trkpt lat="43.1456187" lon="12.8011613"><ele>610.5</ele><time>2026-04-24T10:02:37.028Z</time></trkpt><trkpt lat="43.1457407" lon="12.8012533"><ele>615.75</ele><time>2026-04-24T10:02:38.041Z</time></trkpt><trkpt lat="43.1458729" lon="12.8013482"><ele>621.0</ele><time>2026-04-24T10:02:39.033Z</time></trkpt><trkpt lat="43.146013" lon="12.8014366"><ele>621.0</ele><time>2026-04-24T10:02:40.033Z</time></trkpt><trkpt lat="43.1461583" lon="12.8015279"><ele>621.0</ele><time>2026-04-24T10:02:41.031Z</time></trkpt><trkpt lat="43.1463051" lon="12.8016181"><ele>621.0</ele><time>2026-04-24T10:02:42.039Z</time></trkpt><trkpt lat="43.146451" lon="12.801715"><ele>617.6666666666666</ele><time>2026-04-24T10:02:43.043Z</time></trkpt><trkpt lat="43.1465939" lon="12.8018161"><ele>614.3333333333333</ele><time>2026-04-24T10:02:44.044Z</time></trkpt><trkpt lat="43.1467302" lon="12.8019245"><ele>611.0</ele><time>2026-04-24T10:02:45.035Z</time></trkpt><trkpt lat="43.1468649" lon="12.8020476"><ele>618.6666666666666</ele><time>2026-04-24T10:02:46.029Z</time></trkpt><trkpt lat="43.1469995" lon="12.8021773"><ele>626.3333333333334</ele><time>2026-04-24T10:02:47.044Z</time></trkpt><trkpt lat="43.1471293" lon="12.8023096"><ele>634.0</ele><time>2026-04-24T10:02:48.025Z</time></trkpt><trkpt lat="43.1472481" lon="12.8024499"><ele>634.0</ele><time>2026-04-24T10:02:49.044Z</time></trkpt><trkpt lat="43.1473512" lon="12.8025927"><ele>634.0</ele><time>2026-04-24T10:02:50.034Z</time></trkpt><trkpt lat="43.1474349" lon="12.8027378"><ele>634.0</ele><time>2026-04-24T10:02:51.026Z</time></trkpt><trkpt lat="43.1475041" lon="12.8028806"><ele>634.0</ele><time>2026-04-24T10:02:52.036Z</time></trkpt><trkpt lat="43.1475568" lon="12.8030285"><ele>633.5</ele><time>2026-04-24T10:02:53.035Z</time></trkpt><trkpt lat="43.147597" lon="12.8031904"><ele>633.0</ele><time>2026-04-24T10:02:54.036Z</time></trkpt><trkpt lat="43.1476291" lon="12.8033589"><ele>632.5</ele><time>2026-04-24T10:02:55.029Z</time></trkpt><trkpt lat="43.147668" lon="12.8035488"><ele>632.0</ele><time>2026-04-24T10:02:56.042Z</time></trkpt><trkpt lat="43.1477231" lon="12.8037386"><ele>637.5</ele><time>2026-04-24T10:02:57.04Z</time></trkpt><trkpt lat="43.1477936" lon="12.8039137"><ele>643.0</ele><time>2026-04-24T10:02:58.04Z</time></trkpt><trkpt lat="43.1478659" lon="12.8040727"><ele>648.5</ele><time>2026-04-24T10:02:59.033Z</time></trkpt><trkpt lat="43.1479404" lon="12.804231"><ele>654.0</ele><time>2026-04-24T10:03:00.036Z</time></trkpt><trkpt lat="43.1480047" lon="12.8043749"><ele>657.6</ele><time>2026-04-24T10:03:01.021Z</time></trkpt><trkpt lat="43.1480554" lon="12.8045066"><ele>661.2</ele><time>2026-04-24T10:03:02.015Z</time></trkpt><trkpt lat="43.1480887" lon="12.8046395"><ele>664.8000000000001</ele><time>2026-04-24T10:03:03.032Z</time></trkpt><trkpt lat="43.1481131" lon="12.8047762"><ele>668.4000000000001</ele><time>2026-04-24T10:03:04Z</time></trkpt><trkpt lat="43.1481309" lon="12.8049238"><ele>672.0</ele><time>2026-04-24T10:03:05.017Z</time></trkpt><trkpt lat="43.1481229" lon="12.8050756"><ele>673.6</ele><time>2026-04-24T10:03:06.037Z</time></trkpt><trkpt lat="43.1480976" lon="12.805226"><ele>675.2</ele><time>2026-04-24T10:03:07.035Z</time></trkpt><trkpt lat="43.1480617" lon="12.8053527"><ele>676.8</ele><time>2026-04-24T10:03:08.03Z</time></trkpt><trkpt lat="43.1480202" lon="12.8054729"><ele>678.4</ele><time>2026-04-24T10:03:09.036Z</time></trkpt><trkpt lat="43.1479791" lon="12.8055993"><ele>680.0</ele><time>2026-04-24T10:03:10.03Z</time></trkpt><trkpt lat="43.147937" lon="12.8057393"><ele>680.0</ele><time>2026-04-24T10:03:11.033Z</time></trkpt><trkpt lat="43.1478969" lon="12.8058873"><ele>680.0</ele><time>2026-04-24T10:03:12.029Z</time></trkpt><trkpt lat="43.1478728" lon="12.8060442"><ele>680.0</ele><time>2026-04-24T10:03:13.032Z</time></trkpt><trkpt lat="43.1478664" lon="12.8061922"><ele>680.0</ele><time>2026-04-24T10:03:14.029Z</time></trkpt><trkpt lat="43.1478708" lon="12.8063455"><ele>680.3333333333333</ele><time>2026-04-24T10:03:15.03Z</time></trkpt><trkpt lat="43.1478867" lon="12.8064736"><ele>680.6666666666666</ele><time>2026-04-24T10:03:16.032Z</time></trkpt><trkpt lat="43.1479283" lon="12.8065818"><ele>681.0</ele><time>2026-04-24T10:03:17.031Z</time></trkpt><trkpt lat="43.1479886" lon="12.806668"><ele>681.3333333333334</ele><time>2026-04-24T10:03:18.008Z</time></trkpt><trkpt lat="43.14807" lon="12.8067254"><ele>681.6666666666667</ele><time>2026-04-24T10:03:19.027Z</time></trkpt><trkpt lat="43.148153" lon="12.8067358"><ele>682.0</ele><time>2026-04-24T10:03:20.029Z</time></trkpt><trkpt lat="43.1482421" lon="12.8067135"><ele>677.0</ele><time>2026-04-24T10:03:21.037Z</time></trkpt><trkpt lat="43.1483356" lon="12.8066702"><ele>672.0</ele><time>2026-04-24T10:03:22.024Z</time></trkpt><trkpt lat="43.1484343" lon="12.8066227"><ele>667.0</ele><time>2026-04-24T10:03:23.023Z</time></trkpt><trkpt lat="43.148528" lon="12.8065932"><ele>662.0</ele><time>2026-04-24T10:03:24.032Z</time></trkpt><trkpt lat="43.1486126" lon="12.8065816"><ele>657.0</ele><time>2026-04-24T10:03:25.037Z</time></trkpt><trkpt lat="43.1486942" lon="12.8066036"><ele>657.0</ele><time>2026-04-24T10:03:26.028Z</time></trkpt><trkpt lat="43.14876" lon="12.8066616"><ele>657.0</ele><time>2026-04-24T10:03:27.024Z</time></trkpt><trkpt lat="43.1488058" lon="12.8067499"><ele>657.0</ele><time>2026-04-24T10:03:28.019Z</time></trkpt><trkpt lat="43.1488239" lon="12.806857"><ele>657.0</ele><time>2026-04-24T10:03:29.021Z</time></trkpt><trkpt lat="43.1488183" lon="12.8069807"><ele>657.0</ele><time>2026-04-24T10:03:29.995Z</time></trkpt><trkpt lat="43.1487947" lon="12.8071215"><ele>657.0</ele><time>2026-04-24T10:03:31.045Z</time></trkpt><trkpt lat="43.1487634" lon="12.8072784"><ele>663.0</ele><time>2026-04-24T10:03:32.03Z</time></trkpt><trkpt lat="43.1487347" lon="12.8074444"><ele>669.0</ele><time>2026-04-24T10:03:33.008Z</time></trkpt><trkpt lat="43.1487211" lon="12.8076124"><ele>675.0</ele><time>2026-04-24T10:03:34.012Z</time></trkpt><trkpt lat="43.1487359" lon="12.8077656"><ele>681.0</ele><time>2026-04-24T10:03:35.003Z</time></trkpt><trkpt lat="43.1487766" lon="12.8078857"><ele>678.3333333333334</ele><time>2026-04-24T10:03:36.033Z</time></trkpt><trkpt lat="43.1488284" lon="12.8079686"><ele>675.6666666666666</ele><time>2026-04-24T10:03:37.035Z</time></trkpt><trkpt lat="43.1488996" lon="12.8080203"><ele>673.0</ele><time>2026-04-24T10:03:38.045Z</time></trkpt><trkpt lat="43.1489804" lon="12.8080659"><ele>670.3333333333333</ele><time>2026-04-24T10:03:39.018Z</time></trkpt><trkpt lat="43.1490369" lon="12.8081525"><ele>667.6666666666666</ele><time>2026-04-24T10:03:40.024Z</time></trkpt><trkpt lat="43.1490782" lon="12.8082556"><ele>665.0</ele><time>2026-04-24T10:03:41.04Z</time></trkpt><trkpt lat="43.1491081" lon="12.8083698"><ele>665.0</ele><time>2026-04-24T10:03:42.036Z</time></trkpt><trkpt lat="43.1491261" lon="12.8084921"><ele>665.0</ele><time>2026-04-24T10:03:43.037Z</time></trkpt><trkpt lat="43.1491368" lon="12.8086491"><ele>665.0</ele><time>2026-04-24T10:03:44.029Z</time></trkpt><trkpt lat="43.1491451" lon="12.8088178"><ele>665.0</ele><time>2026-04-24T10:03:45.025Z</time></trkpt><trkpt lat="43.1491599" lon="12.8089923"><ele>669.75</ele><time>2026-04-24T10:03:45.998Z</time></trkpt><trkpt lat="43.1491749" lon="12.8091689"><ele>674.5</ele><time>2026-04-24T10:03:47.011Z</time></trkpt><trkpt lat="43.1491905" lon="12.8093402"><ele>679.25</ele><time>2026-04-24T10:03:48.027Z</time></trkpt><trkpt lat="43.1492036" lon="12.8095101"><ele>684.0</ele><time>2026-04-24T10:03:49.036Z</time></trkpt><trkpt lat="43.1492167" lon="12.809685"><ele>687.25</ele><time>2026-04-24T10:03:50.033Z</time></trkpt><trkpt lat="43.1492337" lon="12.8098624"><ele>690.5</ele><time>2026-04-24T10:03:51.041Z</time></trkpt><trkpt lat="43.1492536" lon="12.8100373"><ele>693.75</ele><time>2026-04-24T10:03:52.013Z</time></trkpt><trkpt lat="43.1492757" lon="12.8102222"><ele>697.0</ele><time>2026-04-24T10:03:53.035Z</time></trkpt><trkpt lat="43.1492995" lon="12.8104166"><ele>699.75</ele><time>2026-04-24T10:03:54.028Z</time></trkpt><trkpt lat="43.1493222" lon="12.8106137"><ele>702.5</ele><time>2026-04-24T10:03:55.03Z</time></trkpt><trkpt lat="43.1493445" lon="12.8108106"><ele>705.25</ele><time>2026-04-24T10:03:56.028Z</time></trkpt><trkpt lat="43.1493625" lon="12.8110118"><ele>708.0</ele><time>2026-04-24T10:03:57.045Z</time></trkpt><trkpt lat="43.1493743" lon="12.8112121"><ele>711.5</ele><time>2026-04-24T10:03:58.035Z</time></trkpt><trkpt lat="43.1493836" lon="12.8114094"><ele>715.0</ele><time>2026-04-24T10:03:59.03Z</time></trkpt><trkpt lat="43.1494058" lon="12.8116089"><ele>718.5</ele><time>2026-04-24T10:04:00.028Z</time></trkpt><trkpt lat="43.149436" lon="12.8118133"><ele>722.0</ele><time>2026-04-24T10:04:01.04Z</time></trkpt><trkpt lat="43.1494687" lon="12.8120371"><ele>728.0</ele><time>2026-04-24T10:04:02.028Z</time></trkpt><trkpt lat="43.1494979" lon="12.8122717"><ele>734.0</ele><time>2026-04-24T10:04:03.019Z</time></trkpt><trkpt lat="43.1495342" lon="12.8125182"><ele>740.0</ele><time>2026-04-24T10:04:04.027Z</time></trkpt><trkpt lat="43.1495755" lon="12.8127706"><ele>747.3333333333333</ele><time>2026-04-24T10:04:05.027Z</time></trkpt><trkpt lat="43.1496202" lon="12.8130008"><ele>754.6666666666666</ele><time>2026-04-24T10:04:06.027Z</time></trkpt><trkpt lat="43.1496639" lon="12.8132217"><ele>762.0</ele><time>2026-04-24T10:04:07.03Z</time></trkpt><trkpt lat="43.1497098" lon="12.8134245"><ele>767.0</ele><time>2026-04-24T10:04:08.025Z</time></trkpt><trkpt lat="43.1497551" lon="12.8136133"><ele>772.0</ele><time>2026-04-24T10:04:09.038Z</time></trkpt><trkpt lat="43.1497939" lon="12.8137852"><ele>777.0</ele><time>2026-04-24T10:04:10.027Z</time></trkpt><trkpt lat="43.1498346" lon="12.8139403"><ele>782.0</ele><time>2026-04-24T10:04:11.038Z</time></trkpt><trkpt lat="43.1498716" lon="12.8140887"><ele>773.8</ele><time>2026-04-24T10:04:12.031Z</time></trkpt><trkpt lat="43.1499096" lon="12.8142237"><ele>765.6</ele><time>2026-04-24T10:04:13.024Z</time></trkpt><trkpt lat="43.1499475" lon="12.8143474"><ele>757.4</ele><time>2026-04-24T10:04:14.032Z</time></trkpt><trkpt lat="43.1499775" lon="12.8144743"><ele>749.1999999999999</ele><time>2026-04-24T10:04:15.027Z</time></trkpt><trkpt lat="43.1499998" lon="12.8146106"><ele>741.0</ele><time>2026-04-24T10:04:16.029Z</time></trkpt><trkpt lat="43.1500163" lon="12.814759"><ele>741.0</ele><time>2026-04-24T10:04:17.034Z</time></trkpt><trkpt lat="43.1500385" lon="12.8149044"><ele>741.0</ele><time>2026-04-24T10:04:18.024Z</time></trkpt><trkpt lat="43.1500576" lon="12.8150361"><ele>741.0</ele><time>2026-04-24T10:04:19.04Z</time></trkpt><trkpt lat="43.1500676" lon="12.8151569"><ele>741.0</ele><time>2026-04-24T10:04:20.034Z</time></trkpt><trkpt lat="43.1500723" lon="12.8152521"><ele>741.0</ele><time>2026-04-24T10:04:21.023Z</time></trkpt><trkpt lat="43.1500677" lon="12.8153493"><ele>741.0</ele><time>2026-04-24T10:04:22.026Z</time></trkpt><trkpt lat="43.1500563" lon="12.8154439"><ele>741.0</ele><time>2026-04-24T10:04:22.99Z</time></trkpt><trkpt lat="43.1500341" lon="12.8155508"><ele>741.0</ele><time>2026-04-24T10:04:24.03Z</time></trkpt><trkpt lat="43.149991" lon="12.8156751"><ele>741.0</ele><time>2026-04-24T10:04:25.013Z</time></trkpt><trkpt lat="43.149939" lon="12.815817"><ele>741.0</ele><time>2026-04-24T10:04:26.027Z</time></trkpt><trkpt lat="43.149889" lon="12.8159535"><ele>741.0</ele><time>2026-04-24T10:04:27.019Z</time></trkpt><trkpt lat="43.149846" lon="12.8160778"><ele>750.4</ele><time>2026-04-24T10:04:28.016Z</time></trkpt><trkpt lat="43.1497992" lon="12.8161927"><ele>759.8</ele><time>2026-04-24T10:04:29.026Z</time></trkpt><trkpt lat="43.1497547" lon="12.8163048"><ele>769.1999999999999</ele><time>2026-04-24T10:04:30.035Z</time></trkpt><trkpt lat="43.1497128" lon="12.8164112"><ele>778.5999999999999</ele><time>2026-04-24T10:04:31.03Z</time></trkpt><trkpt lat="43.1496592" lon="12.8165184"><ele>788.0</ele><time>2026-04-24T10:04:32.024Z</time></trkpt><trkpt lat="43.1495957" lon="12.8166241"><ele>788.0</ele><time>2026-04-24T10:04:33.037Z</time></trkpt><trkpt lat="43.1495322" lon="12.8167399"><ele>788.0</ele><time>2026-04-24T10:04:34.012Z</time></trkpt><trkpt lat="43.1494685" lon="12.816867"><ele>788.0</ele><time>2026-04-24T10:04:35.002Z</time></trkpt><trkpt lat="43.1494033" lon="12.8170119"><ele>788.0</ele><time>2026-04-24T10:04:36.009Z</time></trkpt><trkpt lat="43.1493335" lon="12.8171754"><ele>784.25</ele><time>2026-04-24T10:04:37.035Z</time></trkpt><trkpt lat="43.1492709" lon="12.8173325"><ele>780.5</ele><time>2026-04-24T10:04:38.028Z</time></trkpt><trkpt lat="43.1492078" lon="12.8174992"><ele>776.75</ele><time>2026-04-24T10:04:39.032Z</time></trkpt><trkpt lat="43.1491487" lon="12.8176857"><ele>773.0</ele><time>2026-04-24T10:04:40.028Z</time></trkpt><trkpt lat="43.1490982" lon="12.8178935"><ele>771.0</ele><time>2026-04-24T10:04:41.021Z</time></trkpt><trkpt lat="43.1490543" lon="12.8180933"><ele>769.0</ele><time>2026-04-24T10:04:42.036Z</time></trkpt><trkpt lat="43.1490244" lon="12.81829"><ele>767.0</ele><time>2026-04-24T10:04:43.038Z</time></trkpt><trkpt lat="43.1490076" lon="12.8184989"><ele>769.3333333333333</ele><time>2026-04-24T10:04:44.035Z</time></trkpt><trkpt lat="43.149011" lon="12.818721"><ele>771.6666666666666</ele><time>2026-04-24T10:04:45.022Z</time></trkpt><trkpt lat="43.1490239" lon="12.8189505"><ele>774.0</ele><time>2026-04-24T10:04:46.031Z</time></trkpt><trkpt lat="43.1490437" lon="12.8191717"><ele>777.3333333333333</ele><time>2026-04-24T10:04:47.029Z</time></trkpt><trkpt lat="43.1490705" lon="12.8193967"><ele>780.6666666666666</ele><time>2026-04-24T10:04:48.02Z</time></trkpt><trkpt lat="43.1491065" lon="12.8196316"><ele>784.0</ele><time>2026-04-24T10:04:49.034Z</time></trkpt><trkpt lat="43.149139" lon="12.8198625"><ele>784.0</ele><time>2026-04-24T10:04:50.022Z</time></trkpt><trkpt lat="43.149172" lon="12.8200782"><ele>784.0</ele><time>2026-04-24T10:04:51.017Z</time></trkpt><trkpt lat="43.1492008" lon="12.8202509"><ele>784.0</ele><time>2026-04-24T10:04:52.027Z</time></trkpt><trkpt lat="43.1492179" lon="12.8204017"><ele>784.0</ele><time>2026-04-24T10:04:53.033Z</time></trkpt><trkpt lat="43.1492326" lon="12.8205303"><ele>785.1666666666666</ele><time>2026-04-24T10:04:54.032Z</time></trkpt><trkpt lat="43.1492437" lon="12.8206407"><ele>786.3333333333333</ele><time>2026-04-24T10:04:55.038Z</time></trkpt><trkpt lat="43.149235" lon="12.8207395"><ele>787.5</ele><time>2026-04-24T10:04:56.028Z</time></trkpt><trkpt lat="43.1492218" lon="12.8208391"><ele>788.6666666666667</ele><time>2026-04-24T10:04:57.039Z</time></trkpt><trkpt lat="43.1491919" lon="12.8209355"><ele>789.8333333333334</ele><time>2026-04-24T10:04:58.015Z</time></trkpt><trkpt lat="43.1491494" lon="12.8210383"><ele>791.0</ele><time>2026-04-24T10:04:59.027Z</time></trkpt><trkpt lat="43.1491163" lon="12.8211647"><ele>792.0</ele><time>2026-04-24T10:05:00.037Z</time></trkpt><trkpt lat="43.1490988" lon="12.8213271"><ele>793.0</ele><time>2026-04-24T10:05:01.02Z</time></trkpt><trkpt lat="43.1490933" lon="12.8215184"><ele>794.0</ele><time>2026-04-24T10:05:02.031Z</time></trkpt><trkpt lat="43.1491113" lon="12.8217179"><ele>795.0</ele><time>2026-04-24T10:05:03.026Z</time></trkpt><trkpt lat="43.149156" lon="12.8219163"><ele>796.25</ele><time>2026-04-24T10:05:04.03Z</time></trkpt><trkpt lat="43.1492063" lon="12.8221103"><ele>797.5</ele><time>2026-04-24T10:05:05.029Z</time></trkpt><trkpt lat="43.1492475" lon="12.8222971"><ele>798.75</ele><time>2026-04-24T10:05:06.021Z</time></trkpt><trkpt lat="43.1492805" lon="12.8224832"><ele>800.0</ele><time>2026-04-24T10:05:07.027Z</time></trkpt><trkpt lat="43.1493067" lon="12.8226781"><ele>800.75</ele><time>2026-04-24T10:05:08.036Z</time></trkpt><trkpt lat="43.1493446" lon="12.8228603"><ele>801.5</ele><time>2026-04-24T10:05:09.029Z</time></trkpt><trkpt lat="43.1494047" lon="12.823038"><ele>802.25</ele><time>2026-04-24T10:05:10.032Z</time></trkpt><trkpt lat="43.1494829" lon="12.8231863"><ele>803.0</ele><time>2026-04-24T10:05:11.039Z</time></trkpt><trkpt lat="43.1495696" lon="12.8233221"><ele>803.0</ele><time>2026-04-24T10:05:12.037Z</time></trkpt><trkpt lat="43.1496499" lon="12.8234596"><ele>803.0</ele><time>2026-04-24T10:05:13.039Z</time></trkpt><trkpt lat="43.1497179" lon="12.823603"><ele>803.0</ele><time>2026-04-24T10:05:14.031Z</time></trkpt><trkpt lat="43.1497758" lon="12.8237537"><ele>803.0</ele><time>2026-04-24T10:05:15.038Z</time></trkpt><trkpt lat="43.149825" lon="12.8239178"><ele>803.0</ele><time>2026-04-24T10:05:16.045Z</time></trkpt><trkpt lat="43.1498735" lon="12.8240708"><ele>803.0</ele><time>2026-04-24T10:05:17.029Z</time></trkpt><trkpt lat="43.1499214" lon="12.8242086"><ele>803.0</ele><time>2026-04-24T10:05:18.032Z</time></trkpt><trkpt lat="43.1499727" lon="12.8243202"><ele>803.0</ele><time>2026-04-24T10:05:19.041Z</time></trkpt><trkpt lat="43.1500364" lon="12.824403"><ele>803.0</ele><time>2026-04-24T10:05:20.033Z</time></trkpt><trkpt lat="43.1501169" lon="12.8244505"><ele>804.5999999999999</ele><time>2026-04-24T10:05:21.031Z</time></trkpt><trkpt lat="43.1502096" lon="12.8244894"><ele>806.1999999999999</ele><time>2026-04-24T10:05:22.036Z</time></trkpt><trkpt lat="43.150305" lon="12.8245386"><ele>807.8</ele><time>2026-04-24T10:05:23.036Z</time></trkpt><trkpt lat="43.1503863" lon="12.8246116"><ele>809.4</ele><time>2026-04-24T10:05:24.04Z</time></trkpt><trkpt lat="43.1504543" lon="12.8247041"><ele>811.0</ele><time>2026-04-24T10:05:25.044Z</time></trkpt><trkpt lat="43.1505129" lon="12.8248154"><ele>811.0</ele><time>2026-04-24T10:05:26.041Z</time></trkpt><trkpt lat="43.1505663" lon="12.8249495"><ele>811.0</ele><time>2026-04-24T10:05:27.042Z</time></trkpt><trkpt lat="43.1506204" lon="12.8251106"><ele>811.0</ele><time>2026-04-24T10:05:28.036Z</time></trkpt><trkpt lat="43.150667" lon="12.8252837"><ele>811.0</ele><time>2026-04-24T10:05:29Z</time></trkpt><trkpt lat="43.1507294" lon="12.8254483"><ele>810.0</ele><time>2026-04-24T10:05:30.033Z</time></trkpt><trkpt lat="43.1507992" lon="12.8255949"><ele>809.0</ele><time>2026-04-24T10:05:31.039Z</time></trkpt><trkpt lat="43.1508898" lon="12.8257305"><ele>808.0</ele><time>2026-04-24T10:05:32.033Z</time></trkpt><trkpt lat="43.150989" lon="12.8258376"><ele>807.0</ele><time>2026-04-24T10:05:33.032Z</time></trkpt><trkpt lat="43.1510817" lon="12.8259308"><ele>810.4000000000001</ele><time>2026-04-24T10:05:34.026Z</time></trkpt><trkpt lat="43.1511527" lon="12.8260327"><ele>813.8000000000001</ele><time>2026-04-24T10:05:35.01Z</time></trkpt><trkpt lat="43.1512133" lon="12.8261534"><ele>817.2</ele><time>2026-04-24T10:05:36.034Z</time></trkpt><trkpt lat="43.1512622" lon="12.8262884"><ele>820.6</ele><time>2026-04-24T10:05:37.037Z</time></trkpt><trkpt lat="43.1513177" lon="12.8264367"><ele>824.0</ele><time>2026-04-24T10:05:38.028Z</time></trkpt><trkpt lat="43.1513787" lon="12.8265879"><ele>824.0</ele><time>2026-04-24T10:05:39.039Z</time></trkpt><trkpt lat="43.1514469" lon="12.8267539"><ele>824.0</ele><time>2026-04-24T10:05:39.991Z</time></trkpt><trkpt lat="43.1514986" lon="12.8269155"><ele>824.0</ele><time>2026-04-24T10:05:41.04Z</time></trkpt><trkpt lat="43.1515585" lon="12.8270824"><ele>824.0</ele><time>2026-04-24T10:05:42.039Z</time></trkpt><trkpt lat="43.1516292" lon="12.8272416"><ele>825.75</ele><time>2026-04-24T10:05:43.03Z</time></trkpt><trkpt lat="43.1516956" lon="12.8273793"><ele>827.5</ele><time>2026-04-24T10:05:44.021Z</time></trkpt><trkpt lat="43.1517689" lon="12.827508"><ele>829.25</ele><time>2026-04-24T10:05:45.02Z</time></trkpt><trkpt lat="43.1518396" lon="12.8276385"><ele>831.0</ele><time>2026-04-24T10:05:46.031Z</time></trkpt><trkpt lat="43.1519167" lon="12.8277568"><ele>831.0</ele><time>2026-04-24T10:05:47.036Z</time></trkpt><trkpt lat="43.1519851" lon="12.8278761"><ele>831.0</ele><time>2026-04-24T10:05:48.024Z</time></trkpt><trkpt lat="43.152061" lon="12.8280041"><ele>831.0</ele><time>2026-04-24T10:05:49.023Z</time></trkpt><trkpt lat="43.1521253" lon="12.8281427"><ele>831.0</ele><time>2026-04-24T10:05:50.005Z</time></trkpt><trkpt lat="43.1521941" lon="12.8283069"><ele>831.0</ele><time>2026-04-24T10:05:51.014Z</time></trkpt><trkpt lat="43.1522623" lon="12.8284757"><ele>831.0</ele><time>2026-04-24T10:05:52.013Z</time></trkpt><trkpt lat="43.1523278" lon="12.8286527"><ele>831.0</ele><time>2026-04-24T10:05:53.036Z</time></trkpt><trkpt lat="43.1523936" lon="12.8288314"><ele>831.0</ele><time>2026-04-24T10:05:54.029Z</time></trkpt><trkpt lat="43.1524602" lon="12.8289953"><ele>829.5</ele><time>2026-04-24T10:05:55.025Z</time></trkpt><trkpt lat="43.1525243" lon="12.8291376"><ele>828.0</ele><time>2026-04-24T10:05:56.024Z</time></trkpt><trkpt lat="43.1526189" lon="12.8292527"><ele>826.5</ele><time>2026-04-24T10:05:57.039Z</time></trkpt><trkpt lat="43.1527362" lon="12.8293316"><ele>825.0</ele><time>2026-04-24T10:05:58.033Z</time></trkpt><trkpt lat="43.152867" lon="12.8293822"><ele>825.0</ele><time>2026-04-24T10:05:59.031Z</time></trkpt><trkpt lat="43.1529921" lon="12.8294299"><ele>825.0</ele><time>2026-04-24T10:06:00.022Z</time></trkpt><trkpt lat="43.1531145" lon="12.8294899"><ele>825.0</ele><time>2026-04-24T10:06:01.029Z</time></trkpt><trkpt lat="43.1532395" lon="12.829561"><ele>825.0</ele><time>2026-04-24T10:06:02.031Z</time></trkpt><trkpt lat="43.1533539" lon="12.8296358"><ele>823.25</ele><time>2026-04-24T10:06:03.041Z</time></trkpt><trkpt lat="43.1534532" lon="12.8297281"><ele>821.5</ele><time>2026-04-24T10:06:04.027Z</time></trkpt><trkpt lat="43.1535443" lon="12.8298304"><ele>819.75</ele><time>2026-04-24T10:06:05.033Z</time></trkpt><trkpt lat="43.1536249" lon="12.8299429"><ele>818.0</ele><time>2026-04-24T10:06:06.032Z</time></trkpt><trkpt lat="43.1536952" lon="12.8300747"><ele>822.25</ele><time>2026-04-24T10:06:07.04Z</time></trkpt><trkpt lat="43.1537557" lon="12.8302273"><ele>826.5</ele><time>2026-04-24T10:06:08.029Z</time></trkpt><trkpt lat="43.1537995" lon="12.8303918"><ele>830.75</ele><time>2026-04-24T10:06:09.031Z</time></trkpt><trkpt lat="43.1538279" lon="12.8305713"><ele>835.0</ele><time>2026-04-24T10:06:10.036Z</time></trkpt><trkpt lat="43.1538489" lon="12.8307406"><ele>835.0</ele><time>2026-04-24T10:06:11.028Z</time></trkpt><trkpt lat="43.153847" lon="12.8308931"><ele>835.0</ele><time>2026-04-24T10:06:12.004Z</time></trkpt><trkpt lat="43.1538303" lon="12.8310357"><ele>835.0</ele><time>2026-04-24T10:06:13.021Z</time></trkpt><trkpt lat="43.1538118" lon="12.8311855"><ele>835.0</ele><time>2026-04-24T10:06:14.029Z</time></trkpt><trkpt lat="43.1537915" lon="12.8313557"><ele>838.75</ele><time>2026-04-24T10:06:15.017Z</time></trkpt><trkpt lat="43.1537767" lon="12.8315316"><ele>842.5</ele><time>2026-04-24T10:06:16.026Z</time></trkpt><trkpt lat="43.1537596" lon="12.8317135"><ele>846.25</ele><time>2026-04-24T10:06:17.031Z</time></trkpt><trkpt lat="43.153738" lon="12.831902"><ele>850.0</ele><time>2026-04-24T10:06:18.006Z</time></trkpt><trkpt lat="43.1537161" lon="12.8320851"><ele>854.0</ele><time>2026-04-24T10:06:19.009Z</time></trkpt><trkpt lat="43.1536924" lon="12.8322626"><ele>858.0</ele><time>2026-04-24T10:06:19.997Z</time></trkpt><trkpt lat="43.1536491" lon="12.8324588"><ele>862.0</ele><time>2026-04-24T10:06:21.005Z</time></trkpt><trkpt lat="43.153636" lon="12.8326316"><ele>866.0</ele><time>2026-04-24T10:06:21.997Z</time></trkpt><trkpt lat="43.153627" lon="12.8327725"><ele>867.5</ele><time>2026-04-24T10:06:23.019Z</time></trkpt><trkpt lat="43.1536024" lon="12.8329207"><ele>869.0</ele><time>2026-04-24T10:06:24.021Z</time></trkpt><trkpt lat="43.1535798" lon="12.8330794"><ele>870.5</ele><time>2026-04-24T10:06:24.997Z</time></trkpt><trkpt lat="43.1535553" lon="12.8332414"><ele>872.0</ele><time>2026-04-24T10:06:26.007Z</time></trkpt><trkpt lat="43.1535233" lon="12.8333955"><ele>872.0</ele><time>2026-04-24T10:06:27.001Z</time></trkpt><trkpt lat="43.1534988" lon="12.8335663"><ele>872.0</ele><time>2026-04-24T10:06:28.001Z</time></trkpt><trkpt lat="43.1534793" lon="12.8337291"><ele>872.0</ele><time>2026-04-24T10:06:29.012Z</time></trkpt><trkpt lat="43.1534605" lon="12.8338557"><ele>872.0</ele><time>2026-04-24T10:06:30.003Z</time></trkpt><trkpt lat="43.1534337" lon="12.8339679"><ele>872.0</ele><time>2026-04-24T10:06:31Z</time></trkpt><trkpt lat="43.1533912" lon="12.8340547"><ele>872.0000000000001</ele><time>2026-04-24T10:06:32.016Z</time></trkpt><trkpt lat="43.1533258" lon="12.8341078"><ele>872.0</ele><time>2026-04-24T10:06:33.029Z</time></trkpt><trkpt lat="43.1532478" lon="12.8341301"><ele>872.0</ele><time>2026-04-24T10:06:33.996Z</time></trkpt><trkpt lat="43.1531709" lon="12.8341036"><ele>872.0</ele><time>2026-04-24T10:06:35.009Z</time></trkpt><trkpt lat="43.1530942" lon="12.8340515"><ele>872.0000000000001</ele><time>2026-04-24T10:06:36.034Z</time></trkpt><trkpt lat="43.153008" lon="12.8339985"><ele>872.0</ele><time>2026-04-24T10:06:37.01Z</time></trkpt><trkpt lat="43.152916" lon="12.8339997"><ele>868.0</ele><time>2026-04-24T10:06:39.014Z</time></trkpt><trkpt lat="43.1528727" lon="12.8340664"><ele>864.0</ele><time>2026-04-24T10:06:41.038Z</time></trkpt><trkpt lat="43.1528062" lon="12.8341219"><ele>860.0</ele><time>2026-04-24T10:06:44.007Z</time></trkpt><trkpt lat="43.1527259" lon="12.8340121"><ele>856.0</ele><time>2026-04-24T10:06:47.036Z</time></trkpt><trkpt lat="43.1526827" lon="12.8338887"><ele>852.0</ele><time>2026-04-24T10:06:48.028Z</time></trkpt><trkpt lat="43.152637" lon="12.8337746"><ele>852.0</ele><time>2026-04-24T10:06:49.019Z</time></trkpt><trkpt lat="43.1525922" lon="12.8336578"><ele>852.0</ele><time>2026-04-24T10:06:50.034Z</time></trkpt><trkpt lat="43.1525477" lon="12.8335111"><ele>852.0</ele><time>2026-04-24T10:06:51.02Z</time></trkpt><trkpt lat="43.1525015" lon="12.8333492"><ele>852.0</ele><time>2026-04-24T10:06:51.999Z</time></trkpt><trkpt lat="43.1524506" lon="12.8331796"><ele>854.0</ele><time>2026-04-24T10:06:53.034Z</time></trkpt><trkpt lat="43.1523729" lon="12.8330018"><ele>856.0</ele><time>2026-04-24T10:06:54.043Z</time></trkpt><trkpt lat="43.1522933" lon="12.8328549"><ele>858.0</ele><time>2026-04-24T10:06:55.034Z</time></trkpt><trkpt lat="43.1522037" lon="12.8327228"><ele>860.0</ele><time>2026-04-24T10:06:56.023Z</time></trkpt><trkpt lat="43.15211" lon="12.832589"><ele>860.0</ele><time>2026-04-24T10:06:57.038Z</time></trkpt><trkpt lat="43.1519862" lon="12.8324734"><ele>860.0</ele><time>2026-04-24T10:06:58.026Z</time></trkpt><trkpt lat="43.1518561" lon="12.832399"><ele>860.0</ele><time>2026-04-24T10:06:59.025Z</time></trkpt><trkpt lat="43.1517165" lon="12.8323499"><ele>860.0</ele><time>2026-04-24T10:07:00.029Z</time></trkpt><trkpt lat="43.1515906" lon="12.8323229"><ele>859.75</ele><time>2026-04-24T10:07:01.047Z</time></trkpt><trkpt lat="43.1514658" lon="12.8322983"><ele>859.5</ele><time>2026-04-24T10:07:02.029Z</time></trkpt><trkpt lat="43.1513472" lon="12.8322882"><ele>859.25</ele><time>2026-04-24T10:07:03.034Z</time></trkpt><trkpt lat="43.1512249" lon="12.8323046"><ele>859.0</ele><time>2026-04-24T10:07:04.018Z</time></trkpt><trkpt lat="43.1510993" lon="12.8323318"><ele>859.0</ele><time>2026-04-24T10:07:05.032Z</time></trkpt><trkpt lat="43.1509695" lon="12.8323478"><ele>859.0</ele><time>2026-04-24T10:07:06.034Z</time></trkpt><trkpt lat="43.1508222" lon="12.8323289"><ele>859.0</ele><time>2026-04-24T10:07:07.041Z</time></trkpt><trkpt lat="43.1506713" lon="12.8322934"><ele>859.0</ele><time>2026-04-24T10:07:08.035Z</time></trkpt><trkpt lat="43.1505201" lon="12.8322785"><ele>858.6666666666666</ele><time>2026-04-24T10:07:09.035Z</time></trkpt><trkpt lat="43.1503625" lon="12.8323022"><ele>858.3333333333333</ele><time>2026-04-24T10:07:10.034Z</time></trkpt><trkpt lat="43.1501999" lon="12.8323348"><ele>858.0</ele><time>2026-04-24T10:07:11.044Z</time></trkpt><trkpt lat="43.1500366" lon="12.8323465"><ele>855.6666666666667</ele><time>2026-04-24T10:07:12.036Z</time></trkpt><trkpt lat="43.1498691" lon="12.8323305"><ele>853.3333333333334</ele><time>2026-04-24T10:07:13.002Z</time></trkpt><trkpt lat="43.1497136" lon="12.8323003"><ele>851.0</ele><time>2026-04-24T10:07:14.036Z</time></trkpt><trkpt lat="43.1495642" lon="12.832266"><ele>851.0</ele><time>2026-04-24T10:07:15.03Z</time></trkpt><trkpt lat="43.1494223" lon="12.8322285"><ele>851.0</ele><time>2026-04-24T10:07:16.039Z</time></trkpt><trkpt lat="43.1492752" lon="12.8321804"><ele>851.0</ele><time>2026-04-24T10:07:17.033Z</time></trkpt><trkpt lat="43.1491223" lon="12.8321217"><ele>850.6666666666667</ele><time>2026-04-24T10:07:18.036Z</time></trkpt><trkpt lat="43.1489627" lon="12.8320632"><ele>850.3333333333333</ele><time>2026-04-24T10:07:19.043Z</time></trkpt><trkpt lat="43.1488133" lon="12.8320266"><ele>850.0</ele><time>2026-04-24T10:07:20.028Z</time></trkpt><trkpt lat="43.1486668" lon="12.8320247"><ele>850.0</ele><time>2026-04-24T10:07:21.033Z</time></trkpt><trkpt lat="43.1485278" lon="12.8320328"><ele>850.0</ele><time>2026-04-24T10:07:22.04Z</time></trkpt><trkpt lat="43.1483992" lon="12.8320522"><ele>850.0</ele><time>2026-04-24T10:07:23.037Z</time></trkpt><trkpt lat="43.1482813" lon="12.8320636"><ele>850.0</ele><time>2026-04-24T10:07:24.041Z</time></trkpt><trkpt lat="43.1481733" lon="12.832075"><ele>850.8</ele><time>2026-04-24T10:07:25.038Z</time></trkpt><trkpt lat="43.148072" lon="12.8320614"><ele>851.6</ele><time>2026-04-24T10:07:26.027Z</time></trkpt><trkpt lat="43.1479672" lon="12.8320169"><ele>852.4000000000001</ele><time>2026-04-24T10:07:27.034Z</time></trkpt><trkpt lat="43.1478991" lon="12.8319217"><ele>853.2</ele><time>2026-04-24T10:07:28.042Z</time></trkpt><trkpt lat="43.1478548" lon="12.8318008"><ele>854.0</ele><time>2026-04-24T10:07:29.029Z</time></trkpt><trkpt lat="43.1478293" lon="12.8316655"><ele>855.5</ele><time>2026-04-24T10:07:30.028Z</time></trkpt><trkpt lat="43.1478084" lon="12.8315233"><ele>857.0</ele><time>2026-04-24T10:07:31.031Z</time></trkpt><trkpt lat="43.1477806" lon="12.8313713"><ele>858.5</ele><time>2026-04-24T10:07:32.043Z</time></trkpt><trkpt lat="43.1477391" lon="12.831215"><ele>860.0</ele><time>2026-04-24T10:07:33.038Z</time></trkpt><trkpt lat="43.1476693" lon="12.8310493"><ele>860.5</ele><time>2026-04-24T10:07:34.039Z</time></trkpt><trkpt lat="43.147568" lon="12.8308946"><ele>861.0</ele><time>2026-04-24T10:07:35.002Z</time></trkpt><trkpt lat="43.1474671" lon="12.830749"><ele>861.5</ele><time>2026-04-24T10:07:36.036Z</time></trkpt><trkpt lat="43.1473785" lon="12.8305948"><ele>862.0</ele><time>2026-04-24T10:07:36.996Z</time></trkpt><trkpt lat="43.1473345" lon="12.8304179"><ele>867.75</ele><time>2026-04-24T10:07:38.042Z</time></trkpt><trkpt lat="43.1473158" lon="12.8302565"><ele>873.5</ele><time>2026-04-24T10:07:39.039Z</time></trkpt><trkpt lat="43.1472723" lon="12.8300793"><ele>879.25</ele><time>2026-04-24T10:07:40.041Z</time></trkpt><trkpt lat="43.1471961" lon="12.8299075"><ele>885.0</ele><time>2026-04-24T10:07:41.041Z</time></trkpt><trkpt lat="43.1470972" lon="12.8297408"><ele>885.6666666666667</ele><time>2026-04-24T10:07:42.032Z</time></trkpt><trkpt lat="43.1469832" lon="12.829571"><ele>886.3333333333334</ele><time>2026-04-24T10:07:43.037Z</time></trkpt><trkpt lat="43.1468575" lon="12.8293923"><ele>887.0</ele><time>2026-04-24T10:07:44.02Z</time></trkpt><trkpt lat="43.1467198" lon="12.8292252"><ele>881.6666666666667</ele><time>2026-04-24T10:07:45.03Z</time></trkpt><trkpt lat="43.1465862" lon="12.8290743"><ele>876.3333333333333</ele><time>2026-04-24T10:07:46.033Z</time></trkpt><trkpt lat="43.1464545" lon="12.8289352"><ele>871.0</ele><time>2026-04-24T10:07:47.036Z</time></trkpt><trkpt lat="43.1463287" lon="12.8288081"><ele>872.5</ele><time>2026-04-24T10:07:48.013Z</time></trkpt><trkpt lat="43.1462082" lon="12.8286839"><ele>874.0</ele><time>2026-04-24T10:07:49.039Z</time></trkpt><trkpt lat="43.1460892" lon="12.8285536"><ele>875.5</ele><time>2026-04-24T10:07:49.993Z</time></trkpt><trkpt lat="43.14598" lon="12.8284285"><ele>877.0</ele><time>2026-04-24T10:07:51.025Z</time></trkpt><trkpt lat="43.1458799" lon="12.8282995"><ele>877.0</ele><time>2026-04-24T10:07:52.024Z</time></trkpt><trkpt lat="43.1457729" lon="12.828155"><ele>877.0</ele><time>2026-04-24T10:07:53.029Z</time></trkpt><trkpt lat="43.1456698" lon="12.8279971"><ele>877.0</ele><time>2026-04-24T10:07:54.018Z</time></trkpt><trkpt lat="43.1455545" lon="12.8278263"><ele>875.6666666666666</ele><time>2026-04-24T10:07:55.024Z</time></trkpt><trkpt lat="43.1454354" lon="12.8276586"><ele>874.3333333333333</ele><time>2026-04-24T10:07:56.037Z</time></trkpt><trkpt lat="43.145316" lon="12.8274903"><ele>873.0</ele><time>2026-04-24T10:07:57.029Z</time></trkpt><trkpt lat="43.1452088" lon="12.8273421"><ele>873.0</ele><time>2026-04-24T10:07:58.015Z</time></trkpt><trkpt lat="43.1451091" lon="12.8272216"><ele>873.0</ele><time>2026-04-24T10:07:59.006Z</time></trkpt><trkpt lat="43.1450365" lon="12.8271391"><ele>873.0</ele><time>2026-04-24T10:08:00.01Z</time></trkpt><trkpt lat="43.1449483" lon="12.8271071"><ele>873.0</ele><time>2026-04-24T10:08:01.032Z</time></trkpt><trkpt lat="43.1448638" lon="12.8271294"><ele>873.0</ele><time>2026-04-24T10:08:02.041Z</time></trkpt><trkpt lat="43.1447936" lon="12.8272126"><ele>873.5</ele><time>2026-04-24T10:08:03.027Z</time></trkpt><trkpt lat="43.1447576" lon="12.8273439"><ele>874.0</ele><time>2026-04-24T10:08:04.02Z</time></trkpt><trkpt lat="43.1447221" lon="12.8275204"><ele>874.5</ele><time>2026-04-24T10:08:05.026Z</time></trkpt><trkpt lat="43.144686" lon="12.8277189"><ele>875.0</ele><time>2026-04-24T10:08:05.997Z</time></trkpt><trkpt lat="43.1446498" lon="12.8279089"><ele>875.0</ele><time>2026-04-24T10:08:06.995Z</time></trkpt><trkpt lat="43.1446153" lon="12.8280809"><ele>875.0</ele><time>2026-04-24T10:08:08.023Z</time></trkpt><trkpt lat="43.1445813" lon="12.8282324"><ele>875.0</ele><time>2026-04-24T10:08:09.024Z</time></trkpt><trkpt lat="43.1445102" lon="12.8283521"><ele>875.0</ele><time>2026-04-24T10:08:10.032Z</time></trkpt><trkpt lat="43.1444053" lon="12.8283959"><ele>875.0</ele><time>2026-04-24T10:08:11.034Z</time></trkpt><trkpt lat="43.1442885" lon="12.82837"><ele>875.0</ele><time>2026-04-24T10:08:12.014Z</time></trkpt><trkpt lat="43.1441795" lon="12.8283785"><ele>875.0</ele><time>2026-04-24T10:08:13.031Z</time></trkpt><trkpt lat="43.1440753" lon="12.8284518"><ele>875.0</ele><time>2026-04-24T10:08:14.027Z</time></trkpt><trkpt lat="43.1439686" lon="12.8285595"><ele>877.75</ele><time>2026-04-24T10:08:15.037Z</time></trkpt><trkpt lat="43.1438638" lon="12.8286994"><ele>880.5</ele><time>2026-04-24T10:08:16.02Z</time></trkpt><trkpt lat="43.1437606" lon="12.8288328"><ele>883.25</ele><time>2026-04-24T10:08:17.039Z</time></trkpt><trkpt lat="43.143666" lon="12.8289604"><ele>886.0</ele><time>2026-04-24T10:08:18.042Z</time></trkpt><trkpt lat="43.1435697" lon="12.8290703"><ele>886.0</ele><time>2026-04-24T10:08:19.032Z</time></trkpt><trkpt lat="43.1434484" lon="12.829141"><ele>886.0</ele><time>2026-04-24T10:08:20.035Z</time></trkpt><trkpt lat="43.1433353" lon="12.8291887"><ele>886.0</ele><time>2026-04-24T10:08:21.034Z</time></trkpt><trkpt lat="43.1432172" lon="12.8292304"><ele>886.0</ele><time>2026-04-24T10:08:22.027Z</time></trkpt><trkpt lat="43.1430987" lon="12.8292597"><ele>891.75</ele><time>2026-04-24T10:08:23.034Z</time></trkpt><trkpt lat="43.142982" lon="12.8292497"><ele>897.5</ele><time>2026-04-24T10:08:24.029Z</time></trkpt><trkpt lat="43.1428738" lon="12.8291858"><ele>903.25</ele><time>2026-04-24T10:08:25.038Z</time></trkpt><trkpt lat="43.1427745" lon="12.8290726"><ele>909.0</ele><time>2026-04-24T10:08:26.032Z</time></trkpt><trkpt lat="43.142677" lon="12.8289352"><ele>909.0</ele><time>2026-04-24T10:08:27.03Z</time></trkpt><trkpt lat="43.1426011" lon="12.8287661"><ele>909.0</ele><time>2026-04-24T10:08:28.031Z</time></trkpt><trkpt lat="43.1425415" lon="12.8285829"><ele>909.0</ele><time>2026-04-24T10:08:29.044Z</time></trkpt><trkpt lat="43.1425102" lon="12.8284127"><ele>909.0</ele><time>2026-04-24T10:08:30.025Z</time></trkpt><trkpt lat="43.1424632" lon="12.8282554"><ele>910.5</ele><time>2026-04-24T10:08:31.027Z</time></trkpt><trkpt lat="43.1423906" lon="12.828114"><ele>912.0</ele><time>2026-04-24T10:08:32.032Z</time></trkpt><trkpt lat="43.1422957" lon="12.8279808"><ele>913.5</ele><time>2026-04-24T10:08:32.997Z</time></trkpt><trkpt lat="43.1421963" lon="12.8278562"><ele>915.0</ele><time>2026-04-24T10:08:34.033Z</time></trkpt><trkpt lat="43.1420919" lon="12.8277654"><ele>915.0</ele><time>2026-04-24T10:08:35.006Z</time></trkpt><trkpt lat="43.1419795" lon="12.8276957"><ele>915.0</ele><time>2026-04-24T10:08:36.04Z</time></trkpt><trkpt lat="43.1418539" lon="12.8276649"><ele>915.0</ele><time>2026-04-24T10:08:37.044Z</time></trkpt><trkpt lat="43.1417278" lon="12.8276582"><ele>915.0</ele><time>2026-04-24T10:08:38.028Z</time></trkpt><trkpt lat="43.1416011" lon="12.8276632"><ele>910.5</ele><time>2026-04-24T10:08:39.036Z</time></trkpt><trkpt lat="43.1414769" lon="12.8276862"><ele>906.0</ele><time>2026-04-24T10:08:40.034Z</time></trkpt><trkpt lat="43.1413584" lon="12.8277265"><ele>901.5</ele><time>2026-04-24T10:08:41.036Z</time></trkpt><trkpt lat="43.1412577" lon="12.8278084"><ele>897.0</ele><time>2026-04-24T10:08:42.044Z</time></trkpt><trkpt lat="43.1411765" lon="12.8279389"><ele>897.0</ele><time>2026-04-24T10:08:43.031Z</time></trkpt><trkpt lat="43.14112" lon="12.828095"><ele>897.0</ele><time>2026-04-24T10:08:44.031Z</time></trkpt><trkpt lat="43.1410659" lon="12.8282626"><ele>897.0</ele><time>2026-04-24T10:08:45.034Z</time></trkpt><trkpt lat="43.1410217" lon="12.8284381"><ele>897.0</ele><time>2026-04-24T10:08:46.037Z</time></trkpt><trkpt lat="43.1409827" lon="12.8286266"><ele>901.75</ele><time>2026-04-24T10:08:47.035Z</time></trkpt><trkpt lat="43.1409496" lon="12.8288293"><ele>906.5</ele><time>2026-04-24T10:08:48.027Z</time></trkpt><trkpt lat="43.140918" lon="12.8290351"><ele>911.25</ele><time>2026-04-24T10:08:49.038Z</time></trkpt><trkpt lat="43.1408968" lon="12.8292253"><ele>916.0</ele><time>2026-04-24T10:08:50.03Z</time></trkpt><trkpt lat="43.1408819" lon="12.8293964"><ele>916.3333333333333</ele><time>2026-04-24T10:08:51.031Z</time></trkpt><trkpt lat="43.1408613" lon="12.8295441"><ele>916.6666666666666</ele><time>2026-04-24T10:08:52.036Z</time></trkpt><trkpt lat="43.1408334" lon="12.8296652"><ele>917.0</ele><time>2026-04-24T10:08:53.038Z</time></trkpt><trkpt lat="43.1407801" lon="12.8297491"><ele>917.3333333333333</ele><time>2026-04-24T10:08:54.003Z</time></trkpt><trkpt lat="43.140706" lon="12.829765"><ele>917.6666666666666</ele><time>2026-04-24T10:08:55.02Z</time></trkpt><trkpt lat="43.1406206" lon="12.8297298"><ele>918.0</ele><time>2026-04-24T10:08:56.039Z</time></trkpt><trkpt lat="43.1405446" lon="12.8296765"><ele>918.0</ele><time>2026-04-24T10:08:57.033Z</time></trkpt><trkpt lat="43.1404787" lon="12.8296314"><ele>918.0</ele><time>2026-04-24T10:08:58.037Z</time></trkpt><trkpt lat="43.1404008" lon="12.8296349"><ele>918.0</ele><time>2026-04-24T10:08:59.018Z</time></trkpt><trkpt lat="43.1402948" lon="12.8297176"><ele>918.0</ele><time>2026-04-24T10:09:00.024Z</time></trkpt><trkpt lat="43.140194" lon="12.8298314"><ele>918.0</ele><time>2026-04-24T10:09:01.037Z</time></trkpt><trkpt lat="43.1401023" lon="12.8299727"><ele>918.0</ele><time>2026-04-24T10:09:02.025Z</time></trkpt><trkpt lat="43.140037" lon="12.8301299"><ele>918.0</ele><time>2026-04-24T10:09:03.036Z</time></trkpt><trkpt lat="43.1399717" lon="12.8302975"><ele>918.0</ele><time>2026-04-24T10:09:04.035Z</time></trkpt><trkpt lat="43.1399003" lon="12.8304597"><ele>918.0</ele><time>2026-04-24T10:09:05.04Z</time></trkpt><trkpt lat="43.1398112" lon="12.8306134"><ele>921.5</ele><time>2026-04-24T10:09:06.024Z</time></trkpt><trkpt lat="43.1397036" lon="12.830745"><ele>925.0</ele><time>2026-04-24T10:09:07.03Z</time></trkpt><trkpt lat="43.1395801" lon="12.8308564"><ele>928.5</ele><time>2026-04-24T10:09:08.028Z</time></trkpt><trkpt lat="43.1394479" lon="12.8309419"><ele>932.0</ele><time>2026-04-24T10:09:09.028Z</time></trkpt><trkpt lat="43.1393158" lon="12.8310062"><ele>943.3333333333334</ele><time>2026-04-24T10:09:10.027Z</time></trkpt><trkpt lat="43.1391718" lon="12.8310476"><ele>954.6666666666667</ele><time>2026-04-24T10:09:11.038Z</time></trkpt><trkpt lat="43.139018" lon="12.8310726"><ele>966.0</ele><time>2026-04-24T10:09:12.032Z</time></trkpt><trkpt lat="43.1388554" lon="12.8310895"><ele>966.0</ele><time>2026-04-24T10:09:13.036Z</time></trkpt><trkpt lat="43.1386914" lon="12.8311097"><ele>966.0</ele><time>2026-04-24T10:09:14.036Z</time></trkpt><trkpt lat="43.1385273" lon="12.831131"><ele>966.0</ele><time>2026-04-24T10:09:15.03Z</time></trkpt><trkpt lat="43.1383532" lon="12.8311451"><ele>964.3333333333333</ele><time>2026-04-24T10:09:16.018Z</time></trkpt><trkpt lat="43.1381744" lon="12.8311522"><ele>962.6666666666666</ele><time>2026-04-24T10:09:17.03Z</time></trkpt><trkpt lat="43.1379963" lon="12.8311533"><ele>961.0</ele><time>2026-04-24T10:09:18.037Z</time></trkpt><trkpt lat="43.1378258" lon="12.8311382"><ele>961.0</ele><time>2026-04-24T10:09:19.029Z</time></trkpt><trkpt lat="43.1376727" lon="12.8311075"><ele>961.0</ele><time>2026-04-24T10:09:20.018Z</time></trkpt><trkpt lat="43.1375315" lon="12.8310751"><ele>961.0</ele><time>2026-04-24T10:09:21.034Z</time></trkpt><trkpt lat="43.1374048" lon="12.8310422"><ele>961.0</ele><time>2026-04-24T10:09:22.032Z</time></trkpt><trkpt lat="43.1372859" lon="12.8310216"><ele>960.5</ele><time>2026-04-24T10:09:23.038Z</time></trkpt><trkpt lat="43.1371616" lon="12.8309965"><ele>960.0</ele><time>2026-04-24T10:09:24.025Z</time></trkpt><trkpt lat="43.1370366" lon="12.8309698"><ele>959.5</ele><time>2026-04-24T10:09:25.026Z</time></trkpt><trkpt lat="43.1369154" lon="12.8309389"><ele>959.0</ele><time>2026-04-24T10:09:26.029Z</time></trkpt><trkpt lat="43.1368005" lon="12.8308944"><ele>957.2</ele><time>2026-04-24T10:09:27.034Z</time></trkpt><trkpt lat="43.1367053" lon="12.8308323"><ele>955.4000000000001</ele><time>2026-04-24T10:09:28.05Z</time></trkpt><trkpt lat="43.1366112" lon="12.8307593"><ele>953.6</ele><time>2026-04-24T10:09:29.027Z</time></trkpt><trkpt lat="43.1365329" lon="12.8306807"><ele>951.8</ele><time>2026-04-24T10:09:30.035Z</time></trkpt><trkpt lat="43.1364588" lon="12.830609"><ele>950.0</ele><time>2026-04-24T10:09:31.042Z</time></trkpt><trkpt lat="43.1363925" lon="12.8305346"><ele>949.6666666666667</ele><time>2026-04-24T10:09:32.037Z</time></trkpt><trkpt lat="43.1363339" lon="12.8304641"><ele>949.3333333333334</ele><time>2026-04-24T10:09:33.014Z</time></trkpt><trkpt lat="43.1362744" lon="12.8303881"><ele>949.0</ele><time>2026-04-24T10:09:34.035Z</time></trkpt><trkpt lat="43.1362104" lon="12.8303043"><ele>948.6666666666667</ele><time>2026-04-24T10:09:35.008Z</time></trkpt><trkpt lat="43.1361399" lon="12.8302132"><ele>948.3333333333334</ele><time>2026-04-24T10:09:36.024Z</time></trkpt><trkpt lat="43.1360755" lon="12.8301157"><ele>948.0</ele><time>2026-04-24T10:09:37.042Z</time></trkpt><trkpt lat="43.1360208" lon="12.8300231"><ele>948.0</ele><time>2026-04-24T10:09:38.034Z</time></trkpt><trkpt lat="43.1359755" lon="12.8299317"><ele>948.0</ele><time>2026-04-24T10:09:39.02Z</time></trkpt><trkpt lat="43.1359337" lon="12.8298529"><ele>948.0</ele><time>2026-04-24T10:09:40.031Z</time></trkpt><trkpt lat="43.1358495" lon="12.8298294"><ele>948.0</ele><time>2026-04-24T10:09:42.046Z</time></trkpt><trkpt lat="43.1358081" lon="12.829938"><ele>948.0</ele><time>2026-04-24T10:09:44.014Z</time></trkpt><trkpt lat="43.1357939" lon="12.8300309"><ele>948.0</ele><time>2026-04-24T10:09:45.043Z</time></trkpt><trkpt lat="43.1357685" lon="12.8301625"><ele>947.0</ele><time>2026-04-24T10:09:46.032Z</time></trkpt><trkpt lat="43.1357409" lon="12.8303157"><ele>946.0</ele><time>2026-04-24T10:09:47.042Z</time></trkpt><trkpt lat="43.1357323" lon="12.830489"><ele>945.0</ele><time>2026-04-24T10:09:48.035Z</time></trkpt><trkpt lat="43.1357323" lon="12.8306752"><ele>944.0</ele><time>2026-04-24T10:09:49.046Z</time></trkpt><trkpt lat="43.1357327" lon="12.8308631"><ele>942.5</ele><time>2026-04-24T10:09:50.033Z</time></trkpt><trkpt lat="43.13571" lon="12.8310371"><ele>941.0</ele><time>2026-04-24T10:09:51.031Z</time></trkpt><trkpt lat="43.1356564" lon="12.8312058"><ele>939.5</ele><time>2026-04-24T10:09:52.029Z</time></trkpt><trkpt lat="43.1355661" lon="12.8313604"><ele>938.0</ele><time>2026-04-24T10:09:53.04Z</time></trkpt><trkpt lat="43.1354706" lon="12.8314873"><ele>938.0</ele><time>2026-04-24T10:09:54.056Z</time></trkpt><trkpt lat="43.135345" lon="12.8315832"><ele>938.0</ele><time>2026-04-24T10:09:55.028Z</time></trkpt><trkpt lat="43.1352083" lon="12.8316605"><ele>938.0</ele><time>2026-04-24T10:09:56.037Z</time></trkpt><trkpt lat="43.1350732" lon="12.8317112"><ele>938.0</ele><time>2026-04-24T10:09:57.044Z</time></trkpt><trkpt lat="43.1349536" lon="12.8317768"><ele>937.75</ele><time>2026-04-24T10:09:58.035Z</time></trkpt><trkpt lat="43.1348441" lon="12.831859"><ele>937.5</ele><time>2026-04-24T10:09:59.031Z</time></trkpt><trkpt lat="43.1347411" lon="12.8319752"><ele>937.25</ele><time>2026-04-24T10:10:00.029Z</time></trkpt><trkpt lat="43.1346348" lon="12.8320973"><ele>937.0</ele><time>2026-04-24T10:10:01.034Z</time></trkpt><trkpt lat="43.1345231" lon="12.8322205"><ele>937.0</ele><time>2026-04-24T10:10:02.028Z</time></trkpt><trkpt lat="43.1344057" lon="12.8323154"><ele>937.0</ele><time>2026-04-24T10:10:03.035Z</time></trkpt><trkpt lat="43.1342713" lon="12.8323852"><ele>937.0</ele><time>2026-04-24T10:10:04.041Z</time></trkpt><trkpt lat="43.1341306" lon="12.8324503"><ele>937.0</ele><time>2026-04-24T10:10:05.038Z</time></trkpt><trkpt lat="43.1339984" lon="12.832518"><ele>937.25</ele><time>2026-04-24T10:10:06.039Z</time></trkpt><trkpt lat="43.1338719" lon="12.8325933"><ele>937.5</ele><time>2026-04-24T10:10:07.041Z</time></trkpt><trkpt lat="43.133756" lon="12.8326833"><ele>937.75</ele><time>2026-04-24T10:10:08.037Z</time></trkpt><trkpt lat="43.1336367" lon="12.8327943"><ele>938.0</ele><time>2026-04-24T10:10:09.034Z</time></trkpt><trkpt lat="43.1335304" lon="12.8329201"><ele>938.5</ele><time>2026-04-24T10:10:10.041Z</time></trkpt><trkpt lat="43.1334296" lon="12.8330454"><ele>939.0</ele><time>2026-04-24T10:10:11.035Z</time></trkpt><trkpt lat="43.1333291" lon="12.8331707"><ele>939.5</ele><time>2026-04-24T10:10:12Z</time></trkpt><trkpt lat="43.1332325" lon="12.8332999"><ele>940.0</ele><time>2026-04-24T10:10:13.044Z</time></trkpt><trkpt lat="43.1331372" lon="12.8334277"><ele>941.25</ele><time>2026-04-24T10:10:13.993Z</time></trkpt><trkpt lat="43.1330392" lon="12.8335605"><ele>942.5</ele><time>2026-04-24T10:10:15.04Z</time></trkpt><trkpt lat="43.132933" lon="12.8336911"><ele>943.75</ele><time>2026-04-24T10:10:16.033Z</time></trkpt><trkpt lat="43.1328185" lon="12.8338052"><ele>945.0</ele><time>2026-04-24T10:10:17.039Z</time></trkpt><trkpt lat="43.1326936" lon="12.8339186"><ele>945.0</ele><time>2026-04-24T10:10:18.047Z</time></trkpt><trkpt lat="43.1325681" lon="12.8340247"><ele>945.0</ele><time>2026-04-24T10:10:19.034Z</time></trkpt><trkpt lat="43.1324389" lon="12.8341277"><ele>945.0</ele><time>2026-04-24T10:10:20.025Z</time></trkpt><trkpt lat="43.1323132" lon="12.8342281"><ele>945.0</ele><time>2026-04-24T10:10:21.036Z</time></trkpt><trkpt lat="43.1322008" lon="12.8343115"><ele>946.0</ele><time>2026-04-24T10:10:22.041Z</time></trkpt><trkpt lat="43.1321016" lon="12.8343885"><ele>947.0</ele><time>2026-04-24T10:10:23.034Z</time></trkpt><trkpt lat="43.1320101" lon="12.8344588"><ele>948.0</ele><time>2026-04-24T10:10:24.033Z</time></trkpt><trkpt lat="43.1319225" lon="12.8345234"><ele>949.0</ele><time>2026-04-24T10:10:25.048Z</time></trkpt><trkpt lat="43.1318357" lon="12.8345886"><ele>950.0</ele><time>2026-04-24T10:10:26.04Z</time></trkpt><trkpt lat="43.1317464" lon="12.8346507"><ele>950.0</ele><time>2026-04-24T10:10:26.996Z</time></trkpt><trkpt lat="43.1316595" lon="12.8347134"><ele>950.0</ele><time>2026-04-24T10:10:28.03Z</time></trkpt><trkpt lat="43.1315689" lon="12.8347715"><ele>950.0</ele><time>2026-04-24T10:10:29.036Z</time></trkpt><trkpt lat="43.1314686" lon="12.8348203"><ele>950.0</ele><time>2026-04-24T10:10:30.028Z</time></trkpt><trkpt lat="43.1313696" lon="12.8348444"><ele>950.0</ele><time>2026-04-24T10:10:31.042Z</time></trkpt><trkpt lat="43.131258" lon="12.8348556"><ele>950.75</ele><time>2026-04-24T10:10:32.035Z</time></trkpt><trkpt lat="43.1311338" lon="12.8348601"><ele>951.5</ele><time>2026-04-24T10:10:33.033Z</time></trkpt><trkpt lat="43.1309901" lon="12.8348682"><ele>952.25</ele><time>2026-04-24T10:10:34.038Z</time></trkpt><trkpt lat="43.130834" lon="12.8348878"><ele>953.0</ele><time>2026-04-24T10:10:35.001Z</time></trkpt><trkpt lat="43.1306706" lon="12.8349545"><ele>952.0</ele><time>2026-04-24T10:10:36.048Z</time></trkpt><trkpt lat="43.1305115" lon="12.8350542"><ele>951.0</ele><time>2026-04-24T10:10:37.036Z</time></trkpt><trkpt lat="43.1303738" lon="12.8351577"><ele>950.0</ele><time>2026-04-24T10:10:38.043Z</time></trkpt><trkpt lat="43.1302518" lon="12.8352404"><ele>950.0</ele><time>2026-04-24T10:10:39.044Z</time></trkpt><trkpt lat="43.1301332" lon="12.8352954"><ele>950.0</ele><time>2026-04-24T10:10:40.044Z</time></trkpt><trkpt lat="43.1300049" lon="12.8353049"><ele>950.0</ele><time>2026-04-24T10:10:41.038Z</time></trkpt><trkpt lat="43.1298735" lon="12.8352972"><ele>950.0</ele><time>2026-04-24T10:10:42.048Z</time></trkpt><trkpt lat="43.1297275" lon="12.8353033"><ele>953.0</ele><time>2026-04-24T10:10:43.045Z</time></trkpt><trkpt lat="43.1295627" lon="12.8353495"><ele>956.0</ele><time>2026-04-24T10:10:44.034Z</time></trkpt><trkpt lat="43.1294005" lon="12.8354224"><ele>959.0</ele><time>2026-04-24T10:10:45.039Z</time></trkpt><trkpt lat="43.1292665" lon="12.835503"><ele>959.0</ele><time>2026-04-24T10:10:46.038Z</time></trkpt><trkpt lat="43.1291283" lon="12.8355756"><ele>959.0</ele><time>2026-04-24T10:10:47.04Z</time></trkpt><trkpt lat="43.128979" lon="12.8356402"><ele>959.0</ele><time>2026-04-24T10:10:48.049Z</time></trkpt><trkpt lat="43.1288285" lon="12.8357034"><ele>959.0</ele><time>2026-04-24T10:10:49.053Z</time></trkpt><trkpt lat="43.1286879" lon="12.8357598"><ele>959.0</ele><time>2026-04-24T10:10:50.039Z</time></trkpt><trkpt lat="43.1285596" lon="12.8358381"><ele>959.0</ele><time>2026-04-24T10:10:51.04Z</time></trkpt><trkpt lat="43.1284353" lon="12.8359383"><ele>959.0</ele><time>2026-04-24T10:10:52.043Z</time></trkpt><trkpt lat="43.128311" lon="12.8360655"><ele>961.6666666666667</ele><time>2026-04-24T10:10:53.022Z</time></trkpt><trkpt lat="43.1281895" lon="12.8362076"><ele>964.3333333333333</ele><time>2026-04-24T10:10:54.035Z</time></trkpt><trkpt lat="43.1280595" lon="12.8363516"><ele>967.0</ele><time>2026-04-24T10:10:55.043Z</time></trkpt><trkpt lat="43.1279293" lon="12.8364936"><ele>967.0</ele><time>2026-04-24T10:10:56.022Z</time></trkpt><trkpt lat="43.1278072" lon="12.8366288"><ele>967.0</ele><time>2026-04-24T10:10:57.006Z</time></trkpt><trkpt lat="43.1276907" lon="12.8367467"><ele>967.0</ele><time>2026-04-24T10:10:58.016Z</time></trkpt><trkpt lat="43.1275912" lon="12.8368582"><ele>967.0</ele><time>2026-04-24T10:10:59.048Z</time></trkpt><trkpt lat="43.1274899" lon="12.8369597"><ele>967.75</ele><time>2026-04-24T10:11:00.037Z</time></trkpt><trkpt lat="43.1273855" lon="12.8370647"><ele>968.5</ele><time>2026-04-24T10:11:01.027Z</time></trkpt><trkpt lat="43.1272774" lon="12.8371769"><ele>969.25</ele><time>2026-04-24T10:11:02.047Z</time></trkpt><trkpt lat="43.1271711" lon="12.8372942"><ele>970.0</ele><time>2026-04-24T10:11:03.043Z</time></trkpt><trkpt lat="43.1270742" lon="12.8374175"><ele>970.0</ele><time>2026-04-24T10:11:04.034Z</time></trkpt><trkpt lat="43.1269966" lon="12.8375387"><ele>970.0</ele><time>2026-04-24T10:11:05.039Z</time></trkpt><trkpt lat="43.1269327" lon="12.8376753"><ele>970.0</ele><time>2026-04-24T10:11:06.035Z</time></trkpt><trkpt lat="43.1269117" lon="12.8378346"><ele>970.0</ele><time>2026-04-24T10:11:07.036Z</time></trkpt><trkpt lat="43.1269383" lon="12.8379984"><ele>971.5</ele><time>2026-04-24T10:11:08.032Z</time></trkpt><trkpt lat="43.1269957" lon="12.8381638"><ele>973.0</ele><time>2026-04-24T10:11:09.042Z</time></trkpt><trkpt lat="43.1270633" lon="12.8383386"><ele>974.5</ele><time>2026-04-24T10:11:10.035Z</time></trkpt><trkpt lat="43.1271412" lon="12.8385114"><ele>976.0</ele><time>2026-04-24T10:11:11.001Z</time></trkpt><trkpt lat="43.1272242" lon="12.8386667"><ele>976.0</ele><time>2026-04-24T10:11:12.03Z</time></trkpt><trkpt lat="43.1273016" lon="12.8387994"><ele>975.9999999999999</ele><time>2026-04-24T10:11:13.046Z</time></trkpt><trkpt lat="43.1273754" lon="12.8389172"><ele>975.9999999999999</ele><time>2026-04-24T10:11:14.029Z</time></trkpt><trkpt lat="43.1274327" lon="12.839023"><ele>976.0</ele><time>2026-04-24T10:11:15.042Z</time></trkpt><trkpt lat="43.1274659" lon="12.8391223"><ele>976.0</ele><time>2026-04-24T10:11:16.044Z</time></trkpt><trkpt lat="43.1274596" lon="12.8392203"><ele>976.0</ele><time>2026-04-24T10:11:17.041Z</time></trkpt><trkpt lat="43.1274078" lon="12.8392776"><ele>975.9999999999999</ele><time>2026-04-24T10:11:18.042Z</time></trkpt><trkpt lat="43.127324" lon="12.8392894"><ele>975.9999999999999</ele><time>2026-04-24T10:11:19.022Z</time></trkpt><trkpt lat="43.1272302" lon="12.8392673"><ele>976.0</ele><time>2026-04-24T10:11:20.026Z</time></trkpt><trkpt lat="43.1271215" lon="12.8392577"><ele>976.0</ele><time>2026-04-24T10:11:20.998Z</time></trkpt><trkpt lat="43.1269944" lon="12.8392699"><ele>976.0</ele><time>2026-04-24T10:11:22.026Z</time></trkpt><trkpt lat="43.1268626" lon="12.8392876"><ele>976.0</ele><time>2026-04-24T10:11:23.043Z</time></trkpt><trkpt lat="43.1267346" lon="12.8393069"><ele>976.0</ele><time>2026-04-24T10:11:24.042Z</time></trkpt><trkpt lat="43.1266181" lon="12.8393275"><ele>976.0</ele><time>2026-04-24T10:11:25.04Z</time></trkpt><trkpt lat="43.1265089" lon="12.8393455"><ele>971.25</ele><time>2026-04-24T10:11:26.025Z</time></trkpt><trkpt lat="43.126398" lon="12.8393619"><ele>966.5</ele><time>2026-04-24T10:11:27.005Z</time></trkpt><trkpt lat="43.1262771" lon="12.8393742"><ele>961.75</ele><time>2026-04-24T10:11:27.999Z</time></trkpt><trkpt lat="43.1261519" lon="12.8393856"><ele>957.0</ele><time>2026-04-24T10:11:29.044Z</time></trkpt><trkpt lat="43.1260253" lon="12.8393979"><ele>957.0</ele><time>2026-04-24T10:11:30.028Z</time></trkpt><trkpt lat="43.1258918" lon="12.839429"><ele>957.0</ele><time>2026-04-24T10:11:31.053Z</time></trkpt><trkpt lat="43.1257598" lon="12.8394895"><ele>957.0</ele><time>2026-04-24T10:11:32.031Z</time></trkpt><trkpt lat="43.1256295" lon="12.8395696"><ele>957.0</ele><time>2026-04-24T10:11:33.054Z</time></trkpt><trkpt lat="43.1255039" lon="12.8396768"><ele>957.5</ele><time>2026-04-24T10:11:34.039Z</time></trkpt><trkpt lat="43.1253871" lon="12.8397853"><ele>958.0</ele><time>2026-04-24T10:11:35.009Z</time></trkpt><trkpt lat="43.1252739" lon="12.8398835"><ele>958.5</ele><time>2026-04-24T10:11:36.026Z</time></trkpt><trkpt lat="43.1251637" lon="12.839974"><ele>959.0</ele><time>2026-04-24T10:11:37.04Z</time></trkpt><trkpt lat="43.1250547" lon="12.8400552"><ele>959.0</ele><time>2026-04-24T10:11:38.042Z</time></trkpt><trkpt lat="43.1249473" lon="12.8401263"><ele>959.0</ele><time>2026-04-24T10:11:39.044Z</time></trkpt><trkpt lat="43.1248362" lon="12.8401851"><ele>959.0</ele><time>2026-04-24T10:11:40.035Z</time></trkpt><trkpt lat="43.1247073" lon="12.8402231"><ele>959.0</ele><time>2026-04-24T10:11:41.041Z</time></trkpt><trkpt lat="43.1245749" lon="12.8402458"><ele>954.75</ele><time>2026-04-24T10:11:42.036Z</time></trkpt><trkpt lat="43.124453" lon="12.8402756"><ele>950.5</ele><time>2026-04-24T10:11:43.039Z</time></trkpt><trkpt lat="43.1243328" lon="12.8403156"><ele>946.25</ele><time>2026-04-24T10:11:44.046Z</time></trkpt><trkpt lat="43.1242122" lon="12.8403453"><ele>942.0</ele><time>2026-04-24T10:11:45.012Z</time></trkpt><trkpt lat="43.1240846" lon="12.8403739"><ele>942.25</ele><time>2026-04-24T10:11:46.031Z</time></trkpt><trkpt lat="43.1239592" lon="12.84039"><ele>942.5</ele><time>2026-04-24T10:11:47.003Z</time></trkpt><trkpt lat="43.1238417" lon="12.8404074"><ele>942.75</ele><time>2026-04-24T10:11:48.043Z</time></trkpt><trkpt lat="43.1237194" lon="12.8404127"><ele>943.0</ele><time>2026-04-24T10:11:49.03Z</time></trkpt><trkpt lat="43.1236031" lon="12.840432"><ele>943.0</ele><time>2026-04-24T10:11:50.023Z</time></trkpt><trkpt lat="43.1234879" lon="12.8404532"><ele>943.0</ele><time>2026-04-24T10:11:51.05Z</time></trkpt><trkpt lat="43.1233705" lon="12.8404817"><ele>943.0</ele><time>2026-04-24T10:11:52.039Z</time></trkpt><trkpt lat="43.1232566" lon="12.8405074"><ele>943.0</ele><time>2026-04-24T10:11:53.048Z</time></trkpt><trkpt lat="43.1231419" lon="12.8405265"><ele>941.5</ele><time>2026-04-24T10:11:54.04Z</time></trkpt><trkpt lat="43.1230277" lon="12.8405407"><ele>940.0</ele><time>2026-04-24T10:11:55.04Z</time></trkpt><trkpt lat="43.1229177" lon="12.8405466"><ele>938.5</ele><time>2026-04-24T10:11:56.041Z</time></trkpt><trkpt lat="43.1228049" lon="12.8405422"><ele>937.0</ele><time>2026-04-24T10:11:57.032Z</time></trkpt><trkpt lat="43.1226903" lon="12.8405286"><ele>937.0</ele><time>2026-04-24T10:11:58.042Z</time></trkpt><trkpt lat="43.1225796" lon="12.8405084"><ele>937.0</ele><time>2026-04-24T10:11:59.04Z</time></trkpt><trkpt lat="43.1224751" lon="12.8404714"><ele>937.0</ele><time>2026-04-24T10:12:00.031Z</time></trkpt><trkpt lat="43.1223805" lon="12.8404245"><ele>937.0</ele><time>2026-04-24T10:12:01.04Z</time></trkpt><trkpt lat="43.122294" lon="12.8403662"><ele>937.0</ele><time>2026-04-24T10:12:02.043Z</time></trkpt><trkpt lat="43.1222071" lon="12.8402867"><ele>936.2</ele><time>2026-04-24T10:12:03.048Z</time></trkpt><trkpt lat="43.1221261" lon="12.8401833"><ele>935.4000000000001</ele><time>2026-04-24T10:12:04.041Z</time></trkpt><trkpt lat="43.1220578" lon="12.8400688"><ele>934.5999999999999</ele><time>2026-04-24T10:12:05.052Z</time></trkpt><trkpt lat="43.1220008" lon="12.8399452"><ele>933.8</ele><time>2026-04-24T10:12:06.041Z</time></trkpt><trkpt lat="43.1219539" lon="12.8398124"><ele>933.0</ele><time>2026-04-24T10:12:07.036Z</time></trkpt><trkpt lat="43.1219067" lon="12.8396636"><ele>933.0</ele><time>2026-04-24T10:12:08.043Z</time></trkpt><trkpt lat="43.1218535" lon="12.8395139"><ele>933.0</ele><time>2026-04-24T10:12:09.04Z</time></trkpt><trkpt lat="43.1218046" lon="12.8393713"><ele>933.0</ele><time>2026-04-24T10:12:10.038Z</time></trkpt><trkpt lat="43.1217583" lon="12.8392271"><ele>933.0</ele><time>2026-04-24T10:12:11.045Z</time></trkpt><trkpt lat="43.1217143" lon="12.8390876"><ele>933.5999999999999</ele><time>2026-04-24T10:12:12.041Z</time></trkpt><trkpt lat="43.1216761" lon="12.8389503"><ele>934.1999999999999</ele><time>2026-04-24T10:12:13.035Z</time></trkpt><trkpt lat="43.1216395" lon="12.8388134"><ele>934.8</ele><time>2026-04-24T10:12:14.042Z</time></trkpt><trkpt lat="43.1216038" lon="12.8386781"><ele>935.4</ele><time>2026-04-24T10:12:15.042Z</time></trkpt><trkpt lat="43.1215779" lon="12.8385337"><ele>936.0</ele><time>2026-04-24T10:12:16.035Z</time></trkpt><trkpt lat="43.1215748" lon="12.8383944"><ele>936.25</ele><time>2026-04-24T10:12:17.036Z</time></trkpt><trkpt lat="43.1215935" lon="12.8382548"><ele>936.5</ele><time>2026-04-24T10:12:18.037Z</time></trkpt><trkpt lat="43.1216199" lon="12.8381023"><ele>936.75</ele><time>2026-04-24T10:12:19.05Z</time></trkpt><trkpt lat="43.1216382" lon="12.8379385"><ele>937.0</ele><time>2026-04-24T10:12:20.031Z</time></trkpt><trkpt lat="43.1216394" lon="12.8377715"><ele>936.25</ele><time>2026-04-24T10:12:21.046Z</time></trkpt><trkpt lat="43.1216311" lon="12.8375986"><ele>935.5</ele><time>2026-04-24T10:12:22.034Z</time></trkpt><trkpt lat="43.12161" lon="12.8374299"><ele>934.75</ele><time>2026-04-24T10:12:23.042Z</time></trkpt><trkpt lat="43.1215866" lon="12.8372615"><ele>934.0</ele><time>2026-04-24T10:12:24.038Z</time></trkpt><trkpt lat="43.1215574" lon="12.8371"><ele>926.5</ele><time>2026-04-24T10:12:25.047Z</time></trkpt><trkpt lat="43.1215342" lon="12.836933"><ele>919.0</ele><time>2026-04-24T10:12:26.042Z</time></trkpt><trkpt lat="43.12152" lon="12.8367705"><ele>911.5</ele><time>2026-04-24T10:12:27.042Z</time></trkpt><trkpt lat="43.1215112" lon="12.8366098"><ele>904.0</ele><time>2026-04-24T10:12:28.034Z</time></trkpt><trkpt lat="43.121501" lon="12.8364519"><ele>903.75</ele><time>2026-04-24T10:12:29.041Z</time></trkpt><trkpt lat="43.1214896" lon="12.8362889"><ele>903.5</ele><time>2026-04-24T10:12:30.035Z</time></trkpt><trkpt lat="43.1214787" lon="12.8361328"><ele>903.25</ele><time>2026-04-24T10:12:31.04Z</time></trkpt><trkpt lat="43.1214669" lon="12.835973"><ele>903.0</ele><time>2026-04-24T10:12:32.03Z</time></trkpt><trkpt lat="43.1214526" lon="12.8358169"><ele>903.0</ele><time>2026-04-24T10:12:33.041Z</time></trkpt><trkpt lat="43.1214368" lon="12.8356566"><ele>903.0</ele><time>2026-04-24T10:12:34.025Z</time></trkpt><trkpt lat="43.1214122" lon="12.8355039"><ele>903.0</ele><time>2026-04-24T10:12:35.008Z</time></trkpt><trkpt lat="43.121378" lon="12.8353585"><ele>903.0</ele><time>2026-04-24T10:12:36.047Z</time></trkpt><trkpt lat="43.1213241" lon="12.8352214"><ele>904.5999999999999</ele><time>2026-04-24T10:12:37.05Z</time></trkpt><trkpt lat="43.1212609" lon="12.835099"><ele>906.1999999999999</ele><time>2026-04-24T10:12:38.035Z</time></trkpt><trkpt lat="43.1211912" lon="12.8349818"><ele>907.8</ele><time>2026-04-24T10:12:39.041Z</time></trkpt><trkpt lat="43.1211122" lon="12.8348925"><ele>909.4</ele><time>2026-04-24T10:12:40.041Z</time></trkpt><trkpt lat="43.1210256" lon="12.834813"><ele>911.0</ele><time>2026-04-24T10:12:41.019Z</time></trkpt><trkpt lat="43.1209189" lon="12.8347534"><ele>911.0</ele><time>2026-04-24T10:12:42.038Z</time></trkpt><trkpt lat="43.1208104" lon="12.8347087"><ele>911.0</ele><time>2026-04-24T10:12:43.038Z</time></trkpt><trkpt lat="43.1206955" lon="12.8346767"><ele>911.0</ele><time>2026-04-24T10:12:44.04Z</time></trkpt><trkpt lat="43.1205787" lon="12.8346622"><ele>911.0</ele><time>2026-04-24T10:12:45.039Z</time></trkpt><trkpt lat="43.1204648" lon="12.8346716"><ele>909.25</ele><time>2026-04-24T10:12:46.037Z</time></trkpt><trkpt lat="43.1203498" lon="12.8347001"><ele>907.5</ele><time>2026-04-24T10:12:47.039Z</time></trkpt><trkpt lat="43.1202384" lon="12.8347378"><ele>905.75</ele><time>2026-04-24T10:12:48.001Z</time></trkpt><trkpt lat="43.1201317" lon="12.8347835"><ele>904.0</ele><time>2026-04-24T10:12:49.04Z</time></trkpt><trkpt lat="43.1200234" lon="12.8348318"><ele>903.9999999999999</ele><time>2026-04-24T10:12:50.032Z</time></trkpt><trkpt lat="43.1199231" lon="12.8348853"><ele>904.0</ele><time>2026-04-24T10:12:51.046Z</time></trkpt><trkpt lat="43.119833" lon="12.8349345"><ele>904.0</ele><time>2026-04-24T10:12:52.028Z</time></trkpt><trkpt lat="43.1197525" lon="12.834981"><ele>904.0</ele><time>2026-04-24T10:12:53.036Z</time></trkpt><trkpt lat="43.1196761" lon="12.8350007"><ele>903.9999999999999</ele><time>2026-04-24T10:12:54.044Z</time></trkpt><trkpt lat="43.1196051" lon="12.835023"><ele>904.0</ele><time>2026-04-24T10:12:55.036Z</time></trkpt><trkpt lat="43.1195414" lon="12.8350664"><ele>900.4999999999999</ele><time>2026-04-24T10:12:56.029Z</time></trkpt><trkpt lat="43.1194817" lon="12.8351808"><ele>897.0</ele><time>2026-04-24T10:12:58.04Z</time></trkpt><trkpt lat="43.1195207" lon="12.8352666"><ele>893.5</ele><time>2026-04-24T10:13:00.027Z</time></trkpt><trkpt lat="43.1196189" lon="12.8352738"><ele>890.0</ele><time>2026-04-24T10:13:02.038Z</time></trkpt><trkpt lat="43.1196784" lon="12.8352408"><ele>886.4999999999999</ele><time>2026-04-24T10:13:03.037Z</time></trkpt><trkpt lat="43.1197505" lon="12.8351999"><ele>883.0</ele><time>2026-04-24T10:13:04.03Z</time></trkpt><trkpt lat="43.1198389" lon="12.8351994"><ele>883.0</ele><time>2026-04-24T10:13:05.02Z</time></trkpt><trkpt lat="43.1199397" lon="12.8352269"><ele>883.0</ele><time>2026-04-24T10:13:06.033Z</time></trkpt><trkpt lat="43.12003" lon="12.8352654"><ele>883.0</ele><time>2026-04-24T10:13:07.032Z</time></trkpt><trkpt lat="43.1201262" lon="12.8353028"><ele>883.0</ele><time>2026-04-24T10:13:08.039Z</time></trkpt><trkpt lat="43.1202149" lon="12.8353426"><ele>883.0</ele><time>2026-04-24T10:13:09.041Z</time></trkpt><trkpt lat="43.1202937" lon="12.8353828"><ele>883.0</ele><time>2026-04-24T10:13:10.04Z</time></trkpt><trkpt lat="43.1203658" lon="12.8354491"><ele>883.0</ele><time>2026-04-24T10:13:11.02Z</time></trkpt><trkpt lat="43.1204255" lon="12.8355442"><ele>883.0</ele><time>2026-04-24T10:13:12.033Z</time></trkpt><trkpt lat="43.1204712" lon="12.8356547"><ele>883.0</ele><time>2026-04-24T10:13:13.022Z</time></trkpt><trkpt lat="43.120509" lon="12.8357795"><ele>883.0</ele><time>2026-04-24T10:13:14.031Z</time></trkpt><trkpt lat="43.1205376" lon="12.8359089"><ele>880.6666666666666</ele><time>2026-04-24T10:13:15.033Z</time></trkpt><trkpt lat="43.1205613" lon="12.8360294"><ele>878.3333333333333</ele><time>2026-04-24T10:13:16.032Z</time></trkpt><trkpt lat="43.1205746" lon="12.8361429"><ele>876.0</ele><time>2026-04-24T10:13:17.032Z</time></trkpt><trkpt lat="43.1205697" lon="12.8362526"><ele>873.6666666666667</ele><time>2026-04-24T10:13:18.035Z</time></trkpt><trkpt lat="43.1205488" lon="12.8363613"><ele>871.3333333333334</ele><time>2026-04-24T10:13:19.042Z</time></trkpt><trkpt lat="43.120514" lon="12.8364907"><ele>869.0</ele><time>2026-04-24T10:13:20.032Z</time></trkpt><trkpt lat="43.1204686" lon="12.8366143"><ele>869.0</ele><time>2026-04-24T10:13:21.026Z</time></trkpt><trkpt lat="43.1204239" lon="12.8367333"><ele>869.0000000000001</ele><time>2026-04-24T10:13:22.036Z</time></trkpt><trkpt lat="43.1203821" lon="12.8368605"><ele>869.0000000000001</ele><time>2026-04-24T10:13:23.031Z</time></trkpt><trkpt lat="43.1203444" lon="12.8369979"><ele>869.0</ele><time>2026-04-24T10:13:24.036Z</time></trkpt><trkpt lat="43.1203113" lon="12.8371472"><ele>869.0</ele><time>2026-04-24T10:13:25.047Z</time></trkpt><trkpt lat="43.1202845" lon="12.8373193"><ele>868.0</ele><time>2026-04-24T10:13:26.042Z</time></trkpt><trkpt lat="43.1202676" lon="12.8374792"><ele>867.0</ele><time>2026-04-24T10:13:27.016Z</time></trkpt><trkpt lat="43.1202615" lon="12.8376409"><ele>866.0</ele><time>2026-04-24T10:13:28.036Z</time></trkpt><trkpt lat="43.120264" lon="12.8378049"><ele>865.0</ele><time>2026-04-24T10:13:29.033Z</time></trkpt><trkpt lat="43.1202729" lon="12.8379584"><ele>864.2</ele><time>2026-04-24T10:13:30.044Z</time></trkpt><trkpt lat="43.1202912" lon="12.8381123"><ele>863.4</ele><time>2026-04-24T10:13:31.039Z</time></trkpt><trkpt lat="43.1203162" lon="12.83826"><ele>862.5999999999999</ele><time>2026-04-24T10:13:32.031Z</time></trkpt><trkpt lat="43.1203441" lon="12.8384018"><ele>861.8</ele><time>2026-04-24T10:13:33.038Z</time></trkpt><trkpt lat="43.1203757" lon="12.8385466"><ele>861.0</ele><time>2026-04-24T10:13:34.039Z</time></trkpt><trkpt lat="43.1203936" lon="12.8386846"><ele>861.4</ele><time>2026-04-24T10:13:35.01Z</time></trkpt><trkpt lat="43.1204007" lon="12.8388191"><ele>861.8</ele><time>2026-04-24T10:13:36.043Z</time></trkpt><trkpt lat="43.1204004" lon="12.8389632"><ele>862.1999999999999</ele><time>2026-04-24T10:13:37.03Z</time></trkpt><trkpt lat="43.1203891" lon="12.8390986"><ele>862.5999999999999</ele><time>2026-04-24T10:13:38.029Z</time></trkpt><trkpt lat="43.1203705" lon="12.8392325"><ele>863.0</ele><time>2026-04-24T10:13:39.031Z</time></trkpt><trkpt lat="43.1203423" lon="12.8393594"><ele>863.0</ele><time>2026-04-24T10:13:40.039Z</time></trkpt><trkpt lat="43.1202941" lon="12.8394719"><ele>863.0</ele><time>2026-04-24T10:13:41.034Z</time></trkpt><trkpt lat="43.1202336" lon="12.8395746"><ele>863.0</ele><time>2026-04-24T10:13:42.04Z</time></trkpt><trkpt lat="43.1201643" lon="12.8396756"><ele>863.0</ele><time>2026-04-24T10:13:43.037Z</time></trkpt><trkpt lat="43.1200956" lon="12.8397866"><ele>863.0</ele><time>2026-04-24T10:13:44.032Z</time></trkpt><trkpt lat="43.1200247" lon="12.8399009"><ele>863.0000000000001</ele><time>2026-04-24T10:13:45.021Z</time></trkpt><trkpt lat="43.1199559" lon="12.8400073"><ele>863.0</ele><time>2026-04-24T10:13:45.992Z</time></trkpt><trkpt lat="43.1198873" lon="12.8401062"><ele>863.0</ele><time>2026-04-24T10:13:47.037Z</time></trkpt><trkpt lat="43.1198257" lon="12.8401915"><ele>863.0</ele><time>2026-04-24T10:13:47.998Z</time></trkpt><trkpt lat="43.1197668" lon="12.8402728"><ele>863.0000000000001</ele><time>2026-04-24T10:13:49.026Z</time></trkpt><trkpt lat="43.1197262" lon="12.8403532"><ele>863.0</ele><time>2026-04-24T10:13:50.044Z</time></trkpt><trkpt lat="43.1196978" lon="12.8404389"><ele>857.5999999999999</ele><time>2026-04-24T10:13:51.037Z</time></trkpt><trkpt lat="43.1196709" lon="12.8406004"><ele>852.1999999999999</ele><time>2026-04-24T10:13:53.037Z</time></trkpt><trkpt lat="43.1196199" lon="12.8406958"><ele>846.8</ele><time>2026-04-24T10:13:55.009Z</time></trkpt><trkpt lat="43.1195305" lon="12.8406612"><ele>841.4</ele><time>2026-04-24T10:13:57.042Z</time></trkpt><trkpt lat="43.1195168" lon="12.8405042"><ele>836.0</ele><time>2026-04-24T10:13:59.056Z</time></trkpt><trkpt lat="43.1195517" lon="12.8404153"><ele>836.0</ele><time>2026-04-24T10:14:00.027Z</time></trkpt><trkpt lat="43.1195974" lon="12.8403309"><ele>836.0</ele><time>2026-04-24T10:14:01.035Z</time></trkpt><trkpt lat="43.1196541" lon="12.8402276"><ele>836.0</ele><time>2026-04-24T10:14:02.027Z</time></trkpt><trkpt lat="43.1197033" lon="12.8401137"><ele>836.0</ele><time>2026-04-24T10:14:03.035Z</time></trkpt><trkpt lat="43.1197473" lon="12.8399874"><ele>836.0</ele><time>2026-04-24T10:14:04.032Z</time></trkpt><trkpt lat="43.1197867" lon="12.8398645"><ele>834.1666666666667</ele><time>2026-04-24T10:14:05.035Z</time></trkpt><trkpt lat="43.1198255" lon="12.8397432"><ele>832.3333333333334</ele><time>2026-04-24T10:14:06.032Z</time></trkpt><trkpt lat="43.1198641" lon="12.8396344"><ele>830.5</ele><time>2026-04-24T10:14:07.031Z</time></trkpt><trkpt lat="43.1199017" lon="12.8395267"><ele>828.6666666666667</ele><time>2026-04-24T10:14:08.022Z</time></trkpt><trkpt lat="43.119934" lon="12.8394227"><ele>826.8333333333334</ele><time>2026-04-24T10:14:09.013Z</time></trkpt><trkpt lat="43.1199592" lon="12.8393119"><ele>825.0</ele><time>2026-04-24T10:14:10.019Z</time></trkpt><trkpt lat="43.1199675" lon="12.8391778"><ele>822.25</ele><time>2026-04-24T10:14:11.035Z</time></trkpt><trkpt lat="43.1199355" lon="12.8390136"><ele>819.5</ele><time>2026-04-24T10:14:12.026Z</time></trkpt><trkpt lat="43.1198708" lon="12.8388622"><ele>816.75</ele><time>2026-04-24T10:14:13.033Z</time></trkpt><trkpt lat="43.1198026" lon="12.8387172"><ele>814.0</ele><time>2026-04-24T10:14:14.022Z</time></trkpt><trkpt lat="43.1197283" lon="12.8385872"><ele>815.4000000000001</ele><time>2026-04-24T10:14:15.043Z</time></trkpt><trkpt lat="43.1196703" lon="12.8384562"><ele>816.8</ele><time>2026-04-24T10:14:16.027Z</time></trkpt><trkpt lat="43.1196166" lon="12.838323"><ele>818.2</ele><time>2026-04-24T10:14:17.026Z</time></trkpt><trkpt lat="43.119577" lon="12.8381936"><ele>819.5999999999999</ele><time>2026-04-24T10:14:18.042Z</time></trkpt><trkpt lat="43.119553" lon="12.8380669"><ele>821.0</ele><time>2026-04-24T10:14:19.039Z</time></trkpt><trkpt lat="43.1195396" lon="12.8379319"><ele>821.0000000000001</ele><time>2026-04-24T10:14:20.033Z</time></trkpt><trkpt lat="43.1195305" lon="12.8377986"><ele>821.0</ele><time>2026-04-24T10:14:21.029Z</time></trkpt><trkpt lat="43.119518" lon="12.8376689"><ele>821.0</ele><time>2026-04-24T10:14:22.018Z</time></trkpt><trkpt lat="43.1195066" lon="12.8375459"><ele>821.0</ele><time>2026-04-24T10:14:23.041Z</time></trkpt><trkpt lat="43.1194946" lon="12.8374365"><ele>821.0000000000001</ele><time>2026-04-24T10:14:24.033Z</time></trkpt><trkpt lat="43.1194894" lon="12.8373327"><ele>821.0</ele><time>2026-04-24T10:14:25.028Z</time></trkpt><trkpt lat="43.1194777" lon="12.8372289"><ele>823.6666666666667</ele><time>2026-04-24T10:14:26.028Z</time></trkpt><trkpt lat="43.1194356" lon="12.8371402"><ele>826.3333333333334</ele><time>2026-04-24T10:14:27.054Z</time></trkpt><trkpt lat="43.1193711" lon="12.8371103"><ele>829.0</ele><time>2026-04-24T10:14:28.04Z</time></trkpt><trkpt lat="43.1192923" lon="12.8371224"><ele>831.6666666666667</ele><time>2026-04-24T10:14:29.025Z</time></trkpt><trkpt lat="43.119207" lon="12.8371703"><ele>834.3333333333334</ele><time>2026-04-24T10:14:30.028Z</time></trkpt><trkpt lat="43.1191068" lon="12.8372454"><ele>837.0</ele><time>2026-04-24T10:14:31.025Z</time></trkpt><trkpt lat="43.119019" lon="12.8373283"><ele>837.2</ele><time>2026-04-24T10:14:32.036Z</time></trkpt><trkpt lat="43.1189377" lon="12.8374207"><ele>837.4000000000001</ele><time>2026-04-24T10:14:33.038Z</time></trkpt><trkpt lat="43.1188616" lon="12.8374931"><ele>837.5999999999999</ele><time>2026-04-24T10:14:34.036Z</time></trkpt><trkpt lat="43.118786" lon="12.8375682"><ele>837.8</ele><time>2026-04-24T10:14:35.011Z</time></trkpt><trkpt lat="43.1187092" lon="12.8376364"><ele>838.0</ele><time>2026-04-24T10:14:36.015Z</time></trkpt><trkpt lat="43.1186235" lon="12.8376985"><ele>834.2</ele><time>2026-04-24T10:14:37.031Z</time></trkpt><trkpt lat="43.1185351" lon="12.8377457"><ele>830.4</ele><time>2026-04-24T10:14:38.04Z</time></trkpt><trkpt lat="43.1184419" lon="12.8377814"><ele>826.6</ele><time>2026-04-24T10:14:39.034Z</time></trkpt><trkpt lat="43.1183365" lon="12.8378143"><ele>822.8000000000001</ele><time>2026-04-24T10:14:40.033Z</time></trkpt><trkpt lat="43.1182305" lon="12.8378456"><ele>819.0</ele><time>2026-04-24T10:14:41.04Z</time></trkpt><trkpt lat="43.1181293" lon="12.8378708"><ele>819.0</ele><time>2026-04-24T10:14:42.036Z</time></trkpt><trkpt lat="43.1180283" lon="12.8379088"><ele>819.0</ele><time>2026-04-24T10:14:43.051Z</time></trkpt><trkpt lat="43.1179302" lon="12.8379655"><ele>819.0</ele><time>2026-04-24T10:14:44.035Z</time></trkpt><trkpt lat="43.1178353" lon="12.8380495"><ele>819.0</ele><time>2026-04-24T10:14:45.038Z</time></trkpt><trkpt lat="43.1177382" lon="12.8381351"><ele>819.0</ele><time>2026-04-24T10:14:46.047Z</time></trkpt><trkpt lat="43.1176447" lon="12.8382059"><ele>819.0</ele><time>2026-04-24T10:14:47.032Z</time></trkpt><trkpt lat="43.1175472" lon="12.8382787"><ele>819.0</ele><time>2026-04-24T10:14:48.043Z</time></trkpt><trkpt lat="43.1174452" lon="12.8383387"><ele>819.0</ele><time>2026-04-24T10:14:49.029Z</time></trkpt><trkpt lat="43.1173383" lon="12.8383987"><ele>819.0</ele><time>2026-04-24T10:14:50.04Z</time></trkpt><trkpt lat="43.1172182" lon="12.838459"><ele>813.0</ele><time>2026-04-24T10:14:51.036Z</time></trkpt><trkpt lat="43.1170997" lon="12.8385271"><ele>807.0</ele><time>2026-04-24T10:14:52.034Z</time></trkpt><trkpt lat="43.1169824" lon="12.8385898"><ele>801.0</ele><time>2026-04-24T10:14:53.034Z</time></trkpt><trkpt lat="43.1168649" lon="12.8386519"><ele>795.0</ele><time>2026-04-24T10:14:54.031Z</time></trkpt><trkpt lat="43.1167472" lon="12.8387067"><ele>795.0</ele><time>2026-04-24T10:14:55.037Z</time></trkpt><trkpt lat="43.1166275" lon="12.8387493"><ele>795.0</ele><time>2026-04-24T10:14:56.02Z</time></trkpt><trkpt lat="43.1165113" lon="12.8387743"><ele>795.0</ele><time>2026-04-24T10:14:57.037Z</time></trkpt><trkpt lat="43.1163981" lon="12.8388004"><ele>795.0</ele><time>2026-04-24T10:14:58.032Z</time></trkpt><trkpt lat="43.1162883" lon="12.8388246"><ele>796.0</ele><time>2026-04-24T10:14:59.041Z</time></trkpt><trkpt lat="43.1161835" lon="12.8388467"><ele>797.0</ele><time>2026-04-24T10:15:00.038Z</time></trkpt><trkpt lat="43.1160812" lon="12.8388674"><ele>798.0</ele><time>2026-04-24T10:15:01.036Z</time></trkpt><trkpt lat="43.115976" lon="12.8388881"><ele>799.0</ele><time>2026-04-24T10:15:02.009Z</time></trkpt><trkpt lat="43.1158726" lon="12.8389205"><ele>800.0</ele><time>2026-04-24T10:15:03.035Z</time></trkpt><trkpt lat="43.1157747" lon="12.8389646"><ele>799.6</ele><time>2026-04-24T10:15:04.035Z</time></trkpt><trkpt lat="43.115675" lon="12.8390121"><ele>799.2</ele><time>2026-04-24T10:15:05.038Z</time></trkpt><trkpt lat="43.1155747" lon="12.8390526"><ele>798.8</ele><time>2026-04-24T10:15:06.032Z</time></trkpt><trkpt lat="43.1154751" lon="12.8390859"><ele>798.4</ele><time>2026-04-24T10:15:07.032Z</time></trkpt><trkpt lat="43.1153776" lon="12.839113"><ele>798.0</ele><time>2026-04-24T10:15:08.031Z</time></trkpt><trkpt lat="43.1152892" lon="12.8391299"><ele>798.0</ele><time>2026-04-24T10:15:09.027Z</time></trkpt><trkpt lat="43.1152186" lon="12.8391343"><ele>798.0</ele><time>2026-04-24T10:15:10.037Z</time></trkpt><trkpt lat="43.1151064" lon="12.8391302"><ele>798.0</ele><time>2026-04-24T10:15:11.994Z</time></trkpt><trkpt lat="43.1150267" lon="12.8391772"><ele>798.0</ele><time>2026-04-24T10:15:14.042Z</time></trkpt><trkpt lat="43.115001" lon="12.8392602"><ele>798.0</ele><time>2026-04-24T10:15:17.024Z</time></trkpt><trkpt lat="43.1150678" lon="12.8392798"><ele>798.0</ele><time>2026-04-24T10:15:39.031Z</time></trkpt><trkpt lat="43.1151778" lon="12.8392796"><ele>798.0</ele><time>2026-04-24T10:15:41.041Z</time></trkpt><trkpt lat="43.1152504" lon="12.8392774"><ele>798.0</ele><time>2026-04-24T10:15:42.029Z</time></trkpt><trkpt lat="43.1153307" lon="12.8392738"><ele>798.0</ele><time>2026-04-24T10:15:43.002Z</time></trkpt><trkpt lat="43.1154308" lon="12.8392704"><ele>798.0</ele><time>2026-04-24T10:15:44.035Z</time></trkpt><trkpt lat="43.115539" lon="12.8392658"><ele>798.0</ele><time>2026-04-24T10:15:45.034Z</time></trkpt><trkpt lat="43.1156567" lon="12.8392694"><ele>798.5</ele><time>2026-04-24T10:15:46.023Z</time></trkpt><trkpt lat="43.1157867" lon="12.8392701"><ele>799.0</ele><time>2026-04-24T10:15:47.023Z</time></trkpt><trkpt lat="43.1159218" lon="12.8392771"><ele>799.5</ele><time>2026-04-24T10:15:48.03Z</time></trkpt><trkpt lat="43.1160533" lon="12.8392984"><ele>800.0</ele><time>2026-04-24T10:15:49.025Z</time></trkpt><trkpt lat="43.1161856" lon="12.8393124"><ele>789.0</ele><time>2026-04-24T10:15:50.024Z</time></trkpt><trkpt lat="43.1163147" lon="12.8393168"><ele>778.0</ele><time>2026-04-24T10:15:51.045Z</time></trkpt><trkpt lat="43.1164473" lon="12.8393251"><ele>767.0</ele><time>2026-04-24T10:15:52.015Z</time></trkpt><trkpt lat="43.1165825" lon="12.839336"><ele>756.0</ele><time>2026-04-24T10:15:53.049Z</time></trkpt><trkpt lat="43.1167139" lon="12.8393473"><ele>754.5</ele><time>2026-04-24T10:15:54.025Z</time></trkpt><trkpt lat="43.1168363" lon="12.8393512"><ele>753.0</ele><time>2026-04-24T10:15:55.029Z</time></trkpt><trkpt lat="43.116959" lon="12.8393578"><ele>751.5</ele><time>2026-04-24T10:15:56.033Z</time></trkpt><trkpt lat="43.1170807" lon="12.8393594"><ele>750.0</ele><time>2026-04-24T10:15:57.034Z</time></trkpt><trkpt lat="43.1172039" lon="12.8393556"><ele>750.0</ele><time>2026-04-24T10:15:58.037Z</time></trkpt><trkpt lat="43.1173197" lon="12.8393481"><ele>750.0</ele><time>2026-04-24T10:15:59.03Z</time></trkpt><trkpt lat="43.1174374" lon="12.8393341"><ele>750.0</ele><time>2026-04-24T10:16:00.038Z</time></trkpt><trkpt lat="43.1175517" lon="12.8393062"><ele>750.0</ele><time>2026-04-24T10:16:01.032Z</time></trkpt><trkpt lat="43.1176695" lon="12.8392732"><ele>759.75</ele><time>2026-04-24T10:16:02.038Z</time></trkpt><trkpt lat="43.1177871" lon="12.8392207"><ele>769.5</ele><time>2026-04-24T10:16:03.04Z</time></trkpt><trkpt lat="43.1178978" lon="12.8391721"><ele>779.25</ele><time>2026-04-24T10:16:04.03Z</time></trkpt><trkpt lat="43.1180079" lon="12.8391389"><ele>789.0</ele><time>2026-04-24T10:16:05.049Z</time></trkpt><trkpt lat="43.1181187" lon="12.8391135"><ele>789.0</ele><time>2026-04-24T10:16:06.032Z</time></trkpt><trkpt lat="43.1182265" lon="12.8390922"><ele>789.0</ele><time>2026-04-24T10:16:07.034Z</time></trkpt><trkpt lat="43.1183195" lon="12.8390799"><ele>789.0</ele><time>2026-04-24T10:16:08.017Z</time></trkpt><trkpt lat="43.1183917" lon="12.8390798"><ele>789.0</ele><time>2026-04-24T10:16:09.027Z</time></trkpt><trkpt lat="43.1184747" lon="12.8391484"><ele>789.0</ele><time>2026-04-24T10:16:11.037Z</time></trkpt><trkpt lat="43.1184508" lon="12.839329"><ele>785.25</ele><time>2026-04-24T10:16:13.031Z</time></trkpt><trkpt lat="43.1184051" lon="12.8394383"><ele>781.5</ele><time>2026-04-24T10:16:14.033Z</time></trkpt><trkpt lat="43.1183487" lon="12.8395817"><ele>777.75</ele><time>2026-04-24T10:16:15.027Z</time></trkpt><trkpt lat="43.1182872" lon="12.839736"><ele>774.0</ele><time>2026-04-24T10:16:16.024Z</time></trkpt><trkpt lat="43.1182259" lon="12.8398914"><ele>768.5</ele><time>2026-04-24T10:16:17.029Z</time></trkpt><trkpt lat="43.1181686" lon="12.840058"><ele>763.0</ele><time>2026-04-24T10:16:18.033Z</time></trkpt><trkpt lat="43.1181185" lon="12.8402268"><ele>757.5</ele><time>2026-04-24T10:16:19.029Z</time></trkpt><trkpt lat="43.1180736" lon="12.8403938"><ele>752.0</ele><time>2026-04-24T10:16:20.025Z</time></trkpt><trkpt lat="43.1180298" lon="12.8405584"><ele>752.25</ele><time>2026-04-24T10:16:21.028Z</time></trkpt><trkpt lat="43.117975" lon="12.8407253"><ele>752.5</ele><time>2026-04-24T10:16:22.022Z</time></trkpt><trkpt lat="43.1179153" lon="12.8408831"><ele>752.75</ele><time>2026-04-24T10:16:23.04Z</time></trkpt><trkpt lat="43.1178532" lon="12.8410284"><ele>753.0</ele><time>2026-04-24T10:16:24.027Z</time></trkpt><trkpt lat="43.1177989" lon="12.8411526"><ele>753.0</ele><time>2026-04-24T10:16:24.995Z</time></trkpt><trkpt lat="43.1177517" lon="12.841271"><ele>753.0</ele><time>2026-04-24T10:16:26.034Z</time></trkpt><trkpt lat="43.1177214" lon="12.8413746"><ele>753.0</ele><time>2026-04-24T10:16:27.028Z</time></trkpt><trkpt lat="43.1177007" lon="12.8414704"><ele>753.0</ele><time>2026-04-24T10:16:28.002Z</time></trkpt><trkpt lat="43.1176749" lon="12.8415581"><ele>753.0</ele><time>2026-04-24T10:16:29.026Z</time></trkpt><trkpt lat="43.1176396" lon="12.84163"><ele>753.0</ele><time>2026-04-24T10:16:30.026Z</time></trkpt><trkpt lat="43.11759" lon="12.841694"><ele>753.0</ele><time>2026-04-24T10:16:31.037Z</time></trkpt><trkpt lat="43.117518" lon="12.8417253"><ele>753.0</ele><time>2026-04-24T10:16:32.024Z</time></trkpt><trkpt lat="43.1174185" lon="12.8417186"><ele>753.0</ele><time>2026-04-24T10:16:33.028Z</time></trkpt><trkpt lat="43.1173132" lon="12.8417217"><ele>753.0</ele><time>2026-04-24T10:16:34.023Z</time></trkpt><trkpt lat="43.1172202" lon="12.8417532"><ele>753.0</ele><time>2026-04-24T10:16:35.036Z</time></trkpt><trkpt lat="43.1171403" lon="12.8418123"><ele>747.4</ele><time>2026-04-24T10:16:35.995Z</time></trkpt><trkpt lat="43.1170713" lon="12.8419011"><ele>741.8</ele><time>2026-04-24T10:16:37.034Z</time></trkpt><trkpt lat="43.1170125" lon="12.8419915"><ele>736.2</ele><time>2026-04-24T10:16:38.026Z</time></trkpt><trkpt lat="43.1169735" lon="12.8421043"><ele>730.6</ele><time>2026-04-24T10:16:39.018Z</time></trkpt><trkpt lat="43.1169469" lon="12.8422278"><ele>725.0</ele><time>2026-04-24T10:16:39.987Z</time></trkpt><trkpt lat="43.1169338" lon="12.8423575"><ele>725.0</ele><time>2026-04-24T10:16:41.021Z</time></trkpt><trkpt lat="43.116932" lon="12.8424919"><ele>725.0</ele><time>2026-04-24T10:16:42.039Z</time></trkpt><trkpt lat="43.1169411" lon="12.8426277"><ele>725.0</ele><time>2026-04-24T10:16:43.031Z</time></trkpt><trkpt lat="43.1169628" lon="12.8427686"><ele>725.0</ele><time>2026-04-24T10:16:44.028Z</time></trkpt><trkpt lat="43.1169965" lon="12.8428872"><ele>725.0</ele><time>2026-04-24T10:16:45.032Z</time></trkpt><trkpt lat="43.1170396" lon="12.8429867"><ele>726.0</ele><time>2026-04-24T10:16:46.022Z</time></trkpt><trkpt lat="43.1170753" lon="12.8430807"><ele>727.0</ele><time>2026-04-24T10:16:47.005Z</time></trkpt><trkpt lat="43.1170896" lon="12.8431729"><ele>728.0</ele><time>2026-04-24T10:16:48.031Z</time></trkpt><trkpt lat="43.1170734" lon="12.8432605"><ele>729.0</ele><time>2026-04-24T10:16:49.008Z</time></trkpt><trkpt lat="43.1170359" lon="12.8433513"><ele>730.0</ele><time>2026-04-24T10:16:50.033Z</time></trkpt><trkpt lat="43.1169571" lon="12.8434617"><ele>731.0</ele><time>2026-04-24T10:16:51.032Z</time></trkpt><trkpt lat="43.1168521" lon="12.843565"><ele>730.1999999999999</ele><time>2026-04-24T10:16:52.039Z</time></trkpt><trkpt lat="43.1167515" lon="12.843675"><ele>729.4</ele><time>2026-04-24T10:16:53.031Z</time></trkpt><trkpt lat="43.1166685" lon="12.8437831"><ele>728.6</ele><time>2026-04-24T10:16:54.027Z</time></trkpt><trkpt lat="43.1165865" lon="12.8438792"><ele>727.8</ele><time>2026-04-24T10:16:55.005Z</time></trkpt><trkpt lat="43.1165082" lon="12.8439553"><ele>727.0</ele><time>2026-04-24T10:16:56.026Z</time></trkpt><trkpt lat="43.1164177" lon="12.8440061"><ele>727.0</ele><time>2026-04-24T10:16:57.027Z</time></trkpt><trkpt lat="43.1163064" lon="12.844027"><ele>727.0</ele><time>2026-04-24T10:16:58.015Z</time></trkpt><trkpt lat="43.1161772" lon="12.8440307"><ele>727.0</ele><time>2026-04-24T10:16:59.025Z</time></trkpt><trkpt lat="43.1160367" lon="12.8440353"><ele>727.0</ele><time>2026-04-24T10:17:00.033Z</time></trkpt><trkpt lat="43.115903" lon="12.8440423"><ele>727.0</ele><time>2026-04-24T10:17:01.021Z</time></trkpt><trkpt lat="43.1157721" lon="12.8440479"><ele>727.0</ele><time>2026-04-24T10:17:02.013Z</time></trkpt><trkpt lat="43.115642" lon="12.8440432"><ele>727.0</ele><time>2026-04-24T10:17:03.031Z</time></trkpt><trkpt lat="43.115516" lon="12.844031"><ele>727.0</ele><time>2026-04-24T10:17:04.026Z</time></trkpt><trkpt lat="43.1153933" lon="12.8439983"><ele>726.0</ele><time>2026-04-24T10:17:05.021Z</time></trkpt><trkpt lat="43.1152734" lon="12.8439654"><ele>725.0</ele><time>2026-04-24T10:17:06.028Z</time></trkpt><trkpt lat="43.115161" lon="12.8439336"><ele>724.0</ele><time>2026-04-24T10:17:07.025Z</time></trkpt><trkpt lat="43.1150554" lon="12.843916"><ele>723.0</ele><time>2026-04-24T10:17:08.028Z</time></trkpt><trkpt lat="43.1149533" lon="12.8439294"><ele>722.0</ele><time>2026-04-24T10:17:09.027Z</time></trkpt><trkpt lat="43.114847" lon="12.8439773"><ele>715.75</ele><time>2026-04-24T10:17:10.028Z</time></trkpt><trkpt lat="43.1147362" lon="12.8440426"><ele>709.5</ele><time>2026-04-24T10:17:11.031Z</time></trkpt><trkpt lat="43.1146191" lon="12.8441186"><ele>703.25</ele><time>2026-04-24T10:17:12.001Z</time></trkpt><trkpt lat="43.1145079" lon="12.8441824"><ele>697.0</ele><time>2026-04-24T10:17:13.028Z</time></trkpt><trkpt lat="43.1143889" lon="12.8442388"><ele>697.0</ele><time>2026-04-24T10:17:14.019Z</time></trkpt><trkpt lat="43.1142669" lon="12.844287"><ele>697.0</ele><time>2026-04-24T10:17:15.032Z</time></trkpt><trkpt lat="43.1141538" lon="12.8443367"><ele>697.0</ele><time>2026-04-24T10:17:16.018Z</time></trkpt><trkpt lat="43.1140405" lon="12.8443987"><ele>697.0</ele><time>2026-04-24T10:17:17.029Z</time></trkpt><trkpt lat="43.1139321" lon="12.8444564"><ele>695.8</ele><time>2026-04-24T10:17:18.014Z</time></trkpt><trkpt lat="43.1138237" lon="12.8445184"><ele>694.6</ele><time>2026-04-24T10:17:19.028Z</time></trkpt><trkpt lat="43.1137151" lon="12.8445743"><ele>693.4</ele><time>2026-04-24T10:17:20.024Z</time></trkpt><trkpt lat="43.1136145" lon="12.8446259"><ele>692.1999999999999</ele><time>2026-04-24T10:17:21.018Z</time></trkpt><trkpt lat="43.1135182" lon="12.8446887"><ele>691.0</ele><time>2026-04-24T10:17:22.025Z</time></trkpt><trkpt lat="43.1134372" lon="12.8447717"><ele>691.0</ele><time>2026-04-24T10:17:23.032Z</time></trkpt><trkpt lat="43.1133675" lon="12.8448693"><ele>691.0</ele><time>2026-04-24T10:17:24.026Z</time></trkpt><trkpt lat="43.113307" lon="12.8449898"><ele>691.0</ele><time>2026-04-24T10:17:25.03Z</time></trkpt><trkpt lat="43.1132542" lon="12.8451131"><ele>691.0</ele><time>2026-04-24T10:17:26.02Z</time></trkpt><trkpt lat="43.1132052" lon="12.8452307"><ele>691.0</ele><time>2026-04-24T10:17:27.014Z</time></trkpt><trkpt lat="43.1131595" lon="12.8453543"><ele>681.5</ele><time>2026-04-24T10:17:28.025Z</time></trkpt><trkpt lat="43.1131178" lon="12.8454964"><ele>672.0</ele><time>2026-04-24T10:17:29.019Z</time></trkpt><trkpt lat="43.1130754" lon="12.8456543"><ele>662.5</ele><time>2026-04-24T10:17:29.992Z</time></trkpt><trkpt lat="43.1130378" lon="12.8458041"><ele>653.0</ele><time>2026-04-24T10:17:31.035Z</time></trkpt><trkpt lat="43.1130096" lon="12.84596"><ele>653.4</ele><time>2026-04-24T10:17:32.027Z</time></trkpt><trkpt lat="43.112981" lon="12.8461098"><ele>653.8</ele><time>2026-04-24T10:17:33.038Z</time></trkpt><trkpt lat="43.1129557" lon="12.8462554"><ele>654.2</ele><time>2026-04-24T10:17:34.03Z</time></trkpt><trkpt lat="43.1129418" lon="12.8463946"><ele>654.6</ele><time>2026-04-24T10:17:35.024Z</time></trkpt><trkpt lat="43.1129271" lon="12.8465319"><ele>655.0</ele><time>2026-04-24T10:17:36.031Z</time></trkpt><trkpt lat="43.1129153" lon="12.8466572"><ele>655.0</ele><time>2026-04-24T10:17:37.031Z</time></trkpt><trkpt lat="43.1129057" lon="12.846767"><ele>655.0</ele><time>2026-04-24T10:17:38.026Z</time></trkpt><trkpt lat="43.112903" lon="12.8468691"><ele>655.0</ele><time>2026-04-24T10:17:39.01Z</time></trkpt><trkpt lat="43.1128961" lon="12.8469578"><ele>655.0</ele><time>2026-04-24T10:17:40.015Z</time></trkpt><trkpt lat="43.1128522" lon="12.8470647"><ele>655.0</ele><time>2026-04-24T10:17:42.036Z</time></trkpt><trkpt lat="43.1127622" lon="12.8470369"><ele>655.0</ele><time>2026-04-24T10:17:43.995Z</time></trkpt><trkpt lat="43.1127513" lon="12.8468655"><ele>655.0</ele><time>2026-04-24T10:17:46.003Z</time></trkpt><trkpt lat="43.112774" lon="12.8467759"><ele>655.0</ele><time>2026-04-24T10:17:46.997Z</time></trkpt><trkpt lat="43.1127757" lon="12.8466614"><ele>655.0</ele><time>2026-04-24T10:17:48.012Z</time></trkpt><trkpt lat="43.1127561" lon="12.8465196"><ele>655.0</ele><time>2026-04-24T10:17:49.01Z</time></trkpt><trkpt lat="43.112722" lon="12.8463479"><ele>655.0</ele><time>2026-04-24T10:17:50.019Z</time></trkpt><trkpt lat="43.1126876" lon="12.846189"><ele>655.0</ele><time>2026-04-24T10:17:51.01Z</time></trkpt><trkpt lat="43.1126671" lon="12.8460418"><ele>655.0</ele><time>2026-04-24T10:17:52.024Z</time></trkpt><trkpt lat="43.1126454" lon="12.845889"><ele>655.0</ele><time>2026-04-24T10:17:53.028Z</time></trkpt><trkpt lat="43.1126335" lon="12.8457461"><ele>655.0</ele><time>2026-04-24T10:17:53.99Z</time></trkpt><trkpt lat="43.1126367" lon="12.8456031"><ele>655.0</ele><time>2026-04-24T10:17:55.015Z</time></trkpt><trkpt lat="43.112657" lon="12.8454687"><ele>654.6</ele><time>2026-04-24T10:17:56.007Z</time></trkpt><trkpt lat="43.1126872" lon="12.8453462"><ele>654.2</ele><time>2026-04-24T10:17:57.022Z</time></trkpt><trkpt lat="43.1127227" lon="12.8452315"><ele>653.8</ele><time>2026-04-24T10:17:58.002Z</time></trkpt><trkpt lat="43.1127759" lon="12.8451054"><ele>653.4</ele><time>2026-04-24T10:17:59.007Z</time></trkpt><trkpt lat="43.1128018" lon="12.8449799"><ele>653.0</ele><time>2026-04-24T10:18:00.013Z</time></trkpt><trkpt lat="43.1128029" lon="12.8448339"><ele>651.5</ele><time>2026-04-24T10:18:01.042Z</time></trkpt><trkpt lat="43.1127875" lon="12.8446909"><ele>650.0</ele><time>2026-04-24T10:18:02.02Z</time></trkpt><trkpt lat="43.112753" lon="12.8445409"><ele>648.5</ele><time>2026-04-24T10:18:02.992Z</time></trkpt><trkpt lat="43.1127099" lon="12.8443806"><ele>647.0</ele><time>2026-04-24T10:18:04.026Z</time></trkpt><trkpt lat="43.112678" lon="12.8442271"><ele>646.6</ele><time>2026-04-24T10:18:05.026Z</time></trkpt><trkpt lat="43.1126661" lon="12.8440843"><ele>646.2</ele><time>2026-04-24T10:18:05.993Z</time></trkpt><trkpt lat="43.1126694" lon="12.8439559"><ele>645.8</ele><time>2026-04-24T10:18:07.029Z</time></trkpt><trkpt lat="43.1126866" lon="12.8438445"><ele>645.4</ele><time>2026-04-24T10:18:08.021Z</time></trkpt><trkpt lat="43.1127175" lon="12.8437294"><ele>645.0</ele><time>2026-04-24T10:18:09.013Z</time></trkpt><trkpt lat="43.1127731" lon="12.843626"><ele>645.0</ele><time>2026-04-24T10:18:10.02Z</time></trkpt><trkpt lat="43.1128391" lon="12.8435127"><ele>645.0</ele><time>2026-04-24T10:18:11.031Z</time></trkpt><trkpt lat="43.112914" lon="12.8433995"><ele>645.0</ele><time>2026-04-24T10:18:12.029Z</time></trkpt><trkpt lat="43.1129909" lon="12.8432853"><ele>645.0</ele><time>2026-04-24T10:18:13.034Z</time></trkpt><trkpt lat="43.1130725" lon="12.8431642"><ele>642.25</ele><time>2026-04-24T10:18:14.021Z</time></trkpt><trkpt lat="43.1131546" lon="12.8430338"><ele>639.5</ele><time>2026-04-24T10:18:15.024Z</time></trkpt><trkpt lat="43.1132271" lon="12.8429001"><ele>636.75</ele><time>2026-04-24T10:18:16.022Z</time></trkpt><trkpt lat="43.1132859" lon="12.8427693"><ele>634.0</ele><time>2026-04-24T10:18:17.029Z</time></trkpt><trkpt lat="43.1133382" lon="12.8426598"><ele>634.5</ele><time>2026-04-24T10:18:18.022Z</time></trkpt><trkpt lat="43.11339" lon="12.8425726"><ele>635.0</ele><time>2026-04-24T10:18:19.023Z</time></trkpt><trkpt lat="43.1134185" lon="12.8424912"><ele>635.5</ele><time>2026-04-24T10:18:19.997Z</time></trkpt><trkpt lat="43.1134156" lon="12.8423625"><ele>636.0</ele><time>2026-04-24T10:18:22.025Z</time></trkpt><trkpt lat="43.1133214" lon="12.842326"><ele>636.5</ele><time>2026-04-24T10:18:24.032Z</time></trkpt><trkpt lat="43.1132615" lon="12.8423528"><ele>637.0</ele><time>2026-04-24T10:18:25.019Z</time></trkpt><trkpt lat="43.113201" lon="12.8423801"><ele>637.0</ele><time>2026-04-24T10:18:25.996Z</time></trkpt><trkpt lat="43.1131164" lon="12.8424119"><ele>637.0</ele><time>2026-04-24T10:18:27.019Z</time></trkpt><trkpt lat="43.1130201" lon="12.8424481"><ele>637.0</ele><time>2026-04-24T10:18:28.019Z</time></trkpt><trkpt lat="43.1129263" lon="12.8424822"><ele>637.0</ele><time>2026-04-24T10:18:29.002Z</time></trkpt><trkpt lat="43.1128269" lon="12.8425131"><ele>637.0</ele><time>2026-04-24T10:18:30.025Z</time></trkpt><trkpt lat="43.1127313" lon="12.8425273"><ele>637.0</ele><time>2026-04-24T10:18:31.032Z</time></trkpt><trkpt lat="43.1126121" lon="12.8425366"><ele>637.0</ele><time>2026-04-24T10:18:32.034Z</time></trkpt><trkpt lat="43.1124979" lon="12.8425333"><ele>637.0</ele><time>2026-04-24T10:18:33.027Z</time></trkpt><trkpt lat="43.112391" lon="12.8425358"><ele>637.0</ele><time>2026-04-24T10:18:34.03Z</time></trkpt><trkpt lat="43.1122804" lon="12.8425367"><ele>634.8000000000001</ele><time>2026-04-24T10:18:35.028Z</time></trkpt><trkpt lat="43.1121751" lon="12.8425456"><ele>632.6</ele><time>2026-04-24T10:18:36.023Z</time></trkpt><trkpt lat="43.1120826" lon="12.8425643"><ele>630.4000000000001</ele><time>2026-04-24T10:18:37.033Z</time></trkpt><trkpt lat="43.111999" lon="12.8425847"><ele>628.2</ele><time>2026-04-24T10:18:38.03Z</time></trkpt><trkpt lat="43.1119183" lon="12.8426049"><ele>626.0</ele><time>2026-04-24T10:18:39.013Z</time></trkpt><trkpt lat="43.1118319" lon="12.8426363"><ele>625.0</ele><time>2026-04-24T10:18:40.025Z</time></trkpt><trkpt lat="43.1117466" lon="12.8426723"><ele>624.0</ele><time>2026-04-24T10:18:41.036Z</time></trkpt><trkpt lat="43.1116628" lon="12.8427091"><ele>623.0</ele><time>2026-04-24T10:18:42.027Z</time></trkpt><trkpt lat="43.1115725" lon="12.8427305"><ele>622.0</ele><time>2026-04-24T10:18:43.015Z</time></trkpt><trkpt lat="43.1114769" lon="12.8427343"><ele>621.0</ele><time>2026-04-24T10:18:44.032Z</time></trkpt><trkpt lat="43.1113834" lon="12.8427315"><ele>619.5</ele><time>2026-04-24T10:18:45.001Z</time></trkpt><trkpt lat="43.1112944" lon="12.842708"><ele>618.0</ele><time>2026-04-24T10:18:46.027Z</time></trkpt><trkpt lat="43.1112145" lon="12.842674"><ele>616.5</ele><time>2026-04-24T10:18:47.034Z</time></trkpt><trkpt lat="43.1111517" lon="12.8426358"><ele>615.0</ele><time>2026-04-24T10:18:48.038Z</time></trkpt><trkpt lat="43.1110805" lon="12.8425242"><ele>613.5</ele><time>2026-04-24T10:18:50.004Z</time></trkpt><trkpt lat="43.111061" lon="12.8424241"><ele>612.0</ele><time>2026-04-24T10:18:52.017Z</time></trkpt><trkpt lat="43.1110105" lon="12.8423469"><ele>612.0</ele><time>2026-04-24T10:18:56.018Z</time></trkpt><trkpt lat="43.1109795" lon="12.8424298"><ele>612.0</ele><time>2026-04-24T10:19:00.007Z</time></trkpt><trkpt lat="43.1109653" lon="12.8425818"><ele>612.0</ele><time>2026-04-24T10:19:02.032Z</time></trkpt><trkpt lat="43.1109548" lon="12.8426787"><ele>612.0</ele><time>2026-04-24T10:19:03.034Z</time></trkpt><trkpt lat="43.110952" lon="12.8427964"><ele>612.0</ele><time>2026-04-24T10:19:04.028Z</time></trkpt><trkpt lat="43.1109545" lon="12.8429224"><ele>612.0</ele><time>2026-04-24T10:19:05.011Z</time></trkpt><trkpt lat="43.110965" lon="12.8430607"><ele>611.75</ele><time>2026-04-24T10:19:06.031Z</time></trkpt><trkpt lat="43.1109723" lon="12.8432081"><ele>611.5</ele><time>2026-04-24T10:19:07.038Z</time></trkpt><trkpt lat="43.1109756" lon="12.8433627"><ele>611.25</ele><time>2026-04-24T10:19:07.99Z</time></trkpt><trkpt lat="43.1109829" lon="12.8435274"><ele>611.0</ele><time>2026-04-24T10:19:09.03Z</time></trkpt><trkpt lat="43.1109948" lon="12.8437104"><ele>611.0</ele><time>2026-04-24T10:19:10.004Z</time></trkpt><trkpt lat="43.1110088" lon="12.8438852"><ele>611.0</ele><time>2026-04-24T10:19:11.004Z</time></trkpt><trkpt lat="43.1110287" lon="12.8440449"><ele>611.0</ele><time>2026-04-24T10:19:12.029Z</time></trkpt><trkpt lat="43.1110562" lon="12.8442064"><ele>611.0</ele><time>2026-04-24T10:19:13.042Z</time></trkpt><trkpt lat="43.1110929" lon="12.8443708"><ele>611.25</ele><time>2026-04-24T10:19:14.03Z</time></trkpt><trkpt lat="43.1111391" lon="12.8445472"><ele>611.5</ele><time>2026-04-24T10:19:15.032Z</time></trkpt><trkpt lat="43.1111816" lon="12.844736"><ele>611.75</ele><time>2026-04-24T10:19:16.029Z</time></trkpt><trkpt lat="43.1112177" lon="12.844937"><ele>612.0</ele><time>2026-04-24T10:19:17.034Z</time></trkpt><trkpt lat="43.1112491" lon="12.8451432"><ele>613.3333333333334</ele><time>2026-04-24T10:19:18.028Z</time></trkpt><trkpt lat="43.1112664" lon="12.8453495"><ele>614.6666666666667</ele><time>2026-04-24T10:19:19.032Z</time></trkpt><trkpt lat="43.1112733" lon="12.8455571"><ele>616.0</ele><time>2026-04-24T10:19:20.03Z</time></trkpt><trkpt lat="43.1112682" lon="12.845761"><ele>617.3333333333334</ele><time>2026-04-24T10:19:21.031Z</time></trkpt><trkpt lat="43.1112647" lon="12.8459722"><ele>618.6666666666666</ele><time>2026-04-24T10:19:22.02Z</time></trkpt><trkpt lat="43.111258" lon="12.8461826"><ele>620.0</ele><time>2026-04-24T10:19:23.003Z</time></trkpt><trkpt lat="43.1112475" lon="12.846395"><ele>620.0</ele><time>2026-04-24T10:19:24.026Z</time></trkpt><trkpt lat="43.1112381" lon="12.8466123"><ele>620.0</ele><time>2026-04-24T10:19:25.026Z</time></trkpt><trkpt lat="43.1112279" lon="12.846836"><ele>620.0</ele><time>2026-04-24T10:19:26.028Z</time></trkpt><trkpt lat="43.1112147" lon="12.8470655"><ele>619.3333333333333</ele><time>2026-04-24T10:19:27.035Z</time></trkpt><trkpt lat="43.1111987" lon="12.847308"><ele>618.6666666666666</ele><time>2026-04-24T10:19:28.033Z</time></trkpt><trkpt lat="43.1111828" lon="12.8475398"><ele>618.0</ele><time>2026-04-24T10:19:29.021Z</time></trkpt><trkpt lat="43.11117" lon="12.8477622"><ele>618.0</ele><time>2026-04-24T10:19:30.037Z</time></trkpt><trkpt lat="43.1111552" lon="12.8479821"><ele>618.0</ele><time>2026-04-24T10:19:31.03Z</time></trkpt><trkpt lat="43.1111419" lon="12.8482106"><ele>618.0</ele><time>2026-04-24T10:19:32.036Z</time></trkpt><trkpt lat="43.1111305" lon="12.8484393"><ele>618.3333333333334</ele><time>2026-04-24T10:19:33.029Z</time></trkpt><trkpt lat="43.111129" lon="12.8486754"><ele>618.6666666666667</ele><time>2026-04-24T10:19:34.032Z</time></trkpt><trkpt lat="43.1111436" lon="12.8488935"><ele>619.0</ele><time>2026-04-24T10:19:35.048Z</time></trkpt><trkpt lat="43.1111663" lon="12.8490943"><ele>619.0</ele><time>2026-04-24T10:19:36.029Z</time></trkpt><trkpt lat="43.1111936" lon="12.8492751"><ele>619.0</ele><time>2026-04-24T10:19:37.031Z</time></trkpt><trkpt lat="43.1112167" lon="12.8494471"><ele>619.0</ele><time>2026-04-24T10:19:38.008Z</time></trkpt><trkpt lat="43.1112464" lon="12.8496237"><ele>619.0</ele><time>2026-04-24T10:19:39.032Z</time></trkpt><trkpt lat="43.1112775" lon="12.8497966"><ele>619.0</ele><time>2026-04-24T10:19:40.033Z</time></trkpt><trkpt lat="43.1113083" lon="12.8499742"><ele>619.0</ele><time>2026-04-24T10:19:41.032Z</time></trkpt><trkpt lat="43.1113345" lon="12.8501419"><ele>619.0</ele><time>2026-04-24T10:19:42.038Z</time></trkpt><trkpt lat="43.1113579" lon="12.8502976"><ele>619.0</ele><time>2026-04-24T10:19:43.035Z</time></trkpt><trkpt lat="43.1113736" lon="12.8504517"><ele>619.0</ele><time>2026-04-24T10:19:44.04Z</time></trkpt><trkpt lat="43.1113776" lon="12.8506078"><ele>619.0</ele><time>2026-04-24T10:19:45.003Z</time></trkpt><trkpt lat="43.1113641" lon="12.8507651"><ele>619.0</ele><time>2026-04-24T10:19:46.029Z</time></trkpt><trkpt lat="43.1113355" lon="12.8509227"><ele>619.0</ele><time>2026-04-24T10:19:47.034Z</time></trkpt><trkpt lat="43.1112993" lon="12.8510692"><ele>619.25</ele><time>2026-04-24T10:19:48.03Z</time></trkpt><trkpt lat="43.1112597" lon="12.8512137"><ele>619.5</ele><time>2026-04-24T10:19:49.038Z</time></trkpt><trkpt lat="43.1112121" lon="12.8513561"><ele>619.75</ele><time>2026-04-24T10:19:50.022Z</time></trkpt><trkpt lat="43.1111649" lon="12.8515102"><ele>620.0</ele><time>2026-04-24T10:19:51.028Z</time></trkpt><trkpt lat="43.1111208" lon="12.8516628"><ele>620.6</ele><time>2026-04-24T10:19:52.025Z</time></trkpt><trkpt lat="43.1110758" lon="12.8518127"><ele>621.2</ele><time>2026-04-24T10:19:53.03Z</time></trkpt><trkpt lat="43.1110321" lon="12.8519515"><ele>621.8</ele><time>2026-04-24T10:19:54.039Z</time></trkpt><trkpt lat="43.1109934" lon="12.8520812"><ele>622.4</ele><time>2026-04-24T10:19:55.032Z</time></trkpt><trkpt lat="43.1109592" lon="12.8522047"><ele>623.0</ele><time>2026-04-24T10:19:56.031Z</time></trkpt><trkpt lat="43.110933" lon="12.8523203"><ele>623.0</ele><time>2026-04-24T10:19:57.024Z</time></trkpt><trkpt lat="43.1109141" lon="12.8524289"><ele>623.0</ele><time>2026-04-24T10:19:58.021Z</time></trkpt><trkpt lat="43.1109018" lon="12.8525189"><ele>623.0</ele><time>2026-04-24T10:19:59.045Z</time></trkpt><trkpt lat="43.110891" lon="12.8526065"><ele>623.0</ele><time>2026-04-24T10:20:01.042Z</time></trkpt><trkpt lat="43.1108334" lon="12.8526766"><ele>623.0</ele><time>2026-04-24T10:21:41.04Z</time></trkpt><trkpt lat="43.1107995" lon="12.8527673"><ele>623.0</ele><time>2026-04-24T10:22:04.996Z</time></trkpt><trkpt lat="43.1105056" lon="12.8527873"><ele>622.8333333333333</ele><time>2026-04-24T10:24:39.009Z</time></trkpt><trkpt lat="43.1105799" lon="12.8527817"><ele>622.6666666666666</ele><time>2026-04-24T10:25:00.997Z</time></trkpt><trkpt lat="43.1105072" lon="12.8528167"><ele>622.5</ele><time>2026-04-24T10:25:43.043Z</time></trkpt><trkpt lat="43.1104144" lon="12.8528365"><ele>622.3333333333334</ele><time>2026-04-24T10:25:45.993Z</time></trkpt><trkpt lat="43.1103419" lon="12.8528483"><ele>622.1666666666667</ele><time>2026-04-24T10:25:48.017Z</time></trkpt><trkpt lat="43.1102608" lon="12.8528638"><ele>622.0</ele><time>2026-04-24T10:25:51.007Z</time></trkpt><trkpt lat="43.1103356" lon="12.8528452"><ele>622.0</ele><time>2026-04-24T10:26:02.03Z</time></trkpt><trkpt lat="43.1103987" lon="12.8528213"><ele>622.0</ele><time>2026-04-24T10:27:13.021Z</time></trkpt><trkpt lat="43.1104649" lon="12.8528553"><ele>622.0</ele><time>2026-04-24T10:27:34.026Z</time></trkpt><trkpt lat="43.1105047" lon="12.8529234"><ele>622.0</ele><time>2026-04-24T10:27:38.031Z</time></trkpt><trkpt lat="43.1105943" lon="12.8529428"><ele>622.0</ele><time>2026-04-24T10:28:14.037Z</time></trkpt><trkpt lat="43.1106187" lon="12.852854"><ele>622.0</ele><time>2026-04-24T10:28:30.022Z</time></trkpt><trkpt lat="43.1107694" lon="12.8527382"><ele>622.1666666666667</ele><time>2026-04-24T10:28:35.042Z</time></trkpt><trkpt lat="43.1108308" lon="12.8526825"><ele>622.3333333333334</ele><time>2026-04-24T10:28:37.048Z</time></trkpt><trkpt lat="43.1108901" lon="12.8526459"><ele>622.5</ele><time>2026-04-24T10:29:49.057Z</time></trkpt><trkpt lat="43.110901" lon="12.8527861"><ele>622.6666666666666</ele><time>2026-04-24T10:33:00.043Z</time></trkpt><trkpt lat="43.110911" lon="12.8529128"><ele>622.8333333333333</ele><time>2026-04-24T10:33:01.003Z</time></trkpt><trkpt lat="43.1109338" lon="12.8530298"><ele>623.0</ele><time>2026-04-24T10:33:02.023Z</time></trkpt><trkpt lat="43.1109595" lon="12.8531355"><ele>623.0</ele><time>2026-04-24T10:33:03.037Z</time></trkpt><trkpt lat="43.1109745" lon="12.8532422"><ele>623.0</ele><time>2026-04-24T10:33:04.035Z</time></trkpt><trkpt lat="43.1109757" lon="12.8533513"><ele>623.0</ele><time>2026-04-24T10:33:05.028Z</time></trkpt><trkpt lat="43.110955" lon="12.8534598"><ele>623.0</ele><time>2026-04-24T10:33:06.029Z</time></trkpt><trkpt lat="43.1109205" lon="12.8535623"><ele>623.0</ele><time>2026-04-24T10:33:07.038Z</time></trkpt><trkpt lat="43.110883" lon="12.8536382"><ele>623.0</ele><time>2026-04-24T10:33:08.014Z</time></trkpt><trkpt lat="43.1108241" lon="12.8537473"><ele>622.8333333333333</ele><time>2026-04-24T10:33:10.002Z</time></trkpt><trkpt lat="43.1107626" lon="12.8538114"><ele>622.6666666666666</ele><time>2026-04-24T10:33:12.039Z</time></trkpt><trkpt lat="43.1106909" lon="12.8539058"><ele>622.5</ele><time>2026-04-24T10:33:14.036Z</time></trkpt><trkpt lat="43.1106112" lon="12.8539788"><ele>622.3333333333334</ele><time>2026-04-24T10:33:16.033Z</time></trkpt><trkpt lat="43.1105516" lon="12.8540093"><ele>622.1666666666667</ele><time>2026-04-24T10:33:17.012Z</time></trkpt><trkpt lat="43.1104855" lon="12.8540237"><ele>622.0</ele><time>2026-04-24T10:33:18.037Z</time></trkpt><trkpt lat="43.1104217" lon="12.8540349"><ele>621.8333333333334</ele><time>2026-04-24T10:33:19.046Z</time></trkpt><trkpt lat="43.1103545" lon="12.8540565"><ele>621.6666666666667</ele><time>2026-04-24T10:33:20.03Z</time></trkpt><trkpt lat="43.1102943" lon="12.8541061"><ele>621.5</ele><time>2026-04-24T10:33:21.024Z</time></trkpt><trkpt lat="43.1102389" lon="12.8541788"><ele>621.3333333333334</ele><time>2026-04-24T10:33:22.024Z</time></trkpt><trkpt lat="43.1101818" lon="12.8542694"><ele>621.1666666666666</ele><time>2026-04-24T10:33:23.031Z</time></trkpt><trkpt lat="43.1101271" lon="12.8543786"><ele>621.0</ele><time>2026-04-24T10:33:24.028Z</time></trkpt><trkpt lat="43.1100683" lon="12.8545025"><ele>621.75</ele><time>2026-04-24T10:33:25.039Z</time></trkpt><trkpt lat="43.1100083" lon="12.8546292"><ele>622.5</ele><time>2026-04-24T10:33:26.039Z</time></trkpt><trkpt lat="43.1099392" lon="12.8547666"><ele>623.25</ele><time>2026-04-24T10:33:27.028Z</time></trkpt><trkpt lat="43.1098609" lon="12.8549013"><ele>624.0</ele><time>2026-04-24T10:33:28.025Z</time></trkpt><trkpt lat="43.1097697" lon="12.8550393"><ele>624.25</ele><time>2026-04-24T10:33:29.029Z</time></trkpt><trkpt lat="43.1096788" lon="12.8551792"><ele>624.5</ele><time>2026-04-24T10:33:30.03Z</time></trkpt><trkpt lat="43.1095938" lon="12.8553215"><ele>624.75</ele><time>2026-04-24T10:33:31.03Z</time></trkpt><trkpt lat="43.109518" lon="12.8554582"><ele>625.0</ele><time>2026-04-24T10:33:32.023Z</time></trkpt><trkpt lat="43.1094459" lon="12.8555932"><ele>625.0</ele><time>2026-04-24T10:33:33.026Z</time></trkpt><trkpt lat="43.1093735" lon="12.8557139"><ele>625.0</ele><time>2026-04-24T10:33:34.002Z</time></trkpt><trkpt lat="43.1093022" lon="12.8558198"><ele>625.0</ele><time>2026-04-24T10:33:35.032Z</time></trkpt><trkpt lat="43.1092249" lon="12.855894"><ele>625.0</ele><time>2026-04-24T10:33:36.03Z</time></trkpt><trkpt lat="43.1091319" lon="12.8559226"><ele>625.0</ele><time>2026-04-24T10:33:37.028Z</time></trkpt><trkpt lat="43.1090374" lon="12.8559338"><ele>625.0</ele><time>2026-04-24T10:33:38.017Z</time></trkpt><trkpt lat="43.1089319" lon="12.8559403"><ele>625.0</ele><time>2026-04-24T10:33:39.026Z</time></trkpt><trkpt lat="43.1088307" lon="12.8559518"><ele>625.0</ele><time>2026-04-24T10:33:40.02Z</time></trkpt><trkpt lat="43.108723" lon="12.8559613"><ele>625.0</ele><time>2026-04-24T10:33:41.026Z</time></trkpt><trkpt lat="43.1086167" lon="12.8559659"><ele>625.0</ele><time>2026-04-24T10:33:42.021Z</time></trkpt><trkpt lat="43.1085077" lon="12.855969"><ele>629.0</ele><time>2026-04-24T10:33:43.024Z</time></trkpt><trkpt lat="43.1084003" lon="12.8559703"><ele>633.0</ele><time>2026-04-24T10:33:44.018Z</time></trkpt><trkpt lat="43.1082865" lon="12.8559765"><ele>637.0</ele><time>2026-04-24T10:33:45.019Z</time></trkpt><trkpt lat="43.1081705" lon="12.8559803"><ele>641.0</ele><time>2026-04-24T10:33:45.992Z</time></trkpt><trkpt lat="43.1080444" lon="12.8559865"><ele>642.25</ele><time>2026-04-24T10:33:46.997Z</time></trkpt><trkpt lat="43.1079114" lon="12.8559854"><ele>643.5</ele><time>2026-04-24T10:33:48.022Z</time></trkpt><trkpt lat="43.1077764" lon="12.855985"><ele>644.75</ele><time>2026-04-24T10:33:49.033Z</time></trkpt><trkpt lat="43.107635" lon="12.8559846"><ele>646.0</ele><time>2026-04-24T10:33:50.011Z</time></trkpt><trkpt lat="43.1074882" lon="12.855994"><ele>649.3333333333334</ele><time>2026-04-24T10:33:51.025Z</time></trkpt><trkpt lat="43.107336" lon="12.8560138"><ele>652.6666666666666</ele><time>2026-04-24T10:33:52.02Z</time></trkpt><trkpt lat="43.1071767" lon="12.8560345"><ele>656.0</ele><time>2026-04-24T10:33:53.024Z</time></trkpt><trkpt lat="43.1070145" lon="12.8560348"><ele>656.0</ele><time>2026-04-24T10:33:54.034Z</time></trkpt><trkpt lat="43.1068531" lon="12.8560087"><ele>656.0</ele><time>2026-04-24T10:33:55.023Z</time></trkpt><trkpt lat="43.1066981" lon="12.8559609"><ele>656.0</ele><time>2026-04-24T10:33:56.02Z</time></trkpt><trkpt lat="43.1065425" lon="12.8558966"><ele>656.25</ele><time>2026-04-24T10:33:57.036Z</time></trkpt><trkpt lat="43.106399" lon="12.8558403"><ele>656.5</ele><time>2026-04-24T10:33:58.026Z</time></trkpt><trkpt lat="43.1062617" lon="12.8557854"><ele>656.75</ele><time>2026-04-24T10:33:59.022Z</time></trkpt><trkpt lat="43.1061244" lon="12.8557245"><ele>657.0</ele><time>2026-04-24T10:34:00.014Z</time></trkpt><trkpt lat="43.1059828" lon="12.8556477"><ele>657.0</ele><time>2026-04-24T10:34:01.026Z</time></trkpt><trkpt lat="43.1058434" lon="12.8555473"><ele>657.0</ele><time>2026-04-24T10:34:02.021Z</time></trkpt><trkpt lat="43.1057084" lon="12.8554345"><ele>657.0</ele><time>2026-04-24T10:34:03.031Z</time></trkpt><trkpt lat="43.1055871" lon="12.8553246"><ele>656.25</ele><time>2026-04-24T10:34:04.002Z</time></trkpt><trkpt lat="43.1054693" lon="12.8552255"><ele>655.5</ele><time>2026-04-24T10:34:05.041Z</time></trkpt><trkpt lat="43.1053407" lon="12.8551397"><ele>654.75</ele><time>2026-04-24T10:34:06.025Z</time></trkpt><trkpt lat="43.1052059" lon="12.8550711"><ele>654.0</ele><time>2026-04-24T10:34:07.001Z</time></trkpt><trkpt lat="43.1050639" lon="12.8550169"><ele>654.0</ele><time>2026-04-24T10:34:08.031Z</time></trkpt><trkpt lat="43.1049129" lon="12.8549625"><ele>654.0</ele><time>2026-04-24T10:34:09.034Z</time></trkpt><trkpt lat="43.1047667" lon="12.8549002"><ele>654.0</ele><time>2026-04-24T10:34:10.008Z</time></trkpt><trkpt lat="43.1046256" lon="12.8548381"><ele>655.0</ele><time>2026-04-24T10:34:11.036Z</time></trkpt><trkpt lat="43.1044883" lon="12.8547928"><ele>656.0</ele><time>2026-04-24T10:34:12.028Z</time></trkpt><trkpt lat="43.104344" lon="12.8547677"><ele>657.0</ele><time>2026-04-24T10:34:13.031Z</time></trkpt><trkpt lat="43.1041902" lon="12.8547554"><ele>658.0</ele><time>2026-04-24T10:34:14.026Z</time></trkpt><trkpt lat="43.1040351" lon="12.8547552"><ele>659.3333333333334</ele><time>2026-04-24T10:34:15.03Z</time></trkpt><trkpt lat="43.1038704" lon="12.8547447"><ele>660.6666666666666</ele><time>2026-04-24T10:34:16.029Z</time></trkpt><trkpt lat="43.1037055" lon="12.8547315"><ele>662.0</ele><time>2026-04-24T10:34:17.03Z</time></trkpt><trkpt lat="43.103548" lon="12.8547093"><ele>662.0</ele><time>2026-04-24T10:34:18.026Z</time></trkpt><trkpt lat="43.1034054" lon="12.8546745"><ele>662.0</ele><time>2026-04-24T10:34:19.004Z</time></trkpt><trkpt lat="43.1032726" lon="12.8546355"><ele>662.0</ele><time>2026-04-24T10:34:20.029Z</time></trkpt><trkpt lat="43.1031347" lon="12.8546226"><ele>662.0</ele><time>2026-04-24T10:34:21.03Z</time></trkpt><trkpt lat="43.1029747" lon="12.8546277"><ele>661.3333333333333</ele><time>2026-04-24T10:34:22.025Z</time></trkpt><trkpt lat="43.102806" lon="12.8546483"><ele>660.6666666666666</ele><time>2026-04-24T10:34:23.021Z</time></trkpt><trkpt lat="43.1026322" lon="12.8546787"><ele>660.0</ele><time>2026-04-24T10:34:24.035Z</time></trkpt><trkpt lat="43.102452" lon="12.8547236"><ele>660.3333333333334</ele><time>2026-04-24T10:34:25.038Z</time></trkpt><trkpt lat="43.1022693" lon="12.8547736"><ele>660.6666666666667</ele><time>2026-04-24T10:34:26.024Z</time></trkpt><trkpt lat="43.1020855" lon="12.8548167"><ele>661.0</ele><time>2026-04-24T10:34:27.027Z</time></trkpt><trkpt lat="43.1019202" lon="12.8548512"><ele>661.0</ele><time>2026-04-24T10:34:28.029Z</time></trkpt><trkpt lat="43.1017742" lon="12.8548813"><ele>661.0</ele><time>2026-04-24T10:34:29.037Z</time></trkpt><trkpt lat="43.1016347" lon="12.8549304"><ele>661.0</ele><time>2026-04-24T10:34:30.03Z</time></trkpt><trkpt lat="43.1014995" lon="12.8549981"><ele>661.0</ele><time>2026-04-24T10:34:31.03Z</time></trkpt><trkpt lat="43.1013753" lon="12.8550983"><ele>662.25</ele><time>2026-04-24T10:34:32.022Z</time></trkpt><trkpt lat="43.1012657" lon="12.8552043"><ele>663.5</ele><time>2026-04-24T10:34:33.04Z</time></trkpt><trkpt lat="43.101164" lon="12.8553161"><ele>664.75</ele><time>2026-04-24T10:34:34.024Z</time></trkpt><trkpt lat="43.1010585" lon="12.8554193"><ele>666.0</ele><time>2026-04-24T10:34:35.04Z</time></trkpt><trkpt lat="43.1009425" lon="12.8554841"><ele>666.0</ele><time>2026-04-24T10:34:36.024Z</time></trkpt><trkpt lat="43.1008101" lon="12.8555122"><ele>666.0</ele><time>2026-04-24T10:34:36.998Z</time></trkpt><trkpt lat="43.1006631" lon="12.8555442"><ele>666.0</ele><time>2026-04-24T10:34:38.03Z</time></trkpt><trkpt lat="43.1005221" lon="12.85561"><ele>666.0</ele><time>2026-04-24T10:34:39.034Z</time></trkpt><trkpt lat="43.1003777" lon="12.8557097"><ele>665.6666666666666</ele><time>2026-04-24T10:34:40.024Z</time></trkpt><trkpt lat="43.100231" lon="12.8558104"><ele>665.3333333333333</ele><time>2026-04-24T10:34:41.031Z</time></trkpt><trkpt lat="43.100076" lon="12.8558901"><ele>665.0</ele><time>2026-04-24T10:34:42.023Z</time></trkpt><trkpt lat="43.0999134" lon="12.8559628"><ele>667.3333333333333</ele><time>2026-04-24T10:34:43.032Z</time></trkpt><trkpt lat="43.0997586" lon="12.8560299"><ele>669.6666666666666</ele><time>2026-04-24T10:34:44.035Z</time></trkpt><trkpt lat="43.0996163" lon="12.8560819"><ele>672.0</ele><time>2026-04-24T10:34:45.033Z</time></trkpt><trkpt lat="43.0994757" lon="12.8561167"><ele>672.0</ele><time>2026-04-24T10:34:45.991Z</time></trkpt><trkpt lat="43.0993249" lon="12.8561269"><ele>672.0</ele><time>2026-04-24T10:34:47.001Z</time></trkpt><trkpt lat="43.0991737" lon="12.8561311"><ele>672.0</ele><time>2026-04-24T10:34:48.015Z</time></trkpt><trkpt lat="43.0990207" lon="12.8561428"><ele>673.0</ele><time>2026-04-24T10:34:49.044Z</time></trkpt><trkpt lat="43.098875" lon="12.856149"><ele>674.0</ele><time>2026-04-24T10:34:50.033Z</time></trkpt><trkpt lat="43.0987352" lon="12.8561496"><ele>675.0</ele><time>2026-04-24T10:34:51.03Z</time></trkpt><trkpt lat="43.0985934" lon="12.8561364"><ele>676.0</ele><time>2026-04-24T10:34:52.023Z</time></trkpt><trkpt lat="43.098447" lon="12.8561161"><ele>676.0</ele><time>2026-04-24T10:34:53.026Z</time></trkpt><trkpt lat="43.098297" lon="12.8560872"><ele>676.0</ele><time>2026-04-24T10:34:54.008Z</time></trkpt><trkpt lat="43.0981359" lon="12.8560456"><ele>676.0</ele><time>2026-04-24T10:34:55.004Z</time></trkpt><trkpt lat="43.0979713" lon="12.8559962"><ele>675.3333333333334</ele><time>2026-04-24T10:34:55.997Z</time></trkpt><trkpt lat="43.0978047" lon="12.8559543"><ele>674.6666666666666</ele><time>2026-04-24T10:34:56.999Z</time></trkpt><trkpt lat="43.0976365" lon="12.8559262"><ele>674.0</ele><time>2026-04-24T10:34:58.033Z</time></trkpt><trkpt lat="43.0974633" lon="12.8559115"><ele>676.0</ele><time>2026-04-24T10:34:59.032Z</time></trkpt><trkpt lat="43.0972857" lon="12.8558851"><ele>678.0</ele><time>2026-04-24T10:35:00.022Z</time></trkpt><trkpt lat="43.0971027" lon="12.8558455"><ele>680.0</ele><time>2026-04-24T10:35:01.027Z</time></trkpt><trkpt lat="43.0969342" lon="12.8558015"><ele>680.0</ele><time>2026-04-24T10:35:02.028Z</time></trkpt><trkpt lat="43.0967839" lon="12.855765"><ele>680.0</ele><time>2026-04-24T10:35:03.029Z</time></trkpt><trkpt lat="43.0966396" lon="12.8557178"><ele>680.0</ele><time>2026-04-24T10:35:04.018Z</time></trkpt><trkpt lat="43.0964933" lon="12.8556587"><ele>681.6666666666666</ele><time>2026-04-24T10:35:05.02Z</time></trkpt><trkpt lat="43.0963495" lon="12.8555859"><ele>683.3333333333334</ele><time>2026-04-24T10:35:06.025Z</time></trkpt><trkpt lat="43.0962032" lon="12.8555018"><ele>685.0</ele><time>2026-04-24T10:35:07.037Z</time></trkpt><trkpt lat="43.096066" lon="12.8554146"><ele>685.0</ele><time>2026-04-24T10:35:08.037Z</time></trkpt><trkpt lat="43.0959348" lon="12.8553324"><ele>685.0</ele><time>2026-04-24T10:35:09.024Z</time></trkpt><trkpt lat="43.09579" lon="12.8552638"><ele>685.0</ele><time>2026-04-24T10:35:10.019Z</time></trkpt><trkpt lat="43.0956407" lon="12.8552243"><ele>685.3333333333334</ele><time>2026-04-24T10:35:11.033Z</time></trkpt><trkpt lat="43.0954899" lon="12.8552199"><ele>685.6666666666666</ele><time>2026-04-24T10:35:12.026Z</time></trkpt><trkpt lat="43.0953374" lon="12.8552605"><ele>686.0</ele><time>2026-04-24T10:35:13.033Z</time></trkpt><trkpt lat="43.0951876" lon="12.8553267"><ele>686.0</ele><time>2026-04-24T10:35:14.029Z</time></trkpt><trkpt lat="43.0950448" lon="12.8553883"><ele>686.0</ele><time>2026-04-24T10:35:15.029Z</time></trkpt><trkpt lat="43.0948987" lon="12.8554298"><ele>686.0</ele><time>2026-04-24T10:35:16.018Z</time></trkpt><trkpt lat="43.0947591" lon="12.8554694"><ele>686.0</ele><time>2026-04-24T10:35:17.027Z</time></trkpt><trkpt lat="43.0946262" lon="12.8555314"><ele>687.0</ele><time>2026-04-24T10:35:18.026Z</time></trkpt><trkpt lat="43.0945055" lon="12.8556214"><ele>688.0</ele><time>2026-04-24T10:35:19.021Z</time></trkpt><trkpt lat="43.0943995" lon="12.855733"><ele>689.0</ele><time>2026-04-24T10:35:20.019Z</time></trkpt><trkpt lat="43.0942948" lon="12.8558491"><ele>690.0</ele><time>2026-04-24T10:35:21.029Z</time></trkpt><trkpt lat="43.0941874" lon="12.855953"><ele>692.75</ele><time>2026-04-24T10:35:22.023Z</time></trkpt><trkpt lat="43.0940764" lon="12.8560457"><ele>695.5</ele><time>2026-04-24T10:35:23.021Z</time></trkpt><trkpt lat="43.0939536" lon="12.8561187"><ele>698.25</ele><time>2026-04-24T10:35:24.017Z</time></trkpt><trkpt lat="43.0938293" lon="12.856188"><ele>701.0</ele><time>2026-04-24T10:35:25.005Z</time></trkpt><trkpt lat="43.0936971" lon="12.8562541"><ele>701.0</ele><time>2026-04-24T10:35:26.023Z</time></trkpt><trkpt lat="43.0935636" lon="12.8563229"><ele>701.0</ele><time>2026-04-24T10:35:27.029Z</time></trkpt><trkpt lat="43.0934375" lon="12.8563863"><ele>701.0</ele><time>2026-04-24T10:35:28.016Z</time></trkpt><trkpt lat="43.0933089" lon="12.8564451"><ele>701.0</ele><time>2026-04-24T10:35:29.008Z</time></trkpt><trkpt lat="43.0931826" lon="12.8565129"><ele>701.75</ele><time>2026-04-24T10:35:30.021Z</time></trkpt><trkpt lat="43.0930607" lon="12.8566005"><ele>702.5</ele><time>2026-04-24T10:35:31.002Z</time></trkpt><trkpt lat="43.0929499" lon="12.85671"><ele>703.25</ele><time>2026-04-24T10:35:32.02Z</time></trkpt><trkpt lat="43.0928296" lon="12.8568281"><ele>704.0</ele><time>2026-04-24T10:35:33.028Z</time></trkpt><trkpt lat="43.0927026" lon="12.8569284"><ele>704.0</ele><time>2026-04-24T10:35:34.026Z</time></trkpt><trkpt lat="43.092568" lon="12.8570092"><ele>704.0</ele><time>2026-04-24T10:35:34.996Z</time></trkpt><trkpt lat="43.0924292" lon="12.8570804"><ele>704.0</ele><time>2026-04-24T10:35:36.031Z</time></trkpt><trkpt lat="43.0922837" lon="12.8571498"><ele>704.0</ele><time>2026-04-24T10:35:37.021Z</time></trkpt><trkpt lat="43.0921478" lon="12.8572041"><ele>705.5</ele><time>2026-04-24T10:35:38.044Z</time></trkpt><trkpt lat="43.0920202" lon="12.8572394"><ele>707.0</ele><time>2026-04-24T10:35:39.027Z</time></trkpt><trkpt lat="43.0918997" lon="12.8572521"><ele>708.5</ele><time>2026-04-24T10:35:40.016Z</time></trkpt><trkpt lat="43.0917865" lon="12.8572125"><ele>710.0</ele><time>2026-04-24T10:35:41.032Z</time></trkpt><trkpt lat="43.0917042" lon="12.8571266"><ele>710.0</ele><time>2026-04-24T10:35:42.046Z</time></trkpt><trkpt lat="43.091642" lon="12.8570118"><ele>710.0</ele><time>2026-04-24T10:35:43.018Z</time></trkpt><trkpt lat="43.0915852" lon="12.8568895"><ele>710.0</ele><time>2026-04-24T10:35:44.019Z</time></trkpt><trkpt lat="43.0915409" lon="12.8567545"><ele>710.0</ele><time>2026-04-24T10:35:45.019Z</time></trkpt><trkpt lat="43.0914968" lon="12.8566009"><ele>710.0</ele><time>2026-04-24T10:35:46.031Z</time></trkpt><trkpt lat="43.0914481" lon="12.8564544"><ele>709.4</ele><time>2026-04-24T10:35:46.997Z</time></trkpt><trkpt lat="43.0913797" lon="12.8563389"><ele>708.8</ele><time>2026-04-24T10:35:48.035Z</time></trkpt><trkpt lat="43.0912961" lon="12.8562524"><ele>708.2</ele><time>2026-04-24T10:35:49Z</time></trkpt><trkpt lat="43.0911954" lon="12.8562005"><ele>707.6</ele><time>2026-04-24T10:35:50.031Z</time></trkpt><trkpt lat="43.0910684" lon="12.8561772"><ele>707.0</ele><time>2026-04-24T10:35:51.024Z</time></trkpt><trkpt lat="43.090925" lon="12.8561542"><ele>707.0</ele><time>2026-04-24T10:35:52.021Z</time></trkpt><trkpt lat="43.0907641" lon="12.8561341"><ele>707.0</ele><time>2026-04-24T10:35:53.031Z</time></trkpt><trkpt lat="43.0905978" lon="12.8561049"><ele>707.0</ele><time>2026-04-24T10:35:54.031Z</time></trkpt><trkpt lat="43.0904304" lon="12.8560778"><ele>708.0</ele><time>2026-04-24T10:35:55.002Z</time></trkpt><trkpt lat="43.0902589" lon="12.8560534"><ele>709.0</ele><time>2026-04-24T10:35:56.023Z</time></trkpt><trkpt lat="43.0900799" lon="12.8560291"><ele>710.0</ele><time>2026-04-24T10:35:57.035Z</time></trkpt><trkpt lat="43.0899055" lon="12.8559974"><ele>715.0</ele><time>2026-04-24T10:35:58.025Z</time></trkpt><trkpt lat="43.0897428" lon="12.8559524"><ele>720.0</ele><time>2026-04-24T10:35:59.034Z</time></trkpt><trkpt lat="43.0896034" lon="12.8559002"><ele>725.0</ele><time>2026-04-24T10:36:00.03Z</time></trkpt><trkpt lat="43.0894711" lon="12.8558409"><ele>725.0</ele><time>2026-04-24T10:36:01.025Z</time></trkpt><trkpt lat="43.0893577" lon="12.8557742"><ele>725.0</ele><time>2026-04-24T10:36:02.029Z</time></trkpt><trkpt lat="43.0892628" lon="12.8556776"><ele>725.0</ele><time>2026-04-24T10:36:03.027Z</time></trkpt><trkpt lat="43.0891777" lon="12.8555585"><ele>725.0</ele><time>2026-04-24T10:36:04.027Z</time></trkpt><trkpt lat="43.0890992" lon="12.8554358"><ele>725.3333333333333</ele><time>2026-04-24T10:36:05.017Z</time></trkpt><trkpt lat="43.0890294" lon="12.8553272"><ele>725.6666666666666</ele><time>2026-04-24T10:36:06.03Z</time></trkpt><trkpt lat="43.0889608" lon="12.8552523"><ele>726.0</ele><time>2026-04-24T10:36:07.002Z</time></trkpt><trkpt lat="43.0888798" lon="12.8552169"><ele>726.3333333333334</ele><time>2026-04-24T10:36:08.025Z</time></trkpt><trkpt lat="43.0887964" lon="12.855236"><ele>726.6666666666667</ele><time>2026-04-24T10:36:09.025Z</time></trkpt><trkpt lat="43.0887258" lon="12.8553008"><ele>727.0</ele><time>2026-04-24T10:36:09.991Z</time></trkpt><trkpt lat="43.0886724" lon="12.8554024"><ele>727.0</ele><time>2026-04-24T10:36:11.039Z</time></trkpt><trkpt lat="43.0886156" lon="12.8555214"><ele>727.0</ele><time>2026-04-24T10:36:12.022Z</time></trkpt><trkpt lat="43.0885324" lon="12.8555945"><ele>727.0</ele><time>2026-04-24T10:36:13.03Z</time></trkpt><trkpt lat="43.0884214" lon="12.855618"><ele>727.0</ele><time>2026-04-24T10:36:14.028Z</time></trkpt><trkpt lat="43.0882978" lon="12.8556168"><ele>727.0</ele><time>2026-04-24T10:36:15.034Z</time></trkpt><trkpt lat="43.0881648" lon="12.8555977"><ele>728.6666666666667</ele><time>2026-04-24T10:36:15.998Z</time></trkpt><trkpt lat="43.0880158" lon="12.8555788"><ele>730.3333333333334</ele><time>2026-04-24T10:36:17.031Z</time></trkpt><trkpt lat="43.0878534" lon="12.8555654"><ele>732.0</ele><time>2026-04-24T10:36:18.026Z</time></trkpt><trkpt lat="43.087674" lon="12.8555821"><ele>732.0</ele><time>2026-04-24T10:36:19.015Z</time></trkpt><trkpt lat="43.0874808" lon="12.8556205"><ele>732.0</ele><time>2026-04-24T10:36:20.037Z</time></trkpt><trkpt lat="43.0872685" lon="12.8556674"><ele>732.0</ele><time>2026-04-24T10:36:21.024Z</time></trkpt><trkpt lat="43.0870497" lon="12.8557097"><ele>736.3333333333334</ele><time>2026-04-24T10:36:22.022Z</time></trkpt><trkpt lat="43.0868455" lon="12.8557444"><ele>740.6666666666667</ele><time>2026-04-24T10:36:23.029Z</time></trkpt><trkpt lat="43.0866638" lon="12.8557665"><ele>745.0</ele><time>2026-04-24T10:36:24.02Z</time></trkpt><trkpt lat="43.0865117" lon="12.855768"><ele>745.2</ele><time>2026-04-24T10:36:25.024Z</time></trkpt><trkpt lat="43.0863859" lon="12.8557347"><ele>745.4</ele><time>2026-04-24T10:36:26.028Z</time></trkpt><trkpt lat="43.0862881" lon="12.8556766"><ele>745.5999999999999</ele><time>2026-04-24T10:36:27.022Z</time></trkpt><trkpt lat="43.0861993" lon="12.855608"><ele>745.8</ele><time>2026-04-24T10:36:28.026Z</time></trkpt><trkpt lat="43.0861119" lon="12.8555152"><ele>746.0</ele><time>2026-04-24T10:36:29.035Z</time></trkpt><trkpt lat="43.086022" lon="12.8554313"><ele>746.0</ele><time>2026-04-24T10:36:30.025Z</time></trkpt><trkpt lat="43.0859177" lon="12.8553833"><ele>746.0</ele><time>2026-04-24T10:36:31.029Z</time></trkpt><trkpt lat="43.0858074" lon="12.8553702"><ele>746.0</ele><time>2026-04-24T10:36:31.99Z</time></trkpt><trkpt lat="43.0856837" lon="12.8553842"><ele>746.0</ele><time>2026-04-24T10:36:33.027Z</time></trkpt><trkpt lat="43.0855606" lon="12.8554107"><ele>752.25</ele><time>2026-04-24T10:36:34.013Z</time></trkpt><trkpt lat="43.0854511" lon="12.8554666"><ele>758.5</ele><time>2026-04-24T10:36:35.02Z</time></trkpt><trkpt lat="43.0853572" lon="12.8555337"><ele>764.75</ele><time>2026-04-24T10:36:36.021Z</time></trkpt><trkpt lat="43.085282" lon="12.8556503"><ele>771.0</ele><time>2026-04-24T10:36:37.004Z</time></trkpt><trkpt lat="43.0852114" lon="12.8557754"><ele>771.0</ele><time>2026-04-24T10:36:38.011Z</time></trkpt><trkpt lat="43.0851359" lon="12.8559027"><ele>771.0</ele><time>2026-04-24T10:36:39.031Z</time></trkpt><trkpt lat="43.0850469" lon="12.8560299"><ele>771.0</ele><time>2026-04-24T10:36:40.007Z</time></trkpt><trkpt lat="43.0849478" lon="12.8561452"><ele>771.0</ele><time>2026-04-24T10:36:41.029Z</time></trkpt><trkpt lat="43.0848455" lon="12.8562513"><ele>768.75</ele><time>2026-04-24T10:36:42.034Z</time></trkpt><trkpt lat="43.0847334" lon="12.8563324"><ele>766.5</ele><time>2026-04-24T10:36:43.02Z</time></trkpt><trkpt lat="43.0846165" lon="12.8563785"><ele>764.25</ele><time>2026-04-24T10:36:44.03Z</time></trkpt><trkpt lat="43.0844877" lon="12.8564053"><ele>762.0</ele><time>2026-04-24T10:36:45.028Z</time></trkpt><trkpt lat="43.0843598" lon="12.8564174"><ele>762.0</ele><time>2026-04-24T10:36:46.027Z</time></trkpt><trkpt lat="43.0842236" lon="12.8564123"><ele>762.0</ele><time>2026-04-24T10:36:46.998Z</time></trkpt><trkpt lat="43.0840647" lon="12.8563876"><ele>762.0</ele><time>2026-04-24T10:36:48.024Z</time></trkpt><trkpt lat="43.0839122" lon="12.8563749"><ele>762.0</ele><time>2026-04-24T10:36:49.036Z</time></trkpt><trkpt lat="43.0837591" lon="12.8564013"><ele>763.0</ele><time>2026-04-24T10:36:50.024Z</time></trkpt><trkpt lat="43.083607" lon="12.8564323"><ele>764.0</ele><time>2026-04-24T10:36:51.024Z</time></trkpt><trkpt lat="43.0834666" lon="12.8564445"><ele>765.0</ele><time>2026-04-24T10:36:52.037Z</time></trkpt><trkpt lat="43.0833273" lon="12.8564252"><ele>766.0</ele><time>2026-04-24T10:36:53.03Z</time></trkpt><trkpt lat="43.0831809" lon="12.8563851"><ele>768.3333333333334</ele><time>2026-04-24T10:36:54.032Z</time></trkpt><trkpt lat="43.0830308" lon="12.8563478"><ele>770.6666666666667</ele><time>2026-04-24T10:36:55.024Z</time></trkpt><trkpt lat="43.0828811" lon="12.8563083"><ele>773.0</ele><time>2026-04-24T10:36:56.024Z</time></trkpt><trkpt lat="43.0827188" lon="12.8562808"><ele>773.0</ele><time>2026-04-24T10:36:57.037Z</time></trkpt><trkpt lat="43.0825476" lon="12.856236"><ele>773.0</ele><time>2026-04-24T10:36:58.022Z</time></trkpt><trkpt lat="43.0823747" lon="12.8561958"><ele>773.0</ele><time>2026-04-24T10:36:59.026Z</time></trkpt><trkpt lat="43.0822041" lon="12.8561571"><ele>775.6666666666667</ele><time>2026-04-24T10:37:00.025Z</time></trkpt><trkpt lat="43.0820456" lon="12.8561182"><ele>778.3333333333333</ele><time>2026-04-24T10:37:01.025Z</time></trkpt><trkpt lat="43.0818911" lon="12.8560834"><ele>781.0</ele><time>2026-04-24T10:37:02.023Z</time></trkpt><trkpt lat="43.081735" lon="12.8560621"><ele>781.0</ele><time>2026-04-24T10:37:02.99Z</time></trkpt><trkpt lat="43.0816009" lon="12.856072"><ele>781.0</ele><time>2026-04-24T10:37:04.018Z</time></trkpt><trkpt lat="43.0814764" lon="12.8561012"><ele>781.0</ele><time>2026-04-24T10:37:05.003Z</time></trkpt><trkpt lat="43.0813517" lon="12.8561576"><ele>781.0</ele><time>2026-04-24T10:37:06.019Z</time></trkpt><trkpt lat="43.0812369" lon="12.8562509"><ele>785.0</ele><time>2026-04-24T10:37:07.03Z</time></trkpt><trkpt lat="43.0811128" lon="12.8563345"><ele>789.0</ele><time>2026-04-24T10:37:08.031Z</time></trkpt><trkpt lat="43.0809696" lon="12.8563953"><ele>793.0</ele><time>2026-04-24T10:37:09.029Z</time></trkpt><trkpt lat="43.0808243" lon="12.8564193"><ele>797.0</ele><time>2026-04-24T10:37:10.039Z</time></trkpt><trkpt lat="43.0806673" lon="12.8564408"><ele>803.6666666666667</ele><time>2026-04-24T10:37:11.034Z</time></trkpt><trkpt lat="43.0804992" lon="12.856477"><ele>810.3333333333333</ele><time>2026-04-24T10:37:12.039Z</time></trkpt><trkpt lat="43.0803308" lon="12.8565462"><ele>817.0</ele><time>2026-04-24T10:37:13.008Z</time></trkpt><trkpt lat="43.0801646" lon="12.8566048"><ele>817.0</ele><time>2026-04-24T10:37:14.032Z</time></trkpt><trkpt lat="43.0800024" lon="12.8566341"><ele>817.0</ele><time>2026-04-24T10:37:15.041Z</time></trkpt><trkpt lat="43.0798421" lon="12.8566481"><ele>817.0</ele><time>2026-04-24T10:37:16.009Z</time></trkpt><trkpt lat="43.0796764" lon="12.8566491"><ele>822.3333333333333</ele><time>2026-04-24T10:37:17.039Z</time></trkpt><trkpt lat="43.0795123" lon="12.8566397"><ele>827.6666666666667</ele><time>2026-04-24T10:37:18.036Z</time></trkpt><trkpt lat="43.0793492" lon="12.8566243"><ele>833.0</ele><time>2026-04-24T10:37:19.029Z</time></trkpt><trkpt lat="43.0791758" lon="12.8566108"><ele>836.6666666666667</ele><time>2026-04-24T10:37:20.033Z</time></trkpt><trkpt lat="43.0790048" lon="12.8566217"><ele>840.3333333333333</ele><time>2026-04-24T10:37:21.032Z</time></trkpt><trkpt lat="43.0788372" lon="12.8566592"><ele>844.0</ele><time>2026-04-24T10:37:22.023Z</time></trkpt><trkpt lat="43.0786812" lon="12.8567132"><ele>844.0</ele><time>2026-04-24T10:37:23.03Z</time></trkpt><trkpt lat="43.0785424" lon="12.8567749"><ele>844.0</ele><time>2026-04-24T10:37:24.017Z</time></trkpt><trkpt lat="43.0784231" lon="12.8568443"><ele>844.0</ele><time>2026-04-24T10:37:25.005Z</time></trkpt><trkpt lat="43.078322" lon="12.8569176"><ele>844.0</ele><time>2026-04-24T10:37:26.03Z</time></trkpt><trkpt lat="43.0782379" lon="12.8569883"><ele>841.8000000000001</ele><time>2026-04-24T10:37:27.027Z</time></trkpt><trkpt lat="43.0781774" lon="12.8570673"><ele>839.6</ele><time>2026-04-24T10:37:28.029Z</time></trkpt><trkpt lat="43.0781262" lon="12.8571413"><ele>837.4</ele><time>2026-04-24T10:37:29.025Z</time></trkpt><trkpt lat="43.0780498" lon="12.8572441"><ele>835.2</ele><time>2026-04-24T10:37:31.026Z</time></trkpt><trkpt lat="43.0779669" lon="12.8573238"><ele>833.0</ele><time>2026-04-24T10:37:33.007Z</time></trkpt><trkpt lat="43.0778808" lon="12.8574088"><ele>833.0</ele><time>2026-04-24T10:37:35.024Z</time></trkpt><trkpt lat="43.0778152" lon="12.8574521"><ele>833.0</ele><time>2026-04-24T10:37:37.006Z</time></trkpt><trkpt lat="43.0777494" lon="12.8575262"><ele>833.0</ele><time>2026-04-24T10:37:40.036Z</time></trkpt><trkpt lat="43.07765" lon="12.8576527"><ele>833.0</ele><time>2026-04-24T10:37:42.026Z</time></trkpt><trkpt lat="43.0775798" lon="12.8577144"><ele>833.0</ele><time>2026-04-24T10:37:43.004Z</time></trkpt><trkpt lat="43.0774891" lon="12.8577822"><ele>830.75</ele><time>2026-04-24T10:37:44.034Z</time></trkpt><trkpt lat="43.0773833" lon="12.8578421"><ele>828.5</ele><time>2026-04-24T10:37:45.036Z</time></trkpt><trkpt lat="43.0772755" lon="12.8578969"><ele>826.25</ele><time>2026-04-24T10:37:46.032Z</time></trkpt><trkpt lat="43.0771713" lon="12.8579592"><ele>824.0</ele><time>2026-04-24T10:37:47.005Z</time></trkpt><trkpt lat="43.0770707" lon="12.8580236"><ele>824.0</ele><time>2026-04-24T10:37:48.027Z</time></trkpt><trkpt lat="43.0769668" lon="12.8580874"><ele>824.0</ele><time>2026-04-24T10:37:49.04Z</time></trkpt><trkpt lat="43.0768592" lon="12.8581571"><ele>824.0</ele><time>2026-04-24T10:37:50.025Z</time></trkpt><trkpt lat="43.076752" lon="12.8582329"><ele>824.0</ele><time>2026-04-24T10:37:51.036Z</time></trkpt><trkpt lat="43.0766454" lon="12.8583121"><ele>823.8000000000001</ele><time>2026-04-24T10:37:52.028Z</time></trkpt><trkpt lat="43.0765376" lon="12.8583778"><ele>823.6</ele><time>2026-04-24T10:37:53.033Z</time></trkpt><trkpt lat="43.0764368" lon="12.8584332"><ele>823.4</ele><time>2026-04-24T10:37:54.031Z</time></trkpt><trkpt lat="43.0763426" lon="12.8584686"><ele>823.2</ele><time>2026-04-24T10:37:55.036Z</time></trkpt><trkpt lat="43.0762477" lon="12.8584873"><ele>823.0</ele><time>2026-04-24T10:37:56.035Z</time></trkpt><trkpt lat="43.0761542" lon="12.8584983"><ele>822.4</ele><time>2026-04-24T10:37:57.036Z</time></trkpt><trkpt lat="43.0760551" lon="12.8585101"><ele>821.8</ele><time>2026-04-24T10:37:58.029Z</time></trkpt><trkpt lat="43.0759452" lon="12.8585184"><ele>821.2</ele><time>2026-04-24T10:37:59.037Z</time></trkpt><trkpt lat="43.0758315" lon="12.8585263"><ele>820.6</ele><time>2026-04-24T10:38:00.032Z</time></trkpt><trkpt lat="43.0757148" lon="12.8585316"><ele>820.0</ele><time>2026-04-24T10:38:01.029Z</time></trkpt><trkpt lat="43.0755878" lon="12.8585449"><ele>818.75</ele><time>2026-04-24T10:38:02.02Z</time></trkpt><trkpt lat="43.0754583" lon="12.8585758"><ele>817.5</ele><time>2026-04-24T10:38:03.044Z</time></trkpt><trkpt lat="43.0753219" lon="12.8586346"><ele>816.25</ele><time>2026-04-24T10:38:04.031Z</time></trkpt><trkpt lat="43.07518" lon="12.8587125"><ele>815.0</ele><time>2026-04-24T10:38:05.035Z</time></trkpt><trkpt lat="43.0750306" lon="12.8588134"><ele>814.0</ele><time>2026-04-24T10:38:06.035Z</time></trkpt><trkpt lat="43.0748839" lon="12.8589295"><ele>813.0</ele><time>2026-04-24T10:38:07.029Z</time></trkpt><trkpt lat="43.0747426" lon="12.8590575"><ele>812.0</ele><time>2026-04-24T10:38:08.032Z</time></trkpt><trkpt lat="43.0746093" lon="12.8592029"><ele>812.0</ele><time>2026-04-24T10:38:09.034Z</time></trkpt><trkpt lat="43.074489" lon="12.8593558"><ele>812.0</ele><time>2026-04-24T10:38:10.031Z</time></trkpt><trkpt lat="43.0743856" lon="12.8595153"><ele>812.0</ele><time>2026-04-24T10:38:11.038Z</time></trkpt><trkpt lat="43.0742866" lon="12.8596894"><ele>812.0</ele><time>2026-04-24T10:38:12.037Z</time></trkpt><trkpt lat="43.0741871" lon="12.8598738"><ele>812.0</ele><time>2026-04-24T10:38:13.028Z</time></trkpt><trkpt lat="43.0740782" lon="12.8600364"><ele>812.0</ele><time>2026-04-24T10:38:14.034Z</time></trkpt><trkpt lat="43.0739565" lon="12.8601765"><ele>812.0</ele><time>2026-04-24T10:38:15.032Z</time></trkpt><trkpt lat="43.0738055" lon="12.8602988"><ele>812.0</ele><time>2026-04-24T10:38:16.018Z</time></trkpt><trkpt lat="43.0736353" lon="12.8603935"><ele>812.0</ele><time>2026-04-24T10:38:17.042Z</time></trkpt><trkpt lat="43.0734474" lon="12.8604907"><ele>810.6666666666667</ele><time>2026-04-24T10:38:18.038Z</time></trkpt><trkpt lat="43.0732512" lon="12.8605949"><ele>809.3333333333333</ele><time>2026-04-24T10:38:19.033Z</time></trkpt><trkpt lat="43.0730444" lon="12.8607171"><ele>808.0</ele><time>2026-04-24T10:38:20.028Z</time></trkpt><trkpt lat="43.072831" lon="12.8608447"><ele>808.6666666666666</ele><time>2026-04-24T10:38:21.008Z</time></trkpt><trkpt lat="43.0726249" lon="12.8609637"><ele>809.3333333333333</ele><time>2026-04-24T10:38:22.017Z</time></trkpt><trkpt lat="43.0724432" lon="12.8610709"><ele>810.0</ele><time>2026-04-24T10:38:23.032Z</time></trkpt><trkpt lat="43.0722639" lon="12.8611784"><ele>810.0</ele><time>2026-04-24T10:38:24.008Z</time></trkpt><trkpt lat="43.0721059" lon="12.8612731"><ele>810.0</ele><time>2026-04-24T10:38:25.004Z</time></trkpt><trkpt lat="43.0719522" lon="12.8613814"><ele>810.0</ele><time>2026-04-24T10:38:26.038Z</time></trkpt><trkpt lat="43.0718088" lon="12.8615013"><ele>810.0</ele><time>2026-04-24T10:38:27.046Z</time></trkpt><trkpt lat="43.0716745" lon="12.8616659"><ele>810.0</ele><time>2026-04-24T10:38:28.033Z</time></trkpt><trkpt lat="43.0715498" lon="12.8618479"><ele>810.0</ele><time>2026-04-24T10:38:29.032Z</time></trkpt><trkpt lat="43.0714176" lon="12.8620237"><ele>808.3333333333333</ele><time>2026-04-24T10:38:30.036Z</time></trkpt><trkpt lat="43.0712835" lon="12.862187"><ele>806.6666666666666</ele><time>2026-04-24T10:38:31.03Z</time></trkpt><trkpt lat="43.0711378" lon="12.8623415"><ele>805.0</ele><time>2026-04-24T10:38:32.034Z</time></trkpt><trkpt lat="43.070976" lon="12.8624904"><ele>805.0</ele><time>2026-04-24T10:38:33.03Z</time></trkpt><trkpt lat="43.0708117" lon="12.8626174"><ele>805.0</ele><time>2026-04-24T10:38:34.029Z</time></trkpt><trkpt lat="43.0706449" lon="12.8627128"><ele>805.0</ele><time>2026-04-24T10:38:35.023Z</time></trkpt><trkpt lat="43.0704748" lon="12.8627814"><ele>805.0</ele><time>2026-04-24T10:38:36.014Z</time></trkpt><trkpt lat="43.0702978" lon="12.8628202"><ele>805.0</ele><time>2026-04-24T10:38:37.01Z</time></trkpt><trkpt lat="43.070108" lon="12.8628564"><ele>805.0</ele><time>2026-04-24T10:38:38.01Z</time></trkpt><trkpt lat="43.0699351" lon="12.8628943"><ele>804.0</ele><time>2026-04-24T10:38:39.002Z</time></trkpt><trkpt lat="43.0697636" lon="12.8629232"><ele>803.0</ele><time>2026-04-24T10:38:39.999Z</time></trkpt><trkpt lat="43.0695998" lon="12.8629679"><ele>802.0</ele><time>2026-04-24T10:38:41.041Z</time></trkpt><trkpt lat="43.0694476" lon="12.8630391"><ele>802.0</ele><time>2026-04-24T10:38:42.041Z</time></trkpt><trkpt lat="43.0693096" lon="12.8631491"><ele>802.0</ele><time>2026-04-24T10:38:43.028Z</time></trkpt><trkpt lat="43.0691756" lon="12.8632759"><ele>802.0</ele><time>2026-04-24T10:38:44.032Z</time></trkpt><trkpt lat="43.0690486" lon="12.8634588"><ele>801.6666666666666</ele><time>2026-04-24T10:38:45.003Z</time></trkpt><trkpt lat="43.0689156" lon="12.8636407"><ele>801.3333333333333</ele><time>2026-04-24T10:38:46.029Z</time></trkpt><trkpt lat="43.0687823" lon="12.8638161"><ele>801.0</ele><time>2026-04-24T10:38:47.036Z</time></trkpt><trkpt lat="43.0686472" lon="12.8639798"><ele>801.0</ele><time>2026-04-24T10:38:48.033Z</time></trkpt><trkpt lat="43.068521" lon="12.8641334"><ele>801.0</ele><time>2026-04-24T10:38:49.033Z</time></trkpt><trkpt lat="43.0683951" lon="12.8642765"><ele>801.0</ele><time>2026-04-24T10:38:50.033Z</time></trkpt><trkpt lat="43.0682535" lon="12.8643966"><ele>801.3333333333333</ele><time>2026-04-24T10:38:51.029Z</time></trkpt><trkpt lat="43.0680932" lon="12.8644879"><ele>801.6666666666666</ele><time>2026-04-24T10:38:52.038Z</time></trkpt><trkpt lat="43.0679053" lon="12.8645594"><ele>802.0</ele><time>2026-04-24T10:38:53.036Z</time></trkpt><trkpt lat="43.0676903" lon="12.8646184"><ele>802.0</ele><time>2026-04-24T10:38:54.035Z</time></trkpt><trkpt lat="43.0674612" lon="12.8646763"><ele>802.0</ele><time>2026-04-24T10:38:55.01Z</time></trkpt><trkpt lat="43.0672123" lon="12.8647429"><ele>801.0</ele><time>2026-04-24T10:38:56.001Z</time></trkpt><trkpt lat="43.0669507" lon="12.8648156"><ele>800.0</ele><time>2026-04-24T10:38:57.038Z</time></trkpt><trkpt lat="43.066696" lon="12.8648849"><ele>801.0</ele><time>2026-04-24T10:38:58.042Z</time></trkpt><trkpt lat="43.066457" lon="12.864948"><ele>802.0</ele><time>2026-04-24T10:38:59.042Z</time></trkpt><trkpt lat="43.0662353" lon="12.8650098"><ele>802.0</ele><time>2026-04-24T10:39:00.027Z</time></trkpt><trkpt lat="43.0660303" lon="12.8650742"><ele>802.0</ele><time>2026-04-24T10:39:01.029Z</time></trkpt><trkpt lat="43.0658321" lon="12.8651513"><ele>802.0</ele><time>2026-04-24T10:39:02.036Z</time></trkpt><trkpt lat="43.0656261" lon="12.8652538"><ele>801.6666666666666</ele><time>2026-04-24T10:39:03.034Z</time></trkpt><trkpt lat="43.065423" lon="12.8653673"><ele>801.3333333333333</ele><time>2026-04-24T10:39:04.039Z</time></trkpt><trkpt lat="43.0652186" lon="12.8654767"><ele>801.0</ele><time>2026-04-24T10:39:05.026Z</time></trkpt><trkpt lat="43.0650219" lon="12.8655771"><ele>800.6666666666667</ele><time>2026-04-24T10:39:06.032Z</time></trkpt><trkpt lat="43.0648333" lon="12.8656644"><ele>800.3333333333334</ele><time>2026-04-24T10:39:07.036Z</time></trkpt><trkpt lat="43.0646466" lon="12.8657382"><ele>800.0</ele><time>2026-04-24T10:39:08.034Z</time></trkpt><trkpt lat="43.0644526" lon="12.865789"><ele>800.0</ele><time>2026-04-24T10:39:09.038Z</time></trkpt><trkpt lat="43.0642671" lon="12.8658086"><ele>800.0</ele><time>2026-04-24T10:39:10.029Z</time></trkpt><trkpt lat="43.0640849" lon="12.8658264"><ele>800.0</ele><time>2026-04-24T10:39:11.034Z</time></trkpt><trkpt lat="43.0639081" lon="12.8658482"><ele>799.3333333333334</ele><time>2026-04-24T10:39:12.037Z</time></trkpt><trkpt lat="43.0637376" lon="12.8658796"><ele>798.6666666666667</ele><time>2026-04-24T10:39:13.027Z</time></trkpt><trkpt lat="43.0635648" lon="12.8659339"><ele>798.0</ele><time>2026-04-24T10:39:14.027Z</time></trkpt><trkpt lat="43.063382" lon="12.8660345"><ele>797.0</ele><time>2026-04-24T10:39:15.031Z</time></trkpt><trkpt lat="43.0631945" lon="12.8661708"><ele>796.0</ele><time>2026-04-24T10:39:16.031Z</time></trkpt><trkpt lat="43.0630047" lon="12.8663204"><ele>795.0</ele><time>2026-04-24T10:39:17.039Z</time></trkpt><trkpt lat="43.062811" lon="12.8664715"><ele>795.0</ele><time>2026-04-24T10:39:18.039Z</time></trkpt><trkpt lat="43.062609" lon="12.8666252"><ele>795.0</ele><time>2026-04-24T10:39:19.001Z</time></trkpt><trkpt lat="43.0624027" lon="12.8667783"><ele>795.5</ele><time>2026-04-24T10:39:20.043Z</time></trkpt><trkpt lat="43.062188" lon="12.8669307"><ele>796.0</ele><time>2026-04-24T10:39:21.034Z</time></trkpt><trkpt lat="43.0619651" lon="12.8670871"><ele>796.0</ele><time>2026-04-24T10:39:22.039Z</time></trkpt><trkpt lat="43.0617324" lon="12.8672513"><ele>796.0</ele><time>2026-04-24T10:39:23.036Z</time></trkpt><trkpt lat="43.0614921" lon="12.8674113"><ele>797.0</ele><time>2026-04-24T10:39:24.035Z</time></trkpt><trkpt lat="43.0612638" lon="12.8675633"><ele>798.0</ele><time>2026-04-24T10:39:25.038Z</time></trkpt><trkpt lat="43.0610472" lon="12.8676979"><ele>799.3333333333333</ele><time>2026-04-24T10:39:26.016Z</time></trkpt><trkpt lat="43.0608486" lon="12.8678286"><ele>800.6666666666666</ele><time>2026-04-24T10:39:27.017Z</time></trkpt><trkpt lat="43.0606675" lon="12.8679511"><ele>802.0</ele><time>2026-04-24T10:39:28Z</time></trkpt><trkpt lat="43.0604962" lon="12.8680699"><ele>802.3333333333333</ele><time>2026-04-24T10:39:29.035Z</time></trkpt><trkpt lat="43.060327" lon="12.868186"><ele>802.6666666666667</ele><time>2026-04-24T10:39:30.049Z</time></trkpt><trkpt lat="43.0601693" lon="12.8682978"><ele>803.0</ele><time>2026-04-24T10:39:31.043Z</time></trkpt><trkpt lat="43.0600167" lon="12.8684006"><ele>804.0</ele><time>2026-04-24T10:39:32.033Z</time></trkpt><trkpt lat="43.0598705" lon="12.8684932"><ele>805.0</ele><time>2026-04-24T10:39:33.039Z</time></trkpt><trkpt lat="43.0597341" lon="12.8685701"><ele>806.0</ele><time>2026-04-24T10:39:34.045Z</time></trkpt><trkpt lat="43.0595976" lon="12.8686283"><ele>806.0</ele><time>2026-04-24T10:39:35.029Z</time></trkpt><trkpt lat="43.0594641" lon="12.8686666"><ele>806.0</ele><time>2026-04-24T10:39:36.037Z</time></trkpt><trkpt lat="43.0593292" lon="12.8686997"><ele>806.0</ele><time>2026-04-24T10:39:37.029Z</time></trkpt><trkpt lat="43.0592046" lon="12.8687338"><ele>806.0</ele><time>2026-04-24T10:39:38.029Z</time></trkpt><trkpt lat="43.0590766" lon="12.8687765"><ele>805.75</ele><time>2026-04-24T10:39:39.042Z</time></trkpt><trkpt lat="43.0589485" lon="12.8688265"><ele>805.5</ele><time>2026-04-24T10:39:40.031Z</time></trkpt><trkpt lat="43.0588195" lon="12.868885"><ele>805.25</ele><time>2026-04-24T10:39:41.038Z</time></trkpt><trkpt lat="43.058692" lon="12.8689659"><ele>805.0</ele><time>2026-04-24T10:39:42.035Z</time></trkpt><trkpt lat="43.0585637" lon="12.869056"><ele>805.0</ele><time>2026-04-24T10:39:43.038Z</time></trkpt><trkpt lat="43.0584376" lon="12.8691473"><ele>805.0</ele><time>2026-04-24T10:39:44.034Z</time></trkpt><trkpt lat="43.0583048" lon="12.8692252"><ele>805.0</ele><time>2026-04-24T10:39:45.036Z</time></trkpt><trkpt lat="43.0581723" lon="12.8692973"><ele>805.0</ele><time>2026-04-24T10:39:46.03Z</time></trkpt><trkpt lat="43.0580458" lon="12.8693659"><ele>805.75</ele><time>2026-04-24T10:39:47.046Z</time></trkpt><trkpt lat="43.0579172" lon="12.8694357"><ele>806.5</ele><time>2026-04-24T10:39:48.043Z</time></trkpt><trkpt lat="43.0577802" lon="12.8695174"><ele>807.25</ele><time>2026-04-24T10:39:49.045Z</time></trkpt><trkpt lat="43.0576402" lon="12.8696075"><ele>808.0</ele><time>2026-04-24T10:39:50.039Z</time></trkpt><trkpt lat="43.057503" lon="12.8697069"><ele>807.0</ele><time>2026-04-24T10:39:51.039Z</time></trkpt><trkpt lat="43.0573622" lon="12.8698054"><ele>806.0</ele><time>2026-04-24T10:39:52.039Z</time></trkpt><trkpt lat="43.0572229" lon="12.8699069"><ele>805.0</ele><time>2026-04-24T10:39:53.035Z</time></trkpt><trkpt lat="43.0570811" lon="12.8700054"><ele>805.0</ele><time>2026-04-24T10:39:54.033Z</time></trkpt><trkpt lat="43.0569417" lon="12.8700963"><ele>805.0</ele><time>2026-04-24T10:39:55.04Z</time></trkpt><trkpt lat="43.0568096" lon="12.8701744"><ele>805.0</ele><time>2026-04-24T10:39:56.017Z</time></trkpt><trkpt lat="43.0566885" lon="12.8702501"><ele>805.0</ele><time>2026-04-24T10:39:57.024Z</time></trkpt><trkpt lat="43.0565765" lon="12.8703337"><ele>805.0</ele><time>2026-04-24T10:39:58.036Z</time></trkpt><trkpt lat="43.0564697" lon="12.8704242"><ele>805.0</ele><time>2026-04-24T10:39:59.039Z</time></trkpt><trkpt lat="43.0563722" lon="12.8705163"><ele>805.0</ele><time>2026-04-24T10:40:00.033Z</time></trkpt><trkpt lat="43.056281" lon="12.8706116"><ele>805.0</ele><time>2026-04-24T10:40:01.041Z</time></trkpt><trkpt lat="43.0561915" lon="12.8707205"><ele>805.0</ele><time>2026-04-24T10:40:02.03Z</time></trkpt><trkpt lat="43.0561111" lon="12.8708358"><ele>805.0</ele><time>2026-04-24T10:40:03.026Z</time></trkpt><trkpt lat="43.0560421" lon="12.870949"><ele>805.0</ele><time>2026-04-24T10:40:04.037Z</time></trkpt><trkpt lat="43.0559834" lon="12.8710521"><ele>805.0</ele><time>2026-04-24T10:40:05.04Z</time></trkpt><trkpt lat="43.0559224" lon="12.8711473"><ele>805.0</ele><time>2026-04-24T10:40:06.038Z</time></trkpt><trkpt lat="43.0558602" lon="12.8712213"><ele>804.8333333333333</ele><time>2026-04-24T10:40:07.027Z</time></trkpt><trkpt lat="43.0557933" lon="12.8712804"><ele>804.6666666666666</ele><time>2026-04-24T10:40:08.01Z</time></trkpt><trkpt lat="43.0557215" lon="12.8713182"><ele>804.5</ele><time>2026-04-24T10:40:09.032Z</time></trkpt><trkpt lat="43.0556473" lon="12.871321"><ele>804.3333333333333</ele><time>2026-04-24T10:40:10.005Z</time></trkpt><trkpt lat="43.0555447" lon="12.8712322"><ele>804.1666666666666</ele><time>2026-04-24T10:40:12.032Z</time></trkpt><trkpt lat="43.0555222" lon="12.8711395"><ele>804.0</ele><time>2026-04-24T10:40:14.034Z</time></trkpt><trkpt lat="43.0554956" lon="12.8710557"><ele>804.0</ele><time>2026-04-24T10:40:19.017Z</time></trkpt><trkpt lat="43.0554025" lon="12.8710596"><ele>804.0</ele><time>2026-04-24T10:40:23.015Z</time></trkpt><trkpt lat="43.055308" lon="12.8710918"><ele>804.0</ele><time>2026-04-24T10:40:25.017Z</time></trkpt><trkpt lat="43.0552207" lon="12.871163"><ele>804.0</ele><time>2026-04-24T10:40:27.036Z</time></trkpt><trkpt lat="43.0551239" lon="12.871257"><ele>804.0</ele><time>2026-04-24T10:40:29.021Z</time></trkpt><trkpt lat="43.055066" lon="12.8713187"><ele>804.0</ele><time>2026-04-24T10:40:30.036Z</time></trkpt><trkpt lat="43.0549994" lon="12.8713804"><ele>804.0</ele><time>2026-04-24T10:40:31.039Z</time></trkpt><trkpt lat="43.0549289" lon="12.8714501"><ele>804.0</ele><time>2026-04-24T10:40:32.027Z</time></trkpt><trkpt lat="43.054851" lon="12.8715195"><ele>804.0</ele><time>2026-04-24T10:40:33.011Z</time></trkpt><trkpt lat="43.0547663" lon="12.871597"><ele>804.0</ele><time>2026-04-24T10:40:34.03Z</time></trkpt><trkpt lat="43.0546702" lon="12.8716801"><ele>802.75</ele><time>2026-04-24T10:40:35.035Z</time></trkpt><trkpt lat="43.0545635" lon="12.8717751"><ele>801.5</ele><time>2026-04-24T10:40:36.023Z</time></trkpt><trkpt lat="43.0544534" lon="12.8718753"><ele>800.25</ele><time>2026-04-24T10:40:37.031Z</time></trkpt><trkpt lat="43.0543367" lon="12.8719773"><ele>799.0</ele><time>2026-04-24T10:40:38.024Z</time></trkpt><trkpt lat="43.0542124" lon="12.872087"><ele>798.5</ele><time>2026-04-24T10:40:39.044Z</time></trkpt><trkpt lat="43.0540921" lon="12.872196"><ele>798.0</ele><time>2026-04-24T10:40:40.032Z</time></trkpt><trkpt lat="43.053965" lon="12.8723027"><ele>797.5</ele><time>2026-04-24T10:40:41.04Z</time></trkpt><trkpt lat="43.0538352" lon="12.8724108"><ele>797.0</ele><time>2026-04-24T10:40:42.026Z</time></trkpt><trkpt lat="43.0536966" lon="12.8725236"><ele>796.6666666666667</ele><time>2026-04-24T10:40:43.053Z</time></trkpt><trkpt lat="43.0535659" lon="12.8726494"><ele>796.3333333333333</ele><time>2026-04-24T10:40:44.014Z</time></trkpt><trkpt lat="43.0534439" lon="12.8727834"><ele>796.0</ele><time>2026-04-24T10:40:45.039Z</time></trkpt><trkpt lat="43.0533159" lon="12.8729174"><ele>794.6666666666666</ele><time>2026-04-24T10:40:45.998Z</time></trkpt><trkpt lat="43.0531853" lon="12.8730528"><ele>793.3333333333333</ele><time>2026-04-24T10:40:47.039Z</time></trkpt><trkpt lat="43.053055" lon="12.8731874"><ele>792.0</ele><time>2026-04-24T10:40:48.027Z</time></trkpt><trkpt lat="43.0529287" lon="12.8733132"><ele>792.0</ele><time>2026-04-24T10:40:49.038Z</time></trkpt><trkpt lat="43.0528017" lon="12.8734384"><ele>792.0</ele><time>2026-04-24T10:40:49.999Z</time></trkpt><trkpt lat="43.0526777" lon="12.8735599"><ele>792.0</ele><time>2026-04-24T10:40:51.042Z</time></trkpt><trkpt lat="43.0525658" lon="12.8736747"><ele>792.0</ele><time>2026-04-24T10:40:52.04Z</time></trkpt><trkpt lat="43.0524509" lon="12.873788"><ele>791.0</ele><time>2026-04-24T10:40:53.035Z</time></trkpt><trkpt lat="43.0523339" lon="12.8739009"><ele>790.0</ele><time>2026-04-24T10:40:54.037Z</time></trkpt><trkpt lat="43.0522148" lon="12.8740126"><ele>789.0</ele><time>2026-04-24T10:40:55.026Z</time></trkpt><trkpt lat="43.0520985" lon="12.8741237"><ele>788.0</ele><time>2026-04-24T10:40:56.028Z</time></trkpt><trkpt lat="43.0519818" lon="12.8742426"><ele>788.0</ele><time>2026-04-24T10:40:57.037Z</time></trkpt><trkpt lat="43.0518685" lon="12.8743746"><ele>788.0</ele><time>2026-04-24T10:40:58.001Z</time></trkpt><trkpt lat="43.0517602" lon="12.8745195"><ele>788.0</ele><time>2026-04-24T10:40:59.041Z</time></trkpt><trkpt lat="43.0516653" lon="12.8746651"><ele>788.0</ele><time>2026-04-24T10:41:00.032Z</time></trkpt><trkpt lat="43.0515824" lon="12.8748346"><ele>787.5</ele><time>2026-04-24T10:41:01.038Z</time></trkpt><trkpt lat="43.0515014" lon="12.8749993"><ele>787.0</ele><time>2026-04-24T10:41:02.022Z</time></trkpt><trkpt lat="43.0514203" lon="12.8751524"><ele>786.5</ele><time>2026-04-24T10:41:03.029Z</time></trkpt><trkpt lat="43.0513369" lon="12.8752935"><ele>786.0</ele><time>2026-04-24T10:41:04.003Z</time></trkpt><trkpt lat="43.0512358" lon="12.8754104"><ele>786.0</ele><time>2026-04-24T10:41:05.001Z</time></trkpt><trkpt lat="43.0511387" lon="12.8755103"><ele>786.0</ele><time>2026-04-24T10:41:06.034Z</time></trkpt><trkpt lat="43.0510526" lon="12.8756231"><ele>786.0</ele><time>2026-04-24T10:41:07.036Z</time></trkpt><trkpt lat="43.0509721" lon="12.8757479"><ele>786.0</ele><time>2026-04-24T10:41:08.037Z</time></trkpt><trkpt lat="43.0508827" lon="12.8758647"><ele>786.25</ele><time>2026-04-24T10:41:09.038Z</time></trkpt><trkpt lat="43.0507929" lon="12.8759751"><ele>786.5</ele><time>2026-04-24T10:41:10.037Z</time></trkpt><trkpt lat="43.0507064" lon="12.8760792"><ele>786.75</ele><time>2026-04-24T10:41:11.034Z</time></trkpt><trkpt lat="43.0506145" lon="12.8761838"><ele>787.0</ele><time>2026-04-24T10:41:12.037Z</time></trkpt><trkpt lat="43.0505116" lon="12.8762864"><ele>786.0</ele><time>2026-04-24T10:41:13.031Z</time></trkpt><trkpt lat="43.0504033" lon="12.8763915"><ele>785.0</ele><time>2026-04-24T10:41:14.033Z</time></trkpt><trkpt lat="43.0502967" lon="12.8764863"><ele>784.0</ele><time>2026-04-24T10:41:15.027Z</time></trkpt><trkpt lat="43.0501995" lon="12.8765785"><ele>783.0</ele><time>2026-04-24T10:41:16.035Z</time></trkpt><trkpt lat="43.0501116" lon="12.876676"><ele>783.25</ele><time>2026-04-24T10:41:17.009Z</time></trkpt><trkpt lat="43.0500202" lon="12.8767733"><ele>783.5</ele><time>2026-04-24T10:41:18.039Z</time></trkpt><trkpt lat="43.0499237" lon="12.8768609"><ele>783.75</ele><time>2026-04-24T10:41:19.038Z</time></trkpt><trkpt lat="43.0498207" lon="12.8769443"><ele>784.0</ele><time>2026-04-24T10:41:20.032Z</time></trkpt><trkpt lat="43.049709" lon="12.8770371"><ele>784.0</ele><time>2026-04-24T10:41:21.014Z</time></trkpt><trkpt lat="43.049604" lon="12.8771409"><ele>784.0</ele><time>2026-04-24T10:41:22.037Z</time></trkpt><trkpt lat="43.0495122" lon="12.877247"><ele>784.0</ele><time>2026-04-24T10:41:23.018Z</time></trkpt><trkpt lat="43.0494409" lon="12.8773681"><ele>784.0</ele><time>2026-04-24T10:41:24.033Z</time></trkpt><trkpt lat="43.049379" lon="12.8774752"><ele>784.0</ele><time>2026-04-24T10:41:25.029Z</time></trkpt><trkpt lat="43.0493216" lon="12.8775749"><ele>784.0</ele><time>2026-04-24T10:41:26.024Z</time></trkpt><trkpt lat="43.0492664" lon="12.8776565"><ele>784.0</ele><time>2026-04-24T10:41:27.048Z</time></trkpt><trkpt lat="43.0492093" lon="12.877736"><ele>784.0</ele><time>2026-04-24T10:41:29.024Z</time></trkpt><trkpt lat="43.0491454" lon="12.8778414"><ele>784.0</ele><time>2026-04-24T10:41:32.035Z</time></trkpt><trkpt lat="43.0490964" lon="12.8780163"><ele>783.5</ele><time>2026-04-24T10:41:34.016Z</time></trkpt><trkpt lat="43.0490543" lon="12.878127"><ele>783.0</ele><time>2026-04-24T10:41:35.034Z</time></trkpt><trkpt lat="43.0489912" lon="12.8782493"><ele>782.5</ele><time>2026-04-24T10:41:36.033Z</time></trkpt><trkpt lat="43.0489068" lon="12.8783767"><ele>782.0</ele><time>2026-04-24T10:41:37.033Z</time></trkpt><trkpt lat="43.0488083" lon="12.878509"><ele>782.0</ele><time>2026-04-24T10:41:38.033Z</time></trkpt><trkpt lat="43.0486978" lon="12.8786548"><ele>782.0</ele><time>2026-04-24T10:41:39.037Z</time></trkpt><trkpt lat="43.0485701" lon="12.8787975"><ele>782.0</ele><time>2026-04-24T10:41:40.03Z</time></trkpt><trkpt lat="43.0484308" lon="12.8789462"><ele>781.6666666666667</ele><time>2026-04-24T10:41:41.032Z</time></trkpt><trkpt lat="43.0482847" lon="12.8791033"><ele>781.3333333333333</ele><time>2026-04-24T10:41:42.028Z</time></trkpt><trkpt lat="43.048127" lon="12.8792645"><ele>781.0</ele><time>2026-04-24T10:41:43.037Z</time></trkpt><trkpt lat="43.047974" lon="12.8794258"><ele>781.0</ele><time>2026-04-24T10:41:43.993Z</time></trkpt><trkpt lat="43.0478203" lon="12.8795864"><ele>781.0</ele><time>2026-04-24T10:41:45.012Z</time></trkpt><trkpt lat="43.0476742" lon="12.8797501"><ele>781.0</ele><time>2026-04-24T10:41:46.034Z</time></trkpt><trkpt lat="43.0475198" lon="12.8799279"><ele>781.0</ele><time>2026-04-24T10:41:47.032Z</time></trkpt><trkpt lat="43.0473733" lon="12.8801004"><ele>781.0</ele><time>2026-04-24T10:41:48.036Z</time></trkpt><trkpt lat="43.0472391" lon="12.8802747"><ele>781.0</ele><time>2026-04-24T10:41:49.034Z</time></trkpt><trkpt lat="43.0471144" lon="12.8804646"><ele>781.0</ele><time>2026-04-24T10:41:50.022Z</time></trkpt><trkpt lat="43.046997" lon="12.8806755"><ele>781.0</ele><time>2026-04-24T10:41:51.029Z</time></trkpt><trkpt lat="43.0468794" lon="12.8808855"><ele>781.0</ele><time>2026-04-24T10:41:52.03Z</time></trkpt><trkpt lat="43.0467663" lon="12.8810924"><ele>780.3333333333333</ele><time>2026-04-24T10:41:53.039Z</time></trkpt><trkpt lat="43.0466465" lon="12.8812826"><ele>779.6666666666667</ele><time>2026-04-24T10:41:54.007Z</time></trkpt><trkpt lat="43.0465181" lon="12.8814437"><ele>779.0</ele><time>2026-04-24T10:41:55.027Z</time></trkpt><trkpt lat="43.0463777" lon="12.881581"><ele>779.0</ele><time>2026-04-24T10:41:56.004Z</time></trkpt><trkpt lat="43.0462383" lon="12.8816938"><ele>779.0</ele><time>2026-04-24T10:41:57.01Z</time></trkpt><trkpt lat="43.0460931" lon="12.8817742"><ele>779.0</ele><time>2026-04-24T10:41:58.009Z</time></trkpt><trkpt lat="43.0459469" lon="12.8818311"><ele>778.6666666666667</ele><time>2026-04-24T10:41:59.004Z</time></trkpt><trkpt lat="43.045794" lon="12.881886"><ele>778.3333333333333</ele><time>2026-04-24T10:42:00.01Z</time></trkpt><trkpt lat="43.045629" lon="12.881954"><ele>778.0</ele><time>2026-04-24T10:42:01.013Z</time></trkpt><trkpt lat="43.0454548" lon="12.8820396"><ele>778.0</ele><time>2026-04-24T10:42:02.009Z</time></trkpt><trkpt lat="43.0452701" lon="12.8821449"><ele>778.0</ele><time>2026-04-24T10:42:03.02Z</time></trkpt><trkpt lat="43.0450863" lon="12.8822543"><ele>778.0</ele><time>2026-04-24T10:42:04.026Z</time></trkpt><trkpt lat="43.0449127" lon="12.8823506"><ele>776.3333333333333</ele><time>2026-04-24T10:42:05.031Z</time></trkpt><trkpt lat="43.0447357" lon="12.8824212"><ele>774.6666666666667</ele><time>2026-04-24T10:42:05.997Z</time></trkpt><trkpt lat="43.0445667" lon="12.8824677"><ele>773.0</ele><time>2026-04-24T10:42:07.033Z</time></trkpt><trkpt lat="43.0443959" lon="12.8825017"><ele>773.0</ele><time>2026-04-24T10:42:08.035Z</time></trkpt><trkpt lat="43.0442322" lon="12.8825336"><ele>773.0</ele><time>2026-04-24T10:42:09.023Z</time></trkpt><trkpt lat="43.044067" lon="12.882573"><ele>773.0</ele><time>2026-04-24T10:42:10.033Z</time></trkpt><trkpt lat="43.0439021" lon="12.8826242"><ele>773.0</ele><time>2026-04-24T10:42:11.029Z</time></trkpt><trkpt lat="43.0437386" lon="12.8826911"><ele>773.0</ele><time>2026-04-24T10:42:12.034Z</time></trkpt><trkpt lat="43.0435693" lon="12.8827778"><ele>773.0</ele><time>2026-04-24T10:42:13.043Z</time></trkpt><trkpt lat="43.0434119" lon="12.882875"><ele>772.5</ele><time>2026-04-24T10:42:14.029Z</time></trkpt><trkpt lat="43.0432694" lon="12.8829717"><ele>772.0</ele><time>2026-04-24T10:42:15.039Z</time></trkpt><trkpt lat="43.0431411" lon="12.8830684"><ele>771.5</ele><time>2026-04-24T10:42:16.001Z</time></trkpt><trkpt lat="43.0430189" lon="12.8831724"><ele>771.0</ele><time>2026-04-24T10:42:17.017Z</time></trkpt><trkpt lat="43.0428847" lon="12.8832884"><ele>771.0</ele><time>2026-04-24T10:42:18.034Z</time></trkpt><trkpt lat="43.0427403" lon="12.8834154"><ele>771.0</ele><time>2026-04-24T10:42:19.029Z</time></trkpt><trkpt lat="43.0425869" lon="12.8835455"><ele>771.0</ele><time>2026-04-24T10:42:20.033Z</time></trkpt><trkpt lat="43.0424267" lon="12.8836653"><ele>770.6666666666667</ele><time>2026-04-24T10:42:21.037Z</time></trkpt><trkpt lat="43.0422557" lon="12.8837734"><ele>770.3333333333334</ele><time>2026-04-24T10:42:22.02Z</time></trkpt><trkpt lat="43.0420743" lon="12.8838752"><ele>770.0</ele><time>2026-04-24T10:42:23.035Z</time></trkpt><trkpt lat="43.0418901" lon="12.8839894"><ele>770.0</ele><time>2026-04-24T10:42:24.032Z</time></trkpt><trkpt lat="43.0417024" lon="12.8841268"><ele>770.0</ele><time>2026-04-24T10:42:25.03Z</time></trkpt><trkpt lat="43.0415206" lon="12.8842779"><ele>770.0</ele><time>2026-04-24T10:42:26.029Z</time></trkpt><trkpt lat="43.0413387" lon="12.8844349"><ele>770.3333333333334</ele><time>2026-04-24T10:42:27.036Z</time></trkpt><trkpt lat="43.0411571" lon="12.884593"><ele>770.6666666666667</ele><time>2026-04-24T10:42:28.025Z</time></trkpt><trkpt lat="43.0409678" lon="12.8847533"><ele>771.0</ele><time>2026-04-24T10:42:29.039Z</time></trkpt><trkpt lat="43.0407751" lon="12.8849047"><ele>771.0</ele><time>2026-04-24T10:42:30.007Z</time></trkpt><trkpt lat="43.0405808" lon="12.885058"><ele>771.0</ele><time>2026-04-24T10:42:31.028Z</time></trkpt><trkpt lat="43.04039" lon="12.8852172"><ele>771.0</ele><time>2026-04-24T10:42:32.028Z</time></trkpt><trkpt lat="43.0402005" lon="12.8853934"><ele>770.0</ele><time>2026-04-24T10:42:33.032Z</time></trkpt><trkpt lat="43.0400112" lon="12.8855809"><ele>769.0</ele><time>2026-04-24T10:42:34.026Z</time></trkpt><trkpt lat="43.0398242" lon="12.8857794"><ele>769.5</ele><time>2026-04-24T10:42:35.029Z</time></trkpt><trkpt lat="43.0396324" lon="12.8859841"><ele>770.0</ele><time>2026-04-24T10:42:36.032Z</time></trkpt><trkpt lat="43.0394332" lon="12.8861923"><ele>770.0</ele><time>2026-04-24T10:42:37.029Z</time></trkpt><trkpt lat="43.0392398" lon="12.8863943"><ele>770.0</ele><time>2026-04-24T10:42:38.029Z</time></trkpt><trkpt lat="43.0390557" lon="12.8865814"><ele>769.6666666666667</ele><time>2026-04-24T10:42:39.032Z</time></trkpt><trkpt lat="43.0388828" lon="12.8867597"><ele>769.3333333333333</ele><time>2026-04-24T10:42:40.022Z</time></trkpt><trkpt lat="43.0387205" lon="12.8869282"><ele>769.0</ele><time>2026-04-24T10:42:41.043Z</time></trkpt><trkpt lat="43.0385733" lon="12.8870999"><ele>769.0</ele><time>2026-04-24T10:42:42.021Z</time></trkpt><trkpt lat="43.0384571" lon="12.8872828"><ele>769.0</ele><time>2026-04-24T10:42:43.033Z</time></trkpt><trkpt lat="43.0383727" lon="12.8875049"><ele>769.0</ele><time>2026-04-24T10:42:44.022Z</time></trkpt><trkpt lat="43.0383076" lon="12.8877684"><ele>767.6666666666666</ele><time>2026-04-24T10:42:45.005Z</time></trkpt><trkpt lat="43.0382362" lon="12.8880414"><ele>766.3333333333333</ele><time>2026-04-24T10:42:46.031Z</time></trkpt><trkpt lat="43.0381597" lon="12.8883195"><ele>765.0</ele><time>2026-04-24T10:42:47.031Z</time></trkpt><trkpt lat="43.0380692" lon="12.8885941"><ele>765.0</ele><time>2026-04-24T10:42:48.036Z</time></trkpt><trkpt lat="43.037975" lon="12.8888632"><ele>765.0</ele><time>2026-04-24T10:42:49.036Z</time></trkpt><trkpt lat="43.0378878" lon="12.8891144"><ele>765.0</ele><time>2026-04-24T10:42:50.037Z</time></trkpt><trkpt lat="43.0378058" lon="12.8893548"><ele>765.3333333333334</ele><time>2026-04-24T10:42:51.037Z</time></trkpt><trkpt lat="43.0377339" lon="12.8895987"><ele>765.6666666666667</ele><time>2026-04-24T10:42:52.029Z</time></trkpt><trkpt lat="43.0376596" lon="12.8898457"><ele>766.0</ele><time>2026-04-24T10:42:53.033Z</time></trkpt><trkpt lat="43.0375765" lon="12.8900906"><ele>766.0</ele><time>2026-04-24T10:42:54.03Z</time></trkpt><trkpt lat="43.0374813" lon="12.8903339"><ele>766.0</ele><time>2026-04-24T10:42:55.041Z</time></trkpt><trkpt lat="43.0373813" lon="12.8905698"><ele>766.0</ele><time>2026-04-24T10:42:56.016Z</time></trkpt><trkpt lat="43.0372858" lon="12.8908168"><ele>765.6666666666667</ele><time>2026-04-24T10:42:57.027Z</time></trkpt><trkpt lat="43.0372018" lon="12.8910692"><ele>765.3333333333334</ele><time>2026-04-24T10:42:58.008Z</time></trkpt><trkpt lat="43.03712" lon="12.8913309"><ele>765.0</ele><time>2026-04-24T10:42:59.037Z</time></trkpt><trkpt lat="43.0370334" lon="12.8915951"><ele>763.6666666666666</ele><time>2026-04-24T10:43:00.03Z</time></trkpt><trkpt lat="43.0369425" lon="12.8918556"><ele>762.3333333333333</ele><time>2026-04-24T10:43:01.033Z</time></trkpt><trkpt lat="43.0368497" lon="12.8921059"><ele>761.0</ele><time>2026-04-24T10:43:02.029Z</time></trkpt><trkpt lat="43.036761" lon="12.8923367"><ele>761.0</ele><time>2026-04-24T10:43:03.037Z</time></trkpt><trkpt lat="43.0366681" lon="12.8925517"><ele>761.0</ele><time>2026-04-24T10:43:04.033Z</time></trkpt><trkpt lat="43.0365727" lon="12.8927538"><ele>761.0</ele><time>2026-04-24T10:43:05.038Z</time></trkpt><trkpt lat="43.0364652" lon="12.8929466"><ele>761.3333333333333</ele><time>2026-04-24T10:43:06.024Z</time></trkpt><trkpt lat="43.0363381" lon="12.893103"><ele>761.6666666666666</ele><time>2026-04-24T10:43:07.036Z</time></trkpt><trkpt lat="43.0361988" lon="12.8932243"><ele>762.0</ele><time>2026-04-24T10:43:08.023Z</time></trkpt><trkpt lat="43.0360592" lon="12.8933341"><ele>761.3333333333334</ele><time>2026-04-24T10:43:09.033Z</time></trkpt><trkpt lat="43.0359185" lon="12.8934389"><ele>760.6666666666667</ele><time>2026-04-24T10:43:10.009Z</time></trkpt><trkpt lat="43.0357728" lon="12.8935472"><ele>760.0</ele><time>2026-04-24T10:43:11.037Z</time></trkpt><trkpt lat="43.0356174" lon="12.893657"><ele>760.0</ele><time>2026-04-24T10:43:12.032Z</time></trkpt><trkpt lat="43.0354634" lon="12.893771"><ele>760.0</ele><time>2026-04-24T10:43:13.04Z</time></trkpt><trkpt lat="43.035301" lon="12.8938818"><ele>760.0</ele><time>2026-04-24T10:43:14.033Z</time></trkpt><trkpt lat="43.0351364" lon="12.8939915"><ele>760.6666666666667</ele><time>2026-04-24T10:43:15.044Z</time></trkpt><trkpt lat="43.0349666" lon="12.8940959"><ele>761.3333333333334</ele><time>2026-04-24T10:43:16.039Z</time></trkpt><trkpt lat="43.0347962" lon="12.8941894"><ele>762.0</ele><time>2026-04-24T10:43:17.031Z</time></trkpt><trkpt lat="43.0346282" lon="12.8942643"><ele>760.6666666666666</ele><time>2026-04-24T10:43:18.031Z</time></trkpt><trkpt lat="43.0344693" lon="12.8943244"><ele>759.3333333333333</ele><time>2026-04-24T10:43:19.032Z</time></trkpt><trkpt lat="43.0343118" lon="12.8943637"><ele>758.0</ele><time>2026-04-24T10:43:20.033Z</time></trkpt><trkpt lat="43.0341629" lon="12.8943897"><ele>758.0</ele><time>2026-04-24T10:43:21.044Z</time></trkpt><trkpt lat="43.0340308" lon="12.8944024"><ele>758.0</ele><time>2026-04-24T10:43:22.024Z</time></trkpt><trkpt lat="43.0339092" lon="12.8944174"><ele>758.0</ele><time>2026-04-24T10:43:23.04Z</time></trkpt><trkpt lat="43.0337994" lon="12.8944302"><ele>758.0</ele><time>2026-04-24T10:43:24.035Z</time></trkpt><trkpt lat="43.0336966" lon="12.8944373"><ele>758.0</ele><time>2026-04-24T10:43:25.017Z</time></trkpt><trkpt lat="43.0336" lon="12.8944411"><ele>758.0</ele><time>2026-04-24T10:43:26.023Z</time></trkpt><trkpt lat="43.0334979" lon="12.8944373"><ele>758.0</ele><time>2026-04-24T10:43:27.031Z</time></trkpt><trkpt lat="43.0333943" lon="12.8944167"><ele>758.0</ele><time>2026-04-24T10:43:28.029Z</time></trkpt><trkpt lat="43.0332867" lon="12.8943761"><ele>758.0</ele><time>2026-04-24T10:43:29.027Z</time></trkpt><trkpt lat="43.0331855" lon="12.8943274"><ele>758.2</ele><time>2026-04-24T10:43:30.025Z</time></trkpt><trkpt lat="43.0330868" lon="12.8942744"><ele>758.4</ele><time>2026-04-24T10:43:31.037Z</time></trkpt><trkpt lat="43.0329946" lon="12.8942241"><ele>758.6</ele><time>2026-04-24T10:43:32.033Z</time></trkpt><trkpt lat="43.0329089" lon="12.8941759"><ele>758.8000000000001</ele><time>2026-04-24T10:43:33.007Z</time></trkpt><trkpt lat="43.0328161" lon="12.8941276"><ele>759.0</ele><time>2026-04-24T10:43:34.042Z</time></trkpt><trkpt lat="43.0327116" lon="12.8940709"><ele>758.8000000000001</ele><time>2026-04-24T10:43:35.035Z</time></trkpt><trkpt lat="43.0326142" lon="12.8940156"><ele>758.6</ele><time>2026-04-24T10:43:36.024Z</time></trkpt><trkpt lat="43.0325099" lon="12.8939538"><ele>758.4</ele><time>2026-04-24T10:43:37.038Z</time></trkpt><trkpt lat="43.0324064" lon="12.8938891"><ele>758.2</ele><time>2026-04-24T10:43:38.041Z</time></trkpt><trkpt lat="43.0323067" lon="12.8938282"><ele>758.0</ele><time>2026-04-24T10:43:39.04Z</time></trkpt><trkpt lat="43.0322117" lon="12.8937676"><ele>758.0</ele><time>2026-04-24T10:43:40.033Z</time></trkpt><trkpt lat="43.0321229" lon="12.8937113"><ele>758.0</ele><time>2026-04-24T10:43:41.033Z</time></trkpt><trkpt lat="43.0320444" lon="12.8936573"><ele>758.0</ele><time>2026-04-24T10:43:42.032Z</time></trkpt><trkpt lat="43.0319694" lon="12.8936016"><ele>758.0</ele><time>2026-04-24T10:43:43.032Z</time></trkpt><trkpt lat="43.0318979" lon="12.8935456"><ele>758.0</ele><time>2026-04-24T10:43:44.02Z</time></trkpt><trkpt lat="43.0318291" lon="12.8934955"><ele>758.0</ele><time>2026-04-24T10:43:45.003Z</time></trkpt><trkpt lat="43.0317691" lon="12.8934585"><ele>758.0</ele><time>2026-04-24T10:43:46.041Z</time></trkpt><trkpt lat="43.0316544" lon="12.8934374"><ele>758.0</ele><time>2026-04-24T10:43:48.034Z</time></trkpt><trkpt lat="43.0315827" lon="12.8934403"><ele>758.0</ele><time>2026-04-24T10:43:50.036Z</time></trkpt><trkpt lat="43.0315175" lon="12.8934441"><ele>758.0</ele><time>2026-04-24T10:43:53.025Z</time></trkpt><trkpt lat="43.031474" lon="12.8933618"><ele>758.0</ele><time>2026-04-24T10:44:38.044Z</time></trkpt><trkpt lat="43.0314158" lon="12.8933132"><ele>758.0</ele><time>2026-04-24T10:48:53.029Z</time></trkpt><trkpt lat="43.0313627" lon="12.8932644"><ele>758.5</ele><time>2026-04-24T10:48:55.038Z</time></trkpt><trkpt lat="43.0313176" lon="12.8931896"><ele>759.0</ele><time>2026-04-24T10:48:57.003Z</time></trkpt><trkpt lat="43.0312676" lon="12.8930976"><ele>759.5</ele><time>2026-04-24T10:48:58.994Z</time></trkpt><trkpt lat="43.0311919" lon="12.8930109"><ele>760.0</ele><time>2026-04-24T10:49:01.023Z</time></trkpt><trkpt lat="43.0310976" lon="12.8929326"><ele>760.5</ele><time>2026-04-24T10:49:03.024Z</time></trkpt><trkpt lat="43.0310324" lon="12.8928777"><ele>761.0</ele><time>2026-04-24T10:49:04.006Z</time></trkpt><trkpt lat="43.0309556" lon="12.8928104"><ele>761.0</ele><time>2026-04-24T10:49:05.039Z</time></trkpt><trkpt lat="43.0308665" lon="12.8927347"><ele>761.0</ele><time>2026-04-24T10:49:06.008Z</time></trkpt><trkpt lat="43.0307687" lon="12.8926501"><ele>761.0</ele><time>2026-04-24T10:49:07.015Z</time></trkpt><trkpt lat="43.0306628" lon="12.8925638"><ele>761.0</ele><time>2026-04-24T10:49:07.993Z</time></trkpt><trkpt lat="43.0305531" lon="12.8924747"><ele>761.0</ele><time>2026-04-24T10:49:09.016Z</time></trkpt><trkpt lat="43.0304338" lon="12.8923792"><ele>761.0</ele><time>2026-04-24T10:49:10.016Z</time></trkpt><trkpt lat="43.0303127" lon="12.8922805"><ele>761.0</ele><time>2026-04-24T10:49:11.027Z</time></trkpt><trkpt lat="43.0301871" lon="12.8921855"><ele>761.0</ele><time>2026-04-24T10:49:12.026Z</time></trkpt><trkpt lat="43.0300712" lon="12.8921007"><ele>760.5999999999999</ele><time>2026-04-24T10:49:13.033Z</time></trkpt><trkpt lat="43.0299655" lon="12.892023"><ele>760.2</ele><time>2026-04-24T10:49:14.024Z</time></trkpt><trkpt lat="43.0298645" lon="12.8919529"><ele>759.8</ele><time>2026-04-24T10:49:15.028Z</time></trkpt><trkpt lat="43.0297673" lon="12.891891"><ele>759.4000000000001</ele><time>2026-04-24T10:49:16.043Z</time></trkpt><trkpt lat="43.0296757" lon="12.8918359"><ele>759.0</ele><time>2026-04-24T10:49:17.025Z</time></trkpt><trkpt lat="43.0295943" lon="12.8917887"><ele>759.1666666666666</ele><time>2026-04-24T10:49:18.031Z</time></trkpt><trkpt lat="43.0295206" lon="12.8917466"><ele>759.3333333333334</ele><time>2026-04-24T10:49:19.02Z</time></trkpt><trkpt lat="43.029446" lon="12.8917075"><ele>759.5</ele><time>2026-04-24T10:49:20.026Z</time></trkpt><trkpt lat="43.0293773" lon="12.8916748"><ele>759.6666666666667</ele><time>2026-04-24T10:49:21.013Z</time></trkpt><trkpt lat="43.0293154" lon="12.8916444"><ele>759.8333333333334</ele><time>2026-04-24T10:49:22Z</time></trkpt><trkpt lat="43.0292555" lon="12.8916138"><ele>760.0</ele><time>2026-04-24T10:49:23.016Z</time></trkpt><trkpt lat="43.0291395" lon="12.8915842"><ele>760.6666666666667</ele><time>2026-04-24T10:49:25.031Z</time></trkpt><trkpt lat="43.0290329" lon="12.8915661"><ele>761.3333333333334</ele><time>2026-04-24T10:49:27.004Z</time></trkpt><trkpt lat="43.0289584" lon="12.8915749"><ele>762.0</ele><time>2026-04-24T10:49:29.004Z</time></trkpt><trkpt lat="43.0288903" lon="12.8915783"><ele>762.6666666666666</ele><time>2026-04-24T10:49:31.026Z</time></trkpt><trkpt lat="43.0288182" lon="12.8915946"><ele>763.3333333333333</ele><time>2026-04-24T10:49:33Z</time></trkpt><trkpt lat="43.0287355" lon="12.8915749"><ele>764.0</ele><time>2026-04-24T10:49:36.025Z</time></trkpt><trkpt lat="43.0286666" lon="12.8914995"><ele>764.0</ele><time>2026-04-24T10:49:39.035Z</time></trkpt><trkpt lat="43.0286118" lon="12.8914485"><ele>764.0</ele><time>2026-04-24T10:49:49.006Z</time></trkpt><trkpt lat="43.0285284" lon="12.8914526"><ele>764.0</ele><time>2026-04-24T10:49:53.013Z</time></trkpt><trkpt lat="43.0284713" lon="12.8915313"><ele>764.0</ele><time>2026-04-24T10:49:54.989Z</time></trkpt><trkpt lat="43.0284577" lon="12.89165"><ele>764.0</ele><time>2026-04-24T10:49:57.036Z</time></trkpt><trkpt lat="43.0284489" lon="12.8917706"><ele>764.0</ele><time>2026-04-24T10:49:59.042Z</time></trkpt><trkpt lat="43.028439" lon="12.8919101"><ele>764.8000000000001</ele><time>2026-04-24T10:50:01.033Z</time></trkpt><trkpt lat="43.0284174" lon="12.8920611"><ele>765.6</ele><time>2026-04-24T10:50:03.035Z</time></trkpt><trkpt lat="43.0284063" lon="12.8921489"><ele>766.4</ele><time>2026-04-24T10:50:04.028Z</time></trkpt><trkpt lat="43.0283878" lon="12.8923168"><ele>767.2</ele><time>2026-04-24T10:50:06.025Z</time></trkpt><trkpt lat="43.0283618" lon="12.8924369"><ele>768.0</ele><time>2026-04-24T10:50:08.042Z</time></trkpt><trkpt lat="43.0283214" lon="12.8925373"><ele>771.2</ele><time>2026-04-24T10:50:13.004Z</time></trkpt><trkpt lat="43.0283007" lon="12.8926348"><ele>774.4</ele><time>2026-04-24T10:50:36.004Z</time></trkpt><trkpt lat="43.028253" lon="12.8927387"><ele>777.6</ele><time>2026-04-24T10:50:38.002Z</time></trkpt><trkpt lat="43.0281844" lon="12.8928514"><ele>780.8000000000001</ele><time>2026-04-24T10:50:40.008Z</time></trkpt><trkpt lat="43.0281123" lon="12.8929491"><ele>784.0</ele><time>2026-04-24T10:50:42.02Z</time></trkpt><trkpt lat="43.0280335" lon="12.8930737"><ele>783.9999999999999</ele><time>2026-04-24T10:50:44.015Z</time></trkpt><trkpt lat="43.0279793" lon="12.8931322"><ele>784.0</ele><time>2026-04-24T10:50:45.02Z</time></trkpt><trkpt lat="43.0279202" lon="12.8931888"><ele>784.0</ele><time>2026-04-24T10:50:46.032Z</time></trkpt><trkpt lat="43.0278561" lon="12.8932503"><ele>784.0</ele><time>2026-04-24T10:50:46.999Z</time></trkpt><trkpt lat="43.0277956" lon="12.8933115"><ele>783.9999999999999</ele><time>2026-04-24T10:50:47.998Z</time></trkpt><trkpt lat="43.0277302" lon="12.8933664"><ele>784.0</ele><time>2026-04-24T10:50:49.014Z</time></trkpt><trkpt lat="43.0276665" lon="12.8934426"><ele>783.8333333333333</ele><time>2026-04-24T10:50:50.002Z</time></trkpt><trkpt lat="43.0276096" lon="12.8935033"><ele>783.6666666666666</ele><time>2026-04-24T10:50:51.008Z</time></trkpt><trkpt lat="43.0275431" lon="12.8935392"><ele>783.5</ele><time>2026-04-24T10:50:52.006Z</time></trkpt><trkpt lat="43.0274735" lon="12.8935392"><ele>783.3333333333333</ele><time>2026-04-24T10:50:53.019Z</time></trkpt><trkpt lat="43.0273882" lon="12.893535"><ele>783.1666666666666</ele><time>2026-04-24T10:50:53.999Z</time></trkpt><trkpt lat="43.0273039" lon="12.8934761"><ele>783.0</ele><time>2026-04-24T10:50:56.017Z</time></trkpt><trkpt lat="43.0272791" lon="12.8933909"><ele>783.1666666666666</ele><time>2026-04-24T10:50:59.02Z</time></trkpt><trkpt lat="43.0273466" lon="12.8933005"><ele>783.3333333333333</ele><time>2026-04-24T10:51:01.018Z</time></trkpt><trkpt lat="43.0274094" lon="12.8931906"><ele>783.5</ele><time>2026-04-24T10:51:03.011Z</time></trkpt><trkpt lat="43.0274293" lon="12.8931037"><ele>783.6666666666666</ele><time>2026-04-24T10:51:03.997Z</time></trkpt><trkpt lat="43.0274544" lon="12.8929959"><ele>783.8333333333333</ele><time>2026-04-24T10:51:05.002Z</time></trkpt><trkpt lat="43.0274808" lon="12.892884"><ele>784.0</ele><time>2026-04-24T10:51:06.032Z</time></trkpt><trkpt lat="43.0275062" lon="12.8927701"><ele>783.9999999999999</ele><time>2026-04-24T10:51:07.017Z</time></trkpt><trkpt lat="43.0275328" lon="12.892653"><ele>784.0</ele><time>2026-04-24T10:51:08.016Z</time></trkpt><trkpt lat="43.0275583" lon="12.8925467"><ele>784.0</ele><time>2026-04-24T10:51:09.022Z</time></trkpt><trkpt lat="43.0275884" lon="12.8924613"><ele>784.0</ele><time>2026-04-24T10:51:10.018Z</time></trkpt><trkpt lat="43.0276085" lon="12.8923711"><ele>783.9999999999999</ele><time>2026-04-24T10:51:11.019Z</time></trkpt><trkpt lat="43.027617" lon="12.8922442"><ele>784.0</ele><time>2026-04-24T10:51:13.033Z</time></trkpt><trkpt lat="43.0275842" lon="12.8921668"><ele>785.1666666666666</ele><time>2026-04-24T10:51:16.018Z</time></trkpt><trkpt lat="43.0275218" lon="12.8922182"><ele>786.3333333333333</ele><time>2026-04-24T10:51:18.003Z</time></trkpt><trkpt lat="43.0274208" lon="12.8922801"><ele>787.5</ele><time>2026-04-24T10:51:20.023Z</time></trkpt><trkpt lat="43.0273531" lon="12.8923216"><ele>788.6666666666667</ele><time>2026-04-24T10:51:21.016Z</time></trkpt><trkpt lat="43.0272763" lon="12.8923647"><ele>789.8333333333334</ele><time>2026-04-24T10:51:22.018Z</time></trkpt><trkpt lat="43.0271995" lon="12.8924159"><ele>791.0</ele><time>2026-04-24T10:51:23.034Z</time></trkpt><trkpt lat="43.027125" lon="12.8924519"><ele>792.6666666666667</ele><time>2026-04-24T10:51:24.013Z</time></trkpt><trkpt lat="43.0270496" lon="12.892457"><ele>794.3333333333334</ele><time>2026-04-24T10:51:25.01Z</time></trkpt><trkpt lat="43.0269778" lon="12.8924236"><ele>796.0</ele><time>2026-04-24T10:51:26.022Z</time></trkpt><trkpt lat="43.026912" lon="12.8923856"><ele>797.6666666666667</ele><time>2026-04-24T10:51:27.024Z</time></trkpt><trkpt lat="43.0268345" lon="12.8923538"><ele>799.3333333333334</ele><time>2026-04-24T10:51:28.015Z</time></trkpt><trkpt lat="43.0267567" lon="12.8923362"><ele>801.0</ele><time>2026-04-24T10:51:29.024Z</time></trkpt><trkpt lat="43.0266811" lon="12.8923291"><ele>802.8333333333334</ele><time>2026-04-24T10:51:30.018Z</time></trkpt><trkpt lat="43.0266061" lon="12.8923266"><ele>804.6666666666667</ele><time>2026-04-24T10:51:31.036Z</time></trkpt><trkpt lat="43.0265283" lon="12.8923178"><ele>806.5</ele><time>2026-04-24T10:51:31.999Z</time></trkpt><trkpt lat="43.026451" lon="12.8922922"><ele>808.3333333333334</ele><time>2026-04-24T10:51:33.023Z</time></trkpt><trkpt lat="43.0263743" lon="12.8922573"><ele>810.1666666666667</ele><time>2026-04-24T10:51:34.023Z</time></trkpt><trkpt lat="43.0262995" lon="12.8922126"><ele>812.0</ele><time>2026-04-24T10:51:35.015Z</time></trkpt><trkpt lat="43.0262284" lon="12.8921621"><ele>812.0</ele><time>2026-04-24T10:51:36.006Z</time></trkpt><trkpt lat="43.026162" lon="12.8921259"><ele>812.0</ele><time>2026-04-24T10:51:37.006Z</time></trkpt><trkpt lat="43.0260633" lon="12.8920919"><ele>812.0</ele><time>2026-04-24T10:51:39.017Z</time></trkpt><trkpt lat="43.0259651" lon="12.8921187"><ele>812.0</ele><time>2026-04-24T10:51:41.031Z</time></trkpt><trkpt lat="43.0258852" lon="12.8922613"><ele>812.0</ele><time>2026-04-24T10:51:43.004Z</time></trkpt><trkpt lat="43.0258747" lon="12.892355"><ele>812.0000000000001</ele><time>2026-04-24T10:51:44Z</time></trkpt><trkpt lat="43.0258606" lon="12.8924621"><ele>812.0</ele><time>2026-04-24T10:51:45.033Z</time></trkpt><trkpt lat="43.0258356" lon="12.8925627"><ele>812.0</ele><time>2026-04-24T10:51:46.022Z</time></trkpt><trkpt lat="43.0257996" lon="12.8926498"><ele>812.0</ele><time>2026-04-24T10:51:47.014Z</time></trkpt><trkpt lat="43.0257578" lon="12.8927234"><ele>812.0000000000001</ele><time>2026-04-24T10:51:48.004Z</time></trkpt><trkpt lat="43.0256796" lon="12.8928246"><ele>812.0</ele><time>2026-04-24T10:51:50.014Z</time></trkpt><trkpt lat="43.0255973" lon="12.8928871"><ele>811.4000000000001</ele><time>2026-04-24T10:51:52.014Z</time></trkpt><trkpt lat="43.0254944" lon="12.8929611"><ele>810.8000000000001</ele><time>2026-04-24T10:51:54.016Z</time></trkpt><trkpt lat="43.025395" lon="12.8929847"><ele>810.2</ele><time>2026-04-24T10:51:55.999Z</time></trkpt><trkpt lat="43.0252964" lon="12.8929345"><ele>809.6</ele><time>2026-04-24T10:51:58.01Z</time></trkpt><trkpt lat="43.0251993" lon="12.8928562"><ele>809.0</ele><time>2026-04-24T10:52:00.03Z</time></trkpt><trkpt lat="43.0250916" lon="12.8927498"><ele>809.0</ele><time>2026-04-24T10:52:02.024Z</time></trkpt><trkpt lat="43.0250392" lon="12.8926783"><ele>809.0</ele><time>2026-04-24T10:52:03.025Z</time></trkpt><trkpt lat="43.0249958" lon="12.8926053"><ele>809.0</ele><time>2026-04-24T10:52:04.012Z</time></trkpt><trkpt lat="43.0249535" lon="12.8925255"><ele>809.0</ele><time>2026-04-24T10:52:05.011Z</time></trkpt><trkpt lat="43.024915" lon="12.8924423"><ele>809.0</ele><time>2026-04-24T10:52:06.016Z</time></trkpt><trkpt lat="43.0248756" lon="12.8923545"><ele>809.0</ele><time>2026-04-24T10:52:07.023Z</time></trkpt><trkpt lat="43.0248308" lon="12.8922626"><ele>809.0</ele><time>2026-04-24T10:52:08.02Z</time></trkpt><trkpt lat="43.0247843" lon="12.8921668"><ele>809.4000000000001</ele><time>2026-04-24T10:52:09.012Z</time></trkpt><trkpt lat="43.0247373" lon="12.8920647"><ele>809.8</ele><time>2026-04-24T10:52:10.023Z</time></trkpt><trkpt lat="43.0246754" lon="12.8919562"><ele>810.2</ele><time>2026-04-24T10:52:11.01Z</time></trkpt><trkpt lat="43.0246069" lon="12.8918464"><ele>810.5999999999999</ele><time>2026-04-24T10:52:11.999Z</time></trkpt><trkpt lat="43.0245388" lon="12.8917375"><ele>811.0</ele><time>2026-04-24T10:52:13.021Z</time></trkpt><trkpt lat="43.0244697" lon="12.8916245"><ele>813.5999999999999</ele><time>2026-04-24T10:52:14Z</time></trkpt><trkpt lat="43.0244064" lon="12.8915138"><ele>816.2</ele><time>2026-04-24T10:52:15.019Z</time></trkpt><trkpt lat="43.0243394" lon="12.891403"><ele>818.8</ele><time>2026-04-24T10:52:16.006Z</time></trkpt><trkpt lat="43.0242676" lon="12.8912951"><ele>821.4000000000001</ele><time>2026-04-24T10:52:17.019Z</time></trkpt><trkpt lat="43.0241938" lon="12.8911907"><ele>824.0</ele><time>2026-04-24T10:52:18.019Z</time></trkpt><trkpt lat="43.0241367" lon="12.8910874"><ele>824.0</ele><time>2026-04-24T10:52:19.036Z</time></trkpt><trkpt lat="43.0240827" lon="12.890981"><ele>824.0</ele><time>2026-04-24T10:52:20Z</time></trkpt><trkpt lat="43.0240538" lon="12.8908566"><ele>824.0</ele><time>2026-04-24T10:52:21.011Z</time></trkpt><trkpt lat="43.0240207" lon="12.8907318"><ele>824.0</ele><time>2026-04-24T10:52:22.018Z</time></trkpt><trkpt lat="43.0239839" lon="12.8905949"><ele>824.0</ele><time>2026-04-24T10:52:23.019Z</time></trkpt><trkpt lat="43.0239635" lon="12.8904455"><ele>826.75</ele><time>2026-04-24T10:52:24.013Z</time></trkpt><trkpt lat="43.023951" lon="12.8902913"><ele>829.5</ele><time>2026-04-24T10:52:25.028Z</time></trkpt><trkpt lat="43.0239258" lon="12.8901356"><ele>832.25</ele><time>2026-04-24T10:52:26.01Z</time></trkpt><trkpt lat="43.0238927" lon="12.8899726"><ele>835.0</ele><time>2026-04-24T10:52:27.002Z</time></trkpt><trkpt lat="43.0238616" lon="12.8898085"><ele>837.6</ele><time>2026-04-24T10:52:28.016Z</time></trkpt><trkpt lat="43.0238321" lon="12.8896529"><ele>840.2</ele><time>2026-04-24T10:52:29.032Z</time></trkpt><trkpt lat="43.0238211" lon="12.8894981"><ele>842.8</ele><time>2026-04-24T10:52:30.011Z</time></trkpt><trkpt lat="43.0238162" lon="12.8893608"><ele>845.4</ele><time>2026-04-24T10:52:31.032Z</time></trkpt><trkpt lat="43.0238074" lon="12.8892263"><ele>848.0</ele><time>2026-04-24T10:52:32.013Z</time></trkpt><trkpt lat="43.0237999" lon="12.8891129"><ele>850.5000000000001</ele><time>2026-04-24T10:52:33.025Z</time></trkpt><trkpt lat="43.023786" lon="12.889012"><ele>853.0</ele><time>2026-04-24T10:52:34.001Z</time></trkpt><trkpt lat="43.0237471" lon="12.8889095"><ele>855.5</ele><time>2026-04-24T10:52:35.023Z</time></trkpt><trkpt lat="43.0236899" lon="12.8888078"><ele>858.0</ele><time>2026-04-24T10:52:36.026Z</time></trkpt><trkpt lat="43.0236325" lon="12.8887043"><ele>860.5000000000001</ele><time>2026-04-24T10:52:37.006Z</time></trkpt><trkpt lat="43.0235665" lon="12.8886038"><ele>863.0</ele><time>2026-04-24T10:52:38.018Z</time></trkpt><trkpt lat="43.0234959" lon="12.8885024"><ele>864.0</ele><time>2026-04-24T10:52:39.014Z</time></trkpt><trkpt lat="43.0234275" lon="12.8884058"><ele>865.0</ele><time>2026-04-24T10:52:40.017Z</time></trkpt><trkpt lat="43.0233599" lon="12.8883085"><ele>866.0</ele><time>2026-04-24T10:52:41.015Z</time></trkpt><trkpt lat="43.023292" lon="12.8882041"><ele>867.0</ele><time>2026-04-24T10:52:42.011Z</time></trkpt><trkpt lat="43.023221" lon="12.8880903"><ele>868.0</ele><time>2026-04-24T10:52:43.003Z</time></trkpt><trkpt lat="43.0231501" lon="12.8879706"><ele>872.5</ele><time>2026-04-24T10:52:44.014Z</time></trkpt><trkpt lat="43.0230732" lon="12.8878401"><ele>877.0</ele><time>2026-04-24T10:52:45.011Z</time></trkpt><trkpt lat="43.0229957" lon="12.887705"><ele>881.5</ele><time>2026-04-24T10:52:46.007Z</time></trkpt><trkpt lat="43.022921" lon="12.8875709"><ele>886.0</ele><time>2026-04-24T10:52:47.013Z</time></trkpt><trkpt lat="43.0228539" lon="12.8874295"><ele>886.0</ele><time>2026-04-24T10:52:48.023Z</time></trkpt><trkpt lat="43.0227921" lon="12.8872848"><ele>885.9999999999999</ele><time>2026-04-24T10:52:49.004Z</time></trkpt><trkpt lat="43.0227418" lon="12.8871568"><ele>885.9999999999999</ele><time>2026-04-24T10:52:50.008Z</time></trkpt><trkpt lat="43.0226917" lon="12.887035"><ele>886.0</ele><time>2026-04-24T10:52:51.009Z</time></trkpt><trkpt lat="43.0226549" lon="12.886945"><ele>886.0</ele><time>2026-04-24T10:52:52.023Z</time></trkpt><trkpt lat="43.0226169" lon="12.8868742"><ele>886.1666666666666</ele><time>2026-04-24T10:52:53.003Z</time></trkpt><trkpt lat="43.0225428" lon="12.8867414"><ele>886.3333333333333</ele><time>2026-04-24T10:52:55.003Z</time></trkpt><trkpt lat="43.0224982" lon="12.8866788"><ele>886.5</ele><time>2026-04-24T10:52:56.019Z</time></trkpt><trkpt lat="43.0224508" lon="12.8866129"><ele>886.6666666666667</ele><time>2026-04-24T10:52:57.014Z</time></trkpt><trkpt lat="43.0223999" lon="12.8865464"><ele>886.8333333333334</ele><time>2026-04-24T10:52:58.011Z</time></trkpt><trkpt lat="43.0223495" lon="12.8864772"><ele>887.0</ele><time>2026-04-24T10:52:59.015Z</time></trkpt><trkpt lat="43.022291" lon="12.8864117"><ele>887.0000000000001</ele><time>2026-04-24T10:53:00.01Z</time></trkpt><trkpt lat="43.0222244" lon="12.8863488"><ele>887.0</ele><time>2026-04-24T10:53:01.018Z</time></trkpt><trkpt lat="43.0221548" lon="12.8862917"><ele>887.0</ele><time>2026-04-24T10:53:02.014Z</time></trkpt><trkpt lat="43.0220931" lon="12.8862366"><ele>887.0</ele><time>2026-04-24T10:53:03.018Z</time></trkpt><trkpt lat="43.0220255" lon="12.8861839"><ele>887.0000000000001</ele><time>2026-04-24T10:53:04.001Z</time></trkpt><trkpt lat="43.0219492" lon="12.8861385"><ele>887.0</ele><time>2026-04-24T10:53:05.008Z</time></trkpt><trkpt lat="43.0218675" lon="12.8860958"><ele>887.0</ele><time>2026-04-24T10:53:06.003Z</time></trkpt><trkpt lat="43.0217844" lon="12.8860471"><ele>887.0</ele><time>2026-04-24T10:53:07.005Z</time></trkpt><trkpt lat="43.0217095" lon="12.886009"><ele>887.0</ele><time>2026-04-24T10:53:07.998Z</time></trkpt><trkpt lat="43.0216285" lon="12.8859637"><ele>887.0</ele><time>2026-04-24T10:53:09.014Z</time></trkpt><trkpt lat="43.0215365" lon="12.8859245"><ele>887.0</ele><time>2026-04-24T10:53:10.003Z</time></trkpt><trkpt lat="43.0214394" lon="12.8858788"><ele>884.25</ele><time>2026-04-24T10:53:11.01Z</time></trkpt><trkpt lat="43.0213367" lon="12.8858284"><ele>881.5</ele><time>2026-04-24T10:53:12.004Z</time></trkpt><trkpt lat="43.0212264" lon="12.8857926"><ele>878.75</ele><time>2026-04-24T10:53:13.003Z</time></trkpt><trkpt lat="43.0211122" lon="12.8857476"><ele>876.0</ele><time>2026-04-24T10:53:14Z</time></trkpt><trkpt lat="43.0209911" lon="12.8857129"><ele>876.0</ele><time>2026-04-24T10:53:15.01Z</time></trkpt><trkpt lat="43.0208693" lon="12.8856678"><ele>876.0</ele><time>2026-04-24T10:53:15.995Z</time></trkpt><trkpt lat="43.0207512" lon="12.8856163"><ele>876.0</ele><time>2026-04-24T10:53:17.028Z</time></trkpt><trkpt lat="43.0206375" lon="12.8855573"><ele>876.0</ele><time>2026-04-24T10:53:18Z</time></trkpt><trkpt lat="43.0205164" lon="12.8854918"><ele>876.4</ele><time>2026-04-24T10:53:18.999Z</time></trkpt><trkpt lat="43.020403" lon="12.8854307"><ele>876.8</ele><time>2026-04-24T10:53:20.011Z</time></trkpt><trkpt lat="43.0202973" lon="12.8853699"><ele>877.1999999999999</ele><time>2026-04-24T10:53:20.996Z</time></trkpt><trkpt lat="43.0201967" lon="12.8853143"><ele>877.5999999999999</ele><time>2026-04-24T10:53:22.002Z</time></trkpt><trkpt lat="43.0200999" lon="12.8852628"><ele>878.0</ele><time>2026-04-24T10:53:23.007Z</time></trkpt><trkpt lat="43.020007" lon="12.8852101"><ele>877.5999999999999</ele><time>2026-04-24T10:53:24.013Z</time></trkpt><trkpt lat="43.0199092" lon="12.8851643"><ele>877.1999999999999</ele><time>2026-04-24T10:53:25.03Z</time></trkpt><trkpt lat="43.0198153" lon="12.8851181"><ele>876.8</ele><time>2026-04-24T10:53:26Z</time></trkpt><trkpt lat="43.0197221" lon="12.8850723"><ele>876.4</ele><time>2026-04-24T10:53:27.011Z</time></trkpt><trkpt lat="43.0196336" lon="12.8850374"><ele>876.0</ele><time>2026-04-24T10:53:28.003Z</time></trkpt><trkpt lat="43.0195378" lon="12.8850108"><ele>872.5</ele><time>2026-04-24T10:53:29.027Z</time></trkpt><trkpt lat="43.0194314" lon="12.8849813"><ele>869.0</ele><time>2026-04-24T10:53:30.01Z</time></trkpt><trkpt lat="43.0193155" lon="12.8849589"><ele>865.5</ele><time>2026-04-24T10:53:31.014Z</time></trkpt><trkpt lat="43.0192035" lon="12.8849182"><ele>862.0</ele><time>2026-04-24T10:53:32.01Z</time></trkpt><trkpt lat="43.0190895" lon="12.8848666"><ele>861.5</ele><time>2026-04-24T10:53:33.013Z</time></trkpt><trkpt lat="43.0189796" lon="12.8848175"><ele>861.0</ele><time>2026-04-24T10:53:34.009Z</time></trkpt><trkpt lat="43.0188686" lon="12.8847806"><ele>860.5</ele><time>2026-04-24T10:53:34.995Z</time></trkpt><trkpt lat="43.0187657" lon="12.8847342"><ele>860.0</ele><time>2026-04-24T10:53:36.005Z</time></trkpt><trkpt lat="43.0186604" lon="12.8846835"><ele>860.0</ele><time>2026-04-24T10:53:37.017Z</time></trkpt><trkpt lat="43.0185641" lon="12.8846312"><ele>860.0</ele><time>2026-04-24T10:53:37.999Z</time></trkpt><trkpt lat="43.018473" lon="12.8845808"><ele>860.0</ele><time>2026-04-24T10:53:39.014Z</time></trkpt><trkpt lat="43.0183829" lon="12.8845338"><ele>860.0</ele><time>2026-04-24T10:53:40.013Z</time></trkpt><trkpt lat="43.0182895" lon="12.8844777"><ele>860.0</ele><time>2026-04-24T10:53:41.007Z</time></trkpt><trkpt lat="43.0181989" lon="12.8844328"><ele>859.0</ele><time>2026-04-24T10:53:42.014Z</time></trkpt><trkpt lat="43.0181086" lon="12.8843829"><ele>858.0</ele><time>2026-04-24T10:53:43.004Z</time></trkpt><trkpt lat="43.01802" lon="12.8843369"><ele>857.0</ele><time>2026-04-24T10:53:44.009Z</time></trkpt><trkpt lat="43.01793" lon="12.884298"><ele>856.0</ele><time>2026-04-24T10:53:44.998Z</time></trkpt><trkpt lat="43.0178482" lon="12.8842601"><ele>855.0</ele><time>2026-04-24T10:53:46.013Z</time></trkpt><trkpt lat="43.0177697" lon="12.8842389"><ele>852.2</ele><time>2026-04-24T10:53:47.018Z</time></trkpt><trkpt lat="43.0176879" lon="12.8842219"><ele>849.4</ele><time>2026-04-24T10:53:48.01Z</time></trkpt><trkpt lat="43.0175987" lon="12.8842164"><ele>846.5999999999999</ele><time>2026-04-24T10:53:49.001Z</time></trkpt><trkpt lat="43.0174997" lon="12.8842179"><ele>843.8</ele><time>2026-04-24T10:53:50.003Z</time></trkpt><trkpt lat="43.0173919" lon="12.8842309"><ele>841.0</ele><time>2026-04-24T10:53:51.008Z</time></trkpt><trkpt lat="43.0172712" lon="12.884247"><ele>842.0</ele><time>2026-04-24T10:53:51.995Z</time></trkpt><trkpt lat="43.0171515" lon="12.8842582"><ele>843.0</ele><time>2026-04-24T10:53:52.993Z</time></trkpt><trkpt lat="43.0170384" lon="12.884276"><ele>844.0</ele><time>2026-04-24T10:53:54Z</time></trkpt><trkpt lat="43.0169314" lon="12.8843094"><ele>845.0</ele><time>2026-04-24T10:53:55.005Z</time></trkpt><trkpt lat="43.0168153" lon="12.8843392"><ele>845.0</ele><time>2026-04-24T10:53:55.997Z</time></trkpt><trkpt lat="43.016706" lon="12.8843704"><ele>845.0</ele><time>2026-04-24T10:53:56.999Z</time></trkpt><trkpt lat="43.0165861" lon="12.884386"><ele>845.0</ele><time>2026-04-24T10:53:58.01Z</time></trkpt><trkpt lat="43.0164665" lon="12.8843995"><ele>845.0</ele><time>2026-04-24T10:53:59.01Z</time></trkpt><trkpt lat="43.0163518" lon="12.8844186"><ele>841.75</ele><time>2026-04-24T10:53:59.999Z</time></trkpt><trkpt lat="43.0162457" lon="12.8844291"><ele>838.5</ele><time>2026-04-24T10:54:01.009Z</time></trkpt><trkpt lat="43.0161279" lon="12.8844369"><ele>835.25</ele><time>2026-04-24T10:54:02.009Z</time></trkpt><trkpt lat="43.0160036" lon="12.8844491"><ele>832.0</ele><time>2026-04-24T10:54:03.011Z</time></trkpt><trkpt lat="43.015886" lon="12.8844551"><ele>830.6</ele><time>2026-04-24T10:54:04.024Z</time></trkpt><trkpt lat="43.0157702" lon="12.8844658"><ele>829.2</ele><time>2026-04-24T10:54:05.018Z</time></trkpt><trkpt lat="43.0156662" lon="12.8844601"><ele>827.8</ele><time>2026-04-24T10:54:06.002Z</time></trkpt><trkpt lat="43.0155708" lon="12.884456"><ele>826.4</ele><time>2026-04-24T10:54:07.016Z</time></trkpt><trkpt lat="43.0154812" lon="12.8844625"><ele>825.0</ele><time>2026-04-24T10:54:08.017Z</time></trkpt><trkpt lat="43.0153835" lon="12.8844767"><ele>825.0</ele><time>2026-04-24T10:54:09.02Z</time></trkpt><trkpt lat="43.0152802" lon="12.8844994"><ele>825.0</ele><time>2026-04-24T10:54:10.01Z</time></trkpt><trkpt lat="43.0151843" lon="12.8845273"><ele>825.0</ele><time>2026-04-24T10:54:11.014Z</time></trkpt><trkpt lat="43.0150865" lon="12.8845655"><ele>825.0</ele><time>2026-04-24T10:54:11.999Z</time></trkpt><trkpt lat="43.0149779" lon="12.8846098"><ele>825.0</ele><time>2026-04-24T10:54:13.026Z</time></trkpt><trkpt lat="43.0148669" lon="12.8846564"><ele>824.0</ele><time>2026-04-24T10:54:14.02Z</time></trkpt><trkpt lat="43.0147582" lon="12.8847028"><ele>823.0</ele><time>2026-04-24T10:54:15.02Z</time></trkpt><trkpt lat="43.0146449" lon="12.8847585"><ele>822.0</ele><time>2026-04-24T10:54:16.028Z</time></trkpt><trkpt lat="43.0145332" lon="12.8848072"><ele>821.0</ele><time>2026-04-24T10:54:17.009Z</time></trkpt><trkpt lat="43.0144226" lon="12.8848431"><ele>821.0</ele><time>2026-04-24T10:54:17.994Z</time></trkpt><trkpt lat="43.0143212" lon="12.8848753"><ele>821.0</ele><time>2026-04-24T10:54:19.019Z</time></trkpt><trkpt lat="43.0142136" lon="12.8849211"><ele>821.0</ele><time>2026-04-24T10:54:19.991Z</time></trkpt><trkpt lat="43.0141018" lon="12.8849693"><ele>821.0</ele><time>2026-04-24T10:54:21.035Z</time></trkpt><trkpt lat="43.0140012" lon="12.8850211"><ele>821.0</ele><time>2026-04-24T10:54:22.005Z</time></trkpt><trkpt lat="43.0138996" lon="12.8850811"><ele>822.0</ele><time>2026-04-24T10:54:23.009Z</time></trkpt><trkpt lat="43.0137922" lon="12.8851511"><ele>823.0</ele><time>2026-04-24T10:54:24.012Z</time></trkpt><trkpt lat="43.0136832" lon="12.8852254"><ele>824.0</ele><time>2026-04-24T10:54:25.03Z</time></trkpt><trkpt lat="43.01357" lon="12.8853013"><ele>825.0</ele><time>2026-04-24T10:54:26.024Z</time></trkpt><trkpt lat="43.0134646" lon="12.8853842"><ele>825.0</ele><time>2026-04-24T10:54:27.018Z</time></trkpt><trkpt lat="43.0133602" lon="12.885458"><ele>825.0</ele><time>2026-04-24T10:54:28.012Z</time></trkpt><trkpt lat="43.01326" lon="12.8855272"><ele>825.0</ele><time>2026-04-24T10:54:29.022Z</time></trkpt><trkpt lat="43.0131567" lon="12.8856028"><ele>825.0</ele><time>2026-04-24T10:54:30.018Z</time></trkpt><trkpt lat="43.013046" lon="12.8856745"><ele>824.75</ele><time>2026-04-24T10:54:30.994Z</time></trkpt><trkpt lat="43.0129314" lon="12.8857345"><ele>824.5</ele><time>2026-04-24T10:54:32.023Z</time></trkpt><trkpt lat="43.0128021" lon="12.8857773"><ele>824.25</ele><time>2026-04-24T10:54:33.003Z</time></trkpt><trkpt lat="43.0126648" lon="12.8858039"><ele>824.0</ele><time>2026-04-24T10:54:34.006Z</time></trkpt><trkpt lat="43.0125238" lon="12.8858242"><ele>824.6666666666667</ele><time>2026-04-24T10:54:35.013Z</time></trkpt><trkpt lat="43.0123751" lon="12.8858385"><ele>825.3333333333333</ele><time>2026-04-24T10:54:36.007Z</time></trkpt><trkpt lat="43.0122182" lon="12.885841"><ele>826.0</ele><time>2026-04-24T10:54:37.011Z</time></trkpt><trkpt lat="43.0120576" lon="12.8858348"><ele>826.0</ele><time>2026-04-24T10:54:38.022Z</time></trkpt><trkpt lat="43.0119052" lon="12.8858312"><ele>826.0</ele><time>2026-04-24T10:54:39Z</time></trkpt><trkpt lat="43.0117632" lon="12.8858318"><ele>826.0</ele><time>2026-04-24T10:54:40.029Z</time></trkpt><trkpt lat="43.0116289" lon="12.8858488"><ele>826.0</ele><time>2026-04-24T10:54:41.014Z</time></trkpt><trkpt lat="43.0114972" lon="12.8858831"><ele>827.0</ele><time>2026-04-24T10:54:42.009Z</time></trkpt><trkpt lat="43.0113711" lon="12.8859105"><ele>828.0</ele><time>2026-04-24T10:54:43.021Z</time></trkpt><trkpt lat="43.011247" lon="12.8859143"><ele>829.0</ele><time>2026-04-24T10:54:44.009Z</time></trkpt><trkpt lat="43.0111113" lon="12.8859007"><ele>830.0</ele><time>2026-04-24T10:54:45.022Z</time></trkpt><trkpt lat="43.0109648" lon="12.8858771"><ele>832.0</ele><time>2026-04-24T10:54:46.017Z</time></trkpt><trkpt lat="43.0108131" lon="12.8858494"><ele>834.0</ele><time>2026-04-24T10:54:47.012Z</time></trkpt><trkpt lat="43.0106655" lon="12.8858028"><ele>836.0</ele><time>2026-04-24T10:54:48.001Z</time></trkpt><trkpt lat="43.0105116" lon="12.8857647"><ele>836.0</ele><time>2026-04-24T10:54:49.028Z</time></trkpt><trkpt lat="43.0103589" lon="12.8857312"><ele>836.0</ele><time>2026-04-24T10:54:50.033Z</time></trkpt><trkpt lat="43.0102089" lon="12.88569"><ele>836.0</ele><time>2026-04-24T10:54:51.017Z</time></trkpt><trkpt lat="43.0100505" lon="12.8856536"><ele>838.0</ele><time>2026-04-24T10:54:52.006Z</time></trkpt><trkpt lat="43.0098951" lon="12.8856147"><ele>840.0</ele><time>2026-04-24T10:54:53.021Z</time></trkpt><trkpt lat="43.0097256" lon="12.8855852"><ele>842.0</ele><time>2026-04-24T10:54:54.024Z</time></trkpt><trkpt lat="43.0095596" lon="12.8855631"><ele>842.0</ele><time>2026-04-24T10:54:55.017Z</time></trkpt><trkpt lat="43.0093916" lon="12.8855368"><ele>842.0</ele><time>2026-04-24T10:54:56.018Z</time></trkpt><trkpt lat="43.0092265" lon="12.8855043"><ele>842.0</ele><time>2026-04-24T10:54:56.993Z</time></trkpt><trkpt lat="43.0090676" lon="12.8854709"><ele>844.0</ele><time>2026-04-24T10:54:58.02Z</time></trkpt><trkpt lat="43.0089263" lon="12.8854442"><ele>846.0</ele><time>2026-04-24T10:54:59.009Z</time></trkpt><trkpt lat="43.0087918" lon="12.8854137"><ele>848.0</ele><time>2026-04-24T10:55:00.014Z</time></trkpt><trkpt lat="43.0086585" lon="12.8853817"><ele>850.0</ele><time>2026-04-24T10:55:01.017Z</time></trkpt><trkpt lat="43.0085211" lon="12.8853511"><ele>850.0</ele><time>2026-04-24T10:55:02.008Z</time></trkpt><trkpt lat="43.008382" lon="12.8853281"><ele>850.0</ele><time>2026-04-24T10:55:03.014Z</time></trkpt><trkpt lat="43.0082425" lon="12.8853061"><ele>850.0</ele><time>2026-04-24T10:55:04.018Z</time></trkpt><trkpt lat="43.0081075" lon="12.8852851"><ele>850.0</ele><time>2026-04-24T10:55:05.031Z</time></trkpt><trkpt lat="43.0079717" lon="12.8852609"><ele>851.5</ele><time>2026-04-24T10:55:06.013Z</time></trkpt><trkpt lat="43.0078387" lon="12.8852433"><ele>853.0</ele><time>2026-04-24T10:55:07.014Z</time></trkpt><trkpt lat="43.0077019" lon="12.8852246"><ele>854.5</ele><time>2026-04-24T10:55:08.022Z</time></trkpt><trkpt lat="43.0075594" lon="12.8851991"><ele>856.0</ele><time>2026-04-24T10:55:08.998Z</time></trkpt><trkpt lat="43.0074136" lon="12.8851719"><ele>856.6666666666666</ele><time>2026-04-24T10:55:10.009Z</time></trkpt><trkpt lat="43.0072647" lon="12.885143"><ele>857.3333333333333</ele><time>2026-04-24T10:55:11.029Z</time></trkpt><trkpt lat="43.0071119" lon="12.8851099"><ele>858.0</ele><time>2026-04-24T10:55:12.016Z</time></trkpt><trkpt lat="43.0069637" lon="12.8850762"><ele>858.5</ele><time>2026-04-24T10:55:13.035Z</time></trkpt><trkpt lat="43.006824" lon="12.8850465"><ele>859.0</ele><time>2026-04-24T10:55:14.01Z</time></trkpt><trkpt lat="43.0067035" lon="12.885026"><ele>859.5</ele><time>2026-04-24T10:55:15.018Z</time></trkpt><trkpt lat="43.00658" lon="12.885022"><ele>860.0</ele><time>2026-04-24T10:55:16.02Z</time></trkpt><trkpt lat="43.0064512" lon="12.8850388"><ele>861.5</ele><time>2026-04-24T10:55:17.015Z</time></trkpt><trkpt lat="43.006321" lon="12.8850605"><ele>863.0</ele><time>2026-04-24T10:55:18.011Z</time></trkpt><trkpt lat="43.006199" lon="12.8850738"><ele>864.5</ele><time>2026-04-24T10:55:19.031Z</time></trkpt><trkpt lat="43.0060872" lon="12.8850964"><ele>866.0</ele><time>2026-04-24T10:55:20.021Z</time></trkpt><trkpt lat="43.0059763" lon="12.8851494"><ele>866.0</ele><time>2026-04-24T10:55:21.011Z</time></trkpt><trkpt lat="43.0058706" lon="12.8852567"><ele>866.0</ele><time>2026-04-24T10:55:22.013Z</time></trkpt><trkpt lat="43.0057763" lon="12.8853833"><ele>866.0</ele><time>2026-04-24T10:55:23.025Z</time></trkpt><trkpt lat="43.0056826" lon="12.8855193"><ele>866.0</ele><time>2026-04-24T10:55:24.032Z</time></trkpt><trkpt lat="43.005597" lon="12.8856696"><ele>866.5</ele><time>2026-04-24T10:55:25.015Z</time></trkpt><trkpt lat="43.0055142" lon="12.8858038"><ele>867.0</ele><time>2026-04-24T10:55:26.027Z</time></trkpt><trkpt lat="43.0054342" lon="12.8859375"><ele>867.5</ele><time>2026-04-24T10:55:27.015Z</time></trkpt><trkpt lat="43.0053381" lon="12.886059"><ele>868.0</ele><time>2026-04-24T10:55:28.02Z</time></trkpt><trkpt lat="43.0052518" lon="12.8861759"><ele>868.0</ele><time>2026-04-24T10:55:29.017Z</time></trkpt><trkpt lat="43.0051633" lon="12.8862933"><ele>868.0</ele><time>2026-04-24T10:55:29.998Z</time></trkpt><trkpt lat="43.0050604" lon="12.8863991"><ele>868.0</ele><time>2026-04-24T10:55:31.024Z</time></trkpt><trkpt lat="43.004942" lon="12.8864917"><ele>868.0</ele><time>2026-04-24T10:55:32.012Z</time></trkpt><trkpt lat="43.0048206" lon="12.8865745"><ele>868.0</ele><time>2026-04-24T10:55:33.027Z</time></trkpt><trkpt lat="43.0046976" lon="12.8866597"><ele>868.0</ele><time>2026-04-24T10:55:34.011Z</time></trkpt><trkpt lat="43.0045656" lon="12.8867414"><ele>868.0</ele><time>2026-04-24T10:55:35.03Z</time></trkpt><trkpt lat="43.0044302" lon="12.8868144"><ele>868.0</ele><time>2026-04-24T10:55:36.008Z</time></trkpt><trkpt lat="43.0042867" lon="12.8868783"><ele>870.5</ele><time>2026-04-24T10:55:37.007Z</time></trkpt><trkpt lat="43.0041381" lon="12.8869491"><ele>873.0</ele><time>2026-04-24T10:55:37.998Z</time></trkpt><trkpt lat="43.0039973" lon="12.8870219"><ele>875.5</ele><time>2026-04-24T10:55:39.022Z</time></trkpt><trkpt lat="43.0038694" lon="12.887097"><ele>878.0</ele><time>2026-04-24T10:55:40.025Z</time></trkpt><trkpt lat="43.0037536" lon="12.8871817"><ele>878.0</ele><time>2026-04-24T10:55:41.023Z</time></trkpt><trkpt lat="43.003639" lon="12.8872767"><ele>878.0</ele><time>2026-04-24T10:55:42.018Z</time></trkpt><trkpt lat="43.0035207" lon="12.8873672"><ele>878.0</ele><time>2026-04-24T10:55:43.009Z</time></trkpt><trkpt lat="43.0033896" lon="12.8874497"><ele>878.0</ele><time>2026-04-24T10:55:44.004Z</time></trkpt><trkpt lat="43.0032423" lon="12.8875178"><ele>880.0</ele><time>2026-04-24T10:55:45.021Z</time></trkpt><trkpt lat="43.0030868" lon="12.8875772"><ele>882.0</ele><time>2026-04-24T10:55:46.016Z</time></trkpt><trkpt lat="43.0029298" lon="12.8876384"><ele>884.0</ele><time>2026-04-24T10:55:47.001Z</time></trkpt><trkpt lat="43.0027889" lon="12.8876917"><ele>881.25</ele><time>2026-04-24T10:55:48.012Z</time></trkpt><trkpt lat="43.0026481" lon="12.8877267"><ele>878.5</ele><time>2026-04-24T10:55:49.035Z</time></trkpt><trkpt lat="43.0025058" lon="12.8877512"><ele>875.75</ele><time>2026-04-24T10:55:50.003Z</time></trkpt><trkpt lat="43.0023671" lon="12.8877657"><ele>873.0</ele><time>2026-04-24T10:55:51.009Z</time></trkpt><trkpt lat="43.0022353" lon="12.8877893"><ele>873.0</ele><time>2026-04-24T10:55:52.022Z</time></trkpt><trkpt lat="43.0021199" lon="12.8878245"><ele>873.0</ele><time>2026-04-24T10:55:53.023Z</time></trkpt><trkpt lat="43.0020021" lon="12.8878541"><ele>873.0</ele><time>2026-04-24T10:55:54.011Z</time></trkpt><trkpt lat="43.0018788" lon="12.8878767"><ele>873.0</ele><time>2026-04-24T10:55:55.017Z</time></trkpt><trkpt lat="43.0017584" lon="12.8878941"><ele>871.5999999999999</ele><time>2026-04-24T10:55:56.002Z</time></trkpt><trkpt lat="43.0016409" lon="12.88791"><ele>870.1999999999999</ele><time>2026-04-24T10:55:57.025Z</time></trkpt><trkpt lat="43.0015267" lon="12.8879251"><ele>868.8</ele><time>2026-04-24T10:55:58.013Z</time></trkpt><trkpt lat="43.0014216" lon="12.8879382"><ele>867.4</ele><time>2026-04-24T10:55:59.016Z</time></trkpt><trkpt lat="43.0013131" lon="12.8879436"><ele>866.0</ele><time>2026-04-24T10:56:00.023Z</time></trkpt><trkpt lat="43.0012053" lon="12.8879375"><ele>866.0</ele><time>2026-04-24T10:56:01.021Z</time></trkpt><trkpt lat="43.0010924" lon="12.8879257"><ele>866.0</ele><time>2026-04-24T10:56:02.012Z</time></trkpt><trkpt lat="43.0009761" lon="12.8879104"><ele>866.0</ele><time>2026-04-24T10:56:03.023Z</time></trkpt><trkpt lat="43.0008673" lon="12.8878876"><ele>866.0</ele><time>2026-04-24T10:56:04.019Z</time></trkpt><trkpt lat="43.0007576" lon="12.8878659"><ele>862.5999999999999</ele><time>2026-04-24T10:56:05.004Z</time></trkpt><trkpt lat="43.0006503" lon="12.8878318"><ele>859.1999999999999</ele><time>2026-04-24T10:56:06.005Z</time></trkpt><trkpt lat="43.0005391" lon="12.8878033"><ele>855.8</ele><time>2026-04-24T10:56:07.019Z</time></trkpt><trkpt lat="43.0004286" lon="12.8877816"><ele>852.4000000000001</ele><time>2026-04-24T10:56:08.028Z</time></trkpt><trkpt lat="43.0003186" lon="12.887755"><ele>849.0</ele><time>2026-04-24T10:56:09.02Z</time></trkpt><trkpt lat="43.0002157" lon="12.8877273"><ele>849.0</ele><time>2026-04-24T10:56:10.003Z</time></trkpt><trkpt lat="43.0001078" lon="12.8876869"><ele>849.0</ele><time>2026-04-24T10:56:11.024Z</time></trkpt><trkpt lat="43.0000061" lon="12.8876371"><ele>849.0</ele><time>2026-04-24T10:56:12.004Z</time></trkpt><trkpt lat="42.9999062" lon="12.8875709"><ele>849.0</ele><time>2026-04-24T10:56:13.023Z</time></trkpt><trkpt lat="42.9997947" lon="12.8874938"><ele>854.25</ele><time>2026-04-24T10:56:14.012Z</time></trkpt><trkpt lat="42.9996839" lon="12.887406"><ele>859.5</ele><time>2026-04-24T10:56:15.024Z</time></trkpt><trkpt lat="42.9995741" lon="12.8873222"><ele>864.75</ele><time>2026-04-24T10:56:16.005Z</time></trkpt><trkpt lat="42.9994632" lon="12.8872433"><ele>870.0</ele><time>2026-04-24T10:56:17.016Z</time></trkpt><trkpt lat="42.9993517" lon="12.8871622"><ele>870.0</ele><time>2026-04-24T10:56:18.018Z</time></trkpt><trkpt lat="42.9992469" lon="12.8870718"><ele>870.0</ele><time>2026-04-24T10:56:19.008Z</time></trkpt><trkpt lat="42.9991436" lon="12.8869911"><ele>870.0</ele><time>2026-04-24T10:56:20.008Z</time></trkpt><trkpt lat="42.9990462" lon="12.8868966"><ele>870.0</ele><time>2026-04-24T10:56:21.024Z</time></trkpt><trkpt lat="42.998959" lon="12.8868012"><ele>868.6</ele><time>2026-04-24T10:56:22.034Z</time></trkpt><trkpt lat="42.9988765" lon="12.8866902"><ele>867.2</ele><time>2026-04-24T10:56:23.016Z</time></trkpt><trkpt lat="42.9987991" lon="12.8865651"><ele>865.8</ele><time>2026-04-24T10:56:24.01Z</time></trkpt><trkpt lat="42.9987459" lon="12.8864513"><ele>864.4</ele><time>2026-04-24T10:56:24.997Z</time></trkpt><trkpt lat="42.9987147" lon="12.8863515"><ele>863.0</ele><time>2026-04-24T10:56:26.01Z</time></trkpt><trkpt lat="42.998703" lon="12.8862631"><ele>863.0</ele><time>2026-04-24T10:56:27.009Z</time></trkpt><trkpt lat="42.9987039" lon="12.8861739"><ele>863.0</ele><time>2026-04-24T10:56:27.99Z</time></trkpt><trkpt lat="42.9986629" lon="12.8860127"><ele>863.0</ele><time>2026-04-24T10:56:30.006Z</time></trkpt><trkpt lat="42.9986048" lon="12.8859369"><ele>863.0</ele><time>2026-04-24T10:56:31.01Z</time></trkpt><trkpt lat="42.9985304" lon="12.8858597"><ele>863.0</ele><time>2026-04-24T10:56:31.997Z</time></trkpt><trkpt lat="42.9984591" lon="12.8857613"><ele>865.1666666666667</ele><time>2026-04-24T10:56:33.027Z</time></trkpt><trkpt lat="42.998395" lon="12.8856563"><ele>867.3333333333334</ele><time>2026-04-24T10:56:34.006Z</time></trkpt><trkpt lat="42.9983369" lon="12.8855551"><ele>869.5</ele><time>2026-04-24T10:56:35.019Z</time></trkpt><trkpt lat="42.9982984" lon="12.8854556"><ele>871.6666666666667</ele><time>2026-04-24T10:56:36.019Z</time></trkpt><trkpt lat="42.9982572" lon="12.885332"><ele>873.8333333333334</ele><time>2026-04-24T10:56:37.018Z</time></trkpt><trkpt lat="42.9982471" lon="12.8852328"><ele>876.0</ele><time>2026-04-24T10:56:38.003Z</time></trkpt><trkpt lat="42.9982524" lon="12.8851361"><ele>871.1999999999999</ele><time>2026-04-24T10:56:39.01Z</time></trkpt><trkpt lat="42.9982282" lon="12.8849879"><ele>866.3999999999999</ele><time>2026-04-24T10:56:41.011Z</time></trkpt><trkpt lat="42.9981571" lon="12.8849714"><ele>861.6</ele><time>2026-04-24T10:56:43.022Z</time></trkpt><trkpt lat="42.9981032" lon="12.8851404"><ele>856.8</ele><time>2026-04-24T10:56:45.004Z</time></trkpt><trkpt lat="42.9980939" lon="12.8852534"><ele>852.0</ele><time>2026-04-24T10:56:45.993Z</time></trkpt><trkpt lat="42.9980849" lon="12.8853707"><ele>850.3333333333334</ele><time>2026-04-24T10:56:47.019Z</time></trkpt><trkpt lat="42.9980774" lon="12.8854924"><ele>848.6666666666667</ele><time>2026-04-24T10:56:47.999Z</time></trkpt><trkpt lat="42.9980857" lon="12.8856054"><ele>847.0</ele><time>2026-04-24T10:56:49.004Z</time></trkpt><trkpt lat="42.9981018" lon="12.8857196"><ele>845.3333333333334</ele><time>2026-04-24T10:56:50.004Z</time></trkpt><trkpt lat="42.9981183" lon="12.8858368"><ele>843.6666666666667</ele><time>2026-04-24T10:56:51.014Z</time></trkpt><trkpt lat="42.9981335" lon="12.8859565"><ele>842.0</ele><time>2026-04-24T10:56:52.024Z</time></trkpt><trkpt lat="42.9981429" lon="12.8860842"><ele>840.1666666666667</ele><time>2026-04-24T10:56:53.032Z</time></trkpt><trkpt lat="42.9981462" lon="12.8862202"><ele>838.3333333333334</ele><time>2026-04-24T10:56:54.01Z</time></trkpt><trkpt lat="42.9981358" lon="12.8863406"><ele>836.5</ele><time>2026-04-24T10:56:55.007Z</time></trkpt><trkpt lat="42.9981158" lon="12.8864361"><ele>834.6666666666667</ele><time>2026-04-24T10:56:55.992Z</time></trkpt><trkpt lat="42.9980714" lon="12.8865087"><ele>832.8333333333334</ele><time>2026-04-24T10:56:57.012Z</time></trkpt><trkpt lat="42.9979985" lon="12.8865697"><ele>831.0</ele><time>2026-04-24T10:56:58.008Z</time></trkpt><trkpt lat="42.9979129" lon="12.8866204"><ele>831.0</ele><time>2026-04-24T10:56:59.005Z</time></trkpt><trkpt lat="42.9978152" lon="12.886685"><ele>831.0</ele><time>2026-04-24T10:57:00Z</time></trkpt><trkpt lat="42.9977288" lon="12.8867673"><ele>831.0</ele><time>2026-04-24T10:57:01.017Z</time></trkpt><trkpt lat="42.9976516" lon="12.8868659"><ele>831.0</ele><time>2026-04-24T10:57:01.998Z</time></trkpt><trkpt lat="42.9976013" lon="12.8869658"><ele>831.0</ele><time>2026-04-24T10:57:03.011Z</time></trkpt><trkpt lat="42.9975808" lon="12.8870844"><ele>828.8</ele><time>2026-04-24T10:57:04.006Z</time></trkpt><trkpt lat="42.9975821" lon="12.887226"><ele>826.5999999999999</ele><time>2026-04-24T10:57:05.022Z</time></trkpt><trkpt lat="42.9975981" lon="12.8873919"><ele>824.4</ele><time>2026-04-24T10:57:06.016Z</time></trkpt><trkpt lat="42.9976137" lon="12.8875491"><ele>822.2</ele><time>2026-04-24T10:57:07.011Z</time></trkpt><trkpt lat="42.9976334" lon="12.8876842"><ele>820.0</ele><time>2026-04-24T10:57:08.022Z</time></trkpt><trkpt lat="42.9976551" lon="12.8878043"><ele>818.6666666666666</ele><time>2026-04-24T10:57:08.999Z</time></trkpt><trkpt lat="42.9976776" lon="12.8879318"><ele>817.3333333333333</ele><time>2026-04-24T10:57:10.001Z</time></trkpt><trkpt lat="42.9977063" lon="12.8880397"><ele>816.0</ele><time>2026-04-24T10:57:11.011Z</time></trkpt><trkpt lat="42.9977283" lon="12.8881429"><ele>814.6666666666667</ele><time>2026-04-24T10:57:12.01Z</time></trkpt><trkpt lat="42.9977522" lon="12.888256"><ele>813.3333333333334</ele><time>2026-04-24T10:57:13.012Z</time></trkpt><trkpt lat="42.9977862" lon="12.8883671"><ele>812.0</ele><time>2026-04-24T10:57:14.009Z</time></trkpt><trkpt lat="42.997834" lon="12.8884932"><ele>811.0</ele><time>2026-04-24T10:57:15.005Z</time></trkpt><trkpt lat="42.997903" lon="12.8886197"><ele>810.0</ele><time>2026-04-24T10:57:16.01Z</time></trkpt><trkpt lat="42.9979775" lon="12.8887496"><ele>809.0</ele><time>2026-04-24T10:57:17.005Z</time></trkpt><trkpt lat="42.9980465" lon="12.8888769"><ele>808.0</ele><time>2026-04-24T10:57:18.026Z</time></trkpt><trkpt lat="42.9981099" lon="12.888996"><ele>808.0</ele><time>2026-04-24T10:57:19.011Z</time></trkpt><trkpt lat="42.998175" lon="12.889116"><ele>808.0</ele><time>2026-04-24T10:57:20.022Z</time></trkpt><trkpt lat="42.9982319" lon="12.8892319"><ele>808.0</ele><time>2026-04-24T10:57:21.004Z</time></trkpt><trkpt lat="42.9982927" lon="12.8893528"><ele>808.0</ele><time>2026-04-24T10:57:22.013Z</time></trkpt><trkpt lat="42.9983477" lon="12.8894699"><ele>808.0</ele><time>2026-04-24T10:57:23.005Z</time></trkpt><trkpt lat="42.9983936" lon="12.8895841"><ele>806.8333333333333</ele><time>2026-04-24T10:57:24.008Z</time></trkpt><trkpt lat="42.9984378" lon="12.8896837"><ele>805.6666666666666</ele><time>2026-04-24T10:57:25.01Z</time></trkpt><trkpt lat="42.9984761" lon="12.8897657"><ele>804.5</ele><time>2026-04-24T10:57:26.005Z</time></trkpt><trkpt lat="42.9985102" lon="12.8898382"><ele>803.3333333333333</ele><time>2026-04-24T10:57:26.996Z</time></trkpt><trkpt lat="42.9985482" lon="12.8899553"><ele>802.1666666666666</ele><time>2026-04-24T10:57:29.014Z</time></trkpt><trkpt lat="42.9985205" lon="12.890071"><ele>801.0</ele><time>2026-04-24T10:57:32.005Z</time></trkpt><trkpt lat="42.9984436" lon="12.8900539"><ele>801.0</ele><time>2026-04-24T10:57:34.003Z</time></trkpt><trkpt lat="42.9983909" lon="12.8900028"><ele>801.0</ele><time>2026-04-24T10:57:35.008Z</time></trkpt><trkpt lat="42.9983423" lon="12.8899388"><ele>801.0</ele><time>2026-04-24T10:57:35.999Z</time></trkpt><trkpt lat="42.9982807" lon="12.8898756"><ele>801.0</ele><time>2026-04-24T10:57:37.029Z</time></trkpt><trkpt lat="42.9982068" lon="12.8898062"><ele>801.0</ele><time>2026-04-24T10:57:37.994Z</time></trkpt><trkpt lat="42.9981326" lon="12.889729"><ele>801.0</ele><time>2026-04-24T10:57:39.029Z</time></trkpt><trkpt lat="42.9980586" lon="12.8896489"><ele>803.1999999999999</ele><time>2026-04-24T10:57:39.999Z</time></trkpt><trkpt lat="42.997988" lon="12.8895697"><ele>805.4</ele><time>2026-04-24T10:57:41.01Z</time></trkpt><trkpt lat="42.9979124" lon="12.8894927"><ele>807.6</ele><time>2026-04-24T10:57:42.013Z</time></trkpt><trkpt lat="42.9978372" lon="12.8894217"><ele>809.8</ele><time>2026-04-24T10:57:43.025Z</time></trkpt><trkpt lat="42.9977516" lon="12.8893734"><ele>812.0</ele><time>2026-04-24T10:57:43.999Z</time></trkpt><trkpt lat="42.9976724" lon="12.8893475"><ele>812.0000000000001</ele><time>2026-04-24T10:57:45.006Z</time></trkpt><trkpt lat="42.997587" lon="12.8893463"><ele>812.0</ele><time>2026-04-24T10:57:46.004Z</time></trkpt><trkpt lat="42.9975052" lon="12.8893647"><ele>812.0</ele><time>2026-04-24T10:57:47.003Z</time></trkpt><trkpt lat="42.9974261" lon="12.889394"><ele>812.0</ele><time>2026-04-24T10:57:47.996Z</time></trkpt><trkpt lat="42.9973555" lon="12.8894097"><ele>812.0000000000001</ele><time>2026-04-24T10:57:49.013Z</time></trkpt><trkpt lat="42.9972912" lon="12.8894242"><ele>812.0</ele><time>2026-04-24T10:57:49.995Z</time></trkpt><trkpt lat="42.9972299" lon="12.8894558"><ele>812.3333333333334</ele><time>2026-04-24T10:57:51.011Z</time></trkpt><trkpt lat="42.9971791" lon="12.8895088"><ele>812.6666666666667</ele><time>2026-04-24T10:57:52.009Z</time></trkpt><trkpt lat="42.9971167" lon="12.8896406"><ele>813.0</ele><time>2026-04-24T10:57:54Z</time></trkpt><trkpt lat="42.9970583" lon="12.8897533"><ele>813.3333333333333</ele><time>2026-04-24T10:57:56.004Z</time></trkpt><trkpt lat="42.9969835" lon="12.8898023"><ele>813.6666666666666</ele><time>2026-04-24T10:58:00.995Z</time></trkpt><trkpt lat="42.996916" lon="12.8897829"><ele>814.0</ele><time>2026-04-24T10:58:03.01Z</time></trkpt><trkpt lat="42.996836" lon="12.8897074"><ele>814.0</ele><time>2026-04-24T10:58:05.009Z</time></trkpt><trkpt lat="42.9967827" lon="12.889578"><ele>814.0</ele><time>2026-04-24T10:58:07.006Z</time></trkpt><trkpt lat="42.9966796" lon="12.8895312"><ele>814.0</ele><time>2026-04-24T10:58:10.002Z</time></trkpt><trkpt lat="42.9965648" lon="12.8895608"><ele>814.0</ele><time>2026-04-24T10:58:12.014Z</time></trkpt><trkpt lat="42.9964927" lon="12.8896011"><ele>814.0</ele><time>2026-04-24T10:58:13.011Z</time></trkpt><trkpt lat="42.9964164" lon="12.8896469"><ele>814.2</ele><time>2026-04-24T10:58:14.016Z</time></trkpt><trkpt lat="42.9963325" lon="12.8896975"><ele>814.4000000000001</ele><time>2026-04-24T10:58:15.002Z</time></trkpt><trkpt lat="42.9962518" lon="12.8897484"><ele>814.6</ele><time>2026-04-24T10:58:16.002Z</time></trkpt><trkpt lat="42.9961657" lon="12.8897938"><ele>814.8</ele><time>2026-04-24T10:58:17.009Z</time></trkpt><trkpt lat="42.9960755" lon="12.8898471"><ele>815.0</ele><time>2026-04-24T10:58:18.005Z</time></trkpt><trkpt lat="42.9959767" lon="12.889906"><ele>815.0</ele><time>2026-04-24T10:58:19.004Z</time></trkpt><trkpt lat="42.9958734" lon="12.8899613"><ele>815.0</ele><time>2026-04-24T10:58:20.008Z</time></trkpt><trkpt lat="42.9957676" lon="12.8900202"><ele>815.0</ele><time>2026-04-24T10:58:21.008Z</time></trkpt><trkpt lat="42.9956726" lon="12.8900818"><ele>815.0</ele><time>2026-04-24T10:58:22.011Z</time></trkpt><trkpt lat="42.9955924" lon="12.8901427"><ele>815.0</ele><time>2026-04-24T10:58:23.009Z</time></trkpt><trkpt lat="42.9955256" lon="12.890231"><ele>813.8</ele><time>2026-04-24T10:58:24.009Z</time></trkpt><trkpt lat="42.9954686" lon="12.8903343"><ele>812.6</ele><time>2026-04-24T10:58:25.015Z</time></trkpt><trkpt lat="42.9954099" lon="12.8904341"><ele>811.4000000000001</ele><time>2026-04-24T10:58:25.99Z</time></trkpt><trkpt lat="42.9953477" lon="12.8905334"><ele>810.2</ele><time>2026-04-24T10:58:27.011Z</time></trkpt><trkpt lat="42.9952787" lon="12.8906084"><ele>809.0</ele><time>2026-04-24T10:58:28.007Z</time></trkpt><trkpt lat="42.9952062" lon="12.8906535"><ele>809.0</ele><time>2026-04-24T10:58:29.01Z</time></trkpt><trkpt lat="42.995105" lon="12.8906776"><ele>809.0</ele><time>2026-04-24T10:58:30.006Z</time></trkpt><trkpt lat="42.9949958" lon="12.8906763"><ele>809.0</ele><time>2026-04-24T10:58:30.999Z</time></trkpt><trkpt lat="42.9948731" lon="12.8906612"><ele>809.0</ele><time>2026-04-24T10:58:32.003Z</time></trkpt><trkpt lat="42.9947486" lon="12.8906473"><ele>810.75</ele><time>2026-04-24T10:58:33.004Z</time></trkpt><trkpt lat="42.9946177" lon="12.8906498"><ele>812.5</ele><time>2026-04-24T10:58:33.996Z</time></trkpt><trkpt lat="42.9944855" lon="12.8906632"><ele>814.25</ele><time>2026-04-24T10:58:34.997Z</time></trkpt><trkpt lat="42.9943529" lon="12.8906876"><ele>816.0</ele><time>2026-04-24T10:58:35.996Z</time></trkpt><trkpt lat="42.9942196" lon="12.890714"><ele>817.25</ele><time>2026-04-24T10:58:37.015Z</time></trkpt><trkpt lat="42.9940815" lon="12.8907492"><ele>818.5</ele><time>2026-04-24T10:58:37.996Z</time></trkpt><trkpt lat="42.9939549" lon="12.8907957"><ele>819.75</ele><time>2026-04-24T10:58:39.013Z</time></trkpt><trkpt lat="42.993841" lon="12.8908609"><ele>821.0</ele><time>2026-04-24T10:58:39.998Z</time></trkpt><trkpt lat="42.9937564" lon="12.8909419"><ele>820.8333333333334</ele><time>2026-04-24T10:58:41.004Z</time></trkpt><trkpt lat="42.9936801" lon="12.8910185"><ele>820.6666666666667</ele><time>2026-04-24T10:58:42.015Z</time></trkpt><trkpt lat="42.993608" lon="12.8910701"><ele>820.5</ele><time>2026-04-24T10:58:43.014Z</time></trkpt><trkpt lat="42.9935299" lon="12.8910839"><ele>820.3333333333333</ele><time>2026-04-24T10:58:43.996Z</time></trkpt><trkpt lat="42.9934414" lon="12.8910767"><ele>820.1666666666666</ele><time>2026-04-24T10:58:45.005Z</time></trkpt><trkpt lat="42.9933514" lon="12.891047"><ele>820.0</ele><time>2026-04-24T10:58:45.989Z</time></trkpt><trkpt lat="42.993267" lon="12.8909851"><ele>820.6</ele><time>2026-04-24T10:58:47.012Z</time></trkpt><trkpt lat="42.9931947" lon="12.8909131"><ele>821.2</ele><time>2026-04-24T10:58:47.997Z</time></trkpt><trkpt lat="42.9931298" lon="12.8908181"><ele>821.8</ele><time>2026-04-24T10:58:48.997Z</time></trkpt><trkpt lat="42.993056" lon="12.8907301"><ele>822.4</ele><time>2026-04-24T10:58:50.002Z</time></trkpt><trkpt lat="42.9929635" lon="12.8906482"><ele>823.0</ele><time>2026-04-24T10:58:51.002Z</time></trkpt><trkpt lat="42.9928619" lon="12.8905843"><ele>823.0</ele><time>2026-04-24T10:58:51.995Z</time></trkpt><trkpt lat="42.9927462" lon="12.8905277"><ele>823.0</ele><time>2026-04-24T10:58:53.005Z</time></trkpt><trkpt lat="42.9926244" lon="12.8904817"><ele>823.0</ele><time>2026-04-24T10:58:53.996Z</time></trkpt><trkpt lat="42.992508" lon="12.8904461"><ele>823.0</ele><time>2026-04-24T10:58:54.994Z</time></trkpt><trkpt lat="42.9923951" lon="12.8904205"><ele>821.9999999999999</ele><time>2026-04-24T10:58:56.004Z</time></trkpt><trkpt lat="42.9922925" lon="12.8904055"><ele>821.0</ele><time>2026-04-24T10:58:57.003Z</time></trkpt><trkpt lat="42.9921946" lon="12.8904167"><ele>820.0</ele><time>2026-04-24T10:58:58.001Z</time></trkpt><trkpt lat="42.9921165" lon="12.8904538"><ele>819.0</ele><time>2026-04-24T10:58:59.003Z</time></trkpt><trkpt lat="42.99206" lon="12.8905281"><ele>817.9999999999999</ele><time>2026-04-24T10:59:00.004Z</time></trkpt><trkpt lat="42.9920312" lon="12.8906288"><ele>817.0</ele><time>2026-04-24T10:59:00.997Z</time></trkpt><trkpt lat="42.9920296" lon="12.8907446"><ele>816.9999999999999</ele><time>2026-04-24T10:59:01.996Z</time></trkpt><trkpt lat="42.9920425" lon="12.8908397"><ele>817.0</ele><time>2026-04-24T10:59:03.008Z</time></trkpt><trkpt lat="42.9920575" lon="12.890925"><ele>817.0</ele><time>2026-04-24T10:59:03.998Z</time></trkpt><trkpt lat="42.9920723" lon="12.8910407"><ele>817.0</ele><time>2026-04-24T10:59:05.001Z</time></trkpt><trkpt lat="42.9920747" lon="12.8911508"><ele>816.9999999999999</ele><time>2026-04-24T10:59:06.005Z</time></trkpt><trkpt lat="42.9920787" lon="12.8912777"><ele>817.0</ele><time>2026-04-24T10:59:06.992Z</time></trkpt><trkpt lat="42.9921096" lon="12.8914113"><ele>816.0</ele><time>2026-04-24T10:59:08.002Z</time></trkpt><trkpt lat="42.9921542" lon="12.8915439"><ele>815.0</ele><time>2026-04-24T10:59:08.997Z</time></trkpt><trkpt lat="42.9921973" lon="12.8916694"><ele>814.0</ele><time>2026-04-24T10:59:09.997Z</time></trkpt><trkpt lat="42.9922192" lon="12.8917925"><ele>813.0</ele><time>2026-04-24T10:59:11.001Z</time></trkpt><trkpt lat="42.992219" lon="12.8919324"><ele>812.0</ele><time>2026-04-24T10:59:12.007Z</time></trkpt><trkpt lat="42.9922026" lon="12.8920649"><ele>811.0</ele><time>2026-04-24T10:59:13.004Z</time></trkpt><trkpt lat="42.9921663" lon="12.8922067"><ele>810.0</ele><time>2026-04-24T10:59:13.994Z</time></trkpt><trkpt lat="42.9921158" lon="12.89235"><ele>809.0</ele><time>2026-04-24T10:59:15.002Z</time></trkpt><trkpt lat="42.9920588" lon="12.8924961"><ele>808.0</ele><time>2026-04-24T10:59:15.995Z</time></trkpt><trkpt lat="42.9920027" lon="12.8926353"><ele>807.4</ele><time>2026-04-24T10:59:17.002Z</time></trkpt><trkpt lat="42.9919377" lon="12.8927658"><ele>806.8</ele><time>2026-04-24T10:59:17.995Z</time></trkpt><trkpt lat="42.9918706" lon="12.8928931"><ele>806.2</ele><time>2026-04-24T10:59:19.005Z</time></trkpt><trkpt lat="42.9918073" lon="12.8930083"><ele>805.6</ele><time>2026-04-24T10:59:19.999Z</time></trkpt><trkpt lat="42.9917584" lon="12.8931222"><ele>805.0</ele><time>2026-04-24T10:59:21.002Z</time></trkpt><trkpt lat="42.9917293" lon="12.8932279"><ele>804.9999999999999</ele><time>2026-04-24T10:59:22.007Z</time></trkpt><trkpt lat="42.9917131" lon="12.8933125"><ele>805.0</ele><time>2026-04-24T10:59:23.007Z</time></trkpt><trkpt lat="42.9917105" lon="12.8934314"><ele>805.0</ele><time>2026-04-24T10:59:25.001Z</time></trkpt><trkpt lat="42.9916974" lon="12.8935284"><ele>805.0</ele><time>2026-04-24T10:59:27.998Z</time></trkpt><trkpt lat="42.9915967" lon="12.8935523"><ele>804.9999999999999</ele><time>2026-04-24T10:59:31.01Z</time></trkpt><trkpt lat="42.9914935" lon="12.8935072"><ele>805.0</ele><time>2026-04-24T10:59:33.006Z</time></trkpt><trkpt lat="42.9914261" lon="12.8934807"><ele>804.6666666666666</ele><time>2026-04-24T10:59:34.007Z</time></trkpt><trkpt lat="42.9913584" lon="12.8934537"><ele>804.3333333333333</ele><time>2026-04-24T10:59:35.005Z</time></trkpt><trkpt lat="42.9912832" lon="12.893424"><ele>804.0</ele><time>2026-04-24T10:59:35.999Z</time></trkpt><trkpt lat="42.9911993" lon="12.8933928"><ele>803.6666666666667</ele><time>2026-04-24T10:59:37.006Z</time></trkpt><trkpt lat="42.9911039" lon="12.8933633"><ele>803.3333333333334</ele><time>2026-04-24T10:59:38.004Z</time></trkpt><trkpt lat="42.9910076" lon="12.8933357"><ele>803.0</ele><time>2026-04-24T10:59:39.002Z</time></trkpt><trkpt lat="42.9909089" lon="12.8932963"><ele>806.4</ele><time>2026-04-24T10:59:39.997Z</time></trkpt><trkpt lat="42.9908159" lon="12.8932235"><ele>809.8</ele><time>2026-04-24T10:59:41.012Z</time></trkpt><trkpt lat="42.9907296" lon="12.8931296"><ele>813.2</ele><time>2026-04-24T10:59:41.997Z</time></trkpt><trkpt lat="42.9906398" lon="12.8930386"><ele>816.6</ele><time>2026-04-24T10:59:43.004Z</time></trkpt><trkpt lat="42.9905615" lon="12.8929463"><ele>820.0</ele><time>2026-04-24T10:59:43.998Z</time></trkpt><trkpt lat="42.990496" lon="12.8928401"><ele>819.9999999999999</ele><time>2026-04-24T10:59:45.012Z</time></trkpt><trkpt lat="42.990441" lon="12.8927392"><ele>820.0</ele><time>2026-04-24T10:59:45.998Z</time></trkpt><trkpt lat="42.9903804" lon="12.8926752"><ele>820.0</ele><time>2026-04-24T10:59:47.004Z</time></trkpt><trkpt lat="42.9903173" lon="12.8926322"><ele>820.0</ele><time>2026-04-24T10:59:48.006Z</time></trkpt><trkpt lat="42.9902154" lon="12.8926367"><ele>819.9999999999999</ele><time>2026-04-24T10:59:50.001Z</time></trkpt><trkpt lat="42.9901228" lon="12.8926441"><ele>820.0</ele><time>2026-04-24T10:59:52.004Z</time></trkpt><trkpt lat="42.990049" lon="12.8925653"><ele>822.8</ele><time>2026-04-24T10:59:53.995Z</time></trkpt><trkpt lat="42.9900173" lon="12.8924123"><ele>825.6</ele><time>2026-04-24T10:59:56.002Z</time></trkpt><trkpt lat="42.9900363" lon="12.8922387"><ele>828.4000000000001</ele><time>2026-04-24T10:59:57.99Z</time></trkpt><trkpt lat="42.9900499" lon="12.8921509"><ele>831.2</ele><time>2026-04-24T10:59:59.004Z</time></trkpt><trkpt lat="42.9900821" lon="12.8920578"><ele>834.0</ele><time>2026-04-24T10:59:59.998Z</time></trkpt><trkpt lat="42.990136" lon="12.8919728"><ele>834.0</ele><time>2026-04-24T11:00:00.997Z</time></trkpt><trkpt lat="42.9901891" lon="12.8918997"><ele>834.0</ele><time>2026-04-24T11:00:02.005Z</time></trkpt><trkpt lat="42.9902364" lon="12.891838"><ele>834.0</ele><time>2026-04-24T11:00:02.998Z</time></trkpt><trkpt lat="42.9902951" lon="12.8917184"><ele>834.0</ele><time>2026-04-24T11:00:05.01Z</time></trkpt><trkpt lat="42.9902935" lon="12.8915796"><ele>834.0</ele><time>2026-04-24T11:00:06.998Z</time></trkpt><trkpt lat="42.9902228" lon="12.8914529"><ele>837.25</ele><time>2026-04-24T11:00:08.996Z</time></trkpt><trkpt lat="42.9901538" lon="12.891335"><ele>840.5</ele><time>2026-04-24T11:00:11.002Z</time></trkpt><trkpt lat="42.9900648" lon="12.8912548"><ele>843.75</ele><time>2026-04-24T11:00:13.005Z</time></trkpt><trkpt lat="42.9899705" lon="12.8912242"><ele>847.0</ele><time>2026-04-24T11:00:14.998Z</time></trkpt><trkpt lat="42.9898335" lon="12.8912268"><ele>847.3333333333333</ele><time>2026-04-24T11:00:17.013Z</time></trkpt><trkpt lat="42.9897565" lon="12.8912346"><ele>847.6666666666666</ele><time>2026-04-24T11:00:17.998Z</time></trkpt><trkpt lat="42.989669" lon="12.8912453"><ele>848.0</ele><time>2026-04-24T11:00:19.002Z</time></trkpt><trkpt lat="42.9895829" lon="12.8912513"><ele>848.3333333333333</ele><time>2026-04-24T11:00:20.004Z</time></trkpt><trkpt lat="42.9894934" lon="12.8912581"><ele>848.6666666666666</ele><time>2026-04-24T11:00:21.008Z</time></trkpt><trkpt lat="42.9894052" lon="12.891254"><ele>849.0</ele><time>2026-04-24T11:00:22.001Z</time></trkpt><trkpt lat="42.9893143" lon="12.8912529"><ele>849.0</ele><time>2026-04-24T11:00:23Z</time></trkpt><trkpt lat="42.9892211" lon="12.8912574"><ele>849.0</ele><time>2026-04-24T11:00:23.998Z</time></trkpt><trkpt lat="42.9891166" lon="12.8912647"><ele>849.0</ele><time>2026-04-24T11:00:25.009Z</time></trkpt><trkpt lat="42.9890143" lon="12.8912688"><ele>849.0</ele><time>2026-04-24T11:00:26Z</time></trkpt><trkpt lat="42.9889051" lon="12.8912776"><ele>849.0</ele><time>2026-04-24T11:00:27.001Z</time></trkpt><trkpt lat="42.9887935" lon="12.891279"><ele>852.25</ele><time>2026-04-24T11:00:28.003Z</time></trkpt><trkpt lat="42.9886786" lon="12.8912765"><ele>855.5</ele><time>2026-04-24T11:00:29.004Z</time></trkpt><trkpt lat="42.9885639" lon="12.8912754"><ele>858.75</ele><time>2026-04-24T11:00:30.006Z</time></trkpt><trkpt lat="42.988456" lon="12.8912769"><ele>862.0</ele><time>2026-04-24T11:00:31.006Z</time></trkpt><trkpt lat="42.9883412" lon="12.8912839"><ele>864.6</ele><time>2026-04-24T11:00:32.003Z</time></trkpt><trkpt lat="42.9882315" lon="12.891304"><ele>867.2</ele><time>2026-04-24T11:00:32.996Z</time></trkpt><trkpt lat="42.9881256" lon="12.8913299"><ele>869.8</ele><time>2026-04-24T11:00:34.01Z</time></trkpt><trkpt lat="42.988018" lon="12.8913514"><ele>872.4</ele><time>2026-04-24T11:00:35.009Z</time></trkpt><trkpt lat="42.9879153" lon="12.8913709"><ele>875.0</ele><time>2026-04-24T11:00:36.003Z</time></trkpt><trkpt lat="42.9878151" lon="12.8913874"><ele>875.0</ele><time>2026-04-24T11:00:36.998Z</time></trkpt><trkpt lat="42.9877126" lon="12.891403"><ele>875.0</ele><time>2026-04-24T11:00:38.012Z</time></trkpt><trkpt lat="42.98761" lon="12.8914136"><ele>875.0</ele><time>2026-04-24T11:00:39.009Z</time></trkpt><trkpt lat="42.987505" lon="12.8914187"><ele>875.0</ele><time>2026-04-24T11:00:39.997Z</time></trkpt><trkpt lat="42.987399" lon="12.8914227"><ele>875.0</ele><time>2026-04-24T11:00:41.003Z</time></trkpt><trkpt lat="42.9872912" lon="12.8914202"><ele>877.75</ele><time>2026-04-24T11:00:42.007Z</time></trkpt><trkpt lat="42.9871854" lon="12.8914149"><ele>880.5</ele><time>2026-04-24T11:00:42.998Z</time></trkpt><trkpt lat="42.9870704" lon="12.8914215"><ele>883.25</ele><time>2026-04-24T11:00:44.002Z</time></trkpt><trkpt lat="42.9869521" lon="12.8914297"><ele>886.0</ele><time>2026-04-24T11:00:44.999Z</time></trkpt><trkpt lat="42.9868306" lon="12.8914378"><ele>886.0</ele><time>2026-04-24T11:00:46.001Z</time></trkpt><trkpt lat="42.9867093" lon="12.8914447"><ele>886.0</ele><time>2026-04-24T11:00:46.998Z</time></trkpt><trkpt lat="42.9865855" lon="12.8914566"><ele>886.0</ele><time>2026-04-24T11:00:48.003Z</time></trkpt><trkpt lat="42.9864607" lon="12.8914751"><ele>886.0</ele><time>2026-04-24T11:00:49.005Z</time></trkpt><trkpt lat="42.9863279" lon="12.8914905"><ele>888.5</ele><time>2026-04-24T11:00:50.006Z</time></trkpt><trkpt lat="42.9861923" lon="12.891513"><ele>891.0</ele><time>2026-04-24T11:00:50.996Z</time></trkpt><trkpt lat="42.9860491" lon="12.891533"><ele>893.5</ele><time>2026-04-24T11:00:52.004Z</time></trkpt><trkpt lat="42.9859083" lon="12.8915413"><ele>896.0</ele><time>2026-04-24T11:00:53.001Z</time></trkpt><trkpt lat="42.9857647" lon="12.8915407"><ele>898.75</ele><time>2026-04-24T11:00:53.997Z</time></trkpt><trkpt lat="42.9856229" lon="12.8915407"><ele>901.5</ele><time>2026-04-24T11:00:55.003Z</time></trkpt><trkpt lat="42.9854761" lon="12.8915376"><ele>904.25</ele><time>2026-04-24T11:00:55.994Z</time></trkpt><trkpt lat="42.9853307" lon="12.8915355"><ele>907.0</ele><time>2026-04-24T11:00:57.002Z</time></trkpt><trkpt lat="42.9851847" lon="12.8915278"><ele>907.0</ele><time>2026-04-24T11:00:58Z</time></trkpt><trkpt lat="42.9850422" lon="12.8915117"><ele>907.0</ele><time>2026-04-24T11:00:58.998Z</time></trkpt><trkpt lat="42.9848998" lon="12.8914891"><ele>907.0</ele><time>2026-04-24T11:01:00.005Z</time></trkpt><trkpt lat="42.9847536" lon="12.8914603"><ele>907.0</ele><time>2026-04-24T11:01:01.004Z</time></trkpt><trkpt lat="42.9846035" lon="12.8914283"><ele>909.0</ele><time>2026-04-24T11:01:02.005Z</time></trkpt><trkpt lat="42.9844579" lon="12.8913895"><ele>911.0</ele><time>2026-04-24T11:01:03.001Z</time></trkpt><trkpt lat="42.9843136" lon="12.8913373"><ele>913.0</ele><time>2026-04-24T11:01:03.999Z</time></trkpt><trkpt lat="42.9841812" lon="12.8912647"><ele>915.0</ele><time>2026-04-24T11:01:05.013Z</time></trkpt><trkpt lat="42.9840507" lon="12.8911772"><ele>917.3333333333333</ele><time>2026-04-24T11:01:06.007Z</time></trkpt><trkpt lat="42.9839134" lon="12.8910927"><ele>919.6666666666666</ele><time>2026-04-24T11:01:07.012Z</time></trkpt><trkpt lat="42.9837787" lon="12.8910063"><ele>922.0</ele><time>2026-04-24T11:01:08Z</time></trkpt><trkpt lat="42.983634" lon="12.8909305"><ele>921.6666666666666</ele><time>2026-04-24T11:01:09.013Z</time></trkpt><trkpt lat="42.983478" lon="12.8908613"><ele>921.3333333333333</ele><time>2026-04-24T11:01:10.009Z</time></trkpt><trkpt lat="42.98331" lon="12.8908049"><ele>921.0</ele><time>2026-04-24T11:01:11.005Z</time></trkpt><trkpt lat="42.9831374" lon="12.8907603"><ele>923.3333333333333</ele><time>2026-04-24T11:01:12.008Z</time></trkpt><trkpt lat="42.9829793" lon="12.8907255"><ele>925.6666666666666</ele><time>2026-04-24T11:01:13.015Z</time></trkpt><trkpt lat="42.9828242" lon="12.8906964"><ele>928.0</ele><time>2026-04-24T11:01:14.002Z</time></trkpt><trkpt lat="42.9826583" lon="12.8906869"><ele>931.6666666666666</ele><time>2026-04-24T11:01:15.007Z</time></trkpt><trkpt lat="42.9824853" lon="12.8906923"><ele>935.3333333333333</ele><time>2026-04-24T11:01:15.995Z</time></trkpt><trkpt lat="42.9823088" lon="12.8907213"><ele>939.0</ele><time>2026-04-24T11:01:17.007Z</time></trkpt><trkpt lat="42.9821501" lon="12.8907595"><ele>939.0</ele><time>2026-04-24T11:01:18.006Z</time></trkpt><trkpt lat="42.9820004" lon="12.8908041"><ele>939.0</ele><time>2026-04-24T11:01:19.009Z</time></trkpt><trkpt lat="42.981854" lon="12.8908466"><ele>939.0</ele><time>2026-04-24T11:01:19.997Z</time></trkpt><trkpt lat="42.9817206" lon="12.8908865"><ele>939.0</ele><time>2026-04-24T11:01:21.022Z</time></trkpt><trkpt lat="42.9816029" lon="12.8909136"><ele>941.2</ele><time>2026-04-24T11:01:22.003Z</time></trkpt><trkpt lat="42.981498" lon="12.8909122"><ele>943.4000000000001</ele><time>2026-04-24T11:01:23.005Z</time></trkpt><trkpt lat="42.9813958" lon="12.8908841"><ele>945.6</ele><time>2026-04-24T11:01:24.015Z</time></trkpt><trkpt lat="42.9812931" lon="12.8908414"><ele>947.8</ele><time>2026-04-24T11:01:25.006Z</time></trkpt><trkpt lat="42.9811712" lon="12.890785"><ele>950.0</ele><time>2026-04-24T11:01:26.007Z</time></trkpt><trkpt lat="42.9810368" lon="12.8907135"><ele>950.0</ele><time>2026-04-24T11:01:27.004Z</time></trkpt><trkpt lat="42.9808921" lon="12.8906368"><ele>950.0</ele><time>2026-04-24T11:01:28.005Z</time></trkpt><trkpt lat="42.9807421" lon="12.8905546"><ele>950.0</ele><time>2026-04-24T11:01:29.004Z</time></trkpt><trkpt lat="42.9805922" lon="12.890467"><ele>951.25</ele><time>2026-04-24T11:01:30Z</time></trkpt><trkpt lat="42.9804477" lon="12.8903857"><ele>952.5</ele><time>2026-04-24T11:01:31.007Z</time></trkpt><trkpt lat="42.9803063" lon="12.8903188"><ele>953.75</ele><time>2026-04-24T11:01:32.003Z</time></trkpt><trkpt lat="42.9801817" lon="12.8902647"><ele>955.0</ele><time>2026-04-24T11:01:33.004Z</time></trkpt><trkpt lat="42.9800654" lon="12.8902169"><ele>956.4</ele><time>2026-04-24T11:01:34.006Z</time></trkpt><trkpt lat="42.9799602" lon="12.8901615"><ele>957.8</ele><time>2026-04-24T11:01:35.003Z</time></trkpt><trkpt lat="42.9798657" lon="12.890096"><ele>959.2</ele><time>2026-04-24T11:01:35.995Z</time></trkpt><trkpt lat="42.9797829" lon="12.8900099"><ele>960.6</ele><time>2026-04-24T11:01:37.011Z</time></trkpt><trkpt lat="42.9797077" lon="12.8899075"><ele>962.0</ele><time>2026-04-24T11:01:37.999Z</time></trkpt><trkpt lat="42.9796359" lon="12.8897947"><ele>963.2</ele><time>2026-04-24T11:01:39.008Z</time></trkpt><trkpt lat="42.979558" lon="12.8897031"><ele>964.4000000000001</ele><time>2026-04-24T11:01:40.003Z</time></trkpt><trkpt lat="42.979467" lon="12.8896225"><ele>965.5999999999999</ele><time>2026-04-24T11:01:41.018Z</time></trkpt><trkpt lat="42.9793692" lon="12.8895496"><ele>966.8</ele><time>2026-04-24T11:01:42.008Z</time></trkpt><trkpt lat="42.9792713" lon="12.8894849"><ele>968.0</ele><time>2026-04-24T11:01:43.004Z</time></trkpt><trkpt lat="42.9791778" lon="12.8894191"><ele>970.25</ele><time>2026-04-24T11:01:44.007Z</time></trkpt><trkpt lat="42.9790704" lon="12.8893616"><ele>972.5</ele><time>2026-04-24T11:01:45.005Z</time></trkpt><trkpt lat="42.9789392" lon="12.8893038"><ele>974.75</ele><time>2026-04-24T11:01:46.008Z</time></trkpt><trkpt lat="42.9787888" lon="12.8892488"><ele>977.0</ele><time>2026-04-24T11:01:47Z</time></trkpt><trkpt lat="42.9786267" lon="12.8891915"><ele>977.0</ele><time>2026-04-24T11:01:48.004Z</time></trkpt><trkpt lat="42.9784503" lon="12.8891277"><ele>977.0</ele><time>2026-04-24T11:01:49.012Z</time></trkpt><trkpt lat="42.978252" lon="12.8890629"><ele>977.0</ele><time>2026-04-24T11:01:50.005Z</time></trkpt><trkpt lat="42.9780327" lon="12.8889879"><ele>980.6666666666667</ele><time>2026-04-24T11:01:51.008Z</time></trkpt><trkpt lat="42.9778113" lon="12.8889064"><ele>984.3333333333333</ele><time>2026-04-24T11:01:52.009Z</time></trkpt><trkpt lat="42.9776038" lon="12.8888371"><ele>988.0</ele><time>2026-04-24T11:01:53.021Z</time></trkpt><trkpt lat="42.9774316" lon="12.8887771"><ele>990.0</ele><time>2026-04-24T11:01:54.012Z</time></trkpt><trkpt lat="42.9772844" lon="12.8887213"><ele>992.0</ele><time>2026-04-24T11:01:55.006Z</time></trkpt><trkpt lat="42.9771439" lon="12.8886661"><ele>994.0</ele><time>2026-04-24T11:01:56.004Z</time></trkpt><trkpt lat="42.9770054" lon="12.8886174"><ele>996.0</ele><time>2026-04-24T11:01:57.023Z</time></trkpt><trkpt lat="42.9768777" lon="12.8885705"><ele>996.0</ele><time>2026-04-24T11:01:58.003Z</time></trkpt><trkpt lat="42.9767518" lon="12.8885272"><ele>996.0</ele><time>2026-04-24T11:01:59.016Z</time></trkpt><trkpt lat="42.9766226" lon="12.8884741"><ele>996.0</ele><time>2026-04-24T11:02:00.011Z</time></trkpt><trkpt lat="42.976493" lon="12.8884261"><ele>996.0</ele><time>2026-04-24T11:02:01.001Z</time></trkpt><trkpt lat="42.9763634" lon="12.8883967"><ele>996.6666666666667</ele><time>2026-04-24T11:02:02.011Z</time></trkpt><trkpt lat="42.9762291" lon="12.8883688"><ele>997.3333333333334</ele><time>2026-04-24T11:02:03.013Z</time></trkpt><trkpt lat="42.9760829" lon="12.8883172"><ele>998.0</ele><time>2026-04-24T11:02:04.009Z</time></trkpt><trkpt lat="42.9759261" lon="12.8882509"><ele>998.3333333333334</ele><time>2026-04-24T11:02:05.008Z</time></trkpt><trkpt lat="42.975758" lon="12.888173"><ele>998.6666666666667</ele><time>2026-04-24T11:02:06.002Z</time></trkpt><trkpt lat="42.9755849" lon="12.8880972"><ele>999.0</ele><time>2026-04-24T11:02:07.009Z</time></trkpt><trkpt lat="42.9754112" lon="12.8880191"><ele>999.0</ele><time>2026-04-24T11:02:08.011Z</time></trkpt><trkpt lat="42.9752518" lon="12.8879463"><ele>999.0</ele><time>2026-04-24T11:02:09.01Z</time></trkpt><trkpt lat="42.9751018" lon="12.8878713"><ele>999.0</ele><time>2026-04-24T11:02:10.011Z</time></trkpt><trkpt lat="42.9749545" lon="12.8877903"><ele>998.0</ele><time>2026-04-24T11:02:11.009Z</time></trkpt><trkpt lat="42.9748116" lon="12.8877133"><ele>997.0</ele><time>2026-04-24T11:02:12.004Z</time></trkpt><trkpt lat="42.9746663" lon="12.8876148"><ele>996.0</ele><time>2026-04-24T11:02:13.013Z</time></trkpt><trkpt lat="42.9745316" lon="12.8875088"><ele>995.3333333333333</ele><time>2026-04-24T11:02:14.013Z</time></trkpt><trkpt lat="42.9743979" lon="12.8873996"><ele>994.6666666666666</ele><time>2026-04-24T11:02:15.008Z</time></trkpt><trkpt lat="42.9742724" lon="12.8872864"><ele>994.0</ele><time>2026-04-24T11:02:16.003Z</time></trkpt><trkpt lat="42.9741461" lon="12.8871585"><ele>995.6666666666666</ele><time>2026-04-24T11:02:17.013Z</time></trkpt><trkpt lat="42.9740201" lon="12.8870277"><ele>997.3333333333333</ele><time>2026-04-24T11:02:18.01Z</time></trkpt><trkpt lat="42.973881" lon="12.8869062"><ele>999.0</ele><time>2026-04-24T11:02:19.011Z</time></trkpt><trkpt lat="42.973737" lon="12.886797"><ele>999.25</ele><time>2026-04-24T11:02:20.009Z</time></trkpt><trkpt lat="42.9735944" lon="12.8866912"><ele>999.5</ele><time>2026-04-24T11:02:21.01Z</time></trkpt><trkpt lat="42.9734642" lon="12.8865953"><ele>999.75</ele><time>2026-04-24T11:02:22.017Z</time></trkpt><trkpt lat="42.9733471" lon="12.8864969"><ele>1000.0</ele><time>2026-04-24T11:02:23.003Z</time></trkpt><trkpt lat="42.9732379" lon="12.8863937"><ele>1000.0</ele><time>2026-04-24T11:02:24.012Z</time></trkpt><trkpt lat="42.9731269" lon="12.8862931"><ele>1000.0</ele><time>2026-04-24T11:02:25.014Z</time></trkpt><trkpt lat="42.9730089" lon="12.8861971"><ele>1000.0</ele><time>2026-04-24T11:02:26.012Z</time></trkpt><trkpt lat="42.9728886" lon="12.8861148"><ele>1000.0</ele><time>2026-04-24T11:02:27.018Z</time></trkpt><trkpt lat="42.9727671" lon="12.8860444"><ele>1000.0</ele><time>2026-04-24T11:02:28.031Z</time></trkpt><trkpt lat="42.9726417" lon="12.8859755"><ele>1000.0</ele><time>2026-04-24T11:02:29.011Z</time></trkpt><trkpt lat="42.9725066" lon="12.8859185"><ele>1000.0</ele><time>2026-04-24T11:02:30.028Z</time></trkpt><trkpt lat="42.9723612" lon="12.8858686"><ele>1000.0</ele><time>2026-04-24T11:02:31.023Z</time></trkpt><trkpt lat="42.972215" lon="12.8858279"><ele>999.75</ele><time>2026-04-24T11:02:32.025Z</time></trkpt><trkpt lat="42.97207" lon="12.8857949"><ele>999.5</ele><time>2026-04-24T11:02:33.014Z</time></trkpt><trkpt lat="42.9719307" lon="12.8857644"><ele>999.25</ele><time>2026-04-24T11:02:34.018Z</time></trkpt><trkpt lat="42.971793" lon="12.8857283"><ele>999.0</ele><time>2026-04-24T11:02:35.018Z</time></trkpt><trkpt lat="42.9716659" lon="12.8856754"><ele>999.0</ele><time>2026-04-24T11:02:36.021Z</time></trkpt><trkpt lat="42.9715529" lon="12.8856091"><ele>999.0000000000001</ele><time>2026-04-24T11:02:37.018Z</time></trkpt><trkpt lat="42.9714501" lon="12.8855342"><ele>999.0000000000001</ele><time>2026-04-24T11:02:38.002Z</time></trkpt><trkpt lat="42.9713566" lon="12.8854738"><ele>999.0</ele><time>2026-04-24T11:02:39.013Z</time></trkpt><trkpt lat="42.9712671" lon="12.88543"><ele>999.0</ele><time>2026-04-24T11:02:40.004Z</time></trkpt><trkpt lat="42.9711752" lon="12.8854012"><ele>999.0</ele><time>2026-04-24T11:02:41.021Z</time></trkpt><trkpt lat="42.9710709" lon="12.885391"><ele>999.0</ele><time>2026-04-24T11:02:41.999Z</time></trkpt><trkpt lat="42.9709533" lon="12.8853873"><ele>999.0</ele><time>2026-04-24T11:02:43.03Z</time></trkpt><trkpt lat="42.9708306" lon="12.8854007"><ele>999.0</ele><time>2026-04-24T11:02:44.014Z</time></trkpt><trkpt lat="42.9707114" lon="12.8854273"><ele>999.75</ele><time>2026-04-24T11:02:45.028Z</time></trkpt><trkpt lat="42.970597" lon="12.885455"><ele>1000.5</ele><time>2026-04-24T11:02:46.036Z</time></trkpt><trkpt lat="42.9704863" lon="12.8854908"><ele>1001.25</ele><time>2026-04-24T11:02:47.014Z</time></trkpt><trkpt lat="42.9703674" lon="12.8855251"><ele>1002.0</ele><time>2026-04-24T11:02:48.016Z</time></trkpt><trkpt lat="42.970246" lon="12.8855577"><ele>1002.0</ele><time>2026-04-24T11:02:49.023Z</time></trkpt><trkpt lat="42.9701191" lon="12.885596"><ele>1002.0</ele><time>2026-04-24T11:02:50.023Z</time></trkpt><trkpt lat="42.9700001" lon="12.8856352"><ele>1002.0</ele><time>2026-04-24T11:02:51.022Z</time></trkpt><trkpt lat="42.9698934" lon="12.8856678"><ele>1002.0</ele><time>2026-04-24T11:02:52.028Z</time></trkpt><trkpt lat="42.96979" lon="12.8857028"><ele>1002.5</ele><time>2026-04-24T11:02:53.018Z</time></trkpt><trkpt lat="42.9696874" lon="12.885761"><ele>1003.0</ele><time>2026-04-24T11:02:54.02Z</time></trkpt><trkpt lat="42.9695815" lon="12.8858395"><ele>1003.5</ele><time>2026-04-24T11:02:55.023Z</time></trkpt><trkpt lat="42.9694765" lon="12.8859306"><ele>1004.0</ele><time>2026-04-24T11:02:56.019Z</time></trkpt><trkpt lat="42.9693778" lon="12.8860145"><ele>1004.0</ele><time>2026-04-24T11:02:57.028Z</time></trkpt><trkpt lat="42.9692727" lon="12.8860856"><ele>1004.0</ele><time>2026-04-24T11:02:58.012Z</time></trkpt><trkpt lat="42.9691602" lon="12.8861331"><ele>1004.0</ele><time>2026-04-24T11:02:59.018Z</time></trkpt><trkpt lat="42.9690432" lon="12.8861547"><ele>1004.0</ele><time>2026-04-24T11:03:00.031Z</time></trkpt><trkpt lat="42.9689213" lon="12.8861545"><ele>1002.5</ele><time>2026-04-24T11:03:01.017Z</time></trkpt><trkpt lat="42.9688007" lon="12.8861364"><ele>1001.0</ele><time>2026-04-24T11:03:02.021Z</time></trkpt><trkpt lat="42.9686768" lon="12.8861043"><ele>999.5</ele><time>2026-04-24T11:03:03.018Z</time></trkpt><trkpt lat="42.9685542" lon="12.8860837"><ele>998.0</ele><time>2026-04-24T11:03:04.018Z</time></trkpt><trkpt lat="42.9684205" lon="12.8860644"><ele>995.5</ele><time>2026-04-24T11:03:05.016Z</time></trkpt><trkpt lat="42.9682813" lon="12.8860588"><ele>993.0</ele><time>2026-04-24T11:03:06.017Z</time></trkpt><trkpt lat="42.9681405" lon="12.8860595"><ele>990.5</ele><time>2026-04-24T11:03:07.028Z</time></trkpt><trkpt lat="42.9680027" lon="12.8860739"><ele>988.0</ele><time>2026-04-24T11:03:08.019Z</time></trkpt><trkpt lat="42.9678656" lon="12.8860815"><ele>988.0</ele><time>2026-04-24T11:03:09.011Z</time></trkpt><trkpt lat="42.9677301" lon="12.8860767"><ele>988.0</ele><time>2026-04-24T11:03:10.028Z</time></trkpt><trkpt lat="42.9675979" lon="12.8860685"><ele>988.0</ele><time>2026-04-24T11:03:11.025Z</time></trkpt><trkpt lat="42.9674612" lon="12.8860672"><ele>988.0</ele><time>2026-04-24T11:03:12.009Z</time></trkpt><trkpt lat="42.9673252" lon="12.8860761"><ele>986.4</ele><time>2026-04-24T11:03:13.031Z</time></trkpt><trkpt lat="42.9672128" lon="12.8860882"><ele>984.8</ele><time>2026-04-24T11:03:14.027Z</time></trkpt><trkpt lat="42.9671082" lon="12.8861229"><ele>983.2</ele><time>2026-04-24T11:03:15.037Z</time></trkpt><trkpt lat="42.96701" lon="12.8861566"><ele>981.6</ele><time>2026-04-24T11:03:16.004Z</time></trkpt><trkpt lat="42.9669126" lon="12.886182"><ele>980.0</ele><time>2026-04-24T11:03:17.038Z</time></trkpt><trkpt lat="42.9668129" lon="12.8861897"><ele>980.0</ele><time>2026-04-24T11:03:18.033Z</time></trkpt><trkpt lat="42.966716" lon="12.8861913"><ele>980.0</ele><time>2026-04-24T11:03:19.017Z</time></trkpt><trkpt lat="42.9666199" lon="12.8861823"><ele>980.0</ele><time>2026-04-24T11:03:20.023Z</time></trkpt><trkpt lat="42.9665191" lon="12.8861588"><ele>980.0</ele><time>2026-04-24T11:03:21.029Z</time></trkpt><trkpt lat="42.966411" lon="12.8861137"><ele>980.0</ele><time>2026-04-24T11:03:22.017Z</time></trkpt><trkpt lat="42.9662984" lon="12.8860526"><ele>977.0</ele><time>2026-04-24T11:03:23.028Z</time></trkpt><trkpt lat="42.9661633" lon="12.8859888"><ele>974.0</ele><time>2026-04-24T11:03:24.014Z</time></trkpt><trkpt lat="42.9660162" lon="12.8859268"><ele>971.0</ele><time>2026-04-24T11:03:25.032Z</time></trkpt><trkpt lat="42.9658718" lon="12.8858559"><ele>968.6666666666667</ele><time>2026-04-24T11:03:26.021Z</time></trkpt><trkpt lat="42.9657163" lon="12.8857919"><ele>966.3333333333333</ele><time>2026-04-24T11:03:27.029Z</time></trkpt><trkpt lat="42.9655554" lon="12.8857341"><ele>964.0</ele><time>2026-04-24T11:03:28.017Z</time></trkpt><trkpt lat="42.9653891" lon="12.8856806"><ele>964.0</ele><time>2026-04-24T11:03:29.036Z</time></trkpt><trkpt lat="42.9652112" lon="12.8856183"><ele>964.0</ele><time>2026-04-24T11:03:30.013Z</time></trkpt><trkpt lat="42.9650331" lon="12.8855511"><ele>964.0</ele><time>2026-04-24T11:03:31.025Z</time></trkpt><trkpt lat="42.9648695" lon="12.8854925"><ele>962.0</ele><time>2026-04-24T11:03:32.032Z</time></trkpt><trkpt lat="42.964714" lon="12.8854361"><ele>960.0</ele><time>2026-04-24T11:03:33.011Z</time></trkpt><trkpt lat="42.9645679" lon="12.8853853"><ele>958.0</ele><time>2026-04-24T11:03:34.015Z</time></trkpt><trkpt lat="42.9644346" lon="12.8853436"><ele>956.0</ele><time>2026-04-24T11:03:35.023Z</time></trkpt><trkpt lat="42.9643117" lon="12.8853086"><ele>955.75</ele><time>2026-04-24T11:03:36.028Z</time></trkpt><trkpt lat="42.9641894" lon="12.8852833"><ele>955.5</ele><time>2026-04-24T11:03:37.025Z</time></trkpt><trkpt lat="42.9640736" lon="12.8852781"><ele>955.25</ele><time>2026-04-24T11:03:38.004Z</time></trkpt><trkpt lat="42.9639523" lon="12.885284"><ele>955.0</ele><time>2026-04-24T11:03:39.018Z</time></trkpt><trkpt lat="42.9638245" lon="12.8852903"><ele>955.0</ele><time>2026-04-24T11:03:40.015Z</time></trkpt><trkpt lat="42.9637046" lon="12.885291"><ele>955.0</ele><time>2026-04-24T11:03:41.025Z</time></trkpt><trkpt lat="42.9635877" lon="12.885292"><ele>955.0</ele><time>2026-04-24T11:03:42.023Z</time></trkpt><trkpt lat="42.9634702" lon="12.8852963"><ele>955.0</ele><time>2026-04-24T11:03:43.034Z</time></trkpt><trkpt lat="42.9633545" lon="12.8852943"><ele>953.8</ele><time>2026-04-24T11:03:44.002Z</time></trkpt><trkpt lat="42.9632459" lon="12.8852907"><ele>952.6</ele><time>2026-04-24T11:03:45.029Z</time></trkpt><trkpt lat="42.9631373" lon="12.8852858"><ele>951.4000000000001</ele><time>2026-04-24T11:03:46.025Z</time></trkpt><trkpt lat="42.96303" lon="12.8852822"><ele>950.2</ele><time>2026-04-24T11:03:47.013Z</time></trkpt><trkpt lat="42.9629253" lon="12.8852786"><ele>949.0</ele><time>2026-04-24T11:03:48.022Z</time></trkpt><trkpt lat="42.9628222" lon="12.8852778"><ele>948.9999999999999</ele><time>2026-04-24T11:03:49.024Z</time></trkpt><trkpt lat="42.9627365" lon="12.885277"><ele>949.0</ele><time>2026-04-24T11:03:50.034Z</time></trkpt><trkpt lat="42.9626716" lon="12.885269"><ele>949.0</ele><time>2026-04-24T11:03:51.014Z</time></trkpt><trkpt lat="42.9625883" lon="12.8852117"><ele>949.0</ele><time>2026-04-24T11:03:53.034Z</time></trkpt><trkpt lat="42.962562" lon="12.8850783"><ele>948.9999999999999</ele><time>2026-04-24T11:03:55.011Z</time></trkpt><trkpt lat="42.9625679" lon="12.8849719"><ele>949.0</ele><time>2026-04-24T11:03:56.011Z</time></trkpt><trkpt lat="42.9625773" lon="12.8848353"><ele>948.75</ele><time>2026-04-24T11:03:57.037Z</time></trkpt><trkpt lat="42.9625934" lon="12.8846695"><ele>948.5</ele><time>2026-04-24T11:03:58.029Z</time></trkpt><trkpt lat="42.9626075" lon="12.8845005"><ele>948.25</ele><time>2026-04-24T11:03:59.003Z</time></trkpt><trkpt lat="42.9626203" lon="12.8843368"><ele>948.0</ele><time>2026-04-24T11:04:00.028Z</time></trkpt><trkpt lat="42.962638" lon="12.8841821"><ele>946.75</ele><time>2026-04-24T11:04:01.023Z</time></trkpt><trkpt lat="42.9626702" lon="12.8840396"><ele>945.5</ele><time>2026-04-24T11:04:02.03Z</time></trkpt><trkpt lat="42.9627128" lon="12.8838972"><ele>944.25</ele><time>2026-04-24T11:04:03.018Z</time></trkpt><trkpt lat="42.9627649" lon="12.8837537"><ele>943.0</ele><time>2026-04-24T11:04:04.024Z</time></trkpt><trkpt lat="42.9628226" lon="12.8836168"><ele>943.0</ele><time>2026-04-24T11:04:05.023Z</time></trkpt><trkpt lat="42.9628965" lon="12.8834798"><ele>943.0</ele><time>2026-04-24T11:04:06.016Z</time></trkpt><trkpt lat="42.9629717" lon="12.8833433"><ele>943.0</ele><time>2026-04-24T11:04:07.025Z</time></trkpt><trkpt lat="42.9630674" lon="12.8832026"><ele>943.0</ele><time>2026-04-24T11:04:08.018Z</time></trkpt><trkpt lat="42.9631633" lon="12.8830621"><ele>941.0</ele><time>2026-04-24T11:04:09.014Z</time></trkpt><trkpt lat="42.9632647" lon="12.8829223"><ele>939.0</ele><time>2026-04-24T11:04:10.011Z</time></trkpt><trkpt lat="42.9633564" lon="12.8827759"><ele>937.0</ele><time>2026-04-24T11:04:11.021Z</time></trkpt><trkpt lat="42.9634359" lon="12.8826428"><ele>935.0</ele><time>2026-04-24T11:04:12.028Z</time></trkpt><trkpt lat="42.9635012" lon="12.8825124"><ele>934.5</ele><time>2026-04-24T11:04:13.011Z</time></trkpt><trkpt lat="42.9635486" lon="12.8823742"><ele>934.0</ele><time>2026-04-24T11:04:14.019Z</time></trkpt><trkpt lat="42.9635691" lon="12.8822245"><ele>933.5</ele><time>2026-04-24T11:04:15.026Z</time></trkpt><trkpt lat="42.9635554" lon="12.8820623"><ele>933.0</ele><time>2026-04-24T11:04:16.003Z</time></trkpt><trkpt lat="42.9635191" lon="12.8819008"><ele>934.75</ele><time>2026-04-24T11:04:17.016Z</time></trkpt><trkpt lat="42.9634758" lon="12.8817332"><ele>936.5</ele><time>2026-04-24T11:04:18.02Z</time></trkpt><trkpt lat="42.9634247" lon="12.8815775"><ele>938.25</ele><time>2026-04-24T11:04:19.029Z</time></trkpt><trkpt lat="42.9633824" lon="12.8814344"><ele>940.0</ele><time>2026-04-24T11:04:20Z</time></trkpt><trkpt lat="42.9633491" lon="12.8812877"><ele>936.25</ele><time>2026-04-24T11:04:21.022Z</time></trkpt><trkpt lat="42.9633269" lon="12.8811396"><ele>932.5</ele><time>2026-04-24T11:04:22.016Z</time></trkpt><trkpt lat="42.9633069" lon="12.8809643"><ele>928.75</ele><time>2026-04-24T11:04:23.025Z</time></trkpt><trkpt lat="42.9632864" lon="12.8807907"><ele>925.0</ele><time>2026-04-24T11:04:24.016Z</time></trkpt><trkpt lat="42.9632731" lon="12.8806186"><ele>924.75</ele><time>2026-04-24T11:04:25.026Z</time></trkpt><trkpt lat="42.9632626" lon="12.8804504"><ele>924.5</ele><time>2026-04-24T11:04:26.034Z</time></trkpt><trkpt lat="42.9632557" lon="12.8802907"><ele>924.25</ele><time>2026-04-24T11:04:27.008Z</time></trkpt><trkpt lat="42.9632526" lon="12.8801402"><ele>924.0</ele><time>2026-04-24T11:04:28.01Z</time></trkpt><trkpt lat="42.9632606" lon="12.8799951"><ele>922.6</ele><time>2026-04-24T11:04:29.027Z</time></trkpt><trkpt lat="42.9632842" lon="12.8798626"><ele>921.2</ele><time>2026-04-24T11:04:30.031Z</time></trkpt><trkpt lat="42.9633168" lon="12.879733"><ele>919.8000000000001</ele><time>2026-04-24T11:04:31.004Z</time></trkpt><trkpt lat="42.9633497" lon="12.8796006"><ele>918.4000000000001</ele><time>2026-04-24T11:04:32.033Z</time></trkpt><trkpt lat="42.9633879" lon="12.8794591"><ele>917.0</ele><time>2026-04-24T11:04:33.025Z</time></trkpt><trkpt lat="42.9634351" lon="12.8793142"><ele>919.0</ele><time>2026-04-24T11:04:34.016Z</time></trkpt><trkpt lat="42.9634827" lon="12.8791726"><ele>921.0</ele><time>2026-04-24T11:04:35.021Z</time></trkpt><trkpt lat="42.9635314" lon="12.8790376"><ele>923.0</ele><time>2026-04-24T11:04:36.024Z</time></trkpt><trkpt lat="42.9635771" lon="12.878908"><ele>925.0</ele><time>2026-04-24T11:04:37.039Z</time></trkpt><trkpt lat="42.9636246" lon="12.8787806"><ele>927.0</ele><time>2026-04-24T11:04:37.999Z</time></trkpt><trkpt lat="42.9636745" lon="12.878667"><ele>927.0</ele><time>2026-04-24T11:04:39.018Z</time></trkpt><trkpt lat="42.9637238" lon="12.8785626"><ele>927.0</ele><time>2026-04-24T11:04:40.039Z</time></trkpt><trkpt lat="42.9637785" lon="12.87846"><ele>927.0</ele><time>2026-04-24T11:04:41.022Z</time></trkpt><trkpt lat="42.9638286" lon="12.8783514"><ele>927.0</ele><time>2026-04-24T11:04:42.013Z</time></trkpt><trkpt lat="42.9638904" lon="12.8782565"><ele>927.0</ele><time>2026-04-24T11:04:43.025Z</time></trkpt><trkpt lat="42.9639529" lon="12.8781573"><ele>925.0</ele><time>2026-04-24T11:04:44.018Z</time></trkpt><trkpt lat="42.964018" lon="12.8780673"><ele>923.0</ele><time>2026-04-24T11:04:45.018Z</time></trkpt><trkpt lat="42.9640738" lon="12.8779912"><ele>921.0</ele><time>2026-04-24T11:04:46.019Z</time></trkpt><trkpt lat="42.9641337" lon="12.8779394"><ele>919.0</ele><time>2026-04-24T11:04:47.024Z</time></trkpt><trkpt lat="42.964237" lon="12.8778523"><ele>917.0</ele><time>2026-04-24T11:04:49.016Z</time></trkpt><trkpt lat="42.9642816" lon="12.8777599"><ele>915.0</ele><time>2026-04-24T11:04:51.014Z</time></trkpt><trkpt lat="42.9642547" lon="12.8776793"><ele>913.0</ele><time>2026-04-24T11:04:53.032Z</time></trkpt><trkpt lat="42.9641694" lon="12.8776873"><ele>911.0</ele><time>2026-04-24T11:04:54.993Z</time></trkpt><trkpt lat="42.9640381" lon="12.8777447"><ele>909.0</ele><time>2026-04-24T11:04:57.009Z</time></trkpt><trkpt lat="42.9639614" lon="12.8777823"><ele>907.0</ele><time>2026-04-24T11:04:58.026Z</time></trkpt><trkpt lat="42.9638764" lon="12.8778132"><ele>905.0</ele><time>2026-04-24T11:04:59.002Z</time></trkpt><trkpt lat="42.9637846" lon="12.8778396"><ele>905.0</ele><time>2026-04-24T11:05:00.026Z</time></trkpt><trkpt lat="42.9636924" lon="12.8778866"><ele>905.0</ele><time>2026-04-24T11:05:01.018Z</time></trkpt><trkpt lat="42.9636003" lon="12.8779388"><ele>905.0</ele><time>2026-04-24T11:05:01.998Z</time></trkpt><trkpt lat="42.9635166" lon="12.8779958"><ele>905.0</ele><time>2026-04-24T11:05:03.019Z</time></trkpt><trkpt lat="42.9634398" lon="12.8780507"><ele>905.0</ele><time>2026-04-24T11:05:04.015Z</time></trkpt><trkpt lat="42.963375" lon="12.8781022"><ele>900.8</ele><time>2026-04-24T11:05:04.993Z</time></trkpt><trkpt lat="42.9632657" lon="12.8781616"><ele>896.6</ele><time>2026-04-24T11:05:07.001Z</time></trkpt><trkpt lat="42.9631838" lon="12.8780984"><ele>892.4000000000001</ele><time>2026-04-24T11:05:09.016Z</time></trkpt><trkpt lat="42.9631871" lon="12.8779615"><ele>888.2</ele><time>2026-04-24T11:05:11.008Z</time></trkpt><trkpt lat="42.9632196" lon="12.8778636"><ele>884.0</ele><time>2026-04-24T11:05:12.02Z</time></trkpt><trkpt lat="42.963269" lon="12.87775"><ele>884.0</ele><time>2026-04-24T11:05:13.031Z</time></trkpt><trkpt lat="42.9633062" lon="12.8776198"><ele>884.0000000000001</ele><time>2026-04-24T11:05:14.017Z</time></trkpt><trkpt lat="42.9633393" lon="12.8774819"><ele>884.0000000000001</ele><time>2026-04-24T11:05:15.018Z</time></trkpt><trkpt lat="42.9633682" lon="12.8773366"><ele>884.0</ele><time>2026-04-24T11:05:16.019Z</time></trkpt><trkpt lat="42.9633922" lon="12.8771902"><ele>884.0</ele><time>2026-04-24T11:05:17.008Z</time></trkpt><trkpt lat="42.9634026" lon="12.8770376"><ele>884.2</ele><time>2026-04-24T11:05:18.021Z</time></trkpt><trkpt lat="42.9634083" lon="12.876892"><ele>884.4000000000001</ele><time>2026-04-24T11:05:19.041Z</time></trkpt><trkpt lat="42.963421" lon="12.8767547"><ele>884.6</ele><time>2026-04-24T11:05:20.023Z</time></trkpt><trkpt lat="42.9634601" lon="12.8766368"><ele>884.8</ele><time>2026-04-24T11:05:21.01Z</time></trkpt><trkpt lat="42.9635097" lon="12.8765161"><ele>885.0</ele><time>2026-04-24T11:05:22.016Z</time></trkpt><trkpt lat="42.9635694" lon="12.8764045"><ele>881.4</ele><time>2026-04-24T11:05:23.032Z</time></trkpt><trkpt lat="42.9636267" lon="12.8762877"><ele>877.8</ele><time>2026-04-24T11:05:24.026Z</time></trkpt><trkpt lat="42.9636809" lon="12.8761757"><ele>874.2</ele><time>2026-04-24T11:05:25.017Z</time></trkpt><trkpt lat="42.9637334" lon="12.8760712"><ele>870.6</ele><time>2026-04-24T11:05:26.023Z</time></trkpt><trkpt lat="42.963785" lon="12.8759698"><ele>867.0</ele><time>2026-04-24T11:05:27.024Z</time></trkpt><trkpt lat="42.9638311" lon="12.8758751"><ele>865.5</ele><time>2026-04-24T11:05:28.029Z</time></trkpt><trkpt lat="42.96388" lon="12.8757971"><ele>864.0</ele><time>2026-04-24T11:05:29.011Z</time></trkpt><trkpt lat="42.9639371" lon="12.8757202"><ele>862.5</ele><time>2026-04-24T11:05:30.011Z</time></trkpt><trkpt lat="42.9640062" lon="12.8756593"><ele>861.0</ele><time>2026-04-24T11:05:31.021Z</time></trkpt><trkpt lat="42.9640824" lon="12.8756049"><ele>859.5</ele><time>2026-04-24T11:05:32.008Z</time></trkpt><trkpt lat="42.964155" lon="12.8755522"><ele>858.0</ele><time>2026-04-24T11:05:33.009Z</time></trkpt><trkpt lat="42.9642202" lon="12.8754948"><ele>858.0</ele><time>2026-04-24T11:05:34.022Z</time></trkpt><trkpt lat="42.9642714" lon="12.8754332"><ele>858.0</ele><time>2026-04-24T11:05:35.018Z</time></trkpt><trkpt lat="42.9643073" lon="12.8753624"><ele>858.0</ele><time>2026-04-24T11:05:36.022Z</time></trkpt><trkpt lat="42.964325" lon="12.8752774"><ele>858.0</ele><time>2026-04-24T11:05:37.011Z</time></trkpt><trkpt lat="42.9643005" lon="12.8751377"><ele>858.0</ele><time>2026-04-24T11:05:39.02Z</time></trkpt><trkpt lat="42.9642468" lon="12.875073"><ele>858.0</ele><time>2026-04-24T11:05:40.015Z</time></trkpt><trkpt lat="42.9641735" lon="12.8750033"><ele>854.8</ele><time>2026-04-24T11:05:41.02Z</time></trkpt><trkpt lat="42.964081" lon="12.8749357"><ele>851.5999999999999</ele><time>2026-04-24T11:05:42.023Z</time></trkpt><trkpt lat="42.9639793" lon="12.8748635"><ele>848.4000000000001</ele><time>2026-04-24T11:05:43.015Z</time></trkpt><trkpt lat="42.9638802" lon="12.8747882"><ele>845.2</ele><time>2026-04-24T11:05:44.013Z</time></trkpt><trkpt lat="42.9637802" lon="12.8747132"><ele>842.0</ele><time>2026-04-24T11:05:45.027Z</time></trkpt><trkpt lat="42.9636803" lon="12.8746408"><ele>842.0</ele><time>2026-04-24T11:05:46.019Z</time></trkpt><trkpt lat="42.9635748" lon="12.8745754"><ele>842.0</ele><time>2026-04-24T11:05:47.027Z</time></trkpt><trkpt lat="42.9634632" lon="12.8745097"><ele>842.0</ele><time>2026-04-24T11:05:48.017Z</time></trkpt><trkpt lat="42.9633542" lon="12.874464"><ele>842.0</ele><time>2026-04-24T11:05:49.022Z</time></trkpt><trkpt lat="42.9632504" lon="12.8744185"><ele>842.6</ele><time>2026-04-24T11:05:50.006Z</time></trkpt><trkpt lat="42.9631422" lon="12.8743931"><ele>843.2</ele><time>2026-04-24T11:05:51.021Z</time></trkpt><trkpt lat="42.9630384" lon="12.8743806"><ele>843.8</ele><time>2026-04-24T11:05:52.026Z</time></trkpt><trkpt lat="42.9629391" lon="12.8743765"><ele>844.4</ele><time>2026-04-24T11:05:53.017Z</time></trkpt><trkpt lat="42.9628467" lon="12.8743793"><ele>845.0</ele><time>2026-04-24T11:05:53.999Z</time></trkpt><trkpt lat="42.9627585" lon="12.8743958"><ele>845.0</ele><time>2026-04-24T11:05:55.023Z</time></trkpt><trkpt lat="42.9626745" lon="12.87442"><ele>845.0</ele><time>2026-04-24T11:05:56.04Z</time></trkpt><trkpt lat="42.962599" lon="12.8744672"><ele>845.0</ele><time>2026-04-24T11:05:57.008Z</time></trkpt><trkpt lat="42.9625187" lon="12.8745395"><ele>845.0</ele><time>2026-04-24T11:05:58.01Z</time></trkpt><trkpt lat="42.9624479" lon="12.8746189"><ele>845.0</ele><time>2026-04-24T11:05:59.028Z</time></trkpt><trkpt lat="42.9623812" lon="12.87472"><ele>842.75</ele><time>2026-04-24T11:06:00.001Z</time></trkpt><trkpt lat="42.9623114" lon="12.8748508"><ele>840.5</ele><time>2026-04-24T11:06:01.007Z</time></trkpt><trkpt lat="42.962248" lon="12.8749889"><ele>838.25</ele><time>2026-04-24T11:06:02.024Z</time></trkpt><trkpt lat="42.9621938" lon="12.8751266"><ele>836.0</ele><time>2026-04-24T11:06:03.032Z</time></trkpt><trkpt lat="42.9621425" lon="12.8752626"><ele>836.0</ele><time>2026-04-24T11:06:04.004Z</time></trkpt><trkpt lat="42.9621009" lon="12.8754001"><ele>836.0</ele><time>2026-04-24T11:06:05.006Z</time></trkpt><trkpt lat="42.962063" lon="12.875542"><ele>836.0</ele><time>2026-04-24T11:06:06.028Z</time></trkpt><trkpt lat="42.9620304" lon="12.8756829"><ele>836.0</ele><time>2026-04-24T11:06:07.018Z</time></trkpt><trkpt lat="42.9620016" lon="12.8758251"><ele>836.0</ele><time>2026-04-24T11:06:08.001Z</time></trkpt><trkpt lat="42.9619777" lon="12.8759735"><ele>836.25</ele><time>2026-04-24T11:06:09.012Z</time></trkpt><trkpt lat="42.9619591" lon="12.8761227"><ele>836.5</ele><time>2026-04-24T11:06:10.033Z</time></trkpt><trkpt lat="42.961944" lon="12.8762797"><ele>836.75</ele><time>2026-04-24T11:06:11.022Z</time></trkpt><trkpt lat="42.9619282" lon="12.8764456"><ele>837.0</ele><time>2026-04-24T11:06:12.019Z</time></trkpt><trkpt lat="42.9619109" lon="12.8766115"><ele>838.75</ele><time>2026-04-24T11:06:13.021Z</time></trkpt><trkpt lat="42.9618846" lon="12.8767704"><ele>840.5</ele><time>2026-04-24T11:06:14.023Z</time></trkpt><trkpt lat="42.9618362" lon="12.8769226"><ele>842.25</ele><time>2026-04-24T11:06:15Z</time></trkpt><trkpt lat="42.9617737" lon="12.8770592"><ele>844.0</ele><time>2026-04-24T11:06:16.016Z</time></trkpt><trkpt lat="42.9617021" lon="12.8771885"><ele>836.0</ele><time>2026-04-24T11:06:17.042Z</time></trkpt><trkpt lat="42.9616319" lon="12.8773107"><ele>828.0</ele><time>2026-04-24T11:06:18.003Z</time></trkpt><trkpt lat="42.9615712" lon="12.8774359"><ele>820.0</ele><time>2026-04-24T11:06:19.014Z</time></trkpt><trkpt lat="42.9615381" lon="12.8775843"><ele>812.0</ele><time>2026-04-24T11:06:20.017Z</time></trkpt><trkpt lat="42.9615268" lon="12.8777705"><ele>811.5</ele><time>2026-04-24T11:06:21.02Z</time></trkpt><trkpt lat="42.9615281" lon="12.8779636"><ele>811.0</ele><time>2026-04-24T11:06:22.011Z</time></trkpt><trkpt lat="42.9615235" lon="12.8781657"><ele>810.5</ele><time>2026-04-24T11:06:23.004Z</time></trkpt><trkpt lat="42.9615219" lon="12.8783764"><ele>810.0</ele><time>2026-04-24T11:06:24.021Z</time></trkpt><trkpt lat="42.9615222" lon="12.8785799"><ele>811.25</ele><time>2026-04-24T11:06:25.026Z</time></trkpt><trkpt lat="42.9615281" lon="12.8787828"><ele>812.5</ele><time>2026-04-24T11:06:26.014Z</time></trkpt><trkpt lat="42.961529" lon="12.8789739"><ele>813.75</ele><time>2026-04-24T11:06:27.021Z</time></trkpt><trkpt lat="42.9615148" lon="12.879146"><ele>815.0</ele><time>2026-04-24T11:06:28.015Z</time></trkpt><trkpt lat="42.9614869" lon="12.879295"><ele>817.0</ele><time>2026-04-24T11:06:29.024Z</time></trkpt><trkpt lat="42.9614582" lon="12.8794122"><ele>819.0</ele><time>2026-04-24T11:06:30.007Z</time></trkpt><trkpt lat="42.9614304" lon="12.8795074"><ele>821.0</ele><time>2026-04-24T11:06:31.018Z</time></trkpt><trkpt lat="42.9613509" lon="12.879621"><ele>823.0</ele><time>2026-04-24T11:06:33.007Z</time></trkpt><trkpt lat="42.9612857" lon="12.8796264"><ele>825.0</ele><time>2026-04-24T11:06:35.996Z</time></trkpt><trkpt lat="42.9612901" lon="12.8794755"><ele>825.0</ele><time>2026-04-24T11:09:17.03Z</time></trkpt><trkpt lat="42.9613099" lon="12.8793571"><ele>825.0</ele><time>2026-04-24T11:09:18.004Z</time></trkpt><trkpt lat="42.9613321" lon="12.8792251"><ele>825.0</ele><time>2026-04-24T11:09:19.01Z</time></trkpt><trkpt lat="42.9613394" lon="12.8790903"><ele>825.0</ele><time>2026-04-24T11:09:20.017Z</time></trkpt><trkpt lat="42.9613305" lon="12.8789433"><ele>825.0</ele><time>2026-04-24T11:09:21.018Z</time></trkpt><trkpt lat="42.9613111" lon="12.8788029"><ele>823.0</ele><time>2026-04-24T11:09:22.011Z</time></trkpt><trkpt lat="42.9612823" lon="12.8786666"><ele>821.0</ele><time>2026-04-24T11:09:23.019Z</time></trkpt><trkpt lat="42.961249" lon="12.8785407"><ele>819.0</ele><time>2026-04-24T11:09:24.024Z</time></trkpt><trkpt lat="42.9611919" lon="12.8784263"><ele>817.0</ele><time>2026-04-24T11:09:25.024Z</time></trkpt><trkpt lat="42.9611215" lon="12.8783275"><ele>815.0</ele><time>2026-04-24T11:09:26.02Z</time></trkpt><trkpt lat="42.9610557" lon="12.8782164"><ele>814.0</ele><time>2026-04-24T11:09:27.02Z</time></trkpt><trkpt lat="42.9610124" lon="12.8781025"><ele>813.0</ele><time>2026-04-24T11:09:28.024Z</time></trkpt><trkpt lat="42.9609872" lon="12.8779627"><ele>812.0</ele><time>2026-04-24T11:09:29.029Z</time></trkpt><trkpt lat="42.9609665" lon="12.8778148"><ele>811.0</ele><time>2026-04-24T11:09:30.023Z</time></trkpt><trkpt lat="42.9609205" lon="12.8776999"><ele>810.0</ele><time>2026-04-24T11:09:30.998Z</time></trkpt><trkpt lat="42.9608635" lon="12.8776501"><ele>806.1666666666666</ele><time>2026-04-24T11:09:32.014Z</time></trkpt><trkpt lat="42.9608044" lon="12.8776099"><ele>802.3333333333333</ele><time>2026-04-24T11:09:33.025Z</time></trkpt><trkpt lat="42.9607526" lon="12.8775603"><ele>798.5</ele><time>2026-04-24T11:09:34.015Z</time></trkpt><trkpt lat="42.9606967" lon="12.8775029"><ele>794.6666666666666</ele><time>2026-04-24T11:09:34.986Z</time></trkpt><trkpt lat="42.9606377" lon="12.8774255"><ele>790.8333333333333</ele><time>2026-04-24T11:09:36.016Z</time></trkpt><trkpt lat="42.9605727" lon="12.8773193"><ele>787.0</ele><time>2026-04-24T11:09:36.997Z</time></trkpt><trkpt lat="42.9605117" lon="12.8771877"><ele>785.75</ele><time>2026-04-24T11:09:37.993Z</time></trkpt><trkpt lat="42.9604422" lon="12.8770467"><ele>784.5</ele><time>2026-04-24T11:09:38.991Z</time></trkpt><trkpt lat="42.9603746" lon="12.8769113"><ele>783.25</ele><time>2026-04-24T11:09:40.019Z</time></trkpt><trkpt lat="42.9603062" lon="12.876775"><ele>782.0</ele><time>2026-04-24T11:09:41.031Z</time></trkpt><trkpt lat="42.9602393" lon="12.876642"><ele>781.8</ele><time>2026-04-24T11:09:42.019Z</time></trkpt><trkpt lat="42.9601654" lon="12.8765252"><ele>781.6</ele><time>2026-04-24T11:09:43.016Z</time></trkpt><trkpt lat="42.9600951" lon="12.8764045"><ele>781.4</ele><time>2026-04-24T11:09:44.021Z</time></trkpt><trkpt lat="42.960034" lon="12.8762822"><ele>781.1999999999999</ele><time>2026-04-24T11:09:45.03Z</time></trkpt><trkpt lat="42.9599801" lon="12.8761559"><ele>781.0</ele><time>2026-04-24T11:09:46.017Z</time></trkpt><trkpt lat="42.9599307" lon="12.876023"><ele>778.1666666666666</ele><time>2026-04-24T11:09:47.022Z</time></trkpt><trkpt lat="42.9598972" lon="12.8759072"><ele>775.3333333333333</ele><time>2026-04-24T11:09:48.016Z</time></trkpt><trkpt lat="42.9598652" lon="12.8758109"><ele>772.5</ele><time>2026-04-24T11:09:49.019Z</time></trkpt><trkpt lat="42.9598471" lon="12.8757166"><ele>769.6666666666666</ele><time>2026-04-24T11:09:51.021Z</time></trkpt><trkpt lat="42.9597739" lon="12.8756243"><ele>766.8333333333333</ele><time>2026-04-24T11:09:54.011Z</time></trkpt><trkpt lat="42.9597111" lon="12.875609"><ele>764.0</ele><time>2026-04-24T11:09:55.026Z</time></trkpt><trkpt lat="42.9596345" lon="12.875606"><ele>764.0</ele><time>2026-04-24T11:09:56.015Z</time></trkpt><trkpt lat="42.959546" lon="12.8756226"><ele>764.0</ele><time>2026-04-24T11:09:57.028Z</time></trkpt><trkpt lat="42.959456" lon="12.8756438"><ele>764.0</ele><time>2026-04-24T11:09:58.015Z</time></trkpt><trkpt lat="42.9593513" lon="12.8756642"><ele>764.0</ele><time>2026-04-24T11:09:59.023Z</time></trkpt><trkpt lat="42.9592354" lon="12.8756812"><ele>764.0</ele><time>2026-04-24T11:10:00.027Z</time></trkpt><trkpt lat="42.9591203" lon="12.8756897"><ele>763.6</ele><time>2026-04-24T11:10:01.037Z</time></trkpt><trkpt lat="42.9590061" lon="12.8756873"><ele>763.2</ele><time>2026-04-24T11:10:02.031Z</time></trkpt><trkpt lat="42.9588915" lon="12.8756882"><ele>762.8000000000001</ele><time>2026-04-24T11:10:03.034Z</time></trkpt><trkpt lat="42.9587925" lon="12.8756984"><ele>762.4000000000001</ele><time>2026-04-24T11:10:03.994Z</time></trkpt><trkpt lat="42.9587058" lon="12.8757145"><ele>762.0</ele><time>2026-04-24T11:10:05.027Z</time></trkpt><trkpt lat="42.9586262" lon="12.8757188"><ele>762.0</ele><time>2026-04-24T11:10:06.017Z</time></trkpt><trkpt lat="42.9585508" lon="12.8757241"><ele>762.0</ele><time>2026-04-24T11:10:07.019Z</time></trkpt><trkpt lat="42.9584755" lon="12.8757307"><ele>762.0</ele><time>2026-04-24T11:10:08.025Z</time></trkpt><trkpt lat="42.9584025" lon="12.8757451"><ele>762.0</ele><time>2026-04-24T11:10:09.022Z</time></trkpt><trkpt lat="42.9583254" lon="12.8757538"><ele>762.0</ele><time>2026-04-24T11:10:09.998Z</time></trkpt><trkpt lat="42.9582448" lon="12.8757646"><ele>762.0</ele><time>2026-04-24T11:10:11.038Z</time></trkpt><trkpt lat="42.9581713" lon="12.875778"><ele>763.4000000000001</ele><time>2026-04-24T11:10:12.2Z</time></trkpt><trkpt lat="42.9580782" lon="12.8758076"><ele>764.8000000000001</ele><time>2026-04-24T11:10:13.995Z</time></trkpt><trkpt lat="42.9579949" lon="12.8758384"><ele>766.2</ele><time>2026-04-24T11:10:49.032Z</time></trkpt><trkpt lat="42.9579008" lon="12.8758006"><ele>767.6</ele><time>2026-04-24T11:10:51.02Z</time></trkpt><trkpt lat="42.9578045" lon="12.8758555"><ele>769.0</ele><time>2026-04-24T11:10:53.032Z</time></trkpt><trkpt lat="42.9577601" lon="12.8759429"><ele>769.0</ele><time>2026-04-24T11:10:54.016Z</time></trkpt><trkpt lat="42.9577137" lon="12.8760318"><ele>769.0</ele><time>2026-04-24T11:10:55.03Z</time></trkpt><trkpt lat="42.9576802" lon="12.8761371"><ele>769.0</ele><time>2026-04-24T11:10:56.02Z</time></trkpt><trkpt lat="42.9576472" lon="12.8762199"><ele>769.0</ele><time>2026-04-24T11:10:57.028Z</time></trkpt><trkpt lat="42.9576135" lon="12.8762962"><ele>769.0</ele><time>2026-04-24T11:10:58.029Z</time></trkpt><trkpt lat="42.9575689" lon="12.8763725"><ele>769.0</ele><time>2026-04-24T11:10:59.022Z</time></trkpt><trkpt lat="42.9575203" lon="12.8764471"><ele>769.0</ele><time>2026-04-24T11:11:00.018Z</time></trkpt><trkpt lat="42.9574676" lon="12.8765132"><ele>769.0</ele><time>2026-04-24T11:11:01.02Z</time></trkpt><trkpt lat="42.9574064" lon="12.8765715"><ele>769.0</ele><time>2026-04-24T11:11:02.022Z</time></trkpt><trkpt lat="42.9573452" lon="12.876623"><ele>769.0</ele><time>2026-04-24T11:11:03.026Z</time></trkpt><trkpt lat="42.9572784" lon="12.876656"><ele>769.0</ele><time>2026-04-24T11:11:04.029Z</time></trkpt><trkpt lat="42.9571983" lon="12.8766656"><ele>769.0</ele><time>2026-04-24T11:11:05.02Z</time></trkpt><trkpt lat="42.9571263" lon="12.8766749"><ele>769.0</ele><time>2026-04-24T11:11:06.002Z</time></trkpt><trkpt lat="42.9570593" lon="12.8766811"><ele>769.0</ele><time>2026-04-24T11:11:07.03Z</time></trkpt><trkpt lat="42.9569467" lon="12.8766962"><ele>768.9999999999999</ele><time>2026-04-24T11:11:09.029Z</time></trkpt><trkpt lat="42.9568565" lon="12.8767577"><ele>769.0</ele><time>2026-04-24T11:11:11.031Z</time></trkpt><trkpt lat="42.9567649" lon="12.8768629"><ele>769.0</ele><time>2026-04-24T11:11:13.019Z</time></trkpt><trkpt lat="42.9567182" lon="12.8769351"><ele>769.0</ele><time>2026-04-24T11:11:14.035Z</time></trkpt><trkpt lat="42.9566675" lon="12.8769927"><ele>768.9999999999999</ele><time>2026-04-24T11:11:15.028Z</time></trkpt><trkpt lat="42.9566035" lon="12.877047"><ele>769.0</ele><time>2026-04-24T11:11:17.005Z</time></trkpt><trkpt lat="42.9565336" lon="12.8770884"><ele>769.4000000000001</ele><time>2026-04-24T11:11:32.024Z</time></trkpt><trkpt lat="42.9564319" lon="12.877168"><ele>769.8</ele><time>2026-04-24T11:11:34.013Z</time></trkpt><trkpt lat="42.9563684" lon="12.8772074"><ele>770.2</ele><time>2026-04-24T11:11:35.03Z</time></trkpt><trkpt lat="42.9562842" lon="12.8772338"><ele>770.5999999999999</ele><time>2026-04-24T11:11:35.997Z</time></trkpt><trkpt lat="42.9561776" lon="12.8772548"><ele>771.0</ele><time>2026-04-24T11:11:37.029Z</time></trkpt><trkpt lat="42.9560618" lon="12.877267"><ele>771.0</ele><time>2026-04-24T11:11:38.018Z</time></trkpt><trkpt lat="42.9559417" lon="12.8773069"><ele>771.0</ele><time>2026-04-24T11:11:39.022Z</time></trkpt><trkpt lat="42.9558057" lon="12.8773735"><ele>771.0</ele><time>2026-04-24T11:11:40.023Z</time></trkpt><trkpt lat="42.9556741" lon="12.8774597"><ele>771.0</ele><time>2026-04-24T11:11:41.029Z</time></trkpt><trkpt lat="42.955557" lon="12.8775445"><ele>774.0</ele><time>2026-04-24T11:11:42.034Z</time></trkpt><trkpt lat="42.9554568" lon="12.8776395"><ele>777.0</ele><time>2026-04-24T11:11:43.035Z</time></trkpt><trkpt lat="42.955363" lon="12.8777519"><ele>780.0</ele><time>2026-04-24T11:11:44.023Z</time></trkpt><trkpt lat="42.9552709" lon="12.8778658"><ele>783.0</ele><time>2026-04-24T11:11:45.017Z</time></trkpt><trkpt lat="42.9551842" lon="12.8779689"><ele>783.0</ele><time>2026-04-24T11:11:46.024Z</time></trkpt><trkpt lat="42.9550825" lon="12.8780368"><ele>783.0</ele><time>2026-04-24T11:11:47.027Z</time></trkpt><trkpt lat="42.9549492" lon="12.8780765"><ele>783.0</ele><time>2026-04-24T11:11:48.03Z</time></trkpt><trkpt lat="42.9548115" lon="12.8780933"><ele>783.0</ele><time>2026-04-24T11:11:49.035Z</time></trkpt><trkpt lat="42.954685" lon="12.8780926"><ele>782.25</ele><time>2026-04-24T11:11:50.025Z</time></trkpt><trkpt lat="42.954567" lon="12.878101"><ele>781.5</ele><time>2026-04-24T11:11:51.029Z</time></trkpt><trkpt lat="42.9544496" lon="12.8781017"><ele>780.75</ele><time>2026-04-24T11:11:52.028Z</time></trkpt><trkpt lat="42.9543275" lon="12.8781018"><ele>780.0</ele><time>2026-04-24T11:11:53.036Z</time></trkpt><trkpt lat="42.9542018" lon="12.8780979"><ele>780.0</ele><time>2026-04-24T11:11:54.017Z</time></trkpt><trkpt lat="42.9540724" lon="12.8780946"><ele>780.0</ele><time>2026-04-24T11:11:55.029Z</time></trkpt><trkpt lat="42.9539459" lon="12.8780941"><ele>780.0</ele><time>2026-04-24T11:11:56.025Z</time></trkpt><trkpt lat="42.9538346" lon="12.8780982"><ele>780.0</ele><time>2026-04-24T11:11:57.024Z</time></trkpt><trkpt lat="42.9537199" lon="12.8781025"><ele>780.0</ele><time>2026-04-24T11:11:58.02Z</time></trkpt><trkpt lat="42.9536003" lon="12.8781013"><ele>780.0</ele><time>2026-04-24T11:11:59.034Z</time></trkpt><trkpt lat="42.9534795" lon="12.8780929"><ele>780.0</ele><time>2026-04-24T11:12:00.011Z</time></trkpt><trkpt lat="42.9533604" lon="12.8780896"><ele>780.0</ele><time>2026-04-24T11:12:01.031Z</time></trkpt><trkpt lat="42.9532484" lon="12.8780947"><ele>780.5</ele><time>2026-04-24T11:12:02.019Z</time></trkpt><trkpt lat="42.9531364" lon="12.8781027"><ele>781.0</ele><time>2026-04-24T11:12:03.024Z</time></trkpt><trkpt lat="42.9530462" lon="12.8780993"><ele>781.5</ele><time>2026-04-24T11:12:04.015Z</time></trkpt><trkpt lat="42.952973" lon="12.8780963"><ele>782.0</ele><time>2026-04-24T11:12:05.032Z</time></trkpt><trkpt lat="42.952905" lon="12.8780983"><ele>782.5</ele><time>2026-04-24T11:12:06.032Z</time></trkpt><trkpt lat="42.9528067" lon="12.8780993"><ele>783.0</ele><time>2026-04-24T11:12:08.027Z</time></trkpt><trkpt lat="42.9527259" lon="12.8780678"><ele>783.0</ele><time>2026-04-24T11:12:10.028Z</time></trkpt><trkpt lat="42.9526574" lon="12.8779633"><ele>783.0</ele><time>2026-04-24T11:12:12.001Z</time></trkpt><trkpt lat="42.9525864" lon="12.8778516"><ele>783.0</ele><time>2026-04-24T11:12:14.024Z</time></trkpt><trkpt lat="42.9525415" lon="12.8777697"><ele>783.0</ele><time>2026-04-24T11:12:16.011Z</time></trkpt><trkpt lat="42.9525225" lon="12.8776289"><ele>783.0</ele><time>2026-04-24T11:12:18.019Z</time></trkpt><trkpt lat="42.9525287" lon="12.8774696"><ele>782.6666666666666</ele><time>2026-04-24T11:12:20.006Z</time></trkpt><trkpt lat="42.9525425" lon="12.8773815"><ele>782.3333333333333</ele><time>2026-04-24T11:12:21.026Z</time></trkpt><trkpt lat="42.9525709" lon="12.8772269"><ele>782.0</ele><time>2026-04-24T11:12:23.03Z</time></trkpt><trkpt lat="42.9525992" lon="12.877091"><ele>781.6666666666666</ele><time>2026-04-24T11:12:25.031Z</time></trkpt><trkpt lat="42.9525632" lon="12.87702"><ele>781.3333333333333</ele><time>2026-04-24T11:12:27.023Z</time></trkpt><trkpt lat="42.9524988" lon="12.8770494"><ele>781.0</ele><time>2026-04-24T11:12:29.014Z</time></trkpt><trkpt lat="42.9524557" lon="12.8771625"><ele>783.5999999999999</ele><time>2026-04-24T11:12:31.018Z</time></trkpt><trkpt lat="42.9523573" lon="12.8772176"><ele>786.2</ele><time>2026-04-24T11:12:33.025Z</time></trkpt><trkpt lat="42.9522564" lon="12.8772091"><ele>788.8</ele><time>2026-04-24T11:12:35.043Z</time></trkpt><trkpt lat="42.952154" lon="12.8770846"><ele>791.4000000000001</ele><time>2026-04-24T11:12:37.028Z</time></trkpt><trkpt lat="42.952098" lon="12.877"><ele>794.0</ele><time>2026-04-24T11:12:38.015Z</time></trkpt><trkpt lat="42.9520393" lon="12.8769002"><ele>794.0000000000001</ele><time>2026-04-24T11:12:39.031Z</time></trkpt><trkpt lat="42.9519784" lon="12.8767994"><ele>794.0</ele><time>2026-04-24T11:12:40.018Z</time></trkpt><trkpt lat="42.95192" lon="12.876708"><ele>794.0</ele><time>2026-04-24T11:12:41.037Z</time></trkpt><trkpt lat="42.9518713" lon="12.8766253"><ele>794.0</ele><time>2026-04-24T11:12:42.038Z</time></trkpt><trkpt lat="42.951831" lon="12.8765416"><ele>794.0000000000001</ele><time>2026-04-24T11:12:43.024Z</time></trkpt><trkpt lat="42.9517948" lon="12.876452"><ele>794.0</ele><time>2026-04-24T11:12:44.019Z</time></trkpt><trkpt lat="42.9517609" lon="12.8763491"><ele>795.0</ele><time>2026-04-24T11:12:45.033Z</time></trkpt><trkpt lat="42.9517209" lon="12.8762434"><ele>796.0</ele><time>2026-04-24T11:12:46.022Z</time></trkpt><trkpt lat="42.9516802" lon="12.8761539"><ele>797.0</ele><time>2026-04-24T11:12:47.035Z</time></trkpt><trkpt lat="42.951644" lon="12.876073"><ele>798.0</ele><time>2026-04-24T11:12:48.033Z</time></trkpt><trkpt lat="42.9516063" lon="12.8760017"><ele>799.0</ele><time>2026-04-24T11:12:49.026Z</time></trkpt><trkpt lat="42.9515744" lon="12.875926"><ele>800.0</ele><time>2026-04-24T11:12:50.017Z</time></trkpt><trkpt lat="42.9515457" lon="12.8758456"><ele>801.0</ele><time>2026-04-24T11:12:51.034Z</time></trkpt><trkpt lat="42.9515211" lon="12.8757648"><ele>802.5999999999999</ele><time>2026-04-24T11:12:52.03Z</time></trkpt><trkpt lat="42.951492" lon="12.8756252"><ele>804.2</ele><time>2026-04-24T11:12:54.025Z</time></trkpt><trkpt lat="42.95148" lon="12.8754878"><ele>805.8</ele><time>2026-04-24T11:12:56.027Z</time></trkpt><trkpt lat="42.9514638" lon="12.8753624"><ele>807.4000000000001</ele><time>2026-04-24T11:12:58.03Z</time></trkpt><trkpt lat="42.9514502" lon="12.8752545"><ele>809.0</ele><time>2026-04-24T11:13:00.027Z</time></trkpt><trkpt lat="42.9514345" lon="12.8751568"><ele>810.1666666666667</ele><time>2026-04-24T11:13:02.024Z</time></trkpt><trkpt lat="42.9513977" lon="12.8750579"><ele>811.3333333333334</ele><time>2026-04-24T11:13:04.02Z</time></trkpt><trkpt lat="42.9513377" lon="12.8749122"><ele>812.5</ele><time>2026-04-24T11:13:06.028Z</time></trkpt><trkpt lat="42.9513044" lon="12.8748279"><ele>813.6666666666667</ele><time>2026-04-24T11:13:07.027Z</time></trkpt><trkpt lat="42.951271" lon="12.8747409"><ele>814.8333333333334</ele><time>2026-04-24T11:13:08.025Z</time></trkpt><trkpt lat="42.9512357" lon="12.8746482"><ele>816.0</ele><time>2026-04-24T11:13:09.023Z</time></trkpt><trkpt lat="42.9512022" lon="12.8745698"><ele>816.0</ele><time>2026-04-24T11:13:10.028Z</time></trkpt><trkpt lat="42.9511498" lon="12.874483"><ele>816.0</ele><time>2026-04-24T11:13:12.023Z</time></trkpt><trkpt lat="42.9510742" lon="12.8744684"><ele>816.0</ele><time>2026-04-24T11:13:51.02Z</time></trkpt><trkpt lat="42.9511838" lon="12.8745528"><ele>816.0</ele><time>2026-04-24T11:14:11.005Z</time></trkpt><trkpt lat="42.9512272" lon="12.8746384"><ele>816.0</ele><time>2026-04-24T11:14:12.004Z</time></trkpt><trkpt lat="42.9512618" lon="12.8747215"><ele>816.0</ele><time>2026-04-24T11:14:13.004Z</time></trkpt><trkpt lat="42.9513081" lon="12.8748391"><ele>816.0</ele><time>2026-04-24T11:14:14.003Z</time></trkpt><trkpt lat="42.9513645" lon="12.8749681"><ele>816.0</ele><time>2026-04-24T11:14:15.008Z</time></trkpt><trkpt lat="42.9514096" lon="12.8750688"><ele>816.0</ele><time>2026-04-24T11:14:16.025Z</time></trkpt><trkpt lat="42.9514443" lon="12.8751687"><ele>816.0</ele><time>2026-04-24T11:14:17.011Z</time></trkpt><trkpt lat="42.9514673" lon="12.875285"><ele>816.0</ele><time>2026-04-24T11:14:18.014Z</time></trkpt><trkpt lat="42.951484" lon="12.8754125"><ele>814.5999999999999</ele><time>2026-04-24T11:14:19.014Z</time></trkpt><trkpt lat="42.9514966" lon="12.8755409"><ele>813.2</ele><time>2026-04-24T11:14:20.014Z</time></trkpt><trkpt lat="42.9515097" lon="12.875657"><ele>811.8</ele><time>2026-04-24T11:14:21.006Z</time></trkpt><trkpt lat="42.9515302" lon="12.8757696"><ele>810.4000000000001</ele><time>2026-04-24T11:14:22.023Z</time></trkpt><trkpt lat="42.9515603" lon="12.875886"><ele>809.0</ele><time>2026-04-24T11:14:23.026Z</time></trkpt><trkpt lat="42.9516097" lon="12.8760087"><ele>809.2</ele><time>2026-04-24T11:14:24.002Z</time></trkpt><trkpt lat="42.9516689" lon="12.8761349"><ele>809.4000000000001</ele><time>2026-04-24T11:14:25.008Z</time></trkpt><trkpt lat="42.9517317" lon="12.8762698"><ele>809.6</ele><time>2026-04-24T11:14:26.021Z</time></trkpt><trkpt lat="42.951784" lon="12.8763927"><ele>809.8</ele><time>2026-04-24T11:14:27.016Z</time></trkpt><trkpt lat="42.9518263" lon="12.8765138"><ele>810.0</ele><time>2026-04-24T11:14:28.008Z</time></trkpt><trkpt lat="42.9518777" lon="12.8766278"><ele>810.0</ele><time>2026-04-24T11:14:29.033Z</time></trkpt><trkpt lat="42.9519402" lon="12.8767303"><ele>810.0</ele><time>2026-04-24T11:14:30.025Z</time></trkpt><trkpt lat="42.9520092" lon="12.876837"><ele>810.0</ele><time>2026-04-24T11:14:31.004Z</time></trkpt><trkpt lat="42.9520735" lon="12.8769411"><ele>810.0</ele><time>2026-04-24T11:14:31.998Z</time></trkpt><trkpt lat="42.9521365" lon="12.8770427"><ele>810.0</ele><time>2026-04-24T11:14:33.012Z</time></trkpt><trkpt lat="42.9521936" lon="12.877127"><ele>806.8</ele><time>2026-04-24T11:14:34.032Z</time></trkpt><trkpt lat="42.9522486" lon="12.8771881"><ele>803.6</ele><time>2026-04-24T11:14:35.001Z</time></trkpt><trkpt lat="42.9523507" lon="12.8772145"><ele>800.4000000000001</ele><time>2026-04-24T11:14:37.013Z</time></trkpt><trkpt lat="42.9524565" lon="12.8771598"><ele>797.2</ele><time>2026-04-24T11:14:39.01Z</time></trkpt><trkpt lat="42.9525288" lon="12.8770472"><ele>794.0</ele><time>2026-04-24T11:14:41.012Z</time></trkpt><trkpt lat="42.9525942" lon="12.8770293"><ele>794.0000000000001</ele><time>2026-04-24T11:14:43.004Z</time></trkpt><trkpt lat="42.9526126" lon="12.8771227"><ele>794.0</ele><time>2026-04-24T11:14:45.016Z</time></trkpt><trkpt lat="42.9525758" lon="12.8772603"><ele>794.0</ele><time>2026-04-24T11:14:47.016Z</time></trkpt><trkpt lat="42.9525534" lon="12.8773628"><ele>794.0</ele><time>2026-04-24T11:14:48.03Z</time></trkpt><trkpt lat="42.9525363" lon="12.8774728"><ele>794.0000000000001</ele><time>2026-04-24T11:14:49.019Z</time></trkpt><trkpt lat="42.9525304" lon="12.8775784"><ele>794.0</ele><time>2026-04-24T11:14:50.015Z</time></trkpt><trkpt lat="42.9525367" lon="12.877685"><ele>792.4285714285714</ele><time>2026-04-24T11:14:51.014Z</time></trkpt><trkpt lat="42.9525632" lon="12.8777809"><ele>790.8571428571429</ele><time>2026-04-24T11:14:52.033Z</time></trkpt><trkpt lat="42.9526108" lon="12.8778598"><ele>789.2857142857142</ele><time>2026-04-24T11:14:53.012Z</time></trkpt><trkpt lat="42.9526638" lon="12.8779272"><ele>787.7142857142858</ele><time>2026-04-24T11:14:54.015Z</time></trkpt><trkpt lat="42.952719" lon="12.877987"><ele>786.1428571428572</ele><time>2026-04-24T11:14:55.003Z</time></trkpt><trkpt lat="42.9527687" lon="12.8780689"><ele>784.5714285714286</ele><time>2026-04-24T11:14:57.009Z</time></trkpt><trkpt lat="42.9527186" lon="12.8781479"><ele>783.0</ele><time>2026-04-24T11:15:03.005Z</time></trkpt><trkpt lat="42.9526072" lon="12.8782454"><ele>783.0</ele><time>2026-04-24T11:15:06.015Z</time></trkpt><trkpt lat="42.9525479" lon="12.8783202"><ele>783.0</ele><time>2026-04-24T11:15:07.027Z</time></trkpt><trkpt lat="42.9524911" lon="12.878414"><ele>783.0</ele><time>2026-04-24T11:15:08.022Z</time></trkpt><trkpt lat="42.9524309" lon="12.8785391"><ele>783.0</ele><time>2026-04-24T11:15:09.02Z</time></trkpt><trkpt lat="42.9523777" lon="12.8786859"><ele>783.0</ele><time>2026-04-24T11:15:10.02Z</time></trkpt><trkpt lat="42.9523481" lon="12.8788474"><ele>785.0</ele><time>2026-04-24T11:15:11.033Z</time></trkpt><trkpt lat="42.9523135" lon="12.87903"><ele>787.0</ele><time>2026-04-24T11:15:12.018Z</time></trkpt><trkpt lat="42.9522673" lon="12.8792309"><ele>789.0</ele><time>2026-04-24T11:15:13.008Z</time></trkpt><trkpt lat="42.9522128" lon="12.8794285"><ele>791.0</ele><time>2026-04-24T11:15:14.037Z</time></trkpt><trkpt lat="42.9521402" lon="12.8796135"><ele>791.3333333333334</ele><time>2026-04-24T11:15:15.019Z</time></trkpt><trkpt lat="42.9520601" lon="12.8797871"><ele>791.6666666666667</ele><time>2026-04-24T11:15:15.997Z</time></trkpt><trkpt lat="42.9519723" lon="12.8799532"><ele>792.0</ele><time>2026-04-24T11:15:17.027Z</time></trkpt><trkpt lat="42.9518763" lon="12.8801207"><ele>793.6666666666667</ele><time>2026-04-24T11:15:18.03Z</time></trkpt><trkpt lat="42.9517745" lon="12.8802756"><ele>795.3333333333334</ele><time>2026-04-24T11:15:19.038Z</time></trkpt><trkpt lat="42.9516643" lon="12.8804239"><ele>797.0</ele><time>2026-04-24T11:15:19.999Z</time></trkpt><trkpt lat="42.9515519" lon="12.8805664"><ele>795.25</ele><time>2026-04-24T11:15:21.017Z</time></trkpt><trkpt lat="42.9514428" lon="12.8807111"><ele>793.5</ele><time>2026-04-24T11:15:22.005Z</time></trkpt><trkpt lat="42.9513369" lon="12.8808553"><ele>791.75</ele><time>2026-04-24T11:15:23.033Z</time></trkpt><trkpt lat="42.95124" lon="12.8809875"><ele>790.0</ele><time>2026-04-24T11:15:24.023Z</time></trkpt><trkpt lat="42.9511475" lon="12.8811189"><ele>790.0</ele><time>2026-04-24T11:15:25.019Z</time></trkpt><trkpt lat="42.9510532" lon="12.881241"><ele>790.0</ele><time>2026-04-24T11:15:26.028Z</time></trkpt><trkpt lat="42.9509668" lon="12.8813543"><ele>790.0</ele><time>2026-04-24T11:15:27.01Z</time></trkpt><trkpt lat="42.9508818" lon="12.8814672"><ele>790.0</ele><time>2026-04-24T11:15:28.01Z</time></trkpt><trkpt lat="42.9507916" lon="12.8815763"><ele>787.25</ele><time>2026-04-24T11:15:29.024Z</time></trkpt><trkpt lat="42.9507011" lon="12.8816904"><ele>784.5</ele><time>2026-04-24T11:15:30.028Z</time></trkpt><trkpt lat="42.9506099" lon="12.8818068"><ele>781.75</ele><time>2026-04-24T11:15:31.016Z</time></trkpt><trkpt lat="42.9505074" lon="12.8819305"><ele>779.0</ele><time>2026-04-24T11:15:32.021Z</time></trkpt><trkpt lat="42.9504034" lon="12.882058"><ele>779.0</ele><time>2026-04-24T11:15:33.016Z</time></trkpt><trkpt lat="42.9503021" lon="12.8821823"><ele>779.0</ele><time>2026-04-24T11:15:34.026Z</time></trkpt><trkpt lat="42.9502016" lon="12.8823119"><ele>779.0</ele><time>2026-04-24T11:15:35.002Z</time></trkpt><trkpt lat="42.95011" lon="12.8824325"><ele>779.0</ele><time>2026-04-24T11:15:36.011Z</time></trkpt><trkpt lat="42.9500278" lon="12.8825366"><ele>777.4000000000001</ele><time>2026-04-24T11:15:37.005Z</time></trkpt><trkpt lat="42.9499597" lon="12.8826212"><ele>775.8</ele><time>2026-04-24T11:15:38.013Z</time></trkpt><trkpt lat="42.9499116" lon="12.8826833"><ele>774.2</ele><time>2026-04-24T11:15:39.019Z</time></trkpt><trkpt lat="42.949868" lon="12.8827877"><ele>772.5999999999999</ele><time>2026-04-24T11:15:41.027Z</time></trkpt><trkpt lat="42.9499302" lon="12.8828767"><ele>771.0</ele><time>2026-04-24T11:15:43.014Z</time></trkpt><trkpt lat="42.9500279" lon="12.8830032"><ele>773.0</ele><time>2026-04-24T11:15:45.03Z</time></trkpt><trkpt lat="42.9500785" lon="12.8830739"><ele>775.0</ele><time>2026-04-24T11:15:46.001Z</time></trkpt><trkpt lat="42.9501392" lon="12.8831544"><ele>777.0</ele><time>2026-04-24T11:15:47.021Z</time></trkpt><trkpt lat="42.950214" lon="12.8832376"><ele>779.0</ele><time>2026-04-24T11:15:48.033Z</time></trkpt><trkpt lat="42.9502904" lon="12.8833114"><ele>781.0</ele><time>2026-04-24T11:15:49.035Z</time></trkpt><trkpt lat="42.9503619" lon="12.883388"><ele>783.0</ele><time>2026-04-24T11:15:49.999Z</time></trkpt><trkpt lat="42.9504322" lon="12.8834614"><ele>783.4</ele><time>2026-04-24T11:15:51.021Z</time></trkpt><trkpt lat="42.9505201" lon="12.883509"><ele>783.8</ele><time>2026-04-24T11:15:52.005Z</time></trkpt><trkpt lat="42.9506108" lon="12.8835406"><ele>784.2</ele><time>2026-04-24T11:15:53.007Z</time></trkpt><trkpt lat="42.9507055" lon="12.8835582"><ele>784.6</ele><time>2026-04-24T11:15:54.007Z</time></trkpt><trkpt lat="42.9507955" lon="12.8835649"><ele>785.0</ele><time>2026-04-24T11:15:55.01Z</time></trkpt><trkpt lat="42.9508786" lon="12.8835917"><ele>787.3333333333334</ele><time>2026-04-24T11:15:56.014Z</time></trkpt><trkpt lat="42.9509523" lon="12.8836441"><ele>789.6666666666667</ele><time>2026-04-24T11:15:57.011Z</time></trkpt><trkpt lat="42.9510129" lon="12.8836944"><ele>792.0</ele><time>2026-04-24T11:15:58.015Z</time></trkpt><trkpt lat="42.9510046" lon="12.8838177"><ele>794.3333333333333</ele><time>2026-04-24T11:16:00.014Z</time></trkpt><trkpt lat="42.950954" lon="12.8839097"><ele>796.6666666666666</ele><time>2026-04-24T11:16:02.006Z</time></trkpt><trkpt lat="42.9509156" lon="12.8839947"><ele>799.0</ele><time>2026-04-24T11:16:03.028Z</time></trkpt><trkpt lat="42.95089" lon="12.8840814"><ele>798.0</ele><time>2026-04-24T11:16:04.006Z</time></trkpt><trkpt lat="42.9508454" lon="12.8841948"><ele>797.0</ele><time>2026-04-24T11:16:05.022Z</time></trkpt><trkpt lat="42.9507922" lon="12.8843331"><ele>796.0</ele><time>2026-04-24T11:16:06.008Z</time></trkpt><trkpt lat="42.9507319" lon="12.8844706"><ele>795.0</ele><time>2026-04-24T11:16:07.018Z</time></trkpt><trkpt lat="42.9506766" lon="12.8846051"><ele>794.0</ele><time>2026-04-24T11:16:08.01Z</time></trkpt><trkpt lat="42.9506088" lon="12.8847356"><ele>794.0</ele><time>2026-04-24T11:16:09.014Z</time></trkpt><trkpt lat="42.9505357" lon="12.8848729"><ele>794.0</ele><time>2026-04-24T11:16:10.026Z</time></trkpt><trkpt lat="42.950457" lon="12.8849934"><ele>794.0</ele><time>2026-04-24T11:16:11.028Z</time></trkpt><trkpt lat="42.9503788" lon="12.8851042"><ele>794.0</ele><time>2026-04-24T11:16:12.03Z</time></trkpt><trkpt lat="42.950294" lon="12.8852055"><ele>794.6666666666667</ele><time>2026-04-24T11:16:13.014Z</time></trkpt><trkpt lat="42.9502057" lon="12.8852779"><ele>795.3333333333334</ele><time>2026-04-24T11:16:14.026Z</time></trkpt><trkpt lat="42.9501259" lon="12.8853194"><ele>796.0</ele><time>2026-04-24T11:16:15.015Z</time></trkpt><trkpt lat="42.9500583" lon="12.8853428"><ele>796.6666666666667</ele><time>2026-04-24T11:16:16.013Z</time></trkpt><trkpt lat="42.9499465" lon="12.8853984"><ele>797.3333333333334</ele><time>2026-04-24T11:16:18.007Z</time></trkpt><trkpt lat="42.9498912" lon="12.8854493"><ele>798.0</ele><time>2026-04-24T11:16:19.034Z</time></trkpt><trkpt lat="42.9498403" lon="12.8855075"><ele>798.0</ele><time>2026-04-24T11:16:20.007Z</time></trkpt><trkpt lat="42.9497971" lon="12.8855849"><ele>798.0</ele><time>2026-04-24T11:16:21.018Z</time></trkpt><trkpt lat="42.9497423" lon="12.88566"><ele>798.0</ele><time>2026-04-24T11:16:22.021Z</time></trkpt><trkpt lat="42.9496856" lon="12.8857263"><ele>798.0</ele><time>2026-04-24T11:16:23.028Z</time></trkpt><trkpt lat="42.9496243" lon="12.8857748"><ele>798.0</ele><time>2026-04-24T11:16:24.017Z</time></trkpt><trkpt lat="42.9495533" lon="12.8858178"><ele>798.0</ele><time>2026-04-24T11:16:25.019Z</time></trkpt><trkpt lat="42.949474" lon="12.8858478"><ele>798.0</ele><time>2026-04-24T11:16:26.01Z</time></trkpt><trkpt lat="42.949391" lon="12.8858825"><ele>798.0</ele><time>2026-04-24T11:16:27.027Z</time></trkpt><trkpt lat="42.9493116" lon="12.8859336"><ele>798.0</ele><time>2026-04-24T11:16:27.998Z</time></trkpt><trkpt lat="42.9492358" lon="12.8860089"><ele>798.0</ele><time>2026-04-24T11:16:29.027Z</time></trkpt><trkpt lat="42.9491599" lon="12.8861001"><ele>798.0</ele><time>2026-04-24T11:16:30.022Z</time></trkpt><trkpt lat="42.9490874" lon="12.8862078"><ele>800.2</ele><time>2026-04-24T11:16:31.006Z</time></trkpt><trkpt lat="42.9490125" lon="12.8863251"><ele>802.4</ele><time>2026-04-24T11:16:31.998Z</time></trkpt><trkpt lat="42.9489481" lon="12.8864391"><ele>804.6</ele><time>2026-04-24T11:16:33.017Z</time></trkpt><trkpt lat="42.948905" lon="12.8865593"><ele>806.8000000000001</ele><time>2026-04-24T11:16:33.989Z</time></trkpt><trkpt lat="42.9488934" lon="12.886701"><ele>809.0</ele><time>2026-04-24T11:16:35.015Z</time></trkpt><trkpt lat="42.9489106" lon="12.8868716"><ele>811.75</ele><time>2026-04-24T11:16:36.016Z</time></trkpt><trkpt lat="42.9489459" lon="12.8870302"><ele>814.5</ele><time>2026-04-24T11:16:37.022Z</time></trkpt><trkpt lat="42.9489861" lon="12.8871674"><ele>817.25</ele><time>2026-04-24T11:16:38.006Z</time></trkpt><trkpt lat="42.9490367" lon="12.8872948"><ele>820.0</ele><time>2026-04-24T11:16:39.012Z</time></trkpt><trkpt lat="42.9490705" lon="12.8874473"><ele>822.75</ele><time>2026-04-24T11:16:40.015Z</time></trkpt><trkpt lat="42.9490984" lon="12.8876088"><ele>825.5</ele><time>2026-04-24T11:16:41.038Z</time></trkpt><trkpt lat="42.9491394" lon="12.8877808"><ele>828.25</ele><time>2026-04-24T11:16:42.01Z</time></trkpt><trkpt lat="42.9492005" lon="12.8879617"><ele>831.0</ele><time>2026-04-24T11:16:43.016Z</time></trkpt><trkpt lat="42.9492676" lon="12.8881446"><ele>836.0</ele><time>2026-04-24T11:16:44.017Z</time></trkpt><trkpt lat="42.9493237" lon="12.8883243"><ele>841.0</ele><time>2026-04-24T11:16:45.022Z</time></trkpt><trkpt lat="42.9493767" lon="12.8884835"><ele>846.0</ele><time>2026-04-24T11:16:46.011Z</time></trkpt><trkpt lat="42.9494229" lon="12.8886131"><ele>851.0</ele><time>2026-04-24T11:16:47.016Z</time></trkpt><trkpt lat="42.9494661" lon="12.8887073"><ele>851.0000000000001</ele><time>2026-04-24T11:16:48.006Z</time></trkpt><trkpt lat="42.949546" lon="12.8887681"><ele>851.0</ele><time>2026-04-24T11:16:50.01Z</time></trkpt><trkpt lat="42.9496045" lon="12.8886877"><ele>851.0</ele><time>2026-04-24T11:16:52.01Z</time></trkpt><trkpt lat="42.9495769" lon="12.888609"><ele>851.0</ele><time>2026-04-24T11:16:53.008Z</time></trkpt><trkpt lat="42.9495335" lon="12.8885086"><ele>851.0000000000001</ele><time>2026-04-24T11:16:54.005Z</time></trkpt><trkpt lat="42.9494975" lon="12.8883811"><ele>851.0</ele><time>2026-04-24T11:16:55.013Z</time></trkpt><trkpt lat="42.9494725" lon="12.8882399"><ele>851.0</ele><time>2026-04-24T11:16:56.025Z</time></trkpt><trkpt lat="42.9494523" lon="12.8881156"><ele>851.0</ele><time>2026-04-24T11:16:57.005Z</time></trkpt><trkpt lat="42.9494426" lon="12.88801"><ele>851.0</ele><time>2026-04-24T11:16:58.014Z</time></trkpt><trkpt lat="42.949463" lon="12.8878762"><ele>851.0</ele><time>2026-04-24T11:17:00.018Z</time></trkpt><trkpt lat="42.9495293" lon="12.8878911"><ele>851.0</ele><time>2026-04-24T11:17:02.01Z</time></trkpt><trkpt lat="42.9495811" lon="12.8880623"><ele>851.0</ele><time>2026-04-24T11:17:03.992Z</time></trkpt><trkpt lat="42.9495957" lon="12.888173"><ele>851.0</ele><time>2026-04-24T11:17:05.001Z</time></trkpt><trkpt lat="42.9496224" lon="12.8882714"><ele>851.0</ele><time>2026-04-24T11:17:05.995Z</time></trkpt><trkpt lat="42.949685" lon="12.8884176"><ele>851.0</ele><time>2026-04-24T11:17:07.014Z</time></trkpt><trkpt lat="42.9497763" lon="12.8885575"><ele>851.0</ele><time>2026-04-24T11:17:08.016Z</time></trkpt><trkpt lat="42.9498918" lon="12.8887036"><ele>851.0</ele><time>2026-04-24T11:17:08.995Z</time></trkpt><trkpt lat="42.9500148" lon="12.8888509"><ele>851.0</ele><time>2026-04-24T11:17:10.011Z</time></trkpt><trkpt lat="42.9501436" lon="12.8890114"><ele>851.0</ele><time>2026-04-24T11:17:11.016Z</time></trkpt><trkpt lat="42.9502633" lon="12.8891669"><ele>855.5</ele><time>2026-04-24T11:17:12.019Z</time></trkpt><trkpt lat="42.9503523" lon="12.8893367"><ele>860.0</ele><time>2026-04-24T11:17:13.006Z</time></trkpt><trkpt lat="42.9504268" lon="12.8895161"><ele>864.5</ele><time>2026-04-24T11:17:14.011Z</time></trkpt><trkpt lat="42.9504841" lon="12.8896941"><ele>869.0</ele><time>2026-04-24T11:17:14.997Z</time></trkpt><trkpt lat="42.9505264" lon="12.8898346"><ele>869.0</ele><time>2026-04-24T11:17:16.019Z</time></trkpt><trkpt lat="42.950567" lon="12.8899244"><ele>869.0000000000001</ele><time>2026-04-24T11:17:16.995Z</time></trkpt><trkpt lat="42.9506509" lon="12.8899699"><ele>869.0000000000001</ele><time>2026-04-24T11:17:19.024Z</time></trkpt><trkpt lat="42.9506861" lon="12.8898722"><ele>869.0</ele><time>2026-04-24T11:17:21.002Z</time></trkpt><trkpt lat="42.9506281" lon="12.8897599"><ele>869.0</ele><time>2026-04-24T11:17:22.008Z</time></trkpt><trkpt lat="42.950574" lon="12.8896143"><ele>869.0</ele><time>2026-04-24T11:17:23.014Z</time></trkpt><trkpt lat="42.950543" lon="12.8894529"><ele>869.0</ele><time>2026-04-24T11:17:24.003Z</time></trkpt><trkpt lat="42.9505017" lon="12.8892758"><ele>869.0</ele><time>2026-04-24T11:17:25.002Z</time></trkpt><trkpt lat="42.9504575" lon="12.8890859"><ele>869.0</ele><time>2026-04-24T11:17:26.005Z</time></trkpt><trkpt lat="42.9504075" lon="12.8889072"><ele>869.4000000000001</ele><time>2026-04-24T11:17:27.014Z</time></trkpt><trkpt lat="42.9503505" lon="12.8887298"><ele>869.8000000000001</ele><time>2026-04-24T11:17:28.006Z</time></trkpt><trkpt lat="42.9503144" lon="12.8885649"><ele>870.1999999999999</ele><time>2026-04-24T11:17:29.018Z</time></trkpt><trkpt lat="42.9502924" lon="12.888441"><ele>870.5999999999999</ele><time>2026-04-24T11:17:30Z</time></trkpt><trkpt lat="42.9502965" lon="12.8883284"><ele>871.0</ele><time>2026-04-24T11:17:31.012Z</time></trkpt><trkpt lat="42.9503123" lon="12.8882192"><ele>871.0</ele><time>2026-04-24T11:17:32.002Z</time></trkpt><trkpt lat="42.950365" lon="12.8881462"><ele>870.9999999999999</ele><time>2026-04-24T11:17:33.007Z</time></trkpt><trkpt lat="42.9504986" lon="12.8881666"><ele>870.9999999999999</ele><time>2026-04-24T11:17:34.997Z</time></trkpt><trkpt lat="42.9505557" lon="12.8882799"><ele>871.0</ele><time>2026-04-24T11:17:37.013Z</time></trkpt><trkpt lat="42.9505617" lon="12.8883849"><ele>871.0</ele><time>2026-04-24T11:17:38.025Z</time></trkpt><trkpt lat="42.9506003" lon="12.8885026"><ele>871.0</ele><time>2026-04-24T11:17:38.994Z</time></trkpt><trkpt lat="42.9506486" lon="12.8886348"><ele>871.0</ele><time>2026-04-24T11:17:40.002Z</time></trkpt><trkpt lat="42.9507446" lon="12.8888088"><ele>871.0</ele><time>2026-04-24T11:17:41.007Z</time></trkpt><trkpt lat="42.9508284" lon="12.8889812"><ele>871.0</ele><time>2026-04-24T11:17:42.01Z</time></trkpt><trkpt lat="42.950929" lon="12.8891664"><ele>877.6666666666666</ele><time>2026-04-24T11:17:43.017Z</time></trkpt><trkpt lat="42.9510412" lon="12.8893575"><ele>884.3333333333333</ele><time>2026-04-24T11:17:44.001Z</time></trkpt><trkpt lat="42.9511632" lon="12.8895526"><ele>891.0</ele><time>2026-04-24T11:17:45.021Z</time></trkpt><trkpt lat="42.9512925" lon="12.8897426"><ele>891.0</ele><time>2026-04-24T11:17:46.006Z</time></trkpt><trkpt lat="42.951421" lon="12.8899374"><ele>891.0</ele><time>2026-04-24T11:17:47.002Z</time></trkpt><trkpt lat="42.9515438" lon="12.8901133"><ele>891.0</ele><time>2026-04-24T11:17:48.016Z</time></trkpt><trkpt lat="42.951646" lon="12.8902736"><ele>892.75</ele><time>2026-04-24T11:17:49.025Z</time></trkpt><trkpt lat="42.9517556" lon="12.8903921"><ele>894.5</ele><time>2026-04-24T11:17:50.003Z</time></trkpt><trkpt lat="42.9518679" lon="12.8904902"><ele>896.25</ele><time>2026-04-24T11:17:50.994Z</time></trkpt><trkpt lat="42.9519758" lon="12.890571"><ele>898.0</ele><time>2026-04-24T11:17:52.024Z</time></trkpt><trkpt lat="42.9520706" lon="12.8906664"><ele>898.0</ele><time>2026-04-24T11:17:53.032Z</time></trkpt><trkpt lat="42.9521545" lon="12.8908153"><ele>898.0</ele><time>2026-04-24T11:17:54.015Z</time></trkpt><trkpt lat="42.9522367" lon="12.8909924"><ele>898.0</ele><time>2026-04-24T11:17:55.025Z</time></trkpt><trkpt lat="42.9523036" lon="12.8911599"><ele>898.0</ele><time>2026-04-24T11:17:56.026Z</time></trkpt><trkpt lat="42.9523521" lon="12.8912947"><ele>899.3333333333333</ele><time>2026-04-24T11:17:57.029Z</time></trkpt><trkpt lat="42.9523809" lon="12.8914109"><ele>900.6666666666666</ele><time>2026-04-24T11:17:57.999Z</time></trkpt><trkpt lat="42.9523863" lon="12.891515"><ele>902.0</ele><time>2026-04-24T11:17:59.016Z</time></trkpt><trkpt lat="42.9523794" lon="12.8916031"><ele>903.3333333333333</ele><time>2026-04-24T11:18:00.034Z</time></trkpt><trkpt lat="42.9523572" lon="12.8916941"><ele>904.6666666666666</ele><time>2026-04-24T11:18:01.001Z</time></trkpt><trkpt lat="42.9523538" lon="12.8917853"><ele>906.0</ele><time>2026-04-24T11:18:02.028Z</time></trkpt><trkpt lat="42.9523652" lon="12.8919232"><ele>908.25</ele><time>2026-04-24T11:18:03.017Z</time></trkpt><trkpt lat="42.9523906" lon="12.8920752"><ele>910.5</ele><time>2026-04-24T11:18:04.012Z</time></trkpt><trkpt lat="42.9524482" lon="12.892229"><ele>912.75</ele><time>2026-04-24T11:18:05Z</time></trkpt><trkpt lat="42.9525087" lon="12.892396"><ele>915.0</ele><time>2026-04-24T11:18:05.989Z</time></trkpt><trkpt lat="42.9525748" lon="12.8925652"><ele>922.25</ele><time>2026-04-24T11:18:07.031Z</time></trkpt><trkpt lat="42.9526439" lon="12.8927468"><ele>929.5</ele><time>2026-04-24T11:18:08.02Z</time></trkpt><trkpt lat="42.9527105" lon="12.8928964"><ele>936.75</ele><time>2026-04-24T11:18:09.005Z</time></trkpt><trkpt lat="42.9527703" lon="12.8930134"><ele>944.0</ele><time>2026-04-24T11:18:10.017Z</time></trkpt><trkpt lat="42.952818" lon="12.8931186"><ele>944.0000000000001</ele><time>2026-04-24T11:18:11.017Z</time></trkpt><trkpt lat="42.9528448" lon="12.89322"><ele>944.0</ele><time>2026-04-24T11:18:12.013Z</time></trkpt><trkpt lat="42.952819" lon="12.8933066"><ele>944.0</ele><time>2026-04-24T11:18:13.012Z</time></trkpt><trkpt lat="42.9527478" lon="12.8933467"><ele>944.0</ele><time>2026-04-24T11:18:14.022Z</time></trkpt><trkpt lat="42.952673" lon="12.8933797"><ele>944.0000000000001</ele><time>2026-04-24T11:18:15.021Z</time></trkpt><trkpt lat="42.9525878" lon="12.8934364"><ele>944.0</ele><time>2026-04-24T11:18:15.998Z</time></trkpt><trkpt lat="42.9525148" lon="12.893547"><ele>945.0</ele><time>2026-04-24T11:18:16.997Z</time></trkpt><trkpt lat="42.9524596" lon="12.8937027"><ele>946.0</ele><time>2026-04-24T11:18:18.001Z</time></trkpt><trkpt lat="42.9524077" lon="12.8938564"><ele>947.0</ele><time>2026-04-24T11:18:19.008Z</time></trkpt><trkpt lat="42.9523606" lon="12.8940001"><ele>948.0</ele><time>2026-04-24T11:18:19.994Z</time></trkpt><trkpt lat="42.9523071" lon="12.8941013"><ele>948.0</ele><time>2026-04-24T11:18:21.014Z</time></trkpt><trkpt lat="42.9522384" lon="12.8941679"><ele>948.0</ele><time>2026-04-24T11:18:22.024Z</time></trkpt><trkpt lat="42.9521563" lon="12.8941874"><ele>948.0</ele><time>2026-04-24T11:18:23.017Z</time></trkpt><trkpt lat="42.9520778" lon="12.8941819"><ele>948.0</ele><time>2026-04-24T11:18:23.997Z</time></trkpt><trkpt lat="42.9520069" lon="12.8941098"><ele>948.0</ele><time>2026-04-24T11:18:25.002Z</time></trkpt><trkpt lat="42.9519488" lon="12.8939901"><ele>948.0</ele><time>2026-04-24T11:18:26.003Z</time></trkpt><trkpt lat="42.9518925" lon="12.8938937"><ele>948.0</ele><time>2026-04-24T11:18:27.003Z</time></trkpt><trkpt lat="42.9518348" lon="12.8938107"><ele>948.0</ele><time>2026-04-24T11:18:28.003Z</time></trkpt><trkpt lat="42.9517508" lon="12.8937475"><ele>948.0</ele><time>2026-04-24T11:18:29.019Z</time></trkpt><trkpt lat="42.9516671" lon="12.8937074"><ele>948.0</ele><time>2026-04-24T11:18:30.013Z</time></trkpt><trkpt lat="42.9515708" lon="12.8936853"><ele>948.0</ele><time>2026-04-24T11:18:31.018Z</time></trkpt><trkpt lat="42.9514698" lon="12.8936565"><ele>950.2</ele><time>2026-04-24T11:18:32.014Z</time></trkpt><trkpt lat="42.9513655" lon="12.8936237"><ele>952.4</ele><time>2026-04-24T11:18:33.03Z</time></trkpt><trkpt lat="42.9512558" lon="12.8936037"><ele>954.6000000000001</ele><time>2026-04-24T11:18:34.014Z</time></trkpt><trkpt lat="42.9511476" lon="12.8935875"><ele>956.8000000000001</ele><time>2026-04-24T11:18:35.01Z</time></trkpt><trkpt lat="42.9510378" lon="12.8935704"><ele>959.0</ele><time>2026-04-24T11:18:36.019Z</time></trkpt><trkpt lat="42.9509273" lon="12.8935522"><ele>963.25</ele><time>2026-04-24T11:18:37.025Z</time></trkpt><trkpt lat="42.950811" lon="12.8935353"><ele>967.5</ele><time>2026-04-24T11:18:38.02Z</time></trkpt><trkpt lat="42.9506915" lon="12.8935216"><ele>971.75</ele><time>2026-04-24T11:18:39.023Z</time></trkpt><trkpt lat="42.9505737" lon="12.8935254"><ele>976.0</ele><time>2026-04-24T11:18:40.009Z</time></trkpt><trkpt lat="42.9504569" lon="12.8935499"><ele>976.0</ele><time>2026-04-24T11:18:41.006Z</time></trkpt><trkpt lat="42.9503457" lon="12.8936062"><ele>976.0</ele><time>2026-04-24T11:18:42.017Z</time></trkpt><trkpt lat="42.9502409" lon="12.8936788"><ele>976.0</ele><time>2026-04-24T11:18:42.994Z</time></trkpt><trkpt lat="42.9501353" lon="12.8937517"><ele>976.0</ele><time>2026-04-24T11:18:44.016Z</time></trkpt><trkpt lat="42.9500283" lon="12.8938093"><ele>975.9999999999999</ele><time>2026-04-24T11:18:45.022Z</time></trkpt><trkpt lat="42.9499248" lon="12.8938461"><ele>976.0</ele><time>2026-04-24T11:18:46.025Z</time></trkpt><trkpt lat="42.9498251" lon="12.8938491"><ele>976.0</ele><time>2026-04-24T11:18:47.024Z</time></trkpt><trkpt lat="42.9497368" lon="12.8938338"><ele>976.0</ele><time>2026-04-24T11:18:48.015Z</time></trkpt><trkpt lat="42.9496582" lon="12.8938392"><ele>975.9999999999999</ele><time>2026-04-24T11:18:49.028Z</time></trkpt><trkpt lat="42.9495995" lon="12.8938944"><ele>976.0</ele><time>2026-04-24T11:18:50.033Z</time></trkpt><trkpt lat="42.949565" lon="12.8939732"><ele>975.9999999999999</ele><time>2026-04-24T11:18:51.025Z</time></trkpt><trkpt lat="42.9495414" lon="12.8940603"><ele>976.0</ele><time>2026-04-24T11:18:52.023Z</time></trkpt><trkpt lat="42.9495311" lon="12.8941548"><ele>976.0</ele><time>2026-04-24T11:18:53.025Z</time></trkpt><trkpt lat="42.9495222" lon="12.8942556"><ele>976.0</ele><time>2026-04-24T11:18:54.025Z</time></trkpt><trkpt lat="42.9495225" lon="12.8943602"><ele>975.9999999999999</ele><time>2026-04-24T11:18:55.001Z</time></trkpt><trkpt lat="42.9495262" lon="12.894472"><ele>976.0</ele><time>2026-04-24T11:18:55.999Z</time></trkpt><trkpt lat="42.9495294" lon="12.8945912"><ele>978.4999999999999</ele><time>2026-04-24T11:18:57.022Z</time></trkpt><trkpt lat="42.9495302" lon="12.8947102"><ele>981.0</ele><time>2026-04-24T11:18:58.025Z</time></trkpt><trkpt lat="42.9495301" lon="12.8948206"><ele>983.5</ele><time>2026-04-24T11:18:59.003Z</time></trkpt><trkpt lat="42.9495338" lon="12.8949318"><ele>986.0</ele><time>2026-04-24T11:19:00.006Z</time></trkpt><trkpt lat="42.9495327" lon="12.8950442"><ele>988.4999999999999</ele><time>2026-04-24T11:19:01.003Z</time></trkpt><trkpt lat="42.9495325" lon="12.8951497"><ele>991.0</ele><time>2026-04-24T11:19:02.024Z</time></trkpt><trkpt lat="42.9495321" lon="12.8952554"><ele>992.1666666666666</ele><time>2026-04-24T11:19:03.032Z</time></trkpt><trkpt lat="42.9495302" lon="12.8953605"><ele>993.3333333333333</ele><time>2026-04-24T11:19:04.022Z</time></trkpt><trkpt lat="42.9495315" lon="12.8954663"><ele>994.5</ele><time>2026-04-24T11:19:05.022Z</time></trkpt><trkpt lat="42.9495339" lon="12.8955691"><ele>995.6666666666667</ele><time>2026-04-24T11:19:06.018Z</time></trkpt><trkpt lat="42.9495326" lon="12.8956672"><ele>996.8333333333334</ele><time>2026-04-24T11:19:07.022Z</time></trkpt><trkpt lat="42.9495344" lon="12.8958115"><ele>998.0</ele><time>2026-04-24T11:19:08.993Z</time></trkpt><trkpt lat="42.9495153" lon="12.8959366"><ele>1000.4</ele><time>2026-04-24T11:19:44.016Z</time></trkpt><trkpt lat="42.9495125" lon="12.8960228"><ele>1002.8</ele><time>2026-04-24T11:19:45.02Z</time></trkpt><trkpt lat="42.94952" lon="12.8961343"><ele>1005.2</ele><time>2026-04-24T11:19:46.029Z</time></trkpt><trkpt lat="42.9495138" lon="12.896265"><ele>1007.6</ele><time>2026-04-24T11:19:46.987Z</time></trkpt><trkpt lat="42.9494984" lon="12.8964058"><ele>1010.0</ele><time>2026-04-24T11:19:48.019Z</time></trkpt><trkpt lat="42.9494792" lon="12.8965608"><ele>1010.0</ele><time>2026-04-24T11:19:49.026Z</time></trkpt><trkpt lat="42.9494528" lon="12.8967351"><ele>1010.0</ele><time>2026-04-24T11:19:50.025Z</time></trkpt><trkpt lat="42.9494233" lon="12.8969123"><ele>1010.0</ele><time>2026-04-24T11:19:51.033Z</time></trkpt><trkpt lat="42.9493914" lon="12.8971044"><ele>1010.0</ele><time>2026-04-24T11:19:52.016Z</time></trkpt><trkpt lat="42.9493586" lon="12.8972883"><ele>1013.0</ele><time>2026-04-24T11:19:53.032Z</time></trkpt><trkpt lat="42.9493242" lon="12.8974842"><ele>1016.0</ele><time>2026-04-24T11:19:54.022Z</time></trkpt><trkpt lat="42.9492908" lon="12.897678"><ele>1019.0</ele><time>2026-04-24T11:19:55.034Z</time></trkpt><trkpt lat="42.9492561" lon="12.8978698"><ele>1022.0</ele><time>2026-04-24T11:19:56.025Z</time></trkpt><trkpt lat="42.9492195" lon="12.8980579"><ele>1021.25</ele><time>2026-04-24T11:19:57.025Z</time></trkpt><trkpt lat="42.9491747" lon="12.8982379"><ele>1020.5</ele><time>2026-04-24T11:19:58.027Z</time></trkpt><trkpt lat="42.9491291" lon="12.8984136"><ele>1019.75</ele><time>2026-04-24T11:19:59.016Z</time></trkpt><trkpt lat="42.9490795" lon="12.8985914"><ele>1019.0</ele><time>2026-04-24T11:19:59.993Z</time></trkpt><trkpt lat="42.9490354" lon="12.8987707"><ele>1019.0</ele><time>2026-04-24T11:20:00.99Z</time></trkpt><trkpt lat="42.9489963" lon="12.8989545"><ele>1019.0</ele><time>2026-04-24T11:20:02.003Z</time></trkpt><trkpt lat="42.9489721" lon="12.8991457"><ele>1019.0</ele><time>2026-04-24T11:20:03.016Z</time></trkpt><trkpt lat="42.9489479" lon="12.8993186"><ele>1019.0</ele><time>2026-04-24T11:20:04.024Z</time></trkpt><trkpt lat="42.948926" lon="12.8994804"><ele>1021.6</ele><time>2026-04-24T11:20:05.034Z</time></trkpt><trkpt lat="42.9489066" lon="12.8996324"><ele>1024.2</ele><time>2026-04-24T11:20:06.029Z</time></trkpt><trkpt lat="42.9488953" lon="12.8997854"><ele>1026.8000000000002</ele><time>2026-04-24T11:20:07.024Z</time></trkpt><trkpt lat="42.9488978" lon="12.8999408"><ele>1029.4</ele><time>2026-04-24T11:20:08.017Z</time></trkpt><trkpt lat="42.948907" lon="12.9000754"><ele>1032.0</ele><time>2026-04-24T11:20:08.996Z</time></trkpt><trkpt lat="42.9489226" lon="12.9001971"><ele>1032.6666666666667</ele><time>2026-04-24T11:20:10.029Z</time></trkpt><trkpt lat="42.9489375" lon="12.9003174"><ele>1033.3333333333333</ele><time>2026-04-24T11:20:11.037Z</time></trkpt><trkpt lat="42.9489453" lon="12.9004232"><ele>1034.0</ele><time>2026-04-24T11:20:12.017Z</time></trkpt><trkpt lat="42.9489449" lon="12.9005591"><ele>1034.6666666666665</ele><time>2026-04-24T11:20:14.008Z</time></trkpt><trkpt lat="42.9489503" lon="12.9006462"><ele>1035.3333333333333</ele><time>2026-04-24T11:20:17.031Z</time></trkpt><trkpt lat="42.9489775" lon="12.9007758"><ele>1036.0</ele><time>2026-04-24T11:20:32.022Z</time></trkpt><trkpt lat="42.9490029" lon="12.9008629"><ele>1035.2</ele><time>2026-04-24T11:20:33.005Z</time></trkpt><trkpt lat="42.9490289" lon="12.9009718"><ele>1034.3999999999999</ele><time>2026-04-24T11:20:34.028Z</time></trkpt><trkpt lat="42.9490574" lon="12.9010815"><ele>1033.6</ele><time>2026-04-24T11:20:35.016Z</time></trkpt><trkpt lat="42.949095" lon="12.9012017"><ele>1032.8</ele><time>2026-04-24T11:20:36.005Z</time></trkpt><trkpt lat="42.9491441" lon="12.9013504"><ele>1032.0</ele><time>2026-04-24T11:20:37.001Z</time></trkpt><trkpt lat="42.9492031" lon="12.9015125"><ele>1032.0</ele><time>2026-04-24T11:20:37.995Z</time></trkpt><trkpt lat="42.9492638" lon="12.901674"><ele>1032.0</ele><time>2026-04-24T11:20:39.036Z</time></trkpt><trkpt lat="42.9493188" lon="12.9018367"><ele>1032.0</ele><time>2026-04-24T11:20:40.021Z</time></trkpt><trkpt lat="42.9493698" lon="12.9020074"><ele>1032.0</ele><time>2026-04-24T11:20:41.024Z</time></trkpt><trkpt lat="42.9494186" lon="12.9021888"><ele>1032.0</ele><time>2026-04-24T11:20:42.03Z</time></trkpt><trkpt lat="42.9494603" lon="12.9023837"><ele>1032.0</ele><time>2026-04-24T11:20:43.032Z</time></trkpt><trkpt lat="42.949503" lon="12.9025717"><ele>1032.0</ele><time>2026-04-24T11:20:44.018Z</time></trkpt><trkpt lat="42.9495403" lon="12.902742"><ele>1032.0</ele><time>2026-04-24T11:20:45.05Z</time></trkpt><trkpt lat="42.949584" lon="12.9029045"><ele>1031.0</ele><time>2026-04-24T11:20:46.015Z</time></trkpt><trkpt lat="42.9496359" lon="12.9030717"><ele>1030.0</ele><time>2026-04-24T11:20:47.009Z</time></trkpt><trkpt lat="42.9496919" lon="12.9032351"><ele>1029.0</ele><time>2026-04-24T11:20:48.019Z</time></trkpt><trkpt lat="42.949759" lon="12.9033861"><ele>1028.0</ele><time>2026-04-24T11:20:49.004Z</time></trkpt><trkpt lat="42.949825" lon="12.9035213"><ele>1028.0</ele><time>2026-04-24T11:20:50.022Z</time></trkpt><trkpt lat="42.9498905" lon="12.9036422"><ele>1028.0</ele><time>2026-04-24T11:20:51.031Z</time></trkpt><trkpt lat="42.9499645" lon="12.9037514"><ele>1028.0</ele><time>2026-04-24T11:20:52.016Z</time></trkpt><trkpt lat="42.9500414" lon="12.9038482"><ele>1028.0</ele><time>2026-04-24T11:20:52.99Z</time></trkpt><trkpt lat="42.9501234" lon="12.9039332"><ele>1028.0</ele><time>2026-04-24T11:20:54.024Z</time></trkpt><trkpt lat="42.9502107" lon="12.9040033"><ele>1027.1666666666667</ele><time>2026-04-24T11:20:54.998Z</time></trkpt><trkpt lat="42.9502913" lon="12.9040512"><ele>1026.3333333333335</ele><time>2026-04-24T11:20:56.014Z</time></trkpt><trkpt lat="42.9503653" lon="12.9041067"><ele>1025.5</ele><time>2026-04-24T11:20:57.025Z</time></trkpt><trkpt lat="42.9504188" lon="12.9041851"><ele>1024.6666666666667</ele><time>2026-04-24T11:20:58.004Z</time></trkpt><trkpt lat="42.9504395" lon="12.9042925"><ele>1023.8333333333334</ele><time>2026-04-24T11:20:59.007Z</time></trkpt><trkpt lat="42.9504345" lon="12.9044098"><ele>1023.0</ele><time>2026-04-24T11:21:00.028Z</time></trkpt><trkpt lat="42.9504116" lon="12.9045414"><ele>1022.0</ele><time>2026-04-24T11:21:01.022Z</time></trkpt><trkpt lat="42.9503858" lon="12.9046809"><ele>1021.0</ele><time>2026-04-24T11:21:02.033Z</time></trkpt><trkpt lat="42.9503547" lon="12.9048308"><ele>1020.0</ele><time>2026-04-24T11:21:03.045Z</time></trkpt><trkpt lat="42.9503379" lon="12.9049826"><ele>1019.0</ele><time>2026-04-24T11:21:04.028Z</time></trkpt><trkpt lat="42.9503282" lon="12.9051178"><ele>1018.0</ele><time>2026-04-24T11:21:05.036Z</time></trkpt><trkpt lat="42.9503367" lon="12.9052476"><ele>1017.2</ele><time>2026-04-24T11:21:06.003Z</time></trkpt><trkpt lat="42.9503767" lon="12.9053851"><ele>1016.4</ele><time>2026-04-24T11:21:07.018Z</time></trkpt><trkpt lat="42.9504368" lon="12.905514"><ele>1015.6000000000001</ele><time>2026-04-24T11:21:08.023Z</time></trkpt><trkpt lat="42.9504996" lon="12.9056436"><ele>1014.8000000000001</ele><time>2026-04-24T11:21:09.027Z</time></trkpt><trkpt lat="42.950545" lon="12.9057606"><ele>1014.0</ele><time>2026-04-24T11:21:10.022Z</time></trkpt><trkpt lat="42.9505726" lon="12.9058682"><ele>1012.6666666666666</ele><time>2026-04-24T11:21:11.037Z</time></trkpt><trkpt lat="42.9505823" lon="12.9059689"><ele>1011.3333333333333</ele><time>2026-04-24T11:21:11.985Z</time></trkpt><trkpt lat="42.9505847" lon="12.9060664"><ele>1010.0</ele><time>2026-04-24T11:21:13.046Z</time></trkpt><trkpt lat="42.9505657" lon="12.9061562"><ele>1008.6666666666666</ele><time>2026-04-24T11:21:14.026Z</time></trkpt><trkpt lat="42.9505316" lon="12.9062298"><ele>1007.3333333333333</ele><time>2026-04-24T11:21:15.029Z</time></trkpt><trkpt lat="42.950439" lon="12.9063268"><ele>1006.0</ele><time>2026-04-24T11:21:17.018Z</time></trkpt><trkpt lat="42.9503617" lon="12.906379"><ele>1005.9999999999999</ele><time>2026-04-24T11:21:18.999Z</time></trkpt><trkpt lat="42.9502999" lon="12.9064122"><ele>1006.0</ele><time>2026-04-24T11:21:22.004Z</time></trkpt><trkpt lat="42.9502337" lon="12.90645"><ele>1006.0</ele><time>2026-04-24T11:21:26.037Z</time></trkpt><trkpt lat="42.9501598" lon="12.9065047"><ele>1006.0</ele><time>2026-04-24T11:22:58.01Z</time></trkpt><trkpt lat="42.9500874" lon="12.906523"><ele>1005.9999999999999</ele><time>2026-04-24T11:22:59.017Z</time></trkpt><trkpt lat="42.9500073" lon="12.9065318"><ele>1006.0</ele><time>2026-04-24T11:23:00.003Z</time></trkpt><trkpt lat="42.9499235" lon="12.9065296"><ele>1006.5999999999999</ele><time>2026-04-24T11:23:01.005Z</time></trkpt><trkpt lat="42.9498277" lon="12.9065213"><ele>1007.1999999999999</ele><time>2026-04-24T11:23:01.998Z</time></trkpt><trkpt lat="42.9497185" lon="12.9065144"><ele>1007.8000000000001</ele><time>2026-04-24T11:23:03.018Z</time></trkpt><trkpt lat="42.9496041" lon="12.9065091"><ele>1008.4000000000001</ele><time>2026-04-24T11:23:04.028Z</time></trkpt><trkpt lat="42.9494798" lon="12.9065056"><ele>1009.0</ele><time>2026-04-24T11:23:04.999Z</time></trkpt><trkpt lat="42.9493468" lon="12.906505"><ele>1012.25</ele><time>2026-04-24T11:23:05.997Z</time></trkpt><trkpt lat="42.9492068" lon="12.9065063"><ele>1015.5</ele><time>2026-04-24T11:23:07.006Z</time></trkpt><trkpt lat="42.9490603" lon="12.9065014"><ele>1018.75</ele><time>2026-04-24T11:23:08.019Z</time></trkpt><trkpt lat="42.9489105" lon="12.90651"><ele>1022.0</ele><time>2026-04-24T11:23:09.019Z</time></trkpt><trkpt lat="42.9487615" lon="12.9065321"><ele>1022.0</ele><time>2026-04-24T11:23:10.009Z</time></trkpt><trkpt lat="42.9486119" lon="12.9065667"><ele>1022.0</ele><time>2026-04-24T11:23:11.032Z</time></trkpt><trkpt lat="42.9484641" lon="12.9066003"><ele>1022.0</ele><time>2026-04-24T11:23:12.007Z</time></trkpt><trkpt lat="42.9483226" lon="12.90662"><ele>1022.0</ele><time>2026-04-24T11:23:13.017Z</time></trkpt><trkpt lat="42.9481855" lon="12.9066131"><ele>1026.0</ele><time>2026-04-24T11:23:14.024Z</time></trkpt><trkpt lat="42.9480454" lon="12.9065744"><ele>1030.0</ele><time>2026-04-24T11:23:15.011Z</time></trkpt><trkpt lat="42.9478946" lon="12.9065232"><ele>1034.0</ele><time>2026-04-24T11:23:16.009Z</time></trkpt><trkpt lat="42.9477455" lon="12.9064779"><ele>1034.0</ele><time>2026-04-24T11:23:17.021Z</time></trkpt><trkpt lat="42.9476013" lon="12.9064482"><ele>1034.0</ele><time>2026-04-24T11:23:18.032Z</time></trkpt><trkpt lat="42.9474521" lon="12.9064391"><ele>1034.0</ele><time>2026-04-24T11:23:19.023Z</time></trkpt><trkpt lat="42.9472928" lon="12.9064514"><ele>1035.3333333333335</ele><time>2026-04-24T11:23:20.032Z</time></trkpt><trkpt lat="42.9471354" lon="12.9064673"><ele>1036.6666666666667</ele><time>2026-04-24T11:23:21.037Z</time></trkpt><trkpt lat="42.9469791" lon="12.9064849"><ele>1038.0</ele><time>2026-04-24T11:23:22.022Z</time></trkpt><trkpt lat="42.946829" lon="12.9065013"><ele>1041.25</ele><time>2026-04-24T11:23:23.022Z</time></trkpt><trkpt lat="42.9466908" lon="12.9065197"><ele>1044.5</ele><time>2026-04-24T11:23:24.018Z</time></trkpt><trkpt lat="42.9465575" lon="12.9065168"><ele>1047.75</ele><time>2026-04-24T11:23:25.029Z</time></trkpt><trkpt lat="42.9464258" lon="12.9064733"><ele>1051.0</ele><time>2026-04-24T11:23:26.029Z</time></trkpt><trkpt lat="42.9463125" lon="12.9064128"><ele>1051.0</ele><time>2026-04-24T11:23:27.019Z</time></trkpt><trkpt lat="42.9461986" lon="12.9063507"><ele>1051.0</ele><time>2026-04-24T11:23:28.017Z</time></trkpt><trkpt lat="42.9460696" lon="12.9062804"><ele>1051.0</ele><time>2026-04-24T11:23:29.021Z</time></trkpt><trkpt lat="42.9459257" lon="12.9062128"><ele>1051.0</ele><time>2026-04-24T11:23:30.007Z</time></trkpt><trkpt lat="42.945769" lon="12.9061576"><ele>1052.25</ele><time>2026-04-24T11:23:31.012Z</time></trkpt><trkpt lat="42.945614" lon="12.9061123"><ele>1053.5</ele><time>2026-04-24T11:23:31.993Z</time></trkpt><trkpt lat="42.945473" lon="12.9060753"><ele>1054.75</ele><time>2026-04-24T11:23:33.038Z</time></trkpt><trkpt lat="42.9453367" lon="12.9060268"><ele>1056.0</ele><time>2026-04-24T11:23:34.019Z</time></trkpt><trkpt lat="42.9452149" lon="12.9059881"><ele>1056.0</ele><time>2026-04-24T11:23:35.011Z</time></trkpt><trkpt lat="42.9451049" lon="12.9059752"><ele>1056.0</ele><time>2026-04-24T11:23:36.01Z</time></trkpt><trkpt lat="42.9450052" lon="12.9059987"><ele>1056.0</ele><time>2026-04-24T11:23:37.008Z</time></trkpt><trkpt lat="42.9448964" lon="12.9060365"><ele>1056.0</ele><time>2026-04-24T11:23:38.01Z</time></trkpt><trkpt lat="42.9447649" lon="12.9060512"><ele>1057.25</ele><time>2026-04-24T11:23:39.024Z</time></trkpt><trkpt lat="42.9446312" lon="12.906039"><ele>1058.5</ele><time>2026-04-24T11:23:40.03Z</time></trkpt><trkpt lat="42.9444887" lon="12.9060077"><ele>1059.75</ele><time>2026-04-24T11:23:40.995Z</time></trkpt><trkpt lat="42.9443359" lon="12.9059742"><ele>1061.0</ele><time>2026-04-24T11:23:42.023Z</time></trkpt><trkpt lat="42.9441712" lon="12.9059523"><ele>1063.0</ele><time>2026-04-24T11:23:43.026Z</time></trkpt><trkpt lat="42.9440027" lon="12.9059411"><ele>1065.0</ele><time>2026-04-24T11:23:43.99Z</time></trkpt><trkpt lat="42.9438422" lon="12.9059425"><ele>1067.0</ele><time>2026-04-24T11:23:45.018Z</time></trkpt><trkpt lat="42.9436934" lon="12.905947"><ele>1067.0</ele><time>2026-04-24T11:23:46.019Z</time></trkpt><trkpt lat="42.9435537" lon="12.9059529"><ele>1067.0</ele><time>2026-04-24T11:23:47.032Z</time></trkpt><trkpt lat="42.9434108" lon="12.9059596"><ele>1067.0</ele><time>2026-04-24T11:23:48.008Z</time></trkpt><trkpt lat="42.9432685" lon="12.9059784"><ele>1067.0</ele><time>2026-04-24T11:23:49.03Z</time></trkpt><trkpt lat="42.9431316" lon="12.9060124"><ele>1068.75</ele><time>2026-04-24T11:23:50.013Z</time></trkpt><trkpt lat="42.9430062" lon="12.9060706"><ele>1070.5</ele><time>2026-04-24T11:23:51.025Z</time></trkpt><trkpt lat="42.9428734" lon="12.9061454"><ele>1072.25</ele><time>2026-04-24T11:23:51.997Z</time></trkpt><trkpt lat="42.9427432" lon="12.9062363"><ele>1074.0</ele><time>2026-04-24T11:23:53.016Z</time></trkpt><trkpt lat="42.9426124" lon="12.9063374"><ele>1072.75</ele><time>2026-04-24T11:23:53.991Z</time></trkpt><trkpt lat="42.9424794" lon="12.9064509"><ele>1071.5</ele><time>2026-04-24T11:23:55.028Z</time></trkpt><trkpt lat="42.9423618" lon="12.9065561"><ele>1070.25</ele><time>2026-04-24T11:23:56.018Z</time></trkpt><trkpt lat="42.9422596" lon="12.9066593"><ele>1069.0</ele><time>2026-04-24T11:23:57.026Z</time></trkpt><trkpt lat="42.9421812" lon="12.9067785"><ele>1071.0</ele><time>2026-04-24T11:23:58.017Z</time></trkpt><trkpt lat="42.9421203" lon="12.906903"><ele>1073.0</ele><time>2026-04-24T11:23:59.026Z</time></trkpt><trkpt lat="42.942074" lon="12.9070377"><ele>1075.0</ele><time>2026-04-24T11:24:00.006Z</time></trkpt><trkpt lat="42.9420434" lon="12.9071867"><ele>1077.0</ele><time>2026-04-24T11:24:01.019Z</time></trkpt><trkpt lat="42.9420457" lon="12.9073409"><ele>1079.0</ele><time>2026-04-24T11:24:02.018Z</time></trkpt><trkpt lat="42.9420618" lon="12.9074917"><ele>1081.0</ele><time>2026-04-24T11:24:03Z</time></trkpt><trkpt lat="42.9420885" lon="12.9076392"><ele>1083.0</ele><time>2026-04-24T11:24:03.997Z</time></trkpt><trkpt lat="42.942107" lon="12.9077689"><ele>1085.0</ele><time>2026-04-24T11:24:05.027Z</time></trkpt><trkpt lat="42.9421025" lon="12.9078933"><ele>1087.0</ele><time>2026-04-24T11:24:06.026Z</time></trkpt><trkpt lat="42.9420711" lon="12.9080133"><ele>1089.0</ele><time>2026-04-24T11:24:07.014Z</time></trkpt><trkpt lat="42.9420031" lon="12.9081179"><ele>1089.0</ele><time>2026-04-24T11:24:08.019Z</time></trkpt><trkpt lat="42.9419101" lon="12.9081754"><ele>1089.0</ele><time>2026-04-24T11:24:09.025Z</time></trkpt><trkpt lat="42.9418008" lon="12.9082051"><ele>1089.0</ele><time>2026-04-24T11:24:10.006Z</time></trkpt><trkpt lat="42.9416863" lon="12.9082207"><ele>1089.0</ele><time>2026-04-24T11:24:11.022Z</time></trkpt><trkpt lat="42.9415573" lon="12.9082345"><ele>1085.75</ele><time>2026-04-24T11:24:12.018Z</time></trkpt><trkpt lat="42.9414189" lon="12.9082356"><ele>1082.5</ele><time>2026-04-24T11:24:13.024Z</time></trkpt><trkpt lat="42.9412892" lon="12.9082273"><ele>1079.25</ele><time>2026-04-24T11:24:14.007Z</time></trkpt><trkpt lat="42.9411651" lon="12.9082058"><ele>1076.0</ele><time>2026-04-24T11:24:15.041Z</time></trkpt><trkpt lat="42.9410531" lon="12.9081663"><ele>1076.0</ele><time>2026-04-24T11:24:16.005Z</time></trkpt><trkpt lat="42.9409524" lon="12.9081187"><ele>1076.0</ele><time>2026-04-24T11:24:17.026Z</time></trkpt><trkpt lat="42.9408525" lon="12.9080932"><ele>1076.0</ele><time>2026-04-24T11:24:18.006Z</time></trkpt><trkpt lat="42.9407582" lon="12.9081083"><ele>1076.0</ele><time>2026-04-24T11:24:19.015Z</time></trkpt><trkpt lat="42.9406516" lon="12.9081603"><ele>1076.0</ele><time>2026-04-24T11:24:20.008Z</time></trkpt><trkpt lat="42.9405344" lon="12.908212"><ele>1075.25</ele><time>2026-04-24T11:24:21.029Z</time></trkpt><trkpt lat="42.9404076" lon="12.9082655"><ele>1074.5</ele><time>2026-04-24T11:24:21.995Z</time></trkpt><trkpt lat="42.9402884" lon="12.9083072"><ele>1073.75</ele><time>2026-04-24T11:24:23.019Z</time></trkpt><trkpt lat="42.9401728" lon="12.9083503"><ele>1073.0</ele><time>2026-04-24T11:24:24.012Z</time></trkpt><trkpt lat="42.9400522" lon="12.9084004"><ele>1074.4</ele><time>2026-04-24T11:24:25.038Z</time></trkpt><trkpt lat="42.9399313" lon="12.9084347"><ele>1075.8</ele><time>2026-04-24T11:24:26.006Z</time></trkpt><trkpt lat="42.9398194" lon="12.908442"><ele>1077.2</ele><time>2026-04-24T11:24:27.029Z</time></trkpt><trkpt lat="42.9397281" lon="12.9084326"><ele>1078.6</ele><time>2026-04-24T11:24:28.022Z</time></trkpt><trkpt lat="42.9396502" lon="12.9084154"><ele>1080.0</ele><time>2026-04-24T11:24:29.002Z</time></trkpt><trkpt lat="42.9395696" lon="12.9084011"><ele>1077.2857142857142</ele><time>2026-04-24T11:24:30.017Z</time></trkpt><trkpt lat="42.9394974" lon="12.9083849"><ele>1074.5714285714284</ele><time>2026-04-24T11:24:31.025Z</time></trkpt><trkpt lat="42.9394261" lon="12.9083687"><ele>1071.857142857143</ele><time>2026-04-24T11:24:32.021Z</time></trkpt><trkpt lat="42.9393607" lon="12.9083574"><ele>1069.142857142857</ele><time>2026-04-24T11:24:33.005Z</time></trkpt><trkpt lat="42.9392968" lon="12.9083454"><ele>1066.4285714285716</ele><time>2026-04-24T11:24:34.018Z</time></trkpt><trkpt lat="42.9392301" lon="12.9083324"><ele>1063.7142857142858</ele><time>2026-04-24T11:24:35.033Z</time></trkpt><trkpt lat="42.9391638" lon="12.9083199"><ele>1061.0</ele><time>2026-04-24T11:24:36.001Z</time></trkpt><trkpt lat="42.9390952" lon="12.9083097"><ele>1060.8</ele><time>2026-04-24T11:24:37.017Z</time></trkpt><trkpt lat="42.9389711" lon="12.908285"><ele>1060.6</ele><time>2026-04-24T11:24:38.999Z</time></trkpt><trkpt lat="42.9389082" lon="12.9082747"><ele>1060.4</ele><time>2026-04-24T11:24:39.996Z</time></trkpt><trkpt lat="42.9387958" lon="12.9082889"><ele>1060.2</ele><time>2026-04-24T11:24:42.024Z</time></trkpt><trkpt lat="42.9387579" lon="12.9083785"><ele>1060.0</ele><time>2026-04-24T11:24:44.016Z</time></trkpt><trkpt lat="42.9387928" lon="12.90851"><ele>1060.0</ele><time>2026-04-24T11:24:46.019Z</time></trkpt><trkpt lat="42.9388243" lon="12.9086537"><ele>1060.0</ele><time>2026-04-24T11:24:48.011Z</time></trkpt><trkpt lat="42.9388411" lon="12.9087414"><ele>1060.0</ele><time>2026-04-24T11:24:48.987Z</time></trkpt><trkpt lat="42.938862" lon="12.9088364"><ele>1060.0</ele><time>2026-04-24T11:24:50.025Z</time></trkpt><trkpt lat="42.9388818" lon="12.9089298"><ele>1060.0</ele><time>2026-04-24T11:24:51.014Z</time></trkpt><trkpt lat="42.9389049" lon="12.9090211"><ele>1060.0</ele><time>2026-04-24T11:24:52.012Z</time></trkpt><trkpt lat="42.9389517" lon="12.9091766"><ele>1060.8333333333333</ele><time>2026-04-24T11:24:54.017Z</time></trkpt><trkpt lat="42.9390123" lon="12.9093235"><ele>1061.6666666666665</ele><time>2026-04-24T11:24:56.008Z</time></trkpt><trkpt lat="42.9390491" lon="12.9093945"><ele>1062.5</ele><time>2026-04-24T11:24:57.018Z</time></trkpt><trkpt lat="42.9390866" lon="12.9094702"><ele>1063.3333333333333</ele><time>2026-04-24T11:24:58.008Z</time></trkpt><trkpt lat="42.9391256" lon="12.909557"><ele>1064.1666666666667</ele><time>2026-04-24T11:24:59.008Z</time></trkpt><trkpt lat="42.939171" lon="12.9096465"><ele>1065.0</ele><time>2026-04-24T11:25:00.001Z</time></trkpt><trkpt lat="42.9392197" lon="12.9097353"><ele>1071.4</ele><time>2026-04-24T11:25:01.015Z</time></trkpt><trkpt lat="42.939267" lon="12.9098354"><ele>1077.8</ele><time>2026-04-24T11:25:02.001Z</time></trkpt><trkpt lat="42.9393103" lon="12.9099441"><ele>1084.2</ele><time>2026-04-24T11:25:03.008Z</time></trkpt><trkpt lat="42.9393474" lon="12.9100606"><ele>1090.6</ele><time>2026-04-24T11:25:04.013Z</time></trkpt><trkpt lat="42.9393914" lon="12.9101652"><ele>1097.0</ele><time>2026-04-24T11:25:05.018Z</time></trkpt><trkpt lat="42.9394407" lon="12.9102759"><ele>1098.4</ele><time>2026-04-24T11:25:05.997Z</time></trkpt><trkpt lat="42.939493" lon="12.9103692"><ele>1099.8000000000002</ele><time>2026-04-24T11:25:07.011Z</time></trkpt><trkpt lat="42.939535" lon="12.9104781"><ele>1101.2</ele><time>2026-04-24T11:25:08.003Z</time></trkpt><trkpt lat="42.9395573" lon="12.9105943"><ele>1102.6000000000001</ele><time>2026-04-24T11:25:09.009Z</time></trkpt><trkpt lat="42.9395757" lon="12.9107157"><ele>1104.0</ele><time>2026-04-24T11:25:10.003Z</time></trkpt><trkpt lat="42.9395908" lon="12.9108494"><ele>1103.8333333333333</ele><time>2026-04-24T11:25:11.008Z</time></trkpt><trkpt lat="42.9396019" lon="12.9109863"><ele>1103.6666666666667</ele><time>2026-04-24T11:25:12.004Z</time></trkpt><trkpt lat="42.9396168" lon="12.9111094"><ele>1103.5</ele><time>2026-04-24T11:25:13.004Z</time></trkpt><trkpt lat="42.9396355" lon="12.9112174"><ele>1103.3333333333335</ele><time>2026-04-24T11:25:14.01Z</time></trkpt><trkpt lat="42.9396642" lon="12.9113274"><ele>1103.1666666666667</ele><time>2026-04-24T11:25:15.022Z</time></trkpt><trkpt lat="42.9396811" lon="12.9114145"><ele>1103.0</ele><time>2026-04-24T11:25:16.019Z</time></trkpt><trkpt lat="42.9396935" lon="12.9115093"><ele>1103.0</ele><time>2026-04-24T11:25:17.011Z</time></trkpt><trkpt lat="42.9397146" lon="12.9116114"><ele>1103.0</ele><time>2026-04-24T11:25:18.023Z</time></trkpt><trkpt lat="42.9397393" lon="12.9117206"><ele>1103.0</ele><time>2026-04-24T11:25:19.022Z</time></trkpt><trkpt lat="42.9397788" lon="12.9118201"><ele>1103.0</ele><time>2026-04-24T11:25:19.991Z</time></trkpt><trkpt lat="42.9398239" lon="12.9119074"><ele>1103.0</ele><time>2026-04-24T11:25:20.992Z</time></trkpt><trkpt lat="42.939949" lon="12.9120929"><ele>1100.25</ele><time>2026-04-24T11:25:23.028Z</time></trkpt><trkpt lat="42.9400231" lon="12.9121911"><ele>1097.5</ele><time>2026-04-24T11:25:24.012Z</time></trkpt><trkpt lat="42.9401071" lon="12.9122974"><ele>1094.75</ele><time>2026-04-24T11:25:25.017Z</time></trkpt><trkpt lat="42.9401935" lon="12.9123998"><ele>1092.0</ele><time>2026-04-24T11:25:26.013Z</time></trkpt><trkpt lat="42.9402891" lon="12.9125185"><ele>1095.5</ele><time>2026-04-24T11:25:27.026Z</time></trkpt><trkpt lat="42.9403882" lon="12.912646"><ele>1099.0</ele><time>2026-04-24T11:25:28.009Z</time></trkpt><trkpt lat="42.9404863" lon="12.9127695"><ele>1102.5</ele><time>2026-04-24T11:25:29.015Z</time></trkpt><trkpt lat="42.9405795" lon="12.912898"><ele>1106.0</ele><time>2026-04-24T11:25:30.013Z</time></trkpt><trkpt lat="42.940658" lon="12.9130465"><ele>1106.0</ele><time>2026-04-24T11:25:31.002Z</time></trkpt><trkpt lat="42.9407223" lon="12.9132113"><ele>1106.0</ele><time>2026-04-24T11:25:32.007Z</time></trkpt><trkpt lat="42.9407919" lon="12.9133912"><ele>1106.0</ele><time>2026-04-24T11:25:33.014Z</time></trkpt><trkpt lat="42.940865" lon="12.9135694"><ele>1106.0</ele><time>2026-04-24T11:25:34.007Z</time></trkpt><trkpt lat="42.9409308" lon="12.9137275"><ele>1109.8</ele><time>2026-04-24T11:25:35.007Z</time></trkpt><trkpt lat="42.9409873" lon="12.91386"><ele>1113.6</ele><time>2026-04-24T11:25:35.991Z</time></trkpt><trkpt lat="42.941045" lon="12.9139781"><ele>1117.4</ele><time>2026-04-24T11:25:37.023Z</time></trkpt><trkpt lat="42.9410929" lon="12.914065"><ele>1121.2</ele><time>2026-04-24T11:25:38.003Z</time></trkpt><trkpt lat="42.9411535" lon="12.9141327"><ele>1125.0</ele><time>2026-04-24T11:25:39.013Z</time></trkpt><trkpt lat="42.9412448" lon="12.9142203"><ele>1125.2</ele><time>2026-04-24T11:25:41.023Z</time></trkpt><trkpt lat="42.9412936" lon="12.9143285"><ele>1125.4</ele><time>2026-04-24T11:25:43.018Z</time></trkpt><trkpt lat="42.9412484" lon="12.9144337"><ele>1125.6</ele><time>2026-04-24T11:25:45.007Z</time></trkpt><trkpt lat="42.9411699" lon="12.9145702"><ele>1125.8</ele><time>2026-04-24T11:25:47.023Z</time></trkpt><trkpt lat="42.941136" lon="12.9146605"><ele>1126.0</ele><time>2026-04-24T11:25:48.025Z</time></trkpt><trkpt lat="42.9411124" lon="12.9147557"><ele>1126.0</ele><time>2026-04-24T11:25:48.993Z</time></trkpt><trkpt lat="42.9410948" lon="12.9148485"><ele>1126.0</ele><time>2026-04-24T11:25:49.999Z</time></trkpt><trkpt lat="42.9410884" lon="12.9149446"><ele>1126.0</ele><time>2026-04-24T11:25:51.019Z</time></trkpt><trkpt lat="42.9410929" lon="12.9150555"><ele>1126.0</ele><time>2026-04-24T11:25:51.986Z</time></trkpt><trkpt lat="42.9410964" lon="12.9151842"><ele>1126.0</ele><time>2026-04-24T11:25:53.01Z</time></trkpt><trkpt lat="42.94109" lon="12.9153103"><ele>1126.0</ele><time>2026-04-24T11:25:54.015Z</time></trkpt><trkpt lat="42.9410619" lon="12.9154214"><ele>1126.4285714285713</ele><time>2026-04-24T11:25:55.009Z</time></trkpt><trkpt lat="42.9410192" lon="12.9155075"><ele>1126.857142857143</ele><time>2026-04-24T11:25:56.001Z</time></trkpt><trkpt lat="42.9409668" lon="12.9155863"><ele>1127.2857142857142</ele><time>2026-04-24T11:25:57.02Z</time></trkpt><trkpt lat="42.9409248" lon="12.9156666"><ele>1127.7142857142858</ele><time>2026-04-24T11:25:58.026Z</time></trkpt><trkpt lat="42.9408902" lon="12.9157429"><ele>1128.142857142857</ele><time>2026-04-24T11:25:59.012Z</time></trkpt><trkpt lat="42.9408372" lon="12.9158382"><ele>1128.5714285714284</ele><time>2026-04-24T11:26:01.008Z</time></trkpt><trkpt lat="42.940778" lon="12.915882"><ele>1129.0</ele><time>2026-04-24T11:26:03.005Z</time></trkpt><trkpt lat="42.9407691" lon="12.9159908"><ele>1128.6666666666665</ele><time>2026-04-24T11:26:38.024Z</time></trkpt><trkpt lat="42.9408176" lon="12.9160592"><ele>1128.3333333333333</ele><time>2026-04-24T11:26:40.011Z</time></trkpt><trkpt lat="42.940844" lon="12.9162047"><ele>1128.0</ele><time>2026-04-24T11:26:42.034Z</time></trkpt><trkpt lat="42.9408568" lon="12.916306"><ele>1127.6666666666667</ele><time>2026-04-24T11:26:43.002Z</time></trkpt><trkpt lat="42.9408863" lon="12.9164171"><ele>1127.3333333333335</ele><time>2026-04-24T11:26:44.009Z</time></trkpt><trkpt lat="42.940913" lon="12.9165317"><ele>1127.0</ele><time>2026-04-24T11:26:45.034Z</time></trkpt><trkpt lat="42.9409396" lon="12.9166559"><ele>1125.8</ele><time>2026-04-24T11:26:46.002Z</time></trkpt><trkpt lat="42.9409546" lon="12.9167844"><ele>1124.6</ele><time>2026-04-24T11:26:47.011Z</time></trkpt><trkpt lat="42.9409662" lon="12.9169091"><ele>1123.3999999999999</ele><time>2026-04-24T11:26:48.027Z</time></trkpt><trkpt lat="42.9409808" lon="12.9170466"><ele>1122.2</ele><time>2026-04-24T11:26:48.988Z</time></trkpt><trkpt lat="42.9409927" lon="12.9171747"><ele>1121.0</ele><time>2026-04-24T11:26:49.984Z</time></trkpt><trkpt lat="42.9410032" lon="12.9172983"><ele>1121.0</ele><time>2026-04-24T11:26:51.001Z</time></trkpt><trkpt lat="42.9410146" lon="12.9174109"><ele>1121.0</ele><time>2026-04-24T11:26:52.015Z</time></trkpt><trkpt lat="42.9410305" lon="12.9175089"><ele>1121.0</ele><time>2026-04-24T11:26:53.025Z</time></trkpt><trkpt lat="42.9410568" lon="12.917664"><ele>1121.0</ele><time>2026-04-24T11:26:55.006Z</time></trkpt><trkpt lat="42.9410516" lon="12.9177903"><ele>1121.0</ele><time>2026-04-24T11:26:57.02Z</time></trkpt><trkpt lat="42.9410715" lon="12.9179141"><ele>1119.2</ele><time>2026-04-24T11:26:59.023Z</time></trkpt><trkpt lat="42.9411113" lon="12.9180933"><ele>1117.3999999999999</ele><time>2026-04-24T11:27:01.01Z</time></trkpt><trkpt lat="42.9411238" lon="12.9182173"><ele>1115.6</ele><time>2026-04-24T11:27:02.005Z</time></trkpt><trkpt lat="42.941137" lon="12.9183317"><ele>1113.8</ele><time>2026-04-24T11:27:02.991Z</time></trkpt><trkpt lat="42.9411585" lon="12.9184314"><ele>1112.0</ele><time>2026-04-24T11:27:04.007Z</time></trkpt><trkpt lat="42.9411706" lon="12.9185384"><ele>1110.6</ele><time>2026-04-24T11:27:05.01Z</time></trkpt><trkpt lat="42.9411664" lon="12.9186618"><ele>1109.2</ele><time>2026-04-24T11:27:06.015Z</time></trkpt><trkpt lat="42.9411591" lon="12.9187945"><ele>1107.8</ele><time>2026-04-24T11:27:07.03Z</time></trkpt><trkpt lat="42.9411438" lon="12.9189247"><ele>1106.4</ele><time>2026-04-24T11:27:08.004Z</time></trkpt><trkpt lat="42.9411172" lon="12.919044"><ele>1105.0</ele><time>2026-04-24T11:27:09.008Z</time></trkpt><trkpt lat="42.9410744" lon="12.9191571"><ele>1104.0</ele><time>2026-04-24T11:27:10.012Z</time></trkpt><trkpt lat="42.9410149" lon="12.9192631"><ele>1103.0</ele><time>2026-04-24T11:27:11.02Z</time></trkpt><trkpt lat="42.9409406" lon="12.9193715"><ele>1102.0</ele><time>2026-04-24T11:27:12.008Z</time></trkpt><trkpt lat="42.9408456" lon="12.9194689"><ele>1101.0</ele><time>2026-04-24T11:27:13.012Z</time></trkpt><trkpt lat="42.9407461" lon="12.919549"><ele>1100.0</ele><time>2026-04-24T11:27:13.992Z</time></trkpt><trkpt lat="42.9406526" lon="12.9196143"><ele>1100.0</ele><time>2026-04-24T11:27:15.025Z</time></trkpt><trkpt lat="42.9405738" lon="12.9196743"><ele>1100.0</ele><time>2026-04-24T11:27:16.005Z</time></trkpt><trkpt lat="42.9405017" lon="12.9197334"><ele>1100.0</ele><time>2026-04-24T11:27:16.998Z</time></trkpt><trkpt lat="42.9404306" lon="12.9198013"><ele>1100.0</ele><time>2026-04-24T11:27:18.011Z</time></trkpt><trkpt lat="42.9403793" lon="12.919858"><ele>1100.0</ele><time>2026-04-24T11:27:19.015Z</time></trkpt><trkpt lat="42.9403538" lon="12.9200234"><ele>1099.142857142857</ele><time>2026-04-24T11:27:21.023Z</time></trkpt><trkpt lat="42.9403636" lon="12.9201133"><ele>1098.2857142857142</ele><time>2026-04-24T11:27:22.025Z</time></trkpt><trkpt lat="42.940378" lon="12.9201973"><ele>1097.4285714285713</ele><time>2026-04-24T11:27:23.012Z</time></trkpt><trkpt lat="42.9403904" lon="12.9202897"><ele>1096.5714285714284</ele><time>2026-04-24T11:27:24.005Z</time></trkpt><trkpt lat="42.9404037" lon="12.920392"><ele>1095.7142857142856</ele><time>2026-04-24T11:27:25.026Z</time></trkpt><trkpt lat="42.9404132" lon="12.920502"><ele>1094.857142857143</ele><time>2026-04-24T11:27:26.028Z</time></trkpt><trkpt lat="42.9404214" lon="12.9206016"><ele>1094.0</ele><time>2026-04-24T11:27:27.012Z</time></trkpt><trkpt lat="42.9404166" lon="12.9207047"><ele>1094.0</ele><time>2026-04-24T11:27:28.018Z</time></trkpt><trkpt lat="42.9403949" lon="12.9208092"><ele>1094.0</ele><time>2026-04-24T11:27:29.022Z</time></trkpt><trkpt lat="42.9403669" lon="12.9209153"><ele>1094.0</ele><time>2026-04-24T11:27:30.005Z</time></trkpt><trkpt lat="42.9403423" lon="12.9210206"><ele>1094.0</ele><time>2026-04-24T11:27:31.012Z</time></trkpt><trkpt lat="42.9403202" lon="12.9211207"><ele>1094.0</ele><time>2026-04-24T11:27:32.002Z</time></trkpt><trkpt lat="42.9402949" lon="12.9212122"><ele>1094.0</ele><time>2026-04-24T11:27:33.027Z</time></trkpt><trkpt lat="42.9402577" lon="12.9213009"><ele>1093.4</ele><time>2026-04-24T11:27:34.015Z</time></trkpt><trkpt lat="42.9402158" lon="12.9213864"><ele>1092.8000000000002</ele><time>2026-04-24T11:27:35.021Z</time></trkpt><trkpt lat="42.9401523" lon="12.9214894"><ele>1092.1999999999998</ele><time>2026-04-24T11:27:36.028Z</time></trkpt><trkpt lat="42.9400673" lon="12.9215923"><ele>1091.6</ele><time>2026-04-24T11:27:37.017Z</time></trkpt><trkpt lat="42.9399899" lon="12.9217034"><ele>1091.0</ele><time>2026-04-24T11:27:38.009Z</time></trkpt><trkpt lat="42.9399284" lon="12.9218132"><ele>1087.3999999999999</ele><time>2026-04-24T11:27:39.013Z</time></trkpt><trkpt lat="42.9398717" lon="12.9219277"><ele>1083.8</ele><time>2026-04-24T11:27:40.014Z</time></trkpt><trkpt lat="42.9398123" lon="12.9220419"><ele>1080.1999999999998</ele><time>2026-04-24T11:27:41.007Z</time></trkpt><trkpt lat="42.9397401" lon="12.9221434"><ele>1076.6</ele><time>2026-04-24T11:27:42.019Z</time></trkpt><trkpt lat="42.9396573" lon="12.9222294"><ele>1073.0</ele><time>2026-04-24T11:27:43.036Z</time></trkpt><trkpt lat="42.939577" lon="12.92231"><ele>1073.0</ele><time>2026-04-24T11:27:44.004Z</time></trkpt><trkpt lat="42.9395029" lon="12.9223868"><ele>1073.0</ele><time>2026-04-24T11:27:45.016Z</time></trkpt><trkpt lat="42.9394158" lon="12.922463"><ele>1073.0</ele><time>2026-04-24T11:27:46.022Z</time></trkpt><trkpt lat="42.9393227" lon="12.9225387"><ele>1073.0</ele><time>2026-04-24T11:27:47.028Z</time></trkpt><trkpt lat="42.9392298" lon="12.9226157"><ele>1073.0</ele><time>2026-04-24T11:27:48.007Z</time></trkpt><trkpt lat="42.9391409" lon="12.9226913"><ele>1072.2</ele><time>2026-04-24T11:27:49.013Z</time></trkpt><trkpt lat="42.9390586" lon="12.9227597"><ele>1071.4</ele><time>2026-04-24T11:27:50.027Z</time></trkpt><trkpt lat="42.9389861" lon="12.9228257"><ele>1070.6000000000001</ele><time>2026-04-24T11:27:51.002Z</time></trkpt><trkpt lat="42.9389146" lon="12.9228892"><ele>1069.8</ele><time>2026-04-24T11:27:52.002Z</time></trkpt><trkpt lat="42.9388363" lon="12.9229493"><ele>1069.0</ele><time>2026-04-24T11:27:53.014Z</time></trkpt><trkpt lat="42.9387549" lon="12.9230065"><ele>1069.0</ele><time>2026-04-24T11:27:54.016Z</time></trkpt><trkpt lat="42.9386823" lon="12.9230534"><ele>1069.0</ele><time>2026-04-24T11:27:55.001Z</time></trkpt><trkpt lat="42.9386148" lon="12.9230851"><ele>1069.0</ele><time>2026-04-24T11:27:56.014Z</time></trkpt><trkpt lat="42.9385464" lon="12.9231138"><ele>1069.0</ele><time>2026-04-24T11:27:57.026Z</time></trkpt><trkpt lat="42.9384731" lon="12.9231461"><ele>1069.0</ele><time>2026-04-24T11:27:58.03Z</time></trkpt><trkpt lat="42.9383957" lon="12.9231902"><ele>1069.0</ele><time>2026-04-24T11:27:59.013Z</time></trkpt><trkpt lat="42.9383041" lon="12.923238"><ele>1071.4</ele><time>2026-04-24T11:28:00.001Z</time></trkpt><trkpt lat="42.9382075" lon="12.9232879"><ele>1073.8000000000002</ele><time>2026-04-24T11:28:01.023Z</time></trkpt><trkpt lat="42.9381141" lon="12.9233276"><ele>1076.1999999999998</ele><time>2026-04-24T11:28:02.006Z</time></trkpt><trkpt lat="42.9380265" lon="12.9233767"><ele>1078.6</ele><time>2026-04-24T11:28:02.988Z</time></trkpt><trkpt lat="42.9379403" lon="12.9234243"><ele>1081.0</ele><time>2026-04-24T11:28:04.018Z</time></trkpt><trkpt lat="42.9378501" lon="12.9234642"><ele>1076.0</ele><time>2026-04-24T11:28:05.02Z</time></trkpt><trkpt lat="42.9377639" lon="12.9235013"><ele>1071.0</ele><time>2026-04-24T11:28:06.032Z</time></trkpt><trkpt lat="42.9376735" lon="12.9235416"><ele>1066.0</ele><time>2026-04-24T11:28:06.998Z</time></trkpt><trkpt lat="42.9375823" lon="12.9235792"><ele>1061.0</ele><time>2026-04-24T11:28:07.989Z</time></trkpt><trkpt lat="42.9374916" lon="12.923616"><ele>1056.0</ele><time>2026-04-24T11:28:09.029Z</time></trkpt><trkpt lat="42.937393" lon="12.9236387"><ele>1056.0</ele><time>2026-04-24T11:28:10.007Z</time></trkpt><trkpt lat="42.9372965" lon="12.9236563"><ele>1056.0</ele><time>2026-04-24T11:28:11.011Z</time></trkpt><trkpt lat="42.9372023" lon="12.9236832"><ele>1056.0</ele><time>2026-04-24T11:28:12.014Z</time></trkpt><trkpt lat="42.9371172" lon="12.9237446"><ele>1056.0</ele><time>2026-04-24T11:28:13.025Z</time></trkpt><trkpt lat="42.9370371" lon="12.9238373"><ele>1056.0</ele><time>2026-04-24T11:28:14Z</time></trkpt><trkpt lat="42.9369616" lon="12.9239465"><ele>1056.0</ele><time>2026-04-24T11:28:15.01Z</time></trkpt><trkpt lat="42.9368802" lon="12.9240397"><ele>1056.0</ele><time>2026-04-24T11:28:16.018Z</time></trkpt><trkpt lat="42.9368041" lon="12.9241233"><ele>1056.0</ele><time>2026-04-24T11:28:17.02Z</time></trkpt><trkpt lat="42.936729" lon="12.9242156"><ele>1056.0</ele><time>2026-04-24T11:28:17.997Z</time></trkpt><trkpt lat="42.9366744" lon="12.9243144"><ele>1056.0</ele><time>2026-04-24T11:28:19.018Z</time></trkpt><trkpt lat="42.9366175" lon="12.9244154"><ele>1054.0</ele><time>2026-04-24T11:28:20.02Z</time></trkpt><trkpt lat="42.9365579" lon="12.9245198"><ele>1052.0</ele><time>2026-04-24T11:28:21.005Z</time></trkpt><trkpt lat="42.9364891" lon="12.9246081"><ele>1050.0</ele><time>2026-04-24T11:28:22.014Z</time></trkpt><trkpt lat="42.936434" lon="12.9247042"><ele>1048.0</ele><time>2026-04-24T11:28:23.016Z</time></trkpt><trkpt lat="42.936387" lon="12.9248132"><ele>1046.0</ele><time>2026-04-24T11:28:24.002Z</time></trkpt><trkpt lat="42.9363498" lon="12.9249332"><ele>1046.0</ele><time>2026-04-24T11:28:25.009Z</time></trkpt><trkpt lat="42.9363143" lon="12.9250484"><ele>1046.0</ele><time>2026-04-24T11:28:26.003Z</time></trkpt><trkpt lat="42.9362695" lon="12.9251587"><ele>1046.0</ele><time>2026-04-24T11:28:27.017Z</time></trkpt><trkpt lat="42.9362179" lon="12.9252425"><ele>1046.0</ele><time>2026-04-24T11:28:28.017Z</time></trkpt><trkpt lat="42.9361543" lon="12.9253228"><ele>1046.0</ele><time>2026-04-24T11:28:28.995Z</time></trkpt><trkpt lat="42.9360713" lon="12.9253977"><ele>1046.2</ele><time>2026-04-24T11:28:30.008Z</time></trkpt><trkpt lat="42.9359823" lon="12.9254575"><ele>1046.3999999999999</ele><time>2026-04-24T11:28:31.02Z</time></trkpt><trkpt lat="42.9358957" lon="12.9255317"><ele>1046.6</ele><time>2026-04-24T11:28:32.001Z</time></trkpt><trkpt lat="42.935826" lon="12.9256246"><ele>1046.8</ele><time>2026-04-24T11:28:33.006Z</time></trkpt><trkpt lat="42.9357858" lon="12.9257364"><ele>1047.0</ele><time>2026-04-24T11:28:34.021Z</time></trkpt><trkpt lat="42.9357415" lon="12.9258525"><ele>1044.2</ele><time>2026-04-24T11:28:35.013Z</time></trkpt><trkpt lat="42.9357045" lon="12.9259798"><ele>1041.4</ele><time>2026-04-24T11:28:36.005Z</time></trkpt><trkpt lat="42.9356841" lon="12.9261097"><ele>1038.6</ele><time>2026-04-24T11:28:37.018Z</time></trkpt><trkpt lat="42.9356826" lon="12.9262279"><ele>1035.8</ele><time>2026-04-24T11:28:38.018Z</time></trkpt><trkpt lat="42.93569" lon="12.9263391"><ele>1033.0</ele><time>2026-04-24T11:28:39.019Z</time></trkpt><trkpt lat="42.9357079" lon="12.9264631"><ele>1033.0</ele><time>2026-04-24T11:28:39.991Z</time></trkpt><trkpt lat="42.9357321" lon="12.9265731"><ele>1033.0</ele><time>2026-04-24T11:28:41.014Z</time></trkpt><trkpt lat="42.9357686" lon="12.9266846"><ele>1033.0</ele><time>2026-04-24T11:28:42.006Z</time></trkpt><trkpt lat="42.9358221" lon="12.9267882"><ele>1033.0</ele><time>2026-04-24T11:28:42.992Z</time></trkpt><trkpt lat="42.9359011" lon="12.9268894"><ele>1033.0</ele><time>2026-04-24T11:28:44.015Z</time></trkpt><trkpt lat="42.935985" lon="12.9269776"><ele>1027.8</ele><time>2026-04-24T11:28:45.011Z</time></trkpt><trkpt lat="42.9360726" lon="12.9270632"><ele>1022.5999999999999</ele><time>2026-04-24T11:28:46.019Z</time></trkpt><trkpt lat="42.9361534" lon="12.9271439"><ele>1017.4000000000001</ele><time>2026-04-24T11:28:47.007Z</time></trkpt><trkpt lat="42.9362345" lon="12.9272274"><ele>1012.2</ele><time>2026-04-24T11:28:48.006Z</time></trkpt><trkpt lat="42.9363218" lon="12.9273133"><ele>1007.0</ele><time>2026-04-24T11:28:49Z</time></trkpt><trkpt lat="42.9363979" lon="12.9273947"><ele>1007.0</ele><time>2026-04-24T11:28:50Z</time></trkpt><trkpt lat="42.9364683" lon="12.9274813"><ele>1007.0</ele><time>2026-04-24T11:28:51.006Z</time></trkpt><trkpt lat="42.9365292" lon="12.9275699"><ele>1007.0</ele><time>2026-04-24T11:28:52.002Z</time></trkpt><trkpt lat="42.9365917" lon="12.9276756"><ele>1007.0</ele><time>2026-04-24T11:28:53.022Z</time></trkpt><trkpt lat="42.9366491" lon="12.9277749"><ele>1007.0</ele><time>2026-04-24T11:28:53.997Z</time></trkpt><trkpt lat="42.9367079" lon="12.9278665"><ele>1003.5000000000001</ele><time>2026-04-24T11:28:55.02Z</time></trkpt><trkpt lat="42.9367572" lon="12.9279589"><ele>1000.0</ele><time>2026-04-24T11:28:56.011Z</time></trkpt><trkpt lat="42.9367962" lon="12.9280622"><ele>996.5</ele><time>2026-04-24T11:28:57.019Z</time></trkpt><trkpt lat="42.9368231" lon="12.9281705"><ele>993.0</ele><time>2026-04-24T11:28:58.002Z</time></trkpt><trkpt lat="42.9368486" lon="12.9282792"><ele>989.5000000000001</ele><time>2026-04-24T11:28:59.012Z</time></trkpt><trkpt lat="42.9368962" lon="12.9283715"><ele>986.0</ele><time>2026-04-24T11:29:00.022Z</time></trkpt><trkpt lat="42.9369612" lon="12.9284516"><ele>986.0</ele><time>2026-04-24T11:29:01.006Z</time></trkpt><trkpt lat="42.9370205" lon="12.9285293"><ele>986.0</ele><time>2026-04-24T11:29:02.015Z</time></trkpt><trkpt lat="42.9370791" lon="12.9285989"><ele>986.0</ele><time>2026-04-24T11:29:03.02Z</time></trkpt><trkpt lat="42.9371462" lon="12.9286458"><ele>986.0</ele><time>2026-04-24T11:29:04.023Z</time></trkpt><trkpt lat="42.9372106" lon="12.9286721"><ele>986.0</ele><time>2026-04-24T11:29:04.999Z</time></trkpt><trkpt lat="42.937282" lon="12.9286653"><ele>986.0</ele><time>2026-04-24T11:29:05.998Z</time></trkpt><trkpt lat="42.9373494" lon="12.928643"><ele>986.0</ele><time>2026-04-24T11:29:07.017Z</time></trkpt><trkpt lat="42.9374394" lon="12.9285474"><ele>986.0000000000001</ele><time>2026-04-24T11:29:09.012Z</time></trkpt><trkpt lat="42.9374904" lon="12.9284899"><ele>986.0</ele><time>2026-04-24T11:29:11.015Z</time></trkpt><trkpt lat="42.9375424" lon="12.9285387"><ele>986.0</ele><time>2026-04-24T11:29:13.022Z</time></trkpt><trkpt lat="42.9375985" lon="12.9286835"><ele>986.0</ele><time>2026-04-24T11:29:14.999Z</time></trkpt><trkpt lat="42.9376162" lon="12.928778"><ele>986.0000000000001</ele><time>2026-04-24T11:29:16.005Z</time></trkpt><trkpt lat="42.9376169" lon="12.9288851"><ele>986.0</ele><time>2026-04-24T11:29:17.018Z</time></trkpt><trkpt lat="42.9376084" lon="12.9289771"><ele>986.0000000000001</ele><time>2026-04-24T11:29:18.008Z</time></trkpt><trkpt lat="42.9375838" lon="12.9290666"><ele>986.0</ele><time>2026-04-24T11:29:19.007Z</time></trkpt><trkpt lat="42.9375518" lon="12.92915"><ele>986.0</ele><time>2026-04-24T11:29:20Z</time></trkpt><trkpt lat="42.9375145" lon="12.929235"><ele>986.0</ele><time>2026-04-24T11:29:21.033Z</time></trkpt><trkpt lat="42.9374692" lon="12.9293242"><ele>986.0000000000001</ele><time>2026-04-24T11:29:22.002Z</time></trkpt><trkpt lat="42.9374184" lon="12.9294198"><ele>986.0</ele><time>2026-04-24T11:29:23Z</time></trkpt><trkpt lat="42.9373196" lon="12.9295782"><ele>983.5000000000001</ele><time>2026-04-24T11:29:25.03Z</time></trkpt><trkpt lat="42.9372607" lon="12.9296528"><ele>981.0</ele><time>2026-04-24T11:29:25.997Z</time></trkpt><trkpt lat="42.9371976" lon="12.9297243"><ele>978.5</ele><time>2026-04-24T11:29:27.011Z</time></trkpt><trkpt lat="42.9371292" lon="12.9297916"><ele>976.0</ele><time>2026-04-24T11:29:28.017Z</time></trkpt><trkpt lat="42.9370591" lon="12.9298523"><ele>973.5000000000001</ele><time>2026-04-24T11:29:29.018Z</time></trkpt><trkpt lat="42.9369877" lon="12.9298974"><ele>971.0</ele><time>2026-04-24T11:29:30.004Z</time></trkpt><trkpt lat="42.9369222" lon="12.9299361"><ele>971.0000000000001</ele><time>2026-04-24T11:29:31.022Z</time></trkpt><trkpt lat="42.9368341" lon="12.9299761"><ele>971.0</ele><time>2026-04-24T11:29:32.995Z</time></trkpt><trkpt lat="42.9368294" lon="12.9300703"><ele>971.0</ele><time>2026-04-24T11:29:39.016Z</time></trkpt><trkpt lat="42.9369201" lon="12.930088"><ele>971.0</ele><time>2026-04-24T11:29:41.03Z</time></trkpt><trkpt lat="42.9369856" lon="12.9300936"><ele>971.0000000000001</ele><time>2026-04-24T11:29:41.993Z</time></trkpt><trkpt lat="42.9370603" lon="12.9300919"><ele>971.0</ele><time>2026-04-24T11:29:43.015Z</time></trkpt><trkpt lat="42.9371423" lon="12.9300777"><ele>971.0000000000001</ele><time>2026-04-24T11:29:44.027Z</time></trkpt><trkpt lat="42.9372316" lon="12.9300529"><ele>971.0</ele><time>2026-04-24T11:29:45.025Z</time></trkpt><trkpt lat="42.93732" lon="12.9300129"><ele>971.0</ele><time>2026-04-24T11:29:46.009Z</time></trkpt><trkpt lat="42.9374005" lon="12.9299639"><ele>971.0</ele><time>2026-04-24T11:29:46.992Z</time></trkpt><trkpt lat="42.9374737" lon="12.9299075"><ele>971.0000000000001</ele><time>2026-04-24T11:29:47.994Z</time></trkpt><trkpt lat="42.9375459" lon="12.9298331"><ele>971.0</ele><time>2026-04-24T11:29:49.03Z</time></trkpt><trkpt lat="42.9376213" lon="12.9297513"><ele>968.5000000000001</ele><time>2026-04-24T11:29:49.997Z</time></trkpt><trkpt lat="42.9376937" lon="12.9296658"><ele>966.0</ele><time>2026-04-24T11:29:51.033Z</time></trkpt><trkpt lat="42.9377605" lon="12.9295931"><ele>963.5</ele><time>2026-04-24T11:29:51.989Z</time></trkpt><trkpt lat="42.937824" lon="12.9295234"><ele>961.0</ele><time>2026-04-24T11:29:53.022Z</time></trkpt><trkpt lat="42.9378973" lon="12.9294627"><ele>958.5000000000001</ele><time>2026-04-24T11:29:53.993Z</time></trkpt><trkpt lat="42.9379708" lon="12.929408"><ele>956.0</ele><time>2026-04-24T11:29:55.013Z</time></trkpt><trkpt lat="42.9380451" lon="12.9293552"><ele>956.0000000000001</ele><time>2026-04-24T11:29:56.025Z</time></trkpt><trkpt lat="42.9381148" lon="12.9292971"><ele>956.0</ele><time>2026-04-24T11:29:57.007Z</time></trkpt><trkpt lat="42.9381786" lon="12.929233"><ele>956.0</ele><time>2026-04-24T11:29:58.009Z</time></trkpt><trkpt lat="42.9382351" lon="12.929153"><ele>956.0</ele><time>2026-04-24T11:29:59.009Z</time></trkpt><trkpt lat="42.9382739" lon="12.9290564"><ele>956.0000000000001</ele><time>2026-04-24T11:30:00.025Z</time></trkpt><trkpt lat="42.9382903" lon="12.9289593"><ele>956.0</ele><time>2026-04-24T11:30:01.005Z</time></trkpt><trkpt lat="42.9382899" lon="12.9288639"><ele>956.7142857142858</ele><time>2026-04-24T11:30:02.017Z</time></trkpt><trkpt lat="42.9382702" lon="12.9287663"><ele>957.4285714285714</ele><time>2026-04-24T11:30:03.028Z</time></trkpt><trkpt lat="42.9382409" lon="12.9286805"><ele>958.1428571428571</ele><time>2026-04-24T11:30:03.994Z</time></trkpt><trkpt lat="42.9382065" lon="12.9286055"><ele>958.8571428571429</ele><time>2026-04-24T11:30:05.007Z</time></trkpt><trkpt lat="42.93817" lon="12.9285333"><ele>959.5714285714284</ele><time>2026-04-24T11:30:06.02Z</time></trkpt><trkpt lat="42.9381249" lon="12.9284588"><ele>960.2857142857142</ele><time>2026-04-24T11:30:07.035Z</time></trkpt><trkpt lat="42.938083" lon="12.9283925"><ele>961.0</ele><time>2026-04-24T11:30:08.005Z</time></trkpt><trkpt lat="42.9380391" lon="12.9283198"><ele>960.9999999999999</ele><time>2026-04-24T11:30:09.017Z</time></trkpt><trkpt lat="42.9379913" lon="12.9282435"><ele>961.0</ele><time>2026-04-24T11:30:10.017Z</time></trkpt><trkpt lat="42.9379491" lon="12.9281669"><ele>961.0</ele><time>2026-04-24T11:30:11.033Z</time></trkpt><trkpt lat="42.9378946" lon="12.928086"><ele>961.0</ele><time>2026-04-24T11:30:12.012Z</time></trkpt><trkpt lat="42.9378359" lon="12.9279978"><ele>960.9999999999999</ele><time>2026-04-24T11:30:13.005Z</time></trkpt><trkpt lat="42.9377747" lon="12.9279022"><ele>961.0</ele><time>2026-04-24T11:30:14.025Z</time></trkpt><trkpt lat="42.9377137" lon="12.9278058"><ele>960.9999999999999</ele><time>2026-04-24T11:30:14.984Z</time></trkpt><trkpt lat="42.9376525" lon="12.9277102"><ele>961.0</ele><time>2026-04-24T11:30:16.019Z</time></trkpt><trkpt lat="42.937602" lon="12.9276138"><ele>961.0</ele><time>2026-04-24T11:30:17.016Z</time></trkpt><trkpt lat="42.9375539" lon="12.9275157"><ele>961.0</ele><time>2026-04-24T11:30:18.009Z</time></trkpt><trkpt lat="42.9375188" lon="12.9274151"><ele>960.9999999999999</ele><time>2026-04-24T11:30:19.007Z</time></trkpt><trkpt lat="42.9374927" lon="12.9273101"><ele>961.0</ele><time>2026-04-24T11:30:20.008Z</time></trkpt><trkpt lat="42.9374917" lon="12.9272"><ele>964.0</ele><time>2026-04-24T11:30:21.004Z</time></trkpt><trkpt lat="42.9375096" lon="12.9270922"><ele>967.0</ele><time>2026-04-24T11:30:21.984Z</time></trkpt><trkpt lat="42.9375369" lon="12.92697"><ele>970.0</ele><time>2026-04-24T11:30:23.159Z</time></trkpt><trkpt lat="42.9376193" lon="12.9266998"><ele>973.0</ele><time>2026-04-24T11:30:25.01Z</time></trkpt><trkpt lat="42.9376789" lon="12.9265418"><ele>966.75</ele><time>2026-04-24T11:30:26.001Z</time></trkpt><trkpt lat="42.9377375" lon="12.9263857"><ele>960.5</ele><time>2026-04-24T11:30:27.02Z</time></trkpt><trkpt lat="42.9378087" lon="12.9262483"><ele>954.25</ele><time>2026-04-24T11:30:28.027Z</time></trkpt><trkpt lat="42.9378898" lon="12.9261209"><ele>948.0</ele><time>2026-04-24T11:30:29.009Z</time></trkpt><trkpt lat="42.9379773" lon="12.9260161"><ele>948.0</ele><time>2026-04-24T11:30:30.012Z</time></trkpt><trkpt lat="42.9380683" lon="12.9259298"><ele>948.0</ele><time>2026-04-24T11:30:31.031Z</time></trkpt><trkpt lat="42.938171" lon="12.9258596"><ele>948.0</ele><time>2026-04-24T11:30:32.028Z</time></trkpt><trkpt lat="42.9382789" lon="12.9257993"><ele>948.0</ele><time>2026-04-24T11:30:33.002Z</time></trkpt><trkpt lat="42.9383923" lon="12.925737"><ele>952.0</ele><time>2026-04-24T11:30:34.005Z</time></trkpt><trkpt lat="42.9385098" lon="12.9256797"><ele>956.0</ele><time>2026-04-24T11:30:35.021Z</time></trkpt><trkpt lat="42.9386299" lon="12.9256181"><ele>960.0</ele><time>2026-04-24T11:30:36.011Z</time></trkpt><trkpt lat="42.9387535" lon="12.9255629"><ele>964.0</ele><time>2026-04-24T11:30:37.004Z</time></trkpt><trkpt lat="42.9388829" lon="12.9255225"><ele>964.0</ele><time>2026-04-24T11:30:38.029Z</time></trkpt><trkpt lat="42.9390175" lon="12.9254915"><ele>964.0</ele><time>2026-04-24T11:30:39.024Z</time></trkpt><trkpt lat="42.939152" lon="12.9254826"><ele>964.0</ele><time>2026-04-24T11:30:40.002Z</time></trkpt><trkpt lat="42.9392866" lon="12.9254829"><ele>964.0</ele><time>2026-04-24T11:30:41.006Z</time></trkpt><trkpt lat="42.9394165" lon="12.9254867"><ele>966.5</ele><time>2026-04-24T11:30:42.017Z</time></trkpt><trkpt lat="42.9395398" lon="12.9254925"><ele>969.0</ele><time>2026-04-24T11:30:43.023Z</time></trkpt><trkpt lat="42.9396533" lon="12.9254964"><ele>971.5</ele><time>2026-04-24T11:30:43.993Z</time></trkpt><trkpt lat="42.9397718" lon="12.9255301"><ele>974.0</ele><time>2026-04-24T11:30:45.007Z</time></trkpt><trkpt lat="42.9398953" lon="12.9255868"><ele>974.0</ele><time>2026-04-24T11:30:45.995Z</time></trkpt><trkpt lat="42.9400121" lon="12.9256496"><ele>974.0</ele><time>2026-04-24T11:30:47.02Z</time></trkpt><trkpt lat="42.9401339" lon="12.9257051"><ele>974.0</ele><time>2026-04-24T11:30:47.994Z</time></trkpt><trkpt lat="42.9402549" lon="12.9257372"><ele>974.0</ele><time>2026-04-24T11:30:49.013Z</time></trkpt><trkpt lat="42.9403713" lon="12.9257514"><ele>972.6</ele><time>2026-04-24T11:30:50.006Z</time></trkpt><trkpt lat="42.9404698" lon="12.925745"><ele>971.2</ele><time>2026-04-24T11:30:50.998Z</time></trkpt><trkpt lat="42.9405557" lon="12.9257107"><ele>969.8000000000001</ele><time>2026-04-24T11:30:51.993Z</time></trkpt><trkpt lat="42.9406349" lon="12.9256499"><ele>968.4000000000001</ele><time>2026-04-24T11:30:53.004Z</time></trkpt><trkpt lat="42.9407128" lon="12.9255857"><ele>967.0</ele><time>2026-04-24T11:30:54.001Z</time></trkpt><trkpt lat="42.9407892" lon="12.9255282"><ele>967.0</ele><time>2026-04-24T11:30:54.998Z</time></trkpt><trkpt lat="42.9408681" lon="12.9254867"><ele>967.0</ele><time>2026-04-24T11:30:55.994Z</time></trkpt><trkpt lat="42.9409525" lon="12.9254456"><ele>967.0</ele><time>2026-04-24T11:30:57.012Z</time></trkpt><trkpt lat="42.9410334" lon="12.9254"><ele>967.0</ele><time>2026-04-24T11:30:58.015Z</time></trkpt><trkpt lat="42.9411047" lon="12.9253214"><ele>967.0</ele><time>2026-04-24T11:30:59.008Z</time></trkpt><trkpt lat="42.9411648" lon="12.9252108"><ele>964.5</ele><time>2026-04-24T11:30:59.985Z</time></trkpt><trkpt lat="42.9412183" lon="12.9250825"><ele>962.0</ele><time>2026-04-24T11:31:00.993Z</time></trkpt><trkpt lat="42.9412767" lon="12.9249301"><ele>959.5</ele><time>2026-04-24T11:31:02.006Z</time></trkpt><trkpt lat="42.9413413" lon="12.9247892"><ele>957.0</ele><time>2026-04-24T11:31:03.005Z</time></trkpt><trkpt lat="42.9414047" lon="12.9246605"><ele>957.0</ele><time>2026-04-24T11:31:04.001Z</time></trkpt><trkpt lat="42.9414666" lon="12.9245478"><ele>957.0</ele><time>2026-04-24T11:31:05.027Z</time></trkpt><trkpt lat="42.941532" lon="12.9244525"><ele>957.0</ele><time>2026-04-24T11:31:05.995Z</time></trkpt><trkpt lat="42.9416069" lon="12.9243728"><ele>957.0</ele><time>2026-04-24T11:31:07.016Z</time></trkpt><trkpt lat="42.941706" lon="12.9243179"><ele>957.0</ele><time>2026-04-24T11:31:08.012Z</time></trkpt><trkpt lat="42.9417991" lon="12.9242794"><ele>958.2</ele><time>2026-04-24T11:31:09.017Z</time></trkpt><trkpt lat="42.9418955" lon="12.9242335"><ele>959.4000000000001</ele><time>2026-04-24T11:31:09.988Z</time></trkpt><trkpt lat="42.9419772" lon="12.9241574"><ele>960.5999999999999</ele><time>2026-04-24T11:31:11.019Z</time></trkpt><trkpt lat="42.9420368" lon="12.9240496"><ele>961.8</ele><time>2026-04-24T11:31:11.984Z</time></trkpt><trkpt lat="42.9421031" lon="12.9239148"><ele>963.0</ele><time>2026-04-24T11:31:13.022Z</time></trkpt><trkpt lat="42.9421669" lon="12.9237889"><ele>963.0</ele><time>2026-04-24T11:31:13.987Z</time></trkpt><trkpt lat="42.9422219" lon="12.9236787"><ele>963.0</ele><time>2026-04-24T11:31:15.006Z</time></trkpt><trkpt lat="42.9422748" lon="12.9235882"><ele>963.0</ele><time>2026-04-24T11:31:16.012Z</time></trkpt><trkpt lat="42.9423185" lon="12.9235224"><ele>963.0</ele><time>2026-04-24T11:31:16.997Z</time></trkpt><trkpt lat="42.9424261" lon="12.9235049"><ele>963.0</ele><time>2026-04-24T11:31:19.006Z</time></trkpt><trkpt lat="42.9425258" lon="12.9236152"><ele>964.4</ele><time>2026-04-24T11:31:20.999Z</time></trkpt><trkpt lat="42.9425712" lon="12.9237076"><ele>965.8</ele><time>2026-04-24T11:31:22.004Z</time></trkpt><trkpt lat="42.9426165" lon="12.9238274"><ele>967.2</ele><time>2026-04-24T11:31:23.022Z</time></trkpt><trkpt lat="42.9426739" lon="12.92397"><ele>968.6</ele><time>2026-04-24T11:31:24.007Z</time></trkpt><trkpt lat="42.9427492" lon="12.9241103"><ele>970.0</ele><time>2026-04-24T11:31:24.999Z</time></trkpt><trkpt lat="42.9428324" lon="12.9242535"><ele>970.0</ele><time>2026-04-24T11:31:25.977Z</time></trkpt><trkpt lat="42.942911" lon="12.9243941"><ele>970.0</ele><time>2026-04-24T11:31:27.006Z</time></trkpt><trkpt lat="42.9429742" lon="12.9245184"><ele>970.0</ele><time>2026-04-24T11:31:28.021Z</time></trkpt><trkpt lat="42.9430368" lon="12.9246209"><ele>970.0</ele><time>2026-04-24T11:31:29.012Z</time></trkpt><trkpt lat="42.9431173" lon="12.9246803"><ele>970.0</ele><time>2026-04-24T11:31:29.989Z</time></trkpt><trkpt lat="42.9432026" lon="12.9247154"><ele>970.0</ele><time>2026-04-24T11:31:31.03Z</time></trkpt><trkpt lat="42.9432941" lon="12.9247171"><ele>970.0</ele><time>2026-04-24T11:31:32.021Z</time></trkpt><trkpt lat="42.9433917" lon="12.9247008"><ele>970.0</ele><time>2026-04-24T11:31:33.013Z</time></trkpt><trkpt lat="42.9435002" lon="12.9246651"><ele>970.0</ele><time>2026-04-24T11:31:34.017Z</time></trkpt><trkpt lat="42.9436262" lon="12.9246339"><ele>970.0</ele><time>2026-04-24T11:31:35.01Z</time></trkpt><trkpt lat="42.9437623" lon="12.9246227"><ele>971.25</ele><time>2026-04-24T11:31:36.005Z</time></trkpt><trkpt lat="42.9439086" lon="12.9246071"><ele>972.5</ele><time>2026-04-24T11:31:37.016Z</time></trkpt><trkpt lat="42.9440555" lon="12.9245933"><ele>973.75</ele><time>2026-04-24T11:31:37.99Z</time></trkpt><trkpt lat="42.9441902" lon="12.9245766"><ele>975.0</ele><time>2026-04-24T11:31:39.017Z</time></trkpt><trkpt lat="42.9443086" lon="12.924558"><ele>978.2</ele><time>2026-04-24T11:31:40.001Z</time></trkpt><trkpt lat="42.9444198" lon="12.9245464"><ele>981.4</ele><time>2026-04-24T11:31:41.014Z</time></trkpt><trkpt lat="42.9445229" lon="12.9245523"><ele>984.5999999999999</ele><time>2026-04-24T11:31:42.018Z</time></trkpt><trkpt lat="42.94462" lon="12.9245981"><ele>987.8</ele><time>2026-04-24T11:31:43.014Z</time></trkpt><trkpt lat="42.9447086" lon="12.9247136"><ele>991.0</ele><time>2026-04-24T11:31:43.984Z</time></trkpt><trkpt lat="42.944804" lon="12.9248908"><ele>991.0</ele><time>2026-04-24T11:31:45.008Z</time></trkpt><trkpt lat="42.9449065" lon="12.9250611"><ele>991.0</ele><time>2026-04-24T11:31:46.012Z</time></trkpt><trkpt lat="42.9449907" lon="12.9252307"><ele>991.0</ele><time>2026-04-24T11:31:47.005Z</time></trkpt><trkpt lat="42.9450651" lon="12.9253895"><ele>991.0</ele><time>2026-04-24T11:31:48.004Z</time></trkpt><trkpt lat="42.9451372" lon="12.9255341"><ele>989.5999999999999</ele><time>2026-04-24T11:31:49.017Z</time></trkpt><trkpt lat="42.9452056" lon="12.9256559"><ele>988.1999999999999</ele><time>2026-04-24T11:31:49.988Z</time></trkpt><trkpt lat="42.9452711" lon="12.9257507"><ele>986.8000000000001</ele><time>2026-04-24T11:31:51.001Z</time></trkpt><trkpt lat="42.9453478" lon="12.9258287"><ele>985.4000000000001</ele><time>2026-04-24T11:31:52.011Z</time></trkpt><trkpt lat="42.9454245" lon="12.9258718"><ele>984.0</ele><time>2026-04-24T11:31:53.029Z</time></trkpt><trkpt lat="42.9454919" lon="12.9258885"><ele>984.0</ele><time>2026-04-24T11:31:54.013Z</time></trkpt><trkpt lat="42.9455681" lon="12.9258791"><ele>984.0</ele><time>2026-04-24T11:31:55.009Z</time></trkpt><trkpt lat="42.9456407" lon="12.9258383"><ele>984.0</ele><time>2026-04-24T11:31:56.007Z</time></trkpt><trkpt lat="42.9457043" lon="12.9257803"><ele>984.0</ele><time>2026-04-24T11:31:57.004Z</time></trkpt><trkpt lat="42.9457615" lon="12.9257026"><ele>984.0</ele><time>2026-04-24T11:31:58.003Z</time></trkpt><trkpt lat="42.9457965" lon="12.9256264"><ele>984.0</ele><time>2026-04-24T11:31:59.023Z</time></trkpt><trkpt lat="42.9458625" lon="12.9255544"><ele>984.0</ele><time>2026-04-24T11:32:01.004Z</time></trkpt><trkpt lat="42.9459103" lon="12.9256268"><ele>984.0000000000001</ele><time>2026-04-24T11:32:04.008Z</time></trkpt><trkpt lat="42.9458625" lon="12.9257652"><ele>984.0000000000001</ele><time>2026-04-24T11:32:06.018Z</time></trkpt><trkpt lat="42.945836" lon="12.925866"><ele>984.0</ele><time>2026-04-24T11:32:07.015Z</time></trkpt><trkpt lat="42.9458054" lon="12.9259952"><ele>984.0</ele><time>2026-04-24T11:32:08.019Z</time></trkpt><trkpt lat="42.9457771" lon="12.9261408"><ele>982.4000000000001</ele><time>2026-04-24T11:32:09.007Z</time></trkpt><trkpt lat="42.9457454" lon="12.926284"><ele>980.8000000000001</ele><time>2026-04-24T11:32:10.011Z</time></trkpt><trkpt lat="42.9457069" lon="12.9264226"><ele>979.1999999999999</ele><time>2026-04-24T11:32:11Z</time></trkpt><trkpt lat="42.9456589" lon="12.9265508"><ele>977.5999999999999</ele><time>2026-04-24T11:32:12.026Z</time></trkpt><trkpt lat="42.9455931" lon="12.9266691"><ele>976.0</ele><time>2026-04-24T11:32:13.002Z</time></trkpt><trkpt lat="42.9455074" lon="12.9267805"><ele>973.4</ele><time>2026-04-24T11:32:13.999Z</time></trkpt><trkpt lat="42.9454193" lon="12.9268884"><ele>970.8</ele><time>2026-04-24T11:32:15.016Z</time></trkpt><trkpt lat="42.9453361" lon="12.9269863"><ele>968.1999999999999</ele><time>2026-04-24T11:32:16.02Z</time></trkpt><trkpt lat="42.9452534" lon="12.9270617"><ele>965.5999999999999</ele><time>2026-04-24T11:32:16.993Z</time></trkpt><trkpt lat="42.9451805" lon="12.9271295"><ele>963.0</ele><time>2026-04-24T11:32:18.018Z</time></trkpt><trkpt lat="42.945107" lon="12.9271779"><ele>963.6666666666666</ele><time>2026-04-24T11:32:19.034Z</time></trkpt><trkpt lat="42.9450267" lon="12.9272136"><ele>964.3333333333333</ele><time>2026-04-24T11:32:19.984Z</time></trkpt><trkpt lat="42.9449334" lon="12.9272533"><ele>965.0</ele><time>2026-04-24T11:32:21.015Z</time></trkpt><trkpt lat="42.9448368" lon="12.9272852"><ele>965.6666666666666</ele><time>2026-04-24T11:32:22.017Z</time></trkpt><trkpt lat="42.9447496" lon="12.9273016"><ele>966.3333333333333</ele><time>2026-04-24T11:32:23.012Z</time></trkpt><trkpt lat="42.9446798" lon="12.9273057"><ele>967.0</ele><time>2026-04-24T11:32:23.999Z</time></trkpt><trkpt lat="42.9446194" lon="12.9272682"><ele>967.0</ele><time>2026-04-24T11:32:25.012Z</time></trkpt><trkpt lat="42.9445816" lon="12.9271863"><ele>967.0</ele><time>2026-04-24T11:32:26.011Z</time></trkpt><trkpt lat="42.9445672" lon="12.9270814"><ele>967.0</ele><time>2026-04-24T11:32:26.995Z</time></trkpt><trkpt lat="42.9445809" lon="12.9269619"><ele>967.0</ele><time>2026-04-24T11:32:28.006Z</time></trkpt><trkpt lat="42.9446131" lon="12.9268188"><ele>967.0</ele><time>2026-04-24T11:32:29.029Z</time></trkpt><trkpt lat="42.9446573" lon="12.9266431"><ele>968.25</ele><time>2026-04-24T11:32:30.003Z</time></trkpt><trkpt lat="42.9446917" lon="12.9264689"><ele>969.5</ele><time>2026-04-24T11:32:31.008Z</time></trkpt><trkpt lat="42.9447057" lon="12.9262955"><ele>970.75</ele><time>2026-04-24T11:32:32.017Z</time></trkpt><trkpt lat="42.9446931" lon="12.926115"><ele>972.0</ele><time>2026-04-24T11:32:33.027Z</time></trkpt><trkpt lat="42.9446545" lon="12.9259417"><ele>972.75</ele><time>2026-04-24T11:32:33.998Z</time></trkpt><trkpt lat="42.9446056" lon="12.9257634"><ele>973.5</ele><time>2026-04-24T11:32:35.008Z</time></trkpt><trkpt lat="42.9445411" lon="12.9256055"><ele>974.25</ele><time>2026-04-24T11:32:36.007Z</time></trkpt><trkpt lat="42.9444737" lon="12.9254622"><ele>975.0</ele><time>2026-04-24T11:32:37.031Z</time></trkpt><trkpt lat="42.9443973" lon="12.9253619"><ele>975.0</ele><time>2026-04-24T11:32:38.006Z</time></trkpt><trkpt lat="42.9442981" lon="12.9252908"><ele>975.0</ele><time>2026-04-24T11:32:39.022Z</time></trkpt><trkpt lat="42.9441845" lon="12.925263"><ele>975.0</ele><time>2026-04-24T11:32:40.022Z</time></trkpt><trkpt lat="42.9440624" lon="12.9252677"><ele>975.0</ele><time>2026-04-24T11:32:41Z</time></trkpt><trkpt lat="42.9439373" lon="12.9253164"><ele>967.75</ele><time>2026-04-24T11:32:42.008Z</time></trkpt><trkpt lat="42.9438195" lon="12.9253963"><ele>960.5</ele><time>2026-04-24T11:32:43.01Z</time></trkpt><trkpt lat="42.943696" lon="12.9254895"><ele>953.25</ele><time>2026-04-24T11:32:44.077Z</time></trkpt><trkpt lat="42.9435729" lon="12.925559"><ele>946.0</ele><time>2026-04-24T11:32:44.998Z</time></trkpt><trkpt lat="42.9434406" lon="12.9256034"><ele>944.75</ele><time>2026-04-24T11:32:45.988Z</time></trkpt><trkpt lat="42.9433094" lon="12.9256438"><ele>943.5</ele><time>2026-04-24T11:32:47.015Z</time></trkpt><trkpt lat="42.94318" lon="12.9256675"><ele>942.25</ele><time>2026-04-24T11:32:48.025Z</time></trkpt><trkpt lat="42.9430621" lon="12.9256696"><ele>941.0</ele><time>2026-04-24T11:32:49.002Z</time></trkpt><trkpt lat="42.9429605" lon="12.9256451"><ele>941.0</ele><time>2026-04-24T11:32:50.003Z</time></trkpt><trkpt lat="42.9428707" lon="12.9255908"><ele>940.9999999999999</ele><time>2026-04-24T11:32:51.023Z</time></trkpt><trkpt lat="42.9427999" lon="12.925516"><ele>940.9999999999999</ele><time>2026-04-24T11:32:52.011Z</time></trkpt><trkpt lat="42.9427419" lon="12.9254186"><ele>941.0</ele><time>2026-04-24T11:32:53.011Z</time></trkpt><trkpt lat="42.9426894" lon="12.9252944"><ele>941.0</ele><time>2026-04-24T11:32:54.014Z</time></trkpt><trkpt lat="42.9426377" lon="12.9251422"><ele>941.0</ele><time>2026-04-24T11:32:55.029Z</time></trkpt><trkpt lat="42.9425962" lon="12.9249901"><ele>940.9999999999999</ele><time>2026-04-24T11:32:55.99Z</time></trkpt><trkpt lat="42.9425578" lon="12.9248412"><ele>940.9999999999999</ele><time>2026-04-24T11:32:57.008Z</time></trkpt><trkpt lat="42.9425322" lon="12.9247132"><ele>941.0</ele><time>2026-04-24T11:32:58.018Z</time></trkpt><trkpt lat="42.9424935" lon="12.924605"><ele>941.0</ele><time>2026-04-24T11:32:58.992Z</time></trkpt><trkpt lat="42.9424536" lon="12.9245255"><ele>941.0</ele><time>2026-04-24T11:32:59.983Z</time></trkpt><trkpt lat="42.9423559" lon="12.9244815"><ele>940.9999999999999</ele><time>2026-04-24T11:33:02.005Z</time></trkpt><trkpt lat="42.9422899" lon="12.9246055"><ele>940.9999999999999</ele><time>2026-04-24T11:33:04.001Z</time></trkpt><trkpt lat="42.9422625" lon="12.9247185"><ele>941.0</ele><time>2026-04-24T11:33:05.003Z</time></trkpt><trkpt lat="42.9422316" lon="12.9248208"><ele>941.0</ele><time>2026-04-24T11:33:06Z</time></trkpt><trkpt lat="42.9421682" lon="12.9249136"><ele>941.0</ele><time>2026-04-24T11:33:07.008Z</time></trkpt><trkpt lat="42.9420937" lon="12.9249972"><ele>940.9999999999999</ele><time>2026-04-24T11:33:07.995Z</time></trkpt><trkpt lat="42.942014" lon="12.9251013"><ele>940.9999999999999</ele><time>2026-04-24T11:33:09.005Z</time></trkpt><trkpt lat="42.9419559" lon="12.9252244"><ele>941.0</ele><time>2026-04-24T11:33:09.999Z</time></trkpt><trkpt lat="42.9419243" lon="12.9253863"><ele>941.0</ele><time>2026-04-24T11:33:11.008Z</time></trkpt><trkpt lat="42.9419039" lon="12.9255657"><ele>936.0</ele><time>2026-04-24T11:33:11.986Z</time></trkpt><trkpt lat="42.9418827" lon="12.9257491"><ele>931.0</ele><time>2026-04-24T11:33:13.009Z</time></trkpt><trkpt lat="42.9418562" lon="12.9259065"><ele>926.0</ele><time>2026-04-24T11:33:13.999Z</time></trkpt><trkpt lat="42.9418114" lon="12.9260549"><ele>921.0</ele><time>2026-04-24T11:33:15.002Z</time></trkpt><trkpt lat="42.9417527" lon="12.926178"><ele>916.25</ele><time>2026-04-24T11:33:15.996Z</time></trkpt><trkpt lat="42.9416783" lon="12.9262702"><ele>911.5</ele><time>2026-04-24T11:33:17.007Z</time></trkpt><trkpt lat="42.9415902" lon="12.9263621"><ele>906.75</ele><time>2026-04-24T11:33:18.001Z</time></trkpt><trkpt lat="42.9414919" lon="12.9264558"><ele>902.0</ele><time>2026-04-24T11:33:19.005Z</time></trkpt><trkpt lat="42.9413709" lon="12.9265489"><ele>902.0</ele><time>2026-04-24T11:33:20.009Z</time></trkpt><trkpt lat="42.9412474" lon="12.9266495"><ele>902.0</ele><time>2026-04-24T11:33:21.006Z</time></trkpt><trkpt lat="42.9411289" lon="12.9267598"><ele>902.0</ele><time>2026-04-24T11:33:22.004Z</time></trkpt><trkpt lat="42.9410199" lon="12.9268741"><ele>902.0</ele><time>2026-04-24T11:33:23.005Z</time></trkpt><trkpt lat="42.9409251" lon="12.9269933"><ele>899.5</ele><time>2026-04-24T11:33:24.01Z</time></trkpt><trkpt lat="42.9408334" lon="12.9271088"><ele>897.0</ele><time>2026-04-24T11:33:24.995Z</time></trkpt><trkpt lat="42.9406821" lon="12.9272658"><ele>894.5</ele><time>2026-04-24T11:33:27.005Z</time></trkpt><trkpt lat="42.9406023" lon="12.927307"><ele>892.0</ele><time>2026-04-24T11:33:28.005Z</time></trkpt><trkpt lat="42.9405157" lon="12.9273199"><ele>892.0</ele><time>2026-04-24T11:33:29.003Z</time></trkpt><trkpt lat="42.9404107" lon="12.9272995"><ele>892.0</ele><time>2026-04-24T11:33:30.002Z</time></trkpt><trkpt lat="42.9403022" lon="12.9272539"><ele>892.0</ele><time>2026-04-24T11:33:30.986Z</time></trkpt><trkpt lat="42.9401679" lon="12.9271862"><ele>892.0</ele><time>2026-04-24T11:33:32.007Z</time></trkpt><trkpt lat="42.9400359" lon="12.9271111"><ele>892.8</ele><time>2026-04-24T11:33:33.008Z</time></trkpt><trkpt lat="42.9399156" lon="12.92706"><ele>893.6</ele><time>2026-04-24T11:33:34.013Z</time></trkpt><trkpt lat="42.9398021" lon="12.9270289"><ele>894.3999999999999</ele><time>2026-04-24T11:33:35.003Z</time></trkpt><trkpt lat="42.9396973" lon="12.9270053"><ele>895.1999999999999</ele><time>2026-04-24T11:33:35.984Z</time></trkpt><trkpt lat="42.9396025" lon="12.9270066"><ele>896.0</ele><time>2026-04-24T11:33:37.013Z</time></trkpt><trkpt lat="42.9395196" lon="12.9270288"><ele>896.0000000000001</ele><time>2026-04-24T11:33:38.018Z</time></trkpt><trkpt lat="42.9394472" lon="12.9270718"><ele>896.0</ele><time>2026-04-24T11:33:39.016Z</time></trkpt><trkpt lat="42.9394023" lon="12.9271364"><ele>896.0</ele><time>2026-04-24T11:33:40.001Z</time></trkpt><trkpt lat="42.9393783" lon="12.9272213"><ele>896.0</ele><time>2026-04-24T11:33:41Z</time></trkpt><trkpt lat="42.93944" lon="12.927395"><ele>896.0000000000001</ele><time>2026-04-24T11:33:43.008Z</time></trkpt><trkpt lat="42.9395053" lon="12.9274781"><ele>896.0</ele><time>2026-04-24T11:33:43.999Z</time></trkpt><trkpt lat="42.9395544" lon="12.927597"><ele>892.5</ele><time>2026-04-24T11:33:45.006Z</time></trkpt><trkpt lat="42.9396087" lon="12.9277476"><ele>889.0</ele><time>2026-04-24T11:33:46.006Z</time></trkpt><trkpt lat="42.9396787" lon="12.9279109"><ele>885.5</ele><time>2026-04-24T11:33:47Z</time></trkpt><trkpt lat="42.9397502" lon="12.9280599"><ele>882.0</ele><time>2026-04-24T11:33:48Z</time></trkpt><trkpt lat="42.9398117" lon="12.9282091"><ele>882.0</ele><time>2026-04-24T11:33:49.005Z</time></trkpt><trkpt lat="42.9398557" lon="12.9283806"><ele>882.0</ele><time>2026-04-24T11:33:49.994Z</time></trkpt><trkpt lat="42.9398885" lon="12.9285545"><ele>882.0</ele><time>2026-04-24T11:33:51.005Z</time></trkpt><trkpt lat="42.9399267" lon="12.9287336"><ele>882.0</ele><time>2026-04-24T11:33:52.001Z</time></trkpt><trkpt lat="42.9399707" lon="12.9289157"><ele>883.25</ele><time>2026-04-24T11:33:52.998Z</time></trkpt><trkpt lat="42.9400298" lon="12.9290734"><ele>884.5</ele><time>2026-04-24T11:33:53.993Z</time></trkpt><trkpt lat="42.9400975" lon="12.9292045"><ele>885.75</ele><time>2026-04-24T11:33:55.01Z</time></trkpt><trkpt lat="42.9401669" lon="12.9293255"><ele>887.0</ele><time>2026-04-24T11:33:56.001Z</time></trkpt><trkpt lat="42.9402223" lon="12.9294434"><ele>874.75</ele><time>2026-04-24T11:33:57.002Z</time></trkpt><trkpt lat="42.9402755" lon="12.9295655"><ele>862.5</ele><time>2026-04-24T11:33:57.992Z</time></trkpt><trkpt lat="42.940297" lon="12.929707"><ele>850.25</ele><time>2026-04-24T11:33:58.996Z</time></trkpt><trkpt lat="42.9402841" lon="12.929864"><ele>838.0</ele><time>2026-04-24T11:33:59.998Z</time></trkpt><trkpt lat="42.9402449" lon="12.9300346"><ele>836.0</ele><time>2026-04-24T11:34:00.995Z</time></trkpt><trkpt lat="42.94021" lon="12.9301929"><ele>834.0</ele><time>2026-04-24T11:34:02.009Z</time></trkpt><trkpt lat="42.9401812" lon="12.9303456"><ele>832.0</ele><time>2026-04-24T11:34:02.997Z</time></trkpt><trkpt lat="42.9401518" lon="12.9304807"><ele>830.0</ele><time>2026-04-24T11:34:03.993Z</time></trkpt><trkpt lat="42.9401102" lon="12.9305992"><ele>828.0</ele><time>2026-04-24T11:34:04.991Z</time></trkpt><trkpt lat="42.9400576" lon="12.9307057"><ele>826.0</ele><time>2026-04-24T11:34:05.992Z</time></trkpt><trkpt lat="42.9400047" lon="12.930809"><ele>824.0</ele><time>2026-04-24T11:34:07Z</time></trkpt><trkpt lat="42.9399716" lon="12.9308862"><ele>822.0</ele><time>2026-04-24T11:34:07.993Z</time></trkpt><trkpt lat="42.9399694" lon="12.9309729"><ele>820.0</ele><time>2026-04-24T11:34:08.995Z</time></trkpt><trkpt lat="42.9399922" lon="12.9310784"><ele>818.0</ele><time>2026-04-24T11:34:10.018Z</time></trkpt><trkpt lat="42.9400263" lon="12.9312071"><ele>816.0</ele><time>2026-04-24T11:34:10.996Z</time></trkpt><trkpt lat="42.9400531" lon="12.9313653"><ele>816.0</ele><time>2026-04-24T11:34:11.993Z</time></trkpt><trkpt lat="42.9400653" lon="12.9315385"><ele>816.0</ele><time>2026-04-24T11:34:13.001Z</time></trkpt><trkpt lat="42.9400654" lon="12.9317013"><ele>816.0</ele><time>2026-04-24T11:34:14.001Z</time></trkpt><trkpt lat="42.9400511" lon="12.9318564"><ele>816.0</ele><time>2026-04-24T11:34:14.998Z</time></trkpt><trkpt lat="42.9400312" lon="12.9320434"><ele>821.5</ele><time>2026-04-24T11:34:15.998Z</time></trkpt><trkpt lat="42.9399985" lon="12.9322318"><ele>827.0</ele><time>2026-04-24T11:34:17.002Z</time></trkpt><trkpt lat="42.9399623" lon="12.9323972"><ele>832.5</ele><time>2026-04-24T11:34:17.993Z</time></trkpt><trkpt lat="42.9399331" lon="12.9325471"><ele>838.0</ele><time>2026-04-24T11:34:18.995Z</time></trkpt><trkpt lat="42.9398952" lon="12.9326726"><ele>838.0</ele><time>2026-04-24T11:34:20.006Z</time></trkpt><trkpt lat="42.9398437" lon="12.9327918"><ele>838.0</ele><time>2026-04-24T11:34:20.999Z</time></trkpt><trkpt lat="42.9397876" lon="12.9329058"><ele>838.0</ele><time>2026-04-24T11:34:21.995Z</time></trkpt><trkpt lat="42.9397241" lon="12.9330262"><ele>838.0</ele><time>2026-04-24T11:34:22.997Z</time></trkpt><trkpt lat="42.9396647" lon="12.9331565"><ele>838.0</ele><time>2026-04-24T11:34:24Z</time></trkpt><trkpt lat="42.939617" lon="12.93331"><ele>836.5999999999999</ele><time>2026-04-24T11:34:25.001Z</time></trkpt><trkpt lat="42.9395858" lon="12.9334548"><ele>835.1999999999999</ele><time>2026-04-24T11:34:25.99Z</time></trkpt><trkpt lat="42.939543" lon="12.9335628"><ele>833.8</ele><time>2026-04-24T11:34:26.985Z</time></trkpt><trkpt lat="42.9394768" lon="12.9336583"><ele>832.4</ele><time>2026-04-24T11:34:28.023Z</time></trkpt><trkpt lat="42.9393984" lon="12.9337611"><ele>831.0</ele><time>2026-04-24T11:34:28.999Z</time></trkpt><trkpt lat="42.9393358" lon="12.9338687"><ele>831.0</ele><time>2026-04-24T11:34:29.995Z</time></trkpt><trkpt lat="42.9393322" lon="12.9339925"><ele>831.0</ele><time>2026-04-24T11:34:31.005Z</time></trkpt><trkpt lat="42.9393724" lon="12.934108"><ele>831.0</ele><time>2026-04-24T11:34:31.996Z</time></trkpt><trkpt lat="42.9394511" lon="12.934235"><ele>831.0</ele><time>2026-04-24T11:34:32.993Z</time></trkpt><trkpt lat="42.9395415" lon="12.9343277"><ele>831.0</ele><time>2026-04-24T11:34:33.995Z</time></trkpt><trkpt lat="42.9396331" lon="12.9344231"><ele>831.5</ele><time>2026-04-24T11:34:34.993Z</time></trkpt><trkpt lat="42.9397133" lon="12.9345336"><ele>832.0</ele><time>2026-04-24T11:34:36Z</time></trkpt><trkpt lat="42.9397922" lon="12.9346573"><ele>832.5</ele><time>2026-04-24T11:34:36.989Z</time></trkpt><trkpt lat="42.9398485" lon="12.9347945"><ele>833.0</ele><time>2026-04-24T11:34:37.999Z</time></trkpt><trkpt lat="42.9399148" lon="12.9349575"><ele>833.25</ele><time>2026-04-24T11:34:39.013Z</time></trkpt><trkpt lat="42.9399897" lon="12.9351128"><ele>833.5</ele><time>2026-04-24T11:34:40.002Z</time></trkpt><trkpt lat="42.9400624" lon="12.935267"><ele>833.75</ele><time>2026-04-24T11:34:41.006Z</time></trkpt><trkpt lat="42.9401374" lon="12.9354094"><ele>834.0</ele><time>2026-04-24T11:34:41.998Z</time></trkpt><trkpt lat="42.9401973" lon="12.9355462"><ele>831.6666666666666</ele><time>2026-04-24T11:34:43.013Z</time></trkpt><trkpt lat="42.9402341" lon="12.9356789"><ele>829.3333333333333</ele><time>2026-04-24T11:34:43.991Z</time></trkpt><trkpt lat="42.9402517" lon="12.9358056"><ele>827.0</ele><time>2026-04-24T11:34:45.013Z</time></trkpt><trkpt lat="42.9402607" lon="12.9359202"><ele>824.6666666666666</ele><time>2026-04-24T11:34:46.017Z</time></trkpt><trkpt lat="42.9402658" lon="12.9360238"><ele>822.3333333333333</ele><time>2026-04-24T11:34:47.003Z</time></trkpt><trkpt lat="42.9402777" lon="12.9361233"><ele>820.0</ele><time>2026-04-24T11:34:48.004Z</time></trkpt><trkpt lat="42.9402942" lon="12.9362467"><ele>819.9999999999999</ele><time>2026-04-24T11:34:49.99Z</time></trkpt><trkpt lat="42.9403523" lon="12.9363165"><ele>820.0</ele><time>2026-04-24T11:35:23.998Z</time></trkpt><trkpt lat="42.9403669" lon="12.9361911"><ele>820.0</ele><time>2026-04-24T11:35:29.002Z</time></trkpt><trkpt lat="42.9403644" lon="12.9360374"><ele>820.0</ele><time>2026-04-24T11:35:31.016Z</time></trkpt><trkpt lat="42.9403669" lon="12.9359418"><ele>819.9999999999999</ele><time>2026-04-24T11:35:31.993Z</time></trkpt><trkpt lat="42.9403817" lon="12.9358478"><ele>820.0</ele><time>2026-04-24T11:35:33.012Z</time></trkpt><trkpt lat="42.9403931" lon="12.9357385"><ele>817.6666666666666</ele><time>2026-04-24T11:35:33.992Z</time></trkpt><trkpt lat="42.9403977" lon="12.9356357"><ele>815.3333333333333</ele><time>2026-04-24T11:35:35.021Z</time></trkpt><trkpt lat="42.9403993" lon="12.935542"><ele>813.0</ele><time>2026-04-24T11:35:35.989Z</time></trkpt><trkpt lat="42.9403902" lon="12.9354452"><ele>810.6666666666667</ele><time>2026-04-24T11:35:36.997Z</time></trkpt><trkpt lat="42.9403738" lon="12.9353499"><ele>808.3333333333334</ele><time>2026-04-24T11:35:38.007Z</time></trkpt><trkpt lat="42.9403495" lon="12.9352635"><ele>806.0</ele><time>2026-04-24T11:35:39.019Z</time></trkpt><trkpt lat="42.940353" lon="12.9351245"><ele>806.0000000000001</ele><time>2026-04-24T11:35:40.996Z</time></trkpt><trkpt lat="42.9404282" lon="12.9351055"><ele>806.0</ele><time>2026-04-24T11:35:43Z</time></trkpt><trkpt lat="42.9404884" lon="12.9352315"><ele>806.0</ele><time>2026-04-24T11:35:45.009Z</time></trkpt><trkpt lat="42.9405242" lon="12.9353261"><ele>806.0</ele><time>2026-04-24T11:35:46.022Z</time></trkpt><trkpt lat="42.9405533" lon="12.9354364"><ele>806.0000000000001</ele><time>2026-04-24T11:35:46.994Z</time></trkpt><trkpt lat="42.9405746" lon="12.9355419"><ele>806.0</ele><time>2026-04-24T11:35:48.003Z</time></trkpt><trkpt lat="42.9405865" lon="12.9356406"><ele>806.0000000000001</ele><time>2026-04-24T11:35:49.008Z</time></trkpt><trkpt lat="42.9405873" lon="12.935745"><ele>806.0</ele><time>2026-04-24T11:35:50Z</time></trkpt><trkpt lat="42.9405944" lon="12.9358523"><ele>806.0</ele><time>2026-04-24T11:35:51.001Z</time></trkpt><trkpt lat="42.9406075" lon="12.9359581"><ele>806.0</ele><time>2026-04-24T11:35:52.003Z</time></trkpt><trkpt lat="42.9406337" lon="12.9360531"><ele>806.0000000000001</ele><time>2026-04-24T11:35:52.989Z</time></trkpt><trkpt lat="42.940663" lon="12.9361342"><ele>806.0</ele><time>2026-04-24T11:35:53.989Z</time></trkpt><trkpt lat="42.9407121" lon="12.9362139"><ele>808.8</ele><time>2026-04-24T11:35:56.017Z</time></trkpt><trkpt lat="42.9407423" lon="12.936312"><ele>811.5999999999999</ele><time>2026-04-24T11:36:04.992Z</time></trkpt><trkpt lat="42.9408078" lon="12.9364082"><ele>814.4</ele><time>2026-04-24T11:36:07.001Z</time></trkpt><trkpt lat="42.9408604" lon="12.9364884"><ele>817.2</ele><time>2026-04-24T11:36:08.004Z</time></trkpt><trkpt lat="42.9409261" lon="12.9365879"><ele>820.0</ele><time>2026-04-24T11:36:09.006Z</time></trkpt><trkpt lat="42.9409912" lon="12.9366911"><ele>813.6</ele><time>2026-04-24T11:36:09.996Z</time></trkpt><trkpt lat="42.9410597" lon="12.9367936"><ele>807.2</ele><time>2026-04-24T11:36:11.01Z</time></trkpt><trkpt lat="42.9411138" lon="12.9368919"><ele>800.8</ele><time>2026-04-24T11:36:11.993Z</time></trkpt><trkpt lat="42.9411648" lon="12.9369902"><ele>794.4</ele><time>2026-04-24T11:36:12.996Z</time></trkpt><trkpt lat="42.9412227" lon="12.9370843"><ele>788.0</ele><time>2026-04-24T11:36:14.002Z</time></trkpt><trkpt lat="42.9412909" lon="12.9371882"><ele>788.0</ele><time>2026-04-24T11:36:15.002Z</time></trkpt><trkpt lat="42.9413671" lon="12.9373003"><ele>788.0</ele><time>2026-04-24T11:36:15.99Z</time></trkpt><trkpt lat="42.9414452" lon="12.9374017"><ele>788.0</ele><time>2026-04-24T11:36:17.009Z</time></trkpt><trkpt lat="42.9415226" lon="12.9374899"><ele>788.0</ele><time>2026-04-24T11:36:17.999Z</time></trkpt><trkpt lat="42.941599" lon="12.937563"><ele>788.0</ele><time>2026-04-24T11:36:19.005Z</time></trkpt><trkpt lat="42.9416563" lon="12.9376337"><ele>785.2</ele><time>2026-04-24T11:36:19.997Z</time></trkpt><trkpt lat="42.9416977" lon="12.937766"><ele>782.4</ele><time>2026-04-24T11:36:22.002Z</time></trkpt><trkpt lat="42.9416383" lon="12.9378781"><ele>779.6</ele><time>2026-04-24T11:36:24.008Z</time></trkpt><trkpt lat="42.9415889" lon="12.9379326"><ele>776.8000000000001</ele><time>2026-04-24T11:36:24.984Z</time></trkpt><trkpt lat="42.9414694" lon="12.9379809"><ele>774.0</ele><time>2026-04-24T11:36:27Z</time></trkpt><trkpt lat="42.9413895" lon="12.9379871"><ele>774.0</ele><time>2026-04-24T11:36:28.005Z</time></trkpt><trkpt lat="42.9413103" lon="12.9379847"><ele>774.0</ele><time>2026-04-24T11:36:29.016Z</time></trkpt><trkpt lat="42.9412264" lon="12.9379808"><ele>774.0</ele><time>2026-04-24T11:36:29.997Z</time></trkpt><trkpt lat="42.9411519" lon="12.9379803"><ele>774.0</ele><time>2026-04-24T11:36:30.998Z</time></trkpt><trkpt lat="42.9410806" lon="12.9379789"><ele>774.0</ele><time>2026-04-24T11:36:32.012Z</time></trkpt><trkpt lat="42.941016" lon="12.9379677"><ele>774.0</ele><time>2026-04-24T11:36:33.012Z</time></trkpt><trkpt lat="42.9409595" lon="12.9379236"><ele>774.0</ele><time>2026-04-24T11:36:33.997Z</time></trkpt><trkpt lat="42.9409063" lon="12.9378636"><ele>772.6666666666666</ele><time>2026-04-24T11:36:35.013Z</time></trkpt><trkpt lat="42.9408399" lon="12.9377848"><ele>771.3333333333334</ele><time>2026-04-24T11:36:36.011Z</time></trkpt><trkpt lat="42.9407694" lon="12.9377049"><ele>770.0</ele><time>2026-04-24T11:36:37.008Z</time></trkpt><trkpt lat="42.9407007" lon="12.9376408"><ele>768.6666666666667</ele><time>2026-04-24T11:36:37.987Z</time></trkpt><trkpt lat="42.9406344" lon="12.9375974"><ele>767.3333333333334</ele><time>2026-04-24T11:36:38.986Z</time></trkpt><trkpt lat="42.9405693" lon="12.9375573"><ele>766.0</ele><time>2026-04-24T11:36:40.002Z</time></trkpt><trkpt lat="42.9405012" lon="12.9375157"><ele>771.8333333333334</ele><time>2026-04-24T11:36:40.99Z</time></trkpt><trkpt lat="42.9404238" lon="12.9374682"><ele>777.6666666666667</ele><time>2026-04-24T11:36:41.998Z</time></trkpt><trkpt lat="42.9403458" lon="12.9374147"><ele>783.5</ele><time>2026-04-24T11:36:43.016Z</time></trkpt><trkpt lat="42.9402755" lon="12.9373556"><ele>789.3333333333334</ele><time>2026-04-24T11:36:44.017Z</time></trkpt><trkpt lat="42.9402036" lon="12.9373055"><ele>795.1666666666666</ele><time>2026-04-24T11:36:45.001Z</time></trkpt><trkpt lat="42.9401397" lon="12.9372522"><ele>801.0</ele><time>2026-04-24T11:36:45.996Z</time></trkpt><trkpt lat="42.9400861" lon="12.9371828"><ele>801.0</ele><time>2026-04-24T11:36:47.019Z</time></trkpt><trkpt lat="42.9400526" lon="12.9371002"><ele>801.0</ele><time>2026-04-24T11:36:48.006Z</time></trkpt><trkpt lat="42.940025" lon="12.9370144"><ele>801.0</ele><time>2026-04-24T11:36:48.997Z</time></trkpt><trkpt lat="42.9399903" lon="12.9369419"><ele>801.0</ele><time>2026-04-24T11:36:49.998Z</time></trkpt><trkpt lat="42.9399473" lon="12.936877"><ele>801.0</ele><time>2026-04-24T11:36:51Z</time></trkpt><trkpt lat="42.9398922" lon="12.9368033"><ele>801.0</ele><time>2026-04-24T11:36:51.995Z</time></trkpt><trkpt lat="42.9398343" lon="12.9367237"><ele>801.0</ele><time>2026-04-24T11:36:52.989Z</time></trkpt><trkpt lat="42.9397757" lon="12.9366511"><ele>803.0</ele><time>2026-04-24T11:36:54.001Z</time></trkpt><trkpt lat="42.9397216" lon="12.9365912"><ele>805.0</ele><time>2026-04-24T11:36:54.99Z</time></trkpt><trkpt lat="42.9396652" lon="12.9365479"><ele>807.0</ele><time>2026-04-24T11:36:55.983Z</time></trkpt><trkpt lat="42.9396007" lon="12.9365113"><ele>809.0</ele><time>2026-04-24T11:36:57.008Z</time></trkpt><trkpt lat="42.9395377" lon="12.9364781"><ele>811.0</ele><time>2026-04-24T11:36:58.021Z</time></trkpt><trkpt lat="42.9394534" lon="12.9363672"><ele>813.0</ele><time>2026-04-24T11:36:59.993Z</time></trkpt><trkpt lat="42.9393696" lon="12.9363269"><ele>813.0</ele><time>2026-04-24T11:37:02.003Z</time></trkpt><trkpt lat="42.9392546" lon="12.9363657"><ele>813.0</ele><time>2026-04-24T11:37:04.005Z</time></trkpt><trkpt lat="42.9391472" lon="12.9363119"><ele>813.0</ele><time>2026-04-24T11:37:05.994Z</time></trkpt><trkpt lat="42.9390881" lon="12.9362525"><ele>813.0</ele><time>2026-04-24T11:37:06.991Z</time></trkpt><trkpt lat="42.9390288" lon="12.9361971"><ele>813.0</ele><time>2026-04-24T11:37:08.011Z</time></trkpt><trkpt lat="42.9389711" lon="12.9361615"><ele>813.0</ele><time>2026-04-24T11:37:09.011Z</time></trkpt><trkpt lat="42.9388766" lon="12.9361168"><ele>802.5999999999999</ele><time>2026-04-24T11:37:10.995Z</time></trkpt><trkpt lat="42.938783" lon="12.9361389"><ele>792.1999999999999</ele><time>2026-04-24T11:37:12.999Z</time></trkpt><trkpt lat="42.9386781" lon="12.936161"><ele>781.8</ele><time>2026-04-24T11:37:14.992Z</time></trkpt><trkpt lat="42.9385776" lon="12.9361109"><ele>771.4</ele><time>2026-04-24T11:37:16.986Z</time></trkpt><trkpt lat="42.9385082" lon="12.9360351"><ele>761.0</ele><time>2026-04-24T11:37:19.004Z</time></trkpt><trkpt lat="42.9384011" lon="12.9360141"><ele>754.0</ele><time>2026-04-24T11:37:21Z</time></trkpt><trkpt lat="42.9382954" lon="12.9359779"><ele>747.0</ele><time>2026-04-24T11:37:23Z</time></trkpt><trkpt lat="42.9381735" lon="12.9359337"><ele>740.0</ele><time>2026-04-24T11:37:25.002Z</time></trkpt><trkpt lat="42.9381077" lon="12.9359394"><ele>733.0</ele><time>2026-04-24T11:37:25.985Z</time></trkpt><trkpt lat="42.9379984" lon="12.9359819"><ele>726.0</ele><time>2026-04-24T11:37:27.99Z</time></trkpt><trkpt lat="42.9379232" lon="12.9359636"><ele>726.0</ele><time>2026-04-24T11:37:30.002Z</time></trkpt><trkpt lat="42.9378513" lon="12.9358933"><ele>726.0</ele><time>2026-04-24T11:37:31.993Z</time></trkpt><trkpt lat="42.937787" lon="12.9357662"><ele>726.0</ele><time>2026-04-24T11:37:33.984Z</time></trkpt><trkpt lat="42.9377209" lon="12.9357203"><ele>726.0</ele><time>2026-04-24T11:37:36.001Z</time></trkpt><trkpt lat="42.937642" lon="12.9357288"><ele>726.0</ele><time>2026-04-24T11:37:38.993Z</time></trkpt><trkpt lat="42.9375656" lon="12.9357286"><ele>726.0</ele><time>2026-04-24T11:37:41.99Z</time></trkpt><trkpt lat="42.9375011" lon="12.935748"><ele>734.5999999999999</ele><time>2026-04-24T11:37:43.991Z</time></trkpt><trkpt lat="42.9373925" lon="12.9357988"><ele>743.2</ele><time>2026-04-24T11:37:45.993Z</time></trkpt><trkpt lat="42.937315" lon="12.9358052"><ele>751.8</ele><time>2026-04-24T11:37:47.004Z</time></trkpt><trkpt lat="42.93722" lon="12.9357794"><ele>760.4000000000001</ele><time>2026-04-24T11:37:47.999Z</time></trkpt><trkpt lat="42.9371256" lon="12.9357514"><ele>769.0</ele><time>2026-04-24T11:37:49Z</time></trkpt><trkpt lat="42.9370403" lon="12.9357128"><ele>768.9999999999999</ele><time>2026-04-24T11:37:49.992Z</time></trkpt><trkpt lat="42.9369683" lon="12.9356747"><ele>769.0</ele><time>2026-04-24T11:37:50.999Z</time></trkpt><trkpt lat="42.9369073" lon="12.9356244"><ele>769.0</ele><time>2026-04-24T11:37:51.989Z</time></trkpt><trkpt lat="42.9368516" lon="12.93557"><ele>769.0</ele><time>2026-04-24T11:37:52.994Z</time></trkpt><trkpt lat="42.9367368" lon="12.9355427"><ele>768.9999999999999</ele><time>2026-04-24T11:37:55.003Z</time></trkpt><trkpt lat="42.9366713" lon="12.9355342"><ele>769.0</ele><time>2026-04-24T11:37:56.004Z</time></trkpt><trkpt lat="42.9365976" lon="12.9355167"><ele>764.4999999999999</ele><time>2026-04-24T11:37:57Z</time></trkpt><trkpt lat="42.9365144" lon="12.935512"><ele>760.0</ele><time>2026-04-24T11:37:57.995Z</time></trkpt><trkpt lat="42.9364238" lon="12.9355093"><ele>755.5</ele><time>2026-04-24T11:37:59.016Z</time></trkpt><trkpt lat="42.9363486" lon="12.9355011"><ele>751.0</ele><time>2026-04-24T11:37:59.99Z</time></trkpt><trkpt lat="42.9362686" lon="12.9354823"><ele>746.5</ele><time>2026-04-24T11:38:00.987Z</time></trkpt><trkpt lat="42.9362011" lon="12.9354761"><ele>742.0</ele><time>2026-04-24T11:38:01.999Z</time></trkpt><trkpt lat="42.9361377" lon="12.935464"><ele>742.0</ele><time>2026-04-24T11:38:03.013Z</time></trkpt><trkpt lat="42.9360757" lon="12.9354478"><ele>742.0</ele><time>2026-04-24T11:38:04Z</time></trkpt><trkpt lat="42.9359677" lon="12.9354624"><ele>742.0</ele><time>2026-04-24T11:38:05.988Z</time></trkpt><trkpt lat="42.9358433" lon="12.9354726"><ele>742.0</ele><time>2026-04-24T11:38:07.989Z</time></trkpt><trkpt lat="42.9357766" lon="12.935454"><ele>742.0</ele><time>2026-04-24T11:38:08.997Z</time></trkpt><trkpt lat="42.9357172" lon="12.935409"><ele>742.0</ele><time>2026-04-24T11:38:09.996Z</time></trkpt><trkpt lat="42.9356535" lon="12.935367"><ele>740.0</ele><time>2026-04-24T11:38:10.996Z</time></trkpt><trkpt lat="42.9355903" lon="12.9353301"><ele>738.0</ele><time>2026-04-24T11:38:11.99Z</time></trkpt><trkpt lat="42.9355249" lon="12.9352988"><ele>736.0</ele><time>2026-04-24T11:38:13.001Z</time></trkpt><trkpt lat="42.9354645" lon="12.935254"><ele>734.0</ele><time>2026-04-24T11:38:14Z</time></trkpt><trkpt lat="42.9354123" lon="12.9351978"><ele>732.0</ele><time>2026-04-24T11:38:14.991Z</time></trkpt><trkpt lat="42.9353219" lon="12.9351433"><ele>730.0</ele><time>2026-04-24T11:38:16.989Z</time></trkpt><trkpt lat="42.9352119" lon="12.9351967"><ele>730.0</ele><time>2026-04-24T11:38:18.99Z</time></trkpt><trkpt lat="42.9351473" lon="12.9352271"><ele>730.0</ele><time>2026-04-24T11:38:19.995Z</time></trkpt><trkpt lat="42.9350723" lon="12.9352389"><ele>730.0</ele><time>2026-04-24T11:38:21.004Z</time></trkpt><trkpt lat="42.9350025" lon="12.9352501"><ele>730.0</ele><time>2026-04-24T11:38:21.998Z</time></trkpt><trkpt lat="42.9349208" lon="12.9352526"><ele>730.0</ele><time>2026-04-24T11:38:22.997Z</time></trkpt><trkpt lat="42.9348303" lon="12.935242"><ele>730.0</ele><time>2026-04-24T11:38:23.997Z</time></trkpt><trkpt lat="42.9347491" lon="12.935239"><ele>726.3333333333334</ele><time>2026-04-24T11:38:24.997Z</time></trkpt><trkpt lat="42.9346736" lon="12.9352339"><ele>722.6666666666667</ele><time>2026-04-24T11:38:25.984Z</time></trkpt><trkpt lat="42.934596" lon="12.9352272"><ele>719.0</ele><time>2026-04-24T11:38:26.992Z</time></trkpt><trkpt lat="42.9345259" lon="12.935219"><ele>715.3333333333334</ele><time>2026-04-24T11:38:27.985Z</time></trkpt><trkpt lat="42.9344647" lon="12.9351851"><ele>711.6666666666666</ele><time>2026-04-24T11:38:28.992Z</time></trkpt><trkpt lat="42.9344182" lon="12.9351189"><ele>708.0</ele><time>2026-04-24T11:38:30Z</time></trkpt><trkpt lat="42.934395" lon="12.9349697"><ele>710.8571428571429</ele><time>2026-04-24T11:38:31.991Z</time></trkpt><trkpt lat="42.9343911" lon="12.9348718"><ele>713.7142857142857</ele><time>2026-04-24T11:38:32.998Z</time></trkpt><trkpt lat="42.9343768" lon="12.9347832"><ele>716.5714285714286</ele><time>2026-04-24T11:38:33.993Z</time></trkpt><trkpt lat="42.934349" lon="12.9346955"><ele>719.4285714285714</ele><time>2026-04-24T11:38:34.987Z</time></trkpt><trkpt lat="42.9343105" lon="12.9346046"><ele>722.2857142857142</ele><time>2026-04-24T11:38:35.996Z</time></trkpt><trkpt lat="42.9342739" lon="12.9345238"><ele>725.1428571428571</ele><time>2026-04-24T11:38:36.985Z</time></trkpt><trkpt lat="42.9342444" lon="12.9344465"><ele>728.0</ele><time>2026-04-24T11:38:38.005Z</time></trkpt><trkpt lat="42.9342019" lon="12.9342989"><ele>728.0</ele><time>2026-04-24T11:38:39.985Z</time></trkpt><trkpt lat="42.9341403" lon="12.9342192"><ele>728.0</ele><time>2026-04-24T11:38:42.001Z</time></trkpt><trkpt lat="42.9340781" lon="12.9342469"><ele>728.0</ele><time>2026-04-24T11:38:43.991Z</time></trkpt><trkpt lat="42.9340351" lon="12.9343242"><ele>728.0</ele><time>2026-04-24T11:38:45.991Z</time></trkpt><trkpt lat="42.9339898" lon="12.9344364"><ele>728.0</ele><time>2026-04-24T11:38:48Z</time></trkpt><trkpt lat="42.9339287" lon="12.9345645"><ele>728.0</ele><time>2026-04-24T11:38:49.989Z</time></trkpt><trkpt lat="42.9338887" lon="12.9346456"><ele>728.0</ele><time>2026-04-24T11:38:50.991Z</time></trkpt><trkpt lat="42.9338042" lon="12.9347661"><ele>728.0</ele><time>2026-04-24T11:38:52.999Z</time></trkpt><trkpt lat="42.9337358" lon="12.9348349"><ele>728.0</ele><time>2026-04-24T11:38:54.992Z</time></trkpt><trkpt lat="42.933662" lon="12.9349043"><ele>728.0</ele><time>2026-04-24T11:38:58.005Z</time></trkpt><trkpt lat="42.9335716" lon="12.9349096"><ele>728.0</ele><time>2026-04-24T11:39:00.986Z</time></trkpt><trkpt lat="42.9334841" lon="12.9348816"><ele>725.8</ele><time>2026-04-24T11:39:03Z</time></trkpt><trkpt lat="42.933362" lon="12.934864"><ele>723.5999999999999</ele><time>2026-04-24T11:39:04.995Z</time></trkpt><trkpt lat="42.9332439" lon="12.9348546"><ele>721.4000000000001</ele><time>2026-04-24T11:39:06.995Z</time></trkpt><trkpt lat="42.933143" lon="12.9348556"><ele>719.2</ele><time>2026-04-24T11:39:08.997Z</time></trkpt><trkpt lat="42.9330536" lon="12.9348496"><ele>717.0</ele><time>2026-04-24T11:39:11.003Z</time></trkpt><trkpt lat="42.9329754" lon="12.9348386"><ele>717.0</ele><time>2026-04-24T11:39:12.999Z</time></trkpt><trkpt lat="42.9329067" lon="12.93486"><ele>717.0</ele><time>2026-04-24T11:39:15Z</time></trkpt><trkpt lat="42.9328363" lon="12.9348868"><ele>717.0</ele><time>2026-04-24T11:39:16.992Z</time></trkpt><trkpt lat="42.9327597" lon="12.9348588"><ele>717.0</ele><time>2026-04-24T11:39:18.997Z</time></trkpt><trkpt lat="42.9326934" lon="12.9348745"><ele>717.0</ele><time>2026-04-24T11:39:20.991Z</time></trkpt><trkpt lat="42.9326031" lon="12.9349241"><ele>717.0</ele><time>2026-04-24T11:39:23.001Z</time></trkpt><trkpt lat="42.9325157" lon="12.9349505"><ele>716.4000000000001</ele><time>2026-04-24T11:39:24.999Z</time></trkpt><trkpt lat="42.9324205" lon="12.9349609"><ele>715.8000000000001</ele><time>2026-04-24T11:39:26.997Z</time></trkpt><trkpt lat="42.9323235" lon="12.9349482"><ele>715.2</ele><time>2026-04-24T11:39:28.985Z</time></trkpt><trkpt lat="42.932218" lon="12.9349271"><ele>714.6</ele><time>2026-04-24T11:39:30.993Z</time></trkpt><trkpt lat="42.9320998" lon="12.9349096"><ele>714.0</ele><time>2026-04-24T11:39:33.001Z</time></trkpt><trkpt lat="42.9319834" lon="12.9349021"><ele>714.0</ele><time>2026-04-24T11:39:34.999Z</time></trkpt><trkpt lat="42.9318603" lon="12.9348946"><ele>714.0</ele><time>2026-04-24T11:39:36.986Z</time></trkpt><trkpt lat="42.9317967" lon="12.9349052"><ele>714.0</ele><time>2026-04-24T11:39:37.981Z</time></trkpt><trkpt lat="42.9316807" lon="12.934928"><ele>714.0</ele><time>2026-04-24T11:39:39.983Z</time></trkpt><trkpt lat="42.9315956" lon="12.9349447"><ele>714.0</ele><time>2026-04-24T11:39:41.99Z</time></trkpt><trkpt lat="42.9315056" lon="12.9349745"><ele>713.5</ele><time>2026-04-24T11:39:44.99Z</time></trkpt><trkpt lat="42.931424" lon="12.9350007"><ele>713.0</ele><time>2026-04-24T11:39:46.982Z</time></trkpt><trkpt lat="42.9313377" lon="12.9350614"><ele>712.5</ele><time>2026-04-24T11:39:48.996Z</time></trkpt><trkpt lat="42.9312464" lon="12.9351188"><ele>712.0</ele><time>2026-04-24T11:39:50.988Z</time></trkpt><trkpt lat="42.9311819" lon="12.9351431"><ele>711.5</ele><time>2026-04-24T11:39:51.991Z</time></trkpt><trkpt lat="42.9311139" lon="12.9351765"><ele>711.0</ele><time>2026-04-24T11:39:53.005Z</time></trkpt><trkpt lat="42.9310517" lon="12.9351997"><ele>703.5999999999999</ele><time>2026-04-24T11:39:53.985Z</time></trkpt><trkpt lat="42.9309351" lon="12.9352407"><ele>696.2</ele><time>2026-04-24T11:39:55.994Z</time></trkpt><trkpt lat="42.9308314" lon="12.9352696"><ele>688.8</ele><time>2026-04-24T11:39:57.987Z</time></trkpt><trkpt lat="42.9307271" lon="12.9353152"><ele>681.4000000000001</ele><time>2026-04-24T11:39:59.998Z</time></trkpt><trkpt lat="42.9306332" lon="12.9353669"><ele>674.0</ele><time>2026-04-24T11:40:01.992Z</time></trkpt><trkpt lat="42.9305228" lon="12.9354266"><ele>674.0</ele><time>2026-04-24T11:40:03.976Z</time></trkpt><trkpt lat="42.9304237" lon="12.935463"><ele>674.0</ele><time>2026-04-24T11:40:05.982Z</time></trkpt><trkpt lat="42.9303146" lon="12.9354985"><ele>674.0</ele><time>2026-04-24T11:40:07.979Z</time></trkpt><trkpt lat="42.9302027" lon="12.9354882"><ele>674.0</ele><time>2026-04-24T11:40:10.01Z</time></trkpt><trkpt lat="42.9300963" lon="12.9354823"><ele>674.0</ele><time>2026-04-24T11:40:11.991Z</time></trkpt><trkpt lat="42.9299738" lon="12.9354784"><ele>674.6</ele><time>2026-04-24T11:40:13.997Z</time></trkpt><trkpt lat="42.9298526" lon="12.9354948"><ele>675.2</ele><time>2026-04-24T11:40:15.989Z</time></trkpt><trkpt lat="42.9297888" lon="12.9355161"><ele>675.8000000000001</ele><time>2026-04-24T11:40:17.008Z</time></trkpt><trkpt lat="42.9296629" lon="12.9355664"><ele>676.4000000000001</ele><time>2026-04-24T11:40:18.989Z</time></trkpt><trkpt lat="42.9295685" lon="12.9356342"><ele>677.0</ele><time>2026-04-24T11:40:20.995Z</time></trkpt><trkpt lat="42.9294842" lon="12.9357146"><ele>677.0</ele><time>2026-04-24T11:40:23.001Z</time></trkpt><trkpt lat="42.9294047" lon="12.9357881"><ele>677.0</ele><time>2026-04-24T11:40:25.004Z</time></trkpt><trkpt lat="42.9293217" lon="12.9358561"><ele>677.0</ele><time>2026-04-24T11:40:27.997Z</time></trkpt><trkpt lat="42.929262" lon="12.935913"><ele>677.0</ele><time>2026-04-24T11:40:31.991Z</time></trkpt><trkpt lat="42.9293285" lon="12.9359589"><ele>677.0</ele><time>2026-04-24T11:40:35.999Z</time></trkpt><trkpt lat="42.9294017" lon="12.9358941"><ele>677.0</ele><time>2026-04-24T11:40:38.994Z</time></trkpt><trkpt lat="42.9294739" lon="12.9358249"><ele>677.0</ele><time>2026-04-24T11:40:41.992Z</time></trkpt><trkpt lat="42.9295413" lon="12.9357676"><ele>677.0</ele><time>2026-04-24T11:40:43.992Z</time></trkpt><trkpt lat="42.9296405" lon="12.9357334"><ele>677.0</ele><time>2026-04-24T11:40:45.999Z</time></trkpt><trkpt lat="42.9297272" lon="12.9357138"><ele>677.0</ele><time>2026-04-24T11:40:47.989Z</time></trkpt><trkpt lat="42.9298052" lon="12.9357058"><ele>677.0</ele><time>2026-04-24T11:40:49.991Z</time></trkpt><trkpt lat="42.9299006" lon="12.9357039"><ele>677.0</ele><time>2026-04-24T11:40:52.988Z</time></trkpt><trkpt lat="42.92997" lon="12.9357093"><ele>677.0</ele><time>2026-04-24T11:40:55.003Z</time></trkpt><trkpt lat="42.9300396" lon="12.9357232"><ele>677.0</ele><time>2026-04-24T11:40:56.994Z</time></trkpt><trkpt lat="42.9301168" lon="12.9357482"><ele>677.0</ele><time>2026-04-24T11:40:59.002Z</time></trkpt><trkpt lat="42.9302045" lon="12.9358051"><ele>677.0</ele><time>2026-04-24T11:41:00.995Z</time></trkpt><trkpt lat="42.9302892" lon="12.93584"><ele>677.0</ele><time>2026-04-24T11:41:02.994Z</time></trkpt><trkpt lat="42.9303807" lon="12.9358562"><ele>677.0</ele><time>2026-04-24T11:41:04.987Z</time></trkpt><trkpt lat="42.9304622" lon="12.9358436"><ele>676.5</ele><time>2026-04-24T11:41:07.987Z</time></trkpt><trkpt lat="42.9305431" lon="12.9358223"><ele>676.0</ele><time>2026-04-24T11:41:10.998Z</time></trkpt><trkpt lat="42.9306126" lon="12.9358087"><ele>675.5</ele><time>2026-04-24T11:41:13.003Z</time></trkpt><trkpt lat="42.9306799" lon="12.9357875"><ele>675.0</ele><time>2026-04-24T11:41:14.993Z</time></trkpt><trkpt lat="42.9307704" lon="12.9357565"><ele>674.5</ele><time>2026-04-24T11:41:17.98Z</time></trkpt><trkpt lat="42.9308503" lon="12.935734"><ele>674.0</ele><time>2026-04-24T11:41:19.992Z</time></trkpt><trkpt lat="42.930968" lon="12.9357076"><ele>672.0</ele><time>2026-04-24T11:41:21.998Z</time></trkpt><trkpt lat="42.9310835" lon="12.9356807"><ele>670.0</ele><time>2026-04-24T11:41:23.988Z</time></trkpt><trkpt lat="42.9311874" lon="12.9356538"><ele>668.0</ele><time>2026-04-24T11:41:25.992Z</time></trkpt><trkpt lat="42.9312903" lon="12.9356206"><ele>666.0</ele><time>2026-04-24T11:41:27.999Z</time></trkpt><trkpt lat="42.9313887" lon="12.9356014"><ele>664.0</ele><time>2026-04-24T11:41:29.993Z</time></trkpt><trkpt lat="42.9314829" lon="12.9355924"><ele>664.0</ele><time>2026-04-24T11:41:31.995Z</time></trkpt><trkpt lat="42.9315763" lon="12.9355964"><ele>664.0</ele><time>2026-04-24T11:41:33.991Z</time></trkpt><trkpt lat="42.9316673" lon="12.9355964"><ele>664.0</ele><time>2026-04-24T11:41:35.987Z</time></trkpt><trkpt lat="42.9317623" lon="12.9356009"><ele>664.0</ele><time>2026-04-24T11:41:37.99Z</time></trkpt><trkpt lat="42.9318738" lon="12.9356157"><ele>664.0</ele><time>2026-04-24T11:41:40.003Z</time></trkpt><trkpt lat="42.9319915" lon="12.9356291"><ele>664.5</ele><time>2026-04-24T11:41:41.985Z</time></trkpt><trkpt lat="42.9320528" lon="12.9356498"><ele>665.0</ele><time>2026-04-24T11:41:42.996Z</time></trkpt><trkpt lat="42.9321148" lon="12.9356778"><ele>665.5</ele><time>2026-04-24T11:41:43.984Z</time></trkpt><trkpt lat="42.9322266" lon="12.9357414"><ele>666.0</ele><time>2026-04-24T11:41:45.996Z</time></trkpt><trkpt lat="42.9323232" lon="12.9357937"><ele>666.5</ele><time>2026-04-24T11:41:48.002Z</time></trkpt><trkpt lat="42.9324104" lon="12.9358269"><ele>667.0</ele><time>2026-04-24T11:41:49.993Z</time></trkpt><trkpt lat="42.9324985" lon="12.9358184"><ele>668.5</ele><time>2026-04-24T11:41:51.991Z</time></trkpt><trkpt lat="42.9325683" lon="12.9358148"><ele>670.0</ele><time>2026-04-24T11:41:53.998Z</time></trkpt><trkpt lat="42.932639" lon="12.9358396"><ele>671.5</ele><time>2026-04-24T11:41:55.99Z</time></trkpt><trkpt lat="42.9327421" lon="12.9358955"><ele>673.0</ele><time>2026-04-24T11:41:57.995Z</time></trkpt><trkpt lat="42.932799" lon="12.9359334"><ele>674.5</ele><time>2026-04-24T11:41:58.993Z</time></trkpt><trkpt lat="42.9328618" lon="12.9359703"><ele>676.0</ele><time>2026-04-24T11:41:59.989Z</time></trkpt><trkpt lat="42.9329256" lon="12.9360103"><ele>672.4</ele><time>2026-04-24T11:42:01.006Z</time></trkpt><trkpt lat="42.9330152" lon="12.9360864"><ele>668.8</ele><time>2026-04-24T11:42:02.987Z</time></trkpt><trkpt lat="42.933071" lon="12.9361586"><ele>665.1999999999999</ele><time>2026-04-24T11:42:04.995Z</time></trkpt><trkpt lat="42.9331238" lon="12.9362481"><ele>661.5999999999999</ele><time>2026-04-24T11:42:06.993Z</time></trkpt><trkpt lat="42.9331835" lon="12.9363534"><ele>658.0</ele><time>2026-04-24T11:42:08.999Z</time></trkpt><trkpt lat="42.9332423" lon="12.9364622"><ele>658.0</ele><time>2026-04-24T11:42:10.992Z</time></trkpt><trkpt lat="42.9332826" lon="12.9365657"><ele>658.0</ele><time>2026-04-24T11:42:13.001Z</time></trkpt><trkpt lat="42.9333309" lon="12.9366589"><ele>658.0</ele><time>2026-04-24T11:42:14.998Z</time></trkpt><trkpt lat="42.9333881" lon="12.9366983"><ele>658.0</ele><time>2026-04-24T11:42:17Z</time></trkpt><trkpt lat="42.933466" lon="12.9367127"><ele>658.0</ele><time>2026-04-24T11:42:18.999Z</time></trkpt><trkpt lat="42.933529" lon="12.9367208"><ele>658.0</ele><time>2026-04-24T11:42:20.01Z</time></trkpt><trkpt lat="42.9335983" lon="12.9367254"><ele>658.0</ele><time>2026-04-24T11:42:20.992Z</time></trkpt><trkpt lat="42.9336638" lon="12.9367207"><ele>663.1428571428571</ele><time>2026-04-24T11:42:21.982Z</time></trkpt><trkpt lat="42.9337302" lon="12.9367226"><ele>668.2857142857142</ele><time>2026-04-24T11:42:23.002Z</time></trkpt><trkpt lat="42.9338009" lon="12.9367339"><ele>673.4285714285714</ele><time>2026-04-24T11:42:23.988Z</time></trkpt><trkpt lat="42.9338689" lon="12.9367496"><ele>678.5714285714286</ele><time>2026-04-24T11:42:24.997Z</time></trkpt><trkpt lat="42.9339389" lon="12.936753"><ele>683.7142857142857</ele><time>2026-04-24T11:42:25.986Z</time></trkpt><trkpt lat="42.934015" lon="12.9367508"><ele>688.8571428571429</ele><time>2026-04-24T11:42:27.002Z</time></trkpt><trkpt lat="42.9340857" lon="12.9367496"><ele>694.0</ele><time>2026-04-24T11:42:27.999Z</time></trkpt><trkpt lat="42.9341596" lon="12.9367569"><ele>692.5</ele><time>2026-04-24T11:42:28.993Z</time></trkpt><trkpt lat="42.9342405" lon="12.9367763"><ele>691.0</ele><time>2026-04-24T11:42:29.99Z</time></trkpt><trkpt lat="42.9343243" lon="12.9368008"><ele>689.5</ele><time>2026-04-24T11:42:31.001Z</time></trkpt><trkpt lat="42.9344098" lon="12.9368353"><ele>688.0</ele><time>2026-04-24T11:42:31.992Z</time></trkpt><trkpt lat="42.9344957" lon="12.9368785"><ele>686.5</ele><time>2026-04-24T11:42:32.994Z</time></trkpt><trkpt lat="42.9345837" lon="12.9369248"><ele>685.0</ele><time>2026-04-24T11:42:33.993Z</time></trkpt><trkpt lat="42.9346781" lon="12.9369679"><ele>685.0</ele><time>2026-04-24T11:42:34.987Z</time></trkpt><trkpt lat="42.9347685" lon="12.9370096"><ele>685.0</ele><time>2026-04-24T11:42:35.987Z</time></trkpt><trkpt lat="42.9348598" lon="12.937058"><ele>685.0</ele><time>2026-04-24T11:42:36.995Z</time></trkpt><trkpt lat="42.9349512" lon="12.9371133"><ele>685.0</ele><time>2026-04-24T11:42:37.998Z</time></trkpt><trkpt lat="42.9350355" lon="12.9371626"><ele>685.0</ele><time>2026-04-24T11:42:38.991Z</time></trkpt><trkpt lat="42.9351127" lon="12.9372007"><ele>683.3333333333334</ele><time>2026-04-24T11:42:39.995Z</time></trkpt><trkpt lat="42.9351922" lon="12.937236"><ele>681.6666666666667</ele><time>2026-04-24T11:42:40.995Z</time></trkpt><trkpt lat="42.9352768" lon="12.9372705"><ele>680.0</ele><time>2026-04-24T11:42:41.991Z</time></trkpt><trkpt lat="42.935366" lon="12.9372926"><ele>678.3333333333334</ele><time>2026-04-24T11:42:42.994Z</time></trkpt><trkpt lat="42.9354549" lon="12.9373164"><ele>676.6666666666666</ele><time>2026-04-24T11:42:43.995Z</time></trkpt><trkpt lat="42.9355455" lon="12.9373502"><ele>675.0</ele><time>2026-04-24T11:42:44.99Z</time></trkpt><trkpt lat="42.935627" lon="12.9373849"><ele>675.0</ele><time>2026-04-24T11:42:45.992Z</time></trkpt><trkpt lat="42.9357061" lon="12.9374235"><ele>675.0</ele><time>2026-04-24T11:42:46.994Z</time></trkpt><trkpt lat="42.9357865" lon="12.9374663"><ele>675.0</ele><time>2026-04-24T11:42:47.998Z</time></trkpt><trkpt lat="42.9358609" lon="12.9375007"><ele>675.0</ele><time>2026-04-24T11:42:48.996Z</time></trkpt><trkpt lat="42.9359322" lon="12.9375344"><ele>675.0</ele><time>2026-04-24T11:42:49.989Z</time></trkpt><trkpt lat="42.9360059" lon="12.9375734"><ele>675.0</ele><time>2026-04-24T11:42:50.985Z</time></trkpt><trkpt lat="42.9360638" lon="12.9376079"><ele>681.1666666666666</ele><time>2026-04-24T11:42:52.003Z</time></trkpt><trkpt lat="42.9361248" lon="12.9376485"><ele>687.3333333333334</ele><time>2026-04-24T11:42:52.996Z</time></trkpt><trkpt lat="42.9361952" lon="12.937688"><ele>693.5</ele><time>2026-04-24T11:42:53.994Z</time></trkpt><trkpt lat="42.9362683" lon="12.9377187"><ele>699.6666666666667</ele><time>2026-04-24T11:42:54.999Z</time></trkpt><trkpt lat="42.9363321" lon="12.9377386"><ele>705.8333333333334</ele><time>2026-04-24T11:42:55.989Z</time></trkpt><trkpt lat="42.9364505" lon="12.9377877"><ele>712.0</ele><time>2026-04-24T11:42:58.005Z</time></trkpt><trkpt lat="42.9365164" lon="12.93782"><ele>712.0</ele><time>2026-04-24T11:42:59.007Z</time></trkpt><trkpt lat="42.9365897" lon="12.937858"><ele>712.0</ele><time>2026-04-24T11:42:59.993Z</time></trkpt><trkpt lat="42.9366706" lon="12.9378996"><ele>712.0</ele><time>2026-04-24T11:43:00.987Z</time></trkpt><trkpt lat="42.9367495" lon="12.9379411"><ele>712.0</ele><time>2026-04-24T11:43:02Z</time></trkpt><trkpt lat="42.9368245" lon="12.9379762"><ele>712.0</ele><time>2026-04-24T11:43:02.992Z</time></trkpt><trkpt lat="42.9369059" lon="12.9379983"><ele>712.0</ele><time>2026-04-24T11:43:03.995Z</time></trkpt><trkpt lat="42.936987" lon="12.9380145"><ele>710.9999999999999</ele><time>2026-04-24T11:43:04.989Z</time></trkpt><trkpt lat="42.9370691" lon="12.9380261"><ele>710.0</ele><time>2026-04-24T11:43:05.984Z</time></trkpt><trkpt lat="42.9371438" lon="12.938025"><ele>709.0</ele><time>2026-04-24T11:43:06.998Z</time></trkpt><trkpt lat="42.9372159" lon="12.9380279"><ele>708.0</ele><time>2026-04-24T11:43:07.981Z</time></trkpt><trkpt lat="42.9372898" lon="12.9380363"><ele>707.0</ele><time>2026-04-24T11:43:08.995Z</time></trkpt><trkpt lat="42.9373575" lon="12.9380482"><ele>705.9999999999999</ele><time>2026-04-24T11:43:09.993Z</time></trkpt><trkpt lat="42.9374241" lon="12.9380543"><ele>705.0</ele><time>2026-04-24T11:43:10.988Z</time></trkpt><trkpt lat="42.9374982" lon="12.938059"><ele>701.3333333333334</ele><time>2026-04-24T11:43:11.999Z</time></trkpt><trkpt lat="42.9375629" lon="12.9380607"><ele>697.6666666666666</ele><time>2026-04-24T11:43:13.012Z</time></trkpt><trkpt lat="42.9376261" lon="12.9380763"><ele>694.0</ele><time>2026-04-24T11:43:13.984Z</time></trkpt><trkpt lat="42.9376978" lon="12.9381076"><ele>690.3333333333333</ele><time>2026-04-24T11:43:14.986Z</time></trkpt><trkpt lat="42.9377566" lon="12.9381389"><ele>686.6666666666666</ele><time>2026-04-24T11:43:15.996Z</time></trkpt><trkpt lat="42.9378725" lon="12.9381902"><ele>683.0</ele><time>2026-04-24T11:43:18.001Z</time></trkpt><trkpt lat="42.937944" lon="12.9382247"><ele>683.0</ele><time>2026-04-24T11:43:19.01Z</time></trkpt><trkpt lat="42.9380156" lon="12.9382691"><ele>683.0</ele><time>2026-04-24T11:43:19.984Z</time></trkpt><trkpt lat="42.9380951" lon="12.9383153"><ele>683.0</ele><time>2026-04-24T11:43:20.995Z</time></trkpt><trkpt lat="42.9381615" lon="12.9383607"><ele>683.0</ele><time>2026-04-24T11:43:21.99Z</time></trkpt><trkpt lat="42.9382536" lon="12.9384434"><ele>683.0</ele><time>2026-04-24T11:43:23.997Z</time></trkpt><trkpt lat="42.9383095" lon="12.9385606"><ele>682.7142857142858</ele><time>2026-04-24T11:43:25.985Z</time></trkpt><trkpt lat="42.9383437" lon="12.9386403"><ele>682.4285714285714</ele><time>2026-04-24T11:43:26.996Z</time></trkpt><trkpt lat="42.9383726" lon="12.9387185"><ele>682.1428571428571</ele><time>2026-04-24T11:43:28.004Z</time></trkpt><trkpt lat="42.9384109" lon="12.9387978"><ele>681.8571428571429</ele><time>2026-04-24T11:43:28.998Z</time></trkpt><trkpt lat="42.9384532" lon="12.9388796"><ele>681.5714285714286</ele><time>2026-04-24T11:43:29.997Z</time></trkpt><trkpt lat="42.9384998" lon="12.9389672"><ele>681.2857142857143</ele><time>2026-04-24T11:43:31.001Z</time></trkpt><trkpt lat="42.9385509" lon="12.9390622"><ele>681.0</ele><time>2026-04-24T11:43:31.996Z</time></trkpt><trkpt lat="42.9386" lon="12.9391546"><ele>684.5</ele><time>2026-04-24T11:43:32.99Z</time></trkpt><trkpt lat="42.9386554" lon="12.9392438"><ele>688.0</ele><time>2026-04-24T11:43:33.997Z</time></trkpt><trkpt lat="42.938712" lon="12.9393328"><ele>691.5</ele><time>2026-04-24T11:43:35.004Z</time></trkpt><trkpt lat="42.938775" lon="12.9394106"><ele>695.0</ele><time>2026-04-24T11:43:35.997Z</time></trkpt><trkpt lat="42.9388371" lon="12.9394784"><ele>698.5</ele><time>2026-04-24T11:43:37.001Z</time></trkpt><trkpt lat="42.9389006" lon="12.9395365"><ele>702.0</ele><time>2026-04-24T11:43:38.002Z</time></trkpt><trkpt lat="42.9389683" lon="12.9395841"><ele>702.0</ele><time>2026-04-24T11:43:39.008Z</time></trkpt><trkpt lat="42.9390299" lon="12.9396385"><ele>702.0</ele><time>2026-04-24T11:43:40.002Z</time></trkpt><trkpt lat="42.9391026" lon="12.9397499"><ele>702.0</ele><time>2026-04-24T11:43:41.992Z</time></trkpt><trkpt lat="42.9391074" lon="12.9398991"><ele>702.0</ele><time>2026-04-24T11:43:43.995Z</time></trkpt><trkpt lat="42.93909" lon="12.940062"><ele>702.0</ele><time>2026-04-24T11:43:45.987Z</time></trkpt><trkpt lat="42.9390843" lon="12.9401781"><ele>702.6666666666666</ele><time>2026-04-24T11:43:47.991Z</time></trkpt><trkpt lat="42.939067" lon="12.9403189"><ele>703.3333333333334</ele><time>2026-04-24T11:43:49.986Z</time></trkpt><trkpt lat="42.9390519" lon="12.9404043"><ele>704.0</ele><time>2026-04-24T11:43:50.993Z</time></trkpt><trkpt lat="42.9390348" lon="12.9405031"><ele>704.6666666666667</ele><time>2026-04-24T11:43:51.985Z</time></trkpt><trkpt lat="42.9390153" lon="12.9405912"><ele>705.3333333333334</ele><time>2026-04-24T11:43:52.991Z</time></trkpt><trkpt lat="42.9389972" lon="12.9406861"><ele>706.0</ele><time>2026-04-24T11:43:54.008Z</time></trkpt><trkpt lat="42.9389832" lon="12.9407816"><ele>706.4</ele><time>2026-04-24T11:43:54.997Z</time></trkpt><trkpt lat="42.9389975" lon="12.9409461"><ele>706.8</ele><time>2026-04-24T11:43:56.992Z</time></trkpt><trkpt lat="42.939019" lon="12.9410996"><ele>707.1999999999999</ele><time>2026-04-24T11:43:59.002Z</time></trkpt><trkpt lat="42.9390274" lon="12.9412549"><ele>707.5999999999999</ele><time>2026-04-24T11:44:00.987Z</time></trkpt><trkpt lat="42.9390234" lon="12.9413428"><ele>708.0</ele><time>2026-04-24T11:44:01.998Z</time></trkpt><trkpt lat="42.9390092" lon="12.9415023"><ele>708.0</ele><time>2026-04-24T11:44:03.993Z</time></trkpt><trkpt lat="42.9389743" lon="12.9416345"><ele>708.0</ele><time>2026-04-24T11:44:05.986Z</time></trkpt><trkpt lat="42.9389038" lon="12.9417561"><ele>708.0</ele><time>2026-04-24T11:44:08.01Z</time></trkpt><trkpt lat="42.9388432" lon="12.9418663"><ele>708.0</ele><time>2026-04-24T11:44:09.993Z</time></trkpt><trkpt lat="42.9388397" lon="12.9420142"><ele>708.0</ele><time>2026-04-24T11:44:11.986Z</time></trkpt><trkpt lat="42.9388755" lon="12.9421644"><ele>708.8</ele><time>2026-04-24T11:44:14.004Z</time></trkpt><trkpt lat="42.9389109" lon="12.9422905"><ele>709.5999999999999</ele><time>2026-04-24T11:44:14.983Z</time></trkpt><trkpt lat="42.938932" lon="12.9424275"><ele>710.4000000000001</ele><time>2026-04-24T11:44:15.991Z</time></trkpt><trkpt lat="42.9389517" lon="12.9425744"><ele>711.2</ele><time>2026-04-24T11:44:16.996Z</time></trkpt><trkpt lat="42.9389706" lon="12.9427239"><ele>712.0</ele><time>2026-04-24T11:44:18.008Z</time></trkpt><trkpt lat="42.9389928" lon="12.9428661"><ele>713.0</ele><time>2026-04-24T11:44:18.993Z</time></trkpt><trkpt lat="42.9390047" lon="12.9429974"><ele>714.0</ele><time>2026-04-24T11:44:19.98Z</time></trkpt><trkpt lat="42.9389983" lon="12.9431221"><ele>715.0</ele><time>2026-04-24T11:44:21.002Z</time></trkpt><trkpt lat="42.9389733" lon="12.9432294"><ele>716.0</ele><time>2026-04-24T11:44:22.024Z</time></trkpt><trkpt lat="42.9389323" lon="12.9433297"><ele>717.0</ele><time>2026-04-24T11:44:22.992Z</time></trkpt><trkpt lat="42.938884" lon="12.9434262"><ele>718.0</ele><time>2026-04-24T11:44:24.004Z</time></trkpt><trkpt lat="42.9388172" lon="12.9435165"><ele>718.8</ele><time>2026-04-24T11:44:24.998Z</time></trkpt><trkpt lat="42.9387423" lon="12.943605"><ele>719.5999999999999</ele><time>2026-04-24T11:44:26.011Z</time></trkpt><trkpt lat="42.9386705" lon="12.9436943"><ele>720.4000000000001</ele><time>2026-04-24T11:44:26.989Z</time></trkpt><trkpt lat="42.9386054" lon="12.9437884"><ele>721.2</ele><time>2026-04-24T11:44:28.005Z</time></trkpt><trkpt lat="42.9385512" lon="12.9438823"><ele>722.0</ele><time>2026-04-24T11:44:29.001Z</time></trkpt><trkpt lat="42.9384948" lon="12.9439574"><ele>722.0</ele><time>2026-04-24T11:44:29.998Z</time></trkpt><trkpt lat="42.9384429" lon="12.9440151"><ele>722.0</ele><time>2026-04-24T11:44:30.988Z</time></trkpt><trkpt lat="42.9383708" lon="12.9440592"><ele>722.0</ele><time>2026-04-24T11:44:31.98Z</time></trkpt><trkpt lat="42.9382867" lon="12.9441168"><ele>722.0</ele><time>2026-04-24T11:44:33.002Z</time></trkpt><trkpt lat="42.9382015" lon="12.9441744"><ele>722.0</ele><time>2026-04-24T11:44:34.006Z</time></trkpt><trkpt lat="42.9381172" lon="12.9442473"><ele>722.0</ele><time>2026-04-24T11:44:35.006Z</time></trkpt><trkpt lat="42.9380483" lon="12.9443475"><ele>724.75</ele><time>2026-04-24T11:44:36.002Z</time></trkpt><trkpt lat="42.937971" lon="12.9444626"><ele>727.5</ele><time>2026-04-24T11:44:37.001Z</time></trkpt><trkpt lat="42.9379004" lon="12.9445848"><ele>730.25</ele><time>2026-04-24T11:44:37.996Z</time></trkpt><trkpt lat="42.9378395" lon="12.9447159"><ele>733.0</ele><time>2026-04-24T11:44:39.005Z</time></trkpt><trkpt lat="42.937788" lon="12.9448533"><ele>733.0</ele><time>2026-04-24T11:44:40.006Z</time></trkpt><trkpt lat="42.9377503" lon="12.9450027"><ele>733.0</ele><time>2026-04-24T11:44:40.995Z</time></trkpt><trkpt lat="42.9377241" lon="12.9451476"><ele>733.0</ele><time>2026-04-24T11:44:41.983Z</time></trkpt><trkpt lat="42.9377034" lon="12.9452875"><ele>733.0</ele><time>2026-04-24T11:44:43.006Z</time></trkpt><trkpt lat="42.9377021" lon="12.9453977"><ele>733.0</ele><time>2026-04-24T11:44:44Z</time></trkpt><trkpt lat="42.9377163" lon="12.9455034"><ele>735.4</ele><time>2026-04-24T11:44:45.012Z</time></trkpt><trkpt lat="42.9377468" lon="12.9455909"><ele>737.8</ele><time>2026-04-24T11:44:45.99Z</time></trkpt><trkpt lat="42.9378222" lon="12.9456754"><ele>740.2</ele><time>2026-04-24T11:44:47.006Z</time></trkpt><trkpt lat="42.9379248" lon="12.9457427"><ele>742.6</ele><time>2026-04-24T11:44:48Z</time></trkpt><trkpt lat="42.9380136" lon="12.9457923"><ele>745.0</ele><time>2026-04-24T11:44:49.006Z</time></trkpt><trkpt lat="42.938089" lon="12.9458245"><ele>745.0</ele><time>2026-04-24T11:44:49.988Z</time></trkpt><trkpt lat="42.9381489" lon="12.9458646"><ele>745.0</ele><time>2026-04-24T11:44:51.003Z</time></trkpt><trkpt lat="42.9382236" lon="12.9459672"><ele>745.0</ele><time>2026-04-24T11:44:52.99Z</time></trkpt><trkpt lat="42.9382358" lon="12.9460589"><ele>745.0</ele><time>2026-04-24T11:44:53.999Z</time></trkpt><trkpt lat="42.938244" lon="12.9461506"><ele>745.0</ele><time>2026-04-24T11:44:55.007Z</time></trkpt><trkpt lat="42.9381995" lon="12.946255"><ele>745.0</ele><time>2026-04-24T11:44:56.992Z</time></trkpt><trkpt lat="42.9380951" lon="12.9462637"><ele>750.0</ele><time>2026-04-24T11:44:58.998Z</time></trkpt><trkpt lat="42.9380304" lon="12.9462277"><ele>755.0</ele><time>2026-04-24T11:44:59.981Z</time></trkpt><trkpt lat="42.9379614" lon="12.9461625"><ele>760.0</ele><time>2026-04-24T11:45:00.995Z</time></trkpt><trkpt lat="42.9378742" lon="12.9460914"><ele>765.0</ele><time>2026-04-24T11:45:02Z</time></trkpt><trkpt lat="42.9377832" lon="12.946009"><ele>770.0</ele><time>2026-04-24T11:45:02.983Z</time></trkpt><trkpt lat="42.9377071" lon="12.9459212"><ele>772.4</ele><time>2026-04-24T11:45:03.989Z</time></trkpt><trkpt lat="42.937637" lon="12.9458251"><ele>774.8</ele><time>2026-04-24T11:45:04.995Z</time></trkpt><trkpt lat="42.9375772" lon="12.945733"><ele>777.2</ele><time>2026-04-24T11:45:05.987Z</time></trkpt><trkpt lat="42.9375321" lon="12.9456284"><ele>779.6</ele><time>2026-04-24T11:45:06.997Z</time></trkpt><trkpt lat="42.9374893" lon="12.9455145"><ele>782.0</ele><time>2026-04-24T11:45:08.002Z</time></trkpt><trkpt lat="42.9374531" lon="12.9453993"><ele>782.0</ele><time>2026-04-24T11:45:09.005Z</time></trkpt><trkpt lat="42.9374176" lon="12.9452763"><ele>782.0</ele><time>2026-04-24T11:45:09.993Z</time></trkpt><trkpt lat="42.9373998" lon="12.9451409"><ele>782.0</ele><time>2026-04-24T11:45:11.004Z</time></trkpt><trkpt lat="42.9373872" lon="12.9449855"><ele>782.0</ele><time>2026-04-24T11:45:11.989Z</time></trkpt><trkpt lat="42.9373771" lon="12.9448423"><ele>782.0</ele><time>2026-04-24T11:45:12.998Z</time></trkpt><trkpt lat="42.9373844" lon="12.9447021"><ele>781.75</ele><time>2026-04-24T11:45:13.998Z</time></trkpt><trkpt lat="42.9374058" lon="12.9445505"><ele>781.5</ele><time>2026-04-24T11:45:14.993Z</time></trkpt><trkpt lat="42.937435" lon="12.9444067"><ele>781.25</ele><time>2026-04-24T11:45:15.988Z</time></trkpt><trkpt lat="42.9374703" lon="12.9442521"><ele>781.0</ele><time>2026-04-24T11:45:16.99Z</time></trkpt><trkpt lat="42.9375152" lon="12.9440959"><ele>771.8</ele><time>2026-04-24T11:45:18Z</time></trkpt><trkpt lat="42.9375684" lon="12.9439538"><ele>762.5999999999999</ele><time>2026-04-24T11:45:18.994Z</time></trkpt><trkpt lat="42.9376025" lon="12.9438335"><ele>753.4</ele><time>2026-04-24T11:45:20.002Z</time></trkpt><trkpt lat="42.9376262" lon="12.9437423"><ele>744.2</ele><time>2026-04-24T11:45:21.005Z</time></trkpt><trkpt lat="42.9376259" lon="12.9436035"><ele>735.0</ele><time>2026-04-24T11:45:22.988Z</time></trkpt><trkpt lat="42.9375614" lon="12.9435034"><ele>744.2</ele><time>2026-04-24T11:45:24.999Z</time></trkpt><trkpt lat="42.9374511" lon="12.9433922"><ele>753.4</ele><time>2026-04-24T11:45:27.003Z</time></trkpt><trkpt lat="42.937398" lon="12.943346"><ele>762.5999999999999</ele><time>2026-04-24T11:45:28.001Z</time></trkpt><trkpt lat="42.9373356" lon="12.943277"><ele>771.8</ele><time>2026-04-24T11:45:29.004Z</time></trkpt><trkpt lat="42.9373008" lon="12.9431876"><ele>781.0</ele><time>2026-04-24T11:45:30.002Z</time></trkpt><trkpt lat="42.9372726" lon="12.943061"><ele>781.25</ele><time>2026-04-24T11:45:30.995Z</time></trkpt><trkpt lat="42.9372563" lon="12.9429258"><ele>781.5</ele><time>2026-04-24T11:45:31.997Z</time></trkpt><trkpt lat="42.9372584" lon="12.9427774"><ele>781.75</ele><time>2026-04-24T11:45:32.987Z</time></trkpt><trkpt lat="42.9372857" lon="12.9424901"><ele>782.0</ele><time>2026-04-24T11:45:35.009Z</time></trkpt><trkpt lat="42.9373054" lon="12.9423394"><ele>782.2</ele><time>2026-04-24T11:45:36.02Z</time></trkpt><trkpt lat="42.9373244" lon="12.9421992"><ele>782.4000000000001</ele><time>2026-04-24T11:45:36.991Z</time></trkpt><trkpt lat="42.937351" lon="12.9420595"><ele>782.5999999999999</ele><time>2026-04-24T11:45:37.998Z</time></trkpt><trkpt lat="42.9373793" lon="12.9419238"><ele>782.8</ele><time>2026-04-24T11:45:39.001Z</time></trkpt><trkpt lat="42.937385" lon="12.9417967"><ele>783.0</ele><time>2026-04-24T11:45:40.012Z</time></trkpt><trkpt lat="42.9373847" lon="12.9416776"><ele>784.4</ele><time>2026-04-24T11:45:41.007Z</time></trkpt><trkpt lat="42.9373681" lon="12.9415616"><ele>785.8</ele><time>2026-04-24T11:45:42.004Z</time></trkpt><trkpt lat="42.937343" lon="12.9414312"><ele>787.2</ele><time>2026-04-24T11:45:42.994Z</time></trkpt><trkpt lat="42.9373151" lon="12.9413098"><ele>788.6</ele><time>2026-04-24T11:45:43.988Z</time></trkpt><trkpt lat="42.9373103" lon="12.9411879"><ele>790.0</ele><time>2026-04-24T11:45:44.998Z</time></trkpt><trkpt lat="42.9373233" lon="12.9410737"><ele>789.9999999999999</ele><time>2026-04-24T11:45:46.011Z</time></trkpt><trkpt lat="42.9373622" lon="12.9409561"><ele>790.0</ele><time>2026-04-24T11:45:46.997Z</time></trkpt><trkpt lat="42.9373966" lon="12.940848"><ele>790.0</ele><time>2026-04-24T11:45:47.998Z</time></trkpt><trkpt lat="42.9374232" lon="12.9407426"><ele>790.0</ele><time>2026-04-24T11:45:49.002Z</time></trkpt><trkpt lat="42.9374164" lon="12.9406307"><ele>789.9999999999999</ele><time>2026-04-24T11:45:50.012Z</time></trkpt><trkpt lat="42.9373968" lon="12.9405193"><ele>790.0</ele><time>2026-04-24T11:45:50.998Z</time></trkpt><trkpt lat="42.9373692" lon="12.9404172"><ele>790.4</ele><time>2026-04-24T11:45:51.998Z</time></trkpt><trkpt lat="42.9373245" lon="12.9403272"><ele>790.8</ele><time>2026-04-24T11:45:53.006Z</time></trkpt><trkpt lat="42.9372752" lon="12.9402566"><ele>791.2</ele><time>2026-04-24T11:45:54.011Z</time></trkpt><trkpt lat="42.9371689" lon="12.9402083"><ele>791.6</ele><time>2026-04-24T11:45:55.998Z</time></trkpt><trkpt lat="42.9370377" lon="12.940197"><ele>792.0</ele><time>2026-04-24T11:45:58.023Z</time></trkpt><trkpt lat="42.936953" lon="12.9401937"><ele>792.0</ele><time>2026-04-24T11:45:58.998Z</time></trkpt><trkpt lat="42.9368549" lon="12.9402057"><ele>792.0</ele><time>2026-04-24T11:46:00.009Z</time></trkpt><trkpt lat="42.9367452" lon="12.9402243"><ele>792.0</ele><time>2026-04-24T11:46:01.001Z</time></trkpt><trkpt lat="42.9366303" lon="12.9402311"><ele>792.0</ele><time>2026-04-24T11:46:02.008Z</time></trkpt><trkpt lat="42.9365139" lon="12.9402249"><ele>792.0</ele><time>2026-04-24T11:46:03.007Z</time></trkpt><trkpt lat="42.9364028" lon="12.940215"><ele>798.2</ele><time>2026-04-24T11:46:04.008Z</time></trkpt><trkpt lat="42.9362964" lon="12.940212"><ele>804.4000000000001</ele><time>2026-04-24T11:46:05.009Z</time></trkpt><trkpt lat="42.9361918" lon="12.9402242"><ele>810.5999999999999</ele><time>2026-04-24T11:46:05.993Z</time></trkpt><trkpt lat="42.9360907" lon="12.9402316"><ele>816.8</ele><time>2026-04-24T11:46:06.997Z</time></trkpt><trkpt lat="42.9359901" lon="12.9402392"><ele>823.0</ele><time>2026-04-24T11:46:07.987Z</time></trkpt><trkpt lat="42.9358727" lon="12.940234"><ele>825.5</ele><time>2026-04-24T11:46:09.005Z</time></trkpt><trkpt lat="42.9357458" lon="12.9401937"><ele>828.0</ele><time>2026-04-24T11:46:09.997Z</time></trkpt><trkpt lat="42.9356297" lon="12.9401678"><ele>830.5</ele><time>2026-04-24T11:46:11.002Z</time></trkpt><trkpt lat="42.935497" lon="12.9401354"><ele>833.0</ele><time>2026-04-24T11:46:12.008Z</time></trkpt><trkpt lat="42.9353628" lon="12.9401243"><ele>833.0</ele><time>2026-04-24T11:46:13.015Z</time></trkpt><trkpt lat="42.9352293" lon="12.9401363"><ele>833.0</ele><time>2026-04-24T11:46:14Z</time></trkpt><trkpt lat="42.9350956" lon="12.9401482"><ele>833.0</ele><time>2026-04-24T11:46:15.006Z</time></trkpt><trkpt lat="42.9349487" lon="12.9401539"><ele>833.0</ele><time>2026-04-24T11:46:16.001Z</time></trkpt><trkpt lat="42.9347983" lon="12.940161"><ele>832.75</ele><time>2026-04-24T11:46:16.985Z</time></trkpt><trkpt lat="42.9346489" lon="12.9401643"><ele>832.5</ele><time>2026-04-24T11:46:18.003Z</time></trkpt><trkpt lat="42.9345082" lon="12.9401681"><ele>832.25</ele><time>2026-04-24T11:46:18.998Z</time></trkpt><trkpt lat="42.9343731" lon="12.9401749"><ele>832.0</ele><time>2026-04-24T11:46:19.989Z</time></trkpt><trkpt lat="42.9342606" lon="12.9401862"><ele>832.4999999999999</ele><time>2026-04-24T11:46:20.991Z</time></trkpt><trkpt lat="42.9341483" lon="12.9402114"><ele>833.0</ele><time>2026-04-24T11:46:21.996Z</time></trkpt><trkpt lat="42.9340526" lon="12.9402409"><ele>833.5</ele><time>2026-04-24T11:46:22.991Z</time></trkpt><trkpt lat="42.9339775" lon="12.9402653"><ele>834.0</ele><time>2026-04-24T11:46:24.009Z</time></trkpt><trkpt lat="42.9339029" lon="12.9402866"><ele>834.4999999999999</ele><time>2026-04-24T11:46:25.991Z</time></trkpt><trkpt lat="42.933965" lon="12.9402487"><ele>835.0</ele><time>2026-04-24T11:46:55.01Z</time></trkpt><trkpt lat="42.9339029" lon="12.9402784"><ele>834.9999999999999</ele><time>2026-04-24T11:47:55.013Z</time></trkpt><trkpt lat="42.9338014" lon="12.9402983"><ele>835.0</ele><time>2026-04-24T11:47:58.001Z</time></trkpt><trkpt lat="42.933697" lon="12.9403165"><ele>835.0</ele><time>2026-04-24T11:47:59.998Z</time></trkpt><trkpt lat="42.9336348" lon="12.9403321"><ele>835.0</ele><time>2026-04-24T11:48:00.997Z</time></trkpt><trkpt lat="42.9335662" lon="12.9403556"><ele>834.9999999999999</ele><time>2026-04-24T11:48:02.009Z</time></trkpt><trkpt lat="42.9335048" lon="12.9403904"><ele>835.0</ele><time>2026-04-24T11:48:03.023Z</time></trkpt><trkpt lat="42.9334445" lon="12.9404221"><ele>835.4999999999999</ele><time>2026-04-24T11:48:03.994Z</time></trkpt><trkpt lat="42.9333766" lon="12.9404487"><ele>836.0</ele><time>2026-04-24T11:48:05.005Z</time></trkpt><trkpt lat="42.9332995" lon="12.9404805"><ele>836.5</ele><time>2026-04-24T11:48:06.014Z</time></trkpt><trkpt lat="42.9332132" lon="12.9405039"><ele>837.0</ele><time>2026-04-24T11:48:07.016Z</time></trkpt><trkpt lat="42.9331217" lon="12.9405263"><ele>837.4999999999999</ele><time>2026-04-24T11:48:07.99Z</time></trkpt><trkpt lat="42.9330336" lon="12.9405601"><ele>838.0</ele><time>2026-04-24T11:48:09.001Z</time></trkpt><trkpt lat="42.932946" lon="12.9405929"><ele>837.9999999999999</ele><time>2026-04-24T11:48:09.99Z</time></trkpt><trkpt lat="42.9328723" lon="12.9406128"><ele>838.0</ele><time>2026-04-24T11:48:11.009Z</time></trkpt><trkpt lat="42.9328097" lon="12.9406263"><ele>838.0</ele><time>2026-04-24T11:48:11.99Z</time></trkpt><trkpt lat="42.9327428" lon="12.9406277"><ele>838.0</ele><time>2026-04-24T11:48:13.012Z</time></trkpt><trkpt lat="42.9326719" lon="12.9406121"><ele>837.9999999999999</ele><time>2026-04-24T11:48:14.002Z</time></trkpt><trkpt lat="42.9325879" lon="12.9405978"><ele>838.0</ele><time>2026-04-24T11:48:15.006Z</time></trkpt><trkpt lat="42.9324978" lon="12.9405766"><ele>837.8333333333333</ele><time>2026-04-24T11:48:15.993Z</time></trkpt><trkpt lat="42.9324057" lon="12.9405756"><ele>837.6666666666666</ele><time>2026-04-24T11:48:17.021Z</time></trkpt><trkpt lat="42.9323205" lon="12.9405714"><ele>837.5</ele><time>2026-04-24T11:48:18.008Z</time></trkpt><trkpt lat="42.9322395" lon="12.9405756"><ele>837.3333333333333</ele><time>2026-04-24T11:48:19.003Z</time></trkpt><trkpt lat="42.9321484" lon="12.9405669"><ele>837.1666666666666</ele><time>2026-04-24T11:48:19.994Z</time></trkpt><trkpt lat="42.9320544" lon="12.9405648"><ele>837.0</ele><time>2026-04-24T11:48:21.009Z</time></trkpt><trkpt lat="42.9319531" lon="12.9405688"><ele>837.0</ele><time>2026-04-24T11:48:22.009Z</time></trkpt><trkpt lat="42.931855" lon="12.9405657"><ele>837.0</ele><time>2026-04-24T11:48:22.997Z</time></trkpt><trkpt lat="42.9317531" lon="12.9405588"><ele>837.0</ele><time>2026-04-24T11:48:24.006Z</time></trkpt><trkpt lat="42.9316513" lon="12.9405552"><ele>837.0</ele><time>2026-04-24T11:48:25.016Z</time></trkpt><trkpt lat="42.9315551" lon="12.9405728"><ele>837.0</ele><time>2026-04-24T11:48:26.018Z</time></trkpt><trkpt lat="42.9314725" lon="12.9406011"><ele>837.8</ele><time>2026-04-24T11:48:27.003Z</time></trkpt><trkpt lat="42.9313917" lon="12.9406455"><ele>838.6</ele><time>2026-04-24T11:48:28.001Z</time></trkpt><trkpt lat="42.931306" lon="12.9407078"><ele>839.4</ele><time>2026-04-24T11:48:29.003Z</time></trkpt><trkpt lat="42.9312144" lon="12.9407921"><ele>840.1999999999999</ele><time>2026-04-24T11:48:30.011Z</time></trkpt><trkpt lat="42.9311273" lon="12.9408771"><ele>841.0</ele><time>2026-04-24T11:48:31.001Z</time></trkpt><trkpt lat="42.9310453" lon="12.9409511"><ele>844.1666666666666</ele><time>2026-04-24T11:48:31.985Z</time></trkpt><trkpt lat="42.9309755" lon="12.9410078"><ele>847.3333333333333</ele><time>2026-04-24T11:48:33.015Z</time></trkpt><trkpt lat="42.930884" lon="12.9410899"><ele>850.5</ele><time>2026-04-24T11:48:35.004Z</time></trkpt><trkpt lat="42.9308802" lon="12.9411775"><ele>853.6666666666667</ele><time>2026-04-24T11:48:36.987Z</time></trkpt><trkpt lat="42.9309614" lon="12.9412011"><ele>856.8333333333334</ele><time>2026-04-24T11:48:39.017Z</time></trkpt><trkpt lat="42.931028" lon="12.9411805"><ele>860.0</ele><time>2026-04-24T11:48:40.009Z</time></trkpt><trkpt lat="42.9311043" lon="12.9411592"><ele>860.1666666666667</ele><time>2026-04-24T11:48:40.999Z</time></trkpt><trkpt lat="42.931187" lon="12.9411398"><ele>860.3333333333334</ele><time>2026-04-24T11:48:41.993Z</time></trkpt><trkpt lat="42.9312739" lon="12.9411309"><ele>860.5</ele><time>2026-04-24T11:48:42.985Z</time></trkpt><trkpt lat="42.9313632" lon="12.9411375"><ele>860.6666666666667</ele><time>2026-04-24T11:48:43.998Z</time></trkpt><trkpt lat="42.9314451" lon="12.9411487"><ele>860.8333333333334</ele><time>2026-04-24T11:48:45Z</time></trkpt><trkpt lat="42.9315205" lon="12.9411638"><ele>861.0</ele><time>2026-04-24T11:48:46.005Z</time></trkpt><trkpt lat="42.9315997" lon="12.9411808"><ele>861.0</ele><time>2026-04-24T11:48:47.02Z</time></trkpt><trkpt lat="42.9316795" lon="12.9412089"><ele>861.0</ele><time>2026-04-24T11:48:48.015Z</time></trkpt><trkpt lat="42.9317591" lon="12.9412543"><ele>861.0</ele><time>2026-04-24T11:48:48.998Z</time></trkpt><trkpt lat="42.9318351" lon="12.9413016"><ele>861.0</ele><time>2026-04-24T11:48:49.992Z</time></trkpt><trkpt lat="42.9319074" lon="12.9413537"><ele>861.0</ele><time>2026-04-24T11:48:51.005Z</time></trkpt><trkpt lat="42.9319762" lon="12.9413935"><ele>861.0</ele><time>2026-04-24T11:48:51.996Z</time></trkpt><trkpt lat="42.9320424" lon="12.9414114"><ele>860.5</ele><time>2026-04-24T11:48:52.996Z</time></trkpt><trkpt lat="42.9321081" lon="12.9414234"><ele>860.0</ele><time>2026-04-24T11:48:53.998Z</time></trkpt><trkpt lat="42.9321757" lon="12.9414162"><ele>859.5</ele><time>2026-04-24T11:48:55.009Z</time></trkpt><trkpt lat="42.9322421" lon="12.9414027"><ele>859.0</ele><time>2026-04-24T11:48:55.992Z</time></trkpt><trkpt lat="42.9323508" lon="12.9413941"><ele>858.5</ele><time>2026-04-24T11:48:57.992Z</time></trkpt><trkpt lat="42.9324389" lon="12.9414111"><ele>858.0</ele><time>2026-04-24T11:49:00.001Z</time></trkpt><trkpt lat="42.9325356" lon="12.9414334"><ele>858.3333333333334</ele><time>2026-04-24T11:49:02.019Z</time></trkpt><trkpt lat="42.932602" lon="12.9414578"><ele>858.6666666666667</ele><time>2026-04-24T11:49:03.002Z</time></trkpt><trkpt lat="42.9326695" lon="12.9414734"><ele>859.0</ele><time>2026-04-24T11:49:04.003Z</time></trkpt><trkpt lat="42.9327487" lon="12.9414776"><ele>859.3333333333334</ele><time>2026-04-24T11:49:04.984Z</time></trkpt><trkpt lat="42.9328337" lon="12.941475"><ele>859.6666666666667</ele><time>2026-04-24T11:49:06.006Z</time></trkpt><trkpt lat="42.9329172" lon="12.941466"><ele>860.0</ele><time>2026-04-24T11:49:07.002Z</time></trkpt><trkpt lat="42.9329857" lon="12.9414532"><ele>860.0000000000001</ele><time>2026-04-24T11:49:07.998Z</time></trkpt><trkpt lat="42.9330554" lon="12.9414349"><ele>860.0</ele><time>2026-04-24T11:49:09.006Z</time></trkpt><trkpt lat="42.9331223" lon="12.9414172"><ele>860.0</ele><time>2026-04-24T11:49:09.986Z</time></trkpt><trkpt lat="42.9331871" lon="12.941402"><ele>860.0</ele><time>2026-04-24T11:49:11.008Z</time></trkpt><trkpt lat="42.9333017" lon="12.9413793"><ele>860.0000000000001</ele><time>2026-04-24T11:49:13.024Z</time></trkpt><trkpt lat="42.9334112" lon="12.9413531"><ele>860.0</ele><time>2026-04-24T11:49:15.005Z</time></trkpt><trkpt lat="42.933474" lon="12.9413328"><ele>860.1666666666667</ele><time>2026-04-24T11:49:16.001Z</time></trkpt><trkpt lat="42.9335415" lon="12.9413159"><ele>860.3333333333334</ele><time>2026-04-24T11:49:17.027Z</time></trkpt><trkpt lat="42.933618" lon="12.9413079"><ele>860.5</ele><time>2026-04-24T11:49:17.997Z</time></trkpt><trkpt lat="42.9336893" lon="12.9413067"><ele>860.6666666666667</ele><time>2026-04-24T11:49:19Z</time></trkpt><trkpt lat="42.9337625" lon="12.9413104"><ele>860.8333333333334</ele><time>2026-04-24T11:49:20.02Z</time></trkpt><trkpt lat="42.9338381" lon="12.9413244"><ele>861.0</ele><time>2026-04-24T11:49:20.995Z</time></trkpt><trkpt lat="42.9339237" lon="12.9413416"><ele>861.0</ele><time>2026-04-24T11:49:22.003Z</time></trkpt><trkpt lat="42.9340068" lon="12.9413782"><ele>860.9999999999999</ele><time>2026-04-24T11:49:23.003Z</time></trkpt><trkpt lat="42.9340886" lon="12.9414283"><ele>860.9999999999999</ele><time>2026-04-24T11:49:24.01Z</time></trkpt><trkpt lat="42.9341676" lon="12.9414789"><ele>861.0</ele><time>2026-04-24T11:49:25.011Z</time></trkpt><trkpt lat="42.9342497" lon="12.9415426"><ele>861.0</ele><time>2026-04-24T11:49:26.005Z</time></trkpt><trkpt lat="42.9343328" lon="12.9416148"><ele>860.0</ele><time>2026-04-24T11:49:27.008Z</time></trkpt><trkpt lat="42.934415" lon="12.9416947"><ele>858.9999999999999</ele><time>2026-04-24T11:49:28.008Z</time></trkpt><trkpt lat="42.9345034" lon="12.9417864"><ele>857.9999999999999</ele><time>2026-04-24T11:49:29.022Z</time></trkpt><trkpt lat="42.9345911" lon="12.9418804"><ele>857.0</ele><time>2026-04-24T11:49:29.997Z</time></trkpt><trkpt lat="42.9346764" lon="12.9419607"><ele>856.0</ele><time>2026-04-24T11:49:31.005Z</time></trkpt><trkpt lat="42.9347597" lon="12.9420362"><ele>857.5999999999999</ele><time>2026-04-24T11:49:32.004Z</time></trkpt><trkpt lat="42.9348389" lon="12.9421089"><ele>859.1999999999999</ele><time>2026-04-24T11:49:32.987Z</time></trkpt><trkpt lat="42.9349095" lon="12.9421825"><ele>860.8000000000001</ele><time>2026-04-24T11:49:34.004Z</time></trkpt><trkpt lat="42.934968" lon="12.9422773"><ele>862.4000000000001</ele><time>2026-04-24T11:49:34.995Z</time></trkpt><trkpt lat="42.9350132" lon="12.942395"><ele>864.0</ele><time>2026-04-24T11:49:36.002Z</time></trkpt><trkpt lat="42.935177" lon="12.9428218"><ele>864.0</ele><time>2026-04-24T11:49:39.004Z</time></trkpt><trkpt lat="42.935244" lon="12.9429649"><ele>864.0</ele><time>2026-04-24T11:49:40.004Z</time></trkpt><trkpt lat="42.9353032" lon="12.9431264"><ele>864.0</ele><time>2026-04-24T11:49:41.003Z</time></trkpt><trkpt lat="42.9353615" lon="12.9432963"><ele>864.0</ele><time>2026-04-24T11:49:41.999Z</time></trkpt><trkpt lat="42.9354168" lon="12.9434793"><ele>865.25</ele><time>2026-04-24T11:49:42.982Z</time></trkpt><trkpt lat="42.9354577" lon="12.9436546"><ele>866.5</ele><time>2026-04-24T11:49:44.004Z</time></trkpt><trkpt lat="42.9354928" lon="12.943827"><ele>867.75</ele><time>2026-04-24T11:49:45.017Z</time></trkpt><trkpt lat="42.9355183" lon="12.9439956"><ele>869.0</ele><time>2026-04-24T11:49:46.01Z</time></trkpt><trkpt lat="42.9355368" lon="12.9441752"><ele>872.0</ele><time>2026-04-24T11:49:47.001Z</time></trkpt><trkpt lat="42.9355509" lon="12.9443502"><ele>875.0</ele><time>2026-04-24T11:49:47.999Z</time></trkpt><trkpt lat="42.9355675" lon="12.9445233"><ele>878.0</ele><time>2026-04-24T11:49:49.013Z</time></trkpt><trkpt lat="42.9355866" lon="12.9446784"><ele>881.0</ele><time>2026-04-24T11:49:50.017Z</time></trkpt><trkpt lat="42.9356012" lon="12.9448233"><ele>881.0</ele><time>2026-04-24T11:49:50.996Z</time></trkpt><trkpt lat="42.9356148" lon="12.9449654"><ele>880.9999999999999</ele><time>2026-04-24T11:49:52.002Z</time></trkpt><trkpt lat="42.9356328" lon="12.945114"><ele>880.9999999999999</ele><time>2026-04-24T11:49:53.018Z</time></trkpt><trkpt lat="42.9356559" lon="12.9452533"><ele>881.0</ele><time>2026-04-24T11:49:54.011Z</time></trkpt><trkpt lat="42.9356805" lon="12.9453891"><ele>881.0</ele><time>2026-04-24T11:49:55.002Z</time></trkpt><trkpt lat="42.935703" lon="12.9455248"><ele>882.5999999999999</ele><time>2026-04-24T11:49:55.997Z</time></trkpt><trkpt lat="42.9357204" lon="12.9456614"><ele>884.1999999999999</ele><time>2026-04-24T11:49:56.991Z</time></trkpt><trkpt lat="42.9357405" lon="12.9458033"><ele>885.8000000000001</ele><time>2026-04-24T11:49:58.005Z</time></trkpt><trkpt lat="42.9357546" lon="12.945944"><ele>887.4000000000001</ele><time>2026-04-24T11:49:58.996Z</time></trkpt><trkpt lat="42.9357582" lon="12.9460852"><ele>889.0</ele><time>2026-04-24T11:50:00.02Z</time></trkpt><trkpt lat="42.9357552" lon="12.9462302"><ele>890.6</ele><time>2026-04-24T11:50:01.003Z</time></trkpt><trkpt lat="42.9357549" lon="12.9463815"><ele>892.2</ele><time>2026-04-24T11:50:02.019Z</time></trkpt><trkpt lat="42.9357497" lon="12.9465327"><ele>893.8000000000001</ele><time>2026-04-24T11:50:02.998Z</time></trkpt><trkpt lat="42.9357463" lon="12.9466763"><ele>895.4000000000001</ele><time>2026-04-24T11:50:03.995Z</time></trkpt><trkpt lat="42.93573" lon="12.9468183"><ele>897.0</ele><time>2026-04-24T11:50:05.012Z</time></trkpt><trkpt lat="42.9356857" lon="12.9469398"><ele>898.25</ele><time>2026-04-24T11:50:06.005Z</time></trkpt><trkpt lat="42.9356276" lon="12.9470814"><ele>899.5</ele><time>2026-04-24T11:50:07.003Z</time></trkpt><trkpt lat="42.935575" lon="12.9472242"><ele>900.75</ele><time>2026-04-24T11:50:08.012Z</time></trkpt><trkpt lat="42.9355194" lon="12.9473699"><ele>902.0</ele><time>2026-04-24T11:50:09.02Z</time></trkpt><trkpt lat="42.9354539" lon="12.9475207"><ele>901.5</ele><time>2026-04-24T11:50:09.988Z</time></trkpt><trkpt lat="42.9353629" lon="12.9476775"><ele>901.0</ele><time>2026-04-24T11:50:11.01Z</time></trkpt><trkpt lat="42.9352439" lon="12.9478171"><ele>900.5</ele><time>2026-04-24T11:50:12.018Z</time></trkpt><trkpt lat="42.9351335" lon="12.9479322"><ele>900.0</ele><time>2026-04-24T11:50:13.012Z</time></trkpt><trkpt lat="42.9350482" lon="12.9480107"><ele>900.7142857142858</ele><time>2026-04-24T11:50:14.01Z</time></trkpt><trkpt lat="42.9350034" lon="12.9480727"><ele>901.4285714285714</ele><time>2026-04-24T11:50:16.02Z</time></trkpt><trkpt lat="42.9349462" lon="12.9481687"><ele>902.1428571428571</ele><time>2026-04-24T11:50:31.023Z</time></trkpt><trkpt lat="42.9348928" lon="12.9482216"><ele>902.8571428571429</ele><time>2026-04-24T11:50:32.995Z</time></trkpt><trkpt lat="42.9348312" lon="12.9482495"><ele>903.5714285714284</ele><time>2026-04-24T11:50:33.996Z</time></trkpt><trkpt lat="42.9347708" lon="12.9482769"><ele>904.2857142857142</ele><time>2026-04-24T11:50:35.02Z</time></trkpt><trkpt lat="42.9346892" lon="12.9483211"><ele>905.0</ele><time>2026-04-24T11:50:36.009Z</time></trkpt><trkpt lat="42.9345983" lon="12.9483701"><ele>902.4</ele><time>2026-04-24T11:50:36.988Z</time></trkpt><trkpt lat="42.9345218" lon="12.9484356"><ele>899.8</ele><time>2026-04-24T11:50:37.997Z</time></trkpt><trkpt lat="42.9344631" lon="12.9485164"><ele>897.2</ele><time>2026-04-24T11:50:39.012Z</time></trkpt><trkpt lat="42.9344306" lon="12.9485939"><ele>894.6</ele><time>2026-04-24T11:50:40.006Z</time></trkpt><trkpt lat="42.934392" lon="12.9487288"><ele>892.0</ele><time>2026-04-24T11:50:42.004Z</time></trkpt><trkpt lat="42.9343403" lon="12.948909"><ele>892.0</ele><time>2026-04-24T11:50:44.021Z</time></trkpt><trkpt lat="42.9343109" lon="12.9490199"><ele>892.0</ele><time>2026-04-24T11:50:45Z</time></trkpt><trkpt lat="42.9342697" lon="12.9491368"><ele>892.0</ele><time>2026-04-24T11:50:46.004Z</time></trkpt><trkpt lat="42.9342186" lon="12.9492489"><ele>892.0</ele><time>2026-04-24T11:50:47.021Z</time></trkpt><trkpt lat="42.9341586" lon="12.9493368"><ele>892.0</ele><time>2026-04-24T11:50:48.001Z</time></trkpt><trkpt lat="42.9340774" lon="12.9494093"><ele>893.2</ele><time>2026-04-24T11:50:49.011Z</time></trkpt><trkpt lat="42.9339754" lon="12.9494709"><ele>894.4000000000001</ele><time>2026-04-24T11:50:50.018Z</time></trkpt><trkpt lat="42.9338667" lon="12.9495341"><ele>895.5999999999999</ele><time>2026-04-24T11:50:50.983Z</time></trkpt><trkpt lat="42.933769" lon="12.9496009"><ele>896.8</ele><time>2026-04-24T11:50:52.02Z</time></trkpt><trkpt lat="42.9336894" lon="12.949693"><ele>898.0</ele><time>2026-04-24T11:50:53.016Z</time></trkpt><trkpt lat="42.9336251" lon="12.9498014"><ele>898.0</ele><time>2026-04-24T11:50:54.008Z</time></trkpt><trkpt lat="42.9335852" lon="12.9499192"><ele>898.0</ele><time>2026-04-24T11:50:55.024Z</time></trkpt><trkpt lat="42.9335605" lon="12.9500453"><ele>898.0</ele><time>2026-04-24T11:50:56Z</time></trkpt><trkpt lat="42.9335595" lon="12.9501769"><ele>898.0</ele><time>2026-04-24T11:50:57.002Z</time></trkpt><trkpt lat="42.9335704" lon="12.9503137"><ele>898.0</ele><time>2026-04-24T11:50:58.022Z</time></trkpt><trkpt lat="42.9335836" lon="12.9504556"><ele>898.0</ele><time>2026-04-24T11:50:59.019Z</time></trkpt><trkpt lat="42.9336004" lon="12.9506125"><ele>898.0</ele><time>2026-04-24T11:51:00.013Z</time></trkpt><trkpt lat="42.9336087" lon="12.9507707"><ele>898.0</ele><time>2026-04-24T11:51:01Z</time></trkpt><trkpt lat="42.9336183" lon="12.9509201"><ele>898.0</ele><time>2026-04-24T11:51:01.996Z</time></trkpt><trkpt lat="42.9336347" lon="12.9510546"><ele>898.0</ele><time>2026-04-24T11:51:03.021Z</time></trkpt><trkpt lat="42.9336469" lon="12.9511804"><ele>899.4</ele><time>2026-04-24T11:51:04.001Z</time></trkpt><trkpt lat="42.9336459" lon="12.9512994"><ele>900.8</ele><time>2026-04-24T11:51:04.997Z</time></trkpt><trkpt lat="42.9336214" lon="12.9514231"><ele>902.2</ele><time>2026-04-24T11:51:06.012Z</time></trkpt><trkpt lat="42.93359" lon="12.9515586"><ele>903.6</ele><time>2026-04-24T11:51:07.02Z</time></trkpt><trkpt lat="42.9335733" lon="12.9517091"><ele>905.0</ele><time>2026-04-24T11:51:08.008Z</time></trkpt><trkpt lat="42.9335727" lon="12.9518837"><ele>906.2</ele><time>2026-04-24T11:51:09.012Z</time></trkpt><trkpt lat="42.9335797" lon="12.9520508"><ele>907.4</ele><time>2026-04-24T11:51:09.993Z</time></trkpt><trkpt lat="42.9335848" lon="12.9522078"><ele>908.5999999999999</ele><time>2026-04-24T11:51:11.008Z</time></trkpt><trkpt lat="42.9335798" lon="12.9523458"><ele>909.8</ele><time>2026-04-24T11:51:12.011Z</time></trkpt><trkpt lat="42.9335484" lon="12.9524835"><ele>911.0</ele><time>2026-04-24T11:51:13.01Z</time></trkpt><trkpt lat="42.9335208" lon="12.952604"><ele>912.1666666666667</ele><time>2026-04-24T11:51:14.016Z</time></trkpt><trkpt lat="42.9335131" lon="12.9527115"><ele>913.3333333333334</ele><time>2026-04-24T11:51:15.016Z</time></trkpt><trkpt lat="42.9335294" lon="12.9528171"><ele>914.5</ele><time>2026-04-24T11:51:16Z</time></trkpt><trkpt lat="42.9335533" lon="12.9529188"><ele>915.6666666666667</ele><time>2026-04-24T11:51:17.001Z</time></trkpt><trkpt lat="42.9335698" lon="12.95302"><ele>916.8333333333334</ele><time>2026-04-24T11:51:18.005Z</time></trkpt><trkpt lat="42.9335981" lon="12.9531108"><ele>918.0</ele><time>2026-04-24T11:51:19.014Z</time></trkpt><trkpt lat="42.9336351" lon="12.9531889"><ele>918.0</ele><time>2026-04-24T11:51:20.01Z</time></trkpt><trkpt lat="42.9337012" lon="12.9533078"><ele>918.0</ele><time>2026-04-24T11:51:22.014Z</time></trkpt><trkpt lat="42.9337619" lon="12.9534006"><ele>918.0</ele><time>2026-04-24T11:51:24.007Z</time></trkpt><trkpt lat="42.9338633" lon="12.9534947"><ele>918.0</ele><time>2026-04-24T11:51:26.005Z</time></trkpt><trkpt lat="42.933929" lon="12.9535254"><ele>918.0</ele><time>2026-04-24T11:51:27.003Z</time></trkpt><trkpt lat="42.933993" lon="12.9535336"><ele>918.0</ele><time>2026-04-24T11:51:27.992Z</time></trkpt><trkpt lat="42.9340586" lon="12.9535394"><ele>918.0</ele><time>2026-04-24T11:51:29.009Z</time></trkpt><trkpt lat="42.9341595" lon="12.9535964"><ele>918.0</ele><time>2026-04-24T11:51:31.01Z</time></trkpt><trkpt lat="42.9342555" lon="12.9537247"><ele>918.0</ele><time>2026-04-24T11:51:33.016Z</time></trkpt><trkpt lat="42.93431" lon="12.9537843"><ele>918.0</ele><time>2026-04-24T11:51:33.996Z</time></trkpt><trkpt lat="42.9343859" lon="12.9538851"><ele>918.0</ele><time>2026-04-24T11:51:36.005Z</time></trkpt><trkpt lat="42.934399" lon="12.9540146"><ele>918.0</ele><time>2026-04-24T11:51:38Z</time></trkpt><trkpt lat="42.9343448" lon="12.9541537"><ele>918.0</ele><time>2026-04-24T11:51:40.005Z</time></trkpt><trkpt lat="42.9342989" lon="12.9542409"><ele>918.0</ele><time>2026-04-24T11:51:41.024Z</time></trkpt><trkpt lat="42.9342492" lon="12.9543367"><ele>918.0</ele><time>2026-04-24T11:51:42.014Z</time></trkpt><trkpt lat="42.9342019" lon="12.9544312"><ele>918.3333333333334</ele><time>2026-04-24T11:51:42.994Z</time></trkpt><trkpt lat="42.9341708" lon="12.9545301"><ele>918.6666666666667</ele><time>2026-04-24T11:51:44Z</time></trkpt><trkpt lat="42.9341806" lon="12.9546917"><ele>919.0</ele><time>2026-04-24T11:51:46.006Z</time></trkpt><trkpt lat="42.9342247" lon="12.9547684"><ele>919.3333333333334</ele><time>2026-04-24T11:51:47.02Z</time></trkpt><trkpt lat="42.9342733" lon="12.9548562"><ele>919.6666666666667</ele><time>2026-04-24T11:51:48.011Z</time></trkpt><trkpt lat="42.9343267" lon="12.9549406"><ele>920.0</ele><time>2026-04-24T11:51:48.997Z</time></trkpt><trkpt lat="42.9343837" lon="12.9550155"><ele>920.3333333333334</ele><time>2026-04-24T11:51:50.001Z</time></trkpt><trkpt lat="42.9344387" lon="12.9550866"><ele>920.6666666666667</ele><time>2026-04-24T11:51:51.003Z</time></trkpt><trkpt lat="42.9344998" lon="12.9551643"><ele>921.0</ele><time>2026-04-24T11:51:52.002Z</time></trkpt><trkpt lat="42.9345606" lon="12.9552442"><ele>921.3333333333333</ele><time>2026-04-24T11:51:53.009Z</time></trkpt><trkpt lat="42.934622" lon="12.955322"><ele>921.6666666666666</ele><time>2026-04-24T11:51:54Z</time></trkpt><trkpt lat="42.9346773" lon="12.9554128"><ele>922.0</ele><time>2026-04-24T11:51:54.992Z</time></trkpt><trkpt lat="42.934742" lon="12.9555026"><ele>921.9999999999999</ele><time>2026-04-24T11:51:56.005Z</time></trkpt><trkpt lat="42.9348051" lon="12.9555902"><ele>922.0</ele><time>2026-04-24T11:51:56.994Z</time></trkpt><trkpt lat="42.9348667" lon="12.9556761"><ele>922.0</ele><time>2026-04-24T11:51:58.001Z</time></trkpt><trkpt lat="42.9349241" lon="12.9557588"><ele>922.0</ele><time>2026-04-24T11:51:59.008Z</time></trkpt><trkpt lat="42.9349757" lon="12.9558382"><ele>921.9999999999999</ele><time>2026-04-24T11:52:00.017Z</time></trkpt><trkpt lat="42.9350289" lon="12.9559184"><ele>922.0</ele><time>2026-04-24T11:52:00.996Z</time></trkpt><trkpt lat="42.9350866" lon="12.9559972"><ele>923.1666666666666</ele><time>2026-04-24T11:52:01.994Z</time></trkpt><trkpt lat="42.9351399" lon="12.9560769"><ele>924.3333333333333</ele><time>2026-04-24T11:52:02.998Z</time></trkpt><trkpt lat="42.9351893" lon="12.9561602"><ele>925.5</ele><time>2026-04-24T11:52:04.021Z</time></trkpt><trkpt lat="42.9352384" lon="12.9562354"><ele>926.6666666666667</ele><time>2026-04-24T11:52:05.006Z</time></trkpt><trkpt lat="42.9352894" lon="12.9563665"><ele>927.8333333333334</ele><time>2026-04-24T11:52:07.005Z</time></trkpt><trkpt lat="42.9352907" lon="12.9564778"><ele>929.0</ele><time>2026-04-24T11:52:09.983Z</time></trkpt><trkpt lat="42.9352295" lon="12.9565362"><ele>929.0</ele><time>2026-04-24T11:52:12.009Z</time></trkpt><trkpt lat="42.9351289" lon="12.9566403"><ele>929.0000000000001</ele><time>2026-04-24T11:52:13.994Z</time></trkpt><trkpt lat="42.9350651" lon="12.9567118"><ele>929.0000000000001</ele><time>2026-04-24T11:52:15.006Z</time></trkpt><trkpt lat="42.9349926" lon="12.956802"><ele>929.0</ele><time>2026-04-24T11:52:16.004Z</time></trkpt><trkpt lat="42.9349083" lon="12.9568836"><ele>929.0</ele><time>2026-04-24T11:52:17.013Z</time></trkpt><trkpt lat="42.9348216" lon="12.9569352"><ele>930.25</ele><time>2026-04-24T11:52:18.016Z</time></trkpt><trkpt lat="42.9347276" lon="12.9569364"><ele>931.5</ele><time>2026-04-24T11:52:18.999Z</time></trkpt><trkpt lat="42.934619" lon="12.9569038"><ele>932.75</ele><time>2026-04-24T11:52:20.006Z</time></trkpt><trkpt lat="42.9345104" lon="12.956838"><ele>934.0</ele><time>2026-04-24T11:52:21.013Z</time></trkpt><trkpt lat="42.9343899" lon="12.9567633"><ele>934.3333333333333</ele><time>2026-04-24T11:52:22.013Z</time></trkpt><trkpt lat="42.934251" lon="12.9566824"><ele>934.6666666666667</ele><time>2026-04-24T11:52:23.007Z</time></trkpt><trkpt lat="42.9341078" lon="12.956597"><ele>935.0</ele><time>2026-04-24T11:52:23.999Z</time></trkpt><trkpt lat="42.9339659" lon="12.9565115"><ele>935.0</ele><time>2026-04-24T11:52:25.017Z</time></trkpt><trkpt lat="42.9338242" lon="12.9564334"><ele>935.0</ele><time>2026-04-24T11:52:26.009Z</time></trkpt><trkpt lat="42.9336906" lon="12.956364"><ele>935.0</ele><time>2026-04-24T11:52:27Z</time></trkpt><trkpt lat="42.9335595" lon="12.9562925"><ele>935.0</ele><time>2026-04-24T11:52:28.019Z</time></trkpt><trkpt lat="42.9334292" lon="12.9562192"><ele>937.75</ele><time>2026-04-24T11:52:29.022Z</time></trkpt><trkpt lat="42.9332985" lon="12.9561437"><ele>940.5</ele><time>2026-04-24T11:52:30.025Z</time></trkpt><trkpt lat="42.9331762" lon="12.9560611"><ele>943.25</ele><time>2026-04-24T11:52:30.996Z</time></trkpt><trkpt lat="42.9330702" lon="12.95599"><ele>946.0</ele><time>2026-04-24T11:52:32.006Z</time></trkpt><trkpt lat="42.9329799" lon="12.955931"><ele>945.9999999999999</ele><time>2026-04-24T11:52:33.015Z</time></trkpt><trkpt lat="42.9328983" lon="12.9559093"><ele>946.0</ele><time>2026-04-24T11:52:34.011Z</time></trkpt><trkpt lat="42.9328321" lon="12.9559465"><ele>946.0</ele><time>2026-04-24T11:52:34.989Z</time></trkpt><trkpt lat="42.9327958" lon="12.9560279"><ele>946.0</ele><time>2026-04-24T11:52:36.01Z</time></trkpt><trkpt lat="42.9327983" lon="12.9561333"><ele>945.9999999999999</ele><time>2026-04-24T11:52:37.02Z</time></trkpt><trkpt lat="42.9328478" lon="12.9562476"><ele>946.0</ele><time>2026-04-24T11:52:38.002Z</time></trkpt><trkpt lat="42.9329056" lon="12.9563852"><ele>946.0</ele><time>2026-04-24T11:52:39.004Z</time></trkpt><trkpt lat="42.9329659" lon="12.9565314"><ele>946.0</ele><time>2026-04-24T11:52:40.007Z</time></trkpt><trkpt lat="42.9330384" lon="12.9566969"><ele>946.0</ele><time>2026-04-24T11:52:41.017Z</time></trkpt><trkpt lat="42.9331184" lon="12.9568917"><ele>946.0</ele><time>2026-04-24T11:52:42.006Z</time></trkpt><trkpt lat="42.9332024" lon="12.9571037"><ele>946.0</ele><time>2026-04-24T11:52:43.019Z</time></trkpt><trkpt lat="42.9332845" lon="12.9573247"><ele>946.0</ele><time>2026-04-24T11:52:44.013Z</time></trkpt><trkpt lat="42.9333503" lon="12.957545"><ele>946.0</ele><time>2026-04-24T11:52:45.016Z</time></trkpt><trkpt lat="42.9333972" lon="12.9577547"><ele>946.0</ele><time>2026-04-24T11:52:46.009Z</time></trkpt><trkpt lat="42.9334429" lon="12.9579662"><ele>946.0</ele><time>2026-04-24T11:52:47.015Z</time></trkpt><trkpt lat="42.9334867" lon="12.9581663"><ele>946.0</ele><time>2026-04-24T11:52:48.02Z</time></trkpt><trkpt lat="42.9335262" lon="12.9583433"><ele>947.0</ele><time>2026-04-24T11:52:48.996Z</time></trkpt><trkpt lat="42.9335578" lon="12.9585057"><ele>948.0</ele><time>2026-04-24T11:52:49.992Z</time></trkpt><trkpt lat="42.9335836" lon="12.9586732"><ele>949.0</ele><time>2026-04-24T11:52:51.019Z</time></trkpt><trkpt lat="42.9336002" lon="12.958837"><ele>950.0</ele><time>2026-04-24T11:52:51.996Z</time></trkpt><trkpt lat="42.9336087" lon="12.9590107"><ele>950.0</ele><time>2026-04-24T11:52:53.011Z</time></trkpt><trkpt lat="42.9336018" lon="12.9591866"><ele>950.0</ele><time>2026-04-24T11:52:54.008Z</time></trkpt><trkpt lat="42.9335824" lon="12.9593599"><ele>950.0</ele><time>2026-04-24T11:52:55.014Z</time></trkpt><trkpt lat="42.933559" lon="12.959529"><ele>950.0</ele><time>2026-04-24T11:52:55.993Z</time></trkpt><trkpt lat="42.9335298" lon="12.959693"><ele>951.6</ele><time>2026-04-24T11:52:57.018Z</time></trkpt><trkpt lat="42.933501" lon="12.9598451"><ele>953.2</ele><time>2026-04-24T11:52:58.013Z</time></trkpt><trkpt lat="42.9334693" lon="12.9599787"><ele>954.8</ele><time>2026-04-24T11:52:59.003Z</time></trkpt><trkpt lat="42.9334284" lon="12.9601069"><ele>956.4</ele><time>2026-04-24T11:53:00.008Z</time></trkpt><trkpt lat="42.9333723" lon="12.9602315"><ele>958.0</ele><time>2026-04-24T11:53:01.014Z</time></trkpt><trkpt lat="42.9333133" lon="12.9603514"><ele>962.0</ele><time>2026-04-24T11:53:02.022Z</time></trkpt><trkpt lat="42.9332459" lon="12.9604805"><ele>966.0</ele><time>2026-04-24T11:53:03.013Z</time></trkpt><trkpt lat="42.9331771" lon="12.9606081"><ele>970.0</ele><time>2026-04-24T11:53:03.996Z</time></trkpt><trkpt lat="42.9331023" lon="12.960737"><ele>974.0</ele><time>2026-04-24T11:53:05.011Z</time></trkpt><trkpt lat="42.9330202" lon="12.9608626"><ele>975.5</ele><time>2026-04-24T11:53:05.977Z</time></trkpt><trkpt lat="42.9329368" lon="12.960995"><ele>977.0</ele><time>2026-04-24T11:53:07.019Z</time></trkpt><trkpt lat="42.9328606" lon="12.9611353"><ele>978.5</ele><time>2026-04-24T11:53:07.987Z</time></trkpt><trkpt lat="42.9328137" lon="12.9612861"><ele>980.0</ele><time>2026-04-24T11:53:09.005Z</time></trkpt><trkpt lat="42.9328033" lon="12.961453"><ele>980.0</ele><time>2026-04-24T11:53:09.979Z</time></trkpt><trkpt lat="42.9328187" lon="12.9616223"><ele>980.0</ele><time>2026-04-24T11:53:11.018Z</time></trkpt><trkpt lat="42.9328505" lon="12.9617874"><ele>980.0</ele><time>2026-04-24T11:53:12.003Z</time></trkpt><trkpt lat="42.9328754" lon="12.9619447"><ele>980.0</ele><time>2026-04-24T11:53:13.005Z</time></trkpt><trkpt lat="42.9328866" lon="12.9621033"><ele>982.6</ele><time>2026-04-24T11:53:14.024Z</time></trkpt><trkpt lat="42.9328831" lon="12.962261"><ele>985.2</ele><time>2026-04-24T11:53:15.021Z</time></trkpt><trkpt lat="42.932856" lon="12.9624126"><ele>987.8</ele><time>2026-04-24T11:53:16.006Z</time></trkpt><trkpt lat="42.9327924" lon="12.9625378"><ele>990.4</ele><time>2026-04-24T11:53:17.008Z</time></trkpt><trkpt lat="42.9327182" lon="12.9626413"><ele>993.0</ele><time>2026-04-24T11:53:18.012Z</time></trkpt><trkpt lat="42.9326308" lon="12.9627341"><ele>995.5</ele><time>2026-04-24T11:53:19.015Z</time></trkpt><trkpt lat="42.9325359" lon="12.962825"><ele>998.0</ele><time>2026-04-24T11:53:19.988Z</time></trkpt><trkpt lat="42.9324395" lon="12.9629103"><ele>1000.5</ele><time>2026-04-24T11:53:21.013Z</time></trkpt><trkpt lat="42.9323264" lon="12.9629969"><ele>1003.0</ele><time>2026-04-24T11:53:22.018Z</time></trkpt><trkpt lat="42.9321985" lon="12.9630877"><ele>1003.0</ele><time>2026-04-24T11:53:23.02Z</time></trkpt><trkpt lat="42.9320523" lon="12.9631676"><ele>1003.0</ele><time>2026-04-24T11:53:23.994Z</time></trkpt><trkpt lat="42.9318924" lon="12.9632422"><ele>1003.0</ele><time>2026-04-24T11:53:25.013Z</time></trkpt><trkpt lat="42.9317191" lon="12.9633121"><ele>1006.6666666666666</ele><time>2026-04-24T11:53:25.981Z</time></trkpt><trkpt lat="42.931528" lon="12.9633883"><ele>1010.3333333333333</ele><time>2026-04-24T11:53:27.013Z</time></trkpt><trkpt lat="42.9313428" lon="12.9634597"><ele>1014.0</ele><time>2026-04-24T11:53:27.998Z</time></trkpt><trkpt lat="42.9311637" lon="12.9635301"><ele>1014.0</ele><time>2026-04-24T11:53:28.999Z</time></trkpt><trkpt lat="42.9310136" lon="12.963592"><ele>1014.0</ele><time>2026-04-24T11:53:30.008Z</time></trkpt><trkpt lat="42.9308709" lon="12.9636031"><ele>1014.0</ele><time>2026-04-24T11:53:31.019Z</time></trkpt><trkpt lat="42.9307302" lon="12.9635664"><ele>1014.0</ele><time>2026-04-24T11:53:31.992Z</time></trkpt><trkpt lat="42.9306116" lon="12.9634499"><ele>1012.3333333333333</ele><time>2026-04-24T11:53:33.002Z</time></trkpt><trkpt lat="42.9305123" lon="12.9633053"><ele>1010.6666666666666</ele><time>2026-04-24T11:53:34Z</time></trkpt><trkpt lat="42.9304075" lon="12.9631319"><ele>1009.0</ele><time>2026-04-24T11:53:34.996Z</time></trkpt><trkpt lat="42.9302892" lon="12.9629512"><ele>1009.0</ele><time>2026-04-24T11:53:36.009Z</time></trkpt><trkpt lat="42.9301524" lon="12.9627711"><ele>1009.0</ele><time>2026-04-24T11:53:37.016Z</time></trkpt><trkpt lat="42.9300121" lon="12.9626303"><ele>1009.0</ele><time>2026-04-24T11:53:38.006Z</time></trkpt><trkpt lat="42.9298741" lon="12.9625352"><ele>1012.0</ele><time>2026-04-24T11:53:38.985Z</time></trkpt><trkpt lat="42.929607" lon="12.9624231"><ele>1015.0</ele><time>2026-04-24T11:53:40.999Z</time></trkpt><trkpt lat="42.9294814" lon="12.9623796"><ele>1018.0</ele><time>2026-04-24T11:53:42.016Z</time></trkpt><trkpt lat="42.9293582" lon="12.9623422"><ele>1018.0</ele><time>2026-04-24T11:53:43Z</time></trkpt><trkpt lat="42.929247" lon="12.9623077"><ele>1018.0</ele><time>2026-04-24T11:53:44.002Z</time></trkpt><trkpt lat="42.9291525" lon="12.9623054"><ele>1018.0</ele><time>2026-04-24T11:53:45.015Z</time></trkpt><trkpt lat="42.9290765" lon="12.9623485"><ele>1018.0</ele><time>2026-04-24T11:53:45.998Z</time></trkpt><trkpt lat="42.9290338" lon="12.9624279"><ele>1018.0</ele><time>2026-04-24T11:53:46.998Z</time></trkpt><trkpt lat="42.9290528" lon="12.9626209"><ele>1019.0</ele><time>2026-04-24T11:53:49.018Z</time></trkpt><trkpt lat="42.9291058" lon="12.9627388"><ele>1020.0</ele><time>2026-04-24T11:53:50.007Z</time></trkpt><trkpt lat="42.929166" lon="12.9628732"><ele>1021.0</ele><time>2026-04-24T11:53:51.006Z</time></trkpt><trkpt lat="42.92923" lon="12.9630231"><ele>1022.0</ele><time>2026-04-24T11:53:52.012Z</time></trkpt><trkpt lat="42.9292875" lon="12.9631947"><ele>1023.3333333333334</ele><time>2026-04-24T11:53:53.014Z</time></trkpt><trkpt lat="42.929341" lon="12.963395"><ele>1024.6666666666667</ele><time>2026-04-24T11:53:54.01Z</time></trkpt><trkpt lat="42.9293594" lon="12.9636175"><ele>1026.0</ele><time>2026-04-24T11:53:55.018Z</time></trkpt><trkpt lat="42.9293619" lon="12.9638603"><ele>1026.0</ele><time>2026-04-24T11:53:56.01Z</time></trkpt><trkpt lat="42.9293383" lon="12.964125"><ele>1026.0</ele><time>2026-04-24T11:53:57.009Z</time></trkpt><trkpt lat="42.9293074" lon="12.9644109"><ele>1026.0</ele><time>2026-04-24T11:53:58.006Z</time></trkpt><trkpt lat="42.929282" lon="12.9646988"><ele>1028.3333333333333</ele><time>2026-04-24T11:53:59.016Z</time></trkpt><trkpt lat="42.9292533" lon="12.9649666"><ele>1030.6666666666665</ele><time>2026-04-24T11:53:59.995Z</time></trkpt><trkpt lat="42.9292171" lon="12.9651901"><ele>1033.0</ele><time>2026-04-24T11:54:01.004Z</time></trkpt><trkpt lat="42.9291792" lon="12.9653674"><ele>1035.2</ele><time>2026-04-24T11:54:02.021Z</time></trkpt><trkpt lat="42.9291447" lon="12.9655125"><ele>1037.4</ele><time>2026-04-24T11:54:03.003Z</time></trkpt><trkpt lat="42.9291151" lon="12.9656359"><ele>1039.6000000000001</ele><time>2026-04-24T11:54:04.011Z</time></trkpt><trkpt lat="42.9291065" lon="12.9657367"><ele>1041.8</ele><time>2026-04-24T11:54:05.002Z</time></trkpt><trkpt lat="42.9291619" lon="12.9658628"><ele>1044.0</ele><time>2026-04-24T11:54:07.01Z</time></trkpt><trkpt lat="42.9292365" lon="12.9659745"><ele>1045.8</ele><time>2026-04-24T11:54:09.013Z</time></trkpt><trkpt lat="42.9292974" lon="12.9660525"><ele>1047.6000000000001</ele><time>2026-04-24T11:54:09.989Z</time></trkpt><trkpt lat="42.9293701" lon="12.9661379"><ele>1049.4</ele><time>2026-04-24T11:54:11.003Z</time></trkpt><trkpt lat="42.9294493" lon="12.966217"><ele>1051.2</ele><time>2026-04-24T11:54:11.998Z</time></trkpt><trkpt lat="42.9295366" lon="12.966293"><ele>1053.0</ele><time>2026-04-24T11:54:13.005Z</time></trkpt><trkpt lat="42.9296259" lon="12.9663792"><ele>1053.0</ele><time>2026-04-24T11:54:14.008Z</time></trkpt><trkpt lat="42.929714" lon="12.9664716"><ele>1053.0</ele><time>2026-04-24T11:54:14.996Z</time></trkpt><trkpt lat="42.9298023" lon="12.9665616"><ele>1053.0</ele><time>2026-04-24T11:54:15.997Z</time></trkpt><trkpt lat="42.9298871" lon="12.9666399"><ele>1053.0</ele><time>2026-04-24T11:54:17.006Z</time></trkpt><trkpt lat="42.9299585" lon="12.9667061"><ele>1053.0</ele><time>2026-04-24T11:54:18.006Z</time></trkpt><trkpt lat="42.9300288" lon="12.9667561"><ele>1058.2</ele><time>2026-04-24T11:54:19.001Z</time></trkpt><trkpt lat="42.9301078" lon="12.9667735"><ele>1063.4</ele><time>2026-04-24T11:54:20.006Z</time></trkpt><trkpt lat="42.9301964" lon="12.9667677"><ele>1068.6000000000001</ele><time>2026-04-24T11:54:21.007Z</time></trkpt><trkpt lat="42.9302962" lon="12.9667534"><ele>1073.8</ele><time>2026-04-24T11:54:22.011Z</time></trkpt><trkpt lat="42.9303918" lon="12.9667413"><ele>1079.0</ele><time>2026-04-24T11:54:22.998Z</time></trkpt><trkpt lat="42.9304776" lon="12.9667325"><ele>1079.0</ele><time>2026-04-24T11:54:24.003Z</time></trkpt><trkpt lat="42.9305672" lon="12.9667309"><ele>1079.0</ele><time>2026-04-24T11:54:24.995Z</time></trkpt><trkpt lat="42.9306713" lon="12.9667328"><ele>1079.0</ele><time>2026-04-24T11:54:25.995Z</time></trkpt><trkpt lat="42.9307729" lon="12.9667298"><ele>1079.0</ele><time>2026-04-24T11:54:26.997Z</time></trkpt><trkpt lat="42.93087" lon="12.9667129"><ele>1079.0</ele><time>2026-04-24T11:54:28.012Z</time></trkpt><trkpt lat="42.9309457" lon="12.9666765"><ele>1079.0</ele><time>2026-04-24T11:54:29.007Z</time></trkpt><trkpt lat="42.9310105" lon="12.9666343"><ele>1079.0</ele><time>2026-04-24T11:54:29.986Z</time></trkpt><trkpt lat="42.9310956" lon="12.9665419"><ele>1079.0</ele><time>2026-04-24T11:54:32.017Z</time></trkpt><trkpt lat="42.9311581" lon="12.9664503"><ele>1079.0</ele><time>2026-04-24T11:54:33.996Z</time></trkpt><trkpt lat="42.9312059" lon="12.9663622"><ele>1079.0</ele><time>2026-04-24T11:54:36.004Z</time></trkpt><trkpt lat="42.9312538" lon="12.966252"><ele>1079.0</ele><time>2026-04-24T11:54:38.002Z</time></trkpt><trkpt lat="42.9312934" lon="12.9661721"><ele>1079.0</ele><time>2026-04-24T11:54:38.999Z</time></trkpt><trkpt lat="42.9313331" lon="12.9660878"><ele>1079.0</ele><time>2026-04-24T11:54:40.002Z</time></trkpt><trkpt lat="42.9313755" lon="12.9660117"><ele>1079.0</ele><time>2026-04-24T11:54:41.009Z</time></trkpt><trkpt lat="42.9314678" lon="12.9659157"><ele>1079.0</ele><time>2026-04-24T11:54:42.998Z</time></trkpt><trkpt lat="42.9315291" lon="12.9658848"><ele>1079.0</ele><time>2026-04-24T11:54:43.982Z</time></trkpt><trkpt lat="42.9316052" lon="12.9658632"><ele>1079.0</ele><time>2026-04-24T11:54:44.997Z</time></trkpt><trkpt lat="42.9316894" lon="12.9658447"><ele>1076.8333333333335</ele><time>2026-04-24T11:54:46.01Z</time></trkpt><trkpt lat="42.9317767" lon="12.9658335"><ele>1074.6666666666667</ele><time>2026-04-24T11:54:47.013Z</time></trkpt><trkpt lat="42.931861" lon="12.9658272"><ele>1072.5</ele><time>2026-04-24T11:54:48.002Z</time></trkpt><trkpt lat="42.9319479" lon="12.9658238"><ele>1070.3333333333333</ele><time>2026-04-24T11:54:49.006Z</time></trkpt><trkpt lat="42.9320356" lon="12.9658292"><ele>1068.1666666666665</ele><time>2026-04-24T11:54:49.997Z</time></trkpt><trkpt lat="42.9321274" lon="12.9658396"><ele>1066.0</ele><time>2026-04-24T11:54:51.003Z</time></trkpt><trkpt lat="42.9322307" lon="12.9658613"><ele>1070.3999999999999</ele><time>2026-04-24T11:54:51.998Z</time></trkpt><trkpt lat="42.9323358" lon="12.9658833"><ele>1074.8</ele><time>2026-04-24T11:54:53.009Z</time></trkpt><trkpt lat="42.9324293" lon="12.9659193"><ele>1079.1999999999998</ele><time>2026-04-24T11:54:53.997Z</time></trkpt><trkpt lat="42.9325264" lon="12.9659419"><ele>1083.6</ele><time>2026-04-24T11:54:55.007Z</time></trkpt><trkpt lat="42.9326271" lon="12.9659457"><ele>1088.0</ele><time>2026-04-24T11:54:55.996Z</time></trkpt><trkpt lat="42.9327334" lon="12.9659414"><ele>1089.4</ele><time>2026-04-24T11:54:56.985Z</time></trkpt><trkpt lat="42.9328322" lon="12.965929"><ele>1090.8</ele><time>2026-04-24T11:54:58.001Z</time></trkpt><trkpt lat="42.9329191" lon="12.9659191"><ele>1092.2</ele><time>2026-04-24T11:54:58.993Z</time></trkpt><trkpt lat="42.9330241" lon="12.9659177"><ele>1093.6</ele><time>2026-04-24T11:55:00.004Z</time></trkpt><trkpt lat="42.933137" lon="12.9659225"><ele>1095.0</ele><time>2026-04-24T11:55:01Z</time></trkpt><trkpt lat="42.9332326" lon="12.9659048"><ele>1095.0</ele><time>2026-04-24T11:55:02.014Z</time></trkpt><trkpt lat="42.9333171" lon="12.9658721"><ele>1095.0</ele><time>2026-04-24T11:55:03.01Z</time></trkpt><trkpt lat="42.9334039" lon="12.9658201"><ele>1095.0</ele><time>2026-04-24T11:55:04.001Z</time></trkpt><trkpt lat="42.933499" lon="12.9657746"><ele>1095.0</ele><time>2026-04-24T11:55:05.008Z</time></trkpt><trkpt lat="42.9335858" lon="12.9657354"><ele>1095.0</ele><time>2026-04-24T11:55:06.015Z</time></trkpt><trkpt lat="42.9336766" lon="12.9657118"><ele>1093.2</ele><time>2026-04-24T11:55:07.007Z</time></trkpt><trkpt lat="42.9337747" lon="12.9656851"><ele>1091.4</ele><time>2026-04-24T11:55:07.992Z</time></trkpt><trkpt lat="42.9338685" lon="12.9656539"><ele>1089.6</ele><time>2026-04-24T11:55:09.02Z</time></trkpt><trkpt lat="42.9339575" lon="12.96564"><ele>1087.8</ele><time>2026-04-24T11:55:09.99Z</time></trkpt><trkpt lat="42.9340509" lon="12.9656389"><ele>1086.0</ele><time>2026-04-24T11:55:11Z</time></trkpt><trkpt lat="42.934151" lon="12.965648"><ele>1087.8333333333333</ele><time>2026-04-24T11:55:12.005Z</time></trkpt><trkpt lat="42.9342476" lon="12.9656675"><ele>1089.6666666666667</ele><time>2026-04-24T11:55:13.027Z</time></trkpt><trkpt lat="42.9343394" lon="12.9656887"><ele>1091.5</ele><time>2026-04-24T11:55:13.993Z</time></trkpt><trkpt lat="42.934429" lon="12.9657124"><ele>1093.3333333333335</ele><time>2026-04-24T11:55:15.01Z</time></trkpt><trkpt lat="42.9345059" lon="12.9657428"><ele>1095.1666666666667</ele><time>2026-04-24T11:55:15.999Z</time></trkpt><trkpt lat="42.9345778" lon="12.9657942"><ele>1097.0</ele><time>2026-04-24T11:55:17.007Z</time></trkpt><trkpt lat="42.934653" lon="12.9658636"><ele>1097.8</ele><time>2026-04-24T11:55:18.002Z</time></trkpt><trkpt lat="42.934723" lon="12.9659531"><ele>1098.6</ele><time>2026-04-24T11:55:19.016Z</time></trkpt><trkpt lat="42.9347854" lon="12.9660507"><ele>1099.3999999999999</ele><time>2026-04-24T11:55:20.014Z</time></trkpt><trkpt lat="42.934838" lon="12.9661486"><ele>1100.2</ele><time>2026-04-24T11:55:20.99Z</time></trkpt><trkpt lat="42.934887" lon="12.9662514"><ele>1101.0</ele><time>2026-04-24T11:55:22.002Z</time></trkpt><trkpt lat="42.9349438" lon="12.9663633"><ele>1101.0</ele><time>2026-04-24T11:55:23.002Z</time></trkpt><trkpt lat="42.9350024" lon="12.9664796"><ele>1101.0</ele><time>2026-04-24T11:55:24.013Z</time></trkpt><trkpt lat="42.9350563" lon="12.9665953"><ele>1101.0</ele><time>2026-04-24T11:55:25.001Z</time></trkpt><trkpt lat="42.9351002" lon="12.9667206"><ele>1101.0</ele><time>2026-04-24T11:55:26.004Z</time></trkpt><trkpt lat="42.935145" lon="12.966842"><ele>1101.0</ele><time>2026-04-24T11:55:26.998Z</time></trkpt><trkpt lat="42.935201" lon="12.9669389"><ele>1102.6</ele><time>2026-04-24T11:55:28.011Z</time></trkpt><trkpt lat="42.9352793" lon="12.9670199"><ele>1104.1999999999998</ele><time>2026-04-24T11:55:28.99Z</time></trkpt><trkpt lat="42.9353636" lon="12.9671012"><ele>1105.8000000000002</ele><time>2026-04-24T11:55:29.991Z</time></trkpt><trkpt lat="42.9354404" lon="12.9671924"><ele>1107.4</ele><time>2026-04-24T11:55:31Z</time></trkpt><trkpt lat="42.9355116" lon="12.9672956"><ele>1109.0</ele><time>2026-04-24T11:55:32.001Z</time></trkpt><trkpt lat="42.9355795" lon="12.9674147"><ele>1108.75</ele><time>2026-04-24T11:55:32.998Z</time></trkpt><trkpt lat="42.9356468" lon="12.9675499"><ele>1108.5</ele><time>2026-04-24T11:55:34.004Z</time></trkpt><trkpt lat="42.9357017" lon="12.9676913"><ele>1108.25</ele><time>2026-04-24T11:55:35.004Z</time></trkpt><trkpt lat="42.9357368" lon="12.9678382"><ele>1108.0</ele><time>2026-04-24T11:55:36.005Z</time></trkpt><trkpt lat="42.9357607" lon="12.9679793"><ele>1108.0</ele><time>2026-04-24T11:55:36.998Z</time></trkpt><trkpt lat="42.9357763" lon="12.9681109"><ele>1108.0</ele><time>2026-04-24T11:55:38.001Z</time></trkpt><trkpt lat="42.9357905" lon="12.9682437"><ele>1108.0</ele><time>2026-04-24T11:55:38.997Z</time></trkpt><trkpt lat="42.9357848" lon="12.9683782"><ele>1108.0</ele><time>2026-04-24T11:55:39.993Z</time></trkpt><trkpt lat="42.9357711" lon="12.9685208"><ele>1108.0</ele><time>2026-04-24T11:55:40.999Z</time></trkpt><trkpt lat="42.9357612" lon="12.9686756"><ele>1108.0</ele><time>2026-04-24T11:55:42.005Z</time></trkpt><trkpt lat="42.9357659" lon="12.9688395"><ele>1108.0</ele><time>2026-04-24T11:55:43.024Z</time></trkpt><trkpt lat="42.9357745" lon="12.9689898"><ele>1108.0</ele><time>2026-04-24T11:55:44.015Z</time></trkpt><trkpt lat="42.9357771" lon="12.9691142"><ele>1108.0</ele><time>2026-04-24T11:55:45.004Z</time></trkpt><trkpt lat="42.93578" lon="12.9692209"><ele>1108.0</ele><time>2026-04-24T11:55:46.029Z</time></trkpt><trkpt lat="42.935788" lon="12.9693189"><ele>1108.8</ele><time>2026-04-24T11:55:47.015Z</time></trkpt><trkpt lat="42.9358146" lon="12.9694776"><ele>1109.6</ele><time>2026-04-24T11:55:49.016Z</time></trkpt><trkpt lat="42.9358223" lon="12.9695662"><ele>1110.4</ele><time>2026-04-24T11:55:50.017Z</time></trkpt><trkpt lat="42.935843" lon="12.969666"><ele>1111.2</ele><time>2026-04-24T11:55:51.007Z</time></trkpt><trkpt lat="42.9358842" lon="12.9697894"><ele>1112.0</ele><time>2026-04-24T11:55:52.005Z</time></trkpt><trkpt lat="42.9359226" lon="12.969925"><ele>1109.2</ele><time>2026-04-24T11:55:53.02Z</time></trkpt><trkpt lat="42.9359599" lon="12.9700637"><ele>1106.4</ele><time>2026-04-24T11:55:54.015Z</time></trkpt><trkpt lat="42.9359956" lon="12.9701949"><ele>1103.6</ele><time>2026-04-24T11:55:55.015Z</time></trkpt><trkpt lat="42.9360359" lon="12.970304"><ele>1100.8</ele><time>2026-04-24T11:55:55.996Z</time></trkpt><trkpt lat="42.9360953" lon="12.9704067"><ele>1098.0</ele><time>2026-04-24T11:55:57.008Z</time></trkpt><trkpt lat="42.9361573" lon="12.9705193"><ele>1098.0</ele><time>2026-04-24T11:55:58.002Z</time></trkpt><trkpt lat="42.9362182" lon="12.97063"><ele>1098.0</ele><time>2026-04-24T11:55:58.999Z</time></trkpt><trkpt lat="42.9362834" lon="12.9707341"><ele>1098.0</ele><time>2026-04-24T11:55:59.985Z</time></trkpt><trkpt lat="42.936353" lon="12.9708341"><ele>1098.0</ele><time>2026-04-24T11:56:00.998Z</time></trkpt><trkpt lat="42.93642" lon="12.9709147"><ele>1098.0</ele><time>2026-04-24T11:56:01.994Z</time></trkpt><trkpt lat="42.9365117" lon="12.970976"><ele>1099.8</ele><time>2026-04-24T11:56:02.99Z</time></trkpt><trkpt lat="42.9366319" lon="12.9710201"><ele>1101.6</ele><time>2026-04-24T11:56:04Z</time></trkpt><trkpt lat="42.936736" lon="12.9710594"><ele>1103.4</ele><time>2026-04-24T11:56:05.007Z</time></trkpt><trkpt lat="42.9368272" lon="12.9711026"><ele>1105.2</ele><time>2026-04-24T11:56:05.995Z</time></trkpt><trkpt lat="42.9369129" lon="12.9711535"><ele>1107.0</ele><time>2026-04-24T11:56:06.995Z</time></trkpt><trkpt lat="42.9369889" lon="12.9712218"><ele>1107.0</ele><time>2026-04-24T11:56:07.999Z</time></trkpt><trkpt lat="42.9370591" lon="12.9713038"><ele>1107.0</ele><time>2026-04-24T11:56:09.025Z</time></trkpt><trkpt lat="42.9371264" lon="12.9713871"><ele>1107.0</ele><time>2026-04-24T11:56:10Z</time></trkpt><trkpt lat="42.9371969" lon="12.9714552"><ele>1107.0</ele><time>2026-04-24T11:56:10.99Z</time></trkpt><trkpt lat="42.9372708" lon="12.9715122"><ele>1107.0</ele><time>2026-04-24T11:56:11.996Z</time></trkpt><trkpt lat="42.9373431" lon="12.9715751"><ele>1107.0</ele><time>2026-04-24T11:56:13.008Z</time></trkpt><trkpt lat="42.9374073" lon="12.9716466"><ele>1106.8333333333333</ele><time>2026-04-24T11:56:13.993Z</time></trkpt><trkpt lat="42.9374642" lon="12.9717349"><ele>1106.6666666666667</ele><time>2026-04-24T11:56:14.991Z</time></trkpt><trkpt lat="42.9375252" lon="12.9718203"><ele>1106.5</ele><time>2026-04-24T11:56:15.992Z</time></trkpt><trkpt lat="42.9375839" lon="12.971924"><ele>1106.3333333333335</ele><time>2026-04-24T11:56:17.006Z</time></trkpt><trkpt lat="42.9376391" lon="12.9720271"><ele>1106.1666666666667</ele><time>2026-04-24T11:56:18.004Z</time></trkpt><trkpt lat="42.9376911" lon="12.9721211"><ele>1106.0</ele><time>2026-04-24T11:56:19.004Z</time></trkpt><trkpt lat="42.9377438" lon="12.972212"><ele>1106.0</ele><time>2026-04-24T11:56:20.004Z</time></trkpt><trkpt lat="42.9377948" lon="12.9723221"><ele>1106.0</ele><time>2026-04-24T11:56:21.01Z</time></trkpt><trkpt lat="42.9378453" lon="12.9724409"><ele>1106.0</ele><time>2026-04-24T11:56:21.996Z</time></trkpt><trkpt lat="42.9378951" lon="12.9725719"><ele>1106.0</ele><time>2026-04-24T11:56:22.999Z</time></trkpt><trkpt lat="42.9379463" lon="12.9726976"><ele>1106.0</ele><time>2026-04-24T11:56:24.014Z</time></trkpt><trkpt lat="42.9379984" lon="12.9728178"><ele>1106.3333333333335</ele><time>2026-04-24T11:56:25.011Z</time></trkpt><trkpt lat="42.9380411" lon="12.9729326"><ele>1106.6666666666667</ele><time>2026-04-24T11:56:25.994Z</time></trkpt><trkpt lat="42.93808" lon="12.9730357"><ele>1107.0</ele><time>2026-04-24T11:56:27Z</time></trkpt><trkpt lat="42.9381167" lon="12.9731299"><ele>1107.3333333333333</ele><time>2026-04-24T11:56:28.021Z</time></trkpt><trkpt lat="42.9381571" lon="12.9732141"><ele>1107.6666666666665</ele><time>2026-04-24T11:56:28.996Z</time></trkpt><trkpt lat="42.9382042" lon="12.9732991"><ele>1108.0</ele><time>2026-04-24T11:56:29.996Z</time></trkpt><trkpt lat="42.938259" lon="12.9733777"><ele>1105.2857142857142</ele><time>2026-04-24T11:56:31.002Z</time></trkpt><trkpt lat="42.9383097" lon="12.9734436"><ele>1102.5714285714284</ele><time>2026-04-24T11:56:31.999Z</time></trkpt><trkpt lat="42.9383691" lon="12.9734994"><ele>1099.857142857143</ele><time>2026-04-24T11:56:32.995Z</time></trkpt><trkpt lat="42.9384329" lon="12.9735391"><ele>1097.142857142857</ele><time>2026-04-24T11:56:34.011Z</time></trkpt><trkpt lat="42.9385008" lon="12.9735573"><ele>1094.4285714285716</ele><time>2026-04-24T11:56:34.998Z</time></trkpt><trkpt lat="42.9385742" lon="12.973566"><ele>1091.7142857142858</ele><time>2026-04-24T11:56:35.994Z</time></trkpt><trkpt lat="42.9386508" lon="12.9735703"><ele>1089.0</ele><time>2026-04-24T11:56:36.997Z</time></trkpt><trkpt lat="42.9387295" lon="12.9735805"><ele>1089.0</ele><time>2026-04-24T11:56:38.015Z</time></trkpt><trkpt lat="42.938801" lon="12.9735993"><ele>1089.0</ele><time>2026-04-24T11:56:39.015Z</time></trkpt><trkpt lat="42.938876" lon="12.973625"><ele>1089.0</ele><time>2026-04-24T11:56:39.984Z</time></trkpt><trkpt lat="42.9389499" lon="12.9736464"><ele>1089.0</ele><time>2026-04-24T11:56:41.009Z</time></trkpt><trkpt lat="42.9390224" lon="12.9736655"><ele>1089.0</ele><time>2026-04-24T11:56:42.012Z</time></trkpt><trkpt lat="42.9390992" lon="12.9737049"><ele>1089.0</ele><time>2026-04-24T11:56:43.015Z</time></trkpt><trkpt lat="42.9391781" lon="12.9737572"><ele>1093.2</ele><time>2026-04-24T11:56:43.995Z</time></trkpt><trkpt lat="42.9392639" lon="12.9738167"><ele>1097.4</ele><time>2026-04-24T11:56:45Z</time></trkpt><trkpt lat="42.9393468" lon="12.9738831"><ele>1101.6</ele><time>2026-04-24T11:56:46.007Z</time></trkpt><trkpt lat="42.9394289" lon="12.9739482"><ele>1105.8</ele><time>2026-04-24T11:56:47.001Z</time></trkpt><trkpt lat="42.9395031" lon="12.9740117"><ele>1110.0</ele><time>2026-04-24T11:56:47.994Z</time></trkpt><trkpt lat="42.9395694" lon="12.9740683"><ele>1110.0</ele><time>2026-04-24T11:56:48.998Z</time></trkpt><trkpt lat="42.9396702" lon="12.974181"><ele>1110.0</ele><time>2026-04-24T11:56:51.004Z</time></trkpt><trkpt lat="42.9397292" lon="12.9742392"><ele>1110.0</ele><time>2026-04-24T11:56:51.998Z</time></trkpt><trkpt lat="42.9397808" lon="12.9744089"><ele>1110.0</ele><time>2026-04-24T11:56:54.004Z</time></trkpt><trkpt lat="42.9397983" lon="12.9745063"><ele>1110.0</ele><time>2026-04-24T11:56:55.003Z</time></trkpt><trkpt lat="42.9398243" lon="12.9746096"><ele>1105.5</ele><time>2026-04-24T11:56:55.996Z</time></trkpt><trkpt lat="42.9398611" lon="12.9747044"><ele>1101.0</ele><time>2026-04-24T11:56:56.994Z</time></trkpt><trkpt lat="42.9398975" lon="12.9747939"><ele>1096.5</ele><time>2026-04-24T11:56:58Z</time></trkpt><trkpt lat="42.9399395" lon="12.974877"><ele>1092.0</ele><time>2026-04-24T11:56:58.997Z</time></trkpt><trkpt lat="42.9399865" lon="12.9749625"><ele>1087.5</ele><time>2026-04-24T11:56:59.999Z</time></trkpt><trkpt lat="42.9400278" lon="12.9750449"><ele>1083.0</ele><time>2026-04-24T11:57:00.981Z</time></trkpt><trkpt lat="42.9400707" lon="12.9751219"><ele>1083.0</ele><time>2026-04-24T11:57:02.002Z</time></trkpt><trkpt lat="42.9401123" lon="12.9752117"><ele>1083.0</ele><time>2026-04-24T11:57:02.992Z</time></trkpt><trkpt lat="42.9401472" lon="12.9753079"><ele>1083.0</ele><time>2026-04-24T11:57:03.993Z</time></trkpt><trkpt lat="42.9401742" lon="12.9754161"><ele>1083.0</ele><time>2026-04-24T11:57:05.007Z</time></trkpt><trkpt lat="42.940192" lon="12.9755372"><ele>1083.0</ele><time>2026-04-24T11:57:05.99Z</time></trkpt><trkpt lat="42.9402234" lon="12.9756644"><ele>1083.0</ele><time>2026-04-24T11:57:06.986Z</time></trkpt><trkpt lat="42.9402491" lon="12.9757824"><ele>1078.1666666666667</ele><time>2026-04-24T11:57:08.003Z</time></trkpt><trkpt lat="42.9402833" lon="12.9758881"><ele>1073.3333333333333</ele><time>2026-04-24T11:57:09.019Z</time></trkpt><trkpt lat="42.9403275" lon="12.9759965"><ele>1068.5</ele><time>2026-04-24T11:57:09.981Z</time></trkpt><trkpt lat="42.9403894" lon="12.9760949"><ele>1063.6666666666665</ele><time>2026-04-24T11:57:10.988Z</time></trkpt><trkpt lat="42.940451" lon="12.9761708"><ele>1058.8333333333333</ele><time>2026-04-24T11:57:12.016Z</time></trkpt><trkpt lat="42.9405145" lon="12.976232"><ele>1054.0</ele><time>2026-04-24T11:57:13Z</time></trkpt><trkpt lat="42.9405837" lon="12.9762856"><ele>1054.0</ele><time>2026-04-24T11:57:13.997Z</time></trkpt><trkpt lat="42.9406674" lon="12.9763272"><ele>1054.0</ele><time>2026-04-24T11:57:15Z</time></trkpt><trkpt lat="42.9407575" lon="12.9763502"><ele>1054.0</ele><time>2026-04-24T11:57:16.006Z</time></trkpt><trkpt lat="42.9408419" lon="12.9763638"><ele>1054.0</ele><time>2026-04-24T11:57:16.996Z</time></trkpt><trkpt lat="42.9409195" lon="12.9763812"><ele>1054.0</ele><time>2026-04-24T11:57:18.009Z</time></trkpt><trkpt lat="42.9409913" lon="12.97642"><ele>1054.0</ele><time>2026-04-24T11:57:19.021Z</time></trkpt><trkpt lat="42.9410538" lon="12.9764642"><ele>1055.2</ele><time>2026-04-24T11:57:20.008Z</time></trkpt><trkpt lat="42.9411083" lon="12.9765352"><ele>1056.4</ele><time>2026-04-24T11:57:21.016Z</time></trkpt><trkpt lat="42.9411608" lon="12.9766254"><ele>1057.6</ele><time>2026-04-24T11:57:21.984Z</time></trkpt><trkpt lat="42.941214" lon="12.9767305"><ele>1058.8</ele><time>2026-04-24T11:57:23.022Z</time></trkpt><trkpt lat="42.9412575" lon="12.9768652"><ele>1060.0</ele><time>2026-04-24T11:57:23.997Z</time></trkpt><trkpt lat="42.9412776" lon="12.977007"><ele>1060.0</ele><time>2026-04-24T11:57:25Z</time></trkpt><trkpt lat="42.9412848" lon="12.9771458"><ele>1060.0</ele><time>2026-04-24T11:57:26.005Z</time></trkpt><trkpt lat="42.9412999" lon="12.9772712"><ele>1060.0</ele><time>2026-04-24T11:57:26.994Z</time></trkpt><trkpt lat="42.9413369" lon="12.9773719"><ele>1060.0</ele><time>2026-04-24T11:57:27.991Z</time></trkpt><trkpt lat="42.9413868" lon="12.9774553"><ele>1060.0</ele><time>2026-04-24T11:57:29.006Z</time></trkpt><trkpt lat="42.9414312" lon="12.977527"><ele>1060.0</ele><time>2026-04-24T11:57:30.008Z</time></trkpt><trkpt lat="42.9414564" lon="12.9776102"><ele>1057.3333333333333</ele><time>2026-04-24T11:57:31Z</time></trkpt><trkpt lat="42.9414793" lon="12.9777022"><ele>1054.6666666666665</ele><time>2026-04-24T11:57:31.992Z</time></trkpt><trkpt lat="42.941474" lon="12.9777949"><ele>1052.0</ele><time>2026-04-24T11:57:32.99Z</time></trkpt><trkpt lat="42.9414453" lon="12.9778956"><ele>1049.3333333333333</ele><time>2026-04-24T11:57:33.993Z</time></trkpt><trkpt lat="42.9414097" lon="12.9779764"><ele>1046.6666666666667</ele><time>2026-04-24T11:57:35.002Z</time></trkpt><trkpt lat="42.9413645" lon="12.9780981"><ele>1044.0</ele><time>2026-04-24T11:57:37.023Z</time></trkpt><trkpt lat="42.9413855" lon="12.9781965"><ele>1047.75</ele><time>2026-04-24T11:57:40.007Z</time></trkpt><trkpt lat="42.9415446" lon="12.9784312"><ele>1051.5</ele><time>2026-04-24T11:57:44Z</time></trkpt><trkpt lat="42.9416184" lon="12.9785278"><ele>1055.25</ele><time>2026-04-24T11:57:45.991Z</time></trkpt><trkpt lat="42.9416855" lon="12.9786405"><ele>1059.0</ele><time>2026-04-24T11:57:48.002Z</time></trkpt><trkpt lat="42.9417588" lon="12.9787797"><ele>1059.0</ele><time>2026-04-24T11:57:49.995Z</time></trkpt><trkpt lat="42.9417976" lon="12.9788591"><ele>1059.0</ele><time>2026-04-24T11:57:51.006Z</time></trkpt><trkpt lat="42.9418394" lon="12.9789351"><ele>1059.0</ele><time>2026-04-24T11:57:51.996Z</time></trkpt><trkpt lat="42.9418834" lon="12.9790289"><ele>1059.0</ele><time>2026-04-24T11:57:52.994Z</time></trkpt><trkpt lat="42.9419234" lon="12.9791306"><ele>1059.0</ele><time>2026-04-24T11:57:54.003Z</time></trkpt><trkpt lat="42.9419543" lon="12.9792273"><ele>1059.0</ele><time>2026-04-24T11:57:55.014Z</time></trkpt><trkpt lat="42.9419778" lon="12.9793243"><ele>1055.5</ele><time>2026-04-24T11:57:55.995Z</time></trkpt><trkpt lat="42.9419967" lon="12.9794211"><ele>1052.0</ele><time>2026-04-24T11:57:56.987Z</time></trkpt><trkpt lat="42.9420232" lon="12.9795107"><ele>1048.5</ele><time>2026-04-24T11:57:58Z</time></trkpt><trkpt lat="42.9420538" lon="12.9795993"><ele>1045.0</ele><time>2026-04-24T11:57:59.009Z</time></trkpt><trkpt lat="42.9420842" lon="12.9796816"><ele>1041.5</ele><time>2026-04-24T11:57:59.99Z</time></trkpt><trkpt lat="42.9421024" lon="12.9798501"><ele>1038.0</ele><time>2026-04-24T11:58:01.996Z</time></trkpt><trkpt lat="42.9420927" lon="12.9799358"><ele>1033.3333333333333</ele><time>2026-04-24T11:58:02.994Z</time></trkpt><trkpt lat="42.9420915" lon="12.9800797"><ele>1028.6666666666667</ele><time>2026-04-24T11:58:05.008Z</time></trkpt><trkpt lat="42.9420975" lon="12.980167"><ele>1024.0</ele><time>2026-04-24T11:58:07.002Z</time></trkpt><trkpt lat="42.9421282" lon="12.9802658"><ele>1019.3333333333334</ele><time>2026-04-24T11:58:09.99Z</time></trkpt><trkpt lat="42.9421659" lon="12.980345"><ele>1014.6666666666667</ele><time>2026-04-24T11:58:12.01Z</time></trkpt><trkpt lat="42.9421986" lon="12.9804185"><ele>1010.0</ele><time>2026-04-24T11:58:13.995Z</time></trkpt><trkpt lat="42.9422342" lon="12.9804999"><ele>1010.0</ele><time>2026-04-24T11:58:16.006Z</time></trkpt><trkpt lat="42.9422773" lon="12.980582"><ele>1010.0</ele><time>2026-04-24T11:58:17.995Z</time></trkpt><trkpt lat="42.9423374" lon="12.9806885"><ele>1010.0</ele><time>2026-04-24T11:58:19.984Z</time></trkpt><trkpt lat="42.9423969" lon="12.9808101"><ele>1010.0</ele><time>2026-04-24T11:58:21.999Z</time></trkpt><trkpt lat="42.9424451" lon="12.9809436"><ele>1010.0</ele><time>2026-04-24T11:58:24.01Z</time></trkpt><trkpt lat="42.9424964" lon="12.9810728"><ele>1010.2</ele><time>2026-04-24T11:58:26.002Z</time></trkpt><trkpt lat="42.9425617" lon="12.981164"><ele>1010.4</ele><time>2026-04-24T11:58:28.001Z</time></trkpt><trkpt lat="42.9426375" lon="12.9812538"><ele>1010.5999999999999</ele><time>2026-04-24T11:58:30.009Z</time></trkpt><trkpt lat="42.942692" lon="12.9813982"><ele>1010.8</ele><time>2026-04-24T11:58:32.004Z</time></trkpt><trkpt lat="42.9427102" lon="12.9814822"><ele>1011.0</ele><time>2026-04-24T11:58:33.011Z</time></trkpt><trkpt lat="42.9427448" lon="12.9815713"><ele>1011.0</ele><time>2026-04-24T11:58:34.012Z</time></trkpt><trkpt lat="42.9427861" lon="12.9816536"><ele>1011.0</ele><time>2026-04-24T11:58:35.015Z</time></trkpt><trkpt lat="42.942837" lon="12.9817374"><ele>1011.0</ele><time>2026-04-24T11:58:38.001Z</time></trkpt><trkpt lat="42.9428782" lon="12.9818043"><ele>1011.0</ele><time>2026-04-24T11:58:39.996Z</time></trkpt><trkpt lat="42.9429081" lon="12.9819509"><ele>1011.0</ele><time>2026-04-24T11:58:41.998Z</time></trkpt><trkpt lat="42.9429253" lon="12.9820945"><ele>1011.0</ele><time>2026-04-24T11:58:43.99Z</time></trkpt><trkpt lat="42.9429713" lon="12.9822082"><ele>1006.75</ele><time>2026-04-24T11:58:45.002Z</time></trkpt><trkpt lat="42.9430379" lon="12.982371"><ele>1002.5</ele><time>2026-04-24T11:58:46.012Z</time></trkpt><trkpt lat="42.9431219" lon="12.9825121"><ele>998.25</ele><time>2026-04-24T11:58:47.025Z</time></trkpt><trkpt lat="42.9432196" lon="12.9826276"><ele>994.0</ele><time>2026-04-24T11:58:47.987Z</time></trkpt><trkpt lat="42.943346" lon="12.9826808"><ele>1001.75</ele><time>2026-04-24T11:58:49.024Z</time></trkpt><trkpt lat="42.9434478" lon="12.9827417"><ele>1009.5</ele><time>2026-04-24T11:58:50.021Z</time></trkpt><trkpt lat="42.9435271" lon="12.9828381"><ele>1017.25</ele><time>2026-04-24T11:58:51.013Z</time></trkpt><trkpt lat="42.9435848" lon="12.9829855"><ele>1025.0</ele><time>2026-04-24T11:58:52.009Z</time></trkpt><trkpt lat="42.9435965" lon="12.9831684"><ele>1020.5</ele><time>2026-04-24T11:58:53.014Z</time></trkpt><trkpt lat="42.9435887" lon="12.9833607"><ele>1016.0</ele><time>2026-04-24T11:58:54.014Z</time></trkpt><trkpt lat="42.9435734" lon="12.9835357"><ele>1011.5</ele><time>2026-04-24T11:58:55.014Z</time></trkpt><trkpt lat="42.9435874" lon="12.9837074"><ele>1007.0</ele><time>2026-04-24T11:58:56.009Z</time></trkpt><trkpt lat="42.9436428" lon="12.9838433"><ele>1007.0</ele><time>2026-04-24T11:58:57.002Z</time></trkpt><trkpt lat="42.9437201" lon="12.9839652"><ele>1007.0</ele><time>2026-04-24T11:58:58.018Z</time></trkpt><trkpt lat="42.9438138" lon="12.9841128"><ele>1007.0</ele><time>2026-04-24T11:58:59.021Z</time></trkpt><trkpt lat="42.9438889" lon="12.9842671"><ele>1007.0</ele><time>2026-04-24T11:59:00.012Z</time></trkpt><trkpt lat="42.9439447" lon="12.9844082"><ele>1002.25</ele><time>2026-04-24T11:59:01.016Z</time></trkpt><trkpt lat="42.9439915" lon="12.9845457"><ele>997.5</ele><time>2026-04-24T11:59:02.007Z</time></trkpt><trkpt lat="42.944041" lon="12.9846938"><ele>992.75</ele><time>2026-04-24T11:59:03.009Z</time></trkpt><trkpt lat="42.9440828" lon="12.9848495"><ele>988.0</ele><time>2026-04-24T11:59:04.017Z</time></trkpt><trkpt lat="42.944117" lon="12.9850053"><ele>986.5</ele><time>2026-04-24T11:59:05.023Z</time></trkpt><trkpt lat="42.944149" lon="12.9851566"><ele>985.0</ele><time>2026-04-24T11:59:05.99Z</time></trkpt><trkpt lat="42.9441763" lon="12.9853193"><ele>983.5</ele><time>2026-04-24T11:59:07.018Z</time></trkpt><trkpt lat="42.9441869" lon="12.9854958"><ele>982.0</ele><time>2026-04-24T11:59:07.976Z</time></trkpt><trkpt lat="42.9441706" lon="12.9856799"><ele>982.0</ele><time>2026-04-24T11:59:08.995Z</time></trkpt><trkpt lat="42.9441119" lon="12.9858429"><ele>982.0</ele><time>2026-04-24T11:59:09.989Z</time></trkpt><trkpt lat="42.944025" lon="12.9859916"><ele>982.0</ele><time>2026-04-24T11:59:10.985Z</time></trkpt><trkpt lat="42.9439344" lon="12.9861366"><ele>982.0</ele><time>2026-04-24T11:59:12Z</time></trkpt><trkpt lat="42.9438471" lon="12.9863022"><ele>985.0</ele><time>2026-04-24T11:59:13.006Z</time></trkpt><trkpt lat="42.9437625" lon="12.9864771"><ele>988.0</ele><time>2026-04-24T11:59:13.997Z</time></trkpt><trkpt lat="42.943684" lon="12.9866475"><ele>991.0</ele><time>2026-04-24T11:59:15.01Z</time></trkpt><trkpt lat="42.9436208" lon="12.9868135"><ele>994.0</ele><time>2026-04-24T11:59:16.012Z</time></trkpt><trkpt lat="42.9435876" lon="12.9869817"><ele>993.0</ele><time>2026-04-24T11:59:17.013Z</time></trkpt><trkpt lat="42.9435864" lon="12.9871633"><ele>992.0</ele><time>2026-04-24T11:59:18.003Z</time></trkpt><trkpt lat="42.9436075" lon="12.9873652"><ele>991.0</ele><time>2026-04-24T11:59:19.005Z</time></trkpt><trkpt lat="42.943632" lon="12.9875671"><ele>990.0</ele><time>2026-04-24T11:59:20.002Z</time></trkpt><trkpt lat="42.9436658" lon="12.9877623"><ele>990.0</ele><time>2026-04-24T11:59:21.01Z</time></trkpt><trkpt lat="42.9437267" lon="12.9879377"><ele>990.0</ele><time>2026-04-24T11:59:22.014Z</time></trkpt><trkpt lat="42.9437981" lon="12.988103"><ele>990.0</ele><time>2026-04-24T11:59:23.019Z</time></trkpt><trkpt lat="42.9438764" lon="12.9882464"><ele>990.0</ele><time>2026-04-24T11:59:23.992Z</time></trkpt><trkpt lat="42.9439432" lon="12.9883819"><ele>989.4</ele><time>2026-04-24T11:59:25.012Z</time></trkpt><trkpt lat="42.9439927" lon="12.988523"><ele>988.8</ele><time>2026-04-24T11:59:26.01Z</time></trkpt><trkpt lat="42.9440393" lon="12.9886387"><ele>988.2</ele><time>2026-04-24T11:59:27.021Z</time></trkpt><trkpt lat="42.9441152" lon="12.9887199"><ele>987.6</ele><time>2026-04-24T11:59:28.006Z</time></trkpt><trkpt lat="42.9442135" lon="12.9887454"><ele>987.0</ele><time>2026-04-24T11:59:29.014Z</time></trkpt><trkpt lat="42.9443359" lon="12.9887173"><ele>984.3333333333333</ele><time>2026-04-24T11:59:30.009Z</time></trkpt><trkpt lat="42.9444736" lon="12.9886777"><ele>981.6666666666666</ele><time>2026-04-24T11:59:31.01Z</time></trkpt><trkpt lat="42.9446352" lon="12.9886492"><ele>979.0</ele><time>2026-04-24T11:59:32.004Z</time></trkpt><trkpt lat="42.9448074" lon="12.9886493"><ele>979.0</ele><time>2026-04-24T11:59:33.023Z</time></trkpt><trkpt lat="42.9449888" lon="12.9886566"><ele>979.0</ele><time>2026-04-24T11:59:34.024Z</time></trkpt><trkpt lat="42.9451894" lon="12.988668"><ele>979.0</ele><time>2026-04-24T11:59:35.004Z</time></trkpt><trkpt lat="42.9453899" lon="12.9886827"><ele>982.3333333333333</ele><time>2026-04-24T11:59:36.009Z</time></trkpt><trkpt lat="42.9455895" lon="12.9886946"><ele>985.6666666666667</ele><time>2026-04-24T11:59:37.025Z</time></trkpt><trkpt lat="42.9457741" lon="12.9887433"><ele>989.0</ele><time>2026-04-24T11:59:37.999Z</time></trkpt><trkpt lat="42.9459592" lon="12.9888504"><ele>987.6666666666667</ele><time>2026-04-24T11:59:38.987Z</time></trkpt><trkpt lat="42.9461564" lon="12.9889854"><ele>986.3333333333333</ele><time>2026-04-24T11:59:40.005Z</time></trkpt><trkpt lat="42.9463399" lon="12.9891261"><ele>985.0</ele><time>2026-04-24T11:59:41.006Z</time></trkpt><trkpt lat="42.9465165" lon="12.9892519"><ele>985.0</ele><time>2026-04-24T11:59:41.995Z</time></trkpt><trkpt lat="42.9466913" lon="12.9893421"><ele>985.0</ele><time>2026-04-24T11:59:43.018Z</time></trkpt><trkpt lat="42.9468641" lon="12.9894073"><ele>985.0</ele><time>2026-04-24T11:59:44.01Z</time></trkpt><trkpt lat="42.9470453" lon="12.9894344"><ele>988.6666666666666</ele><time>2026-04-24T11:59:45.023Z</time></trkpt><trkpt lat="42.9472243" lon="12.989413"><ele>992.3333333333333</ele><time>2026-04-24T11:59:46.004Z</time></trkpt><trkpt lat="42.9474004" lon="12.9893454"><ele>996.0</ele><time>2026-04-24T11:59:47.012Z</time></trkpt><trkpt lat="42.9475649" lon="12.9892472"><ele>1001.0</ele><time>2026-04-24T11:59:48.024Z</time></trkpt><trkpt lat="42.9476977" lon="12.9891487"><ele>1006.0</ele><time>2026-04-24T11:59:49.002Z</time></trkpt><trkpt lat="42.9478172" lon="12.9890544"><ele>1011.0</ele><time>2026-04-24T11:59:50Z</time></trkpt><trkpt lat="42.9479382" lon="12.9889877"><ele>1016.0</ele><time>2026-04-24T11:59:51.012Z</time></trkpt><trkpt lat="42.9480489" lon="12.9889357"><ele>1016.0</ele><time>2026-04-24T11:59:52.01Z</time></trkpt><trkpt lat="42.948146" lon="12.9889427"><ele>1015.9999999999999</ele><time>2026-04-24T11:59:53.022Z</time></trkpt><trkpt lat="42.9482212" lon="12.9890119"><ele>1015.9999999999999</ele><time>2026-04-24T11:59:54.008Z</time></trkpt><trkpt lat="42.9482703" lon="12.9891406"><ele>1016.0</ele><time>2026-04-24T11:59:55.014Z</time></trkpt><trkpt lat="42.9482938" lon="12.9892855"><ele>1016.0</ele><time>2026-04-24T11:59:56.01Z</time></trkpt><trkpt lat="42.9482949" lon="12.9894184"><ele>1016.1999999999999</ele><time>2026-04-24T11:59:57.015Z</time></trkpt><trkpt lat="42.9482722" lon="12.9895569"><ele>1016.3999999999999</ele><time>2026-04-24T11:59:58.011Z</time></trkpt><trkpt lat="42.9482094" lon="12.9896934"><ele>1016.6</ele><time>2026-04-24T11:59:59.023Z</time></trkpt><trkpt lat="42.9481224" lon="12.9898085"><ele>1016.8</ele><time>2026-04-24T12:00:00.023Z</time></trkpt><trkpt lat="42.9480556" lon="12.9899209"><ele>1017.0</ele><time>2026-04-24T12:00:01.009Z</time></trkpt><trkpt lat="42.9479953" lon="12.9900386"><ele>1017.6666666666666</ele><time>2026-04-24T12:00:02.01Z</time></trkpt><trkpt lat="42.9479514" lon="12.9901565"><ele>1018.3333333333333</ele><time>2026-04-24T12:00:03.008Z</time></trkpt><trkpt lat="42.9479214" lon="12.9902726"><ele>1019.0</ele><time>2026-04-24T12:00:04.006Z</time></trkpt><trkpt lat="42.9478996" lon="12.9903803"><ele>1019.6666666666666</ele><time>2026-04-24T12:00:05.022Z</time></trkpt><trkpt lat="42.9478681" lon="12.9904804"><ele>1020.3333333333333</ele><time>2026-04-24T12:00:06.011Z</time></trkpt><trkpt lat="42.9478277" lon="12.9905698"><ele>1021.0</ele><time>2026-04-24T12:00:07.009Z</time></trkpt><trkpt lat="42.9477905" lon="12.9906551"><ele>1020.9999999999999</ele><time>2026-04-24T12:00:08.012Z</time></trkpt><trkpt lat="42.9477563" lon="12.9907353"><ele>1021.0</ele><time>2026-04-24T12:00:09.017Z</time></trkpt><trkpt lat="42.9477359" lon="12.9908546"><ele>1021.0</ele><time>2026-04-24T12:00:10.992Z</time></trkpt><trkpt lat="42.947771" lon="12.9909462"><ele>1021.0</ele><time>2026-04-24T12:00:13.02Z</time></trkpt><trkpt lat="42.9478238" lon="12.9909991"><ele>1020.9999999999999</ele><time>2026-04-24T12:00:15.009Z</time></trkpt><trkpt lat="42.9479094" lon="12.9910613"><ele>1021.0</ele><time>2026-04-24T12:00:17.009Z</time></trkpt><trkpt lat="42.9479744" lon="12.9910953"><ele>1019.4999999999999</ele><time>2026-04-24T12:00:18.014Z</time></trkpt><trkpt lat="42.9480469" lon="12.9911233"><ele>1018.0</ele><time>2026-04-24T12:00:19.008Z</time></trkpt><trkpt lat="42.9481269" lon="12.9911452"><ele>1016.5</ele><time>2026-04-24T12:00:20.006Z</time></trkpt><trkpt lat="42.9482027" lon="12.9911713"><ele>1015.0</ele><time>2026-04-24T12:00:21.021Z</time></trkpt><trkpt lat="42.9482877" lon="12.991214"><ele>1013.4999999999999</ele><time>2026-04-24T12:00:22.01Z</time></trkpt><trkpt lat="42.9483685" lon="12.9912794"><ele>1012.0</ele><time>2026-04-24T12:00:23.023Z</time></trkpt><trkpt lat="42.9484333" lon="12.9913575"><ele>1016.1666666666666</ele><time>2026-04-24T12:00:24.014Z</time></trkpt><trkpt lat="42.9484696" lon="12.9914338"><ele>1020.3333333333333</ele><time>2026-04-24T12:00:25.02Z</time></trkpt><trkpt lat="42.9485418" lon="12.9914819"><ele>1024.5</ele><time>2026-04-24T12:00:27.002Z</time></trkpt><trkpt lat="42.9485835" lon="12.9914033"><ele>1028.6666666666667</ele><time>2026-04-24T12:00:29.02Z</time></trkpt><trkpt lat="42.9485272" lon="12.9912572"><ele>1032.8333333333335</ele><time>2026-04-24T12:00:31.019Z</time></trkpt><trkpt lat="42.948485" lon="12.9911619"><ele>1037.0</ele><time>2026-04-24T12:00:32.012Z</time></trkpt><trkpt lat="42.9484394" lon="12.9910539"><ele>1037.0</ele><time>2026-04-24T12:00:33.024Z</time></trkpt><trkpt lat="42.9484002" lon="12.990957"><ele>1037.0</ele><time>2026-04-24T12:00:34.021Z</time></trkpt><trkpt lat="42.9483907" lon="12.9908664"><ele>1037.0</ele><time>2026-04-24T12:00:35.024Z</time></trkpt><trkpt lat="42.9484654" lon="12.9907359"><ele>1037.0</ele><time>2026-04-24T12:00:37.013Z</time></trkpt><trkpt lat="42.9485275" lon="12.9906931"><ele>1037.0</ele><time>2026-04-24T12:00:38.011Z</time></trkpt><trkpt lat="42.9486056" lon="12.990667"><ele>1037.0</ele><time>2026-04-24T12:00:39.018Z</time></trkpt><trkpt lat="42.9486841" lon="12.9906455"><ele>1037.6666666666667</ele><time>2026-04-24T12:00:40.011Z</time></trkpt><trkpt lat="42.9487688" lon="12.9906193"><ele>1038.3333333333335</ele><time>2026-04-24T12:00:41.019Z</time></trkpt><trkpt lat="42.9488512" lon="12.9905947"><ele>1039.0</ele><time>2026-04-24T12:00:42.013Z</time></trkpt><trkpt lat="42.9489376" lon="12.9905665"><ele>1039.6666666666667</ele><time>2026-04-24T12:00:43Z</time></trkpt><trkpt lat="42.9490139" lon="12.9905462"><ele>1040.3333333333333</ele><time>2026-04-24T12:00:44.014Z</time></trkpt><trkpt lat="42.9490793" lon="12.9905471"><ele>1041.0</ele><time>2026-04-24T12:00:45.02Z</time></trkpt><trkpt lat="42.9491648" lon="12.9906451"><ele>1043.3333333333333</ele><time>2026-04-24T12:00:47.018Z</time></trkpt><trkpt lat="42.9492097" lon="12.9907174"><ele>1045.6666666666667</ele><time>2026-04-24T12:00:48.014Z</time></trkpt><trkpt lat="42.949249" lon="12.9908025"><ele>1048.0</ele><time>2026-04-24T12:00:49.016Z</time></trkpt><trkpt lat="42.9492901" lon="12.9908868"><ele>1050.3333333333335</ele><time>2026-04-24T12:00:50.01Z</time></trkpt><trkpt lat="42.9493455" lon="12.9909949"><ele>1052.6666666666667</ele><time>2026-04-24T12:00:51.022Z</time></trkpt><trkpt lat="42.9494188" lon="12.9911241"><ele>1055.0</ele><time>2026-04-24T12:00:52.026Z</time></trkpt><trkpt lat="42.9494882" lon="12.9912421"><ele>1055.0</ele><time>2026-04-24T12:00:53.014Z</time></trkpt><trkpt lat="42.9495418" lon="12.99135"><ele>1055.0</ele><time>2026-04-24T12:00:54.008Z</time></trkpt><trkpt lat="42.9495914" lon="12.9914372"><ele>1055.0</ele><time>2026-04-24T12:00:55.008Z</time></trkpt><trkpt lat="42.9496605" lon="12.9915054"><ele>1055.0</ele><time>2026-04-24T12:00:55.983Z</time></trkpt><trkpt lat="42.9497491" lon="12.991555"><ele>1055.0</ele><time>2026-04-24T12:00:57.019Z</time></trkpt><trkpt lat="42.9498416" lon="12.9915883"><ele>1055.0</ele><time>2026-04-24T12:00:58.017Z</time></trkpt><trkpt lat="42.9499228" lon="12.9916188"><ele>1055.0</ele><time>2026-04-24T12:00:59.01Z</time></trkpt><trkpt lat="42.9499812" lon="12.9916829"><ele>1055.0</ele><time>2026-04-24T12:01:00.02Z</time></trkpt><trkpt lat="42.9500279" lon="12.9917637"><ele>1055.0</ele><time>2026-04-24T12:01:01.018Z</time></trkpt><trkpt lat="42.9500568" lon="12.9918606"><ele>1055.0</ele><time>2026-04-24T12:01:02.012Z</time></trkpt><trkpt lat="42.9500929" lon="12.9919647"><ele>1055.0</ele><time>2026-04-24T12:01:03.016Z</time></trkpt><trkpt lat="42.9501479" lon="12.9920651"><ele>1056.8333333333335</ele><time>2026-04-24T12:01:04.01Z</time></trkpt><trkpt lat="42.9502112" lon="12.9921481"><ele>1058.6666666666667</ele><time>2026-04-24T12:01:05.003Z</time></trkpt><trkpt lat="42.9502879" lon="12.992222"><ele>1060.5</ele><time>2026-04-24T12:01:06.014Z</time></trkpt><trkpt lat="42.9503598" lon="12.9922908"><ele>1062.3333333333333</ele><time>2026-04-24T12:01:07.025Z</time></trkpt><trkpt lat="42.9504277" lon="12.9923631"><ele>1064.1666666666665</ele><time>2026-04-24T12:01:08.014Z</time></trkpt><trkpt lat="42.9504912" lon="12.9924423"><ele>1066.0</ele><time>2026-04-24T12:01:09.017Z</time></trkpt><trkpt lat="42.9505553" lon="12.9925233"><ele>1066.0</ele><time>2026-04-24T12:01:10.013Z</time></trkpt><trkpt lat="42.9506214" lon="12.9926055"><ele>1066.0</ele><time>2026-04-24T12:01:10.993Z</time></trkpt><trkpt lat="42.9506927" lon="12.9926877"><ele>1066.0</ele><time>2026-04-24T12:01:12.017Z</time></trkpt><trkpt lat="42.9507625" lon="12.9927621"><ele>1066.0</ele><time>2026-04-24T12:01:13.019Z</time></trkpt><trkpt lat="42.9508425" lon="12.9928267"><ele>1066.0</ele><time>2026-04-24T12:01:14.027Z</time></trkpt><trkpt lat="42.9509204" lon="12.9928868"><ele>1069.5</ele><time>2026-04-24T12:01:15.015Z</time></trkpt><trkpt lat="42.9509982" lon="12.9929474"><ele>1073.0</ele><time>2026-04-24T12:01:15.995Z</time></trkpt><trkpt lat="42.9510746" lon="12.9930134"><ele>1076.5</ele><time>2026-04-24T12:01:17.012Z</time></trkpt><trkpt lat="42.9511325" lon="12.9930825"><ele>1080.0</ele><time>2026-04-24T12:01:18.019Z</time></trkpt><trkpt lat="42.9511841" lon="12.9931603"><ele>1083.5</ele><time>2026-04-24T12:01:18.997Z</time></trkpt><trkpt lat="42.951244" lon="12.9932379"><ele>1087.0</ele><time>2026-04-24T12:01:20.012Z</time></trkpt><trkpt lat="42.9513168" lon="12.9933066"><ele>1086.0</ele><time>2026-04-24T12:01:21.025Z</time></trkpt><trkpt lat="42.9513945" lon="12.9933731"><ele>1085.0</ele><time>2026-04-24T12:01:22.017Z</time></trkpt><trkpt lat="42.9514698" lon="12.9934454"><ele>1084.0</ele><time>2026-04-24T12:01:22.993Z</time></trkpt><trkpt lat="42.9515318" lon="12.9935215"><ele>1083.0</ele><time>2026-04-24T12:01:23.992Z</time></trkpt><trkpt lat="42.9515836" lon="12.9936175"><ele>1082.0</ele><time>2026-04-24T12:01:25Z</time></trkpt><trkpt lat="42.9516415" lon="12.9937275"><ele>1082.0</ele><time>2026-04-24T12:01:26.008Z</time></trkpt><trkpt lat="42.9516949" lon="12.9938335"><ele>1082.0</ele><time>2026-04-24T12:01:27.005Z</time></trkpt><trkpt lat="42.9517657" lon="12.9939424"><ele>1082.0</ele><time>2026-04-24T12:01:28.017Z</time></trkpt><trkpt lat="42.9518523" lon="12.9940393"><ele>1082.0</ele><time>2026-04-24T12:01:29.011Z</time></trkpt><trkpt lat="42.951948" lon="12.99413"><ele>1082.0</ele><time>2026-04-24T12:01:30.004Z</time></trkpt><trkpt lat="42.9520466" lon="12.9942296"><ele>1085.6</ele><time>2026-04-24T12:01:31.024Z</time></trkpt><trkpt lat="42.9521366" lon="12.9943089"><ele>1089.2</ele><time>2026-04-24T12:01:32.009Z</time></trkpt><trkpt lat="42.9522108" lon="12.9943682"><ele>1092.8</ele><time>2026-04-24T12:01:33Z</time></trkpt><trkpt lat="42.9522761" lon="12.9944917"><ele>1096.4</ele><time>2026-04-24T12:01:35.019Z</time></trkpt><trkpt lat="42.9522447" lon="12.9946318"><ele>1100.0</ele><time>2026-04-24T12:01:37.025Z</time></trkpt><trkpt lat="42.9521735" lon="12.9947655"><ele>1100.0</ele><time>2026-04-24T12:01:39.017Z</time></trkpt><trkpt lat="42.952193" lon="12.9948754"><ele>1100.0</ele><time>2026-04-24T12:01:41.016Z</time></trkpt><trkpt lat="42.9522861" lon="12.9948863"><ele>1100.0</ele><time>2026-04-24T12:01:43.009Z</time></trkpt><trkpt lat="42.9523518" lon="12.9948769"><ele>1100.0</ele><time>2026-04-24T12:01:43.983Z</time></trkpt><trkpt lat="42.9524944" lon="12.9948993"><ele>1100.0</ele><time>2026-04-24T12:01:46Z</time></trkpt><trkpt lat="42.9525668" lon="12.9949057"><ele>1101.8333333333335</ele><time>2026-04-24T12:01:47.011Z</time></trkpt><trkpt lat="42.9526476" lon="12.9949126"><ele>1103.6666666666667</ele><time>2026-04-24T12:01:48.003Z</time></trkpt><trkpt lat="42.9527252" lon="12.9949194"><ele>1105.5</ele><time>2026-04-24T12:01:48.986Z</time></trkpt><trkpt lat="42.9528077" lon="12.9949299"><ele>1107.3333333333333</ele><time>2026-04-24T12:01:50.012Z</time></trkpt><trkpt lat="42.9528911" lon="12.9949506"><ele>1109.1666666666665</ele><time>2026-04-24T12:01:50.985Z</time></trkpt><trkpt lat="42.9529794" lon="12.9949758"><ele>1111.0</ele><time>2026-04-24T12:01:52.005Z</time></trkpt><trkpt lat="42.9530785" lon="12.9950122"><ele>1111.0</ele><time>2026-04-24T12:01:53.01Z</time></trkpt><trkpt lat="42.9531921" lon="12.995052"><ele>1111.0</ele><time>2026-04-24T12:01:54.009Z</time></trkpt><trkpt lat="42.9533166" lon="12.9950931"><ele>1111.0</ele><time>2026-04-24T12:01:55.012Z</time></trkpt><trkpt lat="42.9534382" lon="12.9951288"><ele>1111.0</ele><time>2026-04-24T12:01:56.007Z</time></trkpt><trkpt lat="42.9535591" lon="12.9951363"><ele>1115.5</ele><time>2026-04-24T12:01:57.007Z</time></trkpt><trkpt lat="42.9536837" lon="12.9951269"><ele>1120.0</ele><time>2026-04-24T12:01:58.011Z</time></trkpt><trkpt lat="42.9538086" lon="12.9951183"><ele>1124.5</ele><time>2026-04-24T12:01:59.011Z</time></trkpt><trkpt lat="42.9539235" lon="12.9951237"><ele>1129.0</ele><time>2026-04-24T12:02:00.01Z</time></trkpt><trkpt lat="42.9540221" lon="12.9951541"><ele>1129.0</ele><time>2026-04-24T12:02:01.012Z</time></trkpt><trkpt lat="42.9540896" lon="12.9952096"><ele>1129.0</ele><time>2026-04-24T12:02:02.01Z</time></trkpt><trkpt lat="42.9541638" lon="12.9952764"><ele>1129.0</ele><time>2026-04-24T12:02:03.01Z</time></trkpt><trkpt lat="42.9542288" lon="12.995368"><ele>1129.0</ele><time>2026-04-24T12:02:03.997Z</time></trkpt><trkpt lat="42.9543029" lon="12.9954711"><ele>1129.0</ele><time>2026-04-24T12:02:05.003Z</time></trkpt><trkpt lat="42.9543861" lon="12.9955716"><ele>1130.5</ele><time>2026-04-24T12:02:06.003Z</time></trkpt><trkpt lat="42.9544738" lon="12.9956712"><ele>1132.0</ele><time>2026-04-24T12:02:07.008Z</time></trkpt><trkpt lat="42.9545707" lon="12.9957664"><ele>1133.5</ele><time>2026-04-24T12:02:08.006Z</time></trkpt><trkpt lat="42.9546681" lon="12.9958568"><ele>1135.0</ele><time>2026-04-24T12:02:09Z</time></trkpt><trkpt lat="42.9547733" lon="12.9959528"><ele>1135.0</ele><time>2026-04-24T12:02:10.095Z</time></trkpt><trkpt lat="42.954884" lon="12.9960423"><ele>1135.0</ele><time>2026-04-24T12:02:10.984Z</time></trkpt><trkpt lat="42.9549836" lon="12.9961363"><ele>1135.0</ele><time>2026-04-24T12:02:11.994Z</time></trkpt><trkpt lat="42.9550703" lon="12.996221"><ele>1135.0</ele><time>2026-04-24T12:02:13Z</time></trkpt><trkpt lat="42.9551451" lon="12.9962958"><ele>1135.0</ele><time>2026-04-24T12:02:14.004Z</time></trkpt><trkpt lat="42.9551993" lon="12.9963845"><ele>1136.8</ele><time>2026-04-24T12:02:15.01Z</time></trkpt><trkpt lat="42.9552448" lon="12.99649"><ele>1138.6</ele><time>2026-04-24T12:02:16.008Z</time></trkpt><trkpt lat="42.9553029" lon="12.996587"><ele>1140.4</ele><time>2026-04-24T12:02:17.025Z</time></trkpt><trkpt lat="42.9553835" lon="12.996656"><ele>1142.2</ele><time>2026-04-24T12:02:18.01Z</time></trkpt><trkpt lat="42.9554811" lon="12.9967193"><ele>1144.0</ele><time>2026-04-24T12:02:18.999Z</time></trkpt><trkpt lat="42.9555727" lon="12.9967875"><ele>1144.0</ele><time>2026-04-24T12:02:20.015Z</time></trkpt><trkpt lat="42.9556559" lon="12.996884"><ele>1144.0</ele><time>2026-04-24T12:02:21.009Z</time></trkpt><trkpt lat="42.9557445" lon="12.9969774"><ele>1144.0</ele><time>2026-04-24T12:02:22.125Z</time></trkpt><trkpt lat="42.955894" lon="12.9971294"><ele>1144.0</ele><time>2026-04-24T12:02:24.013Z</time></trkpt><trkpt lat="42.9559745" lon="12.9971592"><ele>1146.0</ele><time>2026-04-24T12:02:24.999Z</time></trkpt><trkpt lat="42.9560741" lon="12.9971648"><ele>1148.0</ele><time>2026-04-24T12:02:25.981Z</time></trkpt><trkpt lat="42.9561814" lon="12.9971364"><ele>1150.0</ele><time>2026-04-24T12:02:27.003Z</time></trkpt><trkpt lat="42.9562963" lon="12.9971075"><ele>1152.0</ele><time>2026-04-24T12:02:27.997Z</time></trkpt><trkpt lat="42.9564013" lon="12.9971032"><ele>1154.0</ele><time>2026-04-24T12:02:29.008Z</time></trkpt><trkpt lat="42.9564977" lon="12.9971251"><ele>1154.0</ele><time>2026-04-24T12:02:29.993Z</time></trkpt><trkpt lat="42.9565888" lon="12.9971745"><ele>1154.0</ele><time>2026-04-24T12:02:31.013Z</time></trkpt><trkpt lat="42.9566571" lon="12.9972441"><ele>1154.0</ele><time>2026-04-24T12:02:32.006Z</time></trkpt><trkpt lat="42.9567175" lon="12.997339"><ele>1154.0</ele><time>2026-04-24T12:02:33.018Z</time></trkpt><trkpt lat="42.9568023" lon="12.9974398"><ele>1154.0</ele><time>2026-04-24T12:02:34.004Z</time></trkpt><trkpt lat="42.9569054" lon="12.9975424"><ele>1156.0</ele><time>2026-04-24T12:02:35.005Z</time></trkpt><trkpt lat="42.9570109" lon="12.9976529"><ele>1158.0</ele><time>2026-04-24T12:02:36Z</time></trkpt><trkpt lat="42.9571089" lon="12.9977593"><ele>1160.0</ele><time>2026-04-24T12:02:37.005Z</time></trkpt><trkpt lat="42.9571994" lon="12.9978469"><ele>1162.0</ele><time>2026-04-24T12:02:38.012Z</time></trkpt><trkpt lat="42.9572917" lon="12.997911"><ele>1162.0</ele><time>2026-04-24T12:02:38.997Z</time></trkpt><trkpt lat="42.9573942" lon="12.9979377"><ele>1162.0</ele><time>2026-04-24T12:02:40.003Z</time></trkpt><trkpt lat="42.9574997" lon="12.9979472"><ele>1162.0</ele><time>2026-04-24T12:02:41.014Z</time></trkpt><trkpt lat="42.9576005" lon="12.9979742"><ele>1162.0</ele><time>2026-04-24T12:02:42.01Z</time></trkpt><trkpt lat="42.9576915" lon="12.9980252"><ele>1162.0</ele><time>2026-04-24T12:02:43.008Z</time></trkpt><trkpt lat="42.9577741" lon="12.998077"><ele>1162.5</ele><time>2026-04-24T12:02:44.003Z</time></trkpt><trkpt lat="42.95784" lon="12.9981208"><ele>1163.0</ele><time>2026-04-24T12:02:45.014Z</time></trkpt><trkpt lat="42.9579304" lon="12.998141"><ele>1163.5</ele><time>2026-04-24T12:02:46.004Z</time></trkpt><trkpt lat="42.9580274" lon="12.9981477"><ele>1164.0</ele><time>2026-04-24T12:02:47.015Z</time></trkpt><trkpt lat="42.9581217" lon="12.9981255"><ele>1164.5</ele><time>2026-04-24T12:02:48.014Z</time></trkpt><trkpt lat="42.9582039" lon="12.9980956"><ele>1165.0</ele><time>2026-04-24T12:02:49Z</time></trkpt><trkpt lat="42.9583025" lon="12.9980904"><ele>1165.75</ele><time>2026-04-24T12:02:50.018Z</time></trkpt><trkpt lat="42.9584015" lon="12.998118"><ele>1166.5</ele><time>2026-04-24T12:02:51.018Z</time></trkpt><trkpt lat="42.9584936" lon="12.9981919"><ele>1167.25</ele><time>2026-04-24T12:02:52.008Z</time></trkpt><trkpt lat="42.9585989" lon="12.9982794"><ele>1168.0</ele><time>2026-04-24T12:02:52.986Z</time></trkpt><trkpt lat="42.958713" lon="12.9983567"><ele>1168.0</ele><time>2026-04-24T12:02:54.003Z</time></trkpt><trkpt lat="42.9588285" lon="12.9984228"><ele>1168.0</ele><time>2026-04-24T12:02:55.011Z</time></trkpt><trkpt lat="42.9589316" lon="12.998472"><ele>1168.0</ele><time>2026-04-24T12:02:56.004Z</time></trkpt><trkpt lat="42.9590255" lon="12.99851"><ele>1168.0</ele><time>2026-04-24T12:02:57.01Z</time></trkpt><trkpt lat="42.9590973" lon="12.9985621"><ele>1168.0</ele><time>2026-04-24T12:02:58.003Z</time></trkpt><trkpt lat="42.9591502" lon="12.9986401"><ele>1168.0</ele><time>2026-04-24T12:02:58.983Z</time></trkpt><trkpt lat="42.9591976" lon="12.9987335"><ele>1168.0</ele><time>2026-04-24T12:03:00.012Z</time></trkpt><trkpt lat="42.9592563" lon="12.9988281"><ele>1168.0</ele><time>2026-04-24T12:03:00.989Z</time></trkpt><trkpt lat="42.959304" lon="12.9988957"><ele>1168.0</ele><time>2026-04-24T12:03:02.009Z</time></trkpt><trkpt lat="42.9593662" lon="12.9989477"><ele>1168.0</ele><time>2026-04-24T12:03:03.013Z</time></trkpt><trkpt lat="42.9594462" lon="12.9989783"><ele>1168.0</ele><time>2026-04-24T12:03:04.004Z</time></trkpt><trkpt lat="42.9595361" lon="12.99898"><ele>1169.6</ele><time>2026-04-24T12:03:05.002Z</time></trkpt><trkpt lat="42.9596335" lon="12.9989524"><ele>1171.1999999999998</ele><time>2026-04-24T12:03:05.985Z</time></trkpt><trkpt lat="42.9597356" lon="12.9989093"><ele>1172.8</ele><time>2026-04-24T12:03:07.011Z</time></trkpt><trkpt lat="42.9598423" lon="12.9988499"><ele>1174.3999999999999</ele><time>2026-04-24T12:03:07.995Z</time></trkpt><trkpt lat="42.9599527" lon="12.9988175"><ele>1176.0</ele><time>2026-04-24T12:03:09.017Z</time></trkpt><trkpt lat="42.9600649" lon="12.9987986"><ele>1178.75</ele><time>2026-04-24T12:03:10.003Z</time></trkpt><trkpt lat="42.9601845" lon="12.9987662"><ele>1181.5</ele><time>2026-04-24T12:03:10.987Z</time></trkpt><trkpt lat="42.9603125" lon="12.9987387"><ele>1184.25</ele><time>2026-04-24T12:03:12.009Z</time></trkpt><trkpt lat="42.960432" lon="12.9987265"><ele>1187.0</ele><time>2026-04-24T12:03:13.015Z</time></trkpt><trkpt lat="42.9605479" lon="12.9987352"><ele>1187.0</ele><time>2026-04-24T12:03:14.005Z</time></trkpt><trkpt lat="42.960661" lon="12.9987497"><ele>1187.0</ele><time>2026-04-24T12:03:15.011Z</time></trkpt><trkpt lat="42.9607513" lon="12.9987685"><ele>1187.0</ele><time>2026-04-24T12:03:16.01Z</time></trkpt><trkpt lat="42.9608304" lon="12.9988111"><ele>1187.0</ele><time>2026-04-24T12:03:17.019Z</time></trkpt><trkpt lat="42.9609191" lon="12.9988664"><ele>1187.0</ele><time>2026-04-24T12:03:18.01Z</time></trkpt><trkpt lat="42.961011" lon="12.9989278"><ele>1188.4</ele><time>2026-04-24T12:03:19.005Z</time></trkpt><trkpt lat="42.9611113" lon="12.9989883"><ele>1189.8000000000002</ele><time>2026-04-24T12:03:20.009Z</time></trkpt><trkpt lat="42.9611969" lon="12.9990252"><ele>1191.2</ele><time>2026-04-24T12:03:21.004Z</time></trkpt><trkpt lat="42.9612765" lon="12.9990393"><ele>1192.6000000000001</ele><time>2026-04-24T12:03:22.008Z</time></trkpt><trkpt lat="42.9613696" lon="12.9990367"><ele>1194.0</ele><time>2026-04-24T12:03:23.003Z</time></trkpt><trkpt lat="42.9614603" lon="12.9990126"><ele>1194.0</ele><time>2026-04-24T12:03:24.007Z</time></trkpt><trkpt lat="42.9615407" lon="12.9989785"><ele>1194.0</ele><time>2026-04-24T12:03:25.016Z</time></trkpt><trkpt lat="42.9616008" lon="12.9989448"><ele>1194.0</ele><time>2026-04-24T12:03:25.995Z</time></trkpt><trkpt lat="42.9616649" lon="12.9989047"><ele>1194.0</ele><time>2026-04-24T12:03:27.02Z</time></trkpt><trkpt lat="42.961736" lon="12.9988469"><ele>1194.0</ele><time>2026-04-24T12:03:28.009Z</time></trkpt><trkpt lat="42.9618117" lon="12.9987798"><ele>1194.0</ele><time>2026-04-24T12:03:29.016Z</time></trkpt><trkpt lat="42.9618862" lon="12.9986973"><ele>1193.6000000000001</ele><time>2026-04-24T12:03:30.019Z</time></trkpt><trkpt lat="42.9619596" lon="12.9986164"><ele>1193.2</ele><time>2026-04-24T12:03:31.018Z</time></trkpt><trkpt lat="42.9620346" lon="12.9985301"><ele>1192.8000000000002</ele><time>2026-04-24T12:03:32.016Z</time></trkpt><trkpt lat="42.9621113" lon="12.9984593"><ele>1192.4</ele><time>2026-04-24T12:03:33.019Z</time></trkpt><trkpt lat="42.9621944" lon="12.9984047"><ele>1192.0</ele><time>2026-04-24T12:03:34.011Z</time></trkpt><trkpt lat="42.9622724" lon="12.9983374"><ele>1190.8</ele><time>2026-04-24T12:03:35.017Z</time></trkpt><trkpt lat="42.9623416" lon="12.9982437"><ele>1189.6</ele><time>2026-04-24T12:03:36.016Z</time></trkpt><trkpt lat="42.9624083" lon="12.998151"><ele>1188.3999999999999</ele><time>2026-04-24T12:03:37.012Z</time></trkpt><trkpt lat="42.9624794" lon="12.9980633"><ele>1187.2</ele><time>2026-04-24T12:03:38.009Z</time></trkpt><trkpt lat="42.9625594" lon="12.9979737"><ele>1186.0</ele><time>2026-04-24T12:03:39.024Z</time></trkpt><trkpt lat="42.9626457" lon="12.9978858"><ele>1183.3999999999999</ele><time>2026-04-24T12:03:40.014Z</time></trkpt><trkpt lat="42.9627289" lon="12.9977989"><ele>1180.8</ele><time>2026-04-24T12:03:41.021Z</time></trkpt><trkpt lat="42.9628072" lon="12.9977061"><ele>1178.1999999999998</ele><time>2026-04-24T12:03:42.016Z</time></trkpt><trkpt lat="42.96289" lon="12.9976172"><ele>1175.6</ele><time>2026-04-24T12:03:43.02Z</time></trkpt><trkpt lat="42.9629816" lon="12.9975261"><ele>1173.0</ele><time>2026-04-24T12:03:44.018Z</time></trkpt><trkpt lat="42.9630704" lon="12.9974324"><ele>1173.0</ele><time>2026-04-24T12:03:45.01Z</time></trkpt><trkpt lat="42.9631565" lon="12.9973361"><ele>1173.0</ele><time>2026-04-24T12:03:46.015Z</time></trkpt><trkpt lat="42.9632369" lon="12.9972426"><ele>1173.0</ele><time>2026-04-24T12:03:47.004Z</time></trkpt><trkpt lat="42.9633104" lon="12.9971576"><ele>1173.0</ele><time>2026-04-24T12:03:48.002Z</time></trkpt><trkpt lat="42.9633813" lon="12.9970628"><ele>1173.0</ele><time>2026-04-24T12:03:49.016Z</time></trkpt><trkpt lat="42.9634443" lon="12.9969529"><ele>1167.8</ele><time>2026-04-24T12:03:50.015Z</time></trkpt><trkpt lat="42.9634934" lon="12.9968189"><ele>1162.6</ele><time>2026-04-24T12:03:51.016Z</time></trkpt><trkpt lat="42.9635265" lon="12.9966871"><ele>1157.4</ele><time>2026-04-24T12:03:52.016Z</time></trkpt><trkpt lat="42.9635627" lon="12.9965682"><ele>1152.2</ele><time>2026-04-24T12:03:53.015Z</time></trkpt><trkpt lat="42.9635968" lon="12.9964528"><ele>1147.0</ele><time>2026-04-24T12:03:54.018Z</time></trkpt><trkpt lat="42.9636314" lon="12.9963408"><ele>1147.0</ele><time>2026-04-24T12:03:55.017Z</time></trkpt><trkpt lat="42.9636764" lon="12.9962344"><ele>1147.0</ele><time>2026-04-24T12:03:56.006Z</time></trkpt><trkpt lat="42.9637354" lon="12.996146"><ele>1147.0</ele><time>2026-04-24T12:03:57.007Z</time></trkpt><trkpt lat="42.9637869" lon="12.9960598"><ele>1147.0</ele><time>2026-04-24T12:03:57.998Z</time></trkpt><trkpt lat="42.9638159" lon="12.9959741"><ele>1147.0</ele><time>2026-04-24T12:03:59.013Z</time></trkpt><trkpt lat="42.9638108" lon="12.9958073"><ele>1148.0</ele><time>2026-04-24T12:04:01.019Z</time></trkpt><trkpt lat="42.9637962" lon="12.9957203"><ele>1149.0</ele><time>2026-04-24T12:04:02.007Z</time></trkpt><trkpt lat="42.9637732" lon="12.9956142"><ele>1150.0</ele><time>2026-04-24T12:04:03.006Z</time></trkpt><trkpt lat="42.9637485" lon="12.995517"><ele>1151.0</ele><time>2026-04-24T12:04:04.005Z</time></trkpt><trkpt lat="42.9637261" lon="12.9954152"><ele>1152.0</ele><time>2026-04-24T12:04:05.009Z</time></trkpt><trkpt lat="42.9637031" lon="12.9953056"><ele>1153.0</ele><time>2026-04-24T12:04:06.002Z</time></trkpt><trkpt lat="42.9636817" lon="12.9952044"><ele>1153.0</ele><time>2026-04-24T12:04:07.001Z</time></trkpt><trkpt lat="42.9636661" lon="12.9951161"><ele>1153.0</ele><time>2026-04-24T12:04:07.994Z</time></trkpt><trkpt lat="42.9636517" lon="12.9950067"><ele>1153.0</ele><time>2026-04-24T12:04:09.999Z</time></trkpt><trkpt lat="42.9637061" lon="12.9949528"><ele>1153.0</ele><time>2026-04-24T12:04:12Z</time></trkpt><trkpt lat="42.963783" lon="12.99489"><ele>1153.0</ele><time>2026-04-24T12:04:13.985Z</time></trkpt><trkpt lat="42.9638808" lon="12.9948708"><ele>1153.0</ele><time>2026-04-24T12:04:16.005Z</time></trkpt><trkpt lat="42.9639714" lon="12.994859"><ele>1153.6</ele><time>2026-04-24T12:04:17.003Z</time></trkpt><trkpt lat="42.9640789" lon="12.9948272"><ele>1154.1999999999998</ele><time>2026-04-24T12:04:17.995Z</time></trkpt><trkpt lat="42.9641722" lon="12.9947634"><ele>1154.8</ele><time>2026-04-24T12:04:18.998Z</time></trkpt><trkpt lat="42.9642519" lon="12.9946869"><ele>1155.3999999999999</ele><time>2026-04-24T12:04:20.006Z</time></trkpt><trkpt lat="42.9643217" lon="12.9946101"><ele>1156.0</ele><time>2026-04-24T12:04:20.988Z</time></trkpt><trkpt lat="42.9643844" lon="12.9945295"><ele>1153.2</ele><time>2026-04-24T12:04:21.99Z</time></trkpt><trkpt lat="42.964457" lon="12.9944585"><ele>1150.3999999999999</ele><time>2026-04-24T12:04:22.996Z</time></trkpt><trkpt lat="42.9645351" lon="12.9943907"><ele>1147.6</ele><time>2026-04-24T12:04:23.99Z</time></trkpt><trkpt lat="42.9646151" lon="12.9943313"><ele>1144.8</ele><time>2026-04-24T12:04:25.001Z</time></trkpt><trkpt lat="42.9647021" lon="12.9942578"><ele>1142.0</ele><time>2026-04-24T12:04:26.007Z</time></trkpt><trkpt lat="42.9647656" lon="12.9941697"><ele>1142.0</ele><time>2026-04-24T12:04:26.999Z</time></trkpt><trkpt lat="42.9648235" lon="12.9940788"><ele>1142.0</ele><time>2026-04-24T12:04:28.01Z</time></trkpt><trkpt lat="42.9648926" lon="12.993985"><ele>1142.0</ele><time>2026-04-24T12:04:29.001Z</time></trkpt><trkpt lat="42.9649747" lon="12.9939042"><ele>1142.0</ele><time>2026-04-24T12:04:30.004Z</time></trkpt><trkpt lat="42.965065" lon="12.9938348"><ele>1142.0</ele><time>2026-04-24T12:04:31.008Z</time></trkpt><trkpt lat="42.9651563" lon="12.9937709"><ele>1136.4</ele><time>2026-04-24T12:04:31.972Z</time></trkpt><trkpt lat="42.9652309" lon="12.9937104"><ele>1130.8000000000002</ele><time>2026-04-24T12:04:33.01Z</time></trkpt><trkpt lat="42.9652979" lon="12.9936288"><ele>1125.2</ele><time>2026-04-24T12:04:34.009Z</time></trkpt><trkpt lat="42.965365" lon="12.9935294"><ele>1119.6000000000001</ele><time>2026-04-24T12:04:35.004Z</time></trkpt><trkpt lat="42.9654074" lon="12.9934046"><ele>1114.0</ele><time>2026-04-24T12:04:35.997Z</time></trkpt><trkpt lat="42.9654412" lon="12.9932688"><ele>1114.0</ele><time>2026-04-24T12:04:37.002Z</time></trkpt><trkpt lat="42.9654466" lon="12.993121"><ele>1114.0</ele><time>2026-04-24T12:04:38.007Z</time></trkpt><trkpt lat="42.9654512" lon="12.9929884"><ele>1114.0</ele><time>2026-04-24T12:04:39.004Z</time></trkpt><trkpt lat="42.9654528" lon="12.9928686"><ele>1114.0</ele><time>2026-04-24T12:04:39.988Z</time></trkpt><trkpt lat="42.9654528" lon="12.99274"><ele>1114.0</ele><time>2026-04-24T12:04:41.003Z</time></trkpt><trkpt lat="42.9654445" lon="12.9926094"><ele>1113.6666666666665</ele><time>2026-04-24T12:04:41.983Z</time></trkpt><trkpt lat="42.9654368" lon="12.9924733"><ele>1113.3333333333333</ele><time>2026-04-24T12:04:43.009Z</time></trkpt><trkpt lat="42.9654344" lon="12.9923486"><ele>1113.0</ele><time>2026-04-24T12:04:44.003Z</time></trkpt><trkpt lat="42.9654421" lon="12.9922255"><ele>1112.6666666666667</ele><time>2026-04-24T12:04:45.012Z</time></trkpt><trkpt lat="42.9654458" lon="12.9921149"><ele>1112.3333333333335</ele><time>2026-04-24T12:04:46.003Z</time></trkpt><trkpt lat="42.9654536" lon="12.9920095"><ele>1112.0</ele><time>2026-04-24T12:04:46.991Z</time></trkpt><trkpt lat="42.9654709" lon="12.9919001"><ele>1112.0</ele><time>2026-04-24T12:04:47.998Z</time></trkpt><trkpt lat="42.965495" lon="12.9917867"><ele>1112.0</ele><time>2026-04-24T12:04:49.009Z</time></trkpt><trkpt lat="42.9655218" lon="12.9916804"><ele>1112.0</ele><time>2026-04-24T12:04:49.988Z</time></trkpt><trkpt lat="42.9655665" lon="12.9915743"><ele>1112.0</ele><time>2026-04-24T12:04:51.001Z</time></trkpt><trkpt lat="42.9656179" lon="12.9914632"><ele>1112.0</ele><time>2026-04-24T12:04:52.009Z</time></trkpt><trkpt lat="42.9656816" lon="12.9913551"><ele>1112.2</ele><time>2026-04-24T12:04:52.998Z</time></trkpt><trkpt lat="42.9657498" lon="12.9912551"><ele>1112.4</ele><time>2026-04-24T12:04:53.98Z</time></trkpt><trkpt lat="42.9658245" lon="12.9911588"><ele>1112.6</ele><time>2026-04-24T12:04:54.996Z</time></trkpt><trkpt lat="42.965901" lon="12.991076"><ele>1112.8</ele><time>2026-04-24T12:04:55.989Z</time></trkpt><trkpt lat="42.9659822" lon="12.9909877"><ele>1113.0</ele><time>2026-04-24T12:04:56.989Z</time></trkpt><trkpt lat="42.9660602" lon="12.9909028"><ele>1109.0</ele><time>2026-04-24T12:04:57.982Z</time></trkpt><trkpt lat="42.9661364" lon="12.990819"><ele>1105.0</ele><time>2026-04-24T12:04:58.975Z</time></trkpt><trkpt lat="42.9661878" lon="12.9907522"><ele>1101.0</ele><time>2026-04-24T12:04:59.972Z</time></trkpt><trkpt lat="42.9662763" lon="12.990659"><ele>1097.0</ele><time>2026-04-24T12:05:01.968Z</time></trkpt><trkpt lat="42.9663414" lon="12.9905718"><ele>1093.0</ele><time>2026-04-24T12:05:03.99Z</time></trkpt><trkpt lat="42.9664189" lon="12.9905319"><ele>1093.0</ele><time>2026-04-24T12:05:05.989Z</time></trkpt><trkpt lat="42.9665188" lon="12.9905361"><ele>1093.0</ele><time>2026-04-24T12:05:07.992Z</time></trkpt><trkpt lat="42.9665956" lon="12.9905532"><ele>1093.0</ele><time>2026-04-24T12:05:09.996Z</time></trkpt><trkpt lat="42.9667185" lon="12.9905612"><ele>1093.0</ele><time>2026-04-24T12:05:12.008Z</time></trkpt><trkpt lat="42.9667968" lon="12.9905507"><ele>1093.0</ele><time>2026-04-24T12:05:12.994Z</time></trkpt><trkpt lat="42.9668605" lon="12.9905438"><ele>1093.0</ele><time>2026-04-24T12:05:13.998Z</time></trkpt><trkpt lat="42.9669361" lon="12.9905092"><ele>1090.6666666666665</ele><time>2026-04-24T12:05:14.994Z</time></trkpt><trkpt lat="42.9670076" lon="12.9905"><ele>1088.3333333333333</ele><time>2026-04-24T12:05:15.985Z</time></trkpt><trkpt lat="42.9670791" lon="12.9904875"><ele>1086.0</ele><time>2026-04-24T12:05:17.002Z</time></trkpt><trkpt lat="42.967161" lon="12.9904551"><ele>1083.6666666666667</ele><time>2026-04-24T12:05:17.991Z</time></trkpt><trkpt lat="42.9672408" lon="12.990423"><ele>1081.3333333333335</ele><time>2026-04-24T12:05:18.993Z</time></trkpt><trkpt lat="42.967326" lon="12.9903957"><ele>1079.0</ele><time>2026-04-24T12:05:19.984Z</time></trkpt><trkpt lat="42.9674111" lon="12.9903682"><ele>1079.0</ele><time>2026-04-24T12:05:20.994Z</time></trkpt><trkpt lat="42.9674891" lon="12.9903458"><ele>1079.0</ele><time>2026-04-24T12:05:22.012Z</time></trkpt><trkpt lat="42.9675754" lon="12.9903291"><ele>1079.0</ele><time>2026-04-24T12:05:23.001Z</time></trkpt><trkpt lat="42.967671" lon="12.9903205"><ele>1079.0</ele><time>2026-04-24T12:05:23.975Z</time></trkpt><trkpt lat="42.9677734" lon="12.9903115"><ele>1079.0</ele><time>2026-04-24T12:05:25.012Z</time></trkpt><trkpt lat="42.9678639" lon="12.9903158"><ele>1077.6666666666667</ele><time>2026-04-24T12:05:26.001Z</time></trkpt><trkpt lat="42.9679491" lon="12.9903192"><ele>1076.3333333333335</ele><time>2026-04-24T12:05:27.003Z</time></trkpt><trkpt lat="42.9680377" lon="12.9903139"><ele>1075.0</ele><time>2026-04-24T12:05:28.005Z</time></trkpt><trkpt lat="42.9681228" lon="12.9903186"><ele>1073.6666666666667</ele><time>2026-04-24T12:05:29.009Z</time></trkpt><trkpt lat="42.9682126" lon="12.9903426"><ele>1072.3333333333333</ele><time>2026-04-24T12:05:29.999Z</time></trkpt><trkpt lat="42.9683061" lon="12.9903835"><ele>1071.0</ele><time>2026-04-24T12:05:30.977Z</time></trkpt><trkpt lat="42.9684148" lon="12.9904283"><ele>1071.0</ele><time>2026-04-24T12:05:31.998Z</time></trkpt><trkpt lat="42.9685268" lon="12.9904698"><ele>1071.0</ele><time>2026-04-24T12:05:33.007Z</time></trkpt><trkpt lat="42.9686383" lon="12.9905111"><ele>1071.0</ele><time>2026-04-24T12:05:34.005Z</time></trkpt><trkpt lat="42.9687488" lon="12.9905444"><ele>1071.0</ele><time>2026-04-24T12:05:35.009Z</time></trkpt><trkpt lat="42.9688585" lon="12.9905698"><ele>1071.0</ele><time>2026-04-24T12:05:36.008Z</time></trkpt><trkpt lat="42.9689695" lon="12.9906065"><ele>1071.0</ele><time>2026-04-24T12:05:37.007Z</time></trkpt><trkpt lat="42.9690681" lon="12.9906462"><ele>1071.0</ele><time>2026-04-24T12:05:38.015Z</time></trkpt><trkpt lat="42.9691626" lon="12.9906991"><ele>1071.0</ele><time>2026-04-24T12:05:39.012Z</time></trkpt><trkpt lat="42.9692569" lon="12.9907547"><ele>1071.0</ele><time>2026-04-24T12:05:40.009Z</time></trkpt><trkpt lat="42.9693459" lon="12.9908008"><ele>1072.3999999999999</ele><time>2026-04-24T12:05:41.009Z</time></trkpt><trkpt lat="42.9694249" lon="12.9908224"><ele>1073.8</ele><time>2026-04-24T12:05:42.011Z</time></trkpt><trkpt lat="42.9694998" lon="12.9908256"><ele>1075.1999999999998</ele><time>2026-04-24T12:05:43.014Z</time></trkpt><trkpt lat="42.9695646" lon="12.9908104"><ele>1076.6</ele><time>2026-04-24T12:05:44.007Z</time></trkpt><trkpt lat="42.9696258" lon="12.9907743"><ele>1078.0</ele><time>2026-04-24T12:05:45.012Z</time></trkpt><trkpt lat="42.9697492" lon="12.9906222"><ele>1078.0</ele><time>2026-04-24T12:05:48.008Z</time></trkpt><trkpt lat="42.9698575" lon="12.9906329"><ele>1078.0</ele><time>2026-04-24T12:05:50.011Z</time></trkpt><trkpt lat="42.9699218" lon="12.9906801"><ele>1078.0</ele><time>2026-04-24T12:05:51.007Z</time></trkpt><trkpt lat="42.9699762" lon="12.9907574"><ele>1078.0</ele><time>2026-04-24T12:05:52Z</time></trkpt><trkpt lat="42.9700445" lon="12.990849"><ele>1078.0</ele><time>2026-04-24T12:05:52.998Z</time></trkpt><trkpt lat="42.9701112" lon="12.9909408"><ele>1076.6</ele><time>2026-04-24T12:05:53.997Z</time></trkpt><trkpt lat="42.9701781" lon="12.9910391"><ele>1075.1999999999998</ele><time>2026-04-24T12:05:55.003Z</time></trkpt><trkpt lat="42.9702522" lon="12.9911448"><ele>1073.8</ele><time>2026-04-24T12:05:55.977Z</time></trkpt><trkpt lat="42.9703304" lon="12.991235"><ele>1072.3999999999999</ele><time>2026-04-24T12:05:56.998Z</time></trkpt><trkpt lat="42.9704127" lon="12.9913167"><ele>1071.0</ele><time>2026-04-24T12:05:57.989Z</time></trkpt><trkpt lat="42.9704967" lon="12.9913871"><ele>1071.0</ele><time>2026-04-24T12:05:58.992Z</time></trkpt><trkpt lat="42.9705806" lon="12.9914465"><ele>1071.0</ele><time>2026-04-24T12:05:59.998Z</time></trkpt><trkpt lat="42.9706591" lon="12.9914773"><ele>1071.0</ele><time>2026-04-24T12:06:00.992Z</time></trkpt><trkpt lat="42.9707415" lon="12.9914645"><ele>1071.0</ele><time>2026-04-24T12:06:01.986Z</time></trkpt><trkpt lat="42.9708263" lon="12.9914363"><ele>1071.0</ele><time>2026-04-24T12:06:02.992Z</time></trkpt><trkpt lat="42.9709217" lon="12.991395"><ele>1071.0</ele><time>2026-04-24T12:06:03.993Z</time></trkpt><trkpt lat="42.9710121" lon="12.9913447"><ele>1071.6666666666667</ele><time>2026-04-24T12:06:05.003Z</time></trkpt><trkpt lat="42.971097" lon="12.9913153"><ele>1072.3333333333333</ele><time>2026-04-24T12:06:05.973Z</time></trkpt><trkpt lat="42.9711658" lon="12.9913122"><ele>1073.0</ele><time>2026-04-24T12:06:06.99Z</time></trkpt><trkpt lat="42.9712197" lon="12.9914167"><ele>1073.6666666666665</ele><time>2026-04-24T12:06:08.995Z</time></trkpt><trkpt lat="42.9712363" lon="12.9915223"><ele>1074.3333333333333</ele><time>2026-04-24T12:06:10.009Z</time></trkpt><trkpt lat="42.9712572" lon="12.9916542"><ele>1075.0</ele><time>2026-04-24T12:06:10.999Z</time></trkpt><trkpt lat="42.9712776" lon="12.991785"><ele>1075.0</ele><time>2026-04-24T12:06:12.017Z</time></trkpt><trkpt lat="42.9712818" lon="12.9919055"><ele>1075.0</ele><time>2026-04-24T12:06:13.012Z</time></trkpt><trkpt lat="42.9712859" lon="12.9920248"><ele>1075.0</ele><time>2026-04-24T12:06:14.009Z</time></trkpt><trkpt lat="42.971303" lon="12.9921373"><ele>1075.0</ele><time>2026-04-24T12:06:15.019Z</time></trkpt><trkpt lat="42.9713351" lon="12.9922364"><ele>1075.0</ele><time>2026-04-24T12:06:16.015Z</time></trkpt><trkpt lat="42.9713929" lon="12.9923232"><ele>1075.0</ele><time>2026-04-24T12:06:17.01Z</time></trkpt><trkpt lat="42.9714511" lon="12.9923952"><ele>1075.0</ele><time>2026-04-24T12:06:18.011Z</time></trkpt><trkpt lat="42.9715042" lon="12.9924691"><ele>1075.0</ele><time>2026-04-24T12:06:19.007Z</time></trkpt><trkpt lat="42.9715594" lon="12.9925472"><ele>1075.0</ele><time>2026-04-24T12:06:19.992Z</time></trkpt><trkpt lat="42.9716153" lon="12.992623"><ele>1075.0</ele><time>2026-04-24T12:06:21Z</time></trkpt><trkpt lat="42.9716858" lon="12.9926838"><ele>1075.0</ele><time>2026-04-24T12:06:22.011Z</time></trkpt><trkpt lat="42.9717635" lon="12.9927379"><ele>1075.0</ele><time>2026-04-24T12:06:23Z</time></trkpt><trkpt lat="42.9718459" lon="12.9927863"><ele>1074.4</ele><time>2026-04-24T12:06:23.997Z</time></trkpt><trkpt lat="42.971933" lon="12.9928194"><ele>1073.8</ele><time>2026-04-24T12:06:24.99Z</time></trkpt><trkpt lat="42.9720285" lon="12.9928489"><ele>1073.2</ele><time>2026-04-24T12:06:25.999Z</time></trkpt><trkpt lat="42.9721403" lon="12.9928816"><ele>1072.6</ele><time>2026-04-24T12:06:26.999Z</time></trkpt><trkpt lat="42.9722641" lon="12.9929201"><ele>1072.0</ele><time>2026-04-24T12:06:28.008Z</time></trkpt><trkpt lat="42.9723729" lon="12.9929613"><ele>1072.0</ele><time>2026-04-24T12:06:29.016Z</time></trkpt><trkpt lat="42.9724722" lon="12.9930111"><ele>1072.0</ele><time>2026-04-24T12:06:30.001Z</time></trkpt><trkpt lat="42.9725695" lon="12.9930583"><ele>1072.0</ele><time>2026-04-24T12:06:31.006Z</time></trkpt><trkpt lat="42.9726638" lon="12.993086"><ele>1072.0</ele><time>2026-04-24T12:06:32.002Z</time></trkpt><trkpt lat="42.9727508" lon="12.9931333"><ele>1072.0</ele><time>2026-04-24T12:06:33.003Z</time></trkpt><trkpt lat="42.9728132" lon="12.9932095"><ele>1072.6</ele><time>2026-04-24T12:06:34.01Z</time></trkpt><trkpt lat="42.9728618" lon="12.9933034"><ele>1073.2</ele><time>2026-04-24T12:06:35.01Z</time></trkpt><trkpt lat="42.9729029" lon="12.9933846"><ele>1073.8</ele><time>2026-04-24T12:06:36.009Z</time></trkpt><trkpt lat="42.9729767" lon="12.9934667"><ele>1074.4</ele><time>2026-04-24T12:06:37.017Z</time></trkpt><trkpt lat="42.9730689" lon="12.9935342"><ele>1075.0</ele><time>2026-04-24T12:06:38.012Z</time></trkpt><trkpt lat="42.9731605" lon="12.9935937"><ele>1075.0</ele><time>2026-04-24T12:06:38.985Z</time></trkpt><trkpt lat="42.9732485" lon="12.9936593"><ele>1075.0</ele><time>2026-04-24T12:06:40.009Z</time></trkpt><trkpt lat="42.9733343" lon="12.9937102"><ele>1075.0</ele><time>2026-04-24T12:06:40.992Z</time></trkpt><trkpt lat="42.9734165" lon="12.9937567"><ele>1075.0</ele><time>2026-04-24T12:06:41.996Z</time></trkpt><trkpt lat="42.9734909" lon="12.9938082"><ele>1075.0</ele><time>2026-04-24T12:06:43.003Z</time></trkpt><trkpt lat="42.9735545" lon="12.9938634"><ele>1075.0</ele><time>2026-04-24T12:06:43.998Z</time></trkpt><trkpt lat="42.9736121" lon="12.9939374"><ele>1075.6666666666665</ele><time>2026-04-24T12:06:45.019Z</time></trkpt><trkpt lat="42.9736509" lon="12.9940246"><ele>1076.3333333333333</ele><time>2026-04-24T12:06:46.018Z</time></trkpt><trkpt lat="42.9736841" lon="12.9941115"><ele>1077.0</ele><time>2026-04-24T12:06:47.01Z</time></trkpt><trkpt lat="42.9737091" lon="12.9941961"><ele>1077.6666666666667</ele><time>2026-04-24T12:06:48.011Z</time></trkpt><trkpt lat="42.973786" lon="12.9943133"><ele>1078.3333333333335</ele><time>2026-04-24T12:06:50.006Z</time></trkpt><trkpt lat="42.9738398" lon="12.9943587"><ele>1079.0</ele><time>2026-04-24T12:06:51.016Z</time></trkpt><trkpt lat="42.9739053" lon="12.9944025"><ele>1077.0</ele><time>2026-04-24T12:06:51.996Z</time></trkpt><trkpt lat="42.9739785" lon="12.9944233"><ele>1075.0</ele><time>2026-04-24T12:06:52.993Z</time></trkpt><trkpt lat="42.974054" lon="12.9944279"><ele>1073.0</ele><time>2026-04-24T12:06:54.013Z</time></trkpt><trkpt lat="42.9741339" lon="12.9944203"><ele>1071.0</ele><time>2026-04-24T12:06:55.001Z</time></trkpt><trkpt lat="42.9742155" lon="12.9944173"><ele>1069.0</ele><time>2026-04-24T12:06:56.005Z</time></trkpt><trkpt lat="42.9742979" lon="12.9944335"><ele>1067.0</ele><time>2026-04-24T12:06:57.016Z</time></trkpt><trkpt lat="42.9743833" lon="12.9944519"><ele>1064.5714285714284</ele><time>2026-04-24T12:06:58.002Z</time></trkpt><trkpt lat="42.9744598" lon="12.9944864"><ele>1062.142857142857</ele><time>2026-04-24T12:06:59.012Z</time></trkpt><trkpt lat="42.9745327" lon="12.9945357"><ele>1059.7142857142858</ele><time>2026-04-24T12:07:00.012Z</time></trkpt><trkpt lat="42.9745948" lon="12.9945908"><ele>1057.2857142857142</ele><time>2026-04-24T12:07:00.981Z</time></trkpt><trkpt lat="42.9746473" lon="12.9946434"><ele>1054.857142857143</ele><time>2026-04-24T12:07:02.01Z</time></trkpt><trkpt lat="42.9747045" lon="12.9946929"><ele>1052.4285714285713</ele><time>2026-04-24T12:07:03.006Z</time></trkpt><trkpt lat="42.9747643" lon="12.9947351"><ele>1050.0</ele><time>2026-04-24T12:07:04.008Z</time></trkpt><trkpt lat="42.9748305" lon="12.9947526"><ele>1050.0</ele><time>2026-04-24T12:07:05.006Z</time></trkpt><trkpt lat="42.9748964" lon="12.9947588"><ele>1050.0</ele><time>2026-04-24T12:07:05.982Z</time></trkpt><trkpt lat="42.9750083" lon="12.9947371"><ele>1050.0</ele><time>2026-04-24T12:07:08.009Z</time></trkpt><trkpt lat="42.9750977" lon="12.9946946"><ele>1050.0</ele><time>2026-04-24T12:07:10.008Z</time></trkpt><trkpt lat="42.9751892" lon="12.9946679"><ele>1050.0</ele><time>2026-04-24T12:07:12.008Z</time></trkpt><trkpt lat="42.9752881" lon="12.9946449"><ele>1049.4</ele><time>2026-04-24T12:07:14.012Z</time></trkpt><trkpt lat="42.9754045" lon="12.9946266"><ele>1048.8</ele><time>2026-04-24T12:07:16.011Z</time></trkpt><trkpt lat="42.9755249" lon="12.9946301"><ele>1048.2</ele><time>2026-04-24T12:07:18.013Z</time></trkpt><trkpt lat="42.9756436" lon="12.9946498"><ele>1047.6</ele><time>2026-04-24T12:07:20.008Z</time></trkpt><trkpt lat="42.9757126" lon="12.9946677"><ele>1047.0</ele><time>2026-04-24T12:07:21.006Z</time></trkpt><trkpt lat="42.975775" lon="12.9946999"><ele>1047.0</ele><time>2026-04-24T12:07:22Z</time></trkpt><trkpt lat="42.9758341" lon="12.9947378"><ele>1047.0</ele><time>2026-04-24T12:07:23.006Z</time></trkpt><trkpt lat="42.9759348" lon="12.9947975"><ele>1047.0</ele><time>2026-04-24T12:07:25.016Z</time></trkpt><trkpt lat="42.9760403" lon="12.9948462"><ele>1047.0</ele><time>2026-04-24T12:07:27.004Z</time></trkpt><trkpt lat="42.9761475" lon="12.9949131"><ele>1047.0</ele><time>2026-04-24T12:07:29.008Z</time></trkpt><trkpt lat="42.9762094" lon="12.9949514"><ele>1047.1666666666667</ele><time>2026-04-24T12:07:30.006Z</time></trkpt><trkpt lat="42.9762845" lon="12.9949811"><ele>1047.3333333333333</ele><time>2026-04-24T12:07:31.002Z</time></trkpt><trkpt lat="42.9763725" lon="12.9949879"><ele>1047.5</ele><time>2026-04-24T12:07:32.017Z</time></trkpt><trkpt lat="42.97646" lon="12.9949764"><ele>1047.6666666666665</ele><time>2026-04-24T12:07:33.003Z</time></trkpt><trkpt lat="42.9765418" lon="12.9949644"><ele>1047.8333333333333</ele><time>2026-04-24T12:07:33.997Z</time></trkpt><trkpt lat="42.9766176" lon="12.994967"><ele>1048.0</ele><time>2026-04-24T12:07:34.973Z</time></trkpt><trkpt lat="42.9766908" lon="12.9949877"><ele>1044.5714285714287</ele><time>2026-04-24T12:07:36.008Z</time></trkpt><trkpt lat="42.9767605" lon="12.995016"><ele>1041.1428571428573</ele><time>2026-04-24T12:07:37.016Z</time></trkpt><trkpt lat="42.9768273" lon="12.9950485"><ele>1037.7142857142858</ele><time>2026-04-24T12:07:38.006Z</time></trkpt><trkpt lat="42.9768956" lon="12.9950653"><ele>1034.2857142857142</ele><time>2026-04-24T12:07:39.02Z</time></trkpt><trkpt lat="42.9769652" lon="12.995079"><ele>1030.8571428571427</ele><time>2026-04-24T12:07:39.986Z</time></trkpt><trkpt lat="42.9770433" lon="12.995101"><ele>1027.4285714285713</ele><time>2026-04-24T12:07:40.99Z</time></trkpt><trkpt lat="42.977121" lon="12.995132"><ele>1024.0</ele><time>2026-04-24T12:07:42.002Z</time></trkpt><trkpt lat="42.9771999" lon="12.9951709"><ele>1023.9999999999999</ele><time>2026-04-24T12:07:42.998Z</time></trkpt><trkpt lat="42.9772847" lon="12.9952298"><ele>1024.0</ele><time>2026-04-24T12:07:44.003Z</time></trkpt><trkpt lat="42.9773623" lon="12.9952911"><ele>1024.0</ele><time>2026-04-24T12:07:45.003Z</time></trkpt><trkpt lat="42.9774323" lon="12.9953489"><ele>1024.0</ele><time>2026-04-24T12:07:46.009Z</time></trkpt><trkpt lat="42.9774982" lon="12.9954062"><ele>1023.9999999999999</ele><time>2026-04-24T12:07:46.986Z</time></trkpt><trkpt lat="42.9775679" lon="12.9954471"><ele>1024.0</ele><time>2026-04-24T12:07:47.978Z</time></trkpt><trkpt lat="42.9776294" lon="12.9954718"><ele>1022.4999999999999</ele><time>2026-04-24T12:07:49.01Z</time></trkpt><trkpt lat="42.977701" lon="12.9954659"><ele>1021.0</ele><time>2026-04-24T12:07:49.997Z</time></trkpt><trkpt lat="42.977781" lon="12.9954397"><ele>1019.5</ele><time>2026-04-24T12:07:51.001Z</time></trkpt><trkpt lat="42.9778659" lon="12.9953835"><ele>1018.0</ele><time>2026-04-24T12:07:51.998Z</time></trkpt><trkpt lat="42.9779479" lon="12.9953142"><ele>1016.4999999999999</ele><time>2026-04-24T12:07:53.003Z</time></trkpt><trkpt lat="42.9780305" lon="12.9952484"><ele>1015.0</ele><time>2026-04-24T12:07:54.016Z</time></trkpt><trkpt lat="42.9781132" lon="12.9951874"><ele>1014.9999999999999</ele><time>2026-04-24T12:07:55.009Z</time></trkpt><trkpt lat="42.9781948" lon="12.9951327"><ele>1015.0</ele><time>2026-04-24T12:07:56.013Z</time></trkpt><trkpt lat="42.9782782" lon="12.9950904"><ele>1015.0</ele><time>2026-04-24T12:07:57.015Z</time></trkpt><trkpt lat="42.9783492" lon="12.9950613"><ele>1015.0</ele><time>2026-04-24T12:07:58.015Z</time></trkpt><trkpt lat="42.97841" lon="12.9950303"><ele>1014.9999999999999</ele><time>2026-04-24T12:07:59.012Z</time></trkpt><trkpt lat="42.9784959" lon="12.9948992"><ele>1015.0</ele><time>2026-04-24T12:08:01.001Z</time></trkpt><trkpt lat="42.978526" lon="12.994805"><ele>1012.6</ele><time>2026-04-24T12:08:02.016Z</time></trkpt><trkpt lat="42.9785245" lon="12.9947089"><ele>1010.2</ele><time>2026-04-24T12:08:03.013Z</time></trkpt><trkpt lat="42.9785257" lon="12.9946004"><ele>1007.8</ele><time>2026-04-24T12:08:04.006Z</time></trkpt><trkpt lat="42.9785317" lon="12.9945025"><ele>1005.4</ele><time>2026-04-24T12:08:05.005Z</time></trkpt><trkpt lat="42.978585" lon="12.9943678"><ele>1003.0</ele><time>2026-04-24T12:08:07.024Z</time></trkpt><trkpt lat="42.9787293" lon="12.9942987"><ele>1003.0</ele><time>2026-04-24T12:08:08.982Z</time></trkpt><trkpt lat="42.9788422" lon="12.994272"><ele>1003.0</ele><time>2026-04-24T12:08:09.988Z</time></trkpt><trkpt lat="42.9789569" lon="12.994237"><ele>1003.0</ele><time>2026-04-24T12:08:10.997Z</time></trkpt><trkpt lat="42.979067" lon="12.9942146"><ele>1003.0</ele><time>2026-04-24T12:08:12.008Z</time></trkpt><trkpt lat="42.9791708" lon="12.9941492"><ele>1001.5</ele><time>2026-04-24T12:08:13.019Z</time></trkpt><trkpt lat="42.9792757" lon="12.9940669"><ele>1000.0</ele><time>2026-04-24T12:08:13.998Z</time></trkpt><trkpt lat="42.9793855" lon="12.9939805"><ele>998.5</ele><time>2026-04-24T12:08:15.021Z</time></trkpt><trkpt lat="42.9794918" lon="12.9939107"><ele>997.0</ele><time>2026-04-24T12:08:16.008Z</time></trkpt><trkpt lat="42.9796019" lon="12.9938466"><ele>997.0</ele><time>2026-04-24T12:08:16.99Z</time></trkpt><trkpt lat="42.9797118" lon="12.9937866"><ele>997.0</ele><time>2026-04-24T12:08:18.01Z</time></trkpt><trkpt lat="42.9798132" lon="12.9937208"><ele>997.0</ele><time>2026-04-24T12:08:19.009Z</time></trkpt><trkpt lat="42.9799022" lon="12.9936785"><ele>997.0</ele><time>2026-04-24T12:08:20.006Z</time></trkpt><trkpt lat="42.9799858" lon="12.9936434"><ele>997.0</ele><time>2026-04-24T12:08:20.983Z</time></trkpt><trkpt lat="42.9800715" lon="12.9936204"><ele>995.8333333333333</ele><time>2026-04-24T12:08:21.981Z</time></trkpt><trkpt lat="42.9801578" lon="12.9936027"><ele>994.6666666666666</ele><time>2026-04-24T12:08:23.012Z</time></trkpt><trkpt lat="42.9802537" lon="12.9935856"><ele>993.5</ele><time>2026-04-24T12:08:24.007Z</time></trkpt><trkpt lat="42.9803419" lon="12.9935516"><ele>992.3333333333333</ele><time>2026-04-24T12:08:25.008Z</time></trkpt><trkpt lat="42.980424" lon="12.993513"><ele>991.1666666666666</ele><time>2026-04-24T12:08:26.015Z</time></trkpt><trkpt lat="42.9804952" lon="12.9934747"><ele>990.0</ele><time>2026-04-24T12:08:27.009Z</time></trkpt><trkpt lat="42.98057" lon="12.9934612"><ele>990.0</ele><time>2026-04-24T12:08:28.016Z</time></trkpt><trkpt lat="42.9806601" lon="12.9934737"><ele>990.0</ele><time>2026-04-24T12:08:29.012Z</time></trkpt><trkpt lat="42.9807476" lon="12.9935051"><ele>990.0</ele><time>2026-04-24T12:08:30.006Z</time></trkpt><trkpt lat="42.9808037" lon="12.993572"><ele>990.0</ele><time>2026-04-24T12:08:31.005Z</time></trkpt><trkpt lat="42.9808556" lon="12.9936409"><ele>990.0</ele><time>2026-04-24T12:08:31.98Z</time></trkpt><trkpt lat="42.9809029" lon="12.9937357"><ele>990.0</ele><time>2026-04-24T12:08:32.977Z</time></trkpt><trkpt lat="42.9809495" lon="12.9938314"><ele>991.0</ele><time>2026-04-24T12:08:33.999Z</time></trkpt><trkpt lat="42.9810149" lon="12.9939291"><ele>992.0</ele><time>2026-04-24T12:08:35.004Z</time></trkpt><trkpt lat="42.9810898" lon="12.9940126"><ele>993.0</ele><time>2026-04-24T12:08:35.989Z</time></trkpt><trkpt lat="42.9811651" lon="12.9940612"><ele>994.0</ele><time>2026-04-24T12:08:36.988Z</time></trkpt><trkpt lat="42.9812348" lon="12.9940741"><ele>995.0</ele><time>2026-04-24T12:08:38Z</time></trkpt><trkpt lat="42.9813125" lon="12.9940123"><ele>996.0</ele><time>2026-04-24T12:08:39.987Z</time></trkpt><trkpt lat="42.9813713" lon="12.9939399"><ele>996.0</ele><time>2026-04-24T12:08:42.002Z</time></trkpt><trkpt lat="42.981483" lon="12.9939234"><ele>996.0</ele><time>2026-04-24T12:08:44.002Z</time></trkpt><trkpt lat="42.9815601" lon="12.993951"><ele>996.0</ele><time>2026-04-24T12:08:45.017Z</time></trkpt><trkpt lat="42.9816329" lon="12.9939783"><ele>996.0</ele><time>2026-04-24T12:08:45.976Z</time></trkpt><trkpt lat="42.9817057" lon="12.993997"><ele>996.0</ele><time>2026-04-24T12:08:46.992Z</time></trkpt><trkpt lat="42.9818036" lon="12.9939608"><ele>996.0</ele><time>2026-04-24T12:08:48.996Z</time></trkpt><trkpt lat="42.981829" lon="12.9937988"><ele>992.0</ele><time>2026-04-24T12:08:50.984Z</time></trkpt><trkpt lat="42.9818124" lon="12.9936628"><ele>987.9999999999999</ele><time>2026-04-24T12:08:51.994Z</time></trkpt><trkpt lat="42.9817936" lon="12.9935244"><ele>983.9999999999999</ele><time>2026-04-24T12:08:52.994Z</time></trkpt><trkpt lat="42.9817808" lon="12.9933938"><ele>980.0</ele><time>2026-04-24T12:08:53.996Z</time></trkpt><trkpt lat="42.981771" lon="12.9932582"><ele>976.0</ele><time>2026-04-24T12:08:55.005Z</time></trkpt><trkpt lat="42.981759" lon="12.9931237"><ele>973.6666666666666</ele><time>2026-04-24T12:08:55.997Z</time></trkpt><trkpt lat="42.9817466" lon="12.9930091"><ele>971.3333333333333</ele><time>2026-04-24T12:08:57.001Z</time></trkpt><trkpt lat="42.9817428" lon="12.9929072"><ele>969.0</ele><time>2026-04-24T12:08:57.997Z</time></trkpt><trkpt lat="42.9818229" lon="12.9928076"><ele>966.6666666666667</ele><time>2026-04-24T12:08:59.988Z</time></trkpt><trkpt lat="42.9819041" lon="12.9928155"><ele>964.3333333333334</ele><time>2026-04-24T12:09:01.009Z</time></trkpt><trkpt lat="42.9819696" lon="12.9928645"><ele>962.0</ele><time>2026-04-24T12:09:02.001Z</time></trkpt><trkpt lat="42.9820307" lon="12.9929572"><ele>962.0</ele><time>2026-04-24T12:09:02.992Z</time></trkpt><trkpt lat="42.9820869" lon="12.9931053"><ele>962.0</ele><time>2026-04-24T12:09:03.999Z</time></trkpt><trkpt lat="42.9821268" lon="12.993252"><ele>962.0</ele><time>2026-04-24T12:09:04.994Z</time></trkpt><trkpt lat="42.9821804" lon="12.9933978"><ele>962.0</ele><time>2026-04-24T12:09:05.982Z</time></trkpt><trkpt lat="42.9822606" lon="12.9935169"><ele>961.0</ele><time>2026-04-24T12:09:07Z</time></trkpt><trkpt lat="42.9823607" lon="12.9936017"><ele>960.0</ele><time>2026-04-24T12:09:07.989Z</time></trkpt><trkpt lat="42.982489" lon="12.9936695"><ele>959.0</ele><time>2026-04-24T12:09:08.995Z</time></trkpt><trkpt lat="42.9826548" lon="12.993728"><ele>958.0</ele><time>2026-04-24T12:09:09.991Z</time></trkpt><trkpt lat="42.9828476" lon="12.9937717"><ele>958.0</ele><time>2026-04-24T12:09:10.997Z</time></trkpt><trkpt lat="42.9830425" lon="12.9938243"><ele>958.0</ele><time>2026-04-24T12:09:12.012Z</time></trkpt><trkpt lat="42.9832267" lon="12.9938724"><ele>958.0</ele><time>2026-04-24T12:09:12.992Z</time></trkpt><trkpt lat="42.9834042" lon="12.9939197"><ele>951.3333333333333</ele><time>2026-04-24T12:09:13.992Z</time></trkpt><trkpt lat="42.9835746" lon="12.9939602"><ele>944.6666666666667</ele><time>2026-04-24T12:09:14.978Z</time></trkpt><trkpt lat="42.9837259" lon="12.9940041"><ele>938.0</ele><time>2026-04-24T12:09:15.991Z</time></trkpt><trkpt lat="42.9838632" lon="12.9940385"><ele>938.0</ele><time>2026-04-24T12:09:16.988Z</time></trkpt><trkpt lat="42.9840014" lon="12.9940828"><ele>938.0</ele><time>2026-04-24T12:09:17.998Z</time></trkpt><trkpt lat="42.9841283" lon="12.9941397"><ele>938.0</ele><time>2026-04-24T12:09:19.004Z</time></trkpt><trkpt lat="42.9842388" lon="12.9941907"><ele>938.0</ele><time>2026-04-24T12:09:20.019Z</time></trkpt><trkpt lat="42.9843198" lon="12.9942234"><ele>937.3333333333334</ele><time>2026-04-24T12:09:20.979Z</time></trkpt><trkpt lat="42.9844016" lon="12.9942162"><ele>936.6666666666667</ele><time>2026-04-24T12:09:21.98Z</time></trkpt><trkpt lat="42.9844591" lon="12.9941473"><ele>936.0</ele><time>2026-04-24T12:09:22.981Z</time></trkpt><trkpt lat="42.9844756" lon="12.994054"><ele>935.3333333333333</ele><time>2026-04-24T12:09:24.012Z</time></trkpt><trkpt lat="42.9844342" lon="12.9939492"><ele>934.6666666666666</ele><time>2026-04-24T12:09:25.001Z</time></trkpt><trkpt lat="42.9843565" lon="12.9938484"><ele>934.0</ele><time>2026-04-24T12:09:26.004Z</time></trkpt><trkpt lat="42.9842383" lon="12.9937427"><ele>935.3333333333333</ele><time>2026-04-24T12:09:27.004Z</time></trkpt><trkpt lat="42.9840969" lon="12.9936218"><ele>936.6666666666667</ele><time>2026-04-24T12:09:27.976Z</time></trkpt><trkpt lat="42.9839385" lon="12.9935108"><ele>938.0</ele><time>2026-04-24T12:09:28.995Z</time></trkpt><trkpt lat="42.9837774" lon="12.9934142"><ele>937.3333333333334</ele><time>2026-04-24T12:09:29.992Z</time></trkpt><trkpt lat="42.9836235" lon="12.9933114"><ele>936.6666666666667</ele><time>2026-04-24T12:09:31.01Z</time></trkpt><trkpt lat="42.9834749" lon="12.9932078"><ele>936.0</ele><time>2026-04-24T12:09:32.002Z</time></trkpt><trkpt lat="42.9833462" lon="12.9931075"><ele>936.0</ele><time>2026-04-24T12:09:33.001Z</time></trkpt><trkpt lat="42.9832319" lon="12.9930211"><ele>936.0</ele><time>2026-04-24T12:09:34.007Z</time></trkpt><trkpt lat="42.9831492" lon="12.9929114"><ele>936.0</ele><time>2026-04-24T12:09:35.014Z</time></trkpt><trkpt lat="42.9831096" lon="12.9927822"><ele>936.0</ele><time>2026-04-24T12:09:35.989Z</time></trkpt><trkpt lat="42.9831111" lon="12.9926179"><ele>931.75</ele><time>2026-04-24T12:09:36.98Z</time></trkpt><trkpt lat="42.9831427" lon="12.9924396"><ele>927.5</ele><time>2026-04-24T12:09:37.99Z</time></trkpt><trkpt lat="42.9831807" lon="12.9922417"><ele>923.25</ele><time>2026-04-24T12:09:38.994Z</time></trkpt><trkpt lat="42.983219" lon="12.9920401"><ele>919.0</ele><time>2026-04-24T12:09:39.99Z</time></trkpt><trkpt lat="42.9832724" lon="12.991843"><ele>911.0</ele><time>2026-04-24T12:09:40.984Z</time></trkpt><trkpt lat="42.9833515" lon="12.9916673"><ele>903.0</ele><time>2026-04-24T12:09:41.99Z</time></trkpt><trkpt lat="42.9834635" lon="12.9915204"><ele>895.0</ele><time>2026-04-24T12:09:42.996Z</time></trkpt><trkpt lat="42.9836006" lon="12.9914063"><ele>895.0</ele><time>2026-04-24T12:09:43.989Z</time></trkpt><trkpt lat="42.9837276" lon="12.9912917"><ele>895.0</ele><time>2026-04-24T12:09:45.009Z</time></trkpt><trkpt lat="42.9838354" lon="12.9911693"><ele>895.0</ele><time>2026-04-24T12:09:46.009Z</time></trkpt><trkpt lat="42.9839518" lon="12.9910414"><ele>895.0</ele><time>2026-04-24T12:09:46.989Z</time></trkpt><trkpt lat="42.9840547" lon="12.990917"><ele>897.0</ele><time>2026-04-24T12:09:48.004Z</time></trkpt><trkpt lat="42.9841733" lon="12.990808"><ele>899.0</ele><time>2026-04-24T12:09:48.982Z</time></trkpt><trkpt lat="42.9844054" lon="12.9906565"><ele>901.0</ele><time>2026-04-24T12:09:50.993Z</time></trkpt><trkpt lat="42.9845233" lon="12.9906205"><ele>897.1999999999999</ele><time>2026-04-24T12:09:51.984Z</time></trkpt><trkpt lat="42.984626" lon="12.9905601"><ele>893.3999999999999</ele><time>2026-04-24T12:09:53.014Z</time></trkpt><trkpt lat="42.984689" lon="12.9904608"><ele>889.6</ele><time>2026-04-24T12:09:53.993Z</time></trkpt><trkpt lat="42.9846886" lon="12.9903363"><ele>885.8</ele><time>2026-04-24T12:09:55.005Z</time></trkpt><trkpt lat="42.9846722" lon="12.9901906"><ele>882.0</ele><time>2026-04-24T12:09:55.997Z</time></trkpt><trkpt lat="42.9846474" lon="12.9900446"><ele>880.75</ele><time>2026-04-24T12:09:57.006Z</time></trkpt><trkpt lat="42.9846104" lon="12.9899011"><ele>879.5</ele><time>2026-04-24T12:09:57.98Z</time></trkpt><trkpt lat="42.984541" lon="12.9897642"><ele>878.25</ele><time>2026-04-24T12:09:59.002Z</time></trkpt><trkpt lat="42.9844386" lon="12.9896275"><ele>877.0</ele><time>2026-04-24T12:10:00.012Z</time></trkpt><trkpt lat="42.984333" lon="12.9894906"><ele>877.0</ele><time>2026-04-24T12:10:00.981Z</time></trkpt><trkpt lat="42.9842339" lon="12.9893413"><ele>877.0</ele><time>2026-04-24T12:10:02Z</time></trkpt><trkpt lat="42.9841368" lon="12.9891852"><ele>877.0</ele><time>2026-04-24T12:10:03.002Z</time></trkpt><trkpt lat="42.984039" lon="12.9890286"><ele>877.0</ele><time>2026-04-24T12:10:04.003Z</time></trkpt><trkpt lat="42.983953" lon="12.988876"><ele>878.5</ele><time>2026-04-24T12:10:04.991Z</time></trkpt><trkpt lat="42.9838812" lon="12.9887197"><ele>880.0</ele><time>2026-04-24T12:10:06.004Z</time></trkpt><trkpt lat="42.9838303" lon="12.9885462"><ele>881.5</ele><time>2026-04-24T12:10:07.016Z</time></trkpt><trkpt lat="42.9837931" lon="12.9883662"><ele>883.0</ele><time>2026-04-24T12:10:07.989Z</time></trkpt><trkpt lat="42.9837599" lon="12.9881823"><ele>879.0</ele><time>2026-04-24T12:10:08.987Z</time></trkpt><trkpt lat="42.9837337" lon="12.9880024"><ele>875.0</ele><time>2026-04-24T12:10:09.987Z</time></trkpt><trkpt lat="42.9837102" lon="12.9878316"><ele>871.0</ele><time>2026-04-24T12:10:10.994Z</time></trkpt><trkpt lat="42.9836921" lon="12.9876646"><ele>867.0</ele><time>2026-04-24T12:10:11.977Z</time></trkpt><trkpt lat="42.983703" lon="12.9875216"><ele>867.0</ele><time>2026-04-24T12:10:12.991Z</time></trkpt><trkpt lat="42.983751" lon="12.9873835"><ele>867.0</ele><time>2026-04-24T12:10:13.981Z</time></trkpt><trkpt lat="42.9837975" lon="12.9872279"><ele>867.0</ele><time>2026-04-24T12:10:14.98Z</time></trkpt><trkpt lat="42.9838191" lon="12.9870807"><ele>867.0</ele><time>2026-04-24T12:10:15.98Z</time></trkpt><trkpt lat="42.9838461" lon="12.9869359"><ele>867.0</ele><time>2026-04-24T12:10:17.004Z</time></trkpt><trkpt lat="42.9838794" lon="12.9868211"><ele>867.0</ele><time>2026-04-24T12:10:18.003Z</time></trkpt><trkpt lat="42.9839245" lon="12.9867512"><ele>867.0</ele><time>2026-04-24T12:10:18.99Z</time></trkpt><trkpt lat="42.984052" lon="12.9867384"><ele>867.0</ele><time>2026-04-24T12:10:20.993Z</time></trkpt><trkpt lat="42.9841304" lon="12.986779"><ele>867.0</ele><time>2026-04-24T12:10:22.004Z</time></trkpt><trkpt lat="42.9841966" lon="12.9868849"><ele>866.0</ele><time>2026-04-24T12:10:22.987Z</time></trkpt><trkpt lat="42.9842497" lon="12.987028"><ele>865.0</ele><time>2026-04-24T12:10:23.981Z</time></trkpt><trkpt lat="42.9843017" lon="12.9871872"><ele>864.0</ele><time>2026-04-24T12:10:25.001Z</time></trkpt><trkpt lat="42.9843776" lon="12.9873713"><ele>863.0</ele><time>2026-04-24T12:10:25.992Z</time></trkpt><trkpt lat="42.9844662" lon="12.9875639"><ele>863.0</ele><time>2026-04-24T12:10:26.993Z</time></trkpt><trkpt lat="42.9845722" lon="12.9877432"><ele>863.0</ele><time>2026-04-24T12:10:27.986Z</time></trkpt><trkpt lat="42.9846741" lon="12.9878897"><ele>863.0</ele><time>2026-04-24T12:10:28.978Z</time></trkpt><trkpt lat="42.9847699" lon="12.9879995"><ele>863.0</ele><time>2026-04-24T12:10:30.008Z</time></trkpt><trkpt lat="42.9848679" lon="12.9880538"><ele>863.0</ele><time>2026-04-24T12:10:31.002Z</time></trkpt><trkpt lat="42.9849906" lon="12.9880423"><ele>863.0</ele><time>2026-04-24T12:10:31.988Z</time></trkpt><trkpt lat="42.9851351" lon="12.9880155"><ele>863.0</ele><time>2026-04-24T12:10:32.991Z</time></trkpt><trkpt lat="42.9852947" lon="12.9880427"><ele>863.0</ele><time>2026-04-24T12:10:33.974Z</time></trkpt><trkpt lat="42.9854485" lon="12.988124"><ele>863.6666666666667</ele><time>2026-04-24T12:10:34.995Z</time></trkpt><trkpt lat="42.9855983" lon="12.9882471"><ele>864.3333333333333</ele><time>2026-04-24T12:10:35.969Z</time></trkpt><trkpt lat="42.985739" lon="12.9883624"><ele>865.0</ele><time>2026-04-24T12:10:37.01Z</time></trkpt><trkpt lat="42.9858899" lon="12.9884451"><ele>862.5</ele><time>2026-04-24T12:10:37.983Z</time></trkpt><trkpt lat="42.9860355" lon="12.9885255"><ele>860.0</ele><time>2026-04-24T12:10:39.002Z</time></trkpt><trkpt lat="42.9861491" lon="12.9886474"><ele>857.5</ele><time>2026-04-24T12:10:40.004Z</time></trkpt><trkpt lat="42.986229" lon="12.9888002"><ele>855.0</ele><time>2026-04-24T12:10:40.98Z</time></trkpt><trkpt lat="42.9863043" lon="12.9889538"><ele>855.0</ele><time>2026-04-24T12:10:41.991Z</time></trkpt><trkpt lat="42.9863882" lon="12.9890688"><ele>855.0</ele><time>2026-04-24T12:10:42.974Z</time></trkpt><trkpt lat="42.9864872" lon="12.9891529"><ele>855.0</ele><time>2026-04-24T12:10:44.01Z</time></trkpt><trkpt lat="42.9866139" lon="12.9892258"><ele>855.0</ele><time>2026-04-24T12:10:44.982Z</time></trkpt><trkpt lat="42.9867385" lon="12.9893255"><ele>848.4</ele><time>2026-04-24T12:10:45.994Z</time></trkpt><trkpt lat="42.9868182" lon="12.9894578"><ele>841.8</ele><time>2026-04-24T12:10:47.003Z</time></trkpt><trkpt lat="42.9868595" lon="12.9895928"><ele>835.2</ele><time>2026-04-24T12:10:47.989Z</time></trkpt><trkpt lat="42.9869062" lon="12.9897112"><ele>828.6</ele><time>2026-04-24T12:10:48.984Z</time></trkpt><trkpt lat="42.9870028" lon="12.9897725"><ele>822.0</ele><time>2026-04-24T12:10:50.008Z</time></trkpt><trkpt lat="42.9871429" lon="12.9897874"><ele>822.0</ele><time>2026-04-24T12:10:51.007Z</time></trkpt><trkpt lat="42.9872875" lon="12.9897749"><ele>822.0</ele><time>2026-04-24T12:10:51.988Z</time></trkpt><trkpt lat="42.987413" lon="12.9897516"><ele>822.0</ele><time>2026-04-24T12:10:52.989Z</time></trkpt><trkpt lat="42.9875323" lon="12.9897345"><ele>822.0</ele><time>2026-04-24T12:10:53.991Z</time></trkpt><trkpt lat="42.9876313" lon="12.9897335"><ele>822.0</ele><time>2026-04-24T12:10:55.004Z</time></trkpt><trkpt lat="42.9877166" lon="12.9897403"><ele>822.0</ele><time>2026-04-24T12:10:55.974Z</time></trkpt><trkpt lat="42.9877731" lon="12.9898375"><ele>822.0</ele><time>2026-04-24T12:10:57.989Z</time></trkpt><trkpt lat="42.9876603" lon="12.9898933"><ele>822.0</ele><time>2026-04-24T12:10:59.992Z</time></trkpt><trkpt lat="42.9875433" lon="12.9899015"><ele>822.0</ele><time>2026-04-24T12:11:01.002Z</time></trkpt><trkpt lat="42.987387" lon="12.9899305"><ele>822.0</ele><time>2026-04-24T12:11:01.976Z</time></trkpt><trkpt lat="42.98725" lon="12.9899819"><ele>822.0</ele><time>2026-04-24T12:11:02.983Z</time></trkpt><trkpt lat="42.9871149" lon="12.9900156"><ele>822.0</ele><time>2026-04-24T12:11:03.999Z</time></trkpt><trkpt lat="42.9869991" lon="12.9900484"><ele>822.0</ele><time>2026-04-24T12:11:04.981Z</time></trkpt><trkpt lat="42.9869073" lon="12.9900963"><ele>823.0</ele><time>2026-04-24T12:11:05.994Z</time></trkpt><trkpt lat="42.9868345" lon="12.9901762"><ele>824.0</ele><time>2026-04-24T12:11:06.985Z</time></trkpt><trkpt lat="42.9867917" lon="12.9902657"><ele>825.0</ele><time>2026-04-24T12:11:07.993Z</time></trkpt><trkpt lat="42.9868017" lon="12.9903761"><ele>826.0</ele><time>2026-04-24T12:11:08.975Z</time></trkpt><trkpt lat="42.9868598" lon="12.9904515"><ele>827.0</ele><time>2026-04-24T12:11:09.998Z</time></trkpt><trkpt lat="42.9869617" lon="12.9905257"><ele>828.0</ele><time>2026-04-24T12:11:10.981Z</time></trkpt><trkpt lat="42.9870893" lon="12.990592"><ele>828.0</ele><time>2026-04-24T12:11:11.989Z</time></trkpt><trkpt lat="42.9872385" lon="12.9906234"><ele>828.0</ele><time>2026-04-24T12:11:12.99Z</time></trkpt><trkpt lat="42.9874079" lon="12.9906104"><ele>828.0</ele><time>2026-04-24T12:11:13.986Z</time></trkpt><trkpt lat="42.987583" lon="12.9905818"><ele>825.3333333333333</ele><time>2026-04-24T12:11:14.995Z</time></trkpt><trkpt lat="42.9877437" lon="12.9905598"><ele>822.6666666666666</ele><time>2026-04-24T12:11:15.974Z</time></trkpt><trkpt lat="42.9879075" lon="12.9905429"><ele>820.0</ele><time>2026-04-24T12:11:17Z</time></trkpt><trkpt lat="42.9880722" lon="12.9905549"><ele>820.0</ele><time>2026-04-24T12:11:17.978Z</time></trkpt><trkpt lat="42.9882316" lon="12.9905852"><ele>820.0</ele><time>2026-04-24T12:11:19Z</time></trkpt><trkpt lat="42.9883947" lon="12.990623"><ele>820.0</ele><time>2026-04-24T12:11:19.968Z</time></trkpt><trkpt lat="42.9885545" lon="12.9906236"><ele>815.5</ele><time>2026-04-24T12:11:21.003Z</time></trkpt><trkpt lat="42.9887029" lon="12.9905907"><ele>811.0</ele><time>2026-04-24T12:11:21.978Z</time></trkpt><trkpt lat="42.9888477" lon="12.9905575"><ele>806.5</ele><time>2026-04-24T12:11:22.992Z</time></trkpt><trkpt lat="42.9889995" lon="12.9905475"><ele>802.0</ele><time>2026-04-24T12:11:24Z</time></trkpt><trkpt lat="42.9891517" lon="12.9905749"><ele>797.0</ele><time>2026-04-24T12:11:24.996Z</time></trkpt><trkpt lat="42.9893066" lon="12.9906226"><ele>792.0</ele><time>2026-04-24T12:11:25.992Z</time></trkpt><trkpt lat="42.9894634" lon="12.9906937"><ele>787.0</ele><time>2026-04-24T12:11:26.99Z</time></trkpt><trkpt lat="42.9896115" lon="12.990755"><ele>787.0</ele><time>2026-04-24T12:11:27.986Z</time></trkpt><trkpt lat="42.9897677" lon="12.9907977"><ele>787.0</ele><time>2026-04-24T12:11:28.986Z</time></trkpt><trkpt lat="42.9899276" lon="12.9908053"><ele>787.0</ele><time>2026-04-24T12:11:30.004Z</time></trkpt><trkpt lat="42.990092" lon="12.9907915"><ele>785.6666666666666</ele><time>2026-04-24T12:11:30.999Z</time></trkpt><trkpt lat="42.9902466" lon="12.9907651"><ele>784.3333333333333</ele><time>2026-04-24T12:11:31.972Z</time></trkpt><trkpt lat="42.9903992" lon="12.9907164"><ele>783.0</ele><time>2026-04-24T12:11:32.993Z</time></trkpt><trkpt lat="42.9905349" lon="12.9906478"><ele>783.0</ele><time>2026-04-24T12:11:33.971Z</time></trkpt><trkpt lat="42.990664" lon="12.9905681"><ele>783.0</ele><time>2026-04-24T12:11:35.005Z</time></trkpt><trkpt lat="42.990793" lon="12.9904864"><ele>783.0</ele><time>2026-04-24T12:11:35.983Z</time></trkpt><trkpt lat="42.9909333" lon="12.9904154"><ele>783.0</ele><time>2026-04-24T12:11:37Z</time></trkpt><trkpt lat="42.9910752" lon="12.9903741"><ele>778.25</ele><time>2026-04-24T12:11:37.975Z</time></trkpt><trkpt lat="42.9912265" lon="12.990371"><ele>773.5</ele><time>2026-04-24T12:11:38.995Z</time></trkpt><trkpt lat="42.9913782" lon="12.9903747"><ele>768.75</ele><time>2026-04-24T12:11:39.983Z</time></trkpt><trkpt lat="42.9915233" lon="12.9903848"><ele>764.0</ele><time>2026-04-24T12:11:40.999Z</time></trkpt><trkpt lat="42.9916818" lon="12.990411"><ele>762.0</ele><time>2026-04-24T12:11:41.999Z</time></trkpt><trkpt lat="42.9918432" lon="12.9904639"><ele>760.0</ele><time>2026-04-24T12:11:42.971Z</time></trkpt><trkpt lat="42.9919841" lon="12.9905361"><ele>758.0</ele><time>2026-04-24T12:11:43.991Z</time></trkpt><trkpt lat="42.9921259" lon="12.9906244"><ele>758.0</ele><time>2026-04-24T12:11:44.997Z</time></trkpt><trkpt lat="42.9922562" lon="12.9907255"><ele>758.0</ele><time>2026-04-24T12:11:45.981Z</time></trkpt><trkpt lat="42.9923841" lon="12.9908391"><ele>758.0</ele><time>2026-04-24T12:11:47.009Z</time></trkpt><trkpt lat="42.99251" lon="12.9909687"><ele>752.6666666666666</ele><time>2026-04-24T12:11:47.997Z</time></trkpt><trkpt lat="42.9926194" lon="12.9911128"><ele>747.3333333333334</ele><time>2026-04-24T12:11:49.008Z</time></trkpt><trkpt lat="42.9927123" lon="12.9912783"><ele>742.0</ele><time>2026-04-24T12:11:49.998Z</time></trkpt><trkpt lat="42.9927916" lon="12.9914552"><ele>742.0</ele><time>2026-04-24T12:11:51.001Z</time></trkpt><trkpt lat="42.9928731" lon="12.9916163"><ele>742.0</ele><time>2026-04-24T12:11:51.985Z</time></trkpt><trkpt lat="42.9929705" lon="12.9917423"><ele>742.0</ele><time>2026-04-24T12:11:52.977Z</time></trkpt><trkpt lat="42.9930942" lon="12.9918182"><ele>742.0</ele><time>2026-04-24T12:11:53.99Z</time></trkpt><trkpt lat="42.9932197" lon="12.9918642"><ele>738.5</ele><time>2026-04-24T12:11:54.995Z</time></trkpt><trkpt lat="42.9933339" lon="12.991957"><ele>735.0</ele><time>2026-04-24T12:11:55.974Z</time></trkpt><trkpt lat="42.9934269" lon="12.9920984"><ele>731.5</ele><time>2026-04-24T12:11:56.982Z</time></trkpt><trkpt lat="42.9934999" lon="12.9922774"><ele>728.0</ele><time>2026-04-24T12:11:58.004Z</time></trkpt><trkpt lat="42.9935463" lon="12.9924852"><ele>729.6666666666666</ele><time>2026-04-24T12:11:58.986Z</time></trkpt><trkpt lat="42.9935911" lon="12.9926945"><ele>731.3333333333334</ele><time>2026-04-24T12:11:59.994Z</time></trkpt><trkpt lat="42.9936535" lon="12.9928833"><ele>733.0</ele><time>2026-04-24T12:12:00.993Z</time></trkpt><trkpt lat="42.9937267" lon="12.9930635"><ele>733.0</ele><time>2026-04-24T12:12:01.988Z</time></trkpt><trkpt lat="42.993788" lon="12.9932445"><ele>733.0</ele><time>2026-04-24T12:12:02.987Z</time></trkpt><trkpt lat="42.9938312" lon="12.993441"><ele>733.0</ele><time>2026-04-24T12:12:03.971Z</time></trkpt><trkpt lat="42.9938483" lon="12.9936472"><ele>733.0</ele><time>2026-04-24T12:12:04.999Z</time></trkpt><trkpt lat="42.993852" lon="12.9938534"><ele>729.5</ele><time>2026-04-24T12:12:05.985Z</time></trkpt><trkpt lat="42.9938556" lon="12.9940576"><ele>726.0</ele><time>2026-04-24T12:12:06.989Z</time></trkpt><trkpt lat="42.9938494" lon="12.9942608"><ele>722.5</ele><time>2026-04-24T12:12:08.004Z</time></trkpt><trkpt lat="42.9938297" lon="12.9944607"><ele>719.0</ele><time>2026-04-24T12:12:08.972Z</time></trkpt><trkpt lat="42.9938" lon="12.9946558"><ele>717.25</ele><time>2026-04-24T12:12:10.004Z</time></trkpt><trkpt lat="42.9937626" lon="12.9948376"><ele>715.5</ele><time>2026-04-24T12:12:10.982Z</time></trkpt><trkpt lat="42.9937297" lon="12.9950106"><ele>713.75</ele><time>2026-04-24T12:12:11.997Z</time></trkpt><trkpt lat="42.9937199" lon="12.9951951"><ele>712.0</ele><time>2026-04-24T12:12:13.004Z</time></trkpt><trkpt lat="42.9937358" lon="12.9953621"><ele>707.0</ele><time>2026-04-24T12:12:14.006Z</time></trkpt><trkpt lat="42.993787" lon="12.9955302"><ele>702.0</ele><time>2026-04-24T12:12:14.999Z</time></trkpt><trkpt lat="42.9938575" lon="12.995717"><ele>697.0</ele><time>2026-04-24T12:12:15.981Z</time></trkpt><trkpt lat="42.9939203" lon="12.9959042"><ele>692.0</ele><time>2026-04-24T12:12:16.999Z</time></trkpt><trkpt lat="42.9939828" lon="12.9960894"><ele>688.5</ele><time>2026-04-24T12:12:17.999Z</time></trkpt><trkpt lat="42.9940358" lon="12.9962787"><ele>685.0</ele><time>2026-04-24T12:12:19.006Z</time></trkpt><trkpt lat="42.9940858" lon="12.9964732"><ele>681.5</ele><time>2026-04-24T12:12:19.988Z</time></trkpt><trkpt lat="42.9941188" lon="12.9966667"><ele>678.0</ele><time>2026-04-24T12:12:20.995Z</time></trkpt><trkpt lat="42.9941426" lon="12.9968632"><ele>677.75</ele><time>2026-04-24T12:12:21.982Z</time></trkpt><trkpt lat="42.9941674" lon="12.9970483"><ele>677.5</ele><time>2026-04-24T12:12:22.995Z</time></trkpt><trkpt lat="42.9941937" lon="12.9972317"><ele>677.25</ele><time>2026-04-24T12:12:23.989Z</time></trkpt><trkpt lat="42.9942198" lon="12.9974111"><ele>677.0</ele><time>2026-04-24T12:12:25.013Z</time></trkpt><trkpt lat="42.9942471" lon="12.9975679"><ele>676.3333333333333</ele><time>2026-04-24T12:12:26.006Z</time></trkpt><trkpt lat="42.9942795" lon="12.9977056"><ele>675.6666666666666</ele><time>2026-04-24T12:12:26.989Z</time></trkpt><trkpt lat="42.9943075" lon="12.9978307"><ele>675.0</ele><time>2026-04-24T12:12:27.993Z</time></trkpt><trkpt lat="42.994323" lon="12.9979509"><ele>674.3333333333334</ele><time>2026-04-24T12:12:29.001Z</time></trkpt><trkpt lat="42.9943207" lon="12.9980605"><ele>673.6666666666667</ele><time>2026-04-24T12:12:30.006Z</time></trkpt><trkpt lat="42.9942946" lon="12.9981537"><ele>673.0</ele><time>2026-04-24T12:12:30.995Z</time></trkpt><trkpt lat="42.994275" lon="12.9982391"><ele>674.3333333333334</ele><time>2026-04-24T12:12:31.986Z</time></trkpt><trkpt lat="42.9942855" lon="12.9983477"><ele>675.6666666666667</ele><time>2026-04-24T12:12:33.003Z</time></trkpt><trkpt lat="42.9942984" lon="12.998469"><ele>677.0</ele><time>2026-04-24T12:12:33.972Z</time></trkpt><trkpt lat="42.9943138" lon="12.9985813"><ele>678.3333333333334</ele><time>2026-04-24T12:12:34.983Z</time></trkpt><trkpt lat="42.9943234" lon="12.9986932"><ele>679.6666666666666</ele><time>2026-04-24T12:12:35.995Z</time></trkpt><trkpt lat="42.9943317" lon="12.998806"><ele>681.0</ele><time>2026-04-24T12:12:36.995Z</time></trkpt><trkpt lat="42.9943456" lon="12.9989232"><ele>681.0</ele><time>2026-04-24T12:12:38.004Z</time></trkpt><trkpt lat="42.9943492" lon="12.9990409"><ele>681.0</ele><time>2026-04-24T12:12:38.991Z</time></trkpt><trkpt lat="42.9943543" lon="12.9991603"><ele>681.0</ele><time>2026-04-24T12:12:39.988Z</time></trkpt><trkpt lat="42.9943653" lon="12.9992873"><ele>681.0</ele><time>2026-04-24T12:12:41.007Z</time></trkpt><trkpt lat="42.9943755" lon="12.9994092"><ele>681.0</ele><time>2026-04-24T12:12:41.987Z</time></trkpt><trkpt lat="42.9943891" lon="12.9995232"><ele>681.0</ele><time>2026-04-24T12:12:42.987Z</time></trkpt><trkpt lat="42.9944002" lon="12.9996353"><ele>680.8</ele><time>2026-04-24T12:12:44.005Z</time></trkpt><trkpt lat="42.994415" lon="12.9997327"><ele>680.5999999999999</ele><time>2026-04-24T12:12:45.009Z</time></trkpt><trkpt lat="42.9944301" lon="12.9998256"><ele>680.4</ele><time>2026-04-24T12:12:46.005Z</time></trkpt><trkpt lat="42.9944425" lon="12.999911"><ele>680.2</ele><time>2026-04-24T12:12:46.998Z</time></trkpt><trkpt lat="42.994479" lon="13.0000715"><ele>680.0</ele><time>2026-04-24T12:12:48.981Z</time></trkpt><trkpt lat="42.9945181" lon="13.0002368"><ele>680.0</ele><time>2026-04-24T12:12:50.997Z</time></trkpt><trkpt lat="42.994534" lon="13.0003278"><ele>680.0</ele><time>2026-04-24T12:12:51.994Z</time></trkpt><trkpt lat="42.9945565" lon="13.0004132"><ele>680.0</ele><time>2026-04-24T12:12:52.992Z</time></trkpt><trkpt lat="42.9945945" lon="13.0005609"><ele>680.0</ele><time>2026-04-24T12:12:54.993Z</time></trkpt><trkpt lat="42.9945914" lon="13.0006944"><ele>680.0</ele><time>2026-04-24T12:12:56.984Z</time></trkpt><trkpt lat="42.9945002" lon="13.0008125"><ele>678.6666666666666</ele><time>2026-04-24T12:12:58.989Z</time></trkpt><trkpt lat="42.9944381" lon="13.0008579"><ele>677.3333333333333</ele><time>2026-04-24T12:12:59.995Z</time></trkpt><trkpt lat="42.9943749" lon="13.0009074"><ele>676.0</ele><time>2026-04-24T12:13:00.99Z</time></trkpt><trkpt lat="42.9943079" lon="13.0009592"><ele>674.6666666666666</ele><time>2026-04-24T12:13:01.989Z</time></trkpt><trkpt lat="42.9942359" lon="13.0009866"><ele>673.3333333333334</ele><time>2026-04-24T12:13:03.006Z</time></trkpt><trkpt lat="42.9941799" lon="13.001034"><ele>672.0</ele><time>2026-04-24T12:13:04.002Z</time></trkpt><trkpt lat="42.9940856" lon="13.0010995"><ele>669.5</ele><time>2026-04-24T12:13:05.995Z</time></trkpt><trkpt lat="42.9939882" lon="13.0011378"><ele>667.0</ele><time>2026-04-24T12:13:07.996Z</time></trkpt><trkpt lat="42.993928" lon="13.0011641"><ele>664.5</ele><time>2026-04-24T12:13:08.989Z</time></trkpt><trkpt lat="42.9938652" lon="13.0011716"><ele>662.0</ele><time>2026-04-24T12:13:09.991Z</time></trkpt><trkpt lat="42.9938007" lon="13.0011696"><ele>659.5</ele><time>2026-04-24T12:13:10.993Z</time></trkpt><trkpt lat="42.9936876" lon="13.001124"><ele>657.0</ele><time>2026-04-24T12:13:12.997Z</time></trkpt><trkpt lat="42.9936287" lon="13.0010888"><ele>657.0</ele><time>2026-04-24T12:13:13.99Z</time></trkpt><trkpt lat="42.993561" lon="13.0010639"><ele>657.0</ele><time>2026-04-24T12:13:14.982Z</time></trkpt><trkpt lat="42.9934912" lon="13.0010525"><ele>657.0</ele><time>2026-04-24T12:13:15.981Z</time></trkpt><trkpt lat="42.9933706" lon="13.0010408"><ele>657.0</ele><time>2026-04-24T12:13:17.993Z</time></trkpt><trkpt lat="42.9932382" lon="13.0010419"><ele>657.0</ele><time>2026-04-24T12:13:19.982Z</time></trkpt><trkpt lat="42.9931537" lon="13.0010351"><ele>659.8</ele><time>2026-04-24T12:13:20.989Z</time></trkpt><trkpt lat="42.9930657" lon="13.0010223"><ele>662.6</ele><time>2026-04-24T12:13:21.985Z</time></trkpt><trkpt lat="42.9929795" lon="13.0010284"><ele>665.4</ele><time>2026-04-24T12:13:23.014Z</time></trkpt><trkpt lat="42.9928797" lon="13.0010309"><ele>668.1999999999999</ele><time>2026-04-24T12:13:23.974Z</time></trkpt><trkpt lat="42.9927796" lon="13.00103"><ele>671.0</ele><time>2026-04-24T12:13:24.99Z</time></trkpt><trkpt lat="42.9926781" lon="13.0010339"><ele>671.0</ele><time>2026-04-24T12:13:25.984Z</time></trkpt><trkpt lat="42.9925637" lon="13.0010299"><ele>671.0</ele><time>2026-04-24T12:13:27.017Z</time></trkpt><trkpt lat="42.9924484" lon="13.0010325"><ele>671.0</ele><time>2026-04-24T12:13:27.98Z</time></trkpt><trkpt lat="42.992327" lon="13.0010336"><ele>671.0</ele><time>2026-04-24T12:13:28.994Z</time></trkpt><trkpt lat="42.9922006" lon="13.0010293"><ele>670.75</ele><time>2026-04-24T12:13:29.998Z</time></trkpt><trkpt lat="42.992077" lon="13.0010298"><ele>670.5</ele><time>2026-04-24T12:13:30.992Z</time></trkpt><trkpt lat="42.9919555" lon="13.0010334"><ele>670.25</ele><time>2026-04-24T12:13:31.982Z</time></trkpt><trkpt lat="42.9918418" lon="13.0010412"><ele>670.0</ele><time>2026-04-24T12:13:32.997Z</time></trkpt><trkpt lat="42.991738" lon="13.0010455"><ele>671.3333333333334</ele><time>2026-04-24T12:13:34.001Z</time></trkpt><trkpt lat="42.9916516" lon="13.0010477"><ele>672.6666666666667</ele><time>2026-04-24T12:13:34.985Z</time></trkpt><trkpt lat="42.9915678" lon="13.0010567"><ele>674.0</ele><time>2026-04-24T12:13:35.98Z</time></trkpt><trkpt lat="42.991482" lon="13.0010679"><ele>675.3333333333334</ele><time>2026-04-24T12:13:37.009Z</time></trkpt><trkpt lat="42.991387" lon="13.0010575"><ele>676.6666666666666</ele><time>2026-04-24T12:13:37.984Z</time></trkpt><trkpt lat="42.9912988" lon="13.0010242"><ele>678.0</ele><time>2026-04-24T12:13:38.984Z</time></trkpt><trkpt lat="42.9912096" lon="13.0009814"><ele>678.0</ele><time>2026-04-24T12:13:39.976Z</time></trkpt><trkpt lat="42.9911184" lon="13.0009274"><ele>678.0</ele><time>2026-04-24T12:13:40.974Z</time></trkpt><trkpt lat="42.9910178" lon="13.0008724"><ele>678.0</ele><time>2026-04-24T12:13:41.99Z</time></trkpt><trkpt lat="42.9909145" lon="13.0008109"><ele>678.0</ele><time>2026-04-24T12:13:42.988Z</time></trkpt><trkpt lat="42.9908097" lon="13.0007473"><ele>678.0</ele><time>2026-04-24T12:13:44.014Z</time></trkpt><trkpt lat="42.9907032" lon="13.0006815"><ele>688.25</ele><time>2026-04-24T12:13:44.994Z</time></trkpt><trkpt lat="42.9905968" lon="13.0006113"><ele>698.5</ele><time>2026-04-24T12:13:46.002Z</time></trkpt><trkpt lat="42.9904901" lon="13.0005453"><ele>708.75</ele><time>2026-04-24T12:13:46.987Z</time></trkpt><trkpt lat="42.9903776" lon="13.000482"><ele>719.0</ele><time>2026-04-24T12:13:47.992Z</time></trkpt><trkpt lat="42.990262" lon="13.000422"><ele>719.0</ele><time>2026-04-24T12:13:48.988Z</time></trkpt><trkpt lat="42.990138" lon="13.0003687"><ele>719.0</ele><time>2026-04-24T12:13:49.99Z</time></trkpt><trkpt lat="42.9900038" lon="13.0003341"><ele>719.0</ele><time>2026-04-24T12:13:50.997Z</time></trkpt><trkpt lat="42.9898687" lon="13.0003067"><ele>719.0</ele><time>2026-04-24T12:13:51.982Z</time></trkpt><trkpt lat="42.9894834" lon="13.000231"><ele>713.75</ele><time>2026-04-24T12:13:54.981Z</time></trkpt><trkpt lat="42.9893547" lon="13.0002093"><ele>708.5</ele><time>2026-04-24T12:13:55.99Z</time></trkpt><trkpt lat="42.989231" lon="13.0002012"><ele>703.25</ele><time>2026-04-24T12:13:57.007Z</time></trkpt><trkpt lat="42.9891093" lon="13.0001897"><ele>698.0</ele><time>2026-04-24T12:13:57.989Z</time></trkpt><trkpt lat="42.9889838" lon="13.0001831"><ele>695.5</ele><time>2026-04-24T12:13:58.997Z</time></trkpt><trkpt lat="42.9888602" lon="13.0001809"><ele>693.0</ele><time>2026-04-24T12:13:59.991Z</time></trkpt><trkpt lat="42.9887418" lon="13.0001824"><ele>690.5</ele><time>2026-04-24T12:14:00.977Z</time></trkpt><trkpt lat="42.9886283" lon="13.0001789"><ele>688.0</ele><time>2026-04-24T12:14:01.985Z</time></trkpt><trkpt lat="42.9885262" lon="13.0001752"><ele>688.0</ele><time>2026-04-24T12:14:02.994Z</time></trkpt><trkpt lat="42.9884318" lon="13.0001737"><ele>688.0</ele><time>2026-04-24T12:14:03.99Z</time></trkpt><trkpt lat="42.9883445" lon="13.0001665"><ele>688.0</ele><time>2026-04-24T12:14:04.988Z</time></trkpt><trkpt lat="42.9882628" lon="13.0001649"><ele>688.0</ele><time>2026-04-24T12:14:05.975Z</time></trkpt><trkpt lat="42.9881889" lon="13.0001611"><ele>688.0</ele><time>2026-04-24T12:14:06.997Z</time></trkpt><trkpt lat="42.9881119" lon="13.0001641"><ele>688.0</ele><time>2026-04-24T12:14:07.97Z</time></trkpt><trkpt lat="42.9880352" lon="13.0001701"><ele>687.8</ele><time>2026-04-24T12:14:08.997Z</time></trkpt><trkpt lat="42.9879559" lon="13.0001737"><ele>687.5999999999999</ele><time>2026-04-24T12:14:09.989Z</time></trkpt><trkpt lat="42.9878801" lon="13.0001825"><ele>687.4000000000001</ele><time>2026-04-24T12:14:10.996Z</time></trkpt><trkpt lat="42.9878148" lon="13.0001877"><ele>687.2</ele><time>2026-04-24T12:14:11.993Z</time></trkpt><trkpt lat="42.9876966" lon="13.000192"><ele>687.0</ele><time>2026-04-24T12:14:13.978Z</time></trkpt><trkpt lat="42.9875669" lon="13.0001876"><ele>687.7142857142858</ele><time>2026-04-24T12:14:15.994Z</time></trkpt><trkpt lat="42.9874951" lon="13.0001861"><ele>688.4285714285713</ele><time>2026-04-24T12:14:16.997Z</time></trkpt><trkpt lat="42.9874244" lon="13.0001871"><ele>689.1428571428571</ele><time>2026-04-24T12:14:17.986Z</time></trkpt><trkpt lat="42.9873483" lon="13.000187"><ele>689.8571428571429</ele><time>2026-04-24T12:14:18.991Z</time></trkpt><trkpt lat="42.9872751" lon="13.0001814"><ele>690.5714285714287</ele><time>2026-04-24T12:14:19.98Z</time></trkpt><trkpt lat="42.9872014" lon="13.0001768"><ele>691.2857142857142</ele><time>2026-04-24T12:14:20.98Z</time></trkpt><trkpt lat="42.9871261" lon="13.0001807"><ele>692.0</ele><time>2026-04-24T12:14:21.985Z</time></trkpt><trkpt lat="42.9870529" lon="13.0001807"><ele>692.0</ele><time>2026-04-24T12:14:22.989Z</time></trkpt><trkpt lat="42.9869734" lon="13.0001803"><ele>692.0</ele><time>2026-04-24T12:14:23.983Z</time></trkpt><trkpt lat="42.9868905" lon="13.0001822"><ele>692.0</ele><time>2026-04-24T12:14:24.995Z</time></trkpt><trkpt lat="42.9868037" lon="13.0001853"><ele>692.0</ele><time>2026-04-24T12:14:25.982Z</time></trkpt><trkpt lat="42.986712" lon="13.0001836"><ele>692.0</ele><time>2026-04-24T12:14:26.985Z</time></trkpt><trkpt lat="42.9866178" lon="13.0001848"><ele>692.0</ele><time>2026-04-24T12:14:27.995Z</time></trkpt><trkpt lat="42.9865177" lon="13.000191"><ele>694.4000000000001</ele><time>2026-04-24T12:14:29.012Z</time></trkpt><trkpt lat="42.9864123" lon="13.0001973"><ele>696.8000000000001</ele><time>2026-04-24T12:14:29.989Z</time></trkpt><trkpt lat="42.9863068" lon="13.0001996"><ele>699.2</ele><time>2026-04-24T12:14:30.984Z</time></trkpt><trkpt lat="42.9861969" lon="13.0002032"><ele>701.6</ele><time>2026-04-24T12:14:32.009Z</time></trkpt><trkpt lat="42.9860854" lon="13.0002065"><ele>704.0</ele><time>2026-04-24T12:14:32.999Z</time></trkpt><trkpt lat="42.985974" lon="13.000211"><ele>704.0</ele><time>2026-04-24T12:14:33.984Z</time></trkpt><trkpt lat="42.9858635" lon="13.0002182"><ele>704.0</ele><time>2026-04-24T12:14:34.998Z</time></trkpt><trkpt lat="42.9857578" lon="13.0002292"><ele>704.0</ele><time>2026-04-24T12:14:35.991Z</time></trkpt><trkpt lat="42.9856574" lon="13.0002222"><ele>704.0</ele><time>2026-04-24T12:14:36.998Z</time></trkpt><trkpt lat="42.985565" lon="13.0001965"><ele>704.0</ele><time>2026-04-24T12:14:37.979Z</time></trkpt><trkpt lat="42.9854698" lon="13.0001447"><ele>706.75</ele><time>2026-04-24T12:14:38.985Z</time></trkpt><trkpt lat="42.9853778" lon="13.0000648"><ele>709.5</ele><time>2026-04-24T12:14:39.977Z</time></trkpt><trkpt lat="42.9852841" lon="12.9999675"><ele>712.25</ele><time>2026-04-24T12:14:40.996Z</time></trkpt><trkpt lat="42.9851886" lon="12.999853"><ele>715.0</ele><time>2026-04-24T12:14:41.978Z</time></trkpt><trkpt lat="42.985099" lon="12.9997343"><ele>713.0</ele><time>2026-04-24T12:14:42.989Z</time></trkpt><trkpt lat="42.9850077" lon="12.9996126"><ele>711.0</ele><time>2026-04-24T12:14:43.984Z</time></trkpt><trkpt lat="42.9849187" lon="12.9994866"><ele>709.0</ele><time>2026-04-24T12:14:44.981Z</time></trkpt><trkpt lat="42.9848301" lon="12.9993511"><ele>707.0</ele><time>2026-04-24T12:14:45.995Z</time></trkpt><trkpt lat="42.9847388" lon="12.9992133"><ele>710.75</ele><time>2026-04-24T12:14:46.986Z</time></trkpt><trkpt lat="42.9846444" lon="12.9990843"><ele>714.5</ele><time>2026-04-24T12:14:47.986Z</time></trkpt><trkpt lat="42.9845522" lon="12.9989693"><ele>718.25</ele><time>2026-04-24T12:14:48.992Z</time></trkpt><trkpt lat="42.9844511" lon="12.9988601"><ele>722.0</ele><time>2026-04-24T12:14:49.991Z</time></trkpt><trkpt lat="42.984349" lon="12.9987688"><ele>722.0</ele><time>2026-04-24T12:14:50.975Z</time></trkpt><trkpt lat="42.984246" lon="12.9986937"><ele>722.0</ele><time>2026-04-24T12:14:51.997Z</time></trkpt><trkpt lat="42.984136" lon="12.9986335"><ele>722.0</ele><time>2026-04-24T12:14:52.992Z</time></trkpt><trkpt lat="42.9840206" lon="12.9985774"><ele>722.0</ele><time>2026-04-24T12:14:53.993Z</time></trkpt><trkpt lat="42.9839069" lon="12.9985419"><ele>719.0</ele><time>2026-04-24T12:14:54.989Z</time></trkpt><trkpt lat="42.9837911" lon="12.9985209"><ele>716.0</ele><time>2026-04-24T12:14:55.988Z</time></trkpt><trkpt lat="42.983671" lon="12.9985112"><ele>713.0</ele><time>2026-04-24T12:14:56.996Z</time></trkpt><trkpt lat="42.983543" lon="12.9985214"><ele>710.0</ele><time>2026-04-24T12:14:57.998Z</time></trkpt><trkpt lat="42.9834044" lon="12.9985311"><ele>713.25</ele><time>2026-04-24T12:14:58.989Z</time></trkpt><trkpt lat="42.9832718" lon="12.9985425"><ele>716.5</ele><time>2026-04-24T12:14:59.997Z</time></trkpt><trkpt lat="42.9831399" lon="12.9985537"><ele>719.75</ele><time>2026-04-24T12:15:00.988Z</time></trkpt><trkpt lat="42.9830072" lon="12.9985705"><ele>723.0</ele><time>2026-04-24T12:15:01.997Z</time></trkpt><trkpt lat="42.9828695" lon="12.998591"><ele>723.0</ele><time>2026-04-24T12:15:03Z</time></trkpt><trkpt lat="42.9827456" lon="12.9986217"><ele>723.0</ele><time>2026-04-24T12:15:03.982Z</time></trkpt><trkpt lat="42.9826326" lon="12.998646"><ele>723.0</ele><time>2026-04-24T12:15:04.987Z</time></trkpt><trkpt lat="42.9825277" lon="12.9986724"><ele>723.0</ele><time>2026-04-24T12:15:05.99Z</time></trkpt><trkpt lat="42.9824411" lon="12.9987007"><ele>723.0</ele><time>2026-04-24T12:15:06.982Z</time></trkpt><trkpt lat="42.9823645" lon="12.9987217"><ele>723.0</ele><time>2026-04-24T12:15:07.988Z</time></trkpt><trkpt lat="42.9822998" lon="12.9987429"><ele>723.0</ele><time>2026-04-24T12:15:08.995Z</time></trkpt><trkpt lat="42.9822103" lon="12.9987994"><ele>723.0</ele><time>2026-04-24T12:15:10.979Z</time></trkpt><trkpt lat="42.9821462" lon="12.998854"><ele>723.0</ele><time>2026-04-24T12:15:12.974Z</time></trkpt><trkpt lat="42.9820764" lon="12.9989247"><ele>723.0</ele><time>2026-04-24T12:15:14.982Z</time></trkpt><trkpt lat="42.9820264" lon="12.9989927"><ele>723.0</ele><time>2026-04-24T12:15:17.99Z</time></trkpt><trkpt lat="42.9819722" lon="12.9990641"><ele>723.0000000000001</ele><time>2026-04-24T12:15:22.992Z</time></trkpt><trkpt lat="42.9819099" lon="12.9990799"><ele>723.0</ele><time>2026-04-24T12:15:33.994Z</time></trkpt><trkpt lat="42.9818808" lon="12.9991656"><ele>723.0</ele><time>2026-04-24T12:16:18.999Z</time></trkpt><trkpt lat="42.9819374" lon="12.9991217"><ele>723.0</ele><time>2026-04-24T12:16:24.988Z</time></trkpt><trkpt lat="42.9820036" lon="12.9990537"><ele>723.0</ele><time>2026-04-24T12:16:30.979Z</time></trkpt><trkpt lat="42.9820568" lon="12.9989944"><ele>723.0000000000001</ele><time>2026-04-24T12:16:32.992Z</time></trkpt><trkpt lat="42.9821182" lon="12.9989464"><ele>723.0</ele><time>2026-04-24T12:16:34.981Z</time></trkpt><trkpt lat="42.9821708" lon="12.9988879"><ele>723.0</ele><time>2026-04-24T12:16:37.985Z</time></trkpt><trkpt lat="42.982087" lon="12.9989159"><ele>723.0</ele><time>2026-04-24T12:20:03.979Z</time></trkpt><trkpt lat="42.9821653" lon="12.9988577"><ele>723.0</ele><time>2026-04-24T12:20:15.98Z</time></trkpt><trkpt lat="42.9821022" lon="12.9988701"><ele>723.0</ele><time>2026-04-24T12:33:15.023Z</time></trkpt><trkpt lat="42.9821634" lon="12.9989103"><ele>723.0</ele><time>2026-04-24T12:39:03.977Z</time></trkpt><trkpt lat="42.9822243" lon="12.9988322"><ele>723.0</ele><time>2026-04-24T12:39:06.994Z</time></trkpt><trkpt lat="42.9823127" lon="12.9987709"><ele>723.0</ele><time>2026-04-24T12:39:08.991Z</time></trkpt><trkpt lat="42.9823916" lon="12.9987387"><ele>723.0</ele><time>2026-04-24T12:39:09.98Z</time></trkpt><trkpt lat="42.982475" lon="12.9987138"><ele>723.0</ele><time>2026-04-24T12:39:10.98Z</time></trkpt><trkpt lat="42.9825686" lon="12.9986946"><ele>723.0</ele><time>2026-04-24T12:39:11.981Z</time></trkpt><trkpt lat="42.9826728" lon="12.9986741"><ele>723.0</ele><time>2026-04-24T12:39:13.004Z</time></trkpt><trkpt lat="42.9827896" lon="12.9986517"><ele>723.0</ele><time>2026-04-24T12:39:13.998Z</time></trkpt><trkpt lat="42.9829161" lon="12.9986279"><ele>723.0</ele><time>2026-04-24T12:39:14.99Z</time></trkpt><trkpt lat="42.9830464" lon="12.9986"><ele>723.0</ele><time>2026-04-24T12:39:15.98Z</time></trkpt><trkpt lat="42.9831755" lon="12.9985725"><ele>723.0</ele><time>2026-04-24T12:39:16.972Z</time></trkpt><trkpt lat="42.9833021" lon="12.9985577"><ele>720.4</ele><time>2026-04-24T12:39:17.997Z</time></trkpt><trkpt lat="42.9834164" lon="12.9985482"><ele>717.8</ele><time>2026-04-24T12:39:18.978Z</time></trkpt><trkpt lat="42.9835306" lon="12.9985425"><ele>715.2</ele><time>2026-04-24T12:39:19.968Z</time></trkpt><trkpt lat="42.9836377" lon="12.9985472"><ele>712.6</ele><time>2026-04-24T12:39:21.002Z</time></trkpt><trkpt lat="42.9837347" lon="12.9985619"><ele>710.0</ele><time>2026-04-24T12:39:22.008Z</time></trkpt><trkpt lat="42.9838193" lon="12.9985766"><ele>710.0</ele><time>2026-04-24T12:39:22.982Z</time></trkpt><trkpt lat="42.9838935" lon="12.9986036"><ele>710.0</ele><time>2026-04-24T12:39:23.975Z</time></trkpt><trkpt lat="42.9839607" lon="12.9986198"><ele>710.0</ele><time>2026-04-24T12:39:24.972Z</time></trkpt><trkpt lat="42.9840287" lon="12.9986413"><ele>710.0</ele><time>2026-04-24T12:39:25.973Z</time></trkpt><trkpt lat="42.9841012" lon="12.9986714"><ele>710.0</ele><time>2026-04-24T12:39:27.002Z</time></trkpt><trkpt lat="42.9841695" lon="12.9987035"><ele>710.0</ele><time>2026-04-24T12:39:27.997Z</time></trkpt><trkpt lat="42.9842346" lon="12.9987363"><ele>710.0</ele><time>2026-04-24T12:39:28.977Z</time></trkpt><trkpt lat="42.9842989" lon="12.9987735"><ele>709.5714285714286</ele><time>2026-04-24T12:39:29.982Z</time></trkpt><trkpt lat="42.9843588" lon="12.9988185"><ele>709.1428571428571</ele><time>2026-04-24T12:39:30.995Z</time></trkpt><trkpt lat="42.9844261" lon="12.998872"><ele>708.7142857142858</ele><time>2026-04-24T12:39:31.967Z</time></trkpt><trkpt lat="42.9844866" lon="12.998931"><ele>708.2857142857142</ele><time>2026-04-24T12:39:33.005Z</time></trkpt><trkpt lat="42.9845388" lon="12.9989966"><ele>707.8571428571429</ele><time>2026-04-24T12:39:33.98Z</time></trkpt><trkpt lat="42.9845954" lon="12.9990695"><ele>707.4285714285714</ele><time>2026-04-24T12:39:34.999Z</time></trkpt><trkpt lat="42.9846447" lon="12.9991397"><ele>707.0</ele><time>2026-04-24T12:39:35.979Z</time></trkpt><trkpt lat="42.9846986" lon="12.9992071"><ele>707.0</ele><time>2026-04-24T12:39:36.986Z</time></trkpt><trkpt lat="42.9847462" lon="12.9992744"><ele>707.0</ele><time>2026-04-24T12:39:37.986Z</time></trkpt><trkpt lat="42.9847961" lon="12.9993351"><ele>707.0</ele><time>2026-04-24T12:39:38.977Z</time></trkpt><trkpt lat="42.9848463" lon="12.9994045"><ele>707.0</ele><time>2026-04-24T12:39:39.977Z</time></trkpt><trkpt lat="42.9849005" lon="12.9994842"><ele>707.0</ele><time>2026-04-24T12:39:40.983Z</time></trkpt><trkpt lat="42.9849577" lon="12.9995615"><ele>707.0</ele><time>2026-04-24T12:39:41.981Z</time></trkpt><trkpt lat="42.9850154" lon="12.9996473"><ele>708.6</ele><time>2026-04-24T12:39:42.986Z</time></trkpt><trkpt lat="42.9850796" lon="12.9997383"><ele>710.2</ele><time>2026-04-24T12:39:43.981Z</time></trkpt><trkpt lat="42.9851481" lon="12.9998357"><ele>711.8</ele><time>2026-04-24T12:39:44.98Z</time></trkpt><trkpt lat="42.9852246" lon="12.9999414"><ele>713.4</ele><time>2026-04-24T12:39:45.987Z</time></trkpt><trkpt lat="42.9853065" lon="13.0000433"><ele>715.0</ele><time>2026-04-24T12:39:46.988Z</time></trkpt><trkpt lat="42.9853949" lon="13.0001304"><ele>715.0</ele><time>2026-04-24T12:39:47.986Z</time></trkpt><trkpt lat="42.9854888" lon="13.0002037"><ele>715.0</ele><time>2026-04-24T12:39:48.978Z</time></trkpt><trkpt lat="42.9855919" lon="13.0002498"><ele>715.0</ele><time>2026-04-24T12:39:49.974Z</time></trkpt><trkpt lat="42.9857081" lon="13.0002675"><ele>715.0</ele><time>2026-04-24T12:39:50.996Z</time></trkpt><trkpt lat="42.9858299" lon="13.000258"><ele>712.25</ele><time>2026-04-24T12:39:51.977Z</time></trkpt><trkpt lat="42.9859609" lon="13.0002431"><ele>709.5</ele><time>2026-04-24T12:39:52.985Z</time></trkpt><trkpt lat="42.9861004" lon="13.0002329"><ele>706.75</ele><time>2026-04-24T12:39:53.989Z</time></trkpt><trkpt lat="42.986246" lon="13.0002224"><ele>704.0</ele><time>2026-04-24T12:39:54.998Z</time></trkpt><trkpt lat="42.9863887" lon="13.0002161"><ele>704.0</ele><time>2026-04-24T12:39:55.971Z</time></trkpt><trkpt lat="42.986534" lon="13.0002097"><ele>704.0</ele><time>2026-04-24T12:39:57.003Z</time></trkpt><trkpt lat="42.9866763" lon="13.0002035"><ele>704.0</ele><time>2026-04-24T12:39:57.97Z</time></trkpt><trkpt lat="42.9868134" lon="13.0001965"><ele>704.0</ele><time>2026-04-24T12:39:59.006Z</time></trkpt><trkpt lat="42.9869489" lon="13.0001911"><ele>701.0</ele><time>2026-04-24T12:39:59.978Z</time></trkpt><trkpt lat="42.9870922" lon="13.0001907"><ele>698.0</ele><time>2026-04-24T12:40:00.986Z</time></trkpt><trkpt lat="42.9872335" lon="13.0001878"><ele>695.0</ele><time>2026-04-24T12:40:01.982Z</time></trkpt><trkpt lat="42.9873699" lon="13.0001875"><ele>692.0</ele><time>2026-04-24T12:40:02.999Z</time></trkpt><trkpt lat="42.9875048" lon="13.0001905"><ele>690.75</ele><time>2026-04-24T12:40:03.975Z</time></trkpt><trkpt lat="42.9876334" lon="13.0001937"><ele>689.5</ele><time>2026-04-24T12:40:04.972Z</time></trkpt><trkpt lat="42.9877576" lon="13.000191"><ele>688.25</ele><time>2026-04-24T12:40:05.998Z</time></trkpt><trkpt lat="42.9878819" lon="13.0001905"><ele>687.0</ele><time>2026-04-24T12:40:06.999Z</time></trkpt><trkpt lat="42.9880029" lon="13.0001914"><ele>687.0</ele><time>2026-04-24T12:40:07.999Z</time></trkpt><trkpt lat="42.9881201" lon="13.0001892"><ele>687.0</ele><time>2026-04-24T12:40:08.985Z</time></trkpt><trkpt lat="42.9882303" lon="13.0001856"><ele>687.0</ele><time>2026-04-24T12:40:10.008Z</time></trkpt><trkpt lat="42.9883415" lon="13.000178"><ele>687.0</ele><time>2026-04-24T12:40:10.976Z</time></trkpt><trkpt lat="42.9884517" lon="13.0001797"><ele>687.0</ele><time>2026-04-24T12:40:11.991Z</time></trkpt><trkpt lat="42.9885589" lon="13.0001834"><ele>687.2</ele><time>2026-04-24T12:40:13.008Z</time></trkpt><trkpt lat="42.9886572" lon="13.000187"><ele>687.4000000000001</ele><time>2026-04-24T12:40:13.989Z</time></trkpt><trkpt lat="42.9887525" lon="13.0001966"><ele>687.5999999999999</ele><time>2026-04-24T12:40:14.981Z</time></trkpt><trkpt lat="42.9888425" lon="13.0002066"><ele>687.8</ele><time>2026-04-24T12:40:15.967Z</time></trkpt><trkpt lat="42.9889329" lon="13.000212"><ele>688.0</ele><time>2026-04-24T12:40:16.981Z</time></trkpt><trkpt lat="42.989017" lon="13.0002209"><ele>688.0</ele><time>2026-04-24T12:40:17.979Z</time></trkpt><trkpt lat="42.9891055" lon="13.0002285"><ele>688.0</ele><time>2026-04-24T12:40:18.994Z</time></trkpt><trkpt lat="42.9891877" lon="13.0002335"><ele>688.0</ele><time>2026-04-24T12:40:19.974Z</time></trkpt><trkpt lat="42.9892683" lon="13.0002374"><ele>688.0</ele><time>2026-04-24T12:40:20.974Z</time></trkpt><trkpt lat="42.9893507" lon="13.0002379"><ele>688.0</ele><time>2026-04-24T12:40:21.976Z</time></trkpt><trkpt lat="42.9894402" lon="13.0002472"><ele>688.0</ele><time>2026-04-24T12:40:22.978Z</time></trkpt><trkpt lat="42.9895214" lon="13.000255"><ele>689.6666666666667</ele><time>2026-04-24T12:40:23.982Z</time></trkpt><trkpt lat="42.9895941" lon="13.0002709"><ele>691.3333333333334</ele><time>2026-04-24T12:40:24.99Z</time></trkpt><trkpt lat="42.9896704" lon="13.0002814"><ele>693.0</ele><time>2026-04-24T12:40:26.01Z</time></trkpt><trkpt lat="42.9897491" lon="13.0002902"><ele>694.6666666666666</ele><time>2026-04-24T12:40:26.977Z</time></trkpt><trkpt lat="42.9898239" lon="13.000297"><ele>696.3333333333333</ele><time>2026-04-24T12:40:27.973Z</time></trkpt><trkpt lat="42.9899008" lon="13.0003016"><ele>698.0</ele><time>2026-04-24T12:40:28.982Z</time></trkpt><trkpt lat="42.9899762" lon="13.0003239"><ele>702.2</ele><time>2026-04-24T12:40:30.001Z</time></trkpt><trkpt lat="42.9900548" lon="13.0003509"><ele>706.4</ele><time>2026-04-24T12:40:30.985Z</time></trkpt><trkpt lat="42.9901329" lon="13.0003903"><ele>710.6</ele><time>2026-04-24T12:40:31.992Z</time></trkpt><trkpt lat="42.9902252" lon="13.0004436"><ele>714.8000000000001</ele><time>2026-04-24T12:40:32.984Z</time></trkpt><trkpt lat="42.9903249" lon="13.000494"><ele>719.0</ele><time>2026-04-24T12:40:33.987Z</time></trkpt><trkpt lat="42.9904157" lon="13.0005466"><ele>719.0</ele><time>2026-04-24T12:40:34.973Z</time></trkpt><trkpt lat="42.9905047" lon="13.0005912"><ele>719.0</ele><time>2026-04-24T12:40:36.006Z</time></trkpt><trkpt lat="42.9905944" lon="13.0006446"><ele>719.0</ele><time>2026-04-24T12:40:36.982Z</time></trkpt><trkpt lat="42.9906812" lon="13.0007009"><ele>719.0</ele><time>2026-04-24T12:40:37.967Z</time></trkpt><trkpt lat="42.990764" lon="13.0007473"><ele>719.0</ele><time>2026-04-24T12:40:39.008Z</time></trkpt><trkpt lat="42.9908537" lon="13.0007986"><ele>710.8000000000001</ele><time>2026-04-24T12:40:39.983Z</time></trkpt><trkpt lat="42.9909529" lon="13.0008466"><ele>702.6</ele><time>2026-04-24T12:40:40.974Z</time></trkpt><trkpt lat="42.9910599" lon="13.0009007"><ele>694.4</ele><time>2026-04-24T12:40:41.995Z</time></trkpt><trkpt lat="42.9911596" lon="13.0009559"><ele>686.2</ele><time>2026-04-24T12:40:42.98Z</time></trkpt><trkpt lat="42.9912626" lon="13.0010174"><ele>678.0</ele><time>2026-04-24T12:40:43.97Z</time></trkpt><trkpt lat="42.9913673" lon="13.0010897"><ele>678.0</ele><time>2026-04-24T12:40:44.993Z</time></trkpt><trkpt lat="42.9914751" lon="13.0011697"><ele>678.0</ele><time>2026-04-24T12:40:45.989Z</time></trkpt><trkpt lat="42.9915757" lon="13.0012628"><ele>678.0</ele><time>2026-04-24T12:40:46.981Z</time></trkpt><trkpt lat="42.9916771" lon="13.0013692"><ele>678.0</ele><time>2026-04-24T12:40:47.989Z</time></trkpt><trkpt lat="42.9917697" lon="13.0014851"><ele>676.0</ele><time>2026-04-24T12:40:48.983Z</time></trkpt><trkpt lat="42.9918567" lon="13.0016189"><ele>674.0</ele><time>2026-04-24T12:40:49.982Z</time></trkpt><trkpt lat="42.9919441" lon="13.0017676"><ele>672.0</ele><time>2026-04-24T12:40:50.969Z</time></trkpt><trkpt lat="42.9920387" lon="13.0019054"><ele>670.0</ele><time>2026-04-24T12:40:51.981Z</time></trkpt><trkpt lat="42.9921536" lon="13.0020112"><ele>664.0</ele><time>2026-04-24T12:40:52.985Z</time></trkpt><trkpt lat="42.9922926" lon="13.0020825"><ele>658.0</ele><time>2026-04-24T12:40:53.992Z</time></trkpt><trkpt lat="42.9924446" lon="13.0021314"><ele>652.0</ele><time>2026-04-24T12:40:54.986Z</time></trkpt><trkpt lat="42.9925903" lon="13.0021573"><ele>651.5</ele><time>2026-04-24T12:40:56.001Z</time></trkpt><trkpt lat="42.9927369" lon="13.0021684"><ele>651.0</ele><time>2026-04-24T12:40:56.975Z</time></trkpt><trkpt lat="42.9928831" lon="13.0021798"><ele>650.5</ele><time>2026-04-24T12:40:57.989Z</time></trkpt><trkpt lat="42.9930237" lon="13.002196"><ele>650.0</ele><time>2026-04-24T12:40:58.968Z</time></trkpt><trkpt lat="42.9931614" lon="13.0022151"><ele>650.0</ele><time>2026-04-24T12:40:59.992Z</time></trkpt><trkpt lat="42.9932886" lon="13.0022343"><ele>650.0</ele><time>2026-04-24T12:41:01.005Z</time></trkpt><trkpt lat="42.9934096" lon="13.0022516"><ele>650.0</ele><time>2026-04-24T12:41:02.004Z</time></trkpt><trkpt lat="42.9935226" lon="13.0022717"><ele>650.0</ele><time>2026-04-24T12:41:02.99Z</time></trkpt><trkpt lat="42.9936322" lon="13.0022898"><ele>650.0</ele><time>2026-04-24T12:41:03.974Z</time></trkpt><trkpt lat="42.993732" lon="13.0023118"><ele>650.0</ele><time>2026-04-24T12:41:04.977Z</time></trkpt><trkpt lat="42.9938198" lon="13.0023332"><ele>650.0</ele><time>2026-04-24T12:41:06.001Z</time></trkpt><trkpt lat="42.9939037" lon="13.0023432"><ele>650.0</ele><time>2026-04-24T12:41:06.984Z</time></trkpt><trkpt lat="42.9939843" lon="13.0023467"><ele>650.0</ele><time>2026-04-24T12:41:08.012Z</time></trkpt><trkpt lat="42.9940564" lon="13.0023405"><ele>650.0</ele><time>2026-04-24T12:41:08.974Z</time></trkpt><trkpt lat="42.9941295" lon="13.0023315"><ele>652.1666666666666</ele><time>2026-04-24T12:41:10.008Z</time></trkpt><trkpt lat="42.9941957" lon="13.0023315"><ele>654.3333333333333</ele><time>2026-04-24T12:41:10.983Z</time></trkpt><trkpt lat="42.9942618" lon="13.0023415"><ele>656.5</ele><time>2026-04-24T12:41:11.996Z</time></trkpt><trkpt lat="42.9943719" lon="13.0023644"><ele>658.6666666666666</ele><time>2026-04-24T12:41:13.971Z</time></trkpt><trkpt lat="42.9944708" lon="13.0022673"><ele>660.8333333333334</ele><time>2026-04-24T12:41:15.997Z</time></trkpt><trkpt lat="42.9945097" lon="13.0021686"><ele>663.0</ele><time>2026-04-24T12:41:16.988Z</time></trkpt><trkpt lat="42.9945471" lon="13.0020784"><ele>663.0</ele><time>2026-04-24T12:41:17.993Z</time></trkpt><trkpt lat="42.994581" lon="13.0020002"><ele>663.0</ele><time>2026-04-24T12:41:18.987Z</time></trkpt><trkpt lat="42.9946538" lon="13.0018701"><ele>663.0</ele><time>2026-04-24T12:41:20.982Z</time></trkpt><trkpt lat="42.994692" lon="13.0017951"><ele>663.0</ele><time>2026-04-24T12:41:22.004Z</time></trkpt><trkpt lat="42.9947896" lon="13.0017417"><ele>663.0</ele><time>2026-04-24T12:41:23.982Z</time></trkpt><trkpt lat="42.9948709" lon="13.0017646"><ele>663.0</ele><time>2026-04-24T12:41:27.006Z</time></trkpt><trkpt lat="42.9949295" lon="13.0018049"><ele>663.0</ele><time>2026-04-24T12:41:29.99Z</time></trkpt><trkpt lat="42.9949822" lon="13.001873"><ele>663.0</ele><time>2026-04-24T12:41:33.005Z</time></trkpt><trkpt lat="42.9950265" lon="13.0019431"><ele>663.0</ele><time>2026-04-24T12:41:34.999Z</time></trkpt><trkpt lat="42.9950989" lon="13.0020131"><ele>663.0</ele><time>2026-04-24T12:41:37.98Z</time></trkpt><trkpt lat="42.9952012" lon="13.0021391"><ele>663.0</ele><time>2026-04-24T12:41:39.989Z</time></trkpt><trkpt lat="42.9952612" lon="13.0022075"><ele>663.0</ele><time>2026-04-24T12:41:40.977Z</time></trkpt><trkpt lat="42.9953261" lon="13.002286"><ele>667.0</ele><time>2026-04-24T12:41:41.984Z</time></trkpt><trkpt lat="42.9953939" lon="13.0023965"><ele>671.0</ele><time>2026-04-24T12:41:42.994Z</time></trkpt><trkpt lat="42.9954574" lon="13.0025247"><ele>675.0</ele><time>2026-04-24T12:41:43.979Z</time></trkpt><trkpt lat="42.9955234" lon="13.0026673"><ele>679.0</ele><time>2026-04-24T12:41:44.988Z</time></trkpt><trkpt lat="42.9955932" lon="13.0028269"><ele>679.0</ele><time>2026-04-24T12:41:45.987Z</time></trkpt><trkpt lat="42.9956727" lon="13.0029899"><ele>679.0</ele><time>2026-04-24T12:41:46.992Z</time></trkpt><trkpt lat="42.9957478" lon="13.0031718"><ele>679.0</ele><time>2026-04-24T12:41:47.978Z</time></trkpt><trkpt lat="42.9958186" lon="13.0033568"><ele>679.0</ele><time>2026-04-24T12:41:48.989Z</time></trkpt><trkpt lat="42.9958877" lon="13.0035333"><ele>681.0</ele><time>2026-04-24T12:41:50.003Z</time></trkpt><trkpt lat="42.9959527" lon="13.0037067"><ele>683.0</ele><time>2026-04-24T12:41:50.995Z</time></trkpt><trkpt lat="42.9960182" lon="13.0038722"><ele>685.0</ele><time>2026-04-24T12:41:51.987Z</time></trkpt><trkpt lat="42.9960793" lon="13.004037"><ele>687.0</ele><time>2026-04-24T12:41:52.987Z</time></trkpt><trkpt lat="42.9961363" lon="13.0041829"><ele>687.0</ele><time>2026-04-24T12:41:53.989Z</time></trkpt><trkpt lat="42.9961939" lon="13.0043188"><ele>687.0</ele><time>2026-04-24T12:41:54.973Z</time></trkpt><trkpt lat="42.9962449" lon="13.0044262"><ele>687.0</ele><time>2026-04-24T12:41:55.967Z</time></trkpt><trkpt lat="42.9963094" lon="13.004512"><ele>687.0</ele><time>2026-04-24T12:41:56.988Z</time></trkpt><trkpt lat="42.9963819" lon="13.0045824"><ele>687.0</ele><time>2026-04-24T12:41:57.988Z</time></trkpt><trkpt lat="42.9964486" lon="13.0046493"><ele>687.0</ele><time>2026-04-24T12:41:58.984Z</time></trkpt><trkpt lat="42.99651" lon="13.0047292"><ele>687.0</ele><time>2026-04-24T12:41:59.982Z</time></trkpt><trkpt lat="42.9965775" lon="13.0048275"><ele>687.0</ele><time>2026-04-24T12:42:00.987Z</time></trkpt><trkpt lat="42.9966391" lon="13.0049154"><ele>687.0</ele><time>2026-04-24T12:42:01.997Z</time></trkpt><trkpt lat="42.9967101" lon="13.0050074"><ele>687.0</ele><time>2026-04-24T12:42:03.003Z</time></trkpt><trkpt lat="42.9967892" lon="13.005088"><ele>689.75</ele><time>2026-04-24T12:42:03.983Z</time></trkpt><trkpt lat="42.9968846" lon="13.0051684"><ele>692.5</ele><time>2026-04-24T12:42:04.988Z</time></trkpt><trkpt lat="42.9969899" lon="13.0052473"><ele>695.25</ele><time>2026-04-24T12:42:05.968Z</time></trkpt><trkpt lat="42.9970997" lon="13.0053336"><ele>698.0</ele><time>2026-04-24T12:42:06.997Z</time></trkpt><trkpt lat="42.9972014" lon="13.0054237"><ele>698.0</ele><time>2026-04-24T12:42:07.969Z</time></trkpt><trkpt lat="42.9972869" lon="13.005533"><ele>698.0</ele><time>2026-04-24T12:42:09.002Z</time></trkpt><trkpt lat="42.9973631" lon="13.0056684"><ele>698.0</ele><time>2026-04-24T12:42:09.968Z</time></trkpt><trkpt lat="42.997435" lon="13.0058037"><ele>698.0</ele><time>2026-04-24T12:42:11.003Z</time></trkpt><trkpt lat="42.9975047" lon="13.0059308"><ele>698.2</ele><time>2026-04-24T12:42:11.997Z</time></trkpt><trkpt lat="42.9975808" lon="13.006016"><ele>698.4</ele><time>2026-04-24T12:42:12.988Z</time></trkpt><trkpt lat="42.9976844" lon="13.0060425"><ele>698.6</ele><time>2026-04-24T12:42:13.991Z</time></trkpt><trkpt lat="42.9978" lon="13.0060371"><ele>698.8000000000001</ele><time>2026-04-24T12:42:14.996Z</time></trkpt><trkpt lat="42.9979117" lon="13.0060607"><ele>699.0</ele><time>2026-04-24T12:42:15.99Z</time></trkpt><trkpt lat="42.9980201" lon="13.0061264"><ele>699.0</ele><time>2026-04-24T12:42:16.97Z</time></trkpt><trkpt lat="42.9981293" lon="13.0062159"><ele>699.0</ele><time>2026-04-24T12:42:17.997Z</time></trkpt><trkpt lat="42.9982299" lon="13.0063235"><ele>699.0</ele><time>2026-04-24T12:42:18.993Z</time></trkpt><trkpt lat="42.9983307" lon="13.0064415"><ele>699.0</ele><time>2026-04-24T12:42:19.976Z</time></trkpt><trkpt lat="42.9984238" lon="13.0065576"><ele>700.6</ele><time>2026-04-24T12:42:20.982Z</time></trkpt><trkpt lat="42.9985026" lon="13.006672"><ele>702.2</ele><time>2026-04-24T12:42:21.989Z</time></trkpt><trkpt lat="42.9985661" lon="13.0067889"><ele>703.8000000000001</ele><time>2026-04-24T12:42:22.979Z</time></trkpt><trkpt lat="42.9986226" lon="13.0069026"><ele>705.4000000000001</ele><time>2026-04-24T12:42:23.978Z</time></trkpt><trkpt lat="42.9987011" lon="13.0069932"><ele>707.0</ele><time>2026-04-24T12:42:24.973Z</time></trkpt><trkpt lat="42.9988004" lon="13.0070428"><ele>707.0</ele><time>2026-04-24T12:42:25.98Z</time></trkpt><trkpt lat="42.9989058" lon="13.0070601"><ele>707.0</ele><time>2026-04-24T12:42:26.998Z</time></trkpt><trkpt lat="42.9990054" lon="13.0070808"><ele>707.0</ele><time>2026-04-24T12:42:27.965Z</time></trkpt><trkpt lat="42.9991032" lon="13.0071143"><ele>707.0</ele><time>2026-04-24T12:42:28.973Z</time></trkpt><trkpt lat="42.9992054" lon="13.00715"><ele>707.0</ele><time>2026-04-24T12:42:29.986Z</time></trkpt><trkpt lat="42.9993168" lon="13.0072038"><ele>713.75</ele><time>2026-04-24T12:42:30.978Z</time></trkpt><trkpt lat="42.999422" lon="13.0072739"><ele>720.5</ele><time>2026-04-24T12:42:31.97Z</time></trkpt><trkpt lat="42.9995241" lon="13.0073507"><ele>727.25</ele><time>2026-04-24T12:42:32.989Z</time></trkpt><trkpt lat="42.9996372" lon="13.0074224"><ele>734.0</ele><time>2026-04-24T12:42:33.978Z</time></trkpt><trkpt lat="42.9997599" lon="13.0074781"><ele>721.5</ele><time>2026-04-24T12:42:34.985Z</time></trkpt><trkpt lat="42.9998836" lon="13.0075211"><ele>709.0</ele><time>2026-04-24T12:42:35.972Z</time></trkpt><trkpt lat="43.0000067" lon="13.0075563"><ele>696.5</ele><time>2026-04-24T12:42:36.994Z</time></trkpt><trkpt lat="43.0001252" lon="13.0075852"><ele>684.0</ele><time>2026-04-24T12:42:37.996Z</time></trkpt><trkpt lat="43.0002538" lon="13.0075962"><ele>684.0</ele><time>2026-04-24T12:42:38.982Z</time></trkpt><trkpt lat="43.0003887" lon="13.007603"><ele>684.0</ele><time>2026-04-24T12:42:39.98Z</time></trkpt><trkpt lat="43.0005253" lon="13.0076007"><ele>684.0</ele><time>2026-04-24T12:42:40.974Z</time></trkpt><trkpt lat="43.000656" lon="13.0075919"><ele>684.0</ele><time>2026-04-24T12:42:41.984Z</time></trkpt><trkpt lat="43.0007822" lon="13.0075817"><ele>686.4000000000001</ele><time>2026-04-24T12:42:43.013Z</time></trkpt><trkpt lat="43.0009068" lon="13.0075683"><ele>688.8</ele><time>2026-04-24T12:42:43.988Z</time></trkpt><trkpt lat="43.0010154" lon="13.0075614"><ele>691.2</ele><time>2026-04-24T12:42:44.985Z</time></trkpt><trkpt lat="43.0011158" lon="13.0075659"><ele>693.5999999999999</ele><time>2026-04-24T12:42:45.992Z</time></trkpt><trkpt lat="43.0012066" lon="13.0075972"><ele>696.0</ele><time>2026-04-24T12:42:46.978Z</time></trkpt><trkpt lat="43.0012915" lon="13.00766"><ele>696.0</ele><time>2026-04-24T12:42:47.992Z</time></trkpt><trkpt lat="43.0013795" lon="13.0077413"><ele>696.0</ele><time>2026-04-24T12:42:48.983Z</time></trkpt><trkpt lat="43.001478" lon="13.0078035"><ele>696.0</ele><time>2026-04-24T12:42:49.973Z</time></trkpt><trkpt lat="43.0015858" lon="13.0078306"><ele>696.0</ele><time>2026-04-24T12:42:50.991Z</time></trkpt><trkpt lat="43.0016933" lon="13.0078556"><ele>696.0</ele><time>2026-04-24T12:42:51.978Z</time></trkpt><trkpt lat="43.0018064" lon="13.0078638"><ele>701.0</ele><time>2026-04-24T12:42:52.993Z</time></trkpt><trkpt lat="43.0019267" lon="13.0078888"><ele>706.0</ele><time>2026-04-24T12:42:53.966Z</time></trkpt><trkpt lat="43.0020498" lon="13.0079348"><ele>711.0</ele><time>2026-04-24T12:42:54.999Z</time></trkpt><trkpt lat="43.0021725" lon="13.0079925"><ele>716.0</ele><time>2026-04-24T12:42:55.976Z</time></trkpt><trkpt lat="43.0022914" lon="13.0080526"><ele>716.0</ele><time>2026-04-24T12:42:56.987Z</time></trkpt><trkpt lat="43.0024011" lon="13.0080993"><ele>716.0</ele><time>2026-04-24T12:42:57.991Z</time></trkpt><trkpt lat="43.0025145" lon="13.0081331"><ele>716.0</ele><time>2026-04-24T12:42:58.978Z</time></trkpt><trkpt lat="43.0028084" lon="13.0080959"><ele>714.5</ele><time>2026-04-24T12:43:01.976Z</time></trkpt><trkpt lat="43.0028765" lon="13.008095"><ele>713.0</ele><time>2026-04-24T12:43:02.982Z</time></trkpt><trkpt lat="43.0029387" lon="13.008138"><ele>711.5</ele><time>2026-04-24T12:43:03.98Z</time></trkpt><trkpt lat="43.0029943" lon="13.0082252"><ele>710.0</ele><time>2026-04-24T12:43:04.981Z</time></trkpt><trkpt lat="43.0030561" lon="13.0083373"><ele>708.5</ele><time>2026-04-24T12:43:05.989Z</time></trkpt><trkpt lat="43.0031212" lon="13.008452"><ele>707.0</ele><time>2026-04-24T12:43:06.984Z</time></trkpt><trkpt lat="43.0031935" lon="13.0085784"><ele>707.0</ele><time>2026-04-24T12:43:07.975Z</time></trkpt><trkpt lat="43.0032759" lon="13.0087013"><ele>707.0</ele><time>2026-04-24T12:43:08.976Z</time></trkpt><trkpt lat="43.0033566" lon="13.0088151"><ele>707.0</ele><time>2026-04-24T12:43:09.995Z</time></trkpt><trkpt lat="43.0034304" lon="13.0089275"><ele>707.0</ele><time>2026-04-24T12:43:10.973Z</time></trkpt><trkpt lat="43.0035014" lon="13.0090295"><ele>708.4000000000001</ele><time>2026-04-24T12:43:11.977Z</time></trkpt><trkpt lat="43.0035806" lon="13.0091205"><ele>709.8000000000001</ele><time>2026-04-24T12:43:12.998Z</time></trkpt><trkpt lat="43.003678" lon="13.0091936"><ele>711.2</ele><time>2026-04-24T12:43:14.002Z</time></trkpt><trkpt lat="43.0037853" lon="13.0092337"><ele>712.6</ele><time>2026-04-24T12:43:14.979Z</time></trkpt><trkpt lat="43.0038937" lon="13.0092437"><ele>714.0</ele><time>2026-04-24T12:43:15.995Z</time></trkpt><trkpt lat="43.0039969" lon="13.0092445"><ele>714.0</ele><time>2026-04-24T12:43:16.977Z</time></trkpt><trkpt lat="43.0040974" lon="13.0092456"><ele>714.0</ele><time>2026-04-24T12:43:17.985Z</time></trkpt><trkpt lat="43.0041987" lon="13.0092254"><ele>714.0</ele><time>2026-04-24T12:43:18.981Z</time></trkpt><trkpt lat="43.0043059" lon="13.0091946"><ele>714.0</ele><time>2026-04-24T12:43:19.97Z</time></trkpt><trkpt lat="43.0044147" lon="13.0091466"><ele>714.0</ele><time>2026-04-24T12:43:21.007Z</time></trkpt><trkpt lat="43.0045227" lon="13.0090781"><ele>724.25</ele><time>2026-04-24T12:43:21.989Z</time></trkpt><trkpt lat="43.0046254" lon="13.0089903"><ele>734.5</ele><time>2026-04-24T12:43:22.989Z</time></trkpt><trkpt lat="43.0047262" lon="13.0088861"><ele>744.75</ele><time>2026-04-24T12:43:23.97Z</time></trkpt><trkpt lat="43.0048233" lon="13.0087665"><ele>755.0</ele><time>2026-04-24T12:43:24.983Z</time></trkpt><trkpt lat="43.0049128" lon="13.0086414"><ele>752.5</ele><time>2026-04-24T12:43:25.981Z</time></trkpt><trkpt lat="43.0050058" lon="13.0085123"><ele>750.0</ele><time>2026-04-24T12:43:26.97Z</time></trkpt><trkpt lat="43.0051024" lon="13.0083887"><ele>747.5</ele><time>2026-04-24T12:43:27.982Z</time></trkpt><trkpt lat="43.0052018" lon="13.0082707"><ele>745.0</ele><time>2026-04-24T12:43:28.971Z</time></trkpt><trkpt lat="43.005301" lon="13.0081615"><ele>755.5</ele><time>2026-04-24T12:43:29.979Z</time></trkpt><trkpt lat="43.0054002" lon="13.00806"><ele>766.0</ele><time>2026-04-24T12:43:30.984Z</time></trkpt><trkpt lat="43.0054901" lon="13.0079454"><ele>776.5</ele><time>2026-04-24T12:43:31.97Z</time></trkpt><trkpt lat="43.0055686" lon="13.0078291"><ele>787.0</ele><time>2026-04-24T12:43:32.98Z</time></trkpt><trkpt lat="43.0056403" lon="13.0077417"><ele>787.0</ele><time>2026-04-24T12:43:33.974Z</time></trkpt><trkpt lat="43.0057202" lon="13.0076995"><ele>787.0</ele><time>2026-04-24T12:43:34.977Z</time></trkpt><trkpt lat="43.0058195" lon="13.0076976"><ele>787.0</ele><time>2026-04-24T12:43:35.982Z</time></trkpt><trkpt lat="43.0059128" lon="13.0077145"><ele>787.0</ele><time>2026-04-24T12:43:36.99Z</time></trkpt><trkpt lat="43.0059874" lon="13.0077301"><ele>787.0</ele><time>2026-04-24T12:43:38.005Z</time></trkpt><trkpt lat="43.0061019" lon="13.0077248"><ele>784.1666666666666</ele><time>2026-04-24T12:43:39.97Z</time></trkpt><trkpt lat="43.0061793" lon="13.0077104"><ele>781.3333333333333</ele><time>2026-04-24T12:43:40.979Z</time></trkpt><trkpt lat="43.0062669" lon="13.007706"><ele>778.5</ele><time>2026-04-24T12:43:42.009Z</time></trkpt><trkpt lat="43.006354" lon="13.0077169"><ele>775.6666666666667</ele><time>2026-04-24T12:43:42.976Z</time></trkpt><trkpt lat="43.0064493" lon="13.0077244"><ele>772.8333333333334</ele><time>2026-04-24T12:43:43.98Z</time></trkpt><trkpt lat="43.0065481" lon="13.0077399"><ele>770.0</ele><time>2026-04-24T12:43:44.982Z</time></trkpt><trkpt lat="43.0066442" lon="13.0077633"><ele>771.6666666666667</ele><time>2026-04-24T12:43:45.978Z</time></trkpt><trkpt lat="43.0067311" lon="13.0077946"><ele>773.3333333333334</ele><time>2026-04-24T12:43:46.973Z</time></trkpt><trkpt lat="43.0068108" lon="13.0078286"><ele>775.0</ele><time>2026-04-24T12:43:47.973Z</time></trkpt><trkpt lat="43.0068896" lon="13.007884"><ele>776.6666666666667</ele><time>2026-04-24T12:43:48.971Z</time></trkpt><trkpt lat="43.0069407" lon="13.0079693"><ele>778.3333333333334</ele><time>2026-04-24T12:43:49.986Z</time></trkpt><trkpt lat="43.0069429" lon="13.008074"><ele>780.0</ele><time>2026-04-24T12:43:50.978Z</time></trkpt><trkpt lat="43.0069183" lon="13.0082023"><ele>774.75</ele><time>2026-04-24T12:43:51.981Z</time></trkpt><trkpt lat="43.0068872" lon="13.008345"><ele>769.5</ele><time>2026-04-24T12:43:52.971Z</time></trkpt><trkpt lat="43.006883" lon="13.0084962"><ele>764.25</ele><time>2026-04-24T12:43:54.003Z</time></trkpt><trkpt lat="43.0068888" lon="13.0086626"><ele>759.0</ele><time>2026-04-24T12:43:54.982Z</time></trkpt><trkpt lat="43.0068996" lon="13.0088495"><ele>759.0</ele><time>2026-04-24T12:43:55.988Z</time></trkpt><trkpt lat="43.0069118" lon="13.0090667"><ele>759.0</ele><time>2026-04-24T12:43:56.979Z</time></trkpt><trkpt lat="43.006941" lon="13.0093001"><ele>759.0</ele><time>2026-04-24T12:43:58.001Z</time></trkpt><trkpt lat="43.0069988" lon="13.0095321"><ele>755.0</ele><time>2026-04-24T12:43:58.979Z</time></trkpt><trkpt lat="43.007065" lon="13.0097294"><ele>751.0</ele><time>2026-04-24T12:43:59.981Z</time></trkpt><trkpt lat="43.0071097" lon="13.0099234"><ele>747.0</ele><time>2026-04-24T12:44:00.972Z</time></trkpt><trkpt lat="43.0071278" lon="13.0101219"><ele>746.3333333333334</ele><time>2026-04-24T12:44:01.996Z</time></trkpt><trkpt lat="43.0071285" lon="13.0103395"><ele>745.6666666666667</ele><time>2026-04-24T12:44:02.982Z</time></trkpt><trkpt lat="43.0071191" lon="13.010552"><ele>745.0</ele><time>2026-04-24T12:44:03.982Z</time></trkpt><trkpt lat="43.0071268" lon="13.0107634"><ele>743.75</ele><time>2026-04-24T12:44:04.977Z</time></trkpt><trkpt lat="43.007143" lon="13.0109554"><ele>742.5</ele><time>2026-04-24T12:44:05.996Z</time></trkpt><trkpt lat="43.0071791" lon="13.0111344"><ele>741.25</ele><time>2026-04-24T12:44:06.975Z</time></trkpt><trkpt lat="43.0072242" lon="13.0112892"><ele>740.0</ele><time>2026-04-24T12:44:07.99Z</time></trkpt><trkpt lat="43.0072759" lon="13.0113979"><ele>740.0</ele><time>2026-04-24T12:44:08.98Z</time></trkpt><trkpt lat="43.0073664" lon="13.011471"><ele>740.0</ele><time>2026-04-24T12:44:09.997Z</time></trkpt><trkpt lat="43.0074662" lon="13.0115058"><ele>740.0</ele><time>2026-04-24T12:44:10.973Z</time></trkpt><trkpt lat="43.0075921" lon="13.0115527"><ele>740.0</ele><time>2026-04-24T12:44:11.971Z</time></trkpt><trkpt lat="43.0077219" lon="13.0116021"><ele>755.0</ele><time>2026-04-24T12:44:12.988Z</time></trkpt><trkpt lat="43.0078456" lon="13.0116416"><ele>770.0</ele><time>2026-04-24T12:44:13.973Z</time></trkpt><trkpt lat="43.0079641" lon="13.0116274"><ele>785.0</ele><time>2026-04-24T12:44:14.992Z</time></trkpt><trkpt lat="43.0080888" lon="13.0115974"><ele>800.0</ele><time>2026-04-24T12:44:15.975Z</time></trkpt><trkpt lat="43.0082029" lon="13.0115453"><ele>800.0000000000001</ele><time>2026-04-24T12:44:16.978Z</time></trkpt><trkpt lat="43.0083048" lon="13.0115037"><ele>800.0</ele><time>2026-04-24T12:44:17.986Z</time></trkpt><trkpt lat="43.008383" lon="13.0114953"><ele>800.0</ele><time>2026-04-24T12:44:18.986Z</time></trkpt><trkpt lat="43.0084508" lon="13.0115386"><ele>800.0</ele><time>2026-04-24T12:44:19.976Z</time></trkpt><trkpt lat="43.0084847" lon="13.0116403"><ele>800.0000000000001</ele><time>2026-04-24T12:44:20.98Z</time></trkpt><trkpt lat="43.0084764" lon="13.0117673"><ele>800.0</ele><time>2026-04-24T12:44:21.971Z</time></trkpt><trkpt lat="43.0084605" lon="13.0119211"><ele>800.25</ele><time>2026-04-24T12:44:22.982Z</time></trkpt><trkpt lat="43.0084678" lon="13.0120734"><ele>800.5</ele><time>2026-04-24T12:44:23.981Z</time></trkpt><trkpt lat="43.0084997" lon="13.0122573"><ele>800.75</ele><time>2026-04-24T12:44:24.991Z</time></trkpt><trkpt lat="43.0085373" lon="13.0124521"><ele>801.0</ele><time>2026-04-24T12:44:25.969Z</time></trkpt><trkpt lat="43.00858" lon="13.0126478"><ele>797.75</ele><time>2026-04-24T12:44:26.976Z</time></trkpt><trkpt lat="43.008624" lon="13.0128343"><ele>794.5</ele><time>2026-04-24T12:44:27.994Z</time></trkpt><trkpt lat="43.0086276" lon="13.013012"><ele>791.25</ele><time>2026-04-24T12:44:28.979Z</time></trkpt><trkpt lat="43.008616" lon="13.0131886"><ele>788.0</ele><time>2026-04-24T12:44:29.982Z</time></trkpt><trkpt lat="43.0085997" lon="13.0133639"><ele>787.5999999999999</ele><time>2026-04-24T12:44:30.97Z</time></trkpt><trkpt lat="43.0085906" lon="13.0135255"><ele>787.1999999999999</ele><time>2026-04-24T12:44:31.976Z</time></trkpt><trkpt lat="43.008577" lon="13.0136587"><ele>786.8</ele><time>2026-04-24T12:44:32.982Z</time></trkpt><trkpt lat="43.0085743" lon="13.0137746"><ele>786.4</ele><time>2026-04-24T12:44:33.975Z</time></trkpt><trkpt lat="43.0086693" lon="13.0138408"><ele>786.0</ele><time>2026-04-24T12:44:35.984Z</time></trkpt><trkpt lat="43.0087331" lon="13.013785"><ele>786.0</ele><time>2026-04-24T12:44:36.993Z</time></trkpt><trkpt lat="43.0087708" lon="13.0136813"><ele>786.0</ele><time>2026-04-24T12:44:37.971Z</time></trkpt><trkpt lat="43.008787" lon="13.013531"><ele>786.0</ele><time>2026-04-24T12:44:38.972Z</time></trkpt><trkpt lat="43.0087947" lon="13.013359"><ele>786.0</ele><time>2026-04-24T12:44:39.972Z</time></trkpt><trkpt lat="43.0088019" lon="13.0131789"><ele>786.6666666666667</ele><time>2026-04-24T12:44:40.979Z</time></trkpt><trkpt lat="43.0088008" lon="13.0129787"><ele>787.3333333333334</ele><time>2026-04-24T12:44:41.971Z</time></trkpt><trkpt lat="43.0088119" lon="13.0127675"><ele>788.0</ele><time>2026-04-24T12:44:42.982Z</time></trkpt><trkpt lat="43.0088254" lon="13.0125422"><ele>792.3333333333334</ele><time>2026-04-24T12:44:43.975Z</time></trkpt><trkpt lat="43.0088438" lon="13.0123056"><ele>796.6666666666667</ele><time>2026-04-24T12:44:44.986Z</time></trkpt><trkpt lat="43.0088511" lon="13.0120686"><ele>801.0</ele><time>2026-04-24T12:44:45.978Z</time></trkpt><trkpt lat="43.0088579" lon="13.0118497"><ele>809.25</ele><time>2026-04-24T12:44:46.976Z</time></trkpt><trkpt lat="43.008867" lon="13.0116442"><ele>817.5</ele><time>2026-04-24T12:44:47.99Z</time></trkpt><trkpt lat="43.0088742" lon="13.0114677"><ele>825.75</ele><time>2026-04-24T12:44:48.973Z</time></trkpt><trkpt lat="43.0088866" lon="13.0113004"><ele>834.0</ele><time>2026-04-24T12:44:49.97Z</time></trkpt><trkpt lat="43.0088999" lon="13.0111468"><ele>834.0</ele><time>2026-04-24T12:44:50.98Z</time></trkpt><trkpt lat="43.0089003" lon="13.0110168"><ele>834.0</ele><time>2026-04-24T12:44:51.971Z</time></trkpt><trkpt lat="43.0088626" lon="13.0109102"><ele>834.0</ele><time>2026-04-24T12:44:52.992Z</time></trkpt><trkpt lat="43.0087803" lon="13.0108304"><ele>834.0</ele><time>2026-04-24T12:44:53.97Z</time></trkpt><trkpt lat="43.0086768" lon="13.0107898"><ele>834.0</ele><time>2026-04-24T12:44:54.983Z</time></trkpt><trkpt lat="43.0085604" lon="13.0107876"><ele>829.0</ele><time>2026-04-24T12:44:55.973Z</time></trkpt><trkpt lat="43.0084346" lon="13.0108024"><ele>824.0</ele><time>2026-04-24T12:44:56.969Z</time></trkpt><trkpt lat="43.0082946" lon="13.0108042"><ele>819.0</ele><time>2026-04-24T12:44:57.975Z</time></trkpt><trkpt lat="43.0081697" lon="13.0108034"><ele>814.0</ele><time>2026-04-24T12:44:58.987Z</time></trkpt><trkpt lat="43.0080523" lon="13.0107898"><ele>814.0</ele><time>2026-04-24T12:44:59.977Z</time></trkpt><trkpt lat="43.0079566" lon="13.0107343"><ele>814.0</ele><time>2026-04-24T12:45:00.976Z</time></trkpt><trkpt lat="43.00789" lon="13.0106362"><ele>814.0</ele><time>2026-04-24T12:45:01.978Z</time></trkpt><trkpt lat="43.0078652" lon="13.0105216"><ele>814.0</ele><time>2026-04-24T12:45:02.974Z</time></trkpt><trkpt lat="43.0078779" lon="13.0103935"><ele>814.0</ele><time>2026-04-24T12:45:03.975Z</time></trkpt><trkpt lat="43.0079002" lon="13.0102512"><ele>814.0</ele><time>2026-04-24T12:45:04.981Z</time></trkpt><trkpt lat="43.0079149" lon="13.0100858"><ele>814.0</ele><time>2026-04-24T12:45:05.984Z</time></trkpt><trkpt lat="43.0079201" lon="13.0098829"><ele>814.0</ele><time>2026-04-24T12:45:06.978Z</time></trkpt><trkpt lat="43.0079186" lon="13.0096752"><ele>814.0</ele><time>2026-04-24T12:45:07.968Z</time></trkpt><trkpt lat="43.0079241" lon="13.0094906"><ele>814.75</ele><time>2026-04-24T12:45:08.978Z</time></trkpt><trkpt lat="43.0079196" lon="13.0093251"><ele>815.5</ele><time>2026-04-24T12:45:09.972Z</time></trkpt><trkpt lat="43.0078972" lon="13.0091844"><ele>816.25</ele><time>2026-04-24T12:45:10.971Z</time></trkpt><trkpt lat="43.0078477" lon="13.0090389"><ele>817.0</ele><time>2026-04-24T12:45:11.987Z</time></trkpt><trkpt lat="43.0078107" lon="13.0088795"><ele>815.25</ele><time>2026-04-24T12:45:12.982Z</time></trkpt><trkpt lat="43.0078206" lon="13.0087339"><ele>813.5</ele><time>2026-04-24T12:45:13.973Z</time></trkpt><trkpt lat="43.0078797" lon="13.0085995"><ele>811.75</ele><time>2026-04-24T12:45:14.974Z</time></trkpt><trkpt lat="43.0079849" lon="13.0084929"><ele>810.0</ele><time>2026-04-24T12:45:15.978Z</time></trkpt><trkpt lat="43.0080999" lon="13.0083881"><ele>809.4</ele><time>2026-04-24T12:45:16.98Z</time></trkpt><trkpt lat="43.0082141" lon="13.0082955"><ele>808.8</ele><time>2026-04-24T12:45:17.968Z</time></trkpt><trkpt lat="43.0082906" lon="13.0081797"><ele>808.2</ele><time>2026-04-24T12:45:18.969Z</time></trkpt><trkpt lat="43.0083283" lon="13.0080602"><ele>807.6</ele><time>2026-04-24T12:45:19.973Z</time></trkpt><trkpt lat="43.0083258" lon="13.007921"><ele>807.0</ele><time>2026-04-24T12:45:20.969Z</time></trkpt><trkpt lat="43.0082948" lon="13.0077904"><ele>807.0</ele><time>2026-04-24T12:45:21.976Z</time></trkpt><trkpt lat="43.0082967" lon="13.0076624"><ele>807.0</ele><time>2026-04-24T12:45:22.984Z</time></trkpt><trkpt lat="43.0083661" lon="13.0075785"><ele>807.0</ele><time>2026-04-24T12:45:23.974Z</time></trkpt><trkpt lat="43.0084464" lon="13.007524"><ele>807.0</ele><time>2026-04-24T12:45:24.979Z</time></trkpt><trkpt lat="43.0085467" lon="13.0074944"><ele>807.0</ele><time>2026-04-24T12:45:25.973Z</time></trkpt><trkpt lat="43.0086536" lon="13.0074465"><ele>820.25</ele><time>2026-04-24T12:45:26.981Z</time></trkpt><trkpt lat="43.0087651" lon="13.0073682"><ele>833.5</ele><time>2026-04-24T12:45:27.964Z</time></trkpt><trkpt lat="43.0088763" lon="13.0072539"><ele>846.75</ele><time>2026-04-24T12:45:28.972Z</time></trkpt><trkpt lat="43.0089535" lon="13.0071171"><ele>860.0</ele><time>2026-04-24T12:45:29.975Z</time></trkpt><trkpt lat="43.0089884" lon="13.0069597"><ele>860.0</ele><time>2026-04-24T12:45:30.978Z</time></trkpt><trkpt lat="43.0089854" lon="13.0068193"><ele>860.0</ele><time>2026-04-24T12:45:31.962Z</time></trkpt><trkpt lat="43.0089346" lon="13.0067033"><ele>860.0</ele><time>2026-04-24T12:45:32.971Z</time></trkpt><trkpt lat="43.0088316" lon="13.0065883"><ele>860.0</ele><time>2026-04-24T12:45:33.979Z</time></trkpt><trkpt lat="43.0087222" lon="13.0064951"><ele>864.0</ele><time>2026-04-24T12:45:34.979Z</time></trkpt><trkpt lat="43.00861" lon="13.0063913"><ele>868.0</ele><time>2026-04-24T12:45:35.974Z</time></trkpt><trkpt lat="43.0084948" lon="13.0062723"><ele>872.0</ele><time>2026-04-24T12:45:36.977Z</time></trkpt><trkpt lat="43.0083827" lon="13.0061398"><ele>876.0</ele><time>2026-04-24T12:45:37.976Z</time></trkpt><trkpt lat="43.0082782" lon="13.0060085"><ele>876.0</ele><time>2026-04-24T12:45:38.986Z</time></trkpt><trkpt lat="43.0081774" lon="13.0058801"><ele>876.0</ele><time>2026-04-24T12:45:39.971Z</time></trkpt><trkpt lat="43.0080668" lon="13.0057698"><ele>876.0</ele><time>2026-04-24T12:45:40.98Z</time></trkpt><trkpt lat="43.0079566" lon="13.0056825"><ele>876.0</ele><time>2026-04-24T12:45:41.982Z</time></trkpt><trkpt lat="43.0078525" lon="13.0056126"><ele>881.1666666666666</ele><time>2026-04-24T12:45:42.974Z</time></trkpt><trkpt lat="43.0077566" lon="13.0055765"><ele>886.3333333333333</ele><time>2026-04-24T12:45:43.976Z</time></trkpt><trkpt lat="43.0076722" lon="13.0055542"><ele>891.5</ele><time>2026-04-24T12:45:44.982Z</time></trkpt><trkpt lat="43.0075948" lon="13.0055335"><ele>896.6666666666666</ele><time>2026-04-24T12:45:45.98Z</time></trkpt><trkpt lat="43.007531" lon="13.0055112"><ele>901.8333333333333</ele><time>2026-04-24T12:45:46.978Z</time></trkpt><trkpt lat="43.0075279" lon="13.0054128"><ele>907.0</ele><time>2026-04-24T12:45:49.975Z</time></trkpt><trkpt lat="43.0076176" lon="13.0054258"><ele>907.0</ele><time>2026-04-24T12:45:52.98Z</time></trkpt><trkpt lat="43.007733" lon="13.0054297"><ele>907.0</ele><time>2026-04-24T12:45:54.99Z</time></trkpt><trkpt lat="43.0078118" lon="13.0054584"><ele>907.0</ele><time>2026-04-24T12:45:55.971Z</time></trkpt><trkpt lat="43.007904" lon="13.0055091"><ele>907.0</ele><time>2026-04-24T12:45:56.972Z</time></trkpt><trkpt lat="43.0080152" lon="13.0055602"><ele>907.0</ele><time>2026-04-24T12:45:57.969Z</time></trkpt><trkpt lat="43.0081278" lon="13.0056241"><ele>907.0</ele><time>2026-04-24T12:45:58.975Z</time></trkpt><trkpt lat="43.0082436" lon="13.0057019"><ele>907.0</ele><time>2026-04-24T12:45:59.983Z</time></trkpt><trkpt lat="43.0083505" lon="13.0057868"><ele>907.0</ele><time>2026-04-24T12:46:00.976Z</time></trkpt><trkpt lat="43.0084605" lon="13.0058865"><ele>907.0</ele><time>2026-04-24T12:46:01.978Z</time></trkpt><trkpt lat="43.0085647" lon="13.0059784"><ele>904.0</ele><time>2026-04-24T12:46:02.982Z</time></trkpt><trkpt lat="43.0086659" lon="13.0060584"><ele>901.0</ele><time>2026-04-24T12:46:03.976Z</time></trkpt><trkpt lat="43.0087535" lon="13.0061283"><ele>898.0</ele><time>2026-04-24T12:46:04.978Z</time></trkpt><trkpt lat="43.0088346" lon="13.0061966"><ele>895.0</ele><time>2026-04-24T12:46:05.977Z</time></trkpt><trkpt lat="43.0089154" lon="13.006252"><ele>892.0</ele><time>2026-04-24T12:46:06.976Z</time></trkpt><trkpt lat="43.0089851" lon="13.0062981"><ele>892.0</ele><time>2026-04-24T12:46:07.976Z</time></trkpt><trkpt lat="43.009062" lon="13.006321"><ele>892.0</ele><time>2026-04-24T12:46:08.978Z</time></trkpt><trkpt lat="43.0091546" lon="13.0063214"><ele>892.0</ele><time>2026-04-24T12:46:09.977Z</time></trkpt><trkpt lat="43.0092406" lon="13.0062892"><ele>892.0</ele><time>2026-04-24T12:46:10.977Z</time></trkpt><trkpt lat="43.0093247" lon="13.0062293"><ele>892.0</ele><time>2026-04-24T12:46:11.976Z</time></trkpt><trkpt lat="43.0094072" lon="13.006138"><ele>893.25</ele><time>2026-04-24T12:46:12.985Z</time></trkpt><trkpt lat="43.009488" lon="13.0060225"><ele>894.5</ele><time>2026-04-24T12:46:13.988Z</time></trkpt><trkpt lat="43.0095591" lon="13.0058964"><ele>895.75</ele><time>2026-04-24T12:46:14.975Z</time></trkpt><trkpt lat="43.0096202" lon="13.0057537"><ele>897.0</ele><time>2026-04-24T12:46:15.972Z</time></trkpt><trkpt lat="43.0096645" lon="13.0055957"><ele>901.5</ele><time>2026-04-24T12:46:16.976Z</time></trkpt><trkpt lat="43.0097054" lon="13.0054197"><ele>906.0</ele><time>2026-04-24T12:46:17.976Z</time></trkpt><trkpt lat="43.0097502" lon="13.005244"><ele>910.5</ele><time>2026-04-24T12:46:18.974Z</time></trkpt><trkpt lat="43.009803" lon="13.0050732"><ele>915.0</ele><time>2026-04-24T12:46:19.968Z</time></trkpt><trkpt lat="43.0098735" lon="13.0049047"><ele>921.0</ele><time>2026-04-24T12:46:21.001Z</time></trkpt><trkpt lat="43.009954" lon="13.004739"><ele>927.0</ele><time>2026-04-24T12:46:21.978Z</time></trkpt><trkpt lat="43.0100317" lon="13.0045722"><ele>933.0</ele><time>2026-04-24T12:46:22.978Z</time></trkpt><trkpt lat="43.0101107" lon="13.0043995"><ele>939.0</ele><time>2026-04-24T12:46:23.978Z</time></trkpt><trkpt lat="43.0101941" lon="13.0042342"><ele>931.0</ele><time>2026-04-24T12:46:24.982Z</time></trkpt><trkpt lat="43.0102877" lon="13.0040881"><ele>923.0</ele><time>2026-04-24T12:46:25.973Z</time></trkpt><trkpt lat="43.0103838" lon="13.0039555"><ele>915.0</ele><time>2026-04-24T12:46:26.981Z</time></trkpt><trkpt lat="43.0104712" lon="13.0038302"><ele>907.0</ele><time>2026-04-24T12:46:27.975Z</time></trkpt><trkpt lat="43.0105386" lon="13.003703"><ele>907.0</ele><time>2026-04-24T12:46:28.984Z</time></trkpt><trkpt lat="43.0105948" lon="13.0035704"><ele>907.0</ele><time>2026-04-24T12:46:29.973Z</time></trkpt><trkpt lat="43.0106382" lon="13.0034303"><ele>907.0</ele><time>2026-04-24T12:46:30.981Z</time></trkpt><trkpt lat="43.0106566" lon="13.0032686"><ele>907.0</ele><time>2026-04-24T12:46:31.993Z</time></trkpt><trkpt lat="43.01066" lon="13.0030965"><ele>908.25</ele><time>2026-04-24T12:46:32.989Z</time></trkpt><trkpt lat="43.0106689" lon="13.0029268"><ele>909.5</ele><time>2026-04-24T12:46:33.975Z</time></trkpt><trkpt lat="43.0106922" lon="13.0027407"><ele>910.75</ele><time>2026-04-24T12:46:34.993Z</time></trkpt><trkpt lat="43.0107285" lon="13.0025657"><ele>912.0</ele><time>2026-04-24T12:46:35.977Z</time></trkpt><trkpt lat="43.0107656" lon="13.0023924"><ele>912.25</ele><time>2026-04-24T12:46:36.985Z</time></trkpt><trkpt lat="43.0107922" lon="13.002214"><ele>912.5</ele><time>2026-04-24T12:46:37.969Z</time></trkpt><trkpt lat="43.0108139" lon="13.0020411"><ele>912.75</ele><time>2026-04-24T12:46:38.994Z</time></trkpt><trkpt lat="43.0108277" lon="13.0018715"><ele>913.0</ele><time>2026-04-24T12:46:39.975Z</time></trkpt><trkpt lat="43.0108402" lon="13.0017001"><ele>903.75</ele><time>2026-04-24T12:46:40.988Z</time></trkpt><trkpt lat="43.0108447" lon="13.0015289"><ele>894.5</ele><time>2026-04-24T12:46:41.981Z</time></trkpt><trkpt lat="43.0108473" lon="13.001367"><ele>885.25</ele><time>2026-04-24T12:46:42.978Z</time></trkpt><trkpt lat="43.0108565" lon="13.0012086"><ele>876.0</ele><time>2026-04-24T12:46:43.981Z</time></trkpt><trkpt lat="43.0108894" lon="13.0010615"><ele>876.0</ele><time>2026-04-24T12:46:44.989Z</time></trkpt><trkpt lat="43.0109415" lon="13.0009386"><ele>876.0</ele><time>2026-04-24T12:46:45.978Z</time></trkpt><trkpt lat="43.0110241" lon="13.0008388"><ele>876.0</ele><time>2026-04-24T12:46:46.978Z</time></trkpt><trkpt lat="43.0111286" lon="13.0007502"><ele>876.0</ele><time>2026-04-24T12:46:47.972Z</time></trkpt><trkpt lat="43.0112277" lon="13.0006523"><ele>879.5999999999999</ele><time>2026-04-24T12:46:48.988Z</time></trkpt><trkpt lat="43.0113233" lon="13.0005337"><ele>883.1999999999999</ele><time>2026-04-24T12:46:49.982Z</time></trkpt><trkpt lat="43.0114117" lon="13.0004187"><ele>886.8000000000001</ele><time>2026-04-24T12:46:50.988Z</time></trkpt><trkpt lat="43.0114922" lon="13.0003301"><ele>890.4000000000001</ele><time>2026-04-24T12:46:51.995Z</time></trkpt><trkpt lat="43.0115575" lon="13.0002465"><ele>894.0</ele><time>2026-04-24T12:46:52.978Z</time></trkpt><trkpt lat="43.0116002" lon="13.0001574"><ele>894.0</ele><time>2026-04-24T12:46:53.981Z</time></trkpt><trkpt lat="43.0116078" lon="13.0000618"><ele>894.0000000000001</ele><time>2026-04-24T12:46:54.996Z</time></trkpt><trkpt lat="43.0115762" lon="12.9999696"><ele>894.0000000000001</ele><time>2026-04-24T12:46:55.997Z</time></trkpt><trkpt lat="43.0115284" lon="12.9998588"><ele>894.0</ele><time>2026-04-24T12:46:56.979Z</time></trkpt><trkpt lat="43.0114624" lon="12.9997395"><ele>894.0</ele><time>2026-04-24T12:46:57.983Z</time></trkpt><trkpt lat="43.0113996" lon="12.9995914"><ele>894.0</ele><time>2026-04-24T12:46:58.982Z</time></trkpt><trkpt lat="43.0113618" lon="12.9994391"><ele>894.0</ele><time>2026-04-24T12:46:59.974Z</time></trkpt><trkpt lat="43.0113302" lon="12.9992856"><ele>894.0</ele><time>2026-04-24T12:47:00.976Z</time></trkpt><trkpt lat="43.0113026" lon="12.999133"><ele>894.0</ele><time>2026-04-24T12:47:01.976Z</time></trkpt><trkpt lat="43.0112802" lon="12.9986478"><ele>896.6</ele><time>2026-04-24T12:47:04.975Z</time></trkpt><trkpt lat="43.0113328" lon="12.9985206"><ele>899.2</ele><time>2026-04-24T12:47:05.974Z</time></trkpt><trkpt lat="43.0114096" lon="12.998419"><ele>901.8000000000001</ele><time>2026-04-24T12:47:06.995Z</time></trkpt><trkpt lat="43.0114927" lon="12.9983399"><ele>904.4000000000001</ele><time>2026-04-24T12:47:07.98Z</time></trkpt><trkpt lat="43.0115602" lon="12.9982762"><ele>907.0</ele><time>2026-04-24T12:47:08.986Z</time></trkpt><trkpt lat="43.0115811" lon="12.9981069"><ele>911.4000000000001</ele><time>2026-04-24T12:47:10.977Z</time></trkpt><trkpt lat="43.0115745" lon="12.9979799"><ele>915.8000000000001</ele><time>2026-04-24T12:47:11.975Z</time></trkpt><trkpt lat="43.0115695" lon="12.9978546"><ele>920.2</ele><time>2026-04-24T12:47:12.981Z</time></trkpt><trkpt lat="43.0115954" lon="12.9977154"><ele>924.6</ele><time>2026-04-24T12:47:13.975Z</time></trkpt><trkpt lat="43.0116389" lon="12.9975774"><ele>929.0</ele><time>2026-04-24T12:47:14.984Z</time></trkpt><trkpt lat="43.0116928" lon="12.99745"><ele>917.25</ele><time>2026-04-24T12:47:15.973Z</time></trkpt><trkpt lat="43.0117572" lon="12.9973026"><ele>905.5</ele><time>2026-04-24T12:47:17Z</time></trkpt><trkpt lat="43.0118222" lon="12.9971433"><ele>893.75</ele><time>2026-04-24T12:47:17.985Z</time></trkpt><trkpt lat="43.0118885" lon="12.9969755"><ele>882.0</ele><time>2026-04-24T12:47:18.984Z</time></trkpt><trkpt lat="43.0119513" lon="12.9968102"><ele>885.75</ele><time>2026-04-24T12:47:19.978Z</time></trkpt><trkpt lat="43.0120199" lon="12.9966507"><ele>889.5</ele><time>2026-04-24T12:47:20.993Z</time></trkpt><trkpt lat="43.012088" lon="12.9964974"><ele>893.25</ele><time>2026-04-24T12:47:21.989Z</time></trkpt><trkpt lat="43.0121557" lon="12.9963677"><ele>897.0</ele><time>2026-04-24T12:47:22.988Z</time></trkpt><trkpt lat="43.0122338" lon="12.9962762"><ele>897.0</ele><time>2026-04-24T12:47:23.987Z</time></trkpt><trkpt lat="43.0123164" lon="12.9961904"><ele>897.0</ele><time>2026-04-24T12:47:24.998Z</time></trkpt><trkpt lat="43.0123821" lon="12.9961026"><ele>897.0</ele><time>2026-04-24T12:47:25.978Z</time></trkpt><trkpt lat="43.012428" lon="12.9959892"><ele>897.0</ele><time>2026-04-24T12:47:26.986Z</time></trkpt><trkpt lat="43.0124536" lon="12.9958571"><ele>897.0</ele><time>2026-04-24T12:47:27.986Z</time></trkpt><trkpt lat="43.0124779" lon="12.9957068"><ele>887.0</ele><time>2026-04-24T12:47:28.984Z</time></trkpt><trkpt lat="43.0124914" lon="12.995539"><ele>877.0</ele><time>2026-04-24T12:47:29.984Z</time></trkpt><trkpt lat="43.01251" lon="12.9953621"><ele>867.0</ele><time>2026-04-24T12:47:30.98Z</time></trkpt><trkpt lat="43.0125272" lon="12.9951702"><ele>857.0</ele><time>2026-04-24T12:47:31.989Z</time></trkpt><trkpt lat="43.0125423" lon="12.9949756"><ele>856.75</ele><time>2026-04-24T12:47:32.994Z</time></trkpt><trkpt lat="43.012553" lon="12.9947809"><ele>856.5</ele><time>2026-04-24T12:47:33.977Z</time></trkpt><trkpt lat="43.0125614" lon="12.9946091"><ele>856.25</ele><time>2026-04-24T12:47:34.973Z</time></trkpt><trkpt lat="43.0125651" lon="12.994446"><ele>856.0</ele><time>2026-04-24T12:47:35.975Z</time></trkpt><trkpt lat="43.0125666" lon="12.9943034"><ele>856.0</ele><time>2026-04-24T12:47:36.989Z</time></trkpt><trkpt lat="43.0125737" lon="12.9941716"><ele>855.9999999999999</ele><time>2026-04-24T12:47:37.984Z</time></trkpt><trkpt lat="43.0125796" lon="12.99403"><ele>855.9999999999999</ele><time>2026-04-24T12:47:38.985Z</time></trkpt><trkpt lat="43.0125873" lon="12.9938828"><ele>856.0</ele><time>2026-04-24T12:47:39.98Z</time></trkpt><trkpt lat="43.0126065" lon="12.9937423"><ele>856.0</ele><time>2026-04-24T12:47:40.979Z</time></trkpt><trkpt lat="43.0126245" lon="12.9935982"><ele>856.8</ele><time>2026-04-24T12:47:41.977Z</time></trkpt><trkpt lat="43.0126438" lon="12.9934552"><ele>857.5999999999999</ele><time>2026-04-24T12:47:42.988Z</time></trkpt><trkpt lat="43.012664" lon="12.993306"><ele>858.4</ele><time>2026-04-24T12:47:43.982Z</time></trkpt><trkpt lat="43.0126895" lon="12.9931583"><ele>859.2</ele><time>2026-04-24T12:47:44.985Z</time></trkpt><trkpt lat="43.0126997" lon="12.9930163"><ele>860.0</ele><time>2026-04-24T12:47:45.985Z</time></trkpt><trkpt lat="43.0127081" lon="12.9928641"><ele>860.75</ele><time>2026-04-24T12:47:46.997Z</time></trkpt><trkpt lat="43.0127233" lon="12.9927116"><ele>861.5</ele><time>2026-04-24T12:47:47.98Z</time></trkpt><trkpt lat="43.0127528" lon="12.9925522"><ele>862.25</ele><time>2026-04-24T12:47:48.988Z</time></trkpt><trkpt lat="43.0127928" lon="12.9923918"><ele>863.0</ele><time>2026-04-24T12:47:49.977Z</time></trkpt><trkpt lat="43.0128259" lon="12.992239"><ele>865.5</ele><time>2026-04-24T12:47:50.997Z</time></trkpt><trkpt lat="43.0128681" lon="12.9920706"><ele>868.0</ele><time>2026-04-24T12:47:51.985Z</time></trkpt><trkpt lat="43.0129108" lon="12.9919146"><ele>870.5</ele><time>2026-04-24T12:47:52.988Z</time></trkpt><trkpt lat="43.0129614" lon="12.9917627"><ele>873.0</ele><time>2026-04-24T12:47:53.99Z</time></trkpt><trkpt lat="43.013022" lon="12.9916226"><ele>875.0</ele><time>2026-04-24T12:47:54.992Z</time></trkpt><trkpt lat="43.0131055" lon="12.9914976"><ele>877.0</ele><time>2026-04-24T12:47:55.968Z</time></trkpt><trkpt lat="43.0131932" lon="12.9913685"><ele>879.0</ele><time>2026-04-24T12:47:56.986Z</time></trkpt><trkpt lat="43.0132722" lon="12.9912443"><ele>881.0</ele><time>2026-04-24T12:47:57.975Z</time></trkpt><trkpt lat="43.0133347" lon="12.991138"><ele>881.1999999999999</ele><time>2026-04-24T12:47:58.976Z</time></trkpt><trkpt lat="43.0133796" lon="12.991063"><ele>881.3999999999999</ele><time>2026-04-24T12:47:59.989Z</time></trkpt><trkpt lat="43.0133919" lon="12.9908928"><ele>881.6</ele><time>2026-04-24T12:48:01.984Z</time></trkpt><trkpt lat="43.013346" lon="12.9907783"><ele>881.8</ele><time>2026-04-24T12:48:02.984Z</time></trkpt><trkpt lat="43.0132776" lon="12.9906567"><ele>882.0</ele><time>2026-04-24T12:48:03.969Z</time></trkpt><trkpt lat="43.0132264" lon="12.9905509"><ele>882.1666666666666</ele><time>2026-04-24T12:48:04.975Z</time></trkpt><trkpt lat="43.0131999" lon="12.9904515"><ele>882.3333333333333</ele><time>2026-04-24T12:48:05.975Z</time></trkpt><trkpt lat="43.0131982" lon="12.9903548"><ele>882.5</ele><time>2026-04-24T12:48:06.982Z</time></trkpt><trkpt lat="43.0132207" lon="12.9902541"><ele>882.6666666666666</ele><time>2026-04-24T12:48:07.985Z</time></trkpt><trkpt lat="43.0132636" lon="12.9901609"><ele>882.8333333333333</ele><time>2026-04-24T12:48:08.98Z</time></trkpt><trkpt lat="43.0133039" lon="12.990062"><ele>883.0</ele><time>2026-04-24T12:48:09.979Z</time></trkpt><trkpt lat="43.0133385" lon="12.9899784"><ele>883.0</ele><time>2026-04-24T12:48:10.976Z</time></trkpt><trkpt lat="43.0133849" lon="12.9898597"><ele>883.0</ele><time>2026-04-24T12:48:12.984Z</time></trkpt><trkpt lat="43.0134698" lon="12.989904"><ele>883.0</ele><time>2026-04-24T12:48:15.988Z</time></trkpt><trkpt lat="43.0135459" lon="12.9900019"><ele>883.0</ele><time>2026-04-24T12:48:17.982Z</time></trkpt><trkpt lat="43.0136335" lon="12.9899455"><ele>883.0</ele><time>2026-04-24T12:48:19.972Z</time></trkpt><trkpt lat="43.0136732" lon="12.9898184"><ele>882.9999999999999</ele><time>2026-04-24T12:48:21.985Z</time></trkpt><trkpt lat="43.0136645" lon="12.9896581"><ele>883.0</ele><time>2026-04-24T12:48:23.974Z</time></trkpt><trkpt lat="43.013658" lon="12.9895709"><ele>883.0</ele><time>2026-04-24T12:48:24.983Z</time></trkpt><trkpt lat="43.0136548" lon="12.9894703"><ele>883.0</ele><time>2026-04-24T12:48:25.974Z</time></trkpt><trkpt lat="43.0136504" lon="12.9893636"><ele>882.9999999999999</ele><time>2026-04-24T12:48:26.984Z</time></trkpt><trkpt lat="43.0136421" lon="12.989254"><ele>883.0</ele><time>2026-04-24T12:48:27.974Z</time></trkpt><trkpt lat="43.0136266" lon="12.9891358"><ele>884.8333333333333</ele><time>2026-04-24T12:48:28.976Z</time></trkpt><trkpt lat="43.0136109" lon="12.9890267"><ele>886.6666666666666</ele><time>2026-04-24T12:48:29.979Z</time></trkpt><trkpt lat="43.0135931" lon="12.988926"><ele>888.5</ele><time>2026-04-24T12:48:30.989Z</time></trkpt><trkpt lat="43.0135788" lon="12.9888391"><ele>890.3333333333333</ele><time>2026-04-24T12:48:31.979Z</time></trkpt><trkpt lat="43.0136159" lon="12.9887103"><ele>892.1666666666666</ele><time>2026-04-24T12:48:33.976Z</time></trkpt><trkpt lat="43.0136887" lon="12.9886476"><ele>894.0</ele><time>2026-04-24T12:48:35.984Z</time></trkpt><trkpt lat="43.013755" lon="12.9886812"><ele>894.0</ele><time>2026-04-24T12:48:37.976Z</time></trkpt><trkpt lat="43.0138596" lon="12.9887759"><ele>894.0000000000001</ele><time>2026-04-24T12:48:39.971Z</time></trkpt><trkpt lat="43.0139412" lon="12.9888259"><ele>894.0000000000001</ele><time>2026-04-24T12:48:40.979Z</time></trkpt><trkpt lat="43.0140348" lon="12.9889052"><ele>894.0</ele><time>2026-04-24T12:48:41.983Z</time></trkpt><trkpt lat="43.014117" lon="12.9889532"><ele>894.0</ele><time>2026-04-24T12:48:42.989Z</time></trkpt><trkpt lat="43.0141807" lon="12.989017"><ele>897.8571428571428</ele><time>2026-04-24T12:48:43.973Z</time></trkpt><trkpt lat="43.014231" lon="12.9890897"><ele>901.7142857142858</ele><time>2026-04-24T12:48:44.984Z</time></trkpt><trkpt lat="43.0142605" lon="12.9891732"><ele>905.5714285714287</ele><time>2026-04-24T12:48:45.978Z</time></trkpt><trkpt lat="43.0142814" lon="12.9892622"><ele>909.4285714285714</ele><time>2026-04-24T12:48:46.984Z</time></trkpt><trkpt lat="43.014318" lon="12.9893377"><ele>913.2857142857143</ele><time>2026-04-24T12:48:47.981Z</time></trkpt><trkpt lat="43.0143705" lon="12.9893981"><ele>917.1428571428572</ele><time>2026-04-24T12:48:48.986Z</time></trkpt><trkpt lat="43.0144303" lon="12.9894541"><ele>921.0000000000001</ele><time>2026-04-24T12:48:49.99Z</time></trkpt><trkpt lat="43.0145101" lon="12.9894935"><ele>921.0</ele><time>2026-04-24T12:48:51.973Z</time></trkpt><trkpt lat="43.0145322" lon="12.9894048"><ele>920.9999999999999</ele><time>2026-04-24T12:48:53.987Z</time></trkpt><trkpt lat="43.0144598" lon="12.9892707"><ele>920.9999999999999</ele><time>2026-04-24T12:48:55.972Z</time></trkpt><trkpt lat="43.0144363" lon="12.9891145"><ele>921.0</ele><time>2026-04-24T12:48:57.999Z</time></trkpt><trkpt lat="43.0144381" lon="12.9890128"><ele>921.0</ele><time>2026-04-24T12:48:58.974Z</time></trkpt><trkpt lat="43.0144304" lon="12.9888861"><ele>922.0</ele><time>2026-04-24T12:48:59.98Z</time></trkpt><trkpt lat="43.0143937" lon="12.9887469"><ele>922.9999999999999</ele><time>2026-04-24T12:49:00.975Z</time></trkpt><trkpt lat="43.0143415" lon="12.9886099"><ele>923.9999999999999</ele><time>2026-04-24T12:49:01.982Z</time></trkpt><trkpt lat="43.0142787" lon="12.9884885"><ele>925.0</ele><time>2026-04-24T12:49:02.979Z</time></trkpt><trkpt lat="43.0142204" lon="12.9883939"><ele>926.0</ele><time>2026-04-24T12:49:03.992Z</time></trkpt><trkpt lat="43.0142008" lon="12.9883097"><ele>926.0</ele><time>2026-04-24T12:49:04.981Z</time></trkpt><trkpt lat="43.0142297" lon="12.9881423"><ele>925.9999999999999</ele><time>2026-04-24T12:49:06.988Z</time></trkpt><trkpt lat="43.0142564" lon="12.9879858"><ele>925.9999999999999</ele><time>2026-04-24T12:49:08.971Z</time></trkpt><trkpt lat="43.0142211" lon="12.9879139"><ele>926.0</ele><time>2026-04-24T12:49:09.966Z</time></trkpt><trkpt lat="43.0141574" lon="12.987843"><ele>926.0</ele><time>2026-04-24T12:49:10.986Z</time></trkpt><trkpt lat="43.0140925" lon="12.9877696"><ele>926.0</ele><time>2026-04-24T12:49:11.981Z</time></trkpt><trkpt lat="43.0140103" lon="12.9876758"><ele>925.9999999999999</ele><time>2026-04-24T12:49:12.988Z</time></trkpt><trkpt lat="43.0138977" lon="12.9875979"><ele>925.9999999999999</ele><time>2026-04-24T12:49:13.974Z</time></trkpt><trkpt lat="43.0137991" lon="12.9875416"><ele>926.0</ele><time>2026-04-24T12:49:14.982Z</time></trkpt><trkpt lat="43.0136969" lon="12.9875026"><ele>926.0</ele><time>2026-04-24T12:49:15.984Z</time></trkpt><trkpt lat="43.0135997" lon="12.987506"><ele>926.0</ele><time>2026-04-24T12:49:16.992Z</time></trkpt><trkpt lat="43.0135194" lon="12.9875143"><ele>925.9999999999999</ele><time>2026-04-24T12:49:17.984Z</time></trkpt><trkpt lat="43.0134476" lon="12.9875194"><ele>925.9999999999999</ele><time>2026-04-24T12:49:18.978Z</time></trkpt><trkpt lat="43.0133508" lon="12.9874763"><ele>926.0</ele><time>2026-04-24T12:49:20.979Z</time></trkpt><trkpt lat="43.0133124" lon="12.9873429"><ele>926.0</ele><time>2026-04-24T12:49:22.975Z</time></trkpt><trkpt lat="43.0132682" lon="12.9871428"><ele>927.0</ele><time>2026-04-24T12:49:24.988Z</time></trkpt><trkpt lat="43.0132269" lon="12.9870126"><ele>927.9999999999999</ele><time>2026-04-24T12:49:25.973Z</time></trkpt><trkpt lat="43.0131849" lon="12.9868768"><ele>928.9999999999999</ele><time>2026-04-24T12:49:26.979Z</time></trkpt><trkpt lat="43.0131417" lon="12.9867444"><ele>930.0</ele><time>2026-04-24T12:49:27.973Z</time></trkpt><trkpt lat="43.0130833" lon="12.9866126"><ele>931.0</ele><time>2026-04-24T12:49:28.987Z</time></trkpt><trkpt lat="43.013016" lon="12.9864975"><ele>937.0</ele><time>2026-04-24T12:49:29.97Z</time></trkpt><trkpt lat="43.0129409" lon="12.9863799"><ele>943.0</ele><time>2026-04-24T12:49:30.985Z</time></trkpt><trkpt lat="43.012865" lon="12.9862595"><ele>949.0</ele><time>2026-04-24T12:49:31.98Z</time></trkpt><trkpt lat="43.0127811" lon="12.9861338"><ele>955.0</ele><time>2026-04-24T12:49:32.973Z</time></trkpt><trkpt lat="43.0126969" lon="12.9860127"><ele>955.0</ele><time>2026-04-24T12:49:33.977Z</time></trkpt><trkpt lat="43.0126226" lon="12.9858914"><ele>955.0</ele><time>2026-04-24T12:49:34.978Z</time></trkpt><trkpt lat="43.0125578" lon="12.9857702"><ele>955.0</ele><time>2026-04-24T12:49:35.979Z</time></trkpt><trkpt lat="43.0125051" lon="12.9856429"><ele>955.0</ele><time>2026-04-24T12:49:36.99Z</time></trkpt><trkpt lat="43.0124581" lon="12.9855109"><ele>955.0</ele><time>2026-04-24T12:49:37.977Z</time></trkpt><trkpt lat="43.012425" lon="12.9853653"><ele>961.2</ele><time>2026-04-24T12:49:38.988Z</time></trkpt><trkpt lat="43.0123876" lon="12.9852168"><ele>967.4</ele><time>2026-04-24T12:49:39.984Z</time></trkpt><trkpt lat="43.0123252" lon="12.9850788"><ele>973.5999999999999</ele><time>2026-04-24T12:49:40.995Z</time></trkpt><trkpt lat="43.0122659" lon="12.9849561"><ele>979.8</ele><time>2026-04-24T12:49:42.004Z</time></trkpt><trkpt lat="43.012218" lon="12.9848369"><ele>986.0</ele><time>2026-04-24T12:49:42.98Z</time></trkpt><trkpt lat="43.0121901" lon="12.9846821"><ele>988.8</ele><time>2026-04-24T12:49:43.974Z</time></trkpt><trkpt lat="43.0121732" lon="12.9845231"><ele>991.5999999999999</ele><time>2026-04-24T12:49:44.976Z</time></trkpt><trkpt lat="43.0121477" lon="12.9843754"><ele>994.4</ele><time>2026-04-24T12:49:45.984Z</time></trkpt><trkpt lat="43.0121323" lon="12.9842537"><ele>997.2</ele><time>2026-04-24T12:49:46.981Z</time></trkpt><trkpt lat="43.0121361" lon="12.9841385"><ele>1000.0</ele><time>2026-04-24T12:49:47.974Z</time></trkpt><trkpt lat="43.0121656" lon="12.9840296"><ele>1002.4</ele><time>2026-04-24T12:49:48.989Z</time></trkpt><trkpt lat="43.0121942" lon="12.9839171"><ele>1004.8</ele><time>2026-04-24T12:49:49.979Z</time></trkpt><trkpt lat="43.0122227" lon="12.9837981"><ele>1007.2</ele><time>2026-04-24T12:49:50.981Z</time></trkpt><trkpt lat="43.0122517" lon="12.9836667"><ele>1009.6</ele><time>2026-04-24T12:49:51.973Z</time></trkpt><trkpt lat="43.0122667" lon="12.9835358"><ele>1012.0</ele><time>2026-04-24T12:49:52.979Z</time></trkpt><trkpt lat="43.012286" lon="12.9833924"><ele>1015.0</ele><time>2026-04-24T12:49:53.98Z</time></trkpt><trkpt lat="43.0122978" lon="12.9832426"><ele>1018.0</ele><time>2026-04-24T12:49:54.985Z</time></trkpt><trkpt lat="43.0122918" lon="12.9830891"><ele>1021.0</ele><time>2026-04-24T12:49:55.992Z</time></trkpt><trkpt lat="43.0122689" lon="12.9829293"><ele>1024.0</ele><time>2026-04-24T12:49:56.985Z</time></trkpt><trkpt lat="43.0122466" lon="12.9827751"><ele>1024.0</ele><time>2026-04-24T12:49:57.982Z</time></trkpt><trkpt lat="43.0122132" lon="12.9826216"><ele>1024.0</ele><time>2026-04-24T12:49:58.983Z</time></trkpt><trkpt lat="43.0121987" lon="12.9824863"><ele>1024.0</ele><time>2026-04-24T12:49:59.992Z</time></trkpt><trkpt lat="43.0121926" lon="12.9823587"><ele>1024.0</ele><time>2026-04-24T12:50:00.987Z</time></trkpt><trkpt lat="43.0121942" lon="12.9822073"><ele>1024.0</ele><time>2026-04-24T12:50:01.992Z</time></trkpt><trkpt lat="43.0122062" lon="12.9820444"><ele>1023.75</ele><time>2026-04-24T12:50:02.989Z</time></trkpt><trkpt lat="43.012199" lon="12.9818665"><ele>1023.5</ele><time>2026-04-24T12:50:03.986Z</time></trkpt><trkpt lat="43.0122047" lon="12.9816802"><ele>1023.25</ele><time>2026-04-24T12:50:04.98Z</time></trkpt><trkpt lat="43.0122019" lon="12.9814889"><ele>1023.0</ele><time>2026-04-24T12:50:05.995Z</time></trkpt><trkpt lat="43.0121835" lon="12.9812954"><ele>1022.5</ele><time>2026-04-24T12:50:06.985Z</time></trkpt><trkpt lat="43.012157" lon="12.9811078"><ele>1022.0</ele><time>2026-04-24T12:50:07.978Z</time></trkpt><trkpt lat="43.0121292" lon="12.98093"><ele>1021.5</ele><time>2026-04-24T12:50:08.98Z</time></trkpt><trkpt lat="43.0121102" lon="12.980763"><ele>1021.0</ele><time>2026-04-24T12:50:09.991Z</time></trkpt><trkpt lat="43.0120989" lon="12.9806195"><ele>1020.25</ele><time>2026-04-24T12:50:10.995Z</time></trkpt><trkpt lat="43.0120746" lon="12.9804639"><ele>1019.5</ele><time>2026-04-24T12:50:11.982Z</time></trkpt><trkpt lat="43.0120562" lon="12.9803053"><ele>1018.75</ele><time>2026-04-24T12:50:12.986Z</time></trkpt><trkpt lat="43.0120383" lon="12.9801513"><ele>1018.0</ele><time>2026-04-24T12:50:13.978Z</time></trkpt><trkpt lat="43.0120124" lon="12.9800013"><ele>1018.0</ele><time>2026-04-24T12:50:14.977Z</time></trkpt><trkpt lat="43.0119821" lon="12.9798654"><ele>1018.0</ele><time>2026-04-24T12:50:15.97Z</time></trkpt><trkpt lat="43.0119427" lon="12.979745"><ele>1018.0</ele><time>2026-04-24T12:50:16.981Z</time></trkpt><trkpt lat="43.0119043" lon="12.9796173"><ele>1018.0</ele><time>2026-04-24T12:50:17.982Z</time></trkpt><trkpt lat="43.0118769" lon="12.9794918"><ele>1018.0</ele><time>2026-04-24T12:50:18.986Z</time></trkpt><trkpt lat="43.0118532" lon="12.9793636"><ele>1018.0</ele><time>2026-04-24T12:50:19.985Z</time></trkpt><trkpt lat="43.011824" lon="12.9792265"><ele>1018.0</ele><time>2026-04-24T12:50:20.992Z</time></trkpt><trkpt lat="43.0117975" lon="12.9790838"><ele>1018.0</ele><time>2026-04-24T12:50:21.987Z</time></trkpt><trkpt lat="43.0117748" lon="12.9789165"><ele>1018.0</ele><time>2026-04-24T12:50:22.985Z</time></trkpt><trkpt lat="43.0117716" lon="12.9787366"><ele>1019.75</ele><time>2026-04-24T12:50:23.987Z</time></trkpt><trkpt lat="43.0117667" lon="12.978546"><ele>1021.5</ele><time>2026-04-24T12:50:24.978Z</time></trkpt><trkpt lat="43.0117435" lon="12.978358"><ele>1023.25</ele><time>2026-04-24T12:50:25.97Z</time></trkpt><trkpt lat="43.0117125" lon="12.9781543"><ele>1025.0</ele><time>2026-04-24T12:50:26.984Z</time></trkpt><trkpt lat="43.0116681" lon="12.9779438"><ele>1028.3333333333335</ele><time>2026-04-24T12:50:27.987Z</time></trkpt><trkpt lat="43.0116171" lon="12.9777167"><ele>1031.6666666666667</ele><time>2026-04-24T12:50:28.982Z</time></trkpt><trkpt lat="43.0115587" lon="12.9774789"><ele>1035.0</ele><time>2026-04-24T12:50:29.971Z</time></trkpt><trkpt lat="43.0114903" lon="12.9772294"><ele>1035.0</ele><time>2026-04-24T12:50:30.99Z</time></trkpt><trkpt lat="43.0114192" lon="12.9769803"><ele>1035.0</ele><time>2026-04-24T12:50:31.98Z</time></trkpt><trkpt lat="43.0113418" lon="12.97673"><ele>1035.0</ele><time>2026-04-24T12:50:32.993Z</time></trkpt><trkpt lat="43.0112689" lon="12.9764931"><ele>1035.0</ele><time>2026-04-24T12:50:33.976Z</time></trkpt><trkpt lat="43.0111931" lon="12.9762652"><ele>1035.0</ele><time>2026-04-24T12:50:34.986Z</time></trkpt><trkpt lat="43.0111201" lon="12.9760592"><ele>1035.0</ele><time>2026-04-24T12:50:35.973Z</time></trkpt><trkpt lat="43.0110553" lon="12.9758645"><ele>1035.5</ele><time>2026-04-24T12:50:36.985Z</time></trkpt><trkpt lat="43.0109854" lon="12.9756959"><ele>1036.0</ele><time>2026-04-24T12:50:37.982Z</time></trkpt><trkpt lat="43.0109283" lon="12.9755376"><ele>1036.5</ele><time>2026-04-24T12:50:38.993Z</time></trkpt><trkpt lat="43.0108729" lon="12.9753927"><ele>1037.0</ele><time>2026-04-24T12:50:39.996Z</time></trkpt><trkpt lat="43.0108036" lon="12.9752702"><ele>1038.0</ele><time>2026-04-24T12:50:40.975Z</time></trkpt><trkpt lat="43.0107136" lon="12.9751776"><ele>1039.0</ele><time>2026-04-24T12:50:41.984Z</time></trkpt><trkpt lat="43.0106205" lon="12.9750752"><ele>1040.0</ele><time>2026-04-24T12:50:42.986Z</time></trkpt><trkpt lat="43.010533" lon="12.9749575"><ele>1041.0</ele><time>2026-04-24T12:50:43.982Z</time></trkpt><trkpt lat="43.0104597" lon="12.9748252"><ele>1041.0</ele><time>2026-04-24T12:50:44.982Z</time></trkpt><trkpt lat="43.0104114" lon="12.9746677"><ele>1041.0</ele><time>2026-04-24T12:50:45.988Z</time></trkpt><trkpt lat="43.0103674" lon="12.9744938"><ele>1041.0</ele><time>2026-04-24T12:50:46.983Z</time></trkpt><trkpt lat="43.0103344" lon="12.974338"><ele>1041.0</ele><time>2026-04-24T12:50:47.979Z</time></trkpt><trkpt lat="43.0102991" lon="12.9742007"><ele>1041.3999999999999</ele><time>2026-04-24T12:50:48.98Z</time></trkpt><trkpt lat="43.0102501" lon="12.9740836"><ele>1041.8</ele><time>2026-04-24T12:50:49.979Z</time></trkpt><trkpt lat="43.0101787" lon="12.9739825"><ele>1042.1999999999998</ele><time>2026-04-24T12:50:50.984Z</time></trkpt><trkpt lat="43.0100974" lon="12.9738819"><ele>1042.6</ele><time>2026-04-24T12:50:51.983Z</time></trkpt><trkpt lat="43.0100208" lon="12.9737588"><ele>1043.0</ele><time>2026-04-24T12:50:52.998Z</time></trkpt><trkpt lat="43.0099342" lon="12.9736364"><ele>1043.0</ele><time>2026-04-24T12:50:53.979Z</time></trkpt><trkpt lat="43.009854" lon="12.9735272"><ele>1043.0</ele><time>2026-04-24T12:50:54.98Z</time></trkpt><trkpt lat="43.0097878" lon="12.9733757"><ele>1043.0</ele><time>2026-04-24T12:50:55.994Z</time></trkpt><trkpt lat="43.0097331" lon="12.9731953"><ele>1043.0</ele><time>2026-04-24T12:50:56.979Z</time></trkpt><trkpt lat="43.00967" lon="12.9730226"><ele>1043.25</ele><time>2026-04-24T12:50:57.98Z</time></trkpt><trkpt lat="43.0096109" lon="12.9728687"><ele>1043.5</ele><time>2026-04-24T12:50:59.003Z</time></trkpt><trkpt lat="43.0095427" lon="12.9727144"><ele>1043.75</ele><time>2026-04-24T12:50:59.977Z</time></trkpt><trkpt lat="43.0094829" lon="12.97256"><ele>1044.0</ele><time>2026-04-24T12:51:00.976Z</time></trkpt><trkpt lat="43.009436" lon="12.9724029"><ele>1044.0</ele><time>2026-04-24T12:51:01.969Z</time></trkpt><trkpt lat="43.009406" lon="12.9722327"><ele>1044.0</ele><time>2026-04-24T12:51:02.988Z</time></trkpt><trkpt lat="43.0093937" lon="12.9720504"><ele>1044.0</ele><time>2026-04-24T12:51:03.986Z</time></trkpt><trkpt lat="43.0093892" lon="12.971843"><ele>1044.0</ele><time>2026-04-24T12:51:04.986Z</time></trkpt><trkpt lat="43.0093993" lon="12.9716292"><ele>1051.0</ele><time>2026-04-24T12:51:05.989Z</time></trkpt><trkpt lat="43.009384" lon="12.9709674"><ele>1051.75</ele><time>2026-04-24T12:51:08.985Z</time></trkpt><trkpt lat="43.0093605" lon="12.970766"><ele>1052.5</ele><time>2026-04-24T12:51:09.987Z</time></trkpt><trkpt lat="43.0093293" lon="12.970588"><ele>1053.25</ele><time>2026-04-24T12:51:10.983Z</time></trkpt><trkpt lat="43.0092795" lon="12.9704372"><ele>1054.0</ele><time>2026-04-24T12:51:11.984Z</time></trkpt><trkpt lat="43.0092195" lon="12.9703119"><ele>1054.0</ele><time>2026-04-24T12:51:12.992Z</time></trkpt><trkpt lat="43.0091657" lon="12.9701923"><ele>1054.0</ele><time>2026-04-24T12:51:13.979Z</time></trkpt><trkpt lat="43.0091252" lon="12.970061"><ele>1054.0</ele><time>2026-04-24T12:51:14.987Z</time></trkpt><trkpt lat="43.0090951" lon="12.969907"><ele>1054.0</ele><time>2026-04-24T12:51:15.98Z</time></trkpt><trkpt lat="43.0090644" lon="12.9697551"><ele>1054.0</ele><time>2026-04-24T12:51:16.99Z</time></trkpt><trkpt lat="43.0090472" lon="12.9695854"><ele>1061.25</ele><time>2026-04-24T12:51:17.979Z</time></trkpt><trkpt lat="43.0090294" lon="12.9694019"><ele>1068.5</ele><time>2026-04-24T12:51:18.988Z</time></trkpt><trkpt lat="43.0089902" lon="12.9692112"><ele>1075.75</ele><time>2026-04-24T12:51:19.996Z</time></trkpt><trkpt lat="43.0089372" lon="12.9690145"><ele>1083.0</ele><time>2026-04-24T12:51:20.994Z</time></trkpt><trkpt lat="43.0088866" lon="12.9688222"><ele>1083.0</ele><time>2026-04-24T12:51:21.983Z</time></trkpt><trkpt lat="43.0088434" lon="12.9686406"><ele>1083.0</ele><time>2026-04-24T12:51:22.979Z</time></trkpt><trkpt lat="43.0088098" lon="12.9684526"><ele>1083.0</ele><time>2026-04-24T12:51:23.984Z</time></trkpt><trkpt lat="43.0087631" lon="12.9682461"><ele>1083.0</ele><time>2026-04-24T12:51:24.993Z</time></trkpt><trkpt lat="43.0087157" lon="12.968038"><ele>1080.0</ele><time>2026-04-24T12:51:25.98Z</time></trkpt><trkpt lat="43.0086691" lon="12.9678262"><ele>1077.0</ele><time>2026-04-24T12:51:26.979Z</time></trkpt><trkpt lat="43.0086177" lon="12.9676077"><ele>1074.0</ele><time>2026-04-24T12:51:27.978Z</time></trkpt><trkpt lat="43.0085673" lon="12.9673909"><ele>1072.0</ele><time>2026-04-24T12:51:28.977Z</time></trkpt><trkpt lat="43.0085306" lon="12.9671893"><ele>1070.0</ele><time>2026-04-24T12:51:29.979Z</time></trkpt><trkpt lat="43.0085" lon="12.9670125"><ele>1068.0</ele><time>2026-04-24T12:51:30.982Z</time></trkpt><trkpt lat="43.0084846" lon="12.9668656"><ele>1066.0</ele><time>2026-04-24T12:51:31.981Z</time></trkpt><trkpt lat="43.0084813" lon="12.9667138"><ele>1065.25</ele><time>2026-04-24T12:51:32.979Z</time></trkpt><trkpt lat="43.0084927" lon="12.9665657"><ele>1064.5</ele><time>2026-04-24T12:51:33.984Z</time></trkpt><trkpt lat="43.0084976" lon="12.9664012"><ele>1063.75</ele><time>2026-04-24T12:51:34.987Z</time></trkpt><trkpt lat="43.008484" lon="12.9662294"><ele>1063.0</ele><time>2026-04-24T12:51:35.987Z</time></trkpt><trkpt lat="43.0084692" lon="12.9660668"><ele>1063.0</ele><time>2026-04-24T12:51:36.983Z</time></trkpt><trkpt lat="43.0084578" lon="12.9659014"><ele>1063.0</ele><time>2026-04-24T12:51:37.989Z</time></trkpt><trkpt lat="43.0084352" lon="12.9657457"><ele>1063.0</ele><time>2026-04-24T12:51:38.994Z</time></trkpt><trkpt lat="43.0083959" lon="12.965591"><ele>1063.0</ele><time>2026-04-24T12:51:39.979Z</time></trkpt><trkpt lat="43.0083373" lon="12.9654398"><ele>1064.25</ele><time>2026-04-24T12:51:40.977Z</time></trkpt><trkpt lat="43.0082671" lon="12.965287"><ele>1065.5</ele><time>2026-04-24T12:51:41.994Z</time></trkpt><trkpt lat="43.0081908" lon="12.9651301"><ele>1066.75</ele><time>2026-04-24T12:51:42.979Z</time></trkpt><trkpt lat="43.0081036" lon="12.9649666"><ele>1068.0</ele><time>2026-04-24T12:51:43.984Z</time></trkpt><trkpt lat="43.008016" lon="12.9648024"><ele>1068.0</ele><time>2026-04-24T12:51:44.985Z</time></trkpt><trkpt lat="43.0079357" lon="12.9646497"><ele>1068.0</ele><time>2026-04-24T12:51:45.979Z</time></trkpt><trkpt lat="43.0078453" lon="12.964489"><ele>1068.0</ele><time>2026-04-24T12:51:46.993Z</time></trkpt><trkpt lat="43.007748" lon="12.9643456"><ele>1068.0</ele><time>2026-04-24T12:51:47.985Z</time></trkpt><trkpt lat="43.0076181" lon="12.9642201"><ele>1069.3333333333333</ele><time>2026-04-24T12:51:48.981Z</time></trkpt><trkpt lat="43.0074813" lon="12.9641043"><ele>1070.6666666666665</ele><time>2026-04-24T12:51:49.984Z</time></trkpt><trkpt lat="43.0073435" lon="12.9639877"><ele>1072.0</ele><time>2026-04-24T12:51:50.991Z</time></trkpt><trkpt lat="43.0071998" lon="12.9638746"><ele>1072.0</ele><time>2026-04-24T12:51:51.982Z</time></trkpt><trkpt lat="43.0070613" lon="12.9637736"><ele>1072.0</ele><time>2026-04-24T12:51:52.984Z</time></trkpt><trkpt lat="43.006931" lon="12.9636809"><ele>1072.0</ele><time>2026-04-24T12:51:53.98Z</time></trkpt><trkpt lat="43.0068046" lon="12.963589"><ele>1072.0</ele><time>2026-04-24T12:51:54.99Z</time></trkpt><trkpt lat="43.0066864" lon="12.963485"><ele>1074.75</ele><time>2026-04-24T12:51:55.973Z</time></trkpt><trkpt lat="43.0065637" lon="12.9634005"><ele>1077.5</ele><time>2026-04-24T12:51:56.982Z</time></trkpt><trkpt lat="43.0064462" lon="12.9632986"><ele>1080.25</ele><time>2026-04-24T12:51:57.969Z</time></trkpt><trkpt lat="43.0063211" lon="12.9631984"><ele>1083.0</ele><time>2026-04-24T12:51:58.989Z</time></trkpt><trkpt lat="43.0061883" lon="12.9630963"><ele>1083.0</ele><time>2026-04-24T12:51:59.992Z</time></trkpt><trkpt lat="43.0060478" lon="12.9630064"><ele>1083.0</ele><time>2026-04-24T12:52:00.982Z</time></trkpt><trkpt lat="43.0059161" lon="12.96292"><ele>1083.0</ele><time>2026-04-24T12:52:01.991Z</time></trkpt><trkpt lat="43.0057992" lon="12.9628448"><ele>1083.0</ele><time>2026-04-24T12:52:02.982Z</time></trkpt><trkpt lat="43.0056856" lon="12.9627824"><ele>1087.0</ele><time>2026-04-24T12:52:03.982Z</time></trkpt><trkpt lat="43.0055676" lon="12.9627352"><ele>1091.0</ele><time>2026-04-24T12:52:04.986Z</time></trkpt><trkpt lat="43.0054434" lon="12.9626958"><ele>1095.0</ele><time>2026-04-24T12:52:05.991Z</time></trkpt><trkpt lat="43.0053134" lon="12.9626495"><ele>1099.0</ele><time>2026-04-24T12:52:06.987Z</time></trkpt><trkpt lat="43.0051893" lon="12.9626177"><ele>1099.0</ele><time>2026-04-24T12:52:07.987Z</time></trkpt><trkpt lat="43.0050619" lon="12.9626154"><ele>1099.0</ele><time>2026-04-24T12:52:08.991Z</time></trkpt><trkpt lat="43.004918" lon="12.9626312"><ele>1099.0</ele><time>2026-04-24T12:52:09.981Z</time></trkpt><trkpt lat="43.0047751" lon="12.962646"><ele>1099.0</ele><time>2026-04-24T12:52:10.988Z</time></trkpt><trkpt lat="43.0046199" lon="12.9626425"><ele>1104.0</ele><time>2026-04-24T12:52:11.976Z</time></trkpt><trkpt lat="43.0044521" lon="12.9626269"><ele>1109.0</ele><time>2026-04-24T12:52:12.985Z</time></trkpt><trkpt lat="43.0042943" lon="12.9626008"><ele>1114.0</ele><time>2026-04-24T12:52:13.98Z</time></trkpt><trkpt lat="43.004158" lon="12.9625716"><ele>1114.0</ele><time>2026-04-24T12:52:14.989Z</time></trkpt><trkpt lat="43.0040304" lon="12.9625369"><ele>1114.0</ele><time>2026-04-24T12:52:16Z</time></trkpt><trkpt lat="43.0039061" lon="12.9625181"><ele>1114.0</ele><time>2026-04-24T12:52:16.998Z</time></trkpt><trkpt lat="43.0037773" lon="12.9625105"><ele>1114.0</ele><time>2026-04-24T12:52:17.981Z</time></trkpt><trkpt lat="43.0036468" lon="12.9625029"><ele>1114.0</ele><time>2026-04-24T12:52:18.991Z</time></trkpt><trkpt lat="43.0035161" lon="12.9625095"><ele>1114.0</ele><time>2026-04-24T12:52:19.99Z</time></trkpt><trkpt lat="43.0033822" lon="12.9625211"><ele>1114.0</ele><time>2026-04-24T12:52:20.975Z</time></trkpt><trkpt lat="43.0032386" lon="12.9625347"><ele>1114.0</ele><time>2026-04-24T12:52:21.985Z</time></trkpt><trkpt lat="43.0030871" lon="12.962556"><ele>1121.3333333333333</ele><time>2026-04-24T12:52:22.981Z</time></trkpt><trkpt lat="43.0029343" lon="12.9625858"><ele>1128.6666666666667</ele><time>2026-04-24T12:52:23.982Z</time></trkpt><trkpt lat="43.0027849" lon="12.9626253"><ele>1136.0</ele><time>2026-04-24T12:52:24.981Z</time></trkpt><trkpt lat="43.0026263" lon="12.9626595"><ele>1139.0</ele><time>2026-04-24T12:52:25.973Z</time></trkpt><trkpt lat="43.0024679" lon="12.9626846"><ele>1142.0</ele><time>2026-04-24T12:52:27.002Z</time></trkpt><trkpt lat="43.0023083" lon="12.9626996"><ele>1145.0</ele><time>2026-04-24T12:52:27.999Z</time></trkpt><trkpt lat="43.0021471" lon="12.9627216"><ele>1145.0</ele><time>2026-04-24T12:52:28.984Z</time></trkpt><trkpt lat="43.0019833" lon="12.9627449"><ele>1145.0</ele><time>2026-04-24T12:52:29.983Z</time></trkpt><trkpt lat="43.0018129" lon="12.9627619"><ele>1145.0</ele><time>2026-04-24T12:52:30.99Z</time></trkpt><trkpt lat="43.0016287" lon="12.9627664"><ele>1146.6666666666667</ele><time>2026-04-24T12:52:31.984Z</time></trkpt><trkpt lat="43.0014405" lon="12.962758"><ele>1148.3333333333333</ele><time>2026-04-24T12:52:32.988Z</time></trkpt><trkpt lat="43.0012626" lon="12.9627591"><ele>1150.0</ele><time>2026-04-24T12:52:33.98Z</time></trkpt><trkpt lat="43.0010971" lon="12.9627602"><ele>1150.0</ele><time>2026-04-24T12:52:34.974Z</time></trkpt><trkpt lat="43.0009524" lon="12.9627578"><ele>1150.0</ele><time>2026-04-24T12:52:35.98Z</time></trkpt><trkpt lat="43.0008152" lon="12.9627767"><ele>1150.0</ele><time>2026-04-24T12:52:36.983Z</time></trkpt><trkpt lat="43.0006918" lon="12.9628103"><ele>1150.0</ele><time>2026-04-24T12:52:37.984Z</time></trkpt><trkpt lat="43.0005794" lon="12.9628248"><ele>1150.4</ele><time>2026-04-24T12:52:38.987Z</time></trkpt><trkpt lat="43.0004879" lon="12.9628103"><ele>1150.8</ele><time>2026-04-24T12:52:39.984Z</time></trkpt><trkpt lat="43.0004114" lon="12.9627702"><ele>1151.2</ele><time>2026-04-24T12:52:40.986Z</time></trkpt><trkpt lat="43.0003227" lon="12.9626851"><ele>1151.6</ele><time>2026-04-24T12:52:43.001Z</time></trkpt><trkpt lat="43.0003099" lon="12.9625677"><ele>1152.0</ele><time>2026-04-24T12:52:45.99Z</time></trkpt><trkpt lat="43.0003831" lon="12.9624836"><ele>1152.0</ele><time>2026-04-24T12:52:47.988Z</time></trkpt><trkpt lat="43.0004395" lon="12.962433"><ele>1152.0</ele><time>2026-04-24T12:52:48.99Z</time></trkpt><trkpt lat="43.0005087" lon="12.9623523"><ele>1152.0</ele><time>2026-04-24T12:52:49.981Z</time></trkpt><trkpt lat="43.0005888" lon="12.9622513"><ele>1152.0</ele><time>2026-04-24T12:52:50.992Z</time></trkpt><trkpt lat="43.0006865" lon="12.9621391"><ele>1152.0</ele><time>2026-04-24T12:52:51.985Z</time></trkpt><trkpt lat="43.0008004" lon="12.9620326"><ele>1149.6666666666667</ele><time>2026-04-24T12:52:52.992Z</time></trkpt><trkpt lat="43.0009308" lon="12.9619405"><ele>1147.3333333333335</ele><time>2026-04-24T12:52:54.009Z</time></trkpt><trkpt lat="43.0010892" lon="12.9618929"><ele>1145.0</ele><time>2026-04-24T12:52:54.989Z</time></trkpt><trkpt lat="43.0012652" lon="12.961847"><ele>1145.0</ele><time>2026-04-24T12:52:55.985Z</time></trkpt><trkpt lat="43.0014483" lon="12.9617874"><ele>1145.0</ele><time>2026-04-24T12:52:56.978Z</time></trkpt><trkpt lat="43.0016329" lon="12.9617121"><ele>1145.0</ele><time>2026-04-24T12:52:57.989Z</time></trkpt><trkpt lat="43.0017955" lon="12.9616513"><ele>1147.75</ele><time>2026-04-24T12:52:58.987Z</time></trkpt><trkpt lat="43.0019377" lon="12.9615952"><ele>1150.5</ele><time>2026-04-24T12:52:59.978Z</time></trkpt><trkpt lat="43.0020649" lon="12.9615459"><ele>1153.25</ele><time>2026-04-24T12:53:00.995Z</time></trkpt><trkpt lat="43.0021876" lon="12.9614799"><ele>1156.0</ele><time>2026-04-24T12:53:01.984Z</time></trkpt><trkpt lat="43.0023075" lon="12.9613779"><ele>1156.0</ele><time>2026-04-24T12:53:02.978Z</time></trkpt><trkpt lat="43.0024312" lon="12.9612417"><ele>1156.0</ele><time>2026-04-24T12:53:03.979Z</time></trkpt><trkpt lat="43.0025367" lon="12.9610968"><ele>1156.0</ele><time>2026-04-24T12:53:04.996Z</time></trkpt><trkpt lat="43.0026246" lon="12.9609634"><ele>1156.0</ele><time>2026-04-24T12:53:05.987Z</time></trkpt><trkpt lat="43.0026919" lon="12.9608293"><ele>1157.8</ele><time>2026-04-24T12:53:06.996Z</time></trkpt><trkpt lat="43.0027427" lon="12.9606922"><ele>1159.6</ele><time>2026-04-24T12:53:07.987Z</time></trkpt><trkpt lat="43.0027577" lon="12.9605614"><ele>1161.4</ele><time>2026-04-24T12:53:08.988Z</time></trkpt><trkpt lat="43.0027534" lon="12.9604365"><ele>1163.2</ele><time>2026-04-24T12:53:09.984Z</time></trkpt><trkpt lat="43.0027237" lon="12.9603275"><ele>1165.0</ele><time>2026-04-24T12:53:11.003Z</time></trkpt><trkpt lat="43.0026633" lon="12.9602274"><ele>1165.0</ele><time>2026-04-24T12:53:11.998Z</time></trkpt><trkpt lat="43.0025755" lon="12.9601599"><ele>1165.0</ele><time>2026-04-24T12:53:12.986Z</time></trkpt><trkpt lat="43.0024798" lon="12.960098"><ele>1165.0</ele><time>2026-04-24T12:53:13.99Z</time></trkpt><trkpt lat="43.0023817" lon="12.9600307"><ele>1165.0</ele><time>2026-04-24T12:53:14.992Z</time></trkpt><trkpt lat="43.002321" lon="12.9599227"><ele>1165.0</ele><time>2026-04-24T12:53:15.988Z</time></trkpt><trkpt lat="43.0023179" lon="12.9597891"><ele>1173.0</ele><time>2026-04-24T12:53:16.99Z</time></trkpt><trkpt lat="43.0023323" lon="12.9596507"><ele>1181.0</ele><time>2026-04-24T12:53:17.985Z</time></trkpt><trkpt lat="43.0023608" lon="12.9594828"><ele>1189.0</ele><time>2026-04-24T12:53:19.004Z</time></trkpt><trkpt lat="43.0023941" lon="12.9592906"><ele>1197.0</ele><time>2026-04-24T12:53:19.985Z</time></trkpt><trkpt lat="43.0024391" lon="12.9591039"><ele>1199.25</ele><time>2026-04-24T12:53:20.985Z</time></trkpt><trkpt lat="43.0024711" lon="12.9589412"><ele>1201.5</ele><time>2026-04-24T12:53:22.002Z</time></trkpt><trkpt lat="43.002478" lon="12.9587644"><ele>1203.75</ele><time>2026-04-24T12:53:23.01Z</time></trkpt><trkpt lat="43.002454" lon="12.9585757"><ele>1206.0</ele><time>2026-04-24T12:53:23.981Z</time></trkpt><trkpt lat="43.0024233" lon="12.9583866"><ele>1207.75</ele><time>2026-04-24T12:53:24.995Z</time></trkpt><trkpt lat="43.0023904" lon="12.9582061"><ele>1209.5</ele><time>2026-04-24T12:53:25.993Z</time></trkpt><trkpt lat="43.002384" lon="12.95803"><ele>1211.25</ele><time>2026-04-24T12:53:26.98Z</time></trkpt><trkpt lat="43.0024009" lon="12.9578631"><ele>1213.0</ele><time>2026-04-24T12:53:27.981Z</time></trkpt><trkpt lat="43.002446" lon="12.9577017"><ele>1206.5</ele><time>2026-04-24T12:53:28.987Z</time></trkpt><trkpt lat="43.0025238" lon="12.9575359"><ele>1200.0</ele><time>2026-04-24T12:53:29.98Z</time></trkpt><trkpt lat="43.0026177" lon="12.9573658"><ele>1193.5</ele><time>2026-04-24T12:53:30.981Z</time></trkpt><trkpt lat="43.0027047" lon="12.9572107"><ele>1187.0</ele><time>2026-04-24T12:53:31.979Z</time></trkpt><trkpt lat="43.0028068" lon="12.957053"><ele>1187.0</ele><time>2026-04-24T12:53:32.981Z</time></trkpt><trkpt lat="43.0029252" lon="12.9568756"><ele>1187.0</ele><time>2026-04-24T12:53:33.992Z</time></trkpt><trkpt lat="43.0030588" lon="12.9566866"><ele>1187.0</ele><time>2026-04-24T12:53:34.988Z</time></trkpt><trkpt lat="43.0031881" lon="12.9564941"><ele>1184.6666666666667</ele><time>2026-04-24T12:53:35.986Z</time></trkpt><trkpt lat="43.0033036" lon="12.95632"><ele>1182.3333333333333</ele><time>2026-04-24T12:53:36.99Z</time></trkpt><trkpt lat="43.0034212" lon="12.9561444"><ele>1180.0</ele><time>2026-04-24T12:53:37.995Z</time></trkpt><trkpt lat="43.0035341" lon="12.9559579"><ele>1183.3333333333333</ele><time>2026-04-24T12:53:38.985Z</time></trkpt><trkpt lat="43.0036501" lon="12.9557833"><ele>1186.6666666666667</ele><time>2026-04-24T12:53:39.979Z</time></trkpt><trkpt lat="43.003757" lon="12.9556326"><ele>1190.0</ele><time>2026-04-24T12:53:40.986Z</time></trkpt><trkpt lat="43.0038511" lon="12.9554841"><ele>1190.0</ele><time>2026-04-24T12:53:41.977Z</time></trkpt><trkpt lat="43.0039484" lon="12.9553706"><ele>1190.0</ele><time>2026-04-24T12:53:42.984Z</time></trkpt><trkpt lat="43.0040614" lon="12.9552744"><ele>1190.0</ele><time>2026-04-24T12:53:43.988Z</time></trkpt><trkpt lat="43.0041792" lon="12.9552067"><ele>1190.0</ele><time>2026-04-24T12:53:44.98Z</time></trkpt><trkpt lat="43.004303" lon="12.9551477"><ele>1189.0</ele><time>2026-04-24T12:53:45.993Z</time></trkpt><trkpt lat="43.004434" lon="12.9550968"><ele>1188.0</ele><time>2026-04-24T12:53:46.994Z</time></trkpt><trkpt lat="43.0045649" lon="12.9550356"><ele>1187.0</ele><time>2026-04-24T12:53:47.994Z</time></trkpt><trkpt lat="43.0046986" lon="12.9549713"><ele>1186.0</ele><time>2026-04-24T12:53:48.998Z</time></trkpt><trkpt lat="43.0048344" lon="12.9549039"><ele>1186.0</ele><time>2026-04-24T12:53:49.989Z</time></trkpt><trkpt lat="43.0049672" lon="12.9548345"><ele>1186.0</ele><time>2026-04-24T12:53:50.987Z</time></trkpt><trkpt lat="43.0050992" lon="12.9547619"><ele>1186.0</ele><time>2026-04-24T12:53:51.996Z</time></trkpt><trkpt lat="43.0052321" lon="12.9546914"><ele>1186.0</ele><time>2026-04-24T12:53:52.984Z</time></trkpt><trkpt lat="43.0053757" lon="12.9546177"><ele>1182.6666666666665</ele><time>2026-04-24T12:53:53.99Z</time></trkpt><trkpt lat="43.0055218" lon="12.9545413"><ele>1179.3333333333333</ele><time>2026-04-24T12:53:54.988Z</time></trkpt><trkpt lat="43.0056624" lon="12.9544701"><ele>1176.0</ele><time>2026-04-24T12:53:55.978Z</time></trkpt><trkpt lat="43.0058067" lon="12.9543913"><ele>1175.75</ele><time>2026-04-24T12:53:56.988Z</time></trkpt><trkpt lat="43.0059485" lon="12.9543176"><ele>1175.5</ele><time>2026-04-24T12:53:58.004Z</time></trkpt><trkpt lat="43.0060794" lon="12.9542469"><ele>1175.25</ele><time>2026-04-24T12:53:58.991Z</time></trkpt><trkpt lat="43.0062043" lon="12.9541865"><ele>1175.0</ele><time>2026-04-24T12:54:00.011Z</time></trkpt><trkpt lat="43.0063296" lon="12.9541355"><ele>1175.0</ele><time>2026-04-24T12:54:00.992Z</time></trkpt><trkpt lat="43.0064476" lon="12.9541"><ele>1175.0</ele><time>2026-04-24T12:54:01.98Z</time></trkpt><trkpt lat="43.0065661" lon="12.9540861"><ele>1175.0</ele><time>2026-04-24T12:54:02.989Z</time></trkpt><trkpt lat="43.0066932" lon="12.9540961"><ele>1175.0</ele><time>2026-04-24T12:54:03.987Z</time></trkpt><trkpt lat="43.0068192" lon="12.9541205"><ele>1173.75</ele><time>2026-04-24T12:54:04.995Z</time></trkpt><trkpt lat="43.0069422" lon="12.9541514"><ele>1172.5</ele><time>2026-04-24T12:54:05.993Z</time></trkpt><trkpt lat="43.0070586" lon="12.9541869"><ele>1171.25</ele><time>2026-04-24T12:54:07Z</time></trkpt><trkpt lat="43.0071679" lon="12.9542056"><ele>1170.0</ele><time>2026-04-24T12:54:07.986Z</time></trkpt><trkpt lat="43.0072727" lon="12.9542055"><ele>1169.75</ele><time>2026-04-24T12:54:08.981Z</time></trkpt><trkpt lat="43.0073693" lon="12.9541606"><ele>1169.5</ele><time>2026-04-24T12:54:09.984Z</time></trkpt><trkpt lat="43.0074577" lon="12.9540769"><ele>1169.25</ele><time>2026-04-24T12:54:10.984Z</time></trkpt><trkpt lat="43.0075602" lon="12.9539548"><ele>1169.0</ele><time>2026-04-24T12:54:11.988Z</time></trkpt><trkpt lat="43.007673" lon="12.9538145"><ele>1168.6666666666667</ele><time>2026-04-24T12:54:12.986Z</time></trkpt><trkpt lat="43.0078025" lon="12.9536717"><ele>1168.3333333333333</ele><time>2026-04-24T12:54:13.997Z</time></trkpt><trkpt lat="43.0079377" lon="12.9535392"><ele>1168.0</ele><time>2026-04-24T12:54:14.992Z</time></trkpt><trkpt lat="43.0080703" lon="12.9534321"><ele>1166.5</ele><time>2026-04-24T12:54:15.987Z</time></trkpt><trkpt lat="43.0082129" lon="12.953345"><ele>1165.0</ele><time>2026-04-24T12:54:17Z</time></trkpt><trkpt lat="43.0083505" lon="12.9532695"><ele>1163.5</ele><time>2026-04-24T12:54:18.005Z</time></trkpt><trkpt lat="43.0084844" lon="12.9531971"><ele>1162.0</ele><time>2026-04-24T12:54:18.996Z</time></trkpt><trkpt lat="43.0086157" lon="12.9531231"><ele>1162.0</ele><time>2026-04-24T12:54:19.98Z</time></trkpt><trkpt lat="43.0087522" lon="12.9530322"><ele>1162.0</ele><time>2026-04-24T12:54:20.992Z</time></trkpt><trkpt lat="43.0088888" lon="12.9529296"><ele>1162.0</ele><time>2026-04-24T12:54:22.006Z</time></trkpt><trkpt lat="43.0090253" lon="12.9528164"><ele>1162.0</ele><time>2026-04-24T12:54:22.993Z</time></trkpt><trkpt lat="43.0091503" lon="12.9527018"><ele>1162.0</ele><time>2026-04-24T12:54:23.991Z</time></trkpt><trkpt lat="43.0092734" lon="12.9525857"><ele>1162.0</ele><time>2026-04-24T12:54:24.985Z</time></trkpt><trkpt lat="43.0093951" lon="12.9524785"><ele>1162.0</ele><time>2026-04-24T12:54:25.979Z</time></trkpt><trkpt lat="43.0095292" lon="12.9523649"><ele>1156.3333333333333</ele><time>2026-04-24T12:54:26.995Z</time></trkpt><trkpt lat="43.0096682" lon="12.9522394"><ele>1150.6666666666667</ele><time>2026-04-24T12:54:27.982Z</time></trkpt><trkpt lat="43.0097935" lon="12.9520845"><ele>1145.0</ele><time>2026-04-24T12:54:28.992Z</time></trkpt><trkpt lat="43.009903" lon="12.9519049"><ele>1143.6666666666667</ele><time>2026-04-24T12:54:29.983Z</time></trkpt><trkpt lat="43.0100056" lon="12.9517228"><ele>1142.3333333333333</ele><time>2026-04-24T12:54:30.983Z</time></trkpt><trkpt lat="43.0101079" lon="12.9515377"><ele>1141.0</ele><time>2026-04-24T12:54:31.987Z</time></trkpt><trkpt lat="43.0101969" lon="12.9513603"><ele>1141.0</ele><time>2026-04-24T12:54:33.004Z</time></trkpt><trkpt lat="43.0102706" lon="12.9512145"><ele>1141.0</ele><time>2026-04-24T12:54:33.994Z</time></trkpt><trkpt lat="43.0103376" lon="12.9510819"><ele>1141.0</ele><time>2026-04-24T12:54:34.99Z</time></trkpt><trkpt lat="43.0103977" lon="12.9509665"><ele>1141.0</ele><time>2026-04-24T12:54:35.989Z</time></trkpt><trkpt lat="43.0104601" lon="12.950877"><ele>1141.0</ele><time>2026-04-24T12:54:36.98Z</time></trkpt><trkpt lat="43.0105369" lon="12.9508151"><ele>1141.6</ele><time>2026-04-24T12:54:37.986Z</time></trkpt><trkpt lat="43.0106313" lon="12.9507912"><ele>1142.1999999999998</ele><time>2026-04-24T12:54:38.99Z</time></trkpt><trkpt lat="43.0107269" lon="12.9508111"><ele>1142.8000000000002</ele><time>2026-04-24T12:54:39.983Z</time></trkpt><trkpt lat="43.0108349" lon="12.9508646"><ele>1143.4</ele><time>2026-04-24T12:54:40.992Z</time></trkpt><trkpt lat="43.0109418" lon="12.9509425"><ele>1144.0</ele><time>2026-04-24T12:54:41.979Z</time></trkpt><trkpt lat="43.0110421" lon="12.9510538"><ele>1144.0</ele><time>2026-04-24T12:54:42.978Z</time></trkpt><trkpt lat="43.0111589" lon="12.9511989"><ele>1144.0</ele><time>2026-04-24T12:54:43.981Z</time></trkpt><trkpt lat="43.0112662" lon="12.9513538"><ele>1144.0</ele><time>2026-04-24T12:54:44.999Z</time></trkpt><trkpt lat="43.0113811" lon="12.9515294"><ele>1144.6666666666665</ele><time>2026-04-24T12:54:45.982Z</time></trkpt><trkpt lat="43.0114924" lon="12.9517155"><ele>1145.3333333333333</ele><time>2026-04-24T12:54:46.987Z</time></trkpt><trkpt lat="43.011594" lon="12.9519028"><ele>1146.0</ele><time>2026-04-24T12:54:47.995Z</time></trkpt><trkpt lat="43.0116878" lon="12.9521045"><ele>1140.3333333333333</ele><time>2026-04-24T12:54:48.994Z</time></trkpt><trkpt lat="43.0117776" lon="12.9523059"><ele>1134.6666666666665</ele><time>2026-04-24T12:54:49.988Z</time></trkpt><trkpt lat="43.0118778" lon="12.9525151"><ele>1129.0</ele><time>2026-04-24T12:54:50.993Z</time></trkpt><trkpt lat="43.0119847" lon="12.9527323"><ele>1129.0</ele><time>2026-04-24T12:54:51.977Z</time></trkpt><trkpt lat="43.012097" lon="12.9529581"><ele>1129.0</ele><time>2026-04-24T12:54:52.992Z</time></trkpt><trkpt lat="43.0122177" lon="12.9531831"><ele>1129.0</ele><time>2026-04-24T12:54:53.986Z</time></trkpt><trkpt lat="43.0123393" lon="12.9534184"><ele>1129.0</ele><time>2026-04-24T12:54:55.002Z</time></trkpt><trkpt lat="43.0124584" lon="12.9536535"><ele>1129.0</ele><time>2026-04-24T12:54:55.988Z</time></trkpt><trkpt lat="43.0125765" lon="12.9538944"><ele>1129.0</ele><time>2026-04-24T12:54:57.003Z</time></trkpt><trkpt lat="43.0126988" lon="12.9541365"><ele>1125.6666666666665</ele><time>2026-04-24T12:54:57.986Z</time></trkpt><trkpt lat="43.0128228" lon="12.9543834"><ele>1122.3333333333333</ele><time>2026-04-24T12:54:59.005Z</time></trkpt><trkpt lat="43.0129404" lon="12.954622"><ele>1119.0</ele><time>2026-04-24T12:54:59.984Z</time></trkpt><trkpt lat="43.0130534" lon="12.9548585"><ele>1120.3333333333333</ele><time>2026-04-24T12:55:00.997Z</time></trkpt><trkpt lat="43.0131652" lon="12.9550942"><ele>1121.6666666666665</ele><time>2026-04-24T12:55:01.979Z</time></trkpt><trkpt lat="43.0132663" lon="12.9553162"><ele>1123.0</ele><time>2026-04-24T12:55:03.006Z</time></trkpt><trkpt lat="43.0133553" lon="12.9555386"><ele>1116.6666666666665</ele><time>2026-04-24T12:55:03.987Z</time></trkpt><trkpt lat="43.01343" lon="12.9557729"><ele>1110.3333333333333</ele><time>2026-04-24T12:55:04.982Z</time></trkpt><trkpt lat="43.0134865" lon="12.9560148"><ele>1104.0</ele><time>2026-04-24T12:55:05.983Z</time></trkpt><trkpt lat="43.0135252" lon="12.9562614"><ele>1102.3333333333333</ele><time>2026-04-24T12:55:06.981Z</time></trkpt><trkpt lat="43.0135527" lon="12.9564879"><ele>1100.6666666666665</ele><time>2026-04-24T12:55:07.992Z</time></trkpt><trkpt lat="43.0135776" lon="12.9566926"><ele>1099.0</ele><time>2026-04-24T12:55:08.994Z</time></trkpt><trkpt lat="43.0139484" lon="12.9572493"><ele>1098.3333333333333</ele><time>2026-04-24T12:55:12.994Z</time></trkpt><trkpt lat="43.0141105" lon="12.957378"><ele>1097.6666666666667</ele><time>2026-04-24T12:55:13.995Z</time></trkpt><trkpt lat="43.0142842" lon="12.9575232"><ele>1097.0</ele><time>2026-04-24T12:55:15.006Z</time></trkpt><trkpt lat="43.0144612" lon="12.9576573"><ele>1094.0</ele><time>2026-04-24T12:55:15.99Z</time></trkpt><trkpt lat="43.0146548" lon="12.9577752"><ele>1091.0</ele><time>2026-04-24T12:55:16.984Z</time></trkpt><trkpt lat="43.0148562" lon="12.9578685"><ele>1088.0</ele><time>2026-04-24T12:55:17.997Z</time></trkpt><trkpt lat="43.0150632" lon="12.9579359"><ele>1079.6666666666667</ele><time>2026-04-24T12:55:18.999Z</time></trkpt><trkpt lat="43.0152838" lon="12.9579838"><ele>1071.3333333333333</ele><time>2026-04-24T12:55:19.984Z</time></trkpt><trkpt lat="43.0155084" lon="12.9580098"><ele>1063.0</ele><time>2026-04-24T12:55:20.984Z</time></trkpt><trkpt lat="43.0157239" lon="12.958037"><ele>1059.3333333333333</ele><time>2026-04-24T12:55:21.992Z</time></trkpt><trkpt lat="43.0159407" lon="12.9580628"><ele>1055.6666666666667</ele><time>2026-04-24T12:55:22.988Z</time></trkpt><trkpt lat="43.0161483" lon="12.9580905"><ele>1052.0</ele><time>2026-04-24T12:55:23.981Z</time></trkpt><trkpt lat="43.0163598" lon="12.9581109"><ele>1052.0</ele><time>2026-04-24T12:55:24.994Z</time></trkpt><trkpt lat="43.0165646" lon="12.9581188"><ele>1052.0</ele><time>2026-04-24T12:55:25.989Z</time></trkpt><trkpt lat="43.0167645" lon="12.9581123"><ele>1052.0</ele><time>2026-04-24T12:55:26.999Z</time></trkpt><trkpt lat="43.0169605" lon="12.958091"><ele>1049.6666666666667</ele><time>2026-04-24T12:55:27.983Z</time></trkpt><trkpt lat="43.0171624" lon="12.958061"><ele>1047.3333333333333</ele><time>2026-04-24T12:55:28.994Z</time></trkpt><trkpt lat="43.0173675" lon="12.9580233"><ele>1045.0</ele><time>2026-04-24T12:55:29.985Z</time></trkpt><trkpt lat="43.0175738" lon="12.9579919"><ele>1041.0</ele><time>2026-04-24T12:55:30.984Z</time></trkpt><trkpt lat="43.0177827" lon="12.9579639"><ele>1037.0</ele><time>2026-04-24T12:55:31.987Z</time></trkpt><trkpt lat="43.0179798" lon="12.95794"><ele>1033.0</ele><time>2026-04-24T12:55:32.987Z</time></trkpt><trkpt lat="43.0181545" lon="12.9579096"><ele>1033.0</ele><time>2026-04-24T12:55:33.999Z</time></trkpt><trkpt lat="43.0183146" lon="12.9578522"><ele>1033.0</ele><time>2026-04-24T12:55:34.999Z</time></trkpt><trkpt lat="43.0184736" lon="12.9577561"><ele>1033.0</ele><time>2026-04-24T12:55:35.982Z</time></trkpt><trkpt lat="43.0186462" lon="12.9576466"><ele>1031.0</ele><time>2026-04-24T12:55:36.987Z</time></trkpt><trkpt lat="43.0188351" lon="12.9575577"><ele>1029.0</ele><time>2026-04-24T12:55:37.994Z</time></trkpt><trkpt lat="43.0190361" lon="12.9574859"><ele>1027.0</ele><time>2026-04-24T12:55:38.987Z</time></trkpt><trkpt lat="43.0192448" lon="12.9574325"><ele>1027.0</ele><time>2026-04-24T12:55:39.99Z</time></trkpt><trkpt lat="43.0194683" lon="12.9573782"><ele>1027.0</ele><time>2026-04-24T12:55:40.99Z</time></trkpt><trkpt lat="43.0196947" lon="12.9573222"><ele>1027.0</ele><time>2026-04-24T12:55:41.995Z</time></trkpt><trkpt lat="43.0199229" lon="12.9572669"><ele>1027.0</ele><time>2026-04-24T12:55:43.002Z</time></trkpt><trkpt lat="43.0201508" lon="12.9572178"><ele>1021.0</ele><time>2026-04-24T12:55:43.971Z</time></trkpt><trkpt lat="43.0203734" lon="12.9571554"><ele>1015.0</ele><time>2026-04-24T12:55:44.98Z</time></trkpt><trkpt lat="43.020589" lon="12.9570994"><ele>1009.0</ele><time>2026-04-24T12:55:45.986Z</time></trkpt><trkpt lat="43.0208019" lon="12.9570439"><ele>1002.6666666666666</ele><time>2026-04-24T12:55:47.005Z</time></trkpt><trkpt lat="43.0210125" lon="12.9569798"><ele>996.3333333333333</ele><time>2026-04-24T12:55:47.985Z</time></trkpt><trkpt lat="43.0212266" lon="12.956919"><ele>990.0</ele><time>2026-04-24T12:55:48.992Z</time></trkpt><trkpt lat="43.0214485" lon="12.9568604"><ele>979.5</ele><time>2026-04-24T12:55:50Z</time></trkpt><trkpt lat="43.0216686" lon="12.9568069"><ele>969.0</ele><time>2026-04-24T12:55:50.982Z</time></trkpt><trkpt lat="43.0218947" lon="12.9567584"><ele>969.0</ele><time>2026-04-24T12:55:51.982Z</time></trkpt><trkpt lat="43.0221134" lon="12.9567197"><ele>969.0</ele><time>2026-04-24T12:55:53.003Z</time></trkpt><trkpt lat="43.022323" lon="12.956686"><ele>969.0</ele><time>2026-04-24T12:55:54Z</time></trkpt><trkpt lat="43.022526" lon="12.9566489"><ele>976.3333333333333</ele><time>2026-04-24T12:55:54.989Z</time></trkpt><trkpt lat="43.022717" lon="12.9566067"><ele>983.6666666666666</ele><time>2026-04-24T12:55:55.976Z</time></trkpt><trkpt lat="43.0229017" lon="12.956555"><ele>991.0</ele><time>2026-04-24T12:55:57Z</time></trkpt><trkpt lat="43.0230683" lon="12.9564959"><ele>991.0</ele><time>2026-04-24T12:55:58.001Z</time></trkpt><trkpt lat="43.0232205" lon="12.9564295"><ele>991.0</ele><time>2026-04-24T12:55:58.982Z</time></trkpt><trkpt lat="43.0233628" lon="12.9563471"><ele>991.0</ele><time>2026-04-24T12:55:59.982Z</time></trkpt><trkpt lat="43.0234764" lon="12.9562381"><ele>991.25</ele><time>2026-04-24T12:56:00.976Z</time></trkpt><trkpt lat="43.0235657" lon="12.9560903"><ele>991.5</ele><time>2026-04-24T12:56:01.989Z</time></trkpt><trkpt lat="43.0236386" lon="12.9559194"><ele>991.75</ele><time>2026-04-24T12:56:02.994Z</time></trkpt><trkpt lat="43.0236867" lon="12.9557196"><ele>992.0</ele><time>2026-04-24T12:56:03.983Z</time></trkpt><trkpt lat="43.0237082" lon="12.9554818"><ele>992.0</ele><time>2026-04-24T12:56:05.011Z</time></trkpt><trkpt lat="43.0237172" lon="12.9552267"><ele>992.0</ele><time>2026-04-24T12:56:05.991Z</time></trkpt><trkpt lat="43.0237143" lon="12.9549717"><ele>992.0</ele><time>2026-04-24T12:56:06.988Z</time></trkpt><trkpt lat="43.0236892" lon="12.9547262"><ele>992.6666666666667</ele><time>2026-04-24T12:56:07.99Z</time></trkpt><trkpt lat="43.0236458" lon="12.9544753"><ele>993.3333333333333</ele><time>2026-04-24T12:56:09.001Z</time></trkpt><trkpt lat="43.0235813" lon="12.9542053"><ele>994.0</ele><time>2026-04-24T12:56:09.989Z</time></trkpt><trkpt lat="43.0235046" lon="12.9539176"><ele>987.5</ele><time>2026-04-24T12:56:10.983Z</time></trkpt><trkpt lat="43.0234241" lon="12.9536063"><ele>981.0</ele><time>2026-04-24T12:56:11.992Z</time></trkpt><trkpt lat="43.023334" lon="12.9532808"><ele>992.5</ele><time>2026-04-24T12:56:12.996Z</time></trkpt><trkpt lat="43.0232405" lon="12.9529493"><ele>1004.0</ele><time>2026-04-24T12:56:13.985Z</time></trkpt><trkpt lat="43.0231477" lon="12.9526304"><ele>993.5</ele><time>2026-04-24T12:56:14.993Z</time></trkpt><trkpt lat="43.0230607" lon="12.9523247"><ele>983.0</ele><time>2026-04-24T12:56:15.986Z</time></trkpt><trkpt lat="43.0229807" lon="12.9520366"><ele>983.0</ele><time>2026-04-24T12:56:16.998Z</time></trkpt><trkpt lat="43.0229009" lon="12.9517703"><ele>983.0</ele><time>2026-04-24T12:56:17.991Z</time></trkpt><trkpt lat="43.0228216" lon="12.9515313"><ele>983.0</ele><time>2026-04-24T12:56:18.984Z</time></trkpt><trkpt lat="43.0227422" lon="12.9513206"><ele>976.25</ele><time>2026-04-24T12:56:19.989Z</time></trkpt><trkpt lat="43.0226543" lon="12.9511541"><ele>969.5</ele><time>2026-04-24T12:56:20.994Z</time></trkpt><trkpt lat="43.022552" lon="12.9510252"><ele>962.75</ele><time>2026-04-24T12:56:21.998Z</time></trkpt><trkpt lat="43.0224294" lon="12.9509451"><ele>956.0</ele><time>2026-04-24T12:56:22.985Z</time></trkpt><trkpt lat="43.0222677" lon="12.9509196"><ele>956.0</ele><time>2026-04-24T12:56:23.996Z</time></trkpt><trkpt lat="43.0220875" lon="12.9509314"><ele>956.0</ele><time>2026-04-24T12:56:24.994Z</time></trkpt><trkpt lat="43.0218893" lon="12.9509545"><ele>956.0</ele><time>2026-04-24T12:56:25.995Z</time></trkpt><trkpt lat="43.0216732" lon="12.9509719"><ele>950.5</ele><time>2026-04-24T12:56:26.994Z</time></trkpt><trkpt lat="43.0214435" lon="12.9509977"><ele>945.0</ele><time>2026-04-24T12:56:28.005Z</time></trkpt><trkpt lat="43.0212163" lon="12.9510318"><ele>945.0</ele><time>2026-04-24T12:56:28.997Z</time></trkpt><trkpt lat="43.0210015" lon="12.9510725"><ele>945.0</ele><time>2026-04-24T12:56:29.979Z</time></trkpt><trkpt lat="43.0208009" lon="12.9511281"><ele>945.0</ele><time>2026-04-24T12:56:31.002Z</time></trkpt><trkpt lat="43.0206152" lon="12.9511733"><ele>942.3333333333333</ele><time>2026-04-24T12:56:31.992Z</time></trkpt><trkpt lat="43.0204448" lon="12.9512134"><ele>939.6666666666666</ele><time>2026-04-24T12:56:32.995Z</time></trkpt><trkpt lat="43.0202925" lon="12.9512497"><ele>937.0</ele><time>2026-04-24T12:56:33.983Z</time></trkpt><trkpt lat="43.0201592" lon="12.9512718"><ele>936.9999999999999</ele><time>2026-04-24T12:56:34.985Z</time></trkpt><trkpt lat="43.0200416" lon="12.9512766"><ele>937.0</ele><time>2026-04-24T12:56:35.982Z</time></trkpt><trkpt lat="43.019954" lon="12.9512592"><ele>937.0</ele><time>2026-04-24T12:56:36.983Z</time></trkpt><trkpt lat="43.0198987" lon="12.9511957"><ele>937.0</ele><time>2026-04-24T12:56:37.987Z</time></trkpt><trkpt lat="43.0198794" lon="12.9510998"><ele>936.9999999999999</ele><time>2026-04-24T12:56:38.992Z</time></trkpt><trkpt lat="43.0199054" lon="12.9510081"><ele>937.0</ele><time>2026-04-24T12:56:39.988Z</time></trkpt><trkpt lat="43.0199816" lon="12.9509675"><ele>937.0</ele><time>2026-04-24T12:56:40.979Z</time></trkpt><trkpt lat="43.0200962" lon="12.9509605"><ele>937.0</ele><time>2026-04-24T12:56:41.984Z</time></trkpt><trkpt lat="43.0202335" lon="12.9509569"><ele>937.0</ele><time>2026-04-24T12:56:42.986Z</time></trkpt><trkpt lat="43.0203918" lon="12.9509131"><ele>937.0</ele><time>2026-04-24T12:56:43.977Z</time></trkpt><trkpt lat="43.0205631" lon="12.9508558"><ele>929.0</ele><time>2026-04-24T12:56:44.976Z</time></trkpt><trkpt lat="43.0207494" lon="12.9507669"><ele>921.0</ele><time>2026-04-24T12:56:45.983Z</time></trkpt><trkpt lat="43.0209419" lon="12.9506602"><ele>913.0</ele><time>2026-04-24T12:56:46.972Z</time></trkpt><trkpt lat="43.021122" lon="12.9505297"><ele>909.6666666666666</ele><time>2026-04-24T12:56:47.975Z</time></trkpt><trkpt lat="43.0212863" lon="12.950391"><ele>906.3333333333333</ele><time>2026-04-24T12:56:48.993Z</time></trkpt><trkpt lat="43.021426" lon="12.9502616"><ele>903.0</ele><time>2026-04-24T12:56:49.989Z</time></trkpt><trkpt lat="43.0215578" lon="12.9501704"><ele>907.0</ele><time>2026-04-24T12:56:51.005Z</time></trkpt><trkpt lat="43.0216912" lon="12.9501275"><ele>911.0</ele><time>2026-04-24T12:56:51.984Z</time></trkpt><trkpt lat="43.0218279" lon="12.950108"><ele>915.0</ele><time>2026-04-24T12:56:52.98Z</time></trkpt><trkpt lat="43.0219796" lon="12.9500701"><ele>919.0</ele><time>2026-04-24T12:56:53.987Z</time></trkpt><trkpt lat="43.0221439" lon="12.9499726"><ele>909.3333333333333</ele><time>2026-04-24T12:56:54.998Z</time></trkpt><trkpt lat="43.0223024" lon="12.9498312"><ele>899.6666666666667</ele><time>2026-04-24T12:56:55.983Z</time></trkpt><trkpt lat="43.0224598" lon="12.9496863"><ele>890.0</ele><time>2026-04-24T12:56:56.977Z</time></trkpt><trkpt lat="43.0225992" lon="12.9495474"><ele>890.0</ele><time>2026-04-24T12:56:57.989Z</time></trkpt><trkpt lat="43.0227455" lon="12.9494271"><ele>890.0</ele><time>2026-04-24T12:56:58.983Z</time></trkpt><trkpt lat="43.0228729" lon="12.9493286"><ele>890.0</ele><time>2026-04-24T12:56:59.982Z</time></trkpt><trkpt lat="43.0229865" lon="12.9492579"><ele>890.0</ele><time>2026-04-24T12:57:00.995Z</time></trkpt><trkpt lat="43.0230858" lon="12.9492341"><ele>890.0</ele><time>2026-04-24T12:57:01.988Z</time></trkpt><trkpt lat="43.0231589" lon="12.9492821"><ele>890.0</ele><time>2026-04-24T12:57:02.988Z</time></trkpt><trkpt lat="43.0232464" lon="12.9493918"><ele>890.0</ele><time>2026-04-24T12:57:03.982Z</time></trkpt><trkpt lat="43.0233299" lon="12.9495294"><ele>890.0</ele><time>2026-04-24T12:57:05.001Z</time></trkpt><trkpt lat="43.0234304" lon="12.9496812"><ele>888.8</ele><time>2026-04-24T12:57:05.989Z</time></trkpt><trkpt lat="43.0235273" lon="12.9498262"><ele>887.6</ele><time>2026-04-24T12:57:06.994Z</time></trkpt><trkpt lat="43.0236165" lon="12.9499521"><ele>886.4000000000001</ele><time>2026-04-24T12:57:07.985Z</time></trkpt><trkpt lat="43.0236971" lon="12.9500385"><ele>885.2</ele><time>2026-04-24T12:57:09.003Z</time></trkpt><trkpt lat="43.0237595" lon="12.9500771"><ele>884.0</ele><time>2026-04-24T12:57:10.004Z</time></trkpt><trkpt lat="43.0238524" lon="12.9500782"><ele>884.0</ele><time>2026-04-24T12:57:11.986Z</time></trkpt><trkpt lat="43.0238727" lon="12.9499848"><ele>884.0000000000001</ele><time>2026-04-24T12:57:14.99Z</time></trkpt><trkpt lat="43.0238209" lon="12.9498193"><ele>884.0000000000001</ele><time>2026-04-24T12:57:16.995Z</time></trkpt><trkpt lat="43.0237886" lon="12.9497078"><ele>884.0</ele><time>2026-04-24T12:57:17.994Z</time></trkpt><trkpt lat="43.0237529" lon="12.9495831"><ele>884.0</ele><time>2026-04-24T12:57:18.984Z</time></trkpt><trkpt lat="43.0237158" lon="12.9494297"><ele>884.0</ele><time>2026-04-24T12:57:19.983Z</time></trkpt><trkpt lat="43.0236694" lon="12.9492655"><ele>884.0</ele><time>2026-04-24T12:57:20.993Z</time></trkpt><trkpt lat="43.0236188" lon="12.9490769"><ele>884.0</ele><time>2026-04-24T12:57:21.998Z</time></trkpt><trkpt lat="43.0235666" lon="12.9488779"><ele>884.0</ele><time>2026-04-24T12:57:22.985Z</time></trkpt><trkpt lat="43.0235323" lon="12.9486817"><ele>880.0</ele><time>2026-04-24T12:57:23.995Z</time></trkpt><trkpt lat="43.0235236" lon="12.9484957"><ele>876.0</ele><time>2026-04-24T12:57:25.009Z</time></trkpt><trkpt lat="43.023554" lon="12.948313"><ele>872.0</ele><time>2026-04-24T12:57:25.987Z</time></trkpt><trkpt lat="43.0236235" lon="12.9481468"><ele>868.0</ele><time>2026-04-24T12:57:26.986Z</time></trkpt><trkpt lat="43.0237179" lon="12.9479669"><ele>865.3333333333333</ele><time>2026-04-24T12:57:28.007Z</time></trkpt><trkpt lat="43.0238056" lon="12.9477628"><ele>862.6666666666667</ele><time>2026-04-24T12:57:28.996Z</time></trkpt><trkpt lat="43.0238623" lon="12.9475288"><ele>860.0</ele><time>2026-04-24T12:57:29.989Z</time></trkpt><trkpt lat="43.0238944" lon="12.9472646"><ele>855.0</ele><time>2026-04-24T12:57:30.985Z</time></trkpt><trkpt lat="43.0239217" lon="12.9469887"><ele>850.0</ele><time>2026-04-24T12:57:31.994Z</time></trkpt><trkpt lat="43.023975" lon="12.9467027"><ele>845.0</ele><time>2026-04-24T12:57:32.993Z</time></trkpt><trkpt lat="43.0240486" lon="12.9464156"><ele>845.3333333333334</ele><time>2026-04-24T12:57:34Z</time></trkpt><trkpt lat="43.0241263" lon="12.946149"><ele>845.6666666666667</ele><time>2026-04-24T12:57:35.005Z</time></trkpt><trkpt lat="43.024211" lon="12.9458889"><ele>846.0</ele><time>2026-04-24T12:57:35.983Z</time></trkpt><trkpt lat="43.0242948" lon="12.945632"><ele>846.0</ele><time>2026-04-24T12:57:37Z</time></trkpt><trkpt lat="43.0243562" lon="12.9453718"><ele>846.0</ele><time>2026-04-24T12:57:38Z</time></trkpt><trkpt lat="43.0244032" lon="12.9451174"><ele>846.0</ele><time>2026-04-24T12:57:38.992Z</time></trkpt><trkpt lat="43.0244377" lon="12.9448695"><ele>842.6666666666667</ele><time>2026-04-24T12:57:40.001Z</time></trkpt><trkpt lat="43.0244694" lon="12.9446246"><ele>839.3333333333334</ele><time>2026-04-24T12:57:40.989Z</time></trkpt><trkpt lat="43.0245066" lon="12.9443804"><ele>836.0</ele><time>2026-04-24T12:57:42.01Z</time></trkpt><trkpt lat="43.0245655" lon="12.9441485"><ele>833.3333333333334</ele><time>2026-04-24T12:57:43.006Z</time></trkpt><trkpt lat="43.0246373" lon="12.9439224"><ele>830.6666666666667</ele><time>2026-04-24T12:57:43.978Z</time></trkpt><trkpt lat="43.0247281" lon="12.9436948"><ele>828.0</ele><time>2026-04-24T12:57:44.977Z</time></trkpt><trkpt lat="43.0248371" lon="12.943467"><ele>826.0</ele><time>2026-04-24T12:57:46.001Z</time></trkpt><trkpt lat="43.0249474" lon="12.9432364"><ele>824.0</ele><time>2026-04-24T12:57:47.002Z</time></trkpt><trkpt lat="43.0250499" lon="12.9429907"><ele>822.0</ele><time>2026-04-24T12:57:47.984Z</time></trkpt><trkpt lat="43.0251383" lon="12.9427329"><ele>822.0</ele><time>2026-04-24T12:57:48.978Z</time></trkpt><trkpt lat="43.0252111" lon="12.9424775"><ele>822.0</ele><time>2026-04-24T12:57:49.971Z</time></trkpt><trkpt lat="43.0252872" lon="12.9422375"><ele>822.0</ele><time>2026-04-24T12:57:50.997Z</time></trkpt><trkpt lat="43.0253799" lon="12.9420358"><ele>822.0</ele><time>2026-04-24T12:57:52.002Z</time></trkpt><trkpt lat="43.0255017" lon="12.9418645"><ele>822.0</ele><time>2026-04-24T12:57:52.987Z</time></trkpt><trkpt lat="43.0256474" lon="12.9417077"><ele>822.0</ele><time>2026-04-24T12:57:53.989Z</time></trkpt><trkpt lat="43.0257962" lon="12.9415366"><ele>823.3333333333333</ele><time>2026-04-24T12:57:54.983Z</time></trkpt><trkpt lat="43.0259287" lon="12.9413547"><ele>824.6666666666666</ele><time>2026-04-24T12:57:56.015Z</time></trkpt><trkpt lat="43.0260467" lon="12.9411543"><ele>826.0</ele><time>2026-04-24T12:57:56.984Z</time></trkpt><trkpt lat="43.0261372" lon="12.9409328"><ele>820.6666666666666</ele><time>2026-04-24T12:57:57.992Z</time></trkpt><trkpt lat="43.0261703" lon="12.9406726"><ele>815.3333333333333</ele><time>2026-04-24T12:57:59.004Z</time></trkpt><trkpt lat="43.0261741" lon="12.9404016"><ele>810.0</ele><time>2026-04-24T12:57:59.984Z</time></trkpt><trkpt lat="43.026183" lon="12.940111"><ele>808.0</ele><time>2026-04-24T12:58:00.974Z</time></trkpt><trkpt lat="43.0262333" lon="12.939811"><ele>806.0</ele><time>2026-04-24T12:58:01.984Z</time></trkpt><trkpt lat="43.0263149" lon="12.9395426"><ele>804.0</ele><time>2026-04-24T12:58:02.988Z</time></trkpt><trkpt lat="43.0264263" lon="12.9392603"><ele>805.0</ele><time>2026-04-24T12:58:03.981Z</time></trkpt><trkpt lat="43.0265553" lon="12.9389934"><ele>806.0</ele><time>2026-04-24T12:58:04.974Z</time></trkpt><trkpt lat="43.0266775" lon="12.9387413"><ele>807.0</ele><time>2026-04-24T12:58:06Z</time></trkpt><trkpt lat="43.0267676" lon="12.9384911"><ele>808.0</ele><time>2026-04-24T12:58:06.998Z</time></trkpt><trkpt lat="43.0268157" lon="12.9382552"><ele>809.0</ele><time>2026-04-24T12:58:08.002Z</time></trkpt><trkpt lat="43.0268468" lon="12.9380586"><ele>809.0</ele><time>2026-04-24T12:58:08.99Z</time></trkpt><trkpt lat="43.0268763" lon="12.937877"><ele>809.0</ele><time>2026-04-24T12:58:09.993Z</time></trkpt><trkpt lat="43.0268989" lon="12.9377215"><ele>809.0</ele><time>2026-04-24T12:58:10.985Z</time></trkpt><trkpt lat="43.0269003" lon="12.9375981"><ele>809.0</ele><time>2026-04-24T12:58:12.017Z</time></trkpt><trkpt lat="43.026866" lon="12.937511"><ele>809.0</ele><time>2026-04-24T12:58:12.981Z</time></trkpt><trkpt lat="43.0267984" lon="12.937483"><ele>809.4000000000001</ele><time>2026-04-24T12:58:13.976Z</time></trkpt><trkpt lat="43.0267121" lon="12.9374913"><ele>809.8</ele><time>2026-04-24T12:58:15.005Z</time></trkpt><trkpt lat="43.0266158" lon="12.9375437"><ele>810.2</ele><time>2026-04-24T12:58:15.986Z</time></trkpt><trkpt lat="43.0265011" lon="12.9376108"><ele>810.5999999999999</ele><time>2026-04-24T12:58:16.995Z</time></trkpt><trkpt lat="43.0263759" lon="12.9376784"><ele>811.0</ele><time>2026-04-24T12:58:17.99Z</time></trkpt><trkpt lat="43.0262371" lon="12.9377729"><ele>811.0</ele><time>2026-04-24T12:58:18.984Z</time></trkpt><trkpt lat="43.0261019" lon="12.937877"><ele>811.0</ele><time>2026-04-24T12:58:20.01Z</time></trkpt><trkpt lat="43.0259898" lon="12.9379651"><ele>811.0</ele><time>2026-04-24T12:58:20.987Z</time></trkpt><trkpt lat="43.0258825" lon="12.9380075"><ele>811.0</ele><time>2026-04-24T12:58:22.009Z</time></trkpt><trkpt lat="43.0257765" lon="12.9379801"><ele>814.3333333333333</ele><time>2026-04-24T12:58:23.003Z</time></trkpt><trkpt lat="43.0256614" lon="12.9378801"><ele>817.6666666666667</ele><time>2026-04-24T12:58:23.985Z</time></trkpt><trkpt lat="43.0255264" lon="12.9377431"><ele>821.0</ele><time>2026-04-24T12:58:24.98Z</time></trkpt><trkpt lat="43.0253929" lon="12.9375999"><ele>823.0</ele><time>2026-04-24T12:58:25.985Z</time></trkpt><trkpt lat="43.02527" lon="12.9374339"><ele>825.0</ele><time>2026-04-24T12:58:26.991Z</time></trkpt><trkpt lat="43.0251583" lon="12.9372431"><ele>827.0</ele><time>2026-04-24T12:58:27.978Z</time></trkpt><trkpt lat="43.0250637" lon="12.9370376"><ele>827.0</ele><time>2026-04-24T12:58:28.985Z</time></trkpt><trkpt lat="43.024995" lon="12.936832"><ele>827.0</ele><time>2026-04-24T12:58:29.988Z</time></trkpt><trkpt lat="43.0249425" lon="12.9366024"><ele>827.0</ele><time>2026-04-24T12:58:30.985Z</time></trkpt><trkpt lat="43.0248794" lon="12.9363649"><ele>828.3333333333334</ele><time>2026-04-24T12:58:31.986Z</time></trkpt><trkpt lat="43.0247848" lon="12.9361181"><ele>829.6666666666667</ele><time>2026-04-24T12:58:32.992Z</time></trkpt><trkpt lat="43.0246598" lon="12.9358768"><ele>831.0</ele><time>2026-04-24T12:58:33.988Z</time></trkpt><trkpt lat="43.0245174" lon="12.9356422"><ele>831.0</ele><time>2026-04-24T12:58:34.992Z</time></trkpt><trkpt lat="43.0243967" lon="12.9354271"><ele>831.0</ele><time>2026-04-24T12:58:35.982Z</time></trkpt><trkpt lat="43.0242846" lon="12.9352441"><ele>831.0</ele><time>2026-04-24T12:58:36.989Z</time></trkpt><trkpt lat="43.0241605" lon="12.9350824"><ele>832.6666666666667</ele><time>2026-04-24T12:58:38.012Z</time></trkpt><trkpt lat="43.0240185" lon="12.9349438"><ele>834.3333333333334</ele><time>2026-04-24T12:58:38.991Z</time></trkpt><trkpt lat="43.0238692" lon="12.9348114"><ele>836.0</ele><time>2026-04-24T12:58:39.991Z</time></trkpt><trkpt lat="43.0237238" lon="12.9346722"><ele>836.0</ele><time>2026-04-24T12:58:40.992Z</time></trkpt><trkpt lat="43.0235904" lon="12.9345375"><ele>836.0</ele><time>2026-04-24T12:58:42.012Z</time></trkpt><trkpt lat="43.0234743" lon="12.9344198"><ele>836.0</ele><time>2026-04-24T12:58:42.992Z</time></trkpt><trkpt lat="43.0233678" lon="12.9343118"><ele>836.0</ele><time>2026-04-24T12:58:43.991Z</time></trkpt><trkpt lat="43.023262" lon="12.9342525"><ele>838.5</ele><time>2026-04-24T12:58:44.978Z</time></trkpt><trkpt lat="43.0231619" lon="12.934259"><ele>841.0</ele><time>2026-04-24T12:58:46.005Z</time></trkpt><trkpt lat="43.0230344" lon="12.9343175"><ele>843.5</ele><time>2026-04-24T12:58:46.989Z</time></trkpt><trkpt lat="43.0229108" lon="12.9343781"><ele>846.0</ele><time>2026-04-24T12:58:47.998Z</time></trkpt><trkpt lat="43.0228086" lon="12.9344418"><ele>846.0</ele><time>2026-04-24T12:58:48.999Z</time></trkpt><trkpt lat="43.0227178" lon="12.9344852"><ele>846.0</ele><time>2026-04-24T12:58:50.008Z</time></trkpt><trkpt lat="43.0226294" lon="12.9345131"><ele>846.0</ele><time>2026-04-24T12:58:50.994Z</time></trkpt><trkpt lat="43.0225588" lon="12.9345193"><ele>846.0</ele><time>2026-04-24T12:58:52.006Z</time></trkpt><trkpt lat="43.0224866" lon="12.934494"><ele>846.0</ele><time>2026-04-24T12:58:53.009Z</time></trkpt><trkpt lat="43.0224334" lon="12.9344475"><ele>846.0</ele><time>2026-04-24T12:58:53.986Z</time></trkpt><trkpt lat="43.0223698" lon="12.934286"><ele>847.5999999999999</ele><time>2026-04-24T12:58:55.992Z</time></trkpt><trkpt lat="43.0223482" lon="12.9341635"><ele>849.2</ele><time>2026-04-24T12:58:56.998Z</time></trkpt><trkpt lat="43.022317" lon="12.9340333"><ele>850.8000000000001</ele><time>2026-04-24T12:58:57.981Z</time></trkpt><trkpt lat="43.0222811" lon="12.9338894"><ele>852.4000000000001</ele><time>2026-04-24T12:58:59.003Z</time></trkpt><trkpt lat="43.0222416" lon="12.933743"><ele>854.0</ele><time>2026-04-24T12:58:59.987Z</time></trkpt><trkpt lat="43.0221988" lon="12.9335903"><ele>854.0</ele><time>2026-04-24T12:59:00.977Z</time></trkpt><trkpt lat="43.0221578" lon="12.9334467"><ele>854.0000000000001</ele><time>2026-04-24T12:59:01.99Z</time></trkpt><trkpt lat="43.0221205" lon="12.9333105"><ele>854.0000000000001</ele><time>2026-04-24T12:59:02.988Z</time></trkpt><trkpt lat="43.0220928" lon="12.933193"><ele>854.0</ele><time>2026-04-24T12:59:03.985Z</time></trkpt><trkpt lat="43.0220773" lon="12.9330843"><ele>854.0</ele><time>2026-04-24T12:59:05.003Z</time></trkpt><trkpt lat="43.0220889" lon="12.9329892"><ele>855.4000000000001</ele><time>2026-04-24T12:59:05.991Z</time></trkpt><trkpt lat="43.0221284" lon="12.9328835"><ele>856.8000000000001</ele><time>2026-04-24T12:59:06.997Z</time></trkpt><trkpt lat="43.0221665" lon="12.9327601"><ele>858.1999999999999</ele><time>2026-04-24T12:59:07.982Z</time></trkpt><trkpt lat="43.0222148" lon="12.9326382"><ele>859.5999999999999</ele><time>2026-04-24T12:59:09.012Z</time></trkpt><trkpt lat="43.0222739" lon="12.9325155"><ele>861.0</ele><time>2026-04-24T12:59:09.981Z</time></trkpt><trkpt lat="43.0223439" lon="12.9323838"><ele>861.3333333333333</ele><time>2026-04-24T12:59:10.98Z</time></trkpt><trkpt lat="43.0224185" lon="12.9322501"><ele>861.6666666666666</ele><time>2026-04-24T12:59:11.969Z</time></trkpt><trkpt lat="43.0224956" lon="12.93212"><ele>862.0</ele><time>2026-04-24T12:59:12.98Z</time></trkpt><trkpt lat="43.0226745" lon="12.9317192"><ele>859.5</ele><time>2026-04-24T12:59:15.987Z</time></trkpt><trkpt lat="43.0227094" lon="12.9315637"><ele>857.0</ele><time>2026-04-24T12:59:17Z</time></trkpt><trkpt lat="43.022739" lon="12.9314141"><ele>854.5</ele><time>2026-04-24T12:59:17.996Z</time></trkpt><trkpt lat="43.0227741" lon="12.9312652"><ele>852.0</ele><time>2026-04-24T12:59:18.999Z</time></trkpt><trkpt lat="43.0228182" lon="12.9311107"><ele>852.0</ele><time>2026-04-24T12:59:20.002Z</time></trkpt><trkpt lat="43.0228559" lon="12.9309748"><ele>852.0</ele><time>2026-04-24T12:59:20.974Z</time></trkpt><trkpt lat="43.0228841" lon="12.9308535"><ele>852.0</ele><time>2026-04-24T12:59:21.997Z</time></trkpt><trkpt lat="43.0228951" lon="12.9307229"><ele>852.0</ele><time>2026-04-24T12:59:22.984Z</time></trkpt><trkpt lat="43.0228986" lon="12.930592"><ele>852.0</ele><time>2026-04-24T12:59:23.984Z</time></trkpt><trkpt lat="43.0229" lon="12.9304426"><ele>852.0</ele><time>2026-04-24T12:59:24.988Z</time></trkpt><trkpt lat="43.0228957" lon="12.9302882"><ele>852.0</ele><time>2026-04-24T12:59:25.99Z</time></trkpt><trkpt lat="43.02289" lon="12.9301519"><ele>852.0</ele><time>2026-04-24T12:59:26.993Z</time></trkpt><trkpt lat="43.0228843" lon="12.9300088"><ele>852.0</ele><time>2026-04-24T12:59:28.008Z</time></trkpt><trkpt lat="43.0228801" lon="12.9298632"><ele>852.0</ele><time>2026-04-24T12:59:28.992Z</time></trkpt><trkpt lat="43.0228797" lon="12.9297341"><ele>852.2</ele><time>2026-04-24T12:59:29.988Z</time></trkpt><trkpt lat="43.0228842" lon="12.9296217"><ele>852.4000000000001</ele><time>2026-04-24T12:59:30.994Z</time></trkpt><trkpt lat="43.0228887" lon="12.929523"><ele>852.5999999999999</ele><time>2026-04-24T12:59:32.006Z</time></trkpt><trkpt lat="43.0229719" lon="12.929391"><ele>852.8</ele><time>2026-04-24T12:59:33.994Z</time></trkpt><trkpt lat="43.0230423" lon="12.9293467"><ele>853.0</ele><time>2026-04-24T12:59:34.99Z</time></trkpt><trkpt lat="43.02313" lon="12.929314"><ele>853.0</ele><time>2026-04-24T12:59:35.991Z</time></trkpt><trkpt lat="43.0232211" lon="12.9292529"><ele>853.0</ele><time>2026-04-24T12:59:36.987Z</time></trkpt><trkpt lat="43.0232989" lon="12.9291685"><ele>853.0</ele><time>2026-04-24T12:59:37.99Z</time></trkpt><trkpt lat="43.0233749" lon="12.929073"><ele>853.0</ele><time>2026-04-24T12:59:39.002Z</time></trkpt><trkpt lat="43.0234352" lon="12.9289719"><ele>853.0</ele><time>2026-04-24T12:59:40.011Z</time></trkpt><trkpt lat="43.0234856" lon="12.9288702"><ele>852.6666666666666</ele><time>2026-04-24T12:59:40.972Z</time></trkpt><trkpt lat="43.0235444" lon="12.928765"><ele>852.3333333333333</ele><time>2026-04-24T12:59:41.987Z</time></trkpt><trkpt lat="43.0236043" lon="12.928674"><ele>852.0</ele><time>2026-04-24T12:59:42.996Z</time></trkpt><trkpt lat="43.0236508" lon="12.9286021"><ele>851.6666666666667</ele><time>2026-04-24T12:59:43.992Z</time></trkpt><trkpt lat="43.0236961" lon="12.928523"><ele>851.3333333333334</ele><time>2026-04-24T12:59:44.981Z</time></trkpt><trkpt lat="43.0237396" lon="12.9284492"><ele>851.0</ele><time>2026-04-24T12:59:45.982Z</time></trkpt><trkpt lat="43.0237883" lon="12.9283603"><ele>851.0000000000001</ele><time>2026-04-24T12:59:47.004Z</time></trkpt><trkpt lat="43.0238402" lon="12.9282822"><ele>851.0</ele><time>2026-04-24T12:59:48.001Z</time></trkpt><trkpt lat="43.0239035" lon="12.9281548"><ele>851.0</ele><time>2026-04-24T12:59:49.998Z</time></trkpt><trkpt lat="43.0239431" lon="12.9280634"><ele>851.0</ele><time>2026-04-24T12:59:51.99Z</time></trkpt><trkpt lat="43.0240004" lon="12.927991"><ele>851.0000000000001</ele><time>2026-04-24T12:59:53.983Z</time></trkpt><trkpt lat="43.0240511" lon="12.9279128"><ele>851.0</ele><time>2026-04-24T12:59:54.992Z</time></trkpt><trkpt lat="43.0240978" lon="12.9278295"><ele>851.0000000000001</ele><time>2026-04-24T12:59:56.015Z</time></trkpt><trkpt lat="43.0241426" lon="12.9277428"><ele>851.0</ele><time>2026-04-24T12:59:56.989Z</time></trkpt><trkpt lat="43.024183" lon="12.9276628"><ele>851.0</ele><time>2026-04-24T12:59:58.002Z</time></trkpt><trkpt lat="43.0241678" lon="12.9275046"><ele>851.0</ele><time>2026-04-24T13:00:00.011Z</time></trkpt><trkpt lat="43.0241037" lon="12.9274311"><ele>851.0000000000001</ele><time>2026-04-24T13:00:00.98Z</time></trkpt><trkpt lat="43.0240282" lon="12.9273541"><ele>851.0</ele><time>2026-04-24T13:00:01.996Z</time></trkpt><trkpt lat="43.0239413" lon="12.9272526"><ele>851.25</ele><time>2026-04-24T13:00:03.008Z</time></trkpt><trkpt lat="43.0238499" lon="12.927156"><ele>851.5</ele><time>2026-04-24T13:00:03.986Z</time></trkpt><trkpt lat="43.0237531" lon="12.9270583"><ele>851.75</ele><time>2026-04-24T13:00:04.994Z</time></trkpt><trkpt lat="43.0236488" lon="12.9269719"><ele>852.0</ele><time>2026-04-24T13:00:06Z</time></trkpt><trkpt lat="43.0235319" lon="12.9269041"><ele>852.0</ele><time>2026-04-24T13:00:07.006Z</time></trkpt><trkpt lat="43.0234076" lon="12.9268392"><ele>852.0</ele><time>2026-04-24T13:00:07.977Z</time></trkpt><trkpt lat="43.0232774" lon="12.9267756"><ele>852.0</ele><time>2026-04-24T13:00:09.011Z</time></trkpt><trkpt lat="43.0231268" lon="12.926715"><ele>852.0</ele><time>2026-04-24T13:00:09.994Z</time></trkpt><trkpt lat="43.022969" lon="12.9266528"><ele>853.25</ele><time>2026-04-24T13:00:10.989Z</time></trkpt><trkpt lat="43.02282" lon="12.9265856"><ele>854.5</ele><time>2026-04-24T13:00:11.99Z</time></trkpt><trkpt lat="43.0226928" lon="12.9265266"><ele>855.75</ele><time>2026-04-24T13:00:12.998Z</time></trkpt><trkpt lat="43.0225656" lon="12.9264561"><ele>857.0</ele><time>2026-04-24T13:00:14.006Z</time></trkpt><trkpt lat="43.0224443" lon="12.9263868"><ele>857.6</ele><time>2026-04-24T13:00:14.982Z</time></trkpt><trkpt lat="43.022329" lon="12.9263297"><ele>858.2</ele><time>2026-04-24T13:00:15.998Z</time></trkpt><trkpt lat="43.022219" lon="12.9262933"><ele>858.8</ele><time>2026-04-24T13:00:16.994Z</time></trkpt><trkpt lat="43.0221235" lon="12.9262744"><ele>859.4</ele><time>2026-04-24T13:00:18.002Z</time></trkpt><trkpt lat="43.0220354" lon="12.9262662"><ele>860.0</ele><time>2026-04-24T13:00:18.998Z</time></trkpt><trkpt lat="43.0219703" lon="12.9262695"><ele>860.0000000000001</ele><time>2026-04-24T13:00:19.99Z</time></trkpt><trkpt lat="43.0219012" lon="12.9262316"><ele>860.0</ele><time>2026-04-24T13:00:22.001Z</time></trkpt><trkpt lat="43.0219084" lon="12.9261172"><ele>860.0</ele><time>2026-04-24T13:00:23.986Z</time></trkpt><trkpt lat="43.0219456" lon="12.9260415"><ele>860.0</ele><time>2026-04-24T13:00:25.008Z</time></trkpt><trkpt lat="43.0219851" lon="12.9259529"><ele>860.0000000000001</ele><time>2026-04-24T13:00:25.993Z</time></trkpt><trkpt lat="43.0220246" lon="12.9258468"><ele>860.0</ele><time>2026-04-24T13:00:26.996Z</time></trkpt><trkpt lat="43.0220522" lon="12.9257332"><ele>858.2</ele><time>2026-04-24T13:00:27.998Z</time></trkpt><trkpt lat="43.0220801" lon="12.9256064"><ele>856.4</ele><time>2026-04-24T13:00:29.011Z</time></trkpt><trkpt lat="43.0221048" lon="12.9254797"><ele>854.5999999999999</ele><time>2026-04-24T13:00:29.981Z</time></trkpt><trkpt lat="43.0221271" lon="12.9253476"><ele>852.8</ele><time>2026-04-24T13:00:30.994Z</time></trkpt><trkpt lat="43.0221532" lon="12.9252031"><ele>851.0</ele><time>2026-04-24T13:00:31.998Z</time></trkpt><trkpt lat="43.0221819" lon="12.9250501"><ele>849.75</ele><time>2026-04-24T13:00:32.999Z</time></trkpt><trkpt lat="43.0222122" lon="12.9248804"><ele>848.5</ele><time>2026-04-24T13:00:33.988Z</time></trkpt><trkpt lat="43.0222508" lon="12.9247003"><ele>847.25</ele><time>2026-04-24T13:00:34.989Z</time></trkpt><trkpt lat="43.0222838" lon="12.9245171"><ele>846.0</ele><time>2026-04-24T13:00:36.006Z</time></trkpt><trkpt lat="43.0223051" lon="12.9243304"><ele>845.25</ele><time>2026-04-24T13:00:36.998Z</time></trkpt><trkpt lat="43.022319" lon="12.9241317"><ele>844.5</ele><time>2026-04-24T13:00:37.987Z</time></trkpt><trkpt lat="43.0223289" lon="12.9239319"><ele>843.75</ele><time>2026-04-24T13:00:39.011Z</time></trkpt><trkpt lat="43.0223368" lon="12.9237335"><ele>843.0</ele><time>2026-04-24T13:00:39.994Z</time></trkpt><trkpt lat="43.0223543" lon="12.9235304"><ele>842.0</ele><time>2026-04-24T13:00:41.012Z</time></trkpt><trkpt lat="43.0223855" lon="12.9233351"><ele>841.0</ele><time>2026-04-24T13:00:41.986Z</time></trkpt><trkpt lat="43.0224276" lon="12.9231393"><ele>840.0</ele><time>2026-04-24T13:00:43.001Z</time></trkpt><trkpt lat="43.0224837" lon="12.9229364"><ele>833.3333333333333</ele><time>2026-04-24T13:00:43.993Z</time></trkpt><trkpt lat="43.0225593" lon="12.922732"><ele>826.6666666666666</ele><time>2026-04-24T13:00:44.983Z</time></trkpt><trkpt lat="43.0226554" lon="12.9225229"><ele>820.0</ele><time>2026-04-24T13:00:45.988Z</time></trkpt><trkpt lat="43.0227572" lon="12.9223201"><ele>819.6666666666666</ele><time>2026-04-24T13:00:46.972Z</time></trkpt><trkpt lat="43.0228645" lon="12.9221365"><ele>819.3333333333333</ele><time>2026-04-24T13:00:47.994Z</time></trkpt><trkpt lat="43.0229719" lon="12.9219578"><ele>819.0</ele><time>2026-04-24T13:00:49.013Z</time></trkpt><trkpt lat="43.0230774" lon="12.9217889"><ele>817.6666666666667</ele><time>2026-04-24T13:00:49.998Z</time></trkpt><trkpt lat="43.0231813" lon="12.9216144"><ele>816.3333333333334</ele><time>2026-04-24T13:00:50.976Z</time></trkpt><trkpt lat="43.0232807" lon="12.9214011"><ele>815.0</ele><time>2026-04-24T13:00:51.994Z</time></trkpt><trkpt lat="43.023376" lon="12.9211805"><ele>809.6666666666667</ele><time>2026-04-24T13:00:52.996Z</time></trkpt><trkpt lat="43.0234651" lon="12.920964"><ele>804.3333333333333</ele><time>2026-04-24T13:00:54.01Z</time></trkpt><trkpt lat="43.0235578" lon="12.9207504"><ele>799.0</ele><time>2026-04-24T13:00:54.997Z</time></trkpt><trkpt lat="43.0236579" lon="12.9205334"><ele>799.0</ele><time>2026-04-24T13:00:55.995Z</time></trkpt><trkpt lat="43.0237607" lon="12.9203172"><ele>799.0</ele><time>2026-04-24T13:00:56.994Z</time></trkpt><trkpt lat="43.0238651" lon="12.9201074"><ele>799.0</ele><time>2026-04-24T13:00:58.018Z</time></trkpt><trkpt lat="43.0239734" lon="12.9198949"><ele>795.0</ele><time>2026-04-24T13:00:58.999Z</time></trkpt><trkpt lat="43.0240839" lon="12.9197042"><ele>791.0</ele><time>2026-04-24T13:00:59.99Z</time></trkpt><trkpt lat="43.0241897" lon="12.9195226"><ele>787.0</ele><time>2026-04-24T13:01:01.003Z</time></trkpt><trkpt lat="43.0242952" lon="12.9193532"><ele>784.25</ele><time>2026-04-24T13:01:02.009Z</time></trkpt><trkpt lat="43.0243958" lon="12.9191933"><ele>781.5</ele><time>2026-04-24T13:01:02.997Z</time></trkpt><trkpt lat="43.0244956" lon="12.9190603"><ele>778.75</ele><time>2026-04-24T13:01:03.993Z</time></trkpt><trkpt lat="43.0246104" lon="12.9189672"><ele>776.0</ele><time>2026-04-24T13:01:04.994Z</time></trkpt><trkpt lat="43.0247427" lon="12.9189168"><ele>776.0</ele><time>2026-04-24T13:01:06.002Z</time></trkpt><trkpt lat="43.024889" lon="12.9188999"><ele>776.0</ele><time>2026-04-24T13:01:06.992Z</time></trkpt><trkpt lat="43.0250394" lon="12.9189005"><ele>776.0</ele><time>2026-04-24T13:01:07.999Z</time></trkpt><trkpt lat="43.0251784" lon="12.9189081"><ele>776.0</ele><time>2026-04-24T13:01:09.007Z</time></trkpt><trkpt lat="43.0253147" lon="12.9189501"><ele>774.5</ele><time>2026-04-24T13:01:10.021Z</time></trkpt><trkpt lat="43.0254443" lon="12.9190165"><ele>773.0</ele><time>2026-04-24T13:01:10.978Z</time></trkpt><trkpt lat="43.0255642" lon="12.9190816"><ele>771.5</ele><time>2026-04-24T13:01:11.998Z</time></trkpt><trkpt lat="43.0256777" lon="12.9191091"><ele>770.0</ele><time>2026-04-24T13:01:13.016Z</time></trkpt><trkpt lat="43.0258028" lon="12.9190709"><ele>770.3333333333334</ele><time>2026-04-24T13:01:13.987Z</time></trkpt><trkpt lat="43.0259579" lon="12.9189791"><ele>770.6666666666667</ele><time>2026-04-24T13:01:15.002Z</time></trkpt><trkpt lat="43.0260962" lon="12.9188584"><ele>771.0</ele><time>2026-04-24T13:01:15.979Z</time></trkpt><trkpt lat="43.0267398" lon="12.9186633"><ele>769.6666666666666</ele><time>2026-04-24T13:01:19.98Z</time></trkpt><trkpt lat="43.0268975" lon="12.9187048"><ele>768.3333333333333</ele><time>2026-04-24T13:01:20.982Z</time></trkpt><trkpt lat="43.0270512" lon="12.9187134"><ele>767.0</ele><time>2026-04-24T13:01:21.975Z</time></trkpt><trkpt lat="43.0272111" lon="12.9186658"><ele>767.0</ele><time>2026-04-24T13:01:23.009Z</time></trkpt><trkpt lat="43.0273826" lon="12.9185973"><ele>767.0</ele><time>2026-04-24T13:01:23.987Z</time></trkpt><trkpt lat="43.0275394" lon="12.9185202"><ele>767.0</ele><time>2026-04-24T13:01:24.994Z</time></trkpt><trkpt lat="43.0276886" lon="12.9184462"><ele>766.25</ele><time>2026-04-24T13:01:25.992Z</time></trkpt><trkpt lat="43.0278291" lon="12.918375"><ele>765.5</ele><time>2026-04-24T13:01:26.999Z</time></trkpt><trkpt lat="43.0279618" lon="12.9183186"><ele>764.75</ele><time>2026-04-24T13:01:27.986Z</time></trkpt><trkpt lat="43.028093" lon="12.9182608"><ele>764.0</ele><time>2026-04-24T13:01:29.007Z</time></trkpt><trkpt lat="43.0282171" lon="12.9181985"><ele>763.6</ele><time>2026-04-24T13:01:30.006Z</time></trkpt><trkpt lat="43.0283339" lon="12.9181349"><ele>763.2</ele><time>2026-04-24T13:01:30.974Z</time></trkpt><trkpt lat="43.0284296" lon="12.9180837"><ele>762.8000000000001</ele><time>2026-04-24T13:01:31.975Z</time></trkpt><trkpt lat="43.0285026" lon="12.9180339"><ele>762.4000000000001</ele><time>2026-04-24T13:01:33.002Z</time></trkpt><trkpt lat="43.0285729" lon="12.917985"><ele>762.0</ele><time>2026-04-24T13:01:34.981Z</time></trkpt><trkpt lat="43.0285713" lon="12.9178691"><ele>762.0</ele><time>2026-04-24T13:01:37.984Z</time></trkpt><trkpt lat="43.0285401" lon="12.9177806"><ele>762.0</ele><time>2026-04-24T13:01:38.996Z</time></trkpt><trkpt lat="43.0284976" lon="12.9176754"><ele>762.0</ele><time>2026-04-24T13:01:39.997Z</time></trkpt><trkpt lat="43.0284494" lon="12.9175516"><ele>762.0</ele><time>2026-04-24T13:01:40.979Z</time></trkpt><trkpt lat="43.0284043" lon="12.9173999"><ele>762.0</ele><time>2026-04-24T13:01:41.988Z</time></trkpt><trkpt lat="43.0283657" lon="12.9172307"><ele>762.0</ele><time>2026-04-24T13:01:42.986Z</time></trkpt><trkpt lat="43.0283415" lon="12.9170291"><ele>762.0</ele><time>2026-04-24T13:01:43.999Z</time></trkpt><trkpt lat="43.0283213" lon="12.9168011"><ele>762.0</ele><time>2026-04-24T13:01:44.996Z</time></trkpt><trkpt lat="43.0282942" lon="12.9165591"><ele>762.3333333333334</ele><time>2026-04-24T13:01:45.977Z</time></trkpt><trkpt lat="43.0282648" lon="12.9162993"><ele>762.6666666666667</ele><time>2026-04-24T13:01:46.988Z</time></trkpt><trkpt lat="43.0282389" lon="12.9160242"><ele>763.0</ele><time>2026-04-24T13:01:48.005Z</time></trkpt><trkpt lat="43.0282142" lon="12.9157365"><ele>762.0</ele><time>2026-04-24T13:01:48.986Z</time></trkpt><trkpt lat="43.0281898" lon="12.9154363"><ele>761.0</ele><time>2026-04-24T13:01:50.005Z</time></trkpt><trkpt lat="43.0281641" lon="12.9151235"><ele>761.0</ele><time>2026-04-24T13:01:51.016Z</time></trkpt><trkpt lat="43.0281402" lon="12.9147978"><ele>761.0</ele><time>2026-04-24T13:01:52.003Z</time></trkpt><trkpt lat="43.0281097" lon="12.9144659"><ele>762.0</ele><time>2026-04-24T13:01:52.991Z</time></trkpt><trkpt lat="43.0280844" lon="12.9141305"><ele>763.0</ele><time>2026-04-24T13:01:54.002Z</time></trkpt><trkpt lat="43.028058" lon="12.9137981"><ele>763.0</ele><time>2026-04-24T13:01:55.013Z</time></trkpt><trkpt lat="43.0280336" lon="12.9134877"><ele>763.0</ele><time>2026-04-24T13:01:55.996Z</time></trkpt><trkpt lat="43.0280069" lon="12.913202"><ele>763.0</ele><time>2026-04-24T13:01:56.983Z</time></trkpt><trkpt lat="43.0279863" lon="12.9129312"><ele>763.0</ele><time>2026-04-24T13:01:58.012Z</time></trkpt><trkpt lat="43.0279686" lon="12.912675"><ele>763.0</ele><time>2026-04-24T13:01:58.973Z</time></trkpt><trkpt lat="43.0279559" lon="12.9124202"><ele>763.0</ele><time>2026-04-24T13:01:59.981Z</time></trkpt><trkpt lat="43.0279494" lon="12.9121614"><ele>763.0</ele><time>2026-04-24T13:02:00.983Z</time></trkpt><trkpt lat="43.0279443" lon="12.9119016"><ele>763.0</ele><time>2026-04-24T13:02:02.001Z</time></trkpt><trkpt lat="43.0279373" lon="12.9116397"><ele>763.0</ele><time>2026-04-24T13:02:03.003Z</time></trkpt><trkpt lat="43.0279264" lon="12.9113809"><ele>763.0</ele><time>2026-04-24T13:02:03.986Z</time></trkpt><trkpt lat="43.0279191" lon="12.9111345"><ele>763.0</ele><time>2026-04-24T13:02:05.005Z</time></trkpt><trkpt lat="43.0279192" lon="12.9109071"><ele>763.0</ele><time>2026-04-24T13:02:05.998Z</time></trkpt><trkpt lat="43.0279442" lon="12.910689"><ele>763.0</ele><time>2026-04-24T13:02:07.006Z</time></trkpt><trkpt lat="43.027988" lon="12.9104709"><ele>763.0</ele><time>2026-04-24T13:02:07.984Z</time></trkpt><trkpt lat="43.0280527" lon="12.9102565"><ele>763.0</ele><time>2026-04-24T13:02:08.998Z</time></trkpt><trkpt lat="43.0281356" lon="12.9100553"><ele>761.6666666666667</ele><time>2026-04-24T13:02:09.99Z</time></trkpt><trkpt lat="43.0282185" lon="12.9098617"><ele>760.3333333333334</ele><time>2026-04-24T13:02:10.983Z</time></trkpt><trkpt lat="43.0283115" lon="12.9096659"><ele>759.0</ele><time>2026-04-24T13:02:11.981Z</time></trkpt><trkpt lat="43.0284126" lon="12.9094953"><ele>759.0</ele><time>2026-04-24T13:02:13.004Z</time></trkpt><trkpt lat="43.02852" lon="12.9093339"><ele>759.0</ele><time>2026-04-24T13:02:13.991Z</time></trkpt><trkpt lat="43.028627" lon="12.9091824"><ele>759.0</ele><time>2026-04-24T13:02:14.994Z</time></trkpt><trkpt lat="43.028735" lon="12.909017"><ele>759.6666666666666</ele><time>2026-04-24T13:02:15.994Z</time></trkpt><trkpt lat="43.0288417" lon="12.9088433"><ele>760.3333333333333</ele><time>2026-04-24T13:02:16.993Z</time></trkpt><trkpt lat="43.0289418" lon="12.9086548"><ele>761.0</ele><time>2026-04-24T13:02:17.999Z</time></trkpt><trkpt lat="43.0290355" lon="12.9084584"><ele>761.6666666666666</ele><time>2026-04-24T13:02:18.985Z</time></trkpt><trkpt lat="43.0291025" lon="12.9082387"><ele>762.3333333333334</ele><time>2026-04-24T13:02:19.986Z</time></trkpt><trkpt lat="43.0291466" lon="12.9080062"><ele>763.0</ele><time>2026-04-24T13:02:21.003Z</time></trkpt><trkpt lat="43.0291858" lon="12.9077615"><ele>761.3333333333334</ele><time>2026-04-24T13:02:22.005Z</time></trkpt><trkpt lat="43.0292242" lon="12.907516"><ele>759.6666666666666</ele><time>2026-04-24T13:02:23.01Z</time></trkpt><trkpt lat="43.0292616" lon="12.9072902"><ele>758.0</ele><time>2026-04-24T13:02:23.985Z</time></trkpt><trkpt lat="43.0293124" lon="12.9070607"><ele>758.0</ele><time>2026-04-24T13:02:24.995Z</time></trkpt><trkpt lat="43.0293724" lon="12.9068315"><ele>758.0</ele><time>2026-04-24T13:02:25.994Z</time></trkpt><trkpt lat="43.0294466" lon="12.9066019"><ele>758.0</ele><time>2026-04-24T13:02:26.991Z</time></trkpt><trkpt lat="43.0295248" lon="12.9063792"><ele>758.0</ele><time>2026-04-24T13:02:27.99Z</time></trkpt><trkpt lat="43.0296057" lon="12.9061613"><ele>758.0</ele><time>2026-04-24T13:02:29.019Z</time></trkpt><trkpt lat="43.0296896" lon="12.9059518"><ele>758.0</ele><time>2026-04-24T13:02:30.016Z</time></trkpt><trkpt lat="43.029782" lon="12.9057481"><ele>758.0</ele><time>2026-04-24T13:02:30.979Z</time></trkpt><trkpt lat="43.0298886" lon="12.9055747"><ele>758.0</ele><time>2026-04-24T13:02:32.002Z</time></trkpt><trkpt lat="43.030015" lon="12.905417"><ele>758.0</ele><time>2026-04-24T13:02:33.001Z</time></trkpt><trkpt lat="43.0301541" lon="12.9052731"><ele>757.6666666666666</ele><time>2026-04-24T13:02:34.002Z</time></trkpt><trkpt lat="43.0302932" lon="12.9051257"><ele>757.3333333333334</ele><time>2026-04-24T13:02:34.987Z</time></trkpt><trkpt lat="43.030432" lon="12.9049742"><ele>757.0</ele><time>2026-04-24T13:02:35.979Z</time></trkpt><trkpt lat="43.0305602" lon="12.9048298"><ele>757.0</ele><time>2026-04-24T13:02:36.997Z</time></trkpt><trkpt lat="43.0306802" lon="12.9046858"><ele>757.0</ele><time>2026-04-24T13:02:37.988Z</time></trkpt><trkpt lat="43.0307916" lon="12.9045411"><ele>757.0</ele><time>2026-04-24T13:02:38.978Z</time></trkpt><trkpt lat="43.0308899" lon="12.9044011"><ele>757.5</ele><time>2026-04-24T13:02:39.98Z</time></trkpt><trkpt lat="43.0309578" lon="12.9042342"><ele>758.0</ele><time>2026-04-24T13:02:40.988Z</time></trkpt><trkpt lat="43.0309941" lon="12.9040416"><ele>758.5</ele><time>2026-04-24T13:02:41.993Z</time></trkpt><trkpt lat="43.0309892" lon="12.903841"><ele>759.0</ele><time>2026-04-24T13:02:42.993Z</time></trkpt><trkpt lat="43.0309298" lon="12.9036218"><ele>759.0</ele><time>2026-04-24T13:02:43.986Z</time></trkpt><trkpt lat="43.0308361" lon="12.9034341"><ele>759.0</ele><time>2026-04-24T13:02:44.983Z</time></trkpt><trkpt lat="43.0307211" lon="12.9032452"><ele>759.0</ele><time>2026-04-24T13:02:45.989Z</time></trkpt><trkpt lat="43.0306032" lon="12.9030603"><ele>758.6666666666666</ele><time>2026-04-24T13:02:46.997Z</time></trkpt><trkpt lat="43.0304897" lon="12.9028644"><ele>758.3333333333333</ele><time>2026-04-24T13:02:47.987Z</time></trkpt><trkpt lat="43.0303714" lon="12.9026637"><ele>758.0</ele><time>2026-04-24T13:02:48.985Z</time></trkpt><trkpt lat="43.030251" lon="12.9024582"><ele>758.0</ele><time>2026-04-24T13:02:49.984Z</time></trkpt><trkpt lat="43.03013" lon="12.902252"><ele>758.0</ele><time>2026-04-24T13:02:50.984Z</time></trkpt><trkpt lat="43.0300108" lon="12.9020429"><ele>758.0</ele><time>2026-04-24T13:02:52.006Z</time></trkpt><trkpt lat="43.0298912" lon="12.901828"><ele>758.0</ele><time>2026-04-24T13:02:53.019Z</time></trkpt><trkpt lat="43.0297697" lon="12.9016146"><ele>758.0</ele><time>2026-04-24T13:02:53.981Z</time></trkpt><trkpt lat="43.0296468" lon="12.9013943"><ele>758.0</ele><time>2026-04-24T13:02:54.998Z</time></trkpt><trkpt lat="43.0295214" lon="12.9011765"><ele>758.0</ele><time>2026-04-24T13:02:55.999Z</time></trkpt><trkpt lat="43.0294097" lon="12.9009662"><ele>758.0</ele><time>2026-04-24T13:02:57.021Z</time></trkpt><trkpt lat="43.0293131" lon="12.9007681"><ele>758.0</ele><time>2026-04-24T13:02:58.001Z</time></trkpt><trkpt lat="43.0292255" lon="12.9005752"><ele>758.0</ele><time>2026-04-24T13:02:58.993Z</time></trkpt><trkpt lat="43.0291485" lon="12.9003832"><ele>758.0</ele><time>2026-04-24T13:02:59.984Z</time></trkpt><trkpt lat="43.0290753" lon="12.900184"><ele>758.0</ele><time>2026-04-24T13:03:01.015Z</time></trkpt><trkpt lat="43.0290106" lon="12.8999898"><ele>758.25</ele><time>2026-04-24T13:03:01.988Z</time></trkpt><trkpt lat="43.0289519" lon="12.8998108"><ele>758.5</ele><time>2026-04-24T13:03:03.005Z</time></trkpt><trkpt lat="43.0288991" lon="12.8996447"><ele>758.75</ele><time>2026-04-24T13:03:03.994Z</time></trkpt><trkpt lat="43.028845" lon="12.8994881"><ele>759.0</ele><time>2026-04-24T13:03:05.008Z</time></trkpt><trkpt lat="43.0288043" lon="12.8993301"><ele>759.5</ele><time>2026-04-24T13:03:05.992Z</time></trkpt><trkpt lat="43.0287831" lon="12.899179"><ele>760.0</ele><time>2026-04-24T13:03:07.009Z</time></trkpt><trkpt lat="43.0287832" lon="12.8990161"><ele>760.5</ele><time>2026-04-24T13:03:07.996Z</time></trkpt><trkpt lat="43.0287601" lon="12.8988483"><ele>761.0</ele><time>2026-04-24T13:03:08.99Z</time></trkpt><trkpt lat="43.02871" lon="12.8986874"><ele>761.0</ele><time>2026-04-24T13:03:09.991Z</time></trkpt><trkpt lat="43.0286628" lon="12.8985222"><ele>761.0</ele><time>2026-04-24T13:03:10.991Z</time></trkpt><trkpt lat="43.0286494" lon="12.8983623"><ele>761.0</ele><time>2026-04-24T13:03:11.997Z</time></trkpt><trkpt lat="43.028652" lon="12.8981816"><ele>761.0</ele><time>2026-04-24T13:03:12.993Z</time></trkpt><trkpt lat="43.028658" lon="12.8979953"><ele>760.6666666666666</ele><time>2026-04-24T13:03:13.991Z</time></trkpt><trkpt lat="43.0286639" lon="12.8977958"><ele>760.3333333333334</ele><time>2026-04-24T13:03:15.003Z</time></trkpt><trkpt lat="43.0286669" lon="12.8976063"><ele>760.0</ele><time>2026-04-24T13:03:15.989Z</time></trkpt><trkpt lat="43.0286713" lon="12.8969346"><ele>760.0</ele><time>2026-04-24T13:03:20Z</time></trkpt><trkpt lat="43.0286767" lon="12.8967791"><ele>760.0</ele><time>2026-04-24T13:03:20.998Z</time></trkpt><trkpt lat="43.0286784" lon="12.8966278"><ele>760.0</ele><time>2026-04-24T13:03:21.978Z</time></trkpt><trkpt lat="43.0286864" lon="12.8964859"><ele>760.0</ele><time>2026-04-24T13:03:22.999Z</time></trkpt><trkpt lat="43.0286923" lon="12.896336"><ele>760.0</ele><time>2026-04-24T13:03:24.013Z</time></trkpt><trkpt lat="43.0287024" lon="12.896191"><ele>760.0</ele><time>2026-04-24T13:03:24.994Z</time></trkpt><trkpt lat="43.0287164" lon="12.8960388"><ele>760.0</ele><time>2026-04-24T13:03:25.99Z</time></trkpt><trkpt lat="43.0287343" lon="12.8959154"><ele>760.0</ele><time>2026-04-24T13:03:27.014Z</time></trkpt><trkpt lat="43.0287497" lon="12.8957925"><ele>760.0</ele><time>2026-04-24T13:03:27.979Z</time></trkpt><trkpt lat="43.0287607" lon="12.8956784"><ele>760.0</ele><time>2026-04-24T13:03:29Z</time></trkpt><trkpt lat="43.0287714" lon="12.8955696"><ele>760.0</ele><time>2026-04-24T13:03:29.982Z</time></trkpt><trkpt lat="43.0287812" lon="12.8954629"><ele>760.0</ele><time>2026-04-24T13:03:31.005Z</time></trkpt><trkpt lat="43.0287924" lon="12.8953639"><ele>760.0</ele><time>2026-04-24T13:03:31.994Z</time></trkpt><trkpt lat="43.0288006" lon="12.8952731"><ele>760.0</ele><time>2026-04-24T13:03:32.989Z</time></trkpt><trkpt lat="43.0288114" lon="12.8951857"><ele>760.0</ele><time>2026-04-24T13:03:33.981Z</time></trkpt><trkpt lat="43.0288228" lon="12.8950896"><ele>760.0</ele><time>2026-04-24T13:03:35.015Z</time></trkpt><trkpt lat="43.0288301" lon="12.894988"><ele>760.0</ele><time>2026-04-24T13:03:35.975Z</time></trkpt><trkpt lat="43.0288396" lon="12.8948829"><ele>760.0</ele><time>2026-04-24T13:03:37.002Z</time></trkpt><trkpt lat="43.0288512" lon="12.8947687"><ele>760.0</ele><time>2026-04-24T13:03:37.989Z</time></trkpt><trkpt lat="43.0288683" lon="12.8946516"><ele>760.0</ele><time>2026-04-24T13:03:39.002Z</time></trkpt><trkpt lat="43.0288826" lon="12.8945261"><ele>760.0</ele><time>2026-04-24T13:03:40.004Z</time></trkpt><trkpt lat="43.0288874" lon="12.894397"><ele>760.0</ele><time>2026-04-24T13:03:40.989Z</time></trkpt><trkpt lat="43.0288878" lon="12.8942764"><ele>760.0</ele><time>2026-04-24T13:03:42.003Z</time></trkpt><trkpt lat="43.0288857" lon="12.8941499"><ele>760.2</ele><time>2026-04-24T13:03:42.998Z</time></trkpt><trkpt lat="43.0288731" lon="12.8940258"><ele>760.4</ele><time>2026-04-24T13:03:44Z</time></trkpt><trkpt lat="43.0288586" lon="12.8939056"><ele>760.5999999999999</ele><time>2026-04-24T13:03:44.976Z</time></trkpt><trkpt lat="43.0288407" lon="12.893777"><ele>760.8</ele><time>2026-04-24T13:03:45.98Z</time></trkpt><trkpt lat="43.0288176" lon="12.8936395"><ele>761.0</ele><time>2026-04-24T13:03:46.989Z</time></trkpt><trkpt lat="43.0287885" lon="12.8934988"><ele>761.8</ele><time>2026-04-24T13:03:47.986Z</time></trkpt><trkpt lat="43.0287629" lon="12.8933552"><ele>762.5999999999999</ele><time>2026-04-24T13:03:48.983Z</time></trkpt><trkpt lat="43.0287385" lon="12.8932266"><ele>763.4</ele><time>2026-04-24T13:03:49.998Z</time></trkpt><trkpt lat="43.0287196" lon="12.8931014"><ele>764.2</ele><time>2026-04-24T13:03:51.014Z</time></trkpt><trkpt lat="43.0287037" lon="12.8929795"><ele>765.0</ele><time>2026-04-24T13:03:51.992Z</time></trkpt><trkpt lat="43.0286885" lon="12.892856"><ele>765.0</ele><time>2026-04-24T13:03:52.998Z</time></trkpt><trkpt lat="43.0286723" lon="12.8927297"><ele>765.0</ele><time>2026-04-24T13:03:53.993Z</time></trkpt><trkpt lat="43.028659" lon="12.8926104"><ele>765.0</ele><time>2026-04-24T13:03:54.994Z</time></trkpt><trkpt lat="43.0286462" lon="12.8925018"><ele>765.0</ele><time>2026-04-24T13:03:56.009Z</time></trkpt><trkpt lat="43.0286314" lon="12.8924057"><ele>765.0</ele><time>2026-04-24T13:03:56.979Z</time></trkpt><trkpt lat="43.0286215" lon="12.892313"><ele>765.0</ele><time>2026-04-24T13:03:57.991Z</time></trkpt><trkpt lat="43.0286068" lon="12.8922268"><ele>764.8333333333334</ele><time>2026-04-24T13:03:58.994Z</time></trkpt><trkpt lat="43.0285922" lon="12.8921405"><ele>764.6666666666666</ele><time>2026-04-24T13:04:00.006Z</time></trkpt><trkpt lat="43.0285816" lon="12.8920484"><ele>764.5</ele><time>2026-04-24T13:04:00.979Z</time></trkpt><trkpt lat="43.0285699" lon="12.89195"><ele>764.3333333333333</ele><time>2026-04-24T13:04:01.987Z</time></trkpt><trkpt lat="43.0285524" lon="12.891799"><ele>764.1666666666666</ele><time>2026-04-24T13:04:03.983Z</time></trkpt><trkpt lat="43.02853" lon="12.8916694"><ele>764.0</ele><time>2026-04-24T13:04:06.005Z</time></trkpt><trkpt lat="43.0285303" lon="12.8915393"><ele>764.0</ele><time>2026-04-24T13:04:07.988Z</time></trkpt><trkpt lat="43.0285431" lon="12.8914361"><ele>764.0</ele><time>2026-04-24T13:04:09.992Z</time></trkpt><trkpt lat="43.0285043" lon="12.8913096"><ele>764.0</ele><time>2026-04-24T13:04:12.993Z</time></trkpt><trkpt lat="43.0284079" lon="12.8912208"><ele>764.0</ele><time>2026-04-24T13:04:14.979Z</time></trkpt><trkpt lat="43.0282988" lon="12.89115"><ele>764.0</ele><time>2026-04-24T13:04:16.981Z</time></trkpt><trkpt lat="43.0282383" lon="12.8911148"><ele>764.3333333333333</ele><time>2026-04-24T13:04:17.988Z</time></trkpt><trkpt lat="43.0281738" lon="12.8910745"><ele>764.6666666666666</ele><time>2026-04-24T13:04:18.99Z</time></trkpt><trkpt lat="43.0280992" lon="12.8910315"><ele>765.0</ele><time>2026-04-24T13:04:19.993Z</time></trkpt><trkpt lat="43.02803" lon="12.8909708"><ele>765.3333333333334</ele><time>2026-04-24T13:04:20.997Z</time></trkpt><trkpt lat="43.0279709" lon="12.8909041"><ele>765.6666666666667</ele><time>2026-04-24T13:04:22.007Z</time></trkpt><trkpt lat="43.0279193" lon="12.8908297"><ele>766.0</ele><time>2026-04-24T13:04:23.012Z</time></trkpt><trkpt lat="43.0278684" lon="12.890721"><ele>766.0</ele><time>2026-04-24T13:04:24.999Z</time></trkpt><trkpt lat="43.0279225" lon="12.8906539"><ele>766.0</ele><time>2026-04-24T13:04:27.004Z</time></trkpt><trkpt lat="43.0279921" lon="12.8906725"><ele>766.0</ele><time>2026-04-24T13:04:28.992Z</time></trkpt><trkpt lat="43.0281105" lon="12.8907785"><ele>766.0</ele><time>2026-04-24T13:04:30.994Z</time></trkpt><trkpt lat="43.0282041" lon="12.890854"><ele>766.0</ele><time>2026-04-24T13:04:31.989Z</time></trkpt><trkpt lat="43.0283006" lon="12.8909109"><ele>765.6666666666667</ele><time>2026-04-24T13:04:33.004Z</time></trkpt><trkpt lat="43.0283839" lon="12.8909592"><ele>765.3333333333334</ele><time>2026-04-24T13:04:34.003Z</time></trkpt><trkpt lat="43.028455" lon="12.8910043"><ele>765.0</ele><time>2026-04-24T13:04:35.015Z</time></trkpt><trkpt lat="43.0285176" lon="12.8910156"><ele>764.6666666666666</ele><time>2026-04-24T13:04:35.991Z</time></trkpt><trkpt lat="43.0285941" lon="12.8909357"><ele>764.3333333333333</ele><time>2026-04-24T13:04:38.013Z</time></trkpt><trkpt lat="43.0285832" lon="12.8908347"><ele>764.0</ele><time>2026-04-24T13:04:39.985Z</time></trkpt><trkpt lat="43.0285299" lon="12.8907508"><ele>764.3333333333333</ele><time>2026-04-24T13:04:41.998Z</time></trkpt><trkpt lat="43.0284815" lon="12.8906839"><ele>764.6666666666666</ele><time>2026-04-24T13:04:43.998Z</time></trkpt><trkpt lat="43.0284887" lon="12.8905951"><ele>765.0</ele><time>2026-04-24T13:11:10.978Z</time></trkpt><trkpt lat="43.0284138" lon="12.8906123"><ele>765.3333333333334</ele><time>2026-04-24T13:12:22.993Z</time></trkpt><trkpt lat="43.0283461" lon="12.8905514"><ele>765.6666666666667</ele><time>2026-04-24T13:12:24.993Z</time></trkpt><trkpt lat="43.0282519" lon="12.8904548"><ele>766.0</ele><time>2026-04-24T13:12:26.994Z</time></trkpt><trkpt lat="43.0281947" lon="12.8904095"><ele>766.0</ele><time>2026-04-24T13:12:27.994Z</time></trkpt><trkpt lat="43.0280855" lon="12.8903635"><ele>766.0</ele><time>2026-04-24T13:12:29.971Z</time></trkpt><trkpt lat="43.0280012" lon="12.8904172"><ele>766.0</ele><time>2026-04-24T13:12:31.99Z</time></trkpt><trkpt lat="43.0279399" lon="12.8905107"><ele>766.0</ele><time>2026-04-24T13:12:33.969Z</time></trkpt><trkpt lat="43.0278778" lon="12.890589"><ele>766.0</ele><time>2026-04-24T13:12:36.994Z</time></trkpt><trkpt lat="43.0278042" lon="12.8906085"><ele>766.0</ele><time>2026-04-24T13:12:58.98Z</time></trkpt><trkpt lat="43.0277492" lon="12.890511"><ele>766.0</ele><time>2026-04-24T13:13:00.999Z</time></trkpt><trkpt lat="43.0277346" lon="12.8904266"><ele>766.0</ele><time>2026-04-24T13:13:01.985Z</time></trkpt><trkpt lat="43.0277324" lon="12.8902989"><ele>766.0</ele><time>2026-04-24T13:13:02.982Z</time></trkpt><trkpt lat="43.0277228" lon="12.8901483"><ele>766.0</ele><time>2026-04-24T13:13:03.982Z</time></trkpt><trkpt lat="43.0276944" lon="12.8899691"><ele>764.3333333333334</ele><time>2026-04-24T13:13:04.984Z</time></trkpt><trkpt lat="43.0276478" lon="12.8897764"><ele>762.6666666666666</ele><time>2026-04-24T13:13:06.012Z</time></trkpt><trkpt lat="43.0275907" lon="12.8895817"><ele>761.0</ele><time>2026-04-24T13:13:06.991Z</time></trkpt><trkpt lat="43.0275196" lon="12.8893802"><ele>760.6666666666666</ele><time>2026-04-24T13:13:07.994Z</time></trkpt><trkpt lat="43.0274419" lon="12.8891796"><ele>760.3333333333334</ele><time>2026-04-24T13:13:08.985Z</time></trkpt><trkpt lat="43.0273658" lon="12.8889759"><ele>760.0</ele><time>2026-04-24T13:13:10.007Z</time></trkpt><trkpt lat="43.027276" lon="12.8887795"><ele>760.0</ele><time>2026-04-24T13:13:10.985Z</time></trkpt><trkpt lat="43.0271717" lon="12.8886053"><ele>760.0</ele><time>2026-04-24T13:13:11.982Z</time></trkpt><trkpt lat="43.0270665" lon="12.888452"><ele>760.0</ele><time>2026-04-24T13:13:12.987Z</time></trkpt><trkpt lat="43.0269654" lon="12.8882994"><ele>760.0</ele><time>2026-04-24T13:13:13.991Z</time></trkpt><trkpt lat="43.0268704" lon="12.8881404"><ele>760.0</ele><time>2026-04-24T13:13:14.986Z</time></trkpt><trkpt lat="43.0267912" lon="12.8879774"><ele>760.0</ele><time>2026-04-24T13:13:15.98Z</time></trkpt><trkpt lat="43.0267159" lon="12.8878033"><ele>760.0</ele><time>2026-04-24T13:13:16.991Z</time></trkpt><trkpt lat="43.0266393" lon="12.8876204"><ele>760.3333333333334</ele><time>2026-04-24T13:13:17.977Z</time></trkpt><trkpt lat="43.026571" lon="12.887421"><ele>760.6666666666666</ele><time>2026-04-24T13:13:18.991Z</time></trkpt><trkpt lat="43.0265053" lon="12.8872077"><ele>761.0</ele><time>2026-04-24T13:13:19.997Z</time></trkpt><trkpt lat="43.0264339" lon="12.8869813"><ele>761.3333333333333</ele><time>2026-04-24T13:13:21.005Z</time></trkpt><trkpt lat="43.0263559" lon="12.8867578"><ele>761.6666666666666</ele><time>2026-04-24T13:13:21.983Z</time></trkpt><trkpt lat="43.0262506" lon="12.8865355"><ele>762.0</ele><time>2026-04-24T13:13:22.997Z</time></trkpt><trkpt lat="43.026133" lon="12.8863135"><ele>762.0</ele><time>2026-04-24T13:13:23.996Z</time></trkpt><trkpt lat="43.0260131" lon="12.8860858"><ele>762.0</ele><time>2026-04-24T13:13:25.016Z</time></trkpt><trkpt lat="43.0259018" lon="12.8858366"><ele>762.0</ele><time>2026-04-24T13:13:25.985Z</time></trkpt><trkpt lat="43.0258139" lon="12.8855873"><ele>761.0</ele><time>2026-04-24T13:13:27.002Z</time></trkpt><trkpt lat="43.0257379" lon="12.8853507"><ele>760.0</ele><time>2026-04-24T13:13:28.011Z</time></trkpt><trkpt lat="43.0256678" lon="12.8851314"><ele>759.0</ele><time>2026-04-24T13:13:28.981Z</time></trkpt><trkpt lat="43.0256029" lon="12.8849331"><ele>758.5</ele><time>2026-04-24T13:13:29.974Z</time></trkpt><trkpt lat="43.0255364" lon="12.8847467"><ele>758.0</ele><time>2026-04-24T13:13:31.003Z</time></trkpt><trkpt lat="43.0254649" lon="12.8845953"><ele>757.5</ele><time>2026-04-24T13:13:31.979Z</time></trkpt><trkpt lat="43.0253827" lon="12.8844781"><ele>757.0</ele><time>2026-04-24T13:13:32.977Z</time></trkpt><trkpt lat="43.0252931" lon="12.8843857"><ele>757.0</ele><time>2026-04-24T13:13:33.977Z</time></trkpt><trkpt lat="43.0252222" lon="12.8842952"><ele>757.0</ele><time>2026-04-24T13:13:34.998Z</time></trkpt><trkpt lat="43.025177" lon="12.8842006"><ele>757.0</ele><time>2026-04-24T13:13:36.004Z</time></trkpt><trkpt lat="43.0251762" lon="12.8840886"><ele>757.0</ele><time>2026-04-24T13:13:36.997Z</time></trkpt><trkpt lat="43.0252058" lon="12.8839615"><ele>757.0</ele><time>2026-04-24T13:13:37.983Z</time></trkpt><trkpt lat="43.025248" lon="12.8838121"><ele>757.0</ele><time>2026-04-24T13:13:38.99Z</time></trkpt><trkpt lat="43.0252972" lon="12.8836468"><ele>757.0</ele><time>2026-04-24T13:13:39.997Z</time></trkpt><trkpt lat="43.0253489" lon="12.8834843"><ele>757.0</ele><time>2026-04-24T13:13:41.001Z</time></trkpt><trkpt lat="43.0254029" lon="12.8833179"><ele>757.0</ele><time>2026-04-24T13:13:41.988Z</time></trkpt><trkpt lat="43.0254591" lon="12.883144"><ele>757.0</ele><time>2026-04-24T13:13:42.995Z</time></trkpt><trkpt lat="43.0255079" lon="12.8829735"><ele>757.0</ele><time>2026-04-24T13:13:43.994Z</time></trkpt><trkpt lat="43.0255419" lon="12.8827996"><ele>757.0</ele><time>2026-04-24T13:13:44.989Z</time></trkpt><trkpt lat="43.0255634" lon="12.8826192"><ele>757.0</ele><time>2026-04-24T13:13:45.986Z</time></trkpt><trkpt lat="43.0255761" lon="12.8824406"><ele>757.25</ele><time>2026-04-24T13:13:47.003Z</time></trkpt><trkpt lat="43.0255723" lon="12.8822546"><ele>757.5</ele><time>2026-04-24T13:13:48.004Z</time></trkpt><trkpt lat="43.0255641" lon="12.8820723"><ele>757.75</ele><time>2026-04-24T13:13:49.003Z</time></trkpt><trkpt lat="43.0255283" lon="12.8818814"><ele>758.0</ele><time>2026-04-24T13:13:49.992Z</time></trkpt><trkpt lat="43.025471" lon="12.8816872"><ele>758.0</ele><time>2026-04-24T13:13:50.999Z</time></trkpt><trkpt lat="43.0254002" lon="12.8815026"><ele>758.0</ele><time>2026-04-24T13:13:51.993Z</time></trkpt><trkpt lat="43.025327" lon="12.8813285"><ele>758.0</ele><time>2026-04-24T13:13:52.998Z</time></trkpt><trkpt lat="43.0252608" lon="12.8811608"><ele>758.0</ele><time>2026-04-24T13:13:53.98Z</time></trkpt><trkpt lat="43.0252171" lon="12.8809935"><ele>758.25</ele><time>2026-04-24T13:13:54.99Z</time></trkpt><trkpt lat="43.0252149" lon="12.8808342"><ele>758.5</ele><time>2026-04-24T13:13:55.966Z</time></trkpt><trkpt lat="43.0252571" lon="12.8806765"><ele>758.75</ele><time>2026-04-24T13:13:56.992Z</time></trkpt><trkpt lat="43.0253332" lon="12.8805216"><ele>759.0</ele><time>2026-04-24T13:13:57.993Z</time></trkpt><trkpt lat="43.0254341" lon="12.8803802"><ele>759.0</ele><time>2026-04-24T13:13:58.975Z</time></trkpt><trkpt lat="43.0255503" lon="12.8802406"><ele>759.0</ele><time>2026-04-24T13:14:00.011Z</time></trkpt><trkpt lat="43.0256594" lon="12.8801069"><ele>759.0</ele><time>2026-04-24T13:14:01.005Z</time></trkpt><trkpt lat="43.0257763" lon="12.879963"><ele>760.3333333333334</ele><time>2026-04-24T13:14:01.988Z</time></trkpt><trkpt lat="43.0258923" lon="12.8798173"><ele>761.6666666666667</ele><time>2026-04-24T13:14:02.989Z</time></trkpt><trkpt lat="43.026011" lon="12.8796664"><ele>763.0</ele><time>2026-04-24T13:14:03.987Z</time></trkpt><trkpt lat="43.0261198" lon="12.8795039"><ele>763.0</ele><time>2026-04-24T13:14:05.017Z</time></trkpt><trkpt lat="43.0262241" lon="12.879344"><ele>763.0</ele><time>2026-04-24T13:14:05.99Z</time></trkpt><trkpt lat="43.0263158" lon="12.8791889"><ele>763.0</ele><time>2026-04-24T13:14:07.004Z</time></trkpt><trkpt lat="43.0264021" lon="12.879049"><ele>763.0</ele><time>2026-04-24T13:14:07.969Z</time></trkpt><trkpt lat="43.0264954" lon="12.8789126"><ele>762.6666666666667</ele><time>2026-04-24T13:14:09.013Z</time></trkpt><trkpt lat="43.0265997" lon="12.8787866"><ele>762.3333333333334</ele><time>2026-04-24T13:14:09.995Z</time></trkpt><trkpt lat="43.0267225" lon="12.8786663"><ele>762.0</ele><time>2026-04-24T13:14:10.998Z</time></trkpt><trkpt lat="43.0268674" lon="12.8785667"><ele>762.0</ele><time>2026-04-24T13:14:12.005Z</time></trkpt><trkpt lat="43.0270204" lon="12.8784864"><ele>762.0</ele><time>2026-04-24T13:14:12.985Z</time></trkpt><trkpt lat="43.0271833" lon="12.8784232"><ele>762.0</ele><time>2026-04-24T13:14:13.987Z</time></trkpt><trkpt lat="43.0273503" lon="12.8783672"><ele>761.0</ele><time>2026-04-24T13:14:14.971Z</time></trkpt><trkpt lat="43.0275172" lon="12.8783024"><ele>760.0</ele><time>2026-04-24T13:14:16.003Z</time></trkpt><trkpt lat="43.0276739" lon="12.8782376"><ele>759.0</ele><time>2026-04-24T13:14:17.014Z</time></trkpt><trkpt lat="43.0278177" lon="12.8781646"><ele>759.0</ele><time>2026-04-24T13:14:17.971Z</time></trkpt><trkpt lat="43.0279462" lon="12.8780868"><ele>759.0</ele><time>2026-04-24T13:14:18.998Z</time></trkpt><trkpt lat="43.0280585" lon="12.8780019"><ele>759.0</ele><time>2026-04-24T13:14:19.988Z</time></trkpt><trkpt lat="43.0281589" lon="12.8779006"><ele>759.0</ele><time>2026-04-24T13:14:20.98Z</time></trkpt><trkpt lat="43.028243" lon="12.877799"><ele>759.6</ele><time>2026-04-24T13:14:21.986Z</time></trkpt><trkpt lat="43.0283185" lon="12.8776923"><ele>760.2</ele><time>2026-04-24T13:14:23.004Z</time></trkpt><trkpt lat="43.0283923" lon="12.8775956"><ele>760.8000000000001</ele><time>2026-04-24T13:14:23.994Z</time></trkpt><trkpt lat="43.0284674" lon="12.8775187"><ele>761.4000000000001</ele><time>2026-04-24T13:14:24.99Z</time></trkpt><trkpt lat="43.0285569" lon="12.8774632"><ele>762.0</ele><time>2026-04-24T13:14:25.996Z</time></trkpt><trkpt lat="43.0286572" lon="12.8774258"><ele>760.5</ele><time>2026-04-24T13:14:27.012Z</time></trkpt><trkpt lat="43.0287684" lon="12.8773975"><ele>759.0</ele><time>2026-04-24T13:14:27.966Z</time></trkpt><trkpt lat="43.0288852" lon="12.8773666"><ele>757.5</ele><time>2026-04-24T13:14:29.007Z</time></trkpt><trkpt lat="43.0290083" lon="12.877324"><ele>756.0</ele><time>2026-04-24T13:14:29.982Z</time></trkpt><trkpt lat="43.0291279" lon="12.8772696"><ele>756.75</ele><time>2026-04-24T13:14:30.984Z</time></trkpt><trkpt lat="43.0292493" lon="12.8771954"><ele>757.5</ele><time>2026-04-24T13:14:32.003Z</time></trkpt><trkpt lat="43.0293666" lon="12.8771065"><ele>758.25</ele><time>2026-04-24T13:14:32.978Z</time></trkpt><trkpt lat="43.0294757" lon="12.8770128"><ele>759.0</ele><time>2026-04-24T13:14:33.981Z</time></trkpt><trkpt lat="43.0295837" lon="12.8769064"><ele>759.0</ele><time>2026-04-24T13:14:34.998Z</time></trkpt><trkpt lat="43.0296863" lon="12.8767821"><ele>759.0</ele><time>2026-04-24T13:14:36Z</time></trkpt><trkpt lat="43.0297822" lon="12.8766508"><ele>759.0</ele><time>2026-04-24T13:14:37.014Z</time></trkpt><trkpt lat="43.0298736" lon="12.8765092"><ele>759.0</ele><time>2026-04-24T13:14:37.98Z</time></trkpt><trkpt lat="43.0299613" lon="12.8763574"><ele>759.0</ele><time>2026-04-24T13:14:38.986Z</time></trkpt><trkpt lat="43.0300329" lon="12.8761988"><ele>759.0</ele><time>2026-04-24T13:14:39.996Z</time></trkpt><trkpt lat="43.0300823" lon="12.8760124"><ele>759.0</ele><time>2026-04-24T13:14:40.994Z</time></trkpt><trkpt lat="43.0301139" lon="12.8758037"><ele>759.0</ele><time>2026-04-24T13:14:41.974Z</time></trkpt><trkpt lat="43.0301286" lon="12.8755879"><ele>759.3333333333334</ele><time>2026-04-24T13:14:43.011Z</time></trkpt><trkpt lat="43.0301419" lon="12.8753648"><ele>759.6666666666667</ele><time>2026-04-24T13:14:44.006Z</time></trkpt><trkpt lat="43.0301569" lon="12.8751346"><ele>760.0</ele><time>2026-04-24T13:14:44.993Z</time></trkpt><trkpt lat="43.0301586" lon="12.8748965"><ele>759.3333333333334</ele><time>2026-04-24T13:14:45.988Z</time></trkpt><trkpt lat="43.0301407" lon="12.8746419"><ele>758.6666666666666</ele><time>2026-04-24T13:14:46.987Z</time></trkpt><trkpt lat="43.0300923" lon="12.8743909"><ele>758.0</ele><time>2026-04-24T13:14:48.015Z</time></trkpt><trkpt lat="43.0300264" lon="12.8741333"><ele>757.6666666666666</ele><time>2026-04-24T13:14:49.005Z</time></trkpt><trkpt lat="43.0299438" lon="12.8738894"><ele>757.3333333333334</ele><time>2026-04-24T13:14:49.989Z</time></trkpt><trkpt lat="43.0298481" lon="12.873648"><ele>757.0</ele><time>2026-04-24T13:14:51.008Z</time></trkpt><trkpt lat="43.0297434" lon="12.8734063"><ele>757.0</ele><time>2026-04-24T13:14:52.009Z</time></trkpt><trkpt lat="43.0296307" lon="12.8731634"><ele>757.0</ele><time>2026-04-24T13:14:52.981Z</time></trkpt><trkpt lat="43.0295155" lon="12.872933"><ele>757.0</ele><time>2026-04-24T13:14:53.992Z</time></trkpt><trkpt lat="43.0294001" lon="12.8727328"><ele>757.3333333333334</ele><time>2026-04-24T13:14:55.005Z</time></trkpt><trkpt lat="43.0292637" lon="12.8725532"><ele>757.6666666666666</ele><time>2026-04-24T13:14:55.994Z</time></trkpt><trkpt lat="43.0291089" lon="12.8723915"><ele>758.0</ele><time>2026-04-24T13:14:56.994Z</time></trkpt><trkpt lat="43.0289607" lon="12.8722479"><ele>758.0</ele><time>2026-04-24T13:14:58.004Z</time></trkpt><trkpt lat="43.0288206" lon="12.8721181"><ele>758.0</ele><time>2026-04-24T13:14:59.004Z</time></trkpt><trkpt lat="43.0287097" lon="12.8719653"><ele>758.0</ele><time>2026-04-24T13:15:00.008Z</time></trkpt><trkpt lat="43.0286231" lon="12.8717828"><ele>759.0</ele><time>2026-04-24T13:15:00.997Z</time></trkpt><trkpt lat="43.0285578" lon="12.8715606"><ele>760.0</ele><time>2026-04-24T13:15:01.976Z</time></trkpt><trkpt lat="43.0284957" lon="12.871341"><ele>761.0</ele><time>2026-04-24T13:15:02.99Z</time></trkpt><trkpt lat="43.0284286" lon="12.8711186"><ele>761.0</ele><time>2026-04-24T13:15:03.978Z</time></trkpt><trkpt lat="43.0281255" lon="12.8701729"><ele>763.3333333333333</ele><time>2026-04-24T13:15:07.995Z</time></trkpt><trkpt lat="43.0280442" lon="12.8699346"><ele>765.6666666666666</ele><time>2026-04-24T13:15:08.985Z</time></trkpt><trkpt lat="43.0279694" lon="12.8697098"><ele>768.0</ele><time>2026-04-24T13:15:09.99Z</time></trkpt><trkpt lat="43.0279015" lon="12.8694954"><ele>768.0</ele><time>2026-04-24T13:15:10.979Z</time></trkpt><trkpt lat="43.0278391" lon="12.8692959"><ele>768.0</ele><time>2026-04-24T13:15:11.99Z</time></trkpt><trkpt lat="43.0277861" lon="12.8691106"><ele>768.0</ele><time>2026-04-24T13:15:13.004Z</time></trkpt><trkpt lat="43.0277372" lon="12.8689481"><ele>768.0</ele><time>2026-04-24T13:15:13.995Z</time></trkpt><trkpt lat="43.027699" lon="12.8687957"><ele>769.0</ele><time>2026-04-24T13:15:15.014Z</time></trkpt><trkpt lat="43.0276654" lon="12.868666"><ele>770.0</ele><time>2026-04-24T13:15:15.969Z</time></trkpt><trkpt lat="43.0276347" lon="12.8685495"><ele>771.0</ele><time>2026-04-24T13:15:17.007Z</time></trkpt><trkpt lat="43.0276148" lon="12.8684492"><ele>772.0</ele><time>2026-04-24T13:15:18.007Z</time></trkpt><trkpt lat="43.0276058" lon="12.8683554"><ele>773.0</ele><time>2026-04-24T13:15:19.009Z</time></trkpt><trkpt lat="43.0276244" lon="12.8682707"><ele>774.0</ele><time>2026-04-24T13:15:19.995Z</time></trkpt><trkpt lat="43.0277215" lon="12.8682594"><ele>774.0</ele><time>2026-04-24T13:15:22.006Z</time></trkpt><trkpt lat="43.0278051" lon="12.8684321"><ele>774.0</ele><time>2026-04-24T13:15:23.987Z</time></trkpt><trkpt lat="43.0278614" lon="12.8685515"><ele>774.0</ele><time>2026-04-24T13:15:24.984Z</time></trkpt><trkpt lat="43.0279444" lon="12.8686487"><ele>774.0</ele><time>2026-04-24T13:15:26.01Z</time></trkpt><trkpt lat="43.0280533" lon="12.8687342"><ele>774.0</ele><time>2026-04-24T13:15:26.985Z</time></trkpt><trkpt lat="43.0281471" lon="12.8687841"><ele>774.0</ele><time>2026-04-24T13:15:27.997Z</time></trkpt><trkpt lat="43.028232" lon="12.8688167"><ele>774.0</ele><time>2026-04-24T13:15:28.985Z</time></trkpt><trkpt lat="43.0283103" lon="12.8688327"><ele>774.0</ele><time>2026-04-24T13:15:30.002Z</time></trkpt><trkpt lat="43.0283879" lon="12.8688305"><ele>774.0</ele><time>2026-04-24T13:15:30.985Z</time></trkpt><trkpt lat="43.0284812" lon="12.8688317"><ele>774.0</ele><time>2026-04-24T13:15:31.98Z</time></trkpt><trkpt lat="43.0285935" lon="12.8688401"><ele>776.75</ele><time>2026-04-24T13:15:33.005Z</time></trkpt><trkpt lat="43.0287229" lon="12.8688496"><ele>779.5</ele><time>2026-04-24T13:15:33.987Z</time></trkpt><trkpt lat="43.0288703" lon="12.8688537"><ele>782.25</ele><time>2026-04-24T13:15:34.981Z</time></trkpt><trkpt lat="43.0290237" lon="12.8688532"><ele>785.0</ele><time>2026-04-24T13:15:35.984Z</time></trkpt><trkpt lat="43.0291738" lon="12.8688509"><ele>785.5</ele><time>2026-04-24T13:15:36.994Z</time></trkpt><trkpt lat="43.0293129" lon="12.8688679"><ele>786.0</ele><time>2026-04-24T13:15:37.996Z</time></trkpt><trkpt lat="43.0294436" lon="12.8688816"><ele>786.5</ele><time>2026-04-24T13:15:38.978Z</time></trkpt><trkpt lat="43.0295832" lon="12.8689212"><ele>787.0</ele><time>2026-04-24T13:15:39.978Z</time></trkpt><trkpt lat="43.0296988" lon="12.8690213"><ele>787.0</ele><time>2026-04-24T13:15:40.983Z</time></trkpt><trkpt lat="43.0298156" lon="12.8691645"><ele>787.0</ele><time>2026-04-24T13:15:41.98Z</time></trkpt><trkpt lat="43.0299378" lon="12.8693055"><ele>787.0</ele><time>2026-04-24T13:15:42.987Z</time></trkpt><trkpt lat="43.030057" lon="12.8694289"><ele>785.75</ele><time>2026-04-24T13:15:43.978Z</time></trkpt><trkpt lat="43.0301725" lon="12.8695381"><ele>784.5</ele><time>2026-04-24T13:15:45.004Z</time></trkpt><trkpt lat="43.0302911" lon="12.86964"><ele>783.25</ele><time>2026-04-24T13:15:45.983Z</time></trkpt><trkpt lat="43.0304055" lon="12.8697286"><ele>782.0</ele><time>2026-04-24T13:15:46.994Z</time></trkpt><trkpt lat="43.0305157" lon="12.8697645"><ele>782.0</ele><time>2026-04-24T13:15:48.005Z</time></trkpt><trkpt lat="43.030605" lon="12.8697693"><ele>782.0</ele><time>2026-04-24T13:15:49.004Z</time></trkpt><trkpt lat="43.0306805" lon="12.8697203"><ele>782.0</ele><time>2026-04-24T13:15:49.977Z</time></trkpt><trkpt lat="43.0307652" lon="12.8696064"><ele>782.0</ele><time>2026-04-24T13:15:51.004Z</time></trkpt><trkpt lat="43.0308553" lon="12.8694726"><ele>782.0</ele><time>2026-04-24T13:15:52.001Z</time></trkpt><trkpt lat="43.0309542" lon="12.869308"><ele>785.6666666666667</ele><time>2026-04-24T13:15:52.984Z</time></trkpt><trkpt lat="43.0310574" lon="12.8691569"><ele>789.3333333333333</ele><time>2026-04-24T13:15:53.992Z</time></trkpt><trkpt lat="43.031161" lon="12.8689972"><ele>793.0</ele><time>2026-04-24T13:15:54.991Z</time></trkpt><trkpt lat="43.0312632" lon="12.8688568"><ele>793.0</ele><time>2026-04-24T13:15:55.999Z</time></trkpt><trkpt lat="43.031358" lon="12.8687411"><ele>793.0</ele><time>2026-04-24T13:15:57.002Z</time></trkpt><trkpt lat="43.0314628" lon="12.8686176"><ele>793.0</ele><time>2026-04-24T13:15:57.985Z</time></trkpt><trkpt lat="43.0315713" lon="12.868525"><ele>793.0</ele><time>2026-04-24T13:15:58.998Z</time></trkpt><trkpt lat="43.0316913" lon="12.8684723"><ele>792.25</ele><time>2026-04-24T13:15:59.991Z</time></trkpt><trkpt lat="43.031812" lon="12.8684659"><ele>791.5</ele><time>2026-04-24T13:16:00.978Z</time></trkpt><trkpt lat="43.0319339" lon="12.8685068"><ele>790.75</ele><time>2026-04-24T13:16:01.975Z</time></trkpt><trkpt lat="43.0320714" lon="12.8685913"><ele>790.0</ele><time>2026-04-24T13:16:02.983Z</time></trkpt><trkpt lat="43.0322174" lon="12.8686951"><ele>790.0</ele><time>2026-04-24T13:16:03.985Z</time></trkpt><trkpt lat="43.0323818" lon="12.8688089"><ele>790.0</ele><time>2026-04-24T13:16:04.973Z</time></trkpt><trkpt lat="43.032559" lon="12.8689225"><ele>790.0</ele><time>2026-04-24T13:16:05.974Z</time></trkpt><trkpt lat="43.0327221" lon="12.8690294"><ele>788.6666666666666</ele><time>2026-04-24T13:16:06.98Z</time></trkpt><trkpt lat="43.0328712" lon="12.8691128"><ele>787.3333333333333</ele><time>2026-04-24T13:16:07.991Z</time></trkpt><trkpt lat="43.0330116" lon="12.8692001"><ele>786.0</ele><time>2026-04-24T13:16:08.982Z</time></trkpt><trkpt lat="43.0331509" lon="12.8692762"><ele>786.0</ele><time>2026-04-24T13:16:09.984Z</time></trkpt><trkpt lat="43.0332881" lon="12.8693466"><ele>786.0</ele><time>2026-04-24T13:16:11.009Z</time></trkpt><trkpt lat="43.0334164" lon="12.8694202"><ele>786.0</ele><time>2026-04-24T13:16:11.991Z</time></trkpt><trkpt lat="43.0335386" lon="12.8694878"><ele>786.0</ele><time>2026-04-24T13:16:12.995Z</time></trkpt><trkpt lat="43.0336553" lon="12.8695524"><ele>786.75</ele><time>2026-04-24T13:16:13.996Z</time></trkpt><trkpt lat="43.0337737" lon="12.8695913"><ele>787.5</ele><time>2026-04-24T13:16:14.979Z</time></trkpt><trkpt lat="43.0338959" lon="12.8695867"><ele>788.25</ele><time>2026-04-24T13:16:16Z</time></trkpt><trkpt lat="43.0340326" lon="12.869541"><ele>789.0</ele><time>2026-04-24T13:16:16.985Z</time></trkpt><trkpt lat="43.0341806" lon="12.8694742"><ele>789.6666666666667</ele><time>2026-04-24T13:16:17.985Z</time></trkpt><trkpt lat="43.0343352" lon="12.869398"><ele>790.3333333333334</ele><time>2026-04-24T13:16:19.008Z</time></trkpt><trkpt lat="43.0344808" lon="12.8693347"><ele>791.0</ele><time>2026-04-24T13:16:19.989Z</time></trkpt><trkpt lat="43.0346297" lon="12.8693008"><ele>791.0</ele><time>2026-04-24T13:16:20.985Z</time></trkpt><trkpt lat="43.0347982" lon="12.8693078"><ele>791.0</ele><time>2026-04-24T13:16:22.011Z</time></trkpt><trkpt lat="43.0349588" lon="12.8693292"><ele>791.0</ele><time>2026-04-24T13:16:23.006Z</time></trkpt><trkpt lat="43.0351061" lon="12.869345"><ele>791.5</ele><time>2026-04-24T13:16:23.992Z</time></trkpt><trkpt lat="43.0352342" lon="12.8693368"><ele>792.0</ele><time>2026-04-24T13:16:24.985Z</time></trkpt><trkpt lat="43.0353492" lon="12.8692991"><ele>792.5</ele><time>2026-04-24T13:16:25.988Z</time></trkpt><trkpt lat="43.0354579" lon="12.8692254"><ele>793.0</ele><time>2026-04-24T13:16:27.01Z</time></trkpt><trkpt lat="43.0355528" lon="12.8691193"><ele>793.0</ele><time>2026-04-24T13:16:27.992Z</time></trkpt><trkpt lat="43.035631" lon="12.8689751"><ele>793.0</ele><time>2026-04-24T13:16:29.01Z</time></trkpt><trkpt lat="43.0356814" lon="12.8688118"><ele>793.0</ele><time>2026-04-24T13:16:29.99Z</time></trkpt><trkpt lat="43.0357095" lon="12.8686426"><ele>793.0</ele><time>2026-04-24T13:16:30.988Z</time></trkpt><trkpt lat="43.0357206" lon="12.8684634"><ele>793.0</ele><time>2026-04-24T13:16:31.986Z</time></trkpt><trkpt lat="43.0357352" lon="12.8682792"><ele>793.0</ele><time>2026-04-24T13:16:32.984Z</time></trkpt><trkpt lat="43.0357755" lon="12.8681127"><ele>793.0</ele><time>2026-04-24T13:16:33.993Z</time></trkpt><trkpt lat="43.0358579" lon="12.8679789"><ele>793.0</ele><time>2026-04-24T13:16:34.991Z</time></trkpt><trkpt lat="43.0359663" lon="12.8678791"><ele>793.0</ele><time>2026-04-24T13:16:35.984Z</time></trkpt><trkpt lat="43.0360972" lon="12.8677747"><ele>793.0</ele><time>2026-04-24T13:16:36.982Z</time></trkpt><trkpt lat="43.0362328" lon="12.8676592"><ele>793.0</ele><time>2026-04-24T13:16:38.002Z</time></trkpt><trkpt lat="43.0363511" lon="12.8675295"><ele>794.25</ele><time>2026-04-24T13:16:38.988Z</time></trkpt><trkpt lat="43.0364619" lon="12.8673885"><ele>795.5</ele><time>2026-04-24T13:16:39.994Z</time></trkpt><trkpt lat="43.0365546" lon="12.8672361"><ele>796.75</ele><time>2026-04-24T13:16:41.013Z</time></trkpt><trkpt lat="43.0366324" lon="12.8670845"><ele>798.0</ele><time>2026-04-24T13:16:41.99Z</time></trkpt><trkpt lat="43.0366961" lon="12.8669259"><ele>796.75</ele><time>2026-04-24T13:16:42.971Z</time></trkpt><trkpt lat="43.0367343" lon="12.8667589"><ele>795.5</ele><time>2026-04-24T13:16:43.989Z</time></trkpt><trkpt lat="43.0367502" lon="12.866581"><ele>794.25</ele><time>2026-04-24T13:16:45.009Z</time></trkpt><trkpt lat="43.0367442" lon="12.8663958"><ele>793.0</ele><time>2026-04-24T13:16:46.007Z</time></trkpt><trkpt lat="43.0367158" lon="12.8662007"><ele>793.0</ele><time>2026-04-24T13:16:46.989Z</time></trkpt><trkpt lat="43.0366734" lon="12.8660068"><ele>793.0</ele><time>2026-04-24T13:16:47.968Z</time></trkpt><trkpt lat="43.0366363" lon="12.865805"><ele>793.0</ele><time>2026-04-24T13:16:48.998Z</time></trkpt><trkpt lat="43.0366058" lon="12.8655916"><ele>796.0</ele><time>2026-04-24T13:16:49.997Z</time></trkpt><trkpt lat="43.036591" lon="12.8653771"><ele>799.0</ele><time>2026-04-24T13:16:50.993Z</time></trkpt><trkpt lat="43.0365861" lon="12.8651637"><ele>802.0</ele><time>2026-04-24T13:16:51.98Z</time></trkpt><trkpt lat="43.03659" lon="12.8649422"><ele>802.0</ele><time>2026-04-24T13:16:52.987Z</time></trkpt><trkpt lat="43.0366021" lon="12.864734"><ele>802.0</ele><time>2026-04-24T13:16:54.008Z</time></trkpt><trkpt lat="43.0366469" lon="12.8645379"><ele>802.0</ele><time>2026-04-24T13:16:55.007Z</time></trkpt><trkpt lat="43.0367225" lon="12.8643624"><ele>798.3333333333333</ele><time>2026-04-24T13:16:55.982Z</time></trkpt><trkpt lat="43.036829" lon="12.8641833"><ele>794.6666666666667</ele><time>2026-04-24T13:16:56.984Z</time></trkpt><trkpt lat="43.0369405" lon="12.8640058"><ele>791.0</ele><time>2026-04-24T13:16:57.99Z</time></trkpt><trkpt lat="43.0370223" lon="12.863833"><ele>791.0</ele><time>2026-04-24T13:16:59.008Z</time></trkpt><trkpt lat="43.0370876" lon="12.8636648"><ele>791.0</ele><time>2026-04-24T13:16:59.982Z</time></trkpt><trkpt lat="43.037141" lon="12.8635088"><ele>791.0</ele><time>2026-04-24T13:17:01Z</time></trkpt><trkpt lat="43.0371733" lon="12.8633252"><ele>791.0</ele><time>2026-04-24T13:17:01.983Z</time></trkpt><trkpt lat="43.0371734" lon="12.8631227"><ele>791.6666666666667</ele><time>2026-04-24T13:17:02.997Z</time></trkpt><trkpt lat="43.0371519" lon="12.8629093"><ele>792.3333333333333</ele><time>2026-04-24T13:17:03.987Z</time></trkpt><trkpt lat="43.0371224" lon="12.8626875"><ele>793.0</ele><time>2026-04-24T13:17:04.997Z</time></trkpt><trkpt lat="43.0371058" lon="12.8624582"><ele>793.0</ele><time>2026-04-24T13:17:05.991Z</time></trkpt><trkpt lat="43.0371073" lon="12.8622266"><ele>793.0</ele><time>2026-04-24T13:17:06.979Z</time></trkpt><trkpt lat="43.0371322" lon="12.8619964"><ele>793.0</ele><time>2026-04-24T13:17:07.982Z</time></trkpt><trkpt lat="43.0371754" lon="12.8617632"><ele>793.0</ele><time>2026-04-24T13:17:08.982Z</time></trkpt><trkpt lat="43.0372381" lon="12.8615439"><ele>793.0</ele><time>2026-04-24T13:17:09.995Z</time></trkpt><trkpt lat="43.0373032" lon="12.8613418"><ele>793.0</ele><time>2026-04-24T13:17:10.988Z</time></trkpt><trkpt lat="43.0373618" lon="12.8611532"><ele>793.0</ele><time>2026-04-24T13:17:11.981Z</time></trkpt><trkpt lat="43.0374145" lon="12.8609756"><ele>793.0</ele><time>2026-04-24T13:17:12.998Z</time></trkpt><trkpt lat="43.037444" lon="12.860815"><ele>793.0</ele><time>2026-04-24T13:17:14.008Z</time></trkpt><trkpt lat="43.0374317" lon="12.8606446"><ele>793.0</ele><time>2026-04-24T13:17:14.999Z</time></trkpt><trkpt lat="43.0373768" lon="12.8604584"><ele>793.25</ele><time>2026-04-24T13:17:15.999Z</time></trkpt><trkpt lat="43.0372979" lon="12.8603034"><ele>793.5</ele><time>2026-04-24T13:17:17.002Z</time></trkpt><trkpt lat="43.0372125" lon="12.8601655"><ele>793.75</ele><time>2026-04-24T13:17:17.981Z</time></trkpt><trkpt lat="43.0371236" lon="12.8600312"><ele>794.0</ele><time>2026-04-24T13:17:18.977Z</time></trkpt><trkpt lat="43.0370514" lon="12.8598754"><ele>792.25</ele><time>2026-04-24T13:17:19.982Z</time></trkpt><trkpt lat="43.0370151" lon="12.8596956"><ele>790.5</ele><time>2026-04-24T13:17:20.997Z</time></trkpt><trkpt lat="43.0370068" lon="12.8595143"><ele>788.75</ele><time>2026-04-24T13:17:21.979Z</time></trkpt><trkpt lat="43.037033" lon="12.8593236"><ele>787.0</ele><time>2026-04-24T13:17:23.002Z</time></trkpt><trkpt lat="43.037067" lon="12.8591217"><ele>785.0</ele><time>2026-04-24T13:17:23.984Z</time></trkpt><trkpt lat="43.0370966" lon="12.858907"><ele>783.0</ele><time>2026-04-24T13:17:25.006Z</time></trkpt><trkpt lat="43.0371283" lon="12.8586772"><ele>781.0</ele><time>2026-04-24T13:17:25.985Z</time></trkpt><trkpt lat="43.0371682" lon="12.8584461"><ele>780.3333333333333</ele><time>2026-04-24T13:17:26.986Z</time></trkpt><trkpt lat="43.0372064" lon="12.8582099"><ele>779.6666666666667</ele><time>2026-04-24T13:17:28.004Z</time></trkpt><trkpt lat="43.0372422" lon="12.857966"><ele>779.0</ele><time>2026-04-24T13:17:28.974Z</time></trkpt><trkpt lat="43.0372797" lon="12.8577215"><ele>779.0</ele><time>2026-04-24T13:17:29.965Z</time></trkpt><trkpt lat="43.0373146" lon="12.8574853"><ele>779.0</ele><time>2026-04-24T13:17:30.995Z</time></trkpt><trkpt lat="43.0373442" lon="12.8572703"><ele>779.0</ele><time>2026-04-24T13:17:31.992Z</time></trkpt><trkpt lat="43.037366" lon="12.8570661"><ele>779.0</ele><time>2026-04-24T13:17:33Z</time></trkpt><trkpt lat="43.0373921" lon="12.8568807"><ele>779.0</ele><time>2026-04-24T13:17:33.986Z</time></trkpt><trkpt lat="43.0374367" lon="12.8567067"><ele>779.0</ele><time>2026-04-24T13:17:34.981Z</time></trkpt><trkpt lat="43.0374963" lon="12.8565449"><ele>779.0</ele><time>2026-04-24T13:17:35.982Z</time></trkpt><trkpt lat="43.0375751" lon="12.8564026"><ele>781.75</ele><time>2026-04-24T13:17:37.006Z</time></trkpt><trkpt lat="43.0376642" lon="12.8562679"><ele>784.5</ele><time>2026-04-24T13:17:37.974Z</time></trkpt><trkpt lat="43.0377285" lon="12.8561222"><ele>787.25</ele><time>2026-04-24T13:17:38.994Z</time></trkpt><trkpt lat="43.0377632" lon="12.8559636"><ele>790.0</ele><time>2026-04-24T13:17:40.003Z</time></trkpt><trkpt lat="43.0377703" lon="12.8558047"><ele>790.0</ele><time>2026-04-24T13:17:40.983Z</time></trkpt><trkpt lat="43.0377414" lon="12.85565"><ele>790.0</ele><time>2026-04-24T13:17:41.979Z</time></trkpt><trkpt lat="43.0377095" lon="12.8554923"><ele>790.0</ele><time>2026-04-24T13:17:42.976Z</time></trkpt><trkpt lat="43.0376996" lon="12.8553185"><ele>790.0</ele><time>2026-04-24T13:17:43.993Z</time></trkpt><trkpt lat="43.0377207" lon="12.8551214"><ele>791.0</ele><time>2026-04-24T13:17:44.989Z</time></trkpt><trkpt lat="43.0377564" lon="12.8549254"><ele>792.0</ele><time>2026-04-24T13:17:45.986Z</time></trkpt><trkpt lat="43.0377968" lon="12.8547174"><ele>793.0</ele><time>2026-04-24T13:17:46.991Z</time></trkpt><trkpt lat="43.0378297" lon="12.854505"><ele>794.3333333333333</ele><time>2026-04-24T13:17:47.997Z</time></trkpt><trkpt lat="43.0378606" lon="12.8542878"><ele>795.6666666666667</ele><time>2026-04-24T13:17:48.987Z</time></trkpt><trkpt lat="43.0379062" lon="12.8540819"><ele>797.0</ele><time>2026-04-24T13:17:49.986Z</time></trkpt><trkpt lat="43.0379733" lon="12.8538844"><ele>797.0</ele><time>2026-04-24T13:17:50.991Z</time></trkpt><trkpt lat="43.0380569" lon="12.8536925"><ele>797.0</ele><time>2026-04-24T13:17:51.982Z</time></trkpt><trkpt lat="43.038156" lon="12.8535236"><ele>797.0</ele><time>2026-04-24T13:17:52.989Z</time></trkpt><trkpt lat="43.0382627" lon="12.8533669"><ele>800.0</ele><time>2026-04-24T13:17:53.962Z</time></trkpt><trkpt lat="43.0383669" lon="12.8532118"><ele>803.0</ele><time>2026-04-24T13:17:55.007Z</time></trkpt><trkpt lat="43.0384524" lon="12.8530416"><ele>806.0</ele><time>2026-04-24T13:17:56Z</time></trkpt><trkpt lat="43.0385001" lon="12.8528373"><ele>805.3333333333334</ele><time>2026-04-24T13:17:56.984Z</time></trkpt><trkpt lat="43.0385217" lon="12.8526158"><ele>804.6666666666667</ele><time>2026-04-24T13:17:57.997Z</time></trkpt><trkpt lat="43.038528" lon="12.8523763"><ele>804.0</ele><time>2026-04-24T13:17:58.984Z</time></trkpt><trkpt lat="43.0385349" lon="12.8521302"><ele>804.0</ele><time>2026-04-24T13:18:00.003Z</time></trkpt><trkpt lat="43.0385397" lon="12.8518751"><ele>804.0</ele><time>2026-04-24T13:18:00.99Z</time></trkpt><trkpt lat="43.0385415" lon="12.8516062"><ele>804.0</ele><time>2026-04-24T13:18:01.993Z</time></trkpt><trkpt lat="43.0385454" lon="12.8513396"><ele>804.0</ele><time>2026-04-24T13:18:02.993Z</time></trkpt><trkpt lat="43.0385502" lon="12.8510913"><ele>804.0</ele><time>2026-04-24T13:18:03.972Z</time></trkpt><trkpt lat="43.038557" lon="12.8508661"><ele>804.0</ele><time>2026-04-24T13:18:04.985Z</time></trkpt><trkpt lat="43.0385576" lon="12.8506386"><ele>804.0</ele><time>2026-04-24T13:18:05.958Z</time></trkpt><trkpt lat="43.0385393" lon="12.850418"><ele>804.0</ele><time>2026-04-24T13:18:06.984Z</time></trkpt><trkpt lat="43.0385101" lon="12.8502185"><ele>804.0</ele><time>2026-04-24T13:18:07.99Z</time></trkpt><trkpt lat="43.0384712" lon="12.8500321"><ele>806.0</ele><time>2026-04-24T13:18:08.988Z</time></trkpt><trkpt lat="43.03841" lon="12.8498493"><ele>808.0</ele><time>2026-04-24T13:18:10.009Z</time></trkpt><trkpt lat="43.0383338" lon="12.8496742"><ele>810.0</ele><time>2026-04-24T13:18:10.994Z</time></trkpt><trkpt lat="43.0382329" lon="12.8495134"><ele>808.0</ele><time>2026-04-24T13:18:11.994Z</time></trkpt><trkpt lat="43.0381232" lon="12.8493722"><ele>806.0</ele><time>2026-04-24T13:18:12.984Z</time></trkpt><trkpt lat="43.0380004" lon="12.8492338"><ele>804.0</ele><time>2026-04-24T13:18:13.993Z</time></trkpt><trkpt lat="43.0378851" lon="12.8490748"><ele>804.0</ele><time>2026-04-24T13:18:14.987Z</time></trkpt><trkpt lat="43.0377915" lon="12.8488976"><ele>804.0</ele><time>2026-04-24T13:18:15.98Z</time></trkpt><trkpt lat="43.0377045" lon="12.8487152"><ele>804.0</ele><time>2026-04-24T13:18:16.987Z</time></trkpt><trkpt lat="43.0376205" lon="12.8485028"><ele>805.6666666666667</ele><time>2026-04-24T13:18:17.984Z</time></trkpt><trkpt lat="43.0375414" lon="12.8482957"><ele>807.3333333333334</ele><time>2026-04-24T13:18:18.997Z</time></trkpt><trkpt lat="43.0374881" lon="12.8481001"><ele>809.0</ele><time>2026-04-24T13:18:19.986Z</time></trkpt><trkpt lat="43.0374455" lon="12.8478962"><ele>807.75</ele><time>2026-04-24T13:18:20.982Z</time></trkpt><trkpt lat="43.0373958" lon="12.8477094"><ele>806.5</ele><time>2026-04-24T13:18:21.999Z</time></trkpt><trkpt lat="43.0373367" lon="12.8475398"><ele>805.25</ele><time>2026-04-24T13:18:22.988Z</time></trkpt><trkpt lat="43.0372773" lon="12.8473892"><ele>804.0</ele><time>2026-04-24T13:18:23.996Z</time></trkpt><trkpt lat="43.0372276" lon="12.8472404"><ele>804.0</ele><time>2026-04-24T13:18:24.996Z</time></trkpt><trkpt lat="43.0371915" lon="12.8470871"><ele>804.0</ele><time>2026-04-24T13:18:25.985Z</time></trkpt><trkpt lat="43.0371669" lon="12.8469339"><ele>804.0</ele><time>2026-04-24T13:18:27.002Z</time></trkpt><trkpt lat="43.0371453" lon="12.8467916"><ele>804.0</ele><time>2026-04-24T13:18:27.99Z</time></trkpt><trkpt lat="43.0371388" lon="12.8466683"><ele>804.0</ele><time>2026-04-24T13:18:28.975Z</time></trkpt><trkpt lat="43.0371488" lon="12.8465625"><ele>804.8571428571428</ele><time>2026-04-24T13:18:29.998Z</time></trkpt><trkpt lat="43.0371708" lon="12.8464774"><ele>805.7142857142858</ele><time>2026-04-24T13:18:31.011Z</time></trkpt><trkpt lat="43.0371954" lon="12.8463967"><ele>806.5714285714286</ele><time>2026-04-24T13:18:31.976Z</time></trkpt><trkpt lat="43.0372306" lon="12.8463248"><ele>807.4285714285713</ele><time>2026-04-24T13:18:32.983Z</time></trkpt><trkpt lat="43.0372965" lon="12.8462824"><ele>808.2857142857142</ele><time>2026-04-24T13:18:33.989Z</time></trkpt><trkpt lat="43.0373766" lon="12.8463022"><ele>809.1428571428571</ele><time>2026-04-24T13:18:34.989Z</time></trkpt><trkpt lat="43.0374569" lon="12.8463676"><ele>810.0</ele><time>2026-04-24T13:18:35.984Z</time></trkpt><trkpt lat="43.0375299" lon="12.8464383"><ele>813.0</ele><time>2026-04-24T13:18:36.983Z</time></trkpt><trkpt lat="43.037618" lon="12.8465191"><ele>816.0</ele><time>2026-04-24T13:18:37.989Z</time></trkpt><trkpt lat="43.0377143" lon="12.8466011"><ele>819.0</ele><time>2026-04-24T13:18:39.007Z</time></trkpt><trkpt lat="43.0378176" lon="12.8466786"><ele>822.0</ele><time>2026-04-24T13:18:39.992Z</time></trkpt><trkpt lat="43.0379291" lon="12.8467607"><ele>823.1666666666666</ele><time>2026-04-24T13:18:40.992Z</time></trkpt><trkpt lat="43.0380356" lon="12.8468402"><ele>824.3333333333333</ele><time>2026-04-24T13:18:41.983Z</time></trkpt><trkpt lat="43.038126" lon="12.8469018"><ele>825.5</ele><time>2026-04-24T13:18:42.965Z</time></trkpt><trkpt lat="43.038197" lon="12.8469448"><ele>826.6666666666666</ele><time>2026-04-24T13:18:43.999Z</time></trkpt><trkpt lat="43.0382646" lon="12.8469271"><ele>827.8333333333333</ele><time>2026-04-24T13:18:45.008Z</time></trkpt><trkpt lat="43.0383053" lon="12.8468557"><ele>829.0</ele><time>2026-04-24T13:18:45.985Z</time></trkpt><trkpt lat="43.0383204" lon="12.8467542"><ele>830.2</ele><time>2026-04-24T13:18:46.98Z</time></trkpt><trkpt lat="43.0383082" lon="12.8466244"><ele>831.4000000000001</ele><time>2026-04-24T13:18:47.977Z</time></trkpt><trkpt lat="43.0382897" lon="12.8464884"><ele>832.6</ele><time>2026-04-24T13:18:48.988Z</time></trkpt><trkpt lat="43.0382888" lon="12.8463367"><ele>833.8</ele><time>2026-04-24T13:18:49.968Z</time></trkpt><trkpt lat="43.0383226" lon="12.8461782"><ele>835.0</ele><time>2026-04-24T13:18:50.991Z</time></trkpt><trkpt lat="43.0383701" lon="12.8460437"><ele>835.4</ele><time>2026-04-24T13:18:51.981Z</time></trkpt><trkpt lat="43.0384145" lon="12.8459232"><ele>835.8</ele><time>2026-04-24T13:18:52.986Z</time></trkpt><trkpt lat="43.0384678" lon="12.8458281"><ele>836.2</ele><time>2026-04-24T13:18:53.992Z</time></trkpt><trkpt lat="43.0385428" lon="12.8457867"><ele>836.6</ele><time>2026-04-24T13:18:54.989Z</time></trkpt><trkpt lat="43.0386465" lon="12.845798"><ele>837.0</ele><time>2026-04-24T13:18:55.975Z</time></trkpt><trkpt lat="43.0387578" lon="12.8458189"><ele>837.0</ele><time>2026-04-24T13:18:56.998Z</time></trkpt><trkpt lat="43.038885" lon="12.845851"><ele>837.0</ele><time>2026-04-24T13:18:57.978Z</time></trkpt><trkpt lat="43.0390338" lon="12.8458678"><ele>837.0</ele><time>2026-04-24T13:18:59.001Z</time></trkpt><trkpt lat="43.0391838" lon="12.8458472"><ele>837.0</ele><time>2026-04-24T13:18:59.986Z</time></trkpt><trkpt lat="43.0393258" lon="12.8457856"><ele>840.25</ele><time>2026-04-24T13:19:01.006Z</time></trkpt><trkpt lat="43.0394316" lon="12.8457019"><ele>843.5</ele><time>2026-04-24T13:19:01.993Z</time></trkpt><trkpt lat="43.0395008" lon="12.8455658"><ele>846.75</ele><time>2026-04-24T13:19:02.999Z</time></trkpt><trkpt lat="43.0395481" lon="12.8454111"><ele>850.0</ele><time>2026-04-24T13:19:03.981Z</time></trkpt><trkpt lat="43.0395629" lon="12.8452095"><ele>850.0</ele><time>2026-04-24T13:19:05.002Z</time></trkpt><trkpt lat="43.0395695" lon="12.8449935"><ele>850.0</ele><time>2026-04-24T13:19:05.972Z</time></trkpt><trkpt lat="43.039571" lon="12.8447479"><ele>850.0</ele><time>2026-04-24T13:19:06.968Z</time></trkpt><trkpt lat="43.0395546" lon="12.844479"><ele>854.0</ele><time>2026-04-24T13:19:07.969Z</time></trkpt><trkpt lat="43.039481" lon="12.8436979"><ele>854.0</ele><time>2026-04-24T13:19:10.986Z</time></trkpt><trkpt lat="43.0394987" lon="12.8434765"><ele>854.0</ele><time>2026-04-24T13:19:11.975Z</time></trkpt><trkpt lat="43.0395414" lon="12.8432626"><ele>854.0</ele><time>2026-04-24T13:19:12.974Z</time></trkpt><trkpt lat="43.0395733" lon="12.8431098"><ele>854.0</ele><time>2026-04-24T13:19:13.987Z</time></trkpt><trkpt lat="43.0396016" lon="12.8429966"><ele>854.2</ele><time>2026-04-24T13:19:14.975Z</time></trkpt><trkpt lat="43.039589" lon="12.8428399"><ele>854.4000000000001</ele><time>2026-04-24T13:19:16.994Z</time></trkpt><trkpt lat="43.0395799" lon="12.8427263"><ele>854.6</ele><time>2026-04-24T13:19:17.965Z</time></trkpt><trkpt lat="43.0395655" lon="12.8425918"><ele>854.8</ele><time>2026-04-24T13:19:18.979Z</time></trkpt><trkpt lat="43.0395429" lon="12.8424209"><ele>855.0</ele><time>2026-04-24T13:19:19.982Z</time></trkpt><trkpt lat="43.0395211" lon="12.8422232"><ele>855.0</ele><time>2026-04-24T13:19:21.004Z</time></trkpt><trkpt lat="43.0394966" lon="12.8420121"><ele>855.0</ele><time>2026-04-24T13:19:21.994Z</time></trkpt><trkpt lat="43.0394799" lon="12.8417952"><ele>855.0</ele><time>2026-04-24T13:19:22.984Z</time></trkpt><trkpt lat="43.0394686" lon="12.8415867"><ele>855.5</ele><time>2026-04-24T13:19:23.988Z</time></trkpt><trkpt lat="43.0394623" lon="12.8413911"><ele>856.0</ele><time>2026-04-24T13:19:24.995Z</time></trkpt><trkpt lat="43.0394399" lon="12.8412004"><ele>856.5</ele><time>2026-04-24T13:19:26.003Z</time></trkpt><trkpt lat="43.0394103" lon="12.8410208"><ele>857.0</ele><time>2026-04-24T13:19:26.976Z</time></trkpt><trkpt lat="43.0393707" lon="12.8408606"><ele>857.2</ele><time>2026-04-24T13:19:27.992Z</time></trkpt><trkpt lat="43.0393342" lon="12.8407354"><ele>857.4000000000001</ele><time>2026-04-24T13:19:28.996Z</time></trkpt><trkpt lat="43.0393041" lon="12.8406534"><ele>857.5999999999999</ele><time>2026-04-24T13:19:29.977Z</time></trkpt><trkpt lat="43.0392757" lon="12.8405224"><ele>857.8</ele><time>2026-04-24T13:19:31.992Z</time></trkpt><trkpt lat="43.0392698" lon="12.8403769"><ele>858.0</ele><time>2026-04-24T13:19:33.995Z</time></trkpt><trkpt lat="43.0392535" lon="12.8402085"><ele>858.8333333333334</ele><time>2026-04-24T13:19:35.985Z</time></trkpt><trkpt lat="43.0392465" lon="12.8401214"><ele>859.6666666666667</ele><time>2026-04-24T13:19:37.008Z</time></trkpt><trkpt lat="43.0392289" lon="12.840026"><ele>860.5</ele><time>2026-04-24T13:19:37.986Z</time></trkpt><trkpt lat="43.0392167" lon="12.8399183"><ele>861.3333333333334</ele><time>2026-04-24T13:19:38.976Z</time></trkpt><trkpt lat="43.0392081" lon="12.8397966"><ele>862.1666666666667</ele><time>2026-04-24T13:19:39.977Z</time></trkpt><trkpt lat="43.0392112" lon="12.8396661"><ele>863.0</ele><time>2026-04-24T13:19:40.994Z</time></trkpt><trkpt lat="43.0392155" lon="12.8395433"><ele>863.0000000000001</ele><time>2026-04-24T13:19:41.982Z</time></trkpt><trkpt lat="43.0392335" lon="12.8394321"><ele>863.0</ele><time>2026-04-24T13:19:42.981Z</time></trkpt><trkpt lat="43.03928" lon="12.8393238"><ele>863.0</ele><time>2026-04-24T13:19:43.978Z</time></trkpt><trkpt lat="43.0393354" lon="12.8392255"><ele>863.0</ele><time>2026-04-24T13:19:44.988Z</time></trkpt><trkpt lat="43.0393929" lon="12.8391383"><ele>863.0000000000001</ele><time>2026-04-24T13:19:45.98Z</time></trkpt><trkpt lat="43.0394409" lon="12.8390527"><ele>863.0</ele><time>2026-04-24T13:19:46.985Z</time></trkpt><trkpt lat="43.0394907" lon="12.8389575"><ele>864.8333333333334</ele><time>2026-04-24T13:19:47.979Z</time></trkpt><trkpt lat="43.0395338" lon="12.8388632"><ele>866.6666666666667</ele><time>2026-04-24T13:19:48.996Z</time></trkpt><trkpt lat="43.0395749" lon="12.8387727"><ele>868.5</ele><time>2026-04-24T13:19:49.98Z</time></trkpt><trkpt lat="43.039611" lon="12.8386778"><ele>870.3333333333333</ele><time>2026-04-24T13:19:50.987Z</time></trkpt><trkpt lat="43.0396539" lon="12.8385691"><ele>872.1666666666666</ele><time>2026-04-24T13:19:51.968Z</time></trkpt><trkpt lat="43.0396991" lon="12.8384602"><ele>874.0</ele><time>2026-04-24T13:19:52.991Z</time></trkpt><trkpt lat="43.0397324" lon="12.838355"><ele>875.3333333333333</ele><time>2026-04-24T13:19:53.976Z</time></trkpt><trkpt lat="43.0397634" lon="12.8382702"><ele>876.6666666666666</ele><time>2026-04-24T13:19:54.986Z</time></trkpt><trkpt lat="43.0397889" lon="12.8381218"><ele>878.0</ele><time>2026-04-24T13:19:56.997Z</time></trkpt><trkpt lat="43.0397711" lon="12.8379648"><ele>879.3333333333333</ele><time>2026-04-24T13:19:58.981Z</time></trkpt><trkpt lat="43.0397449" lon="12.8378757"><ele>880.6666666666666</ele><time>2026-04-24T13:19:59.975Z</time></trkpt><trkpt lat="43.0397005" lon="12.837784"><ele>882.0</ele><time>2026-04-24T13:20:00.993Z</time></trkpt><trkpt lat="43.0396497" lon="12.8376949"><ele>880.8571428571429</ele><time>2026-04-24T13:20:01.976Z</time></trkpt><trkpt lat="43.0395977" lon="12.837622"><ele>879.7142857142858</ele><time>2026-04-24T13:20:02.986Z</time></trkpt><trkpt lat="43.0395526" lon="12.8375587"><ele>878.5714285714286</ele><time>2026-04-24T13:20:03.994Z</time></trkpt><trkpt lat="43.0395048" lon="12.8374874"><ele>877.4285714285714</ele><time>2026-04-24T13:20:05.007Z</time></trkpt><trkpt lat="43.0394473" lon="12.8374105"><ele>876.2857142857143</ele><time>2026-04-24T13:20:05.98Z</time></trkpt><trkpt lat="43.0393872" lon="12.8373387"><ele>875.1428571428571</ele><time>2026-04-24T13:20:06.987Z</time></trkpt><trkpt lat="43.0393288" lon="12.8372723"><ele>874.0</ele><time>2026-04-24T13:20:07.981Z</time></trkpt><trkpt lat="43.0392667" lon="12.8372118"><ele>873.9999999999999</ele><time>2026-04-24T13:20:08.983Z</time></trkpt><trkpt lat="43.0391962" lon="12.8371633"><ele>874.0</ele><time>2026-04-24T13:20:09.987Z</time></trkpt><trkpt lat="43.0391136" lon="12.8371231"><ele>874.0</ele><time>2026-04-24T13:20:10.985Z</time></trkpt><trkpt lat="43.039035" lon="12.8370772"><ele>874.0</ele><time>2026-04-24T13:20:11.994Z</time></trkpt><trkpt lat="43.0389655" lon="12.8370311"><ele>873.9999999999999</ele><time>2026-04-24T13:20:12.985Z</time></trkpt><trkpt lat="43.0388999" lon="12.8369882"><ele>874.0</ele><time>2026-04-24T13:20:13.983Z</time></trkpt><trkpt lat="43.0388391" lon="12.8369492"><ele>874.8571428571428</ele><time>2026-04-24T13:20:14.99Z</time></trkpt><trkpt lat="43.0387784" lon="12.8368999"><ele>875.7142857142858</ele><time>2026-04-24T13:20:15.978Z</time></trkpt><trkpt lat="43.0387194" lon="12.836847"><ele>876.5714285714286</ele><time>2026-04-24T13:20:16.973Z</time></trkpt><trkpt lat="43.0386597" lon="12.8367892"><ele>877.4285714285713</ele><time>2026-04-24T13:20:17.98Z</time></trkpt><trkpt lat="43.0386055" lon="12.8367322"><ele>878.2857142857142</ele><time>2026-04-24T13:20:18.983Z</time></trkpt><trkpt lat="43.0385552" lon="12.8366723"><ele>879.1428571428571</ele><time>2026-04-24T13:20:19.994Z</time></trkpt><trkpt lat="43.0385065" lon="12.8366154"><ele>880.0</ele><time>2026-04-24T13:20:20.986Z</time></trkpt><trkpt lat="43.0384651" lon="12.8364646"><ele>879.9999999999999</ele><time>2026-04-24T13:20:22.986Z</time></trkpt><trkpt lat="43.0384808" lon="12.8363455"><ele>880.0</ele><time>2026-04-24T13:20:23.976Z</time></trkpt><trkpt lat="43.0385156" lon="12.8362378"><ele>880.0</ele><time>2026-04-24T13:20:24.988Z</time></trkpt><trkpt lat="43.0385618" lon="12.8361297"><ele>880.0</ele><time>2026-04-24T13:20:25.977Z</time></trkpt><trkpt lat="43.0386028" lon="12.8360148"><ele>879.9999999999999</ele><time>2026-04-24T13:20:26.985Z</time></trkpt><trkpt lat="43.0386266" lon="12.8359094"><ele>880.0</ele><time>2026-04-24T13:20:27.995Z</time></trkpt><trkpt lat="43.0386307" lon="12.8358154"><ele>879.6666666666666</ele><time>2026-04-24T13:20:28.982Z</time></trkpt><trkpt lat="43.0386083" lon="12.8357174"><ele>879.3333333333333</ele><time>2026-04-24T13:20:29.987Z</time></trkpt><trkpt lat="43.0385689" lon="12.8356138"><ele>879.0</ele><time>2026-04-24T13:20:30.998Z</time></trkpt><trkpt lat="43.0385274" lon="12.8355283"><ele>878.6666666666667</ele><time>2026-04-24T13:20:31.986Z</time></trkpt><trkpt lat="43.0384735" lon="12.8353805"><ele>878.3333333333334</ele><time>2026-04-24T13:20:33.983Z</time></trkpt><trkpt lat="43.0384617" lon="12.8352703"><ele>878.0</ele><time>2026-04-24T13:20:34.974Z</time></trkpt><trkpt lat="43.0384751" lon="12.8351371"><ele>877.4</ele><time>2026-04-24T13:20:35.969Z</time></trkpt><trkpt lat="43.0385037" lon="12.835005"><ele>876.8</ele><time>2026-04-24T13:20:36.986Z</time></trkpt><trkpt lat="43.0385345" lon="12.8348762"><ele>876.2</ele><time>2026-04-24T13:20:37.972Z</time></trkpt><trkpt lat="43.0385659" lon="12.8347777"><ele>875.6</ele><time>2026-04-24T13:20:38.99Z</time></trkpt><trkpt lat="43.0385864" lon="12.8346788"><ele>875.0</ele><time>2026-04-24T13:20:40.996Z</time></trkpt><trkpt lat="43.0386048" lon="12.8345363"><ele>875.0</ele><time>2026-04-24T13:20:43.986Z</time></trkpt><trkpt lat="43.038614" lon="12.8343659"><ele>875.0</ele><time>2026-04-24T13:20:45.98Z</time></trkpt><trkpt lat="43.0386092" lon="12.8341753"><ele>875.0</ele><time>2026-04-24T13:20:47.97Z</time></trkpt><trkpt lat="43.0385923" lon="12.834063"><ele>875.0</ele><time>2026-04-24T13:20:48.998Z</time></trkpt><trkpt lat="43.0385672" lon="12.8339634"><ele>875.0</ele><time>2026-04-24T13:20:49.994Z</time></trkpt><trkpt lat="43.0385319" lon="12.8338643"><ele>874.0000000000001</ele><time>2026-04-24T13:20:50.989Z</time></trkpt><trkpt lat="43.0384991" lon="12.8337637"><ele>873.0</ele><time>2026-04-24T13:20:51.977Z</time></trkpt><trkpt lat="43.0384689" lon="12.833665"><ele>872.0</ele><time>2026-04-24T13:20:52.983Z</time></trkpt><trkpt lat="43.0384425" lon="12.833557"><ele>871.0</ele><time>2026-04-24T13:20:53.999Z</time></trkpt><trkpt lat="43.0384163" lon="12.833443"><ele>870.0000000000001</ele><time>2026-04-24T13:20:54.989Z</time></trkpt><trkpt lat="43.0383841" lon="12.8333306"><ele>869.0</ele><time>2026-04-24T13:20:55.978Z</time></trkpt><trkpt lat="43.0383555" lon="12.8332266"><ele>868.5000000000001</ele><time>2026-04-24T13:20:56.994Z</time></trkpt><trkpt lat="43.0383373" lon="12.8331257"><ele>868.0</ele><time>2026-04-24T13:20:57.989Z</time></trkpt><trkpt lat="43.0383275" lon="12.8330295"><ele>867.5</ele><time>2026-04-24T13:20:58.979Z</time></trkpt><trkpt lat="43.0383316" lon="12.8329125"><ele>867.0</ele><time>2026-04-24T13:20:59.971Z</time></trkpt><trkpt lat="43.0383585" lon="12.8327809"><ele>866.5000000000001</ele><time>2026-04-24T13:21:00.98Z</time></trkpt><trkpt lat="43.0383913" lon="12.8326619"><ele>866.0</ele><time>2026-04-24T13:21:01.991Z</time></trkpt><trkpt lat="43.0384167" lon="12.8325266"><ele>866.0000000000001</ele><time>2026-04-24T13:21:02.978Z</time></trkpt><trkpt lat="43.0384331" lon="12.8324003"><ele>866.0</ele><time>2026-04-24T13:21:03.986Z</time></trkpt><trkpt lat="43.038449" lon="12.8322794"><ele>866.0</ele><time>2026-04-24T13:21:05.005Z</time></trkpt><trkpt lat="43.0384689" lon="12.8321583"><ele>866.0</ele><time>2026-04-24T13:21:05.984Z</time></trkpt><trkpt lat="43.038492" lon="12.8320447"><ele>866.0000000000001</ele><time>2026-04-24T13:21:06.999Z</time></trkpt><trkpt lat="43.0385197" lon="12.8319292"><ele>866.0</ele><time>2026-04-24T13:21:07.986Z</time></trkpt><trkpt lat="43.0385585" lon="12.831805"><ele>867.4</ele><time>2026-04-24T13:21:09.004Z</time></trkpt><trkpt lat="43.0385926" lon="12.8316707"><ele>868.8</ele><time>2026-04-24T13:21:09.979Z</time></trkpt><trkpt lat="43.0386293" lon="12.8315393"><ele>870.1999999999999</ele><time>2026-04-24T13:21:10.993Z</time></trkpt><trkpt lat="43.0386594" lon="12.831399"><ele>871.5999999999999</ele><time>2026-04-24T13:21:11.981Z</time></trkpt><trkpt lat="43.0386845" lon="12.8312594"><ele>873.0</ele><time>2026-04-24T13:21:13.002Z</time></trkpt><trkpt lat="43.0387039" lon="12.8311336"><ele>873.0</ele><time>2026-04-24T13:21:13.983Z</time></trkpt><trkpt lat="43.038719" lon="12.8310149"><ele>873.0</ele><time>2026-04-24T13:21:14.989Z</time></trkpt><trkpt lat="43.0387291" lon="12.8308989"><ele>873.0</ele><time>2026-04-24T13:21:15.992Z</time></trkpt><trkpt lat="43.0387299" lon="12.8307928"><ele>873.0</ele><time>2026-04-24T13:21:16.992Z</time></trkpt><trkpt lat="43.0387186" lon="12.830706"><ele>873.0</ele><time>2026-04-24T13:21:18.987Z</time></trkpt><trkpt lat="43.0386361" lon="12.8307573"><ele>873.0</ele><time>2026-04-24T13:21:21.978Z</time></trkpt><trkpt lat="43.0385399" lon="12.8308745"><ele>873.0</ele><time>2026-04-24T13:21:23.965Z</time></trkpt><trkpt lat="43.0384659" lon="12.8309508"><ele>873.0</ele><time>2026-04-24T13:21:24.986Z</time></trkpt><trkpt lat="43.0383748" lon="12.8310413"><ele>873.0</ele><time>2026-04-24T13:21:26.004Z</time></trkpt><trkpt lat="43.0382805" lon="12.8311365"><ele>873.0</ele><time>2026-04-24T13:21:26.966Z</time></trkpt><trkpt lat="43.0381775" lon="12.8312403"><ele>873.75</ele><time>2026-04-24T13:21:27.993Z</time></trkpt><trkpt lat="43.0380682" lon="12.831354"><ele>874.5</ele><time>2026-04-24T13:21:28.982Z</time></trkpt><trkpt lat="43.0379493" lon="12.8314685"><ele>875.25</ele><time>2026-04-24T13:21:29.992Z</time></trkpt><trkpt lat="43.0378212" lon="12.8316001"><ele>876.0</ele><time>2026-04-24T13:21:31.005Z</time></trkpt><trkpt lat="43.0376826" lon="12.8317259"><ele>877.6666666666667</ele><time>2026-04-24T13:21:31.984Z</time></trkpt><trkpt lat="43.0375471" lon="12.8318517"><ele>879.3333333333334</ele><time>2026-04-24T13:21:32.983Z</time></trkpt><trkpt lat="43.037409" lon="12.8319742"><ele>881.0</ele><time>2026-04-24T13:21:33.992Z</time></trkpt><trkpt lat="43.037284" lon="12.8320955"><ele>882.5</ele><time>2026-04-24T13:21:34.996Z</time></trkpt><trkpt lat="43.037171" lon="12.8322093"><ele>884.0</ele><time>2026-04-24T13:21:35.969Z</time></trkpt><trkpt lat="43.0370634" lon="12.8323163"><ele>885.5</ele><time>2026-04-24T13:21:36.998Z</time></trkpt><trkpt lat="43.0369699" lon="12.8324187"><ele>887.0</ele><time>2026-04-24T13:21:37.988Z</time></trkpt><trkpt lat="43.0368807" lon="12.8325181"><ele>887.0</ele><time>2026-04-24T13:21:39.002Z</time></trkpt><trkpt lat="43.0367952" lon="12.8326132"><ele>887.0</ele><time>2026-04-24T13:21:39.983Z</time></trkpt><trkpt lat="43.0367312" lon="12.8327241"><ele>887.0</ele><time>2026-04-24T13:21:40.976Z</time></trkpt><trkpt lat="43.0366764" lon="12.8328495"><ele>887.0</ele><time>2026-04-24T13:21:41.993Z</time></trkpt><trkpt lat="43.0366235" lon="12.8329849"><ele>887.0</ele><time>2026-04-24T13:21:42.993Z</time></trkpt><trkpt lat="43.0365671" lon="12.8331149"><ele>888.4000000000001</ele><time>2026-04-24T13:21:43.987Z</time></trkpt><trkpt lat="43.0365105" lon="12.8332462"><ele>889.8000000000001</ele><time>2026-04-24T13:21:44.99Z</time></trkpt><trkpt lat="43.0364485" lon="12.8333769"><ele>891.2</ele><time>2026-04-24T13:21:45.981Z</time></trkpt><trkpt lat="43.0363806" lon="12.8335031"><ele>892.6</ele><time>2026-04-24T13:21:47.004Z</time></trkpt><trkpt lat="43.0363223" lon="12.8336288"><ele>894.0</ele><time>2026-04-24T13:21:47.986Z</time></trkpt><trkpt lat="43.0362803" lon="12.8337505"><ele>895.0</ele><time>2026-04-24T13:21:48.994Z</time></trkpt><trkpt lat="43.0362427" lon="12.8338678"><ele>896.0000000000001</ele><time>2026-04-24T13:21:49.979Z</time></trkpt><trkpt lat="43.036184" lon="12.8339914"><ele>897.0000000000001</ele><time>2026-04-24T13:21:50.998Z</time></trkpt><trkpt lat="43.0361102" lon="12.8341097"><ele>898.0</ele><time>2026-04-24T13:21:51.986Z</time></trkpt><trkpt lat="43.0360374" lon="12.8342033"><ele>899.0</ele><time>2026-04-24T13:21:52.991Z</time></trkpt><trkpt lat="43.0359517" lon="12.8342701"><ele>899.0</ele><time>2026-04-24T13:21:53.973Z</time></trkpt><trkpt lat="43.035876" lon="12.8343063"><ele>899.0000000000001</ele><time>2026-04-24T13:21:55Z</time></trkpt><trkpt lat="43.0358054" lon="12.8342971"><ele>899.0000000000001</ele><time>2026-04-24T13:21:55.982Z</time></trkpt><trkpt lat="43.0356885" lon="12.8342165"><ele>899.0</ele><time>2026-04-24T13:21:57.996Z</time></trkpt><trkpt lat="43.0356201" lon="12.8341557"><ele>899.0</ele><time>2026-04-24T13:21:58.983Z</time></trkpt><trkpt lat="43.0355416" lon="12.8340876"><ele>898.25</ele><time>2026-04-24T13:21:59.977Z</time></trkpt><trkpt lat="43.0354426" lon="12.8339901"><ele>897.5</ele><time>2026-04-24T13:22:00.99Z</time></trkpt><trkpt lat="43.0353306" lon="12.8338725"><ele>896.75</ele><time>2026-04-24T13:22:01.984Z</time></trkpt><trkpt lat="43.0352108" lon="12.8337449"><ele>896.0</ele><time>2026-04-24T13:22:02.991Z</time></trkpt><trkpt lat="43.0350964" lon="12.8336215"><ele>896.0000000000001</ele><time>2026-04-24T13:22:03.996Z</time></trkpt><trkpt lat="43.0350012" lon="12.8335261"><ele>896.0</ele><time>2026-04-24T13:22:05.003Z</time></trkpt><trkpt lat="43.0349229" lon="12.8334429"><ele>896.0</ele><time>2026-04-24T13:22:05.995Z</time></trkpt><trkpt lat="43.0348506" lon="12.8333866"><ele>896.0</ele><time>2026-04-24T13:22:06.977Z</time></trkpt><trkpt lat="43.0347802" lon="12.8333609"><ele>896.0000000000001</ele><time>2026-04-24T13:22:07.983Z</time></trkpt><trkpt lat="43.0347131" lon="12.8333771"><ele>896.0</ele><time>2026-04-24T13:22:08.989Z</time></trkpt><trkpt lat="43.0346597" lon="12.8334315"><ele>896.0</ele><time>2026-04-24T13:22:09.996Z</time></trkpt><trkpt lat="43.0346282" lon="12.8335256"><ele>895.9999999999999</ele><time>2026-04-24T13:22:10.994Z</time></trkpt><trkpt lat="43.034607" lon="12.8336682"><ele>895.9999999999999</ele><time>2026-04-24T13:22:11.99Z</time></trkpt><trkpt lat="43.0345766" lon="12.8338078"><ele>896.0</ele><time>2026-04-24T13:22:12.992Z</time></trkpt><trkpt lat="43.0345471" lon="12.8339293"><ele>896.0</ele><time>2026-04-24T13:22:13.979Z</time></trkpt><trkpt lat="43.0345187" lon="12.8340432"><ele>896.0</ele><time>2026-04-24T13:22:14.988Z</time></trkpt><trkpt lat="43.0344863" lon="12.8341282"><ele>895.9999999999999</ele><time>2026-04-24T13:22:15.997Z</time></trkpt><trkpt lat="43.0343929" lon="12.8342099"><ele>895.9999999999999</ele><time>2026-04-24T13:22:17.982Z</time></trkpt><trkpt lat="43.0342612" lon="12.8341613"><ele>896.0</ele><time>2026-04-24T13:22:19.985Z</time></trkpt><trkpt lat="43.0341845" lon="12.834115"><ele>896.0</ele><time>2026-04-24T13:22:20.978Z</time></trkpt><trkpt lat="43.0341123" lon="12.8340761"><ele>895.5999999999999</ele><time>2026-04-24T13:22:21.982Z</time></trkpt><trkpt lat="43.0340347" lon="12.8340331"><ele>895.1999999999999</ele><time>2026-04-24T13:22:22.99Z</time></trkpt><trkpt lat="43.0339493" lon="12.8339815"><ele>894.8000000000001</ele><time>2026-04-24T13:22:23.996Z</time></trkpt><trkpt lat="43.0338604" lon="12.8339009"><ele>894.4000000000001</ele><time>2026-04-24T13:22:25.001Z</time></trkpt><trkpt lat="43.0337637" lon="12.8338034"><ele>894.0</ele><time>2026-04-24T13:22:25.996Z</time></trkpt><trkpt lat="43.0336639" lon="12.8336846"><ele>894.0</ele><time>2026-04-24T13:22:26.972Z</time></trkpt><trkpt lat="43.0335551" lon="12.8335616"><ele>894.0</ele><time>2026-04-24T13:22:27.998Z</time></trkpt><trkpt lat="43.0334338" lon="12.8334299"><ele>894.0</ele><time>2026-04-24T13:22:28.991Z</time></trkpt><trkpt lat="43.0333062" lon="12.833295"><ele>894.6666666666667</ele><time>2026-04-24T13:22:30.005Z</time></trkpt><trkpt lat="43.0331735" lon="12.833147"><ele>895.3333333333334</ele><time>2026-04-24T13:22:31.009Z</time></trkpt><trkpt lat="43.0330365" lon="12.8329908"><ele>896.0</ele><time>2026-04-24T13:22:31.984Z</time></trkpt><trkpt lat="43.0328991" lon="12.8328223"><ele>896.0</ele><time>2026-04-24T13:22:32.984Z</time></trkpt><trkpt lat="43.032762" lon="12.8326676"><ele>896.0</ele><time>2026-04-24T13:22:34.009Z</time></trkpt><trkpt lat="43.0326354" lon="12.8325188"><ele>896.0</ele><time>2026-04-24T13:22:34.999Z</time></trkpt><trkpt lat="43.0325191" lon="12.8323877"><ele>896.0</ele><time>2026-04-24T13:22:36.012Z</time></trkpt><trkpt lat="43.0324116" lon="12.8322627"><ele>896.0</ele><time>2026-04-24T13:22:36.998Z</time></trkpt><trkpt lat="43.0323149" lon="12.832125"><ele>896.0</ele><time>2026-04-24T13:22:37.996Z</time></trkpt><trkpt lat="43.0322444" lon="12.8319769"><ele>896.0</ele><time>2026-04-24T13:22:38.991Z</time></trkpt><trkpt lat="43.0322121" lon="12.8318194"><ele>898.5</ele><time>2026-04-24T13:22:39.983Z</time></trkpt><trkpt lat="43.0322187" lon="12.8316626"><ele>901.0</ele><time>2026-04-24T13:22:40.993Z</time></trkpt><trkpt lat="43.032263" lon="12.8315172"><ele>903.5</ele><time>2026-04-24T13:22:41.98Z</time></trkpt><trkpt lat="43.0323295" lon="12.8313709"><ele>906.0</ele><time>2026-04-24T13:22:42.998Z</time></trkpt><trkpt lat="43.0324054" lon="12.8312153"><ele>906.6666666666667</ele><time>2026-04-24T13:22:43.977Z</time></trkpt><trkpt lat="43.0324854" lon="12.8310483"><ele>907.3333333333334</ele><time>2026-04-24T13:22:44.989Z</time></trkpt><trkpt lat="43.0325714" lon="12.8308792"><ele>908.0</ele><time>2026-04-24T13:22:45.997Z</time></trkpt><trkpt lat="43.0326681" lon="12.8307143"><ele>908.0</ele><time>2026-04-24T13:22:46.984Z</time></trkpt><trkpt lat="43.0327796" lon="12.8305485"><ele>908.0</ele><time>2026-04-24T13:22:47.977Z</time></trkpt><trkpt lat="43.0329055" lon="12.8303943"><ele>908.0</ele><time>2026-04-24T13:22:49.01Z</time></trkpt><trkpt lat="43.0330301" lon="12.830238"><ele>907.3333333333334</ele><time>2026-04-24T13:22:49.992Z</time></trkpt><trkpt lat="43.0331584" lon="12.8300722"><ele>906.6666666666667</ele><time>2026-04-24T13:22:50.985Z</time></trkpt><trkpt lat="43.033277" lon="12.8298963"><ele>906.0</ele><time>2026-04-24T13:22:51.971Z</time></trkpt><trkpt lat="43.0333916" lon="12.8296997"><ele>906.0</ele><time>2026-04-24T13:22:52.985Z</time></trkpt><trkpt lat="43.0335067" lon="12.8294987"><ele>906.0</ele><time>2026-04-24T13:22:53.976Z</time></trkpt><trkpt lat="43.0336122" lon="12.829287"><ele>906.0</ele><time>2026-04-24T13:22:54.987Z</time></trkpt><trkpt lat="43.0337197" lon="12.8290775"><ele>909.3333333333333</ele><time>2026-04-24T13:22:55.981Z</time></trkpt><trkpt lat="43.0338348" lon="12.8288655"><ele>912.6666666666666</ele><time>2026-04-24T13:22:57.002Z</time></trkpt><trkpt lat="43.0339475" lon="12.8286744"><ele>916.0</ele><time>2026-04-24T13:22:57.998Z</time></trkpt><trkpt lat="43.0340599" lon="12.8284919"><ele>911.6666666666666</ele><time>2026-04-24T13:22:58.985Z</time></trkpt><trkpt lat="43.034171" lon="12.828315"><ele>907.3333333333333</ele><time>2026-04-24T13:22:59.993Z</time></trkpt><trkpt lat="43.0342716" lon="12.8281414"><ele>903.0</ele><time>2026-04-24T13:23:01.005Z</time></trkpt><trkpt lat="43.0343739" lon="12.8279803"><ele>903.0</ele><time>2026-04-24T13:23:01.968Z</time></trkpt><trkpt lat="43.0344767" lon="12.8278419"><ele>903.0</ele><time>2026-04-24T13:23:02.98Z</time></trkpt><trkpt lat="43.0345823" lon="12.8277197"><ele>903.0</ele><time>2026-04-24T13:23:03.984Z</time></trkpt><trkpt lat="43.0346952" lon="12.8276062"><ele>903.0</ele><time>2026-04-24T13:23:04.986Z</time></trkpt><trkpt lat="43.0348183" lon="12.8274987"><ele>903.0</ele><time>2026-04-24T13:23:05.991Z</time></trkpt><trkpt lat="43.0349409" lon="12.827388"><ele>903.0</ele><time>2026-04-24T13:23:06.988Z</time></trkpt><trkpt lat="43.035052" lon="12.8272441"><ele>903.0</ele><time>2026-04-24T13:23:07.987Z</time></trkpt><trkpt lat="43.0351431" lon="12.8270812"><ele>903.0</ele><time>2026-04-24T13:23:08.976Z</time></trkpt><trkpt lat="43.0352342" lon="12.8269049"><ele>903.0</ele><time>2026-04-24T13:23:09.981Z</time></trkpt><trkpt lat="43.035322" lon="12.826737"><ele>903.0</ele><time>2026-04-24T13:23:10.974Z</time></trkpt><trkpt lat="43.0354053" lon="12.8265745"><ele>914.0</ele><time>2026-04-24T13:23:11.966Z</time></trkpt><trkpt lat="43.0355729" lon="12.8259878"><ele>917.0</ele><time>2026-04-24T13:23:14.99Z</time></trkpt><trkpt lat="43.0356294" lon="12.8257644"><ele>920.0</ele><time>2026-04-24T13:23:15.975Z</time></trkpt><trkpt lat="43.0356938" lon="12.8255373"><ele>923.0</ele><time>2026-04-24T13:23:16.974Z</time></trkpt><trkpt lat="43.0357645" lon="12.8253135"><ele>919.3333333333334</ele><time>2026-04-24T13:23:17.981Z</time></trkpt><trkpt lat="43.0358374" lon="12.8250821"><ele>915.6666666666667</ele><time>2026-04-24T13:23:18.993Z</time></trkpt><trkpt lat="43.0359051" lon="12.8248532"><ele>912.0</ele><time>2026-04-24T13:23:19.977Z</time></trkpt><trkpt lat="43.0359801" lon="12.8246435"><ele>912.0</ele><time>2026-04-24T13:23:20.991Z</time></trkpt><trkpt lat="43.0360595" lon="12.8244367"><ele>912.0</ele><time>2026-04-24T13:23:21.996Z</time></trkpt><trkpt lat="43.0361446" lon="12.8242374"><ele>912.0</ele><time>2026-04-24T13:23:22.984Z</time></trkpt><trkpt lat="43.0362475" lon="12.8240434"><ele>915.0</ele><time>2026-04-24T13:23:23.979Z</time></trkpt><trkpt lat="43.036365" lon="12.8238494"><ele>918.0</ele><time>2026-04-24T13:23:24.98Z</time></trkpt><trkpt lat="43.0364762" lon="12.8236608"><ele>921.0</ele><time>2026-04-24T13:23:25.981Z</time></trkpt><trkpt lat="43.0365882" lon="12.8234701"><ele>918.0</ele><time>2026-04-24T13:23:26.98Z</time></trkpt><trkpt lat="43.0366997" lon="12.823289"><ele>915.0</ele><time>2026-04-24T13:23:27.973Z</time></trkpt><trkpt lat="43.0368053" lon="12.8231247"><ele>912.0</ele><time>2026-04-24T13:23:28.984Z</time></trkpt><trkpt lat="43.0369094" lon="12.8229723"><ele>912.0</ele><time>2026-04-24T13:23:29.987Z</time></trkpt><trkpt lat="43.0370223" lon="12.822826"><ele>912.0</ele><time>2026-04-24T13:23:30.975Z</time></trkpt><trkpt lat="43.037131" lon="12.8227015"><ele>912.0</ele><time>2026-04-24T13:23:31.986Z</time></trkpt><trkpt lat="43.0372354" lon="12.8225722"><ele>912.0</ele><time>2026-04-24T13:23:32.981Z</time></trkpt><trkpt lat="43.0373252" lon="12.8224377"><ele>913.0</ele><time>2026-04-24T13:23:33.985Z</time></trkpt><trkpt lat="43.0374001" lon="12.8222782"><ele>914.0</ele><time>2026-04-24T13:23:34.987Z</time></trkpt><trkpt lat="43.0374451" lon="12.8220858"><ele>915.0</ele><time>2026-04-24T13:23:35.994Z</time></trkpt><trkpt lat="43.0374762" lon="12.8218983"><ele>916.0</ele><time>2026-04-24T13:23:36.99Z</time></trkpt><trkpt lat="43.0374888" lon="12.8217104"><ele>912.5</ele><time>2026-04-24T13:23:37.986Z</time></trkpt><trkpt lat="43.0374927" lon="12.8215329"><ele>909.0</ele><time>2026-04-24T13:23:38.998Z</time></trkpt><trkpt lat="43.0375209" lon="12.8213629"><ele>905.5</ele><time>2026-04-24T13:23:39.988Z</time></trkpt><trkpt lat="43.0375539" lon="12.8211975"><ele>902.0</ele><time>2026-04-24T13:23:40.98Z</time></trkpt><trkpt lat="43.0375835" lon="12.8210246"><ele>903.25</ele><time>2026-04-24T13:23:41.978Z</time></trkpt><trkpt lat="43.0376144" lon="12.8208477"><ele>904.5</ele><time>2026-04-24T13:23:42.984Z</time></trkpt><trkpt lat="43.037647" lon="12.8206832"><ele>905.75</ele><time>2026-04-24T13:23:43.974Z</time></trkpt><trkpt lat="43.0376924" lon="12.8205424"><ele>907.0</ele><time>2026-04-24T13:23:44.984Z</time></trkpt><trkpt lat="43.0377663" lon="12.8204132"><ele>907.0</ele><time>2026-04-24T13:23:45.992Z</time></trkpt><trkpt lat="43.037857" lon="12.8202907"><ele>907.0</ele><time>2026-04-24T13:23:46.992Z</time></trkpt><trkpt lat="43.0379587" lon="12.820142"><ele>907.0</ele><time>2026-04-24T13:23:47.979Z</time></trkpt><trkpt lat="43.0380639" lon="12.8200073"><ele>907.0</ele><time>2026-04-24T13:23:48.988Z</time></trkpt><trkpt lat="43.0381658" lon="12.8198678"><ele>908.0</ele><time>2026-04-24T13:23:49.97Z</time></trkpt><trkpt lat="43.038272" lon="12.8197189"><ele>909.0</ele><time>2026-04-24T13:23:50.987Z</time></trkpt><trkpt lat="43.0383752" lon="12.8195694"><ele>910.0</ele><time>2026-04-24T13:23:51.976Z</time></trkpt><trkpt lat="43.0384779" lon="12.8194303"><ele>911.0</ele><time>2026-04-24T13:23:52.993Z</time></trkpt><trkpt lat="43.0385674" lon="12.8193101"><ele>912.0</ele><time>2026-04-24T13:23:54.001Z</time></trkpt><trkpt lat="43.0386556" lon="12.8192128"><ele>912.9999999999999</ele><time>2026-04-24T13:23:54.977Z</time></trkpt><trkpt lat="43.0387505" lon="12.8191482"><ele>913.9999999999999</ele><time>2026-04-24T13:23:55.975Z</time></trkpt><trkpt lat="43.0388538" lon="12.8191232"><ele>915.0</ele><time>2026-04-24T13:23:56.994Z</time></trkpt><trkpt lat="43.0389668" lon="12.8191365"><ele>916.0</ele><time>2026-04-24T13:23:57.986Z</time></trkpt><trkpt lat="43.0390775" lon="12.8191738"><ele>918.0</ele><time>2026-04-24T13:23:58.991Z</time></trkpt><trkpt lat="43.0391931" lon="12.8192196"><ele>920.0</ele><time>2026-04-24T13:23:59.986Z</time></trkpt><trkpt lat="43.0393131" lon="12.8192752"><ele>922.0</ele><time>2026-04-24T13:24:00.982Z</time></trkpt><trkpt lat="43.0394325" lon="12.8193223"><ele>924.0</ele><time>2026-04-24T13:24:01.992Z</time></trkpt><trkpt lat="43.0395487" lon="12.8193679"><ele>924.75</ele><time>2026-04-24T13:24:02.969Z</time></trkpt><trkpt lat="43.0396519" lon="12.8194136"><ele>925.5</ele><time>2026-04-24T13:24:03.986Z</time></trkpt><trkpt lat="43.0397432" lon="12.8194866"><ele>926.25</ele><time>2026-04-24T13:24:04.994Z</time></trkpt><trkpt lat="43.0398484" lon="12.8195759"><ele>927.0</ele><time>2026-04-24T13:24:05.993Z</time></trkpt><trkpt lat="43.0399625" lon="12.8196889"><ele>928.5</ele><time>2026-04-24T13:24:06.995Z</time></trkpt><trkpt lat="43.0400814" lon="12.819797"><ele>930.0</ele><time>2026-04-24T13:24:07.977Z</time></trkpt><trkpt lat="43.0402056" lon="12.8199134"><ele>931.5</ele><time>2026-04-24T13:24:08.978Z</time></trkpt><trkpt lat="43.0403345" lon="12.8200326"><ele>933.0</ele><time>2026-04-24T13:24:09.994Z</time></trkpt><trkpt lat="43.0404548" lon="12.8201463"><ele>933.5</ele><time>2026-04-24T13:24:11.005Z</time></trkpt><trkpt lat="43.0405596" lon="12.8202539"><ele>934.0</ele><time>2026-04-24T13:24:11.979Z</time></trkpt><trkpt lat="43.0406525" lon="12.8203569"><ele>934.5</ele><time>2026-04-24T13:24:12.995Z</time></trkpt><trkpt lat="43.0407253" lon="12.8204727"><ele>935.0</ele><time>2026-04-24T13:24:13.993Z</time></trkpt><trkpt lat="43.0407777" lon="12.8205931"><ele>935.4</ele><time>2026-04-24T13:24:14.982Z</time></trkpt><trkpt lat="43.0408082" lon="12.8207283"><ele>935.8</ele><time>2026-04-24T13:24:15.982Z</time></trkpt><trkpt lat="43.0408193" lon="12.8208538"><ele>936.2</ele><time>2026-04-24T13:24:16.988Z</time></trkpt><trkpt lat="43.0408359" lon="12.8209805"><ele>936.6</ele><time>2026-04-24T13:24:17.985Z</time></trkpt><trkpt lat="43.040868" lon="12.8210946"><ele>937.0</ele><time>2026-04-24T13:24:18.988Z</time></trkpt><trkpt lat="43.0409215" lon="12.8211956"><ele>935.75</ele><time>2026-04-24T13:24:19.983Z</time></trkpt><trkpt lat="43.0410074" lon="12.8212732"><ele>934.5</ele><time>2026-04-24T13:24:20.983Z</time></trkpt><trkpt lat="43.041125" lon="12.8213201"><ele>933.25</ele><time>2026-04-24T13:24:21.969Z</time></trkpt><trkpt lat="43.0412458" lon="12.8213877"><ele>932.0</ele><time>2026-04-24T13:24:22.994Z</time></trkpt><trkpt lat="43.0413812" lon="12.8214602"><ele>932.0</ele><time>2026-04-24T13:24:23.985Z</time></trkpt><trkpt lat="43.04152" lon="12.8215325"><ele>932.0</ele><time>2026-04-24T13:24:24.99Z</time></trkpt><trkpt lat="43.0416739" lon="12.8216096"><ele>932.0</ele><time>2026-04-24T13:24:25.982Z</time></trkpt><trkpt lat="43.041846" lon="12.8216856"><ele>930.0</ele><time>2026-04-24T13:24:26.981Z</time></trkpt><trkpt lat="43.042031" lon="12.8217489"><ele>928.0</ele><time>2026-04-24T13:24:27.997Z</time></trkpt><trkpt lat="43.0422167" lon="12.8218065"><ele>926.0</ele><time>2026-04-24T13:24:28.993Z</time></trkpt><trkpt lat="43.0423858" lon="12.821865"><ele>921.6666666666667</ele><time>2026-04-24T13:24:29.986Z</time></trkpt><trkpt lat="43.0425416" lon="12.821915"><ele>917.3333333333333</ele><time>2026-04-24T13:24:30.985Z</time></trkpt><trkpt lat="43.0426985" lon="12.8219666"><ele>913.0</ele><time>2026-04-24T13:24:31.981Z</time></trkpt><trkpt lat="43.0428636" lon="12.8220024"><ele>913.0</ele><time>2026-04-24T13:24:32.999Z</time></trkpt><trkpt lat="43.043034" lon="12.8220286"><ele>913.0</ele><time>2026-04-24T13:24:33.98Z</time></trkpt><trkpt lat="43.0431855" lon="12.8220285"><ele>913.0</ele><time>2026-04-24T13:24:34.977Z</time></trkpt><trkpt lat="43.0433235" lon="12.8219926"><ele>914.25</ele><time>2026-04-24T13:24:35.991Z</time></trkpt><trkpt lat="43.043454" lon="12.8219312"><ele>915.5</ele><time>2026-04-24T13:24:36.99Z</time></trkpt><trkpt lat="43.0435567" lon="12.8218142"><ele>916.75</ele><time>2026-04-24T13:24:37.986Z</time></trkpt><trkpt lat="43.0436552" lon="12.821665"><ele>918.0</ele><time>2026-04-24T13:24:38.991Z</time></trkpt><trkpt lat="43.0437341" lon="12.8214794"><ele>922.6666666666667</ele><time>2026-04-24T13:24:39.986Z</time></trkpt><trkpt lat="43.0438261" lon="12.8212872"><ele>927.3333333333334</ele><time>2026-04-24T13:24:40.991Z</time></trkpt><trkpt lat="43.0439369" lon="12.821109"><ele>932.0</ele><time>2026-04-24T13:24:41.985Z</time></trkpt><trkpt lat="43.0440704" lon="12.8209411"><ele>931.0</ele><time>2026-04-24T13:24:42.986Z</time></trkpt><trkpt lat="43.0442174" lon="12.8207978"><ele>930.0</ele><time>2026-04-24T13:24:43.976Z</time></trkpt><trkpt lat="43.0443844" lon="12.8206765"><ele>929.0</ele><time>2026-04-24T13:24:44.985Z</time></trkpt><trkpt lat="43.0445485" lon="12.8205775"><ele>929.0</ele><time>2026-04-24T13:24:45.992Z</time></trkpt><trkpt lat="43.0446985" lon="12.8204971"><ele>929.0</ele><time>2026-04-24T13:24:46.994Z</time></trkpt><trkpt lat="43.0448438" lon="12.8204141"><ele>929.0</ele><time>2026-04-24T13:24:47.988Z</time></trkpt><trkpt lat="43.0449562" lon="12.8202824"><ele>926.0</ele><time>2026-04-24T13:24:48.979Z</time></trkpt><trkpt lat="43.0450534" lon="12.8200964"><ele>923.0</ele><time>2026-04-24T13:24:49.977Z</time></trkpt><trkpt lat="43.045153" lon="12.8198916"><ele>920.0</ele><time>2026-04-24T13:24:50.973Z</time></trkpt><trkpt lat="43.0452391" lon="12.8196588"><ele>920.0</ele><time>2026-04-24T13:24:51.98Z</time></trkpt><trkpt lat="43.0453296" lon="12.8194151"><ele>920.0</ele><time>2026-04-24T13:24:52.979Z</time></trkpt><trkpt lat="43.0454408" lon="12.819225"><ele>920.0</ele><time>2026-04-24T13:24:53.981Z</time></trkpt><trkpt lat="43.0455719" lon="12.8190317"><ele>919.3333333333334</ele><time>2026-04-24T13:24:54.989Z</time></trkpt><trkpt lat="43.0457108" lon="12.8188331"><ele>918.6666666666667</ele><time>2026-04-24T13:24:55.986Z</time></trkpt><trkpt lat="43.0458573" lon="12.8186285"><ele>918.0</ele><time>2026-04-24T13:24:56.983Z</time></trkpt><trkpt lat="43.0460041" lon="12.8184137"><ele>918.0</ele><time>2026-04-24T13:24:57.994Z</time></trkpt><trkpt lat="43.0461473" lon="12.8182049"><ele>918.0</ele><time>2026-04-24T13:24:58.978Z</time></trkpt><trkpt lat="43.0462808" lon="12.8180176"><ele>918.0</ele><time>2026-04-24T13:24:59.988Z</time></trkpt><trkpt lat="43.0464138" lon="12.8178515"><ele>918.0</ele><time>2026-04-24T13:25:00.977Z</time></trkpt><trkpt lat="43.046555" lon="12.8177337"><ele>918.0</ele><time>2026-04-24T13:25:01.975Z</time></trkpt><trkpt lat="43.0467224" lon="12.817658"><ele>918.0</ele><time>2026-04-24T13:25:02.982Z</time></trkpt><trkpt lat="43.0469086" lon="12.8176084"><ele>917.6666666666667</ele><time>2026-04-24T13:25:03.979Z</time></trkpt><trkpt lat="43.0471007" lon="12.8175648"><ele>917.3333333333334</ele><time>2026-04-24T13:25:05.004Z</time></trkpt><trkpt lat="43.0472919" lon="12.8175189"><ele>917.0</ele><time>2026-04-24T13:25:05.994Z</time></trkpt><trkpt lat="43.0474784" lon="12.8174596"><ele>915.6666666666667</ele><time>2026-04-24T13:25:07.001Z</time></trkpt><trkpt lat="43.0476515" lon="12.8173868"><ele>914.3333333333333</ele><time>2026-04-24T13:25:07.981Z</time></trkpt><trkpt lat="43.0478143" lon="12.8172934"><ele>913.0</ele><time>2026-04-24T13:25:08.993Z</time></trkpt><trkpt lat="43.0479629" lon="12.8171552"><ele>913.0</ele><time>2026-04-24T13:25:09.987Z</time></trkpt><trkpt lat="43.0481058" lon="12.817003"><ele>913.0</ele><time>2026-04-24T13:25:10.984Z</time></trkpt><trkpt lat="43.0482433" lon="12.816827"><ele>913.0</ele><time>2026-04-24T13:25:11.986Z</time></trkpt><trkpt lat="43.0483822" lon="12.8166539"><ele>913.6666666666666</ele><time>2026-04-24T13:25:12.985Z</time></trkpt><trkpt lat="43.0485142" lon="12.8164713"><ele>914.3333333333333</ele><time>2026-04-24T13:25:13.983Z</time></trkpt><trkpt lat="43.0486334" lon="12.8162832"><ele>915.0</ele><time>2026-04-24T13:25:14.987Z</time></trkpt><trkpt lat="43.0487303" lon="12.8160976"><ele>919.0</ele><time>2026-04-24T13:25:15.965Z</time></trkpt><trkpt lat="43.0488288" lon="12.8159186"><ele>923.0</ele><time>2026-04-24T13:25:16.971Z</time></trkpt><trkpt lat="43.0489336" lon="12.8157618"><ele>927.0</ele><time>2026-04-24T13:25:17.984Z</time></trkpt><trkpt lat="43.0490571" lon="12.815645"><ele>921.6666666666667</ele><time>2026-04-24T13:25:18.992Z</time></trkpt><trkpt lat="43.0492197" lon="12.8155865"><ele>916.3333333333334</ele><time>2026-04-24T13:25:19.973Z</time></trkpt><trkpt lat="43.0493943" lon="12.8155689"><ele>911.0</ele><time>2026-04-24T13:25:20.983Z</time></trkpt><trkpt lat="43.0495663" lon="12.8156116"><ele>911.0</ele><time>2026-04-24T13:25:21.99Z</time></trkpt><trkpt lat="43.0497466" lon="12.8156897"><ele>911.0</ele><time>2026-04-24T13:25:22.986Z</time></trkpt><trkpt lat="43.0499285" lon="12.8157393"><ele>911.0</ele><time>2026-04-24T13:25:23.981Z</time></trkpt><trkpt lat="43.0501276" lon="12.815773"><ele>910.6666666666667</ele><time>2026-04-24T13:25:24.981Z</time></trkpt><trkpt lat="43.0503317" lon="12.8158209"><ele>910.3333333333333</ele><time>2026-04-24T13:25:25.995Z</time></trkpt><trkpt lat="43.050543" lon="12.8158901"><ele>910.0</ele><time>2026-04-24T13:25:26.983Z</time></trkpt><trkpt lat="43.050745" lon="12.8159735"><ele>906.3333333333333</ele><time>2026-04-24T13:25:27.98Z</time></trkpt><trkpt lat="43.0509442" lon="12.8160755"><ele>902.6666666666667</ele><time>2026-04-24T13:25:28.989Z</time></trkpt><trkpt lat="43.0511375" lon="12.8161811"><ele>899.0</ele><time>2026-04-24T13:25:29.977Z</time></trkpt><trkpt lat="43.0513094" lon="12.8162988"><ele>899.0</ele><time>2026-04-24T13:25:30.992Z</time></trkpt><trkpt lat="43.0514602" lon="12.8164331"><ele>899.0</ele><time>2026-04-24T13:25:31.982Z</time></trkpt><trkpt lat="43.0515898" lon="12.816594"><ele>899.0</ele><time>2026-04-24T13:25:32.98Z</time></trkpt><trkpt lat="43.0517033" lon="12.8167685"><ele>900.25</ele><time>2026-04-24T13:25:33.993Z</time></trkpt><trkpt lat="43.051807" lon="12.8169344"><ele>901.5</ele><time>2026-04-24T13:25:34.988Z</time></trkpt><trkpt lat="43.0519087" lon="12.8170756"><ele>902.75</ele><time>2026-04-24T13:25:35.968Z</time></trkpt><trkpt lat="43.0520219" lon="12.8171807"><ele>904.0</ele><time>2026-04-24T13:25:36.987Z</time></trkpt><trkpt lat="43.0521497" lon="12.8172642"><ele>904.0</ele><time>2026-04-24T13:25:37.985Z</time></trkpt><trkpt lat="43.0522783" lon="12.817334"><ele>904.0</ele><time>2026-04-24T13:25:39.004Z</time></trkpt><trkpt lat="43.0523909" lon="12.8173964"><ele>904.0</ele><time>2026-04-24T13:25:39.976Z</time></trkpt><trkpt lat="43.0524942" lon="12.8174529"><ele>904.0</ele><time>2026-04-24T13:25:41Z</time></trkpt><trkpt lat="43.052585" lon="12.8175052"><ele>905.4999999999999</ele><time>2026-04-24T13:25:41.994Z</time></trkpt><trkpt lat="43.052661" lon="12.8175508"><ele>907.0</ele><time>2026-04-24T13:25:42.965Z</time></trkpt><trkpt lat="43.0527211" lon="12.8175807"><ele>908.5</ele><time>2026-04-24T13:25:43.987Z</time></trkpt><trkpt lat="43.0527936" lon="12.8176104"><ele>910.0</ele><time>2026-04-24T13:25:45.984Z</time></trkpt><trkpt lat="43.052858" lon="12.8175864"><ele>911.4999999999999</ele><time>2026-04-24T13:25:48.98Z</time></trkpt><trkpt lat="43.0528374" lon="12.8174991"><ele>913.0</ele><time>2026-04-24T13:25:51.98Z</time></trkpt><trkpt lat="43.0528264" lon="12.8173617"><ele>912.9999999999999</ele><time>2026-04-24T13:25:53.986Z</time></trkpt><trkpt lat="43.0528409" lon="12.817269"><ele>913.0</ele><time>2026-04-24T13:25:54.982Z</time></trkpt><trkpt lat="43.0528671" lon="12.8171679"><ele>913.0</ele><time>2026-04-24T13:25:55.97Z</time></trkpt><trkpt lat="43.0528967" lon="12.8170482"><ele>913.0</ele><time>2026-04-24T13:25:56.989Z</time></trkpt><trkpt lat="43.0529258" lon="12.8169112"><ele>912.9999999999999</ele><time>2026-04-24T13:25:57.991Z</time></trkpt><trkpt lat="43.0529533" lon="12.8167754"><ele>913.0</ele><time>2026-04-24T13:25:58.986Z</time></trkpt><trkpt lat="43.0529684" lon="12.8166291"><ele>914.8</ele><time>2026-04-24T13:25:59.977Z</time></trkpt><trkpt lat="43.0529789" lon="12.8164786"><ele>916.5999999999999</ele><time>2026-04-24T13:26:00.982Z</time></trkpt><trkpt lat="43.0529844" lon="12.8163288"><ele>918.4000000000001</ele><time>2026-04-24T13:26:01.986Z</time></trkpt><trkpt lat="43.0529978" lon="12.8161902"><ele>920.2</ele><time>2026-04-24T13:26:02.984Z</time></trkpt><trkpt lat="43.0530267" lon="12.816044"><ele>922.0</ele><time>2026-04-24T13:26:03.969Z</time></trkpt><trkpt lat="43.0530664" lon="12.8158973"><ele>923.8</ele><time>2026-04-24T13:26:04.979Z</time></trkpt><trkpt lat="43.0531159" lon="12.8157569"><ele>925.6</ele><time>2026-04-24T13:26:05.991Z</time></trkpt><trkpt lat="43.053176" lon="12.8156226"><ele>927.3999999999999</ele><time>2026-04-24T13:26:06.984Z</time></trkpt><trkpt lat="43.0532285" lon="12.8154939"><ele>929.1999999999999</ele><time>2026-04-24T13:26:07.982Z</time></trkpt><trkpt lat="43.0532785" lon="12.8153812"><ele>931.0</ele><time>2026-04-24T13:26:08.987Z</time></trkpt><trkpt lat="43.0533237" lon="12.815271"><ele>931.3333333333333</ele><time>2026-04-24T13:26:09.985Z</time></trkpt><trkpt lat="43.053362" lon="12.8151671"><ele>931.6666666666666</ele><time>2026-04-24T13:26:10.996Z</time></trkpt><trkpt lat="43.0533927" lon="12.8150682"><ele>932.0</ele><time>2026-04-24T13:26:11.984Z</time></trkpt><trkpt lat="43.0534061" lon="12.8149747"><ele>932.3333333333333</ele><time>2026-04-24T13:26:12.986Z</time></trkpt><trkpt lat="43.0534117" lon="12.8148691"><ele>932.6666666666666</ele><time>2026-04-24T13:26:13.966Z</time></trkpt><trkpt lat="43.0534299" lon="12.8147547"><ele>933.0</ele><time>2026-04-24T13:26:14.99Z</time></trkpt><trkpt lat="43.0534594" lon="12.8146001"><ele>935.0</ele><time>2026-04-24T13:26:15.977Z</time></trkpt><trkpt lat="43.0534878" lon="12.814448"><ele>937.0</ele><time>2026-04-24T13:26:16.979Z</time></trkpt><trkpt lat="43.0535005" lon="12.8143044"><ele>939.0</ele><time>2026-04-24T13:26:17.973Z</time></trkpt><trkpt lat="43.053504" lon="12.8141641"><ele>941.0</ele><time>2026-04-24T13:26:18.992Z</time></trkpt><trkpt lat="43.0534897" lon="12.8140057"><ele>943.0</ele><time>2026-04-24T13:26:19.998Z</time></trkpt><trkpt lat="43.0534617" lon="12.813828"><ele>944.0</ele><time>2026-04-24T13:26:20.985Z</time></trkpt><trkpt lat="43.0534233" lon="12.8136336"><ele>945.0</ele><time>2026-04-24T13:26:21.988Z</time></trkpt><trkpt lat="43.0533851" lon="12.8134436"><ele>946.0</ele><time>2026-04-24T13:26:22.98Z</time></trkpt><trkpt lat="43.053354" lon="12.8132581"><ele>947.0</ele><time>2026-04-24T13:26:23.985Z</time></trkpt><trkpt lat="43.0533216" lon="12.8130741"><ele>947.0</ele><time>2026-04-24T13:26:24.983Z</time></trkpt><trkpt lat="43.053296" lon="12.8129094"><ele>947.0</ele><time>2026-04-24T13:26:25.983Z</time></trkpt><trkpt lat="43.0532713" lon="12.8127561"><ele>947.0</ele><time>2026-04-24T13:26:26.983Z</time></trkpt><trkpt lat="43.0532546" lon="12.8126034"><ele>947.0</ele><time>2026-04-24T13:26:27.985Z</time></trkpt><trkpt lat="43.0532428" lon="12.812449"><ele>952.0</ele><time>2026-04-24T13:26:28.974Z</time></trkpt><trkpt lat="43.0532389" lon="12.8122923"><ele>957.0</ele><time>2026-04-24T13:26:29.973Z</time></trkpt><trkpt lat="43.0532379" lon="12.8121323"><ele>962.0</ele><time>2026-04-24T13:26:30.995Z</time></trkpt><trkpt lat="43.0532305" lon="12.8119779"><ele>967.0</ele><time>2026-04-24T13:26:31.984Z</time></trkpt><trkpt lat="43.0532253" lon="12.8118185"><ele>967.2</ele><time>2026-04-24T13:26:32.986Z</time></trkpt><trkpt lat="43.0532215" lon="12.8116724"><ele>967.4000000000001</ele><time>2026-04-24T13:26:33.977Z</time></trkpt><trkpt lat="43.0532133" lon="12.8115388"><ele>967.5999999999999</ele><time>2026-04-24T13:26:34.994Z</time></trkpt><trkpt lat="43.0532026" lon="12.8114072"><ele>967.8</ele><time>2026-04-24T13:26:35.984Z</time></trkpt><trkpt lat="43.0531918" lon="12.8112782"><ele>968.0</ele><time>2026-04-24T13:26:36.989Z</time></trkpt><trkpt lat="43.0531922" lon="12.8111444"><ele>968.0</ele><time>2026-04-24T13:26:37.984Z</time></trkpt><trkpt lat="43.0532098" lon="12.8110199"><ele>968.0</ele><time>2026-04-24T13:26:38.987Z</time></trkpt><trkpt lat="43.0532436" lon="12.8108862"><ele>968.0</ele><time>2026-04-24T13:26:39.979Z</time></trkpt><trkpt lat="43.0532747" lon="12.8107436"><ele>968.0</ele><time>2026-04-24T13:26:40.985Z</time></trkpt><trkpt lat="43.0533019" lon="12.8106053"><ele>968.0</ele><time>2026-04-24T13:26:41.986Z</time></trkpt><trkpt lat="43.0533275" lon="12.8104774"><ele>968.0000000000001</ele><time>2026-04-24T13:26:42.984Z</time></trkpt><trkpt lat="43.0533615" lon="12.8103731"><ele>968.0</ele><time>2026-04-24T13:26:43.982Z</time></trkpt><trkpt lat="43.0533939" lon="12.8102905"><ele>968.0</ele><time>2026-04-24T13:26:44.992Z</time></trkpt><trkpt lat="43.0534347" lon="12.8102243"><ele>968.0</ele><time>2026-04-24T13:26:45.999Z</time></trkpt><trkpt lat="43.0534858" lon="12.8101396"><ele>968.0000000000001</ele><time>2026-04-24T13:26:46.984Z</time></trkpt><trkpt lat="43.0535436" lon="12.8100508"><ele>968.0</ele><time>2026-04-24T13:26:47.983Z</time></trkpt><trkpt lat="43.0536098" lon="12.809971"><ele>968.0</ele><time>2026-04-24T13:26:48.982Z</time></trkpt><trkpt lat="43.0536907" lon="12.8099065"><ele>968.0</ele><time>2026-04-24T13:26:49.973Z</time></trkpt><trkpt lat="43.0537842" lon="12.8098682"><ele>968.0</ele><time>2026-04-24T13:26:50.981Z</time></trkpt><trkpt lat="43.0538957" lon="12.8098531"><ele>968.0</ele><time>2026-04-24T13:26:51.986Z</time></trkpt><trkpt lat="43.054013" lon="12.809858"><ele>968.0</ele><time>2026-04-24T13:26:52.976Z</time></trkpt><trkpt lat="43.0541471" lon="12.8098729"><ele>968.0</ele><time>2026-04-24T13:26:53.975Z</time></trkpt><trkpt lat="43.0542962" lon="12.8099024"><ele>968.0</ele><time>2026-04-24T13:26:54.981Z</time></trkpt><trkpt lat="43.0544525" lon="12.8099289"><ele>968.0</ele><time>2026-04-24T13:26:55.984Z</time></trkpt><trkpt lat="43.0546241" lon="12.8099523"><ele>968.0</ele><time>2026-04-24T13:26:56.981Z</time></trkpt><trkpt lat="43.0547919" lon="12.8099718"><ele>968.0</ele><time>2026-04-24T13:26:57.972Z</time></trkpt><trkpt lat="43.0549443" lon="12.8099762"><ele>968.0</ele><time>2026-04-24T13:26:58.981Z</time></trkpt><trkpt lat="43.0550811" lon="12.8099724"><ele>969.5</ele><time>2026-04-24T13:26:59.988Z</time></trkpt><trkpt lat="43.0552035" lon="12.8099596"><ele>971.0</ele><time>2026-04-24T13:27:00.998Z</time></trkpt><trkpt lat="43.055317" lon="12.8099416"><ele>972.5</ele><time>2026-04-24T13:27:01.977Z</time></trkpt><trkpt lat="43.0554366" lon="12.809909"><ele>974.0</ele><time>2026-04-24T13:27:02.984Z</time></trkpt><trkpt lat="43.0555581" lon="12.8098883"><ele>974.0</ele><time>2026-04-24T13:27:03.985Z</time></trkpt><trkpt lat="43.055676" lon="12.8098817"><ele>974.0</ele><time>2026-04-24T13:27:04.974Z</time></trkpt><trkpt lat="43.0557939" lon="12.8098755"><ele>974.0</ele><time>2026-04-24T13:27:05.99Z</time></trkpt><trkpt lat="43.0559167" lon="12.8098482"><ele>974.0</ele><time>2026-04-24T13:27:06.991Z</time></trkpt><trkpt lat="43.0560452" lon="12.8098323"><ele>974.75</ele><time>2026-04-24T13:27:07.976Z</time></trkpt><trkpt lat="43.0561768" lon="12.8098211"><ele>975.5</ele><time>2026-04-24T13:27:08.984Z</time></trkpt><trkpt lat="43.0563071" lon="12.8098176"><ele>976.25</ele><time>2026-04-24T13:27:09.975Z</time></trkpt><trkpt lat="43.0564348" lon="12.8098237"><ele>977.0</ele><time>2026-04-24T13:27:10.985Z</time></trkpt><trkpt lat="43.0565577" lon="12.8098356"><ele>977.75</ele><time>2026-04-24T13:27:11.984Z</time></trkpt><trkpt lat="43.0566778" lon="12.809847"><ele>978.5</ele><time>2026-04-24T13:27:12.996Z</time></trkpt><trkpt lat="43.0568031" lon="12.809847"><ele>979.25</ele><time>2026-04-24T13:27:13.981Z</time></trkpt><trkpt lat="43.0569271" lon="12.8098343"><ele>980.0</ele><time>2026-04-24T13:27:14.982Z</time></trkpt><trkpt lat="43.0572209" lon="12.8097135"><ele>980.0</ele><time>2026-04-24T13:27:17.994Z</time></trkpt><trkpt lat="43.0573038" lon="12.8096594"><ele>980.0</ele><time>2026-04-24T13:27:18.995Z</time></trkpt><trkpt lat="43.0573983" lon="12.8096099"><ele>980.0</ele><time>2026-04-24T13:27:19.977Z</time></trkpt><trkpt lat="43.0574961" lon="12.8095525"><ele>980.0</ele><time>2026-04-24T13:27:20.985Z</time></trkpt><trkpt lat="43.0575958" lon="12.8094983"><ele>980.0</ele><time>2026-04-24T13:27:21.993Z</time></trkpt><trkpt lat="43.0576931" lon="12.8094495"><ele>979.4</ele><time>2026-04-24T13:27:22.981Z</time></trkpt><trkpt lat="43.0577851" lon="12.8094049"><ele>978.8</ele><time>2026-04-24T13:27:23.975Z</time></trkpt><trkpt lat="43.0578807" lon="12.8093358"><ele>978.2</ele><time>2026-04-24T13:27:24.982Z</time></trkpt><trkpt lat="43.0579705" lon="12.8092596"><ele>977.6</ele><time>2026-04-24T13:27:25.973Z</time></trkpt><trkpt lat="43.0580438" lon="12.8091855"><ele>977.0</ele><time>2026-04-24T13:27:26.988Z</time></trkpt><trkpt lat="43.058105" lon="12.8091155"><ele>977.3333333333334</ele><time>2026-04-24T13:27:27.966Z</time></trkpt><trkpt lat="43.0581616" lon="12.809055"><ele>977.6666666666667</ele><time>2026-04-24T13:27:28.979Z</time></trkpt><trkpt lat="43.0582163" lon="12.8089927"><ele>978.0</ele><time>2026-04-24T13:27:29.991Z</time></trkpt><trkpt lat="43.0582583" lon="12.8089234"><ele>978.3333333333333</ele><time>2026-04-24T13:27:30.979Z</time></trkpt><trkpt lat="43.0582887" lon="12.8088328"><ele>978.6666666666666</ele><time>2026-04-24T13:27:31.974Z</time></trkpt><trkpt lat="43.0583097" lon="12.8087259"><ele>979.0</ele><time>2026-04-24T13:27:32.968Z</time></trkpt><trkpt lat="43.0583285" lon="12.8086015"><ele>979.6666666666666</ele><time>2026-04-24T13:27:33.986Z</time></trkpt><trkpt lat="43.0583404" lon="12.8084843"><ele>980.3333333333333</ele><time>2026-04-24T13:27:34.971Z</time></trkpt><trkpt lat="43.0583492" lon="12.8083693"><ele>981.0</ele><time>2026-04-24T13:27:35.971Z</time></trkpt><trkpt lat="43.0583539" lon="12.8082612"><ele>981.6666666666667</ele><time>2026-04-24T13:27:36.974Z</time></trkpt><trkpt lat="43.0583558" lon="12.8081433"><ele>982.3333333333334</ele><time>2026-04-24T13:27:37.975Z</time></trkpt><trkpt lat="43.0583573" lon="12.8080233"><ele>983.0</ele><time>2026-04-24T13:27:38.973Z</time></trkpt><trkpt lat="43.0583543" lon="12.8079196"><ele>983.0000000000001</ele><time>2026-04-24T13:27:39.975Z</time></trkpt><trkpt lat="43.0583476" lon="12.8078297"><ele>983.0</ele><time>2026-04-24T13:27:40.985Z</time></trkpt><trkpt lat="43.0583483" lon="12.8077418"><ele>983.0</ele><time>2026-04-24T13:27:41.973Z</time></trkpt><trkpt lat="43.0584087" lon="12.8076233"><ele>983.0</ele><time>2026-04-24T13:27:43.973Z</time></trkpt><trkpt lat="43.0584686" lon="12.8075884"><ele>983.0000000000001</ele><time>2026-04-24T13:27:44.979Z</time></trkpt><trkpt lat="43.0585533" lon="12.8075854"><ele>983.0</ele><time>2026-04-24T13:27:45.973Z</time></trkpt><trkpt lat="43.0586484" lon="12.8076147"><ele>983.0</ele><time>2026-04-24T13:27:46.978Z</time></trkpt><trkpt lat="43.0587542" lon="12.807671"><ele>983.0</ele><time>2026-04-24T13:27:47.984Z</time></trkpt><trkpt lat="43.0588669" lon="12.8077237"><ele>983.0</ele><time>2026-04-24T13:27:48.972Z</time></trkpt><trkpt lat="43.0589907" lon="12.807774"><ele>983.0</ele><time>2026-04-24T13:27:49.986Z</time></trkpt><trkpt lat="43.0591204" lon="12.8078182"><ele>981.25</ele><time>2026-04-24T13:27:50.974Z</time></trkpt><trkpt lat="43.0592485" lon="12.8078543"><ele>979.5</ele><time>2026-04-24T13:27:51.975Z</time></trkpt><trkpt lat="43.0593784" lon="12.8078839"><ele>977.75</ele><time>2026-04-24T13:27:52.976Z</time></trkpt><trkpt lat="43.0595118" lon="12.8079125"><ele>976.0</ele><time>2026-04-24T13:27:53.978Z</time></trkpt><trkpt lat="43.0596413" lon="12.8079437"><ele>976.0</ele><time>2026-04-24T13:27:54.98Z</time></trkpt><trkpt lat="43.0597616" lon="12.8079749"><ele>976.0</ele><time>2026-04-24T13:27:55.986Z</time></trkpt><trkpt lat="43.0598774" lon="12.8080083"><ele>976.0</ele><time>2026-04-24T13:27:56.971Z</time></trkpt><trkpt lat="43.0599854" lon="12.8080325"><ele>976.0</ele><time>2026-04-24T13:27:57.985Z</time></trkpt><trkpt lat="43.060089" lon="12.808057"><ele>978.1999999999999</ele><time>2026-04-24T13:27:58.975Z</time></trkpt><trkpt lat="43.0601855" lon="12.8080734"><ele>980.3999999999999</ele><time>2026-04-24T13:27:59.972Z</time></trkpt><trkpt lat="43.0602777" lon="12.8080883"><ele>982.6</ele><time>2026-04-24T13:28:00.987Z</time></trkpt><trkpt lat="43.060373" lon="12.8080929"><ele>984.8</ele><time>2026-04-24T13:28:01.979Z</time></trkpt><trkpt lat="43.0604705" lon="12.8080949"><ele>987.0</ele><time>2026-04-24T13:28:02.973Z</time></trkpt><trkpt lat="43.0605718" lon="12.8080847"><ele>987.0</ele><time>2026-04-24T13:28:03.97Z</time></trkpt><trkpt lat="43.0606754" lon="12.8080624"><ele>987.0</ele><time>2026-04-24T13:28:04.982Z</time></trkpt><trkpt lat="43.0607806" lon="12.80803"><ele>987.0</ele><time>2026-04-24T13:28:05.965Z</time></trkpt><trkpt lat="43.0608765" lon="12.8079928"><ele>987.0</ele><time>2026-04-24T13:28:06.975Z</time></trkpt><trkpt lat="43.0609694" lon="12.8079486"><ele>987.0</ele><time>2026-04-24T13:28:07.964Z</time></trkpt><trkpt lat="43.061056" lon="12.8079019"><ele>988.0</ele><time>2026-04-24T13:28:08.987Z</time></trkpt><trkpt lat="43.0611419" lon="12.8078519"><ele>989.0</ele><time>2026-04-24T13:28:09.978Z</time></trkpt><trkpt lat="43.0612297" lon="12.8077988"><ele>990.0</ele><time>2026-04-24T13:28:10.981Z</time></trkpt><trkpt lat="43.0613212" lon="12.8077337"><ele>991.0</ele><time>2026-04-24T13:28:11.97Z</time></trkpt><trkpt lat="43.0614103" lon="12.8076692"><ele>992.0</ele><time>2026-04-24T13:28:12.979Z</time></trkpt><trkpt lat="43.0614951" lon="12.8076049"><ele>996.0</ele><time>2026-04-24T13:28:13.978Z</time></trkpt><trkpt lat="43.0615659" lon="12.8075321"><ele>1000.0</ele><time>2026-04-24T13:28:14.973Z</time></trkpt><trkpt lat="43.0616341" lon="12.8074535"><ele>1004.0</ele><time>2026-04-24T13:28:15.973Z</time></trkpt><trkpt lat="43.0617073" lon="12.8073549"><ele>1008.0</ele><time>2026-04-24T13:28:16.986Z</time></trkpt><trkpt lat="43.0617736" lon="12.8072588"><ele>1012.0</ele><time>2026-04-24T13:28:17.975Z</time></trkpt><trkpt lat="43.0618344" lon="12.8071417"><ele>1012.0</ele><time>2026-04-24T13:28:18.977Z</time></trkpt><trkpt lat="43.061906" lon="12.8070349"><ele>1012.0</ele><time>2026-04-24T13:28:19.973Z</time></trkpt><trkpt lat="43.0619873" lon="12.8069463"><ele>1012.0</ele><time>2026-04-24T13:28:20.981Z</time></trkpt><trkpt lat="43.0620786" lon="12.8068685"><ele>1012.0</ele><time>2026-04-24T13:28:21.972Z</time></trkpt><trkpt lat="43.0621581" lon="12.8067934"><ele>1012.0</ele><time>2026-04-24T13:28:22.974Z</time></trkpt><trkpt lat="43.0622251" lon="12.8067196"><ele>1011.4000000000001</ele><time>2026-04-24T13:28:23.977Z</time></trkpt><trkpt lat="43.0622845" lon="12.8066313"><ele>1010.8000000000001</ele><time>2026-04-24T13:28:24.979Z</time></trkpt><trkpt lat="43.0623387" lon="12.8065206"><ele>1010.2</ele><time>2026-04-24T13:28:25.97Z</time></trkpt><trkpt lat="43.0623916" lon="12.8064141"><ele>1009.6</ele><time>2026-04-24T13:28:26.977Z</time></trkpt><trkpt lat="43.0624447" lon="12.8063029"><ele>1009.0</ele><time>2026-04-24T13:28:27.978Z</time></trkpt><trkpt lat="43.0625026" lon="12.806178"><ele>1008.9999999999999</ele><time>2026-04-24T13:28:28.975Z</time></trkpt><trkpt lat="43.0625538" lon="12.8060557"><ele>1009.0</ele><time>2026-04-24T13:28:29.976Z</time></trkpt><trkpt lat="43.0626029" lon="12.8059577"><ele>1009.0</ele><time>2026-04-24T13:28:30.988Z</time></trkpt><trkpt lat="43.0626441" lon="12.8058624"><ele>1009.0</ele><time>2026-04-24T13:28:31.977Z</time></trkpt><trkpt lat="43.0626835" lon="12.8057773"><ele>1008.9999999999999</ele><time>2026-04-24T13:28:32.977Z</time></trkpt><trkpt lat="43.0627255" lon="12.8056931"><ele>1009.0</ele><time>2026-04-24T13:28:33.973Z</time></trkpt><trkpt lat="43.0627631" lon="12.8055972"><ele>1012.2</ele><time>2026-04-24T13:28:34.985Z</time></trkpt><trkpt lat="43.0627871" lon="12.8054872"><ele>1015.4000000000001</ele><time>2026-04-24T13:28:35.973Z</time></trkpt><trkpt lat="43.0628178" lon="12.8053708"><ele>1018.6</ele><time>2026-04-24T13:28:36.979Z</time></trkpt><trkpt lat="43.0628218" lon="12.8052253"><ele>1021.8</ele><time>2026-04-24T13:28:37.984Z</time></trkpt><trkpt lat="43.0628232" lon="12.8050782"><ele>1025.0</ele><time>2026-04-24T13:28:38.985Z</time></trkpt><trkpt lat="43.062827" lon="12.8049212"><ele>1025.25</ele><time>2026-04-24T13:28:39.965Z</time></trkpt><trkpt lat="43.0628237" lon="12.8047547"><ele>1025.5</ele><time>2026-04-24T13:28:40.979Z</time></trkpt><trkpt lat="43.0628152" lon="12.8045859"><ele>1025.75</ele><time>2026-04-24T13:28:41.982Z</time></trkpt><trkpt lat="43.0627961" lon="12.8044168"><ele>1026.0</ele><time>2026-04-24T13:28:42.985Z</time></trkpt><trkpt lat="43.0627851" lon="12.8042568"><ele>1026.0</ele><time>2026-04-24T13:28:43.975Z</time></trkpt><trkpt lat="43.0627778" lon="12.8041001"><ele>1026.0</ele><time>2026-04-24T13:28:44.974Z</time></trkpt><trkpt lat="43.0627685" lon="12.8039361"><ele>1026.0</ele><time>2026-04-24T13:28:45.971Z</time></trkpt><trkpt lat="43.0627593" lon="12.8037654"><ele>1026.0</ele><time>2026-04-24T13:28:46.983Z</time></trkpt><trkpt lat="43.0627512" lon="12.8035982"><ele>1025.2</ele><time>2026-04-24T13:28:47.971Z</time></trkpt><trkpt lat="43.0627418" lon="12.8034411"><ele>1024.3999999999999</ele><time>2026-04-24T13:28:48.986Z</time></trkpt><trkpt lat="43.062738" lon="12.8032881"><ele>1023.6</ele><time>2026-04-24T13:28:49.973Z</time></trkpt><trkpt lat="43.0627364" lon="12.8031417"><ele>1022.8</ele><time>2026-04-24T13:28:50.981Z</time></trkpt><trkpt lat="43.062737" lon="12.8030017"><ele>1022.0</ele><time>2026-04-24T13:28:51.975Z</time></trkpt><trkpt lat="43.0627289" lon="12.8028714"><ele>1022.0</ele><time>2026-04-24T13:28:52.983Z</time></trkpt><trkpt lat="43.0627211" lon="12.8027534"><ele>1022.0</ele><time>2026-04-24T13:28:53.977Z</time></trkpt><trkpt lat="43.0627168" lon="12.8026445"><ele>1022.0</ele><time>2026-04-24T13:28:54.985Z</time></trkpt><trkpt lat="43.0627102" lon="12.8025439"><ele>1022.0</ele><time>2026-04-24T13:28:55.978Z</time></trkpt><trkpt lat="43.0626977" lon="12.8024499"><ele>1022.0</ele><time>2026-04-24T13:28:56.987Z</time></trkpt><trkpt lat="43.0626908" lon="12.8023641"><ele>1022.0</ele><time>2026-04-24T13:28:57.983Z</time></trkpt><trkpt lat="43.0627042" lon="12.8022783"><ele>1022.0</ele><time>2026-04-24T13:28:58.979Z</time></trkpt><trkpt lat="43.0627427" lon="12.8021106"><ele>1021.3333333333334</ele><time>2026-04-24T13:29:00.984Z</time></trkpt><trkpt lat="43.0627942" lon="12.8020379"><ele>1020.6666666666667</ele><time>2026-04-24T13:29:01.976Z</time></trkpt><trkpt lat="43.062858" lon="12.8019621"><ele>1020.0</ele><time>2026-04-24T13:29:02.98Z</time></trkpt><trkpt lat="43.0629177" lon="12.8018751"><ele>1019.3333333333333</ele><time>2026-04-24T13:29:03.972Z</time></trkpt><trkpt lat="43.062974" lon="12.8017849"><ele>1018.6666666666666</ele><time>2026-04-24T13:29:04.975Z</time></trkpt><trkpt lat="43.0630371" lon="12.8017155"><ele>1018.0</ele><time>2026-04-24T13:29:05.969Z</time></trkpt><trkpt lat="43.0630974" lon="12.8016745"><ele>1017.5999999999999</ele><time>2026-04-24T13:29:06.975Z</time></trkpt><trkpt lat="43.0631745" lon="12.8016732"><ele>1017.1999999999999</ele><time>2026-04-24T13:29:07.979Z</time></trkpt><trkpt lat="43.0632602" lon="12.8016869"><ele>1016.8</ele><time>2026-04-24T13:29:08.978Z</time></trkpt><trkpt lat="43.0633541" lon="12.8016969"><ele>1016.4</ele><time>2026-04-24T13:29:09.98Z</time></trkpt><trkpt lat="43.0634539" lon="12.8017038"><ele>1016.0</ele><time>2026-04-24T13:29:10.979Z</time></trkpt><trkpt lat="43.063564" lon="12.8017073"><ele>1015.75</ele><time>2026-04-24T13:29:11.99Z</time></trkpt><trkpt lat="43.0636908" lon="12.8017071"><ele>1015.5</ele><time>2026-04-24T13:29:12.969Z</time></trkpt><trkpt lat="43.0638165" lon="12.8017007"><ele>1015.25</ele><time>2026-04-24T13:29:13.985Z</time></trkpt><trkpt lat="43.063939" lon="12.8017067"><ele>1015.0</ele><time>2026-04-24T13:29:14.987Z</time></trkpt><trkpt lat="43.064051" lon="12.8017162"><ele>1017.4</ele><time>2026-04-24T13:29:15.98Z</time></trkpt><trkpt lat="43.0641655" lon="12.8017266"><ele>1019.8</ele><time>2026-04-24T13:29:16.971Z</time></trkpt><trkpt lat="43.0642736" lon="12.8017334"><ele>1022.2</ele><time>2026-04-24T13:29:17.98Z</time></trkpt><trkpt lat="43.0643787" lon="12.8017417"><ele>1024.6</ele><time>2026-04-24T13:29:18.984Z</time></trkpt><trkpt lat="43.0644797" lon="12.8017489"><ele>1027.0</ele><time>2026-04-24T13:29:19.976Z</time></trkpt><trkpt lat="43.0645777" lon="12.8017603"><ele>1027.0</ele><time>2026-04-24T13:29:20.989Z</time></trkpt><trkpt lat="43.0646715" lon="12.8017712"><ele>1027.0</ele><time>2026-04-24T13:29:21.983Z</time></trkpt><trkpt lat="43.0647621" lon="12.8017914"><ele>1027.0</ele><time>2026-04-24T13:29:22.985Z</time></trkpt><trkpt lat="43.0648505" lon="12.8018142"><ele>1027.0</ele><time>2026-04-24T13:29:23.978Z</time></trkpt><trkpt lat="43.0649445" lon="12.8018324"><ele>1027.0</ele><time>2026-04-24T13:29:24.97Z</time></trkpt><trkpt lat="43.0650442" lon="12.8018452"><ele>1027.6</ele><time>2026-04-24T13:29:25.986Z</time></trkpt><trkpt lat="43.0651443" lon="12.8018504"><ele>1028.2</ele><time>2026-04-24T13:29:26.978Z</time></trkpt><trkpt lat="43.0652469" lon="12.8018505"><ele>1028.8</ele><time>2026-04-24T13:29:27.994Z</time></trkpt><trkpt lat="43.0653468" lon="12.8018594"><ele>1029.4</ele><time>2026-04-24T13:29:28.988Z</time></trkpt><trkpt lat="43.0654435" lon="12.8018673"><ele>1030.0</ele><time>2026-04-24T13:29:29.978Z</time></trkpt><trkpt lat="43.0655293" lon="12.8018748"><ele>1030.0</ele><time>2026-04-24T13:29:30.982Z</time></trkpt><trkpt lat="43.0656189" lon="12.8018784"><ele>1030.0</ele><time>2026-04-24T13:29:31.978Z</time></trkpt><trkpt lat="43.0657119" lon="12.8018735"><ele>1030.0</ele><time>2026-04-24T13:29:32.986Z</time></trkpt><trkpt lat="43.0658154" lon="12.8018612"><ele>1030.0</ele><time>2026-04-24T13:29:33.984Z</time></trkpt><trkpt lat="43.0659291" lon="12.8018454"><ele>1030.0</ele><time>2026-04-24T13:29:34.991Z</time></trkpt><trkpt lat="43.0660503" lon="12.8018244"><ele>1035.4</ele><time>2026-04-24T13:29:35.989Z</time></trkpt><trkpt lat="43.0661776" lon="12.8018166"><ele>1040.8</ele><time>2026-04-24T13:29:36.978Z</time></trkpt><trkpt lat="43.0662968" lon="12.8018094"><ele>1046.2</ele><time>2026-04-24T13:29:37.982Z</time></trkpt><trkpt lat="43.0663995" lon="12.801807"><ele>1051.6</ele><time>2026-04-24T13:29:38.991Z</time></trkpt><trkpt lat="43.066488" lon="12.8018053"><ele>1057.0</ele><time>2026-04-24T13:29:39.991Z</time></trkpt><trkpt lat="43.0665663" lon="12.8017994"><ele>1058.3333333333333</ele><time>2026-04-24T13:29:40.976Z</time></trkpt><trkpt lat="43.0666351" lon="12.8017961"><ele>1059.6666666666665</ele><time>2026-04-24T13:29:41.978Z</time></trkpt><trkpt lat="43.066703" lon="12.8017927"><ele>1061.0</ele><time>2026-04-24T13:29:42.994Z</time></trkpt><trkpt lat="43.0667774" lon="12.8017699"><ele>1062.3333333333333</ele><time>2026-04-24T13:29:43.981Z</time></trkpt><trkpt lat="43.0668523" lon="12.8017289"><ele>1063.6666666666667</ele><time>2026-04-24T13:29:44.992Z</time></trkpt><trkpt lat="43.066935" lon="12.8016716"><ele>1065.0</ele><time>2026-04-24T13:29:45.984Z</time></trkpt><trkpt lat="43.0670092" lon="12.8015968"><ele>1065.0</ele><time>2026-04-24T13:29:46.993Z</time></trkpt><trkpt lat="43.0670889" lon="12.8015099"><ele>1065.0</ele><time>2026-04-24T13:29:47.988Z</time></trkpt><trkpt lat="43.0671707" lon="12.8014174"><ele>1065.0</ele><time>2026-04-24T13:29:48.981Z</time></trkpt><trkpt lat="43.0672481" lon="12.8013201"><ele>1065.0</ele><time>2026-04-24T13:29:49.98Z</time></trkpt><trkpt lat="43.0673212" lon="12.8012345"><ele>1065.0</ele><time>2026-04-24T13:29:50.997Z</time></trkpt><trkpt lat="43.0673893" lon="12.8011655"><ele>1063.8333333333333</ele><time>2026-04-24T13:29:51.986Z</time></trkpt><trkpt lat="43.0674619" lon="12.8011128"><ele>1062.6666666666667</ele><time>2026-04-24T13:29:52.978Z</time></trkpt><trkpt lat="43.067541" lon="12.8010811"><ele>1061.5</ele><time>2026-04-24T13:29:53.984Z</time></trkpt><trkpt lat="43.0676148" lon="12.8010866"><ele>1060.3333333333335</ele><time>2026-04-24T13:29:54.979Z</time></trkpt><trkpt lat="43.0676762" lon="12.8011145"><ele>1059.1666666666667</ele><time>2026-04-24T13:29:55.972Z</time></trkpt><trkpt lat="43.0677264" lon="12.8011805"><ele>1058.0</ele><time>2026-04-24T13:29:56.967Z</time></trkpt><trkpt lat="43.0677754" lon="12.8012617"><ele>1058.0</ele><time>2026-04-24T13:29:57.99Z</time></trkpt><trkpt lat="43.0678257" lon="12.8013607"><ele>1058.0</ele><time>2026-04-24T13:29:58.984Z</time></trkpt><trkpt lat="43.0678688" lon="12.8014654"><ele>1058.0</ele><time>2026-04-24T13:29:59.979Z</time></trkpt><trkpt lat="43.0679076" lon="12.8015773"><ele>1058.0</ele><time>2026-04-24T13:30:00.987Z</time></trkpt><trkpt lat="43.06795" lon="12.8016922"><ele>1058.0</ele><time>2026-04-24T13:30:01.971Z</time></trkpt><trkpt lat="43.0679878" lon="12.8018085"><ele>1056.6666666666667</ele><time>2026-04-24T13:30:02.981Z</time></trkpt><trkpt lat="43.0680286" lon="12.8019183"><ele>1055.3333333333335</ele><time>2026-04-24T13:30:03.968Z</time></trkpt><trkpt lat="43.0680753" lon="12.8020183"><ele>1054.0</ele><time>2026-04-24T13:30:04.986Z</time></trkpt><trkpt lat="43.0681255" lon="12.8021072"><ele>1052.6666666666667</ele><time>2026-04-24T13:30:05.979Z</time></trkpt><trkpt lat="43.0681779" lon="12.802171"><ele>1051.3333333333333</ele><time>2026-04-24T13:30:06.987Z</time></trkpt><trkpt lat="43.0682377" lon="12.8022258"><ele>1050.0</ele><time>2026-04-24T13:30:07.98Z</time></trkpt><trkpt lat="43.0683064" lon="12.8022701"><ele>1047.4</ele><time>2026-04-24T13:30:08.969Z</time></trkpt><trkpt lat="43.0683882" lon="12.8023176"><ele>1044.8</ele><time>2026-04-24T13:30:09.97Z</time></trkpt><trkpt lat="43.068477" lon="12.8023829"><ele>1042.2</ele><time>2026-04-24T13:30:10.971Z</time></trkpt><trkpt lat="43.0685659" lon="12.8024524"><ele>1039.6</ele><time>2026-04-24T13:30:11.987Z</time></trkpt><trkpt lat="43.0686519" lon="12.8025136"><ele>1037.0</ele><time>2026-04-24T13:30:12.987Z</time></trkpt><trkpt lat="43.0687318" lon="12.8025527"><ele>1037.0</ele><time>2026-04-24T13:30:13.969Z</time></trkpt><trkpt lat="43.0687945" lon="12.8026008"><ele>1037.0</ele><time>2026-04-24T13:30:14.973Z</time></trkpt><trkpt lat="43.0688375" lon="12.8026793"><ele>1037.0</ele><time>2026-04-24T13:30:15.968Z</time></trkpt><trkpt lat="43.068853" lon="12.802787"><ele>1037.0</ele><time>2026-04-24T13:30:16.99Z</time></trkpt><trkpt lat="43.0688682" lon="12.8029173"><ele>1037.0</ele><time>2026-04-24T13:30:17.974Z</time></trkpt><trkpt lat="43.0688807" lon="12.8030443"><ele>1037.0</ele><time>2026-04-24T13:30:18.978Z</time></trkpt><trkpt lat="43.0689017" lon="12.8031541"><ele>1033.4</ele><time>2026-04-24T13:30:19.962Z</time></trkpt><trkpt lat="43.0689287" lon="12.8032494"><ele>1029.8000000000002</ele><time>2026-04-24T13:30:20.976Z</time></trkpt><trkpt lat="43.0689776" lon="12.8033224"><ele>1026.2</ele><time>2026-04-24T13:30:21.989Z</time></trkpt><trkpt lat="43.0690739" lon="12.8033958"><ele>1022.6</ele><time>2026-04-24T13:30:23.978Z</time></trkpt><trkpt lat="43.0692019" lon="12.8034234"><ele>1019.0</ele><time>2026-04-24T13:30:25.982Z</time></trkpt><trkpt lat="43.0692768" lon="12.8034402"><ele>1019.0000000000001</ele><time>2026-04-24T13:30:26.97Z</time></trkpt><trkpt lat="43.0693491" lon="12.8034595"><ele>1019.0</ele><time>2026-04-24T13:30:27.97Z</time></trkpt><trkpt lat="43.0694178" lon="12.8034613"><ele>1019.0</ele><time>2026-04-24T13:30:28.979Z</time></trkpt><trkpt lat="43.0694924" lon="12.8034508"><ele>1019.0</ele><time>2026-04-24T13:30:29.972Z</time></trkpt><trkpt lat="43.06958" lon="12.8034333"><ele>1019.0000000000001</ele><time>2026-04-24T13:30:30.982Z</time></trkpt><trkpt lat="43.0696811" lon="12.8034358"><ele>1019.0</ele><time>2026-04-24T13:30:31.98Z</time></trkpt><trkpt lat="43.0697846" lon="12.803444"><ele>1019.0000000000001</ele><time>2026-04-24T13:30:32.987Z</time></trkpt><trkpt lat="43.0698898" lon="12.8034511"><ele>1019.0</ele><time>2026-04-24T13:30:33.978Z</time></trkpt><trkpt lat="43.0699883" lon="12.8034507"><ele>1019.0</ele><time>2026-04-24T13:30:34.971Z</time></trkpt><trkpt lat="43.0700703" lon="12.8034402"><ele>1019.0</ele><time>2026-04-24T13:30:35.984Z</time></trkpt><trkpt lat="43.0701461" lon="12.8034206"><ele>1019.0000000000001</ele><time>2026-04-24T13:30:36.968Z</time></trkpt><trkpt lat="43.0702221" lon="12.8033936"><ele>1019.0</ele><time>2026-04-24T13:30:37.978Z</time></trkpt><trkpt lat="43.0702953" lon="12.8033556"><ele>1018.2</ele><time>2026-04-24T13:30:38.975Z</time></trkpt><trkpt lat="43.0704007" lon="12.8033323"><ele>1017.4000000000001</ele><time>2026-04-24T13:30:40.973Z</time></trkpt><trkpt lat="43.0704625" lon="12.8034233"><ele>1016.6</ele><time>2026-04-24T13:30:43.969Z</time></trkpt><trkpt lat="43.0704569" lon="12.803608"><ele>1015.8</ele><time>2026-04-24T13:30:45.97Z</time></trkpt><trkpt lat="43.0704597" lon="12.8037401"><ele>1015.0</ele><time>2026-04-24T13:30:46.968Z</time></trkpt><trkpt lat="43.0704824" lon="12.8038516"><ele>1010.2</ele><time>2026-04-24T13:30:47.967Z</time></trkpt><trkpt lat="43.0705175" lon="12.8039624"><ele>1005.4</ele><time>2026-04-24T13:30:48.983Z</time></trkpt><trkpt lat="43.0705543" lon="12.8040712"><ele>1000.5999999999999</ele><time>2026-04-24T13:30:49.979Z</time></trkpt><trkpt lat="43.0706149" lon="12.804186"><ele>995.8</ele><time>2026-04-24T13:30:50.98Z</time></trkpt><trkpt lat="43.0706895" lon="12.8043229"><ele>991.0</ele><time>2026-04-24T13:30:51.976Z</time></trkpt><trkpt lat="43.0707743" lon="12.8044437"><ele>990.1999999999999</ele><time>2026-04-24T13:30:52.981Z</time></trkpt><trkpt lat="43.0708549" lon="12.8045431"><ele>989.3999999999999</ele><time>2026-04-24T13:30:53.985Z</time></trkpt><trkpt lat="43.0709368" lon="12.8046225"><ele>988.6</ele><time>2026-04-24T13:30:54.97Z</time></trkpt><trkpt lat="43.0710143" lon="12.8046809"><ele>987.8</ele><time>2026-04-24T13:30:55.973Z</time></trkpt><trkpt lat="43.0710868" lon="12.8047326"><ele>987.0</ele><time>2026-04-24T13:30:56.975Z</time></trkpt><trkpt lat="43.0711847" lon="12.8047578"><ele>987.0</ele><time>2026-04-24T13:30:57.977Z</time></trkpt><trkpt lat="43.0712908" lon="12.8047598"><ele>987.0</ele><time>2026-04-24T13:30:58.973Z</time></trkpt><trkpt lat="43.0713892" lon="12.8047726"><ele>987.0</ele><time>2026-04-24T13:30:59.98Z</time></trkpt><trkpt lat="43.0714843" lon="12.8047809"><ele>987.0</ele><time>2026-04-24T13:31:00.973Z</time></trkpt><trkpt lat="43.0715857" lon="12.804773"><ele>987.0</ele><time>2026-04-24T13:31:01.979Z</time></trkpt><trkpt lat="43.0716813" lon="12.8047658"><ele>986.3333333333334</ele><time>2026-04-24T13:31:02.981Z</time></trkpt><trkpt lat="43.0717736" lon="12.8047634"><ele>985.6666666666667</ele><time>2026-04-24T13:31:03.966Z</time></trkpt><trkpt lat="43.071859" lon="12.8047667"><ele>985.0</ele><time>2026-04-24T13:31:04.973Z</time></trkpt><trkpt lat="43.0719367" lon="12.8047676"><ele>984.3333333333334</ele><time>2026-04-24T13:31:05.974Z</time></trkpt><trkpt lat="43.072022" lon="12.8047758"><ele>983.6666666666667</ele><time>2026-04-24T13:31:06.981Z</time></trkpt><trkpt lat="43.0721062" lon="12.8047904"><ele>983.0</ele><time>2026-04-24T13:31:07.981Z</time></trkpt><trkpt lat="43.0721861" lon="12.8048041"><ele>983.0000000000001</ele><time>2026-04-24T13:31:08.984Z</time></trkpt><trkpt lat="43.0722616" lon="12.8048114"><ele>983.0</ele><time>2026-04-24T13:31:09.984Z</time></trkpt><trkpt lat="43.0723341" lon="12.8048172"><ele>983.0</ele><time>2026-04-24T13:31:10.993Z</time></trkpt><trkpt lat="43.0724002" lon="12.8048228"><ele>983.0</ele><time>2026-04-24T13:31:11.974Z</time></trkpt><trkpt lat="43.0724661" lon="12.8048258"><ele>983.0000000000001</ele><time>2026-04-24T13:31:12.973Z</time></trkpt><trkpt lat="43.0725873" lon="12.804814"><ele>983.0</ele><time>2026-04-24T13:31:14.988Z</time></trkpt><trkpt lat="43.0727039" lon="12.804752"><ele>981.5</ele><time>2026-04-24T13:31:16.983Z</time></trkpt><trkpt lat="43.0727689" lon="12.8047046"><ele>980.0</ele><time>2026-04-24T13:31:17.979Z</time></trkpt><trkpt lat="43.0728347" lon="12.8046673"><ele>978.5</ele><time>2026-04-24T13:31:18.977Z</time></trkpt><trkpt lat="43.0730462" lon="12.8045239"><ele>977.0</ele><time>2026-04-24T13:31:21.982Z</time></trkpt><trkpt lat="43.073118" lon="12.8044764"><ele>977.0000000000001</ele><time>2026-04-24T13:31:22.989Z</time></trkpt><trkpt lat="43.0731985" lon="12.8044414"><ele>977.0</ele><time>2026-04-24T13:31:23.974Z</time></trkpt><trkpt lat="43.0732756" lon="12.8044093"><ele>977.0</ele><time>2026-04-24T13:31:24.983Z</time></trkpt><trkpt lat="43.0733519" lon="12.8043902"><ele>977.0</ele><time>2026-04-24T13:31:25.971Z</time></trkpt><trkpt lat="43.0734255" lon="12.8043766"><ele>977.0000000000001</ele><time>2026-04-24T13:31:26.985Z</time></trkpt><trkpt lat="43.0734945" lon="12.80436"><ele>977.0</ele><time>2026-04-24T13:31:27.967Z</time></trkpt><trkpt lat="43.0735587" lon="12.8043501"><ele>974.1666666666667</ele><time>2026-04-24T13:31:28.981Z</time></trkpt><trkpt lat="43.0736809" lon="12.8043222"><ele>971.3333333333334</ele><time>2026-04-24T13:31:30.986Z</time></trkpt><trkpt lat="43.0737453" lon="12.804305"><ele>968.5</ele><time>2026-04-24T13:31:31.984Z</time></trkpt><trkpt lat="43.0738095" lon="12.8042816"><ele>965.6666666666667</ele><time>2026-04-24T13:31:32.98Z</time></trkpt><trkpt lat="43.0738736" lon="12.8042581"><ele>962.8333333333334</ele><time>2026-04-24T13:31:33.98Z</time></trkpt><trkpt lat="43.0739421" lon="12.8042252"><ele>960.0</ele><time>2026-04-24T13:31:34.972Z</time></trkpt><trkpt lat="43.0740124" lon="12.8041891"><ele>960.0</ele><time>2026-04-24T13:31:35.967Z</time></trkpt><trkpt lat="43.0740775" lon="12.8041463"><ele>960.0</ele><time>2026-04-24T13:31:36.972Z</time></trkpt><trkpt lat="43.0741304" lon="12.804097"><ele>960.0</ele><time>2026-04-24T13:31:37.973Z</time></trkpt><trkpt lat="43.0741821" lon="12.8040355"><ele>960.0</ele><time>2026-04-24T13:31:38.977Z</time></trkpt><trkpt lat="43.0742313" lon="12.8039665"><ele>960.0</ele><time>2026-04-24T13:31:39.972Z</time></trkpt><trkpt lat="43.0742791" lon="12.8038966"><ele>960.0</ele><time>2026-04-24T13:31:40.974Z</time></trkpt><trkpt lat="43.0743253" lon="12.8038225"><ele>960.0</ele><time>2026-04-24T13:31:41.978Z</time></trkpt><trkpt lat="43.0743677" lon="12.8037507"><ele>957.1666666666666</ele><time>2026-04-24T13:31:42.973Z</time></trkpt><trkpt lat="43.0744105" lon="12.803677"><ele>954.3333333333333</ele><time>2026-04-24T13:31:43.966Z</time></trkpt><trkpt lat="43.0744667" lon="12.8036096"><ele>951.5</ele><time>2026-04-24T13:31:44.979Z</time></trkpt><trkpt lat="43.074539" lon="12.8035656"><ele>948.6666666666666</ele><time>2026-04-24T13:31:45.972Z</time></trkpt><trkpt lat="43.0746252" lon="12.8035277"><ele>945.8333333333333</ele><time>2026-04-24T13:31:46.978Z</time></trkpt><trkpt lat="43.0747071" lon="12.8034904"><ele>943.0</ele><time>2026-04-24T13:31:47.97Z</time></trkpt><trkpt lat="43.074792" lon="12.8034432"><ele>939.9999999999999</ele><time>2026-04-24T13:31:48.978Z</time></trkpt><trkpt lat="43.0748713" lon="12.8034016"><ele>937.0</ele><time>2026-04-24T13:31:49.97Z</time></trkpt><trkpt lat="43.0749501" lon="12.8033535"><ele>934.0</ele><time>2026-04-24T13:31:50.976Z</time></trkpt><trkpt lat="43.0750335" lon="12.8033077"><ele>931.0</ele><time>2026-04-24T13:31:51.971Z</time></trkpt><trkpt lat="43.0751158" lon="12.8032602"><ele>927.9999999999999</ele><time>2026-04-24T13:31:52.986Z</time></trkpt><trkpt lat="43.0751992" lon="12.8032086"><ele>925.0</ele><time>2026-04-24T13:31:53.973Z</time></trkpt><trkpt lat="43.0752748" lon="12.803164"><ele>923.6666666666666</ele><time>2026-04-24T13:31:54.987Z</time></trkpt><trkpt lat="43.0753519" lon="12.8031105"><ele>922.3333333333333</ele><time>2026-04-24T13:31:55.971Z</time></trkpt><trkpt lat="43.0754332" lon="12.8030442"><ele>921.0</ele><time>2026-04-24T13:31:56.972Z</time></trkpt><trkpt lat="43.075513" lon="12.8029787"><ele>919.6666666666667</ele><time>2026-04-24T13:31:57.976Z</time></trkpt><trkpt lat="43.075589" lon="12.8029123"><ele>918.3333333333334</ele><time>2026-04-24T13:31:58.978Z</time></trkpt><trkpt lat="43.0756602" lon="12.802852"><ele>917.0</ele><time>2026-04-24T13:31:59.971Z</time></trkpt><trkpt lat="43.0757369" lon="12.8028007"><ele>915.1666666666667</ele><time>2026-04-24T13:32:00.973Z</time></trkpt><trkpt lat="43.0758148" lon="12.8027609"><ele>913.3333333333334</ele><time>2026-04-24T13:32:01.973Z</time></trkpt><trkpt lat="43.0758943" lon="12.8027116"><ele>911.5</ele><time>2026-04-24T13:32:02.98Z</time></trkpt><trkpt lat="43.0759709" lon="12.8026614"><ele>909.6666666666667</ele><time>2026-04-24T13:32:03.966Z</time></trkpt><trkpt lat="43.0760428" lon="12.8026153"><ele>907.8333333333334</ele><time>2026-04-24T13:32:04.974Z</time></trkpt><trkpt lat="43.0761095" lon="12.8025698"><ele>906.0</ele><time>2026-04-24T13:32:05.958Z</time></trkpt><trkpt lat="43.0761718" lon="12.8025374"><ele>905.0</ele><time>2026-04-24T13:32:06.974Z</time></trkpt><trkpt lat="43.0762598" lon="12.8025024"><ele>904.0</ele><time>2026-04-24T13:32:08.966Z</time></trkpt><trkpt lat="43.0763223" lon="12.8025135"><ele>903.0</ele><time>2026-04-24T13:32:10.974Z</time></trkpt><trkpt lat="43.0763402" lon="12.802601"><ele>902.0</ele><time>2026-04-24T13:32:13.978Z</time></trkpt><trkpt lat="43.0762583" lon="12.8025682"><ele>901.0</ele><time>2026-04-24T13:32:16.976Z</time></trkpt><trkpt lat="43.0761943" lon="12.8025318"><ele>900.0</ele><time>2026-04-24T13:32:18.978Z</time></trkpt><trkpt lat="43.0761117" lon="12.8025078"><ele>900.0</ele><time>2026-04-24T13:32:20.976Z</time></trkpt><trkpt lat="43.0759862" lon="12.8024984"><ele>900.0</ele><time>2026-04-24T13:32:22.976Z</time></trkpt><trkpt lat="43.0759166" lon="12.8025052"><ele>900.0</ele><time>2026-04-24T13:32:23.978Z</time></trkpt><trkpt lat="43.0758368" lon="12.8025086"><ele>900.0</ele><time>2026-04-24T13:32:24.976Z</time></trkpt><trkpt lat="43.0757484" lon="12.8025103"><ele>900.0</ele><time>2026-04-24T13:32:25.969Z</time></trkpt><trkpt lat="43.0756498" lon="12.8025082"><ele>900.0</ele><time>2026-04-24T13:32:26.973Z</time></trkpt><trkpt lat="43.0755456" lon="12.8025005"><ele>900.0</ele><time>2026-04-24T13:32:27.982Z</time></trkpt><trkpt lat="43.0754455" lon="12.8024912"><ele>900.0</ele><time>2026-04-24T13:32:28.969Z</time></trkpt><trkpt lat="43.075354" lon="12.8024893"><ele>900.0</ele><time>2026-04-24T13:32:29.969Z</time></trkpt><trkpt lat="43.0752666" lon="12.8025042"><ele>900.0</ele><time>2026-04-24T13:32:30.982Z</time></trkpt><trkpt lat="43.0751759" lon="12.8025166"><ele>900.0</ele><time>2026-04-24T13:32:31.962Z</time></trkpt><trkpt lat="43.0750763" lon="12.802521"><ele>900.0</ele><time>2026-04-24T13:32:32.982Z</time></trkpt><trkpt lat="43.0749692" lon="12.8025259"><ele>900.0</ele><time>2026-04-24T13:32:33.973Z</time></trkpt><trkpt lat="43.074861" lon="12.8025227"><ele>900.0</ele><time>2026-04-24T13:32:34.976Z</time></trkpt><trkpt lat="43.0747554" lon="12.8025292"><ele>900.0</ele><time>2026-04-24T13:32:35.969Z</time></trkpt><trkpt lat="43.0746554" lon="12.8025233"><ele>900.8333333333334</ele><time>2026-04-24T13:32:36.977Z</time></trkpt><trkpt lat="43.0745706" lon="12.802518"><ele>901.6666666666667</ele><time>2026-04-24T13:32:37.966Z</time></trkpt><trkpt lat="43.0744856" lon="12.8025134"><ele>902.5</ele><time>2026-04-24T13:32:38.976Z</time></trkpt><trkpt lat="43.0744017" lon="12.8025161"><ele>903.3333333333334</ele><time>2026-04-24T13:32:39.963Z</time></trkpt><trkpt lat="43.0743171" lon="12.8025086"><ele>904.1666666666667</ele><time>2026-04-24T13:32:40.968Z</time></trkpt><trkpt lat="43.0742432" lon="12.8025057"><ele>905.0</ele><time>2026-04-24T13:32:41.973Z</time></trkpt><trkpt lat="43.0741457" lon="12.802472"><ele>905.0</ele><time>2026-04-24T13:32:43.967Z</time></trkpt><trkpt lat="43.0740817" lon="12.802357"><ele>905.0</ele><time>2026-04-24T13:32:45.969Z</time></trkpt><trkpt lat="43.0740951" lon="12.8021805"><ele>905.0</ele><time>2026-04-24T13:32:47.97Z</time></trkpt><trkpt lat="43.0741261" lon="12.8020703"><ele>905.0</ele><time>2026-04-24T13:32:48.976Z</time></trkpt><trkpt lat="43.0741706" lon="12.8019466"><ele>905.0</ele><time>2026-04-24T13:32:49.971Z</time></trkpt><trkpt lat="43.0742184" lon="12.8017937"><ele>907.75</ele><time>2026-04-24T13:32:50.971Z</time></trkpt><trkpt lat="43.0742717" lon="12.8016228"><ele>910.5</ele><time>2026-04-24T13:32:51.963Z</time></trkpt><trkpt lat="43.0743225" lon="12.8014442"><ele>913.25</ele><time>2026-04-24T13:32:52.974Z</time></trkpt><trkpt lat="43.0743776" lon="12.8012858"><ele>916.0</ele><time>2026-04-24T13:32:53.971Z</time></trkpt><trkpt lat="43.0744479" lon="12.8011429"><ele>922.0</ele><time>2026-04-24T13:32:54.976Z</time></trkpt><trkpt lat="43.0745337" lon="12.8009971"><ele>928.0</ele><time>2026-04-24T13:32:55.976Z</time></trkpt><trkpt lat="43.0746147" lon="12.800834"><ele>934.0</ele><time>2026-04-24T13:32:56.974Z</time></trkpt><trkpt lat="43.0746918" lon="12.800657"><ele>940.0</ele><time>2026-04-24T13:32:57.969Z</time></trkpt><trkpt lat="43.0747722" lon="12.800494"><ele>940.0</ele><time>2026-04-24T13:32:58.974Z</time></trkpt><trkpt lat="43.074848" lon="12.8003456"><ele>940.0</ele><time>2026-04-24T13:32:59.973Z</time></trkpt><trkpt lat="43.0749128" lon="12.800217"><ele>940.0</ele><time>2026-04-24T13:33:00.975Z</time></trkpt><trkpt lat="43.0749795" lon="12.8000875"><ele>940.0</ele><time>2026-04-24T13:33:01.971Z</time></trkpt><trkpt lat="43.0750514" lon="12.7999493"><ele>937.0</ele><time>2026-04-24T13:33:02.978Z</time></trkpt><trkpt lat="43.0751243" lon="12.7998057"><ele>934.0</ele><time>2026-04-24T13:33:03.966Z</time></trkpt><trkpt lat="43.0751901" lon="12.799666"><ele>931.0</ele><time>2026-04-24T13:33:04.974Z</time></trkpt><trkpt lat="43.0752344" lon="12.7995418"><ele>928.0</ele><time>2026-04-24T13:33:05.964Z</time></trkpt><trkpt lat="43.0752744" lon="12.7994099"><ele>932.8</ele><time>2026-04-24T13:33:06.972Z</time></trkpt><trkpt lat="43.0753145" lon="12.7992796"><ele>937.5999999999999</ele><time>2026-04-24T13:33:07.973Z</time></trkpt><trkpt lat="43.0753612" lon="12.7991441"><ele>942.4000000000001</ele><time>2026-04-24T13:33:08.975Z</time></trkpt><trkpt lat="43.075403" lon="12.7990134"><ele>947.2</ele><time>2026-04-24T13:33:09.971Z</time></trkpt><trkpt lat="43.0754459" lon="12.7988763"><ele>952.0</ele><time>2026-04-24T13:33:10.972Z</time></trkpt><trkpt lat="43.0754893" lon="12.7987311"><ele>952.0</ele><time>2026-04-24T13:33:11.97Z</time></trkpt><trkpt lat="43.0755314" lon="12.798584"><ele>952.0</ele><time>2026-04-24T13:33:12.982Z</time></trkpt><trkpt lat="43.075584" lon="12.7984399"><ele>952.0</ele><time>2026-04-24T13:33:13.969Z</time></trkpt><trkpt lat="43.0756392" lon="12.7982926"><ele>952.0</ele><time>2026-04-24T13:33:14.967Z</time></trkpt><trkpt lat="43.0756821" lon="12.7981613"><ele>952.6</ele><time>2026-04-24T13:33:15.98Z</time></trkpt><trkpt lat="43.0757203" lon="12.7980417"><ele>953.2</ele><time>2026-04-24T13:33:16.982Z</time></trkpt><trkpt lat="43.07576" lon="12.7979215"><ele>953.8</ele><time>2026-04-24T13:33:17.969Z</time></trkpt><trkpt lat="43.0757934" lon="12.7978017"><ele>954.4</ele><time>2026-04-24T13:33:18.976Z</time></trkpt><trkpt lat="43.0758159" lon="12.797676"><ele>955.0</ele><time>2026-04-24T13:33:19.972Z</time></trkpt><trkpt lat="43.0758322" lon="12.7975546"><ele>955.0</ele><time>2026-04-24T13:33:20.97Z</time></trkpt><trkpt lat="43.0758442" lon="12.7974271"><ele>955.0</ele><time>2026-04-24T13:33:21.975Z</time></trkpt><trkpt lat="43.0758462" lon="12.7972945"><ele>955.0</ele><time>2026-04-24T13:33:22.978Z</time></trkpt><trkpt lat="43.0758389" lon="12.7971465"><ele>955.0</ele><time>2026-04-24T13:33:23.971Z</time></trkpt><trkpt lat="43.075834" lon="12.7969859"><ele>955.0</ele><time>2026-04-24T13:33:24.976Z</time></trkpt><trkpt lat="43.0758343" lon="12.7968206"><ele>957.0</ele><time>2026-04-24T13:33:25.969Z</time></trkpt><trkpt lat="43.0758316" lon="12.7966617"><ele>959.0</ele><time>2026-04-24T13:33:26.978Z</time></trkpt><trkpt lat="43.0758213" lon="12.7965227"><ele>961.0</ele><time>2026-04-24T13:33:27.964Z</time></trkpt><trkpt lat="43.0758046" lon="12.7963947"><ele>963.0</ele><time>2026-04-24T13:33:28.966Z</time></trkpt><trkpt lat="43.0757884" lon="12.7962717"><ele>965.0</ele><time>2026-04-24T13:33:29.973Z</time></trkpt><trkpt lat="43.0757618" lon="12.7961452"><ele>970.2</ele><time>2026-04-24T13:33:30.981Z</time></trkpt><trkpt lat="43.0757257" lon="12.7960205"><ele>975.4</ele><time>2026-04-24T13:33:31.968Z</time></trkpt><trkpt lat="43.0756909" lon="12.7959072"><ele>980.5999999999999</ele><time>2026-04-24T13:33:32.968Z</time></trkpt><trkpt lat="43.0756587" lon="12.7957943"><ele>985.8</ele><time>2026-04-24T13:33:33.971Z</time></trkpt><trkpt lat="43.0756466" lon="12.7956965"><ele>991.0</ele><time>2026-04-24T13:33:34.979Z</time></trkpt><trkpt lat="43.0756761" lon="12.7955455"><ele>991.1999999999999</ele><time>2026-04-24T13:33:36.981Z</time></trkpt><trkpt lat="43.0757123" lon="12.7954437"><ele>991.3999999999999</ele><time>2026-04-24T13:33:37.985Z</time></trkpt><trkpt lat="43.075746" lon="12.7953406"><ele>991.6</ele><time>2026-04-24T13:33:38.975Z</time></trkpt><trkpt lat="43.0757985" lon="12.7952483"><ele>991.8</ele><time>2026-04-24T13:33:39.971Z</time></trkpt><trkpt lat="43.075883" lon="12.7951648"><ele>992.0</ele><time>2026-04-24T13:33:40.984Z</time></trkpt><trkpt lat="43.0759786" lon="12.7951052"><ele>987.25</ele><time>2026-04-24T13:33:41.983Z</time></trkpt><trkpt lat="43.0760828" lon="12.7950357"><ele>982.5</ele><time>2026-04-24T13:33:42.974Z</time></trkpt><trkpt lat="43.0761867" lon="12.7949664"><ele>977.75</ele><time>2026-04-24T13:33:43.969Z</time></trkpt><trkpt lat="43.0762894" lon="12.7948995"><ele>973.0</ele><time>2026-04-24T13:33:44.977Z</time></trkpt><trkpt lat="43.0763915" lon="12.7948516"><ele>973.0</ele><time>2026-04-24T13:33:45.974Z</time></trkpt><trkpt lat="43.0764939" lon="12.7948024"><ele>973.0</ele><time>2026-04-24T13:33:46.982Z</time></trkpt><trkpt lat="43.0765941" lon="12.7947577"><ele>973.0</ele><time>2026-04-24T13:33:47.973Z</time></trkpt><trkpt lat="43.0767019" lon="12.7947171"><ele>973.0</ele><time>2026-04-24T13:33:48.978Z</time></trkpt><trkpt lat="43.0768154" lon="12.7946791"><ele>973.0</ele><time>2026-04-24T13:33:49.971Z</time></trkpt><trkpt lat="43.0769325" lon="12.7946439"><ele>970.8</ele><time>2026-04-24T13:33:50.984Z</time></trkpt><trkpt lat="43.0770429" lon="12.794592"><ele>968.5999999999999</ele><time>2026-04-24T13:33:51.974Z</time></trkpt><trkpt lat="43.0771454" lon="12.7945348"><ele>966.4000000000001</ele><time>2026-04-24T13:33:52.985Z</time></trkpt><trkpt lat="43.0772468" lon="12.7944698"><ele>964.2</ele><time>2026-04-24T13:33:53.969Z</time></trkpt><trkpt lat="43.0773371" lon="12.7944069"><ele>962.0</ele><time>2026-04-24T13:33:54.974Z</time></trkpt><trkpt lat="43.077405" lon="12.7943501"><ele>961.5000000000001</ele><time>2026-04-24T13:33:55.977Z</time></trkpt><trkpt lat="43.077491" lon="12.7942151"><ele>961.0</ele><time>2026-04-24T13:33:57.966Z</time></trkpt><trkpt lat="43.0775308" lon="12.7941363"><ele>960.5</ele><time>2026-04-24T13:33:58.972Z</time></trkpt><trkpt lat="43.0775743" lon="12.7940688"><ele>960.0</ele><time>2026-04-24T13:33:59.974Z</time></trkpt><trkpt lat="43.0776224" lon="12.7939919"><ele>959.5000000000001</ele><time>2026-04-24T13:34:00.991Z</time></trkpt><trkpt lat="43.0776756" lon="12.7939171"><ele>959.0</ele><time>2026-04-24T13:34:01.972Z</time></trkpt><trkpt lat="43.0777186" lon="12.7938465"><ele>959.0000000000001</ele><time>2026-04-24T13:34:02.967Z</time></trkpt><trkpt lat="43.0777581" lon="12.7937723"><ele>959.0</ele><time>2026-04-24T13:34:03.976Z</time></trkpt><trkpt lat="43.0778002" lon="12.793697"><ele>959.0</ele><time>2026-04-24T13:34:04.98Z</time></trkpt><trkpt lat="43.0778463" lon="12.7936243"><ele>959.0</ele><time>2026-04-24T13:34:05.974Z</time></trkpt><trkpt lat="43.0779038" lon="12.7935721"><ele>959.0000000000001</ele><time>2026-04-24T13:34:06.984Z</time></trkpt><trkpt lat="43.077978" lon="12.7935291"><ele>959.0</ele><time>2026-04-24T13:34:07.977Z</time></trkpt><trkpt lat="43.0780647" lon="12.7934727"><ele>957.4000000000001</ele><time>2026-04-24T13:34:08.971Z</time></trkpt><trkpt lat="43.0781715" lon="12.7934389"><ele>955.8000000000001</ele><time>2026-04-24T13:34:09.98Z</time></trkpt><trkpt lat="43.0782817" lon="12.793394"><ele>954.1999999999999</ele><time>2026-04-24T13:34:10.988Z</time></trkpt><trkpt lat="43.0783835" lon="12.7933464"><ele>952.5999999999999</ele><time>2026-04-24T13:34:11.977Z</time></trkpt><trkpt lat="43.0784723" lon="12.7932769"><ele>951.0</ele><time>2026-04-24T13:34:12.992Z</time></trkpt><trkpt lat="43.0785527" lon="12.7932111"><ele>950.0</ele><time>2026-04-24T13:34:13.99Z</time></trkpt><trkpt lat="43.0786169" lon="12.7931398"><ele>949.0</ele><time>2026-04-24T13:34:14.97Z</time></trkpt><trkpt lat="43.0786724" lon="12.7930534"><ele>948.0</ele><time>2026-04-24T13:34:15.991Z</time></trkpt><trkpt lat="43.0787291" lon="12.792951"><ele>947.0</ele><time>2026-04-24T13:34:16.982Z</time></trkpt><trkpt lat="43.0787777" lon="12.7928534"><ele>946.0</ele><time>2026-04-24T13:34:17.979Z</time></trkpt><trkpt lat="43.0788188" lon="12.792755"><ele>945.0</ele><time>2026-04-24T13:34:18.989Z</time></trkpt><trkpt lat="43.0788415" lon="12.7926468"><ele>943.3333333333334</ele><time>2026-04-24T13:34:20Z</time></trkpt><trkpt lat="43.0788349" lon="12.792548"><ele>941.6666666666667</ele><time>2026-04-24T13:34:20.974Z</time></trkpt><trkpt lat="43.0788069" lon="12.7924662"><ele>940.0</ele><time>2026-04-24T13:34:21.988Z</time></trkpt><trkpt lat="43.0787613" lon="12.7923893"><ele>938.3333333333334</ele><time>2026-04-24T13:34:23.004Z</time></trkpt><trkpt lat="43.0787067" lon="12.7923299"><ele>936.6666666666667</ele><time>2026-04-24T13:34:23.996Z</time></trkpt><trkpt lat="43.0786372" lon="12.7922809"><ele>935.0</ele><time>2026-04-24T13:34:25.001Z</time></trkpt><trkpt lat="43.07855" lon="12.7922442"><ele>935.0</ele><time>2026-04-24T13:34:25.989Z</time></trkpt><trkpt lat="43.0784505" lon="12.7922286"><ele>935.0</ele><time>2026-04-24T13:34:26.975Z</time></trkpt><trkpt lat="43.0783554" lon="12.7922258"><ele>935.0</ele><time>2026-04-24T13:34:27.991Z</time></trkpt><trkpt lat="43.0782644" lon="12.7922268"><ele>935.0</ele><time>2026-04-24T13:34:28.992Z</time></trkpt><trkpt lat="43.0781779" lon="12.7922331"><ele>935.0</ele><time>2026-04-24T13:34:29.977Z</time></trkpt><trkpt lat="43.0780889" lon="12.7922299"><ele>935.2857142857144</ele><time>2026-04-24T13:34:30.985Z</time></trkpt><trkpt lat="43.0779992" lon="12.792231"><ele>935.5714285714287</ele><time>2026-04-24T13:34:31.996Z</time></trkpt><trkpt lat="43.0779197" lon="12.7922368"><ele>935.8571428571429</ele><time>2026-04-24T13:34:32.982Z</time></trkpt><trkpt lat="43.0778467" lon="12.7922345"><ele>936.1428571428572</ele><time>2026-04-24T13:34:34.002Z</time></trkpt><trkpt lat="43.0777791" lon="12.7922243"><ele>936.4285714285716</ele><time>2026-04-24T13:34:34.981Z</time></trkpt><trkpt lat="43.0777126" lon="12.7921989"><ele>936.7142857142857</ele><time>2026-04-24T13:34:35.966Z</time></trkpt><trkpt lat="43.0776768" lon="12.7921228"><ele>937.0</ele><time>2026-04-24T13:34:36.984Z</time></trkpt><trkpt lat="43.0776542" lon="12.7920033"><ele>937.0</ele><time>2026-04-24T13:34:37.989Z</time></trkpt><trkpt lat="43.077617" lon="12.7918877"><ele>937.0</ele><time>2026-04-24T13:34:38.981Z</time></trkpt><trkpt lat="43.0775621" lon="12.7917744"><ele>937.0</ele><time>2026-04-24T13:34:39.988Z</time></trkpt><trkpt lat="43.0774936" lon="12.7916419"><ele>937.0</ele><time>2026-04-24T13:34:40.983Z</time></trkpt><trkpt lat="43.0774029" lon="12.7915065"><ele>937.0</ele><time>2026-04-24T13:34:41.982Z</time></trkpt><trkpt lat="43.077309" lon="12.7913811"><ele>936.75</ele><time>2026-04-24T13:34:42.998Z</time></trkpt><trkpt lat="43.0772118" lon="12.791268"><ele>936.5</ele><time>2026-04-24T13:34:43.984Z</time></trkpt><trkpt lat="43.0771213" lon="12.7911685"><ele>936.25</ele><time>2026-04-24T13:34:44.981Z</time></trkpt><trkpt lat="43.0770299" lon="12.7910788"><ele>936.0</ele><time>2026-04-24T13:34:45.974Z</time></trkpt><trkpt lat="43.0769374" lon="12.790997"><ele>935.25</ele><time>2026-04-24T13:34:47.002Z</time></trkpt><trkpt lat="43.0768495" lon="12.7909195"><ele>934.5</ele><time>2026-04-24T13:34:47.999Z</time></trkpt><trkpt lat="43.0767559" lon="12.7908329"><ele>933.75</ele><time>2026-04-24T13:34:48.992Z</time></trkpt><trkpt lat="43.0766633" lon="12.7907404"><ele>933.0</ele><time>2026-04-24T13:34:49.989Z</time></trkpt><trkpt lat="43.0765671" lon="12.7906414"><ele>933.0</ele><time>2026-04-24T13:34:50.996Z</time></trkpt><trkpt lat="43.0764698" lon="12.7905361"><ele>933.0</ele><time>2026-04-24T13:34:51.985Z</time></trkpt><trkpt lat="43.0763649" lon="12.7904295"><ele>933.0</ele><time>2026-04-24T13:34:53.002Z</time></trkpt><trkpt lat="43.07626" lon="12.7903244"><ele>933.0</ele><time>2026-04-24T13:34:53.972Z</time></trkpt><trkpt lat="43.0761512" lon="12.7902294"><ele>930.0</ele><time>2026-04-24T13:34:54.991Z</time></trkpt><trkpt lat="43.0760431" lon="12.7901434"><ele>927.0</ele><time>2026-04-24T13:34:55.983Z</time></trkpt><trkpt lat="43.0759357" lon="12.7900568"><ele>924.0</ele><time>2026-04-24T13:34:56.989Z</time></trkpt><trkpt lat="43.0758334" lon="12.7899675"><ele>921.0</ele><time>2026-04-24T13:34:57.981Z</time></trkpt><trkpt lat="43.0757353" lon="12.7898835"><ele>921.0</ele><time>2026-04-24T13:34:58.99Z</time></trkpt><trkpt lat="43.0756387" lon="12.7897987"><ele>920.9999999999999</ele><time>2026-04-24T13:34:59.988Z</time></trkpt><trkpt lat="43.0755401" lon="12.7897147"><ele>920.9999999999999</ele><time>2026-04-24T13:35:00.99Z</time></trkpt><trkpt lat="43.0754464" lon="12.7896335"><ele>921.0</ele><time>2026-04-24T13:35:01.997Z</time></trkpt><trkpt lat="43.0753589" lon="12.789553"><ele>921.0</ele><time>2026-04-24T13:35:02.986Z</time></trkpt><trkpt lat="43.0752711" lon="12.7894793"><ele>921.0</ele><time>2026-04-24T13:35:03.981Z</time></trkpt><trkpt lat="43.075173" lon="12.7893928"><ele>921.0</ele><time>2026-04-24T13:35:04.998Z</time></trkpt><trkpt lat="43.0750784" lon="12.7893027"><ele>921.0</ele><time>2026-04-24T13:35:05.972Z</time></trkpt><trkpt lat="43.0749817" lon="12.789218"><ele>921.0</ele><time>2026-04-24T13:35:06.99Z</time></trkpt><trkpt lat="43.0748861" lon="12.7891304"><ele>919.75</ele><time>2026-04-24T13:35:07.984Z</time></trkpt><trkpt lat="43.0747892" lon="12.7890407"><ele>918.5</ele><time>2026-04-24T13:35:08.977Z</time></trkpt><trkpt lat="43.0747011" lon="12.7889354"><ele>917.25</ele><time>2026-04-24T13:35:09.981Z</time></trkpt><trkpt lat="43.0746239" lon="12.7888069"><ele>916.0</ele><time>2026-04-24T13:35:10.998Z</time></trkpt><trkpt lat="43.0745597" lon="12.7886738"><ele>916.0</ele><time>2026-04-24T13:35:11.97Z</time></trkpt><trkpt lat="43.0744938" lon="12.7885623"><ele>916.0</ele><time>2026-04-24T13:35:12.994Z</time></trkpt><trkpt lat="43.0744119" lon="12.7884685"><ele>916.0</ele><time>2026-04-24T13:35:13.987Z</time></trkpt><trkpt lat="43.0743108" lon="12.7883744"><ele>916.0</ele><time>2026-04-24T13:35:14.993Z</time></trkpt><trkpt lat="43.0742075" lon="12.7882742"><ele>915.0</ele><time>2026-04-24T13:35:15.987Z</time></trkpt><trkpt lat="43.074107" lon="12.7881736"><ele>914.0</ele><time>2026-04-24T13:35:16.989Z</time></trkpt><trkpt lat="43.0740048" lon="12.7880743"><ele>913.0</ele><time>2026-04-24T13:35:17.971Z</time></trkpt><trkpt lat="43.0739097" lon="12.7879764"><ele>912.0</ele><time>2026-04-24T13:35:18.991Z</time></trkpt><trkpt lat="43.0738203" lon="12.787883"><ele>912.0</ele><time>2026-04-24T13:35:19.997Z</time></trkpt><trkpt lat="43.0737378" lon="12.7877838"><ele>912.0</ele><time>2026-04-24T13:35:20.997Z</time></trkpt><trkpt lat="43.0736586" lon="12.7876636"><ele>912.0</ele><time>2026-04-24T13:35:21.972Z</time></trkpt><trkpt lat="43.073583" lon="12.7875345"><ele>912.0</ele><time>2026-04-24T13:35:22.982Z</time></trkpt><trkpt lat="43.0733803" lon="12.7871797"><ele>910.6666666666666</ele><time>2026-04-24T13:35:25.972Z</time></trkpt><trkpt lat="43.0733248" lon="12.7870985"><ele>909.3333333333333</ele><time>2026-04-24T13:35:26.989Z</time></trkpt><trkpt lat="43.0732844" lon="12.7870283"><ele>908.0</ele><time>2026-04-24T13:35:27.981Z</time></trkpt><trkpt lat="43.073254" lon="12.7869182"><ele>906.6666666666666</ele><time>2026-04-24T13:35:29.982Z</time></trkpt><trkpt lat="43.0733207" lon="12.7868406"><ele>905.3333333333333</ele><time>2026-04-24T13:35:31.993Z</time></trkpt><trkpt lat="43.0734364" lon="12.7868903"><ele>904.0</ele><time>2026-04-24T13:35:33.972Z</time></trkpt><trkpt lat="43.0735106" lon="12.7869364"><ele>901.25</ele><time>2026-04-24T13:35:34.985Z</time></trkpt><trkpt lat="43.0736037" lon="12.786997"><ele>898.5</ele><time>2026-04-24T13:35:35.974Z</time></trkpt><trkpt lat="43.0737065" lon="12.7870556"><ele>895.75</ele><time>2026-04-24T13:35:36.991Z</time></trkpt><trkpt lat="43.0738195" lon="12.787115"><ele>893.0</ele><time>2026-04-24T13:35:37.98Z</time></trkpt><trkpt lat="43.0739481" lon="12.7871712"><ele>893.0</ele><time>2026-04-24T13:35:38.99Z</time></trkpt><trkpt lat="43.0740878" lon="12.7872352"><ele>893.0</ele><time>2026-04-24T13:35:39.992Z</time></trkpt><trkpt lat="43.0742241" lon="12.7872889"><ele>893.0</ele><time>2026-04-24T13:35:40.987Z</time></trkpt><trkpt lat="43.0743624" lon="12.7873402"><ele>893.0</ele><time>2026-04-24T13:35:41.988Z</time></trkpt><trkpt lat="43.0744961" lon="12.7873825"><ele>889.25</ele><time>2026-04-24T13:35:42.972Z</time></trkpt><trkpt lat="43.0746225" lon="12.7874221"><ele>885.5</ele><time>2026-04-24T13:35:43.986Z</time></trkpt><trkpt lat="43.0747522" lon="12.7874579"><ele>881.75</ele><time>2026-04-24T13:35:44.989Z</time></trkpt><trkpt lat="43.0748762" lon="12.7875061"><ele>878.0</ele><time>2026-04-24T13:35:45.98Z</time></trkpt><trkpt lat="43.0749953" lon="12.7875503"><ele>880.0</ele><time>2026-04-24T13:35:46.983Z</time></trkpt><trkpt lat="43.0751149" lon="12.7875984"><ele>882.0</ele><time>2026-04-24T13:35:47.986Z</time></trkpt><trkpt lat="43.0752375" lon="12.7876401"><ele>884.0</ele><time>2026-04-24T13:35:48.992Z</time></trkpt><trkpt lat="43.0753566" lon="12.7876798"><ele>886.0</ele><time>2026-04-24T13:35:49.993Z</time></trkpt><trkpt lat="43.0754687" lon="12.7877193"><ele>886.0</ele><time>2026-04-24T13:35:50.999Z</time></trkpt><trkpt lat="43.0755883" lon="12.7877476"><ele>886.0</ele><time>2026-04-24T13:35:51.999Z</time></trkpt><trkpt lat="43.0757091" lon="12.7877667"><ele>886.0</ele><time>2026-04-24T13:35:52.993Z</time></trkpt><trkpt lat="43.0758434" lon="12.7877685"><ele>886.0</ele><time>2026-04-24T13:35:53.992Z</time></trkpt><trkpt lat="43.0759783" lon="12.787761"><ele>882.25</ele><time>2026-04-24T13:35:54.993Z</time></trkpt><trkpt lat="43.0761243" lon="12.7877531"><ele>878.5</ele><time>2026-04-24T13:35:55.962Z</time></trkpt><trkpt lat="43.0762648" lon="12.7877483"><ele>874.75</ele><time>2026-04-24T13:35:56.995Z</time></trkpt><trkpt lat="43.0764019" lon="12.7877522"><ele>871.0</ele><time>2026-04-24T13:35:58.008Z</time></trkpt><trkpt lat="43.0765246" lon="12.7877547"><ele>869.1999999999999</ele><time>2026-04-24T13:35:58.994Z</time></trkpt><trkpt lat="43.0766373" lon="12.7877637"><ele>867.3999999999999</ele><time>2026-04-24T13:35:59.981Z</time></trkpt><trkpt lat="43.0767441" lon="12.7877766"><ele>865.6</ele><time>2026-04-24T13:36:01.009Z</time></trkpt><trkpt lat="43.0768449" lon="12.7877993"><ele>863.8</ele><time>2026-04-24T13:36:01.974Z</time></trkpt><trkpt lat="43.0769421" lon="12.7878268"><ele>862.0</ele><time>2026-04-24T13:36:02.982Z</time></trkpt><trkpt lat="43.0770307" lon="12.7878621"><ele>861.9999999999999</ele><time>2026-04-24T13:36:03.978Z</time></trkpt><trkpt lat="43.0771045" lon="12.7879149"><ele>862.0</ele><time>2026-04-24T13:36:04.996Z</time></trkpt><trkpt lat="43.0771669" lon="12.7879885"><ele>862.0</ele><time>2026-04-24T13:36:05.992Z</time></trkpt><trkpt lat="43.0772232" lon="12.7880756"><ele>862.0</ele><time>2026-04-24T13:36:06.989Z</time></trkpt><trkpt lat="43.0772557" lon="12.7881711"><ele>861.9999999999999</ele><time>2026-04-24T13:36:08.004Z</time></trkpt><trkpt lat="43.0772713" lon="12.7882699"><ele>862.0</ele><time>2026-04-24T13:36:08.982Z</time></trkpt><trkpt lat="43.0772881" lon="12.7883607"><ele>861.9999999999999</ele><time>2026-04-24T13:36:09.982Z</time></trkpt><trkpt lat="43.0773175" lon="12.7884474"><ele>862.0</ele><time>2026-04-24T13:36:10.985Z</time></trkpt><trkpt lat="43.0774166" lon="12.7885213"><ele>862.0</ele><time>2026-04-24T13:36:12.987Z</time></trkpt><trkpt lat="43.077488" lon="12.7884909"><ele>862.0</ele><time>2026-04-24T13:36:13.974Z</time></trkpt><trkpt lat="43.077545" lon="12.7884291"><ele>861.9999999999999</ele><time>2026-04-24T13:36:14.983Z</time></trkpt><trkpt lat="43.0776049" lon="12.7883608"><ele>862.0</ele><time>2026-04-24T13:36:15.97Z</time></trkpt><trkpt lat="43.077673" lon="12.7882783"><ele>857.6</ele><time>2026-04-24T13:36:16.979Z</time></trkpt><trkpt lat="43.0777343" lon="12.7882078"><ele>853.2</ele><time>2026-04-24T13:36:17.989Z</time></trkpt><trkpt lat="43.0778038" lon="12.7881247"><ele>848.8</ele><time>2026-04-24T13:36:18.972Z</time></trkpt><trkpt lat="43.0778751" lon="12.7880237"><ele>844.4</ele><time>2026-04-24T13:36:19.975Z</time></trkpt><trkpt lat="43.0779505" lon="12.7879099"><ele>840.0</ele><time>2026-04-24T13:36:20.958Z</time></trkpt><trkpt lat="43.0780233" lon="12.7877862"><ele>833.75</ele><time>2026-04-24T13:36:21.994Z</time></trkpt><trkpt lat="43.0780867" lon="12.7876548"><ele>827.5</ele><time>2026-04-24T13:36:22.988Z</time></trkpt><trkpt lat="43.0781409" lon="12.7875261"><ele>821.25</ele><time>2026-04-24T13:36:23.99Z</time></trkpt><trkpt lat="43.0781968" lon="12.7873817"><ele>815.0</ele><time>2026-04-24T13:36:24.982Z</time></trkpt><trkpt lat="43.0782581" lon="12.7872471"><ele>817.25</ele><time>2026-04-24T13:36:25.993Z</time></trkpt><trkpt lat="43.0783241" lon="12.7871116"><ele>819.5</ele><time>2026-04-24T13:36:26.997Z</time></trkpt><trkpt lat="43.0783901" lon="12.7869773"><ele>821.75</ele><time>2026-04-24T13:36:27.988Z</time></trkpt><trkpt lat="43.0784554" lon="12.7868389"><ele>824.0</ele><time>2026-04-24T13:36:28.984Z</time></trkpt><trkpt lat="43.0785204" lon="12.7866941"><ele>817.25</ele><time>2026-04-24T13:36:29.993Z</time></trkpt><trkpt lat="43.0785819" lon="12.7865448"><ele>810.5</ele><time>2026-04-24T13:36:31.002Z</time></trkpt><trkpt lat="43.0786372" lon="12.7863883"><ele>803.75</ele><time>2026-04-24T13:36:31.975Z</time></trkpt><trkpt lat="43.0786939" lon="12.7862281"><ele>797.0</ele><time>2026-04-24T13:36:32.983Z</time></trkpt><trkpt lat="43.0787536" lon="12.7860679"><ele>789.25</ele><time>2026-04-24T13:36:33.987Z</time></trkpt><trkpt lat="43.0788067" lon="12.7859056"><ele>781.5</ele><time>2026-04-24T13:36:34.989Z</time></trkpt><trkpt lat="43.0788582" lon="12.7857468"><ele>773.75</ele><time>2026-04-24T13:36:35.985Z</time></trkpt><trkpt lat="43.0789092" lon="12.785594"><ele>766.0</ele><time>2026-04-24T13:36:37Z</time></trkpt><trkpt lat="43.0789685" lon="12.7854526"><ele>766.0</ele><time>2026-04-24T13:36:37.997Z</time></trkpt><trkpt lat="43.0790253" lon="12.785324"><ele>766.0</ele><time>2026-04-24T13:36:38.991Z</time></trkpt><trkpt lat="43.0790867" lon="12.7852056"><ele>766.0</ele><time>2026-04-24T13:36:39.997Z</time></trkpt><trkpt lat="43.0791538" lon="12.7850975"><ele>766.0</ele><time>2026-04-24T13:36:40.984Z</time></trkpt><trkpt lat="43.079222" lon="12.7850032"><ele>766.0</ele><time>2026-04-24T13:36:41.985Z</time></trkpt><trkpt lat="43.0792863" lon="12.7849246"><ele>769.0</ele><time>2026-04-24T13:36:42.992Z</time></trkpt><trkpt lat="43.0793605" lon="12.7848586"><ele>772.0</ele><time>2026-04-24T13:36:44.005Z</time></trkpt><trkpt lat="43.0794428" lon="12.7848"><ele>775.0</ele><time>2026-04-24T13:36:44.971Z</time></trkpt><trkpt lat="43.0795326" lon="12.7847414"><ele>778.0</ele><time>2026-04-24T13:36:45.993Z</time></trkpt><trkpt lat="43.0796443" lon="12.7846892"><ele>781.0</ele><time>2026-04-24T13:36:46.993Z</time></trkpt><trkpt lat="43.0797728" lon="12.7846382"><ele>781.0</ele><time>2026-04-24T13:36:47.996Z</time></trkpt><trkpt lat="43.0799033" lon="12.784596"><ele>781.0</ele><time>2026-04-24T13:36:49Z</time></trkpt><trkpt lat="43.0800362" lon="12.7845499"><ele>781.0</ele><time>2026-04-24T13:36:49.994Z</time></trkpt><trkpt lat="43.0801758" lon="12.7844958"><ele>781.0</ele><time>2026-04-24T13:36:50.987Z</time></trkpt><trkpt lat="43.0803097" lon="12.7844318"><ele>783.5</ele><time>2026-04-24T13:36:51.991Z</time></trkpt><trkpt lat="43.0804366" lon="12.7843601"><ele>786.0</ele><time>2026-04-24T13:36:52.982Z</time></trkpt><trkpt lat="43.080549" lon="12.7842898"><ele>788.5</ele><time>2026-04-24T13:36:53.992Z</time></trkpt><trkpt lat="43.0806543" lon="12.7842246"><ele>791.0</ele><time>2026-04-24T13:36:55.008Z</time></trkpt><trkpt lat="43.0807564" lon="12.7841403"><ele>784.5</ele><time>2026-04-24T13:36:55.977Z</time></trkpt><trkpt lat="43.080857" lon="12.7840469"><ele>778.0</ele><time>2026-04-24T13:36:56.997Z</time></trkpt><trkpt lat="43.0809486" lon="12.7839425"><ele>771.5</ele><time>2026-04-24T13:36:57.993Z</time></trkpt><trkpt lat="43.0810309" lon="12.7838418"><ele>765.0</ele><time>2026-04-24T13:36:58.989Z</time></trkpt><trkpt lat="43.0811116" lon="12.7837523"><ele>765.0</ele><time>2026-04-24T13:37:00.009Z</time></trkpt><trkpt lat="43.0812038" lon="12.7836828"><ele>765.0</ele><time>2026-04-24T13:37:00.99Z</time></trkpt><trkpt lat="43.0813058" lon="12.7836289"><ele>765.0</ele><time>2026-04-24T13:37:01.975Z</time></trkpt><trkpt lat="43.0814266" lon="12.7835699"><ele>765.0</ele><time>2026-04-24T13:37:02.993Z</time></trkpt><trkpt lat="43.0815528" lon="12.7835088"><ele>759.5</ele><time>2026-04-24T13:37:03.973Z</time></trkpt><trkpt lat="43.081678" lon="12.7834425"><ele>754.0</ele><time>2026-04-24T13:37:05.005Z</time></trkpt><trkpt lat="43.0818007" lon="12.783373"><ele>748.5</ele><time>2026-04-24T13:37:05.981Z</time></trkpt><trkpt lat="43.0819134" lon="12.7833074"><ele>743.0</ele><time>2026-04-24T13:37:06.992Z</time></trkpt><trkpt lat="43.0820081" lon="12.7832565"><ele>743.0</ele><time>2026-04-24T13:37:07.992Z</time></trkpt><trkpt lat="43.0820843" lon="12.7832237"><ele>743.0</ele><time>2026-04-24T13:37:09.004Z</time></trkpt><trkpt lat="43.0821576" lon="12.7832071"><ele>743.0</ele><time>2026-04-24T13:37:10.005Z</time></trkpt><trkpt lat="43.0822258" lon="12.7832016"><ele>743.0</ele><time>2026-04-24T13:37:10.975Z</time></trkpt><trkpt lat="43.0822996" lon="12.7832104"><ele>743.0</ele><time>2026-04-24T13:37:11.98Z</time></trkpt><trkpt lat="43.0823698" lon="12.7832318"><ele>743.0</ele><time>2026-04-24T13:37:13.002Z</time></trkpt><trkpt lat="43.0824311" lon="12.7832594"><ele>743.0</ele><time>2026-04-24T13:37:13.98Z</time></trkpt><trkpt lat="43.0825223" lon="12.7832296"><ele>743.0</ele><time>2026-04-24T13:37:15.993Z</time></trkpt><trkpt lat="43.0825166" lon="12.7831078"><ele>743.0</ele><time>2026-04-24T13:37:17.986Z</time></trkpt><trkpt lat="43.0824198" lon="12.7830007"><ele>743.0</ele><time>2026-04-24T13:37:19.977Z</time></trkpt><trkpt lat="43.0823393" lon="12.7829745"><ele>743.0</ele><time>2026-04-24T13:37:20.977Z</time></trkpt><trkpt lat="43.0822447" lon="12.7829363"><ele>743.0</ele><time>2026-04-24T13:37:21.987Z</time></trkpt><trkpt lat="43.0821432" lon="12.7828882"><ele>743.0</ele><time>2026-04-24T13:37:23.008Z</time></trkpt><trkpt lat="43.082037" lon="12.782841"><ele>743.0</ele><time>2026-04-24T13:37:23.99Z</time></trkpt><trkpt lat="43.0819321" lon="12.7827973"><ele>743.0</ele><time>2026-04-24T13:37:24.991Z</time></trkpt><trkpt lat="43.0818243" lon="12.7827597"><ele>743.0</ele><time>2026-04-24T13:37:25.986Z</time></trkpt><trkpt lat="43.0817116" lon="12.7827338"><ele>743.0</ele><time>2026-04-24T13:37:26.973Z</time></trkpt><trkpt lat="43.0816003" lon="12.7826971"><ele>735.0</ele><time>2026-04-24T13:37:27.984Z</time></trkpt><trkpt lat="43.0814876" lon="12.7826631"><ele>727.0</ele><time>2026-04-24T13:37:28.991Z</time></trkpt><trkpt lat="43.0813794" lon="12.7826341"><ele>719.0</ele><time>2026-04-24T13:37:29.979Z</time></trkpt><trkpt lat="43.0812805" lon="12.7826134"><ele>711.0</ele><time>2026-04-24T13:37:31.012Z</time></trkpt><trkpt lat="43.0811853" lon="12.7826048"><ele>703.0</ele><time>2026-04-24T13:37:31.986Z</time></trkpt><trkpt lat="43.0810923" lon="12.7826059"><ele>703.0</ele><time>2026-04-24T13:37:32.986Z</time></trkpt><trkpt lat="43.0810099" lon="12.7826145"><ele>703.0</ele><time>2026-04-24T13:37:33.999Z</time></trkpt><trkpt lat="43.080939" lon="12.7826205"><ele>703.0</ele><time>2026-04-24T13:37:35.004Z</time></trkpt><trkpt lat="43.0808343" lon="12.782597"><ele>703.0</ele><time>2026-04-24T13:37:36.989Z</time></trkpt><trkpt lat="43.0807996" lon="12.7824892"><ele>703.0</ele><time>2026-04-24T13:37:39.016Z</time></trkpt><trkpt lat="43.0808826" lon="12.7824008"><ele>703.0</ele><time>2026-04-24T13:37:40.988Z</time></trkpt><trkpt lat="43.0809634" lon="12.7823411"><ele>703.0</ele><time>2026-04-24T13:37:41.991Z</time></trkpt><trkpt lat="43.0810554" lon="12.7822654"><ele>703.0</ele><time>2026-04-24T13:37:43Z</time></trkpt><trkpt lat="43.0811487" lon="12.7821749"><ele>703.0</ele><time>2026-04-24T13:37:43.981Z</time></trkpt><trkpt lat="43.0812407" lon="12.7820752"><ele>703.0</ele><time>2026-04-24T13:37:44.984Z</time></trkpt><trkpt lat="43.0813278" lon="12.7819772"><ele>703.0</ele><time>2026-04-24T13:37:45.996Z</time></trkpt><trkpt lat="43.0814208" lon="12.7818736"><ele>703.0</ele><time>2026-04-24T13:37:47Z</time></trkpt><trkpt lat="43.0815132" lon="12.781779"><ele>703.0</ele><time>2026-04-24T13:37:47.974Z</time></trkpt><trkpt lat="43.0816031" lon="12.7817081"><ele>703.0</ele><time>2026-04-24T13:37:48.973Z</time></trkpt><trkpt lat="43.0816904" lon="12.7816427"><ele>703.0</ele><time>2026-04-24T13:37:49.995Z</time></trkpt><trkpt lat="43.0817747" lon="12.7815829"><ele>700.6666666666667</ele><time>2026-04-24T13:37:50.997Z</time></trkpt><trkpt lat="43.0818548" lon="12.7815455"><ele>698.3333333333334</ele><time>2026-04-24T13:37:51.997Z</time></trkpt><trkpt lat="43.0819335" lon="12.7815269"><ele>696.0</ele><time>2026-04-24T13:37:52.977Z</time></trkpt><trkpt lat="43.0820089" lon="12.7815222"><ele>693.6666666666666</ele><time>2026-04-24T13:37:53.977Z</time></trkpt><trkpt lat="43.0820839" lon="12.7815232"><ele>691.3333333333333</ele><time>2026-04-24T13:37:54.992Z</time></trkpt><trkpt lat="43.0821753" lon="12.7814948"><ele>689.0</ele><time>2026-04-24T13:37:56.982Z</time></trkpt><trkpt lat="43.0821589" lon="12.7813793"><ele>689.0</ele><time>2026-04-24T13:37:59.005Z</time></trkpt><trkpt lat="43.0820501" lon="12.7813077"><ele>689.0</ele><time>2026-04-24T13:38:00.982Z</time></trkpt><trkpt lat="43.0819608" lon="12.7812731"><ele>689.0</ele><time>2026-04-24T13:38:02.002Z</time></trkpt><trkpt lat="43.0818627" lon="12.7812227"><ele>689.0</ele><time>2026-04-24T13:38:02.972Z</time></trkpt><trkpt lat="43.0817655" lon="12.7811567"><ele>689.0</ele><time>2026-04-24T13:38:03.983Z</time></trkpt><trkpt lat="43.0816645" lon="12.7810879"><ele>686.8333333333333</ele><time>2026-04-24T13:38:05.001Z</time></trkpt><trkpt lat="43.0815773" lon="12.7810249"><ele>684.6666666666666</ele><time>2026-04-24T13:38:05.992Z</time></trkpt><trkpt lat="43.0814957" lon="12.7809859"><ele>682.5</ele><time>2026-04-24T13:38:06.982Z</time></trkpt><trkpt lat="43.0814237" lon="12.7809664"><ele>680.3333333333334</ele><time>2026-04-24T13:38:07.969Z</time></trkpt><trkpt lat="43.0813543" lon="12.7809801"><ele>678.1666666666667</ele><time>2026-04-24T13:38:08.993Z</time></trkpt><trkpt lat="43.0812871" lon="12.7810036"><ele>676.0</ele><time>2026-04-24T13:38:09.996Z</time></trkpt><trkpt lat="43.0811835" lon="12.7810505"><ele>676.0</ele><time>2026-04-24T13:38:11.984Z</time></trkpt><trkpt lat="43.0811068" lon="12.7810161"><ele>676.0</ele><time>2026-04-24T13:38:13.992Z</time></trkpt><trkpt lat="43.0811028" lon="12.7808959"><ele>676.0</ele><time>2026-04-24T13:38:15.983Z</time></trkpt><trkpt lat="43.0812243" lon="12.7807856"><ele>676.0</ele><time>2026-04-24T13:38:17.984Z</time></trkpt><trkpt lat="43.0813077" lon="12.780705"><ele>676.0</ele><time>2026-04-24T13:38:18.975Z</time></trkpt><trkpt lat="43.0813918" lon="12.7806221"><ele>672.5999999999999</ele><time>2026-04-24T13:38:19.991Z</time></trkpt><trkpt lat="43.0814771" lon="12.7805534"><ele>669.2</ele><time>2026-04-24T13:38:20.975Z</time></trkpt><trkpt lat="43.0815635" lon="12.7805102"><ele>665.8</ele><time>2026-04-24T13:38:21.994Z</time></trkpt><trkpt lat="43.0816528" lon="12.7804799"><ele>662.4000000000001</ele><time>2026-04-24T13:38:22.988Z</time></trkpt><trkpt lat="43.0817457" lon="12.7804576"><ele>659.0</ele><time>2026-04-24T13:38:24.005Z</time></trkpt><trkpt lat="43.0818326" lon="12.7804425"><ele>659.0</ele><time>2026-04-24T13:38:25.013Z</time></trkpt><trkpt lat="43.0819248" lon="12.780441"><ele>659.0</ele><time>2026-04-24T13:38:25.976Z</time></trkpt><trkpt lat="43.0820102" lon="12.7804487"><ele>659.0</ele><time>2026-04-24T13:38:26.98Z</time></trkpt><trkpt lat="43.0821009" lon="12.7804598"><ele>659.0</ele><time>2026-04-24T13:38:27.987Z</time></trkpt><trkpt lat="43.0821892" lon="12.780476"><ele>659.0</ele><time>2026-04-24T13:38:28.983Z</time></trkpt><trkpt lat="43.0822788" lon="12.7804971"><ele>659.0</ele><time>2026-04-24T13:38:29.986Z</time></trkpt><trkpt lat="43.0823699" lon="12.7805272"><ele>657.3333333333333</ele><time>2026-04-24T13:38:30.985Z</time></trkpt><trkpt lat="43.0824561" lon="12.7805563"><ele>655.6666666666666</ele><time>2026-04-24T13:38:32.004Z</time></trkpt><trkpt lat="43.0825299" lon="12.7805945"><ele>654.0</ele><time>2026-04-24T13:38:33.001Z</time></trkpt><trkpt lat="43.0826023" lon="12.7806363"><ele>652.3333333333334</ele><time>2026-04-24T13:38:33.985Z</time></trkpt><trkpt lat="43.0826741" lon="12.7806886"><ele>650.6666666666667</ele><time>2026-04-24T13:38:34.976Z</time></trkpt><trkpt lat="43.0827312" lon="12.7807483"><ele>649.0</ele><time>2026-04-24T13:38:36.001Z</time></trkpt><trkpt lat="43.0827864" lon="12.7807904"><ele>649.0</ele><time>2026-04-24T13:38:37.003Z</time></trkpt><trkpt lat="43.0828751" lon="12.7807702"><ele>649.0</ele><time>2026-04-24T13:38:38.967Z</time></trkpt><trkpt lat="43.0828725" lon="12.7806127"><ele>649.0</ele><time>2026-04-24T13:38:40.981Z</time></trkpt><trkpt lat="43.0828252" lon="12.7805451"><ele>649.0</ele><time>2026-04-24T13:38:41.989Z</time></trkpt><trkpt lat="43.0827614" lon="12.7804777"><ele>649.0</ele><time>2026-04-24T13:38:42.975Z</time></trkpt><trkpt lat="43.082685" lon="12.7803846"><ele>649.0</ele><time>2026-04-24T13:38:43.987Z</time></trkpt><trkpt lat="43.0826081" lon="12.7802797"><ele>649.0</ele><time>2026-04-24T13:38:44.997Z</time></trkpt><trkpt lat="43.0825354" lon="12.7801728"><ele>649.0</ele><time>2026-04-24T13:38:45.999Z</time></trkpt><trkpt lat="43.0824751" lon="12.7800484"><ele>649.0</ele><time>2026-04-24T13:38:46.996Z</time></trkpt><trkpt lat="43.08242" lon="12.7799102"><ele>649.0</ele><time>2026-04-24T13:38:47.989Z</time></trkpt><trkpt lat="43.0823669" lon="12.779773"><ele>646.5</ele><time>2026-04-24T13:38:48.987Z</time></trkpt><trkpt lat="43.0823159" lon="12.7796611"><ele>644.0</ele><time>2026-04-24T13:38:49.991Z</time></trkpt><trkpt lat="43.0822629" lon="12.7795563"><ele>641.5</ele><time>2026-04-24T13:38:51.006Z</time></trkpt><trkpt lat="43.0822072" lon="12.779466"><ele>639.0</ele><time>2026-04-24T13:38:51.984Z</time></trkpt><trkpt lat="43.0821512" lon="12.7793866"><ele>636.5</ele><time>2026-04-24T13:38:52.982Z</time></trkpt><trkpt lat="43.0820804" lon="12.7793273"><ele>634.0</ele><time>2026-04-24T13:38:53.993Z</time></trkpt><trkpt lat="43.081999" lon="12.7792884"><ele>629.8333333333334</ele><time>2026-04-24T13:38:54.994Z</time></trkpt><trkpt lat="43.0819163" lon="12.7792603"><ele>625.6666666666667</ele><time>2026-04-24T13:38:56.002Z</time></trkpt><trkpt lat="43.0818402" lon="12.7792383"><ele>621.5</ele><time>2026-04-24T13:38:56.98Z</time></trkpt><trkpt lat="43.0817743" lon="12.7792143"><ele>617.3333333333334</ele><time>2026-04-24T13:38:57.996Z</time></trkpt><trkpt lat="43.0816788" lon="12.7791502"><ele>613.1666666666666</ele><time>2026-04-24T13:38:59.991Z</time></trkpt><trkpt lat="43.0816841" lon="12.7790387"><ele>609.0</ele><time>2026-04-24T13:39:01.986Z</time></trkpt><trkpt lat="43.0817971" lon="12.7789564"><ele>609.0</ele><time>2026-04-24T13:39:03.967Z</time></trkpt><trkpt lat="43.0818694" lon="12.7789361"><ele>609.0</ele><time>2026-04-24T13:39:04.988Z</time></trkpt><trkpt lat="43.0819523" lon="12.7789392"><ele>609.0</ele><time>2026-04-24T13:39:05.959Z</time></trkpt><trkpt lat="43.0820504" lon="12.7789597"><ele>609.0</ele><time>2026-04-24T13:39:07.007Z</time></trkpt><trkpt lat="43.0821434" lon="12.7789835"><ele>609.0</ele><time>2026-04-24T13:39:07.983Z</time></trkpt><trkpt lat="43.0822382" lon="12.779011"><ele>609.0</ele><time>2026-04-24T13:39:08.993Z</time></trkpt><trkpt lat="43.0823356" lon="12.7790415"><ele>609.0</ele><time>2026-04-24T13:39:09.991Z</time></trkpt><trkpt lat="43.0824228" lon="12.7790849"><ele>609.0</ele><time>2026-04-24T13:39:10.988Z</time></trkpt><trkpt lat="43.0825123" lon="12.7791233"><ele>609.0</ele><time>2026-04-24T13:39:11.972Z</time></trkpt><trkpt lat="43.0826063" lon="12.7791534"><ele>609.0</ele><time>2026-04-24T13:39:12.988Z</time></trkpt><trkpt lat="43.0826953" lon="12.7791853"><ele>609.0</ele><time>2026-04-24T13:39:13.991Z</time></trkpt><trkpt lat="43.0827738" lon="12.7792216"><ele>611.3333333333334</ele><time>2026-04-24T13:39:14.975Z</time></trkpt><trkpt lat="43.082851" lon="12.7792679"><ele>613.6666666666666</ele><time>2026-04-24T13:39:15.983Z</time></trkpt><trkpt lat="43.0829261" lon="12.7793325"><ele>616.0</ele><time>2026-04-24T13:39:17.007Z</time></trkpt><trkpt lat="43.0829986" lon="12.7794053"><ele>618.3333333333333</ele><time>2026-04-24T13:39:18.002Z</time></trkpt><trkpt lat="43.0830611" lon="12.7794759"><ele>620.6666666666666</ele><time>2026-04-24T13:39:18.988Z</time></trkpt><trkpt lat="43.0831181" lon="12.779536"><ele>623.0</ele><time>2026-04-24T13:39:19.979Z</time></trkpt><trkpt lat="43.0832165" lon="12.7795561"><ele>623.0</ele><time>2026-04-24T13:39:22Z</time></trkpt><trkpt lat="43.0832267" lon="12.7793931"><ele>623.0</ele><time>2026-04-24T13:39:23.999Z</time></trkpt><trkpt lat="43.0831833" lon="12.7792958"><ele>623.0</ele><time>2026-04-24T13:39:24.997Z</time></trkpt><trkpt lat="43.0831246" lon="12.7791907"><ele>623.0</ele><time>2026-04-24T13:39:25.984Z</time></trkpt><trkpt lat="43.083061" lon="12.779089"><ele>623.0</ele><time>2026-04-24T13:39:26.97Z</time></trkpt><trkpt lat="43.0827678" lon="12.7786487"><ele>616.8</ele><time>2026-04-24T13:39:30.987Z</time></trkpt><trkpt lat="43.0826836" lon="12.7785393"><ele>610.5999999999999</ele><time>2026-04-24T13:39:31.982Z</time></trkpt><trkpt lat="43.0826035" lon="12.7784358"><ele>604.4000000000001</ele><time>2026-04-24T13:39:32.965Z</time></trkpt><trkpt lat="43.0825407" lon="12.7783265"><ele>598.2</ele><time>2026-04-24T13:39:33.998Z</time></trkpt><trkpt lat="43.0824897" lon="12.7781954"><ele>592.0</ele><time>2026-04-24T13:39:34.996Z</time></trkpt><trkpt lat="43.0824392" lon="12.7780479"><ele>589.25</ele><time>2026-04-24T13:39:35.981Z</time></trkpt><trkpt lat="43.0823862" lon="12.7778902"><ele>586.5</ele><time>2026-04-24T13:39:36.97Z</time></trkpt><trkpt lat="43.0823376" lon="12.7777474"><ele>583.75</ele><time>2026-04-24T13:39:37.988Z</time></trkpt><trkpt lat="43.0822855" lon="12.7776069"><ele>581.0</ele><time>2026-04-24T13:39:38.991Z</time></trkpt><trkpt lat="43.0822353" lon="12.7774728"><ele>576.1666666666666</ele><time>2026-04-24T13:39:39.996Z</time></trkpt><trkpt lat="43.0821962" lon="12.7773466"><ele>571.3333333333333</ele><time>2026-04-24T13:39:40.999Z</time></trkpt><trkpt lat="43.0821694" lon="12.7772372"><ele>566.5</ele><time>2026-04-24T13:39:41.975Z</time></trkpt><trkpt lat="43.0821469" lon="12.7771479"><ele>561.6666666666666</ele><time>2026-04-24T13:39:42.974Z</time></trkpt><trkpt lat="43.0821234" lon="12.7770643"><ele>556.8333333333334</ele><time>2026-04-24T13:39:43.994Z</time></trkpt><trkpt lat="43.0820781" lon="12.7769026"><ele>552.0</ele><time>2026-04-24T13:39:45.988Z</time></trkpt><trkpt lat="43.0820559" lon="12.7768186"><ele>550.1666666666666</ele><time>2026-04-24T13:39:46.984Z</time></trkpt><trkpt lat="43.0820407" lon="12.7767131"><ele>548.3333333333334</ele><time>2026-04-24T13:39:47.995Z</time></trkpt><trkpt lat="43.0820301" lon="12.7766167"><ele>546.5</ele><time>2026-04-24T13:39:48.985Z</time></trkpt><trkpt lat="43.0820045" lon="12.7764391"><ele>544.6666666666667</ele><time>2026-04-24T13:39:50.992Z</time></trkpt><trkpt lat="43.0819849" lon="12.7763416"><ele>542.8333333333334</ele><time>2026-04-24T13:39:51.993Z</time></trkpt><trkpt lat="43.0819596" lon="12.776245"><ele>541.0</ele><time>2026-04-24T13:39:52.988Z</time></trkpt><trkpt lat="43.0819222" lon="12.776149"><ele>541.0</ele><time>2026-04-24T13:39:53.969Z</time></trkpt><trkpt lat="43.0818704" lon="12.7760513"><ele>541.0</ele><time>2026-04-24T13:39:54.986Z</time></trkpt><trkpt lat="43.0818199" lon="12.7759562"><ele>541.0</ele><time>2026-04-24T13:39:56.009Z</time></trkpt><trkpt lat="43.0817648" lon="12.7758756"><ele>541.0</ele><time>2026-04-24T13:39:56.988Z</time></trkpt><trkpt lat="43.0816895" lon="12.7757674"><ele>541.0</ele><time>2026-04-24T13:39:58.988Z</time></trkpt><trkpt lat="43.081625" lon="12.7757751"><ele>541.0</ele><time>2026-04-24T13:40:01.989Z</time></trkpt><trkpt lat="43.0815557" lon="12.775885"><ele>537.6</ele><time>2026-04-24T13:40:03.984Z</time></trkpt><trkpt lat="43.0815148" lon="12.7759701"><ele>534.2</ele><time>2026-04-24T13:40:04.989Z</time></trkpt><trkpt lat="43.0814732" lon="12.7760807"><ele>530.8</ele><time>2026-04-24T13:40:05.996Z</time></trkpt><trkpt lat="43.0814323" lon="12.7761988"><ele>527.4</ele><time>2026-04-24T13:40:06.991Z</time></trkpt><trkpt lat="43.0813946" lon="12.7763199"><ele>524.0</ele><time>2026-04-24T13:40:07.996Z</time></trkpt><trkpt lat="43.0813647" lon="12.7764544"><ele>524.0</ele><time>2026-04-24T13:40:08.985Z</time></trkpt><trkpt lat="43.0813402" lon="12.7765938"><ele>524.0</ele><time>2026-04-24T13:40:10.015Z</time></trkpt><trkpt lat="43.0813161" lon="12.7767407"><ele>524.0</ele><time>2026-04-24T13:40:10.98Z</time></trkpt><trkpt lat="43.0812934" lon="12.7768783"><ele>524.0</ele><time>2026-04-24T13:40:11.991Z</time></trkpt><trkpt lat="43.0812662" lon="12.7770151"><ele>524.0</ele><time>2026-04-24T13:40:12.987Z</time></trkpt><trkpt lat="43.0812312" lon="12.7771454"><ele>527.0</ele><time>2026-04-24T13:40:13.994Z</time></trkpt><trkpt lat="43.0811886" lon="12.7772733"><ele>530.0</ele><time>2026-04-24T13:40:14.98Z</time></trkpt><trkpt lat="43.0811304" lon="12.7773994"><ele>533.0</ele><time>2026-04-24T13:40:15.991Z</time></trkpt><trkpt lat="43.0810579" lon="12.7775205"><ele>536.0</ele><time>2026-04-24T13:40:16.984Z</time></trkpt><trkpt lat="43.0809694" lon="12.7776273"><ele>539.0</ele><time>2026-04-24T13:40:17.984Z</time></trkpt><trkpt lat="43.0808614" lon="12.7777237"><ele>540.5</ele><time>2026-04-24T13:40:18.999Z</time></trkpt><trkpt lat="43.0807443" lon="12.7778083"><ele>542.0</ele><time>2026-04-24T13:40:19.965Z</time></trkpt><trkpt lat="43.080615" lon="12.7778892"><ele>543.5</ele><time>2026-04-24T13:40:20.988Z</time></trkpt><trkpt lat="43.0804767" lon="12.7779845"><ele>545.0</ele><time>2026-04-24T13:40:21.984Z</time></trkpt><trkpt lat="43.0803375" lon="12.7780909"><ele>545.0</ele><time>2026-04-24T13:40:23.001Z</time></trkpt><trkpt lat="43.0802027" lon="12.7782039"><ele>545.0</ele><time>2026-04-24T13:40:24.001Z</time></trkpt><trkpt lat="43.0800825" lon="12.7783162"><ele>545.0</ele><time>2026-04-24T13:40:24.979Z</time></trkpt><trkpt lat="43.0799672" lon="12.7784149"><ele>545.0</ele><time>2026-04-24T13:40:25.989Z</time></trkpt><trkpt lat="43.0798322" lon="12.7784909"><ele>546.3333333333333</ele><time>2026-04-24T13:40:27.004Z</time></trkpt><trkpt lat="43.079681" lon="12.7785471"><ele>547.6666666666666</ele><time>2026-04-24T13:40:28.003Z</time></trkpt><trkpt lat="43.0795199" lon="12.7785811"><ele>549.0</ele><time>2026-04-24T13:40:28.988Z</time></trkpt><trkpt lat="43.0793683" lon="12.778594"><ele>549.0</ele><time>2026-04-24T13:40:30.003Z</time></trkpt><trkpt lat="43.0792415" lon="12.7786298"><ele>549.0</ele><time>2026-04-24T13:40:30.993Z</time></trkpt><trkpt lat="43.0791405" lon="12.7787028"><ele>549.0</ele><time>2026-04-24T13:40:31.991Z</time></trkpt><trkpt lat="43.0790626" lon="12.7788259"><ele>549.0</ele><time>2026-04-24T13:40:32.977Z</time></trkpt><trkpt lat="43.079006" lon="12.7789922"><ele>548.25</ele><time>2026-04-24T13:40:33.976Z</time></trkpt><trkpt lat="43.078935" lon="12.7791745"><ele>547.5</ele><time>2026-04-24T13:40:34.997Z</time></trkpt><trkpt lat="43.0788723" lon="12.7793536"><ele>546.75</ele><time>2026-04-24T13:40:35.993Z</time></trkpt><trkpt lat="43.0788079" lon="12.7795096"><ele>546.0</ele><time>2026-04-24T13:40:36.991Z</time></trkpt><trkpt lat="43.0787298" lon="12.7796548"><ele>546.0</ele><time>2026-04-24T13:40:37.977Z</time></trkpt><trkpt lat="43.0786461" lon="12.7797663"><ele>546.0</ele><time>2026-04-24T13:40:38.994Z</time></trkpt><trkpt lat="43.0785435" lon="12.7798369"><ele>546.0</ele><time>2026-04-24T13:40:39.993Z</time></trkpt><trkpt lat="43.0784152" lon="12.7798542"><ele>546.0</ele><time>2026-04-24T13:40:41.002Z</time></trkpt><trkpt lat="43.0782535" lon="12.7798581"><ele>544.5</ele><time>2026-04-24T13:40:42Z</time></trkpt><trkpt lat="43.0780985" lon="12.7798624"><ele>543.0</ele><time>2026-04-24T13:40:42.986Z</time></trkpt><trkpt lat="43.0779512" lon="12.779893"><ele>541.5</ele><time>2026-04-24T13:40:43.986Z</time></trkpt><trkpt lat="43.0778102" lon="12.7798835"><ele>540.0</ele><time>2026-04-24T13:40:44.996Z</time></trkpt><trkpt lat="43.0776785" lon="12.779845"><ele>540.0</ele><time>2026-04-24T13:40:45.975Z</time></trkpt><trkpt lat="43.0775826" lon="12.7797998"><ele>540.0</ele><time>2026-04-24T13:40:47.003Z</time></trkpt><trkpt lat="43.0775243" lon="12.7796846"><ele>540.0</ele><time>2026-04-24T13:40:48.996Z</time></trkpt><trkpt lat="43.0775767" lon="12.7796169"><ele>540.0</ele><time>2026-04-24T13:40:50.987Z</time></trkpt><trkpt lat="43.07764" lon="12.7796184"><ele>540.0</ele><time>2026-04-24T13:40:52.993Z</time></trkpt><trkpt lat="43.0777286" lon="12.7796273"><ele>540.0</ele><time>2026-04-24T13:40:55.986Z</time></trkpt><trkpt lat="43.0776298" lon="12.7796015"><ele>540.0</ele><time>2026-04-24T13:41:00.984Z</time></trkpt><trkpt lat="43.0775339" lon="12.7796322"><ele>540.0</ele><time>2026-04-24T13:41:02.969Z</time></trkpt><trkpt lat="43.0774743" lon="12.7796678"><ele>540.0</ele><time>2026-04-24T13:41:11.97Z</time></trkpt><trkpt lat="43.0775456" lon="12.7796925"><ele>540.0</ele><time>2026-04-24T13:41:15.98Z</time></trkpt><trkpt lat="43.0776201" lon="12.7796089"><ele>540.0</ele><time>2026-04-24T13:41:17.957Z</time></trkpt><trkpt lat="43.0776801" lon="12.7795824"><ele>540.0</ele><time>2026-04-24T13:41:18.978Z</time></trkpt><trkpt lat="43.0777599" lon="12.7795663"><ele>540.0</ele><time>2026-04-24T13:41:19.98Z</time></trkpt><trkpt lat="43.0778409" lon="12.7795439"><ele>540.0</ele><time>2026-04-24T13:41:20.982Z</time></trkpt><trkpt lat="43.0779197" lon="12.7795135"><ele>540.0</ele><time>2026-04-24T13:41:21.972Z</time></trkpt><trkpt lat="43.077992" lon="12.7794645"><ele>540.0</ele><time>2026-04-24T13:41:22.975Z</time></trkpt><trkpt lat="43.0780295" lon="12.779316"><ele>540.0</ele><time>2026-04-24T13:41:25.002Z</time></trkpt><trkpt lat="43.0779725" lon="12.7792235"><ele>540.0</ele><time>2026-04-24T13:41:25.972Z</time></trkpt><trkpt lat="43.077894" lon="12.7791347"><ele>535.6</ele><time>2026-04-24T13:41:26.99Z</time></trkpt><trkpt lat="43.0778079" lon="12.7790601"><ele>531.2</ele><time>2026-04-24T13:41:27.97Z</time></trkpt><trkpt lat="43.077718" lon="12.7789804"><ele>526.8</ele><time>2026-04-24T13:41:28.996Z</time></trkpt><trkpt lat="43.0776282" lon="12.7789008"><ele>522.4</ele><time>2026-04-24T13:41:30.005Z</time></trkpt><trkpt lat="43.0775404" lon="12.7788109"><ele>518.0</ele><time>2026-04-24T13:41:30.973Z</time></trkpt><trkpt lat="43.0774564" lon="12.7787235"><ele>516.4</ele><time>2026-04-24T13:41:31.992Z</time></trkpt><trkpt lat="43.0773687" lon="12.7786348"><ele>514.8</ele><time>2026-04-24T13:41:32.997Z</time></trkpt><trkpt lat="43.0772951" lon="12.7785366"><ele>513.2</ele><time>2026-04-24T13:41:33.999Z</time></trkpt><trkpt lat="43.0772231" lon="12.7784062"><ele>511.6</ele><time>2026-04-24T13:41:34.983Z</time></trkpt><trkpt lat="43.0771562" lon="12.7782737"><ele>510.0</ele><time>2026-04-24T13:41:35.972Z</time></trkpt><trkpt lat="43.0771071" lon="12.7781341"><ele>510.0</ele><time>2026-04-24T13:41:36.979Z</time></trkpt><trkpt lat="43.0771042" lon="12.7779777"><ele>510.0</ele><time>2026-04-24T13:41:37.983Z</time></trkpt><trkpt lat="43.0771139" lon="12.7778001"><ele>510.0</ele><time>2026-04-24T13:41:38.974Z</time></trkpt><trkpt lat="43.0771373" lon="12.7776287"><ele>510.0</ele><time>2026-04-24T13:41:39.97Z</time></trkpt><trkpt lat="43.0771653" lon="12.7774765"><ele>507.6</ele><time>2026-04-24T13:41:40.978Z</time></trkpt><trkpt lat="43.0771834" lon="12.7773371"><ele>505.2</ele><time>2026-04-24T13:41:41.97Z</time></trkpt><trkpt lat="43.0771761" lon="12.7772035"><ele>502.79999999999995</ele><time>2026-04-24T13:41:42.978Z</time></trkpt><trkpt lat="43.0771353" lon="12.7771077"><ele>500.4</ele><time>2026-04-24T13:41:43.996Z</time></trkpt><trkpt lat="43.0770613" lon="12.7770512"><ele>498.0</ele><time>2026-04-24T13:41:44.994Z</time></trkpt><trkpt lat="43.0769772" lon="12.7770099"><ele>498.0</ele><time>2026-04-24T13:41:45.987Z</time></trkpt><trkpt lat="43.0768832" lon="12.7769611"><ele>498.0</ele><time>2026-04-24T13:41:46.972Z</time></trkpt><trkpt lat="43.0767751" lon="12.7769121"><ele>498.0</ele><time>2026-04-24T13:41:47.993Z</time></trkpt><trkpt lat="43.0766622" lon="12.7768369"><ele>498.0</ele><time>2026-04-24T13:41:48.996Z</time></trkpt><trkpt lat="43.0765379" lon="12.776758"><ele>497.0</ele><time>2026-04-24T13:41:49.978Z</time></trkpt><trkpt lat="43.0764189" lon="12.7766724"><ele>496.0</ele><time>2026-04-24T13:41:50.978Z</time></trkpt><trkpt lat="43.076298" lon="12.7766041"><ele>495.0</ele><time>2026-04-24T13:41:51.985Z</time></trkpt><trkpt lat="43.0761586" lon="12.7765364"><ele>494.0</ele><time>2026-04-24T13:41:52.979Z</time></trkpt><trkpt lat="43.0760016" lon="12.7764828"><ele>494.0</ele><time>2026-04-24T13:41:53.974Z</time></trkpt><trkpt lat="43.0758303" lon="12.7764247"><ele>494.0</ele><time>2026-04-24T13:41:54.983Z</time></trkpt><trkpt lat="43.0756546" lon="12.7763561"><ele>494.0</ele><time>2026-04-24T13:41:55.965Z</time></trkpt><trkpt lat="43.075492" lon="12.7762877"><ele>497.66666666666663</ele><time>2026-04-24T13:41:56.971Z</time></trkpt><trkpt lat="43.0753425" lon="12.7762216"><ele>501.33333333333337</ele><time>2026-04-24T13:41:57.981Z</time></trkpt><trkpt lat="43.0751973" lon="12.776157"><ele>505.0</ele><time>2026-04-24T13:41:58.995Z</time></trkpt><trkpt lat="43.0750581" lon="12.7761121"><ele>506.0</ele><time>2026-04-24T13:41:59.988Z</time></trkpt><trkpt lat="43.0749261" lon="12.7760686"><ele>507.0</ele><time>2026-04-24T13:42:00.995Z</time></trkpt><trkpt lat="43.0748129" lon="12.7760219"><ele>508.0</ele><time>2026-04-24T13:42:01.981Z</time></trkpt><trkpt lat="43.0747213" lon="12.7759405"><ele>509.0</ele><time>2026-04-24T13:42:02.968Z</time></trkpt><trkpt lat="43.0746462" lon="12.7758111"><ele>504.25</ele><time>2026-04-24T13:42:03.984Z</time></trkpt><trkpt lat="43.0746003" lon="12.7756282"><ele>499.5</ele><time>2026-04-24T13:42:04.976Z</time></trkpt><trkpt lat="43.0745868" lon="12.7754481"><ele>494.75</ele><time>2026-04-24T13:42:05.985Z</time></trkpt><trkpt lat="43.0745603" lon="12.7752835"><ele>490.0</ele><time>2026-04-24T13:42:06.986Z</time></trkpt><trkpt lat="43.0745109" lon="12.7751119"><ele>485.33333333333337</ele><time>2026-04-24T13:42:08.003Z</time></trkpt><trkpt lat="43.0744182" lon="12.7749347"><ele>480.66666666666663</ele><time>2026-04-24T13:42:08.977Z</time></trkpt><trkpt lat="43.0743083" lon="12.774769"><ele>476.0</ele><time>2026-04-24T13:42:09.977Z</time></trkpt><trkpt lat="43.0741833" lon="12.7745839"><ele>475.0</ele><time>2026-04-24T13:42:10.992Z</time></trkpt><trkpt lat="43.074063" lon="12.7743936"><ele>474.0</ele><time>2026-04-24T13:42:11.979Z</time></trkpt><trkpt lat="43.0739464" lon="12.7742022"><ele>473.0</ele><time>2026-04-24T13:42:12.983Z</time></trkpt><trkpt lat="43.0738459" lon="12.7740228"><ele>473.0</ele><time>2026-04-24T13:42:14.005Z</time></trkpt><trkpt lat="43.0737548" lon="12.773852"><ele>473.0</ele><time>2026-04-24T13:42:15.002Z</time></trkpt><trkpt lat="43.0736683" lon="12.7736847"><ele>473.0</ele><time>2026-04-24T13:42:15.995Z</time></trkpt><trkpt lat="43.0735732" lon="12.7735064"><ele>469.66666666666663</ele><time>2026-04-24T13:42:16.982Z</time></trkpt><trkpt lat="43.0734724" lon="12.7733312"><ele>466.33333333333337</ele><time>2026-04-24T13:42:17.989Z</time></trkpt><trkpt lat="43.0733675" lon="12.7731687"><ele>463.0</ele><time>2026-04-24T13:42:18.971Z</time></trkpt><trkpt lat="43.0732488" lon="12.7730146"><ele>462.0</ele><time>2026-04-24T13:42:19.993Z</time></trkpt><trkpt lat="43.0731356" lon="12.7728646"><ele>461.0</ele><time>2026-04-24T13:42:20.98Z</time></trkpt><trkpt lat="43.073022" lon="12.7727227"><ele>460.0</ele><time>2026-04-24T13:42:21.986Z</time></trkpt><trkpt lat="43.072901" lon="12.7725798"><ele>460.0</ele><time>2026-04-24T13:42:22.986Z</time></trkpt><trkpt lat="43.0727848" lon="12.7724351"><ele>460.0</ele><time>2026-04-24T13:42:23.991Z</time></trkpt><trkpt lat="43.0726872" lon="12.7722866"><ele>460.0</ele><time>2026-04-24T13:42:24.987Z</time></trkpt><trkpt lat="43.0726283" lon="12.7720948"><ele>460.0</ele><time>2026-04-24T13:42:26.007Z</time></trkpt><trkpt lat="43.0725894" lon="12.7719143"><ele>460.0</ele><time>2026-04-24T13:42:26.981Z</time></trkpt><trkpt lat="43.0725783" lon="12.7717292"><ele>460.0</ele><time>2026-04-24T13:42:27.983Z</time></trkpt><trkpt lat="43.0725641" lon="12.7715498"><ele>460.0</ele><time>2026-04-24T13:42:28.968Z</time></trkpt><trkpt lat="43.0725691" lon="12.7713778"><ele>455.75</ele><time>2026-04-24T13:42:29.994Z</time></trkpt><trkpt lat="43.0726027" lon="12.7712401"><ele>451.5</ele><time>2026-04-24T13:42:30.99Z</time></trkpt><trkpt lat="43.0726793" lon="12.7711265"><ele>447.25</ele><time>2026-04-24T13:42:31.984Z</time></trkpt><trkpt lat="43.072794" lon="12.7710143"><ele>443.0</ele><time>2026-04-24T13:42:32.983Z</time></trkpt><trkpt lat="43.0729083" lon="12.7708973"><ele>440.2</ele><time>2026-04-24T13:42:33.995Z</time></trkpt><trkpt lat="43.073004" lon="12.7707814"><ele>437.4</ele><time>2026-04-24T13:42:35Z</time></trkpt><trkpt lat="43.0730865" lon="12.7706558"><ele>434.59999999999997</ele><time>2026-04-24T13:42:35.971Z</time></trkpt><trkpt lat="43.0731313" lon="12.7705256"><ele>431.79999999999995</ele><time>2026-04-24T13:42:36.985Z</time></trkpt><trkpt lat="43.0731444" lon="12.7704023"><ele>429.0</ele><time>2026-04-24T13:42:37.982Z</time></trkpt><trkpt lat="43.0731128" lon="12.770297"><ele>429.0</ele><time>2026-04-24T13:42:38.984Z</time></trkpt><trkpt lat="43.0730405" lon="12.770255"><ele>429.0</ele><time>2026-04-24T13:42:39.974Z</time></trkpt><trkpt lat="43.0729355" lon="12.7702611"><ele>429.0</ele><time>2026-04-24T13:42:40.983Z</time></trkpt><trkpt lat="43.0728191" lon="12.770319"><ele>429.0</ele><time>2026-04-24T13:42:41.982Z</time></trkpt><trkpt lat="43.0726975" lon="12.7704235"><ele>429.0</ele><time>2026-04-24T13:42:42.981Z</time></trkpt><trkpt lat="43.0725769" lon="12.7705358"><ele>429.0</ele><time>2026-04-24T13:42:43.983Z</time></trkpt><trkpt lat="43.0724591" lon="12.7706335"><ele>429.0</ele><time>2026-04-24T13:42:44.994Z</time></trkpt><trkpt lat="43.0723318" lon="12.7706875"><ele>429.0</ele><time>2026-04-24T13:42:45.992Z</time></trkpt><trkpt lat="43.072217" lon="12.7707129"><ele>428.2</ele><time>2026-04-24T13:42:46.975Z</time></trkpt><trkpt lat="43.0721266" lon="12.770738"><ele>427.4</ele><time>2026-04-24T13:42:47.975Z</time></trkpt><trkpt lat="43.0720551" lon="12.7707388"><ele>426.6</ele><time>2026-04-24T13:42:48.969Z</time></trkpt><trkpt lat="43.0719932" lon="12.7706134"><ele>425.8</ele><time>2026-04-24T13:42:50.981Z</time></trkpt><trkpt lat="43.0720347" lon="12.7705326"><ele>425.0</ele><time>2026-04-24T13:42:51.975Z</time></trkpt><trkpt lat="43.0721118" lon="12.770424"><ele>425.0</ele><time>2026-04-24T13:42:52.981Z</time></trkpt><trkpt lat="43.0722362" lon="12.7703223"><ele>425.0</ele><time>2026-04-24T13:42:53.983Z</time></trkpt><trkpt lat="43.0723703" lon="12.7702135"><ele>425.0</ele><time>2026-04-24T13:42:54.986Z</time></trkpt><trkpt lat="43.0724683" lon="12.7701072"><ele>425.0</ele><time>2026-04-24T13:42:55.967Z</time></trkpt><trkpt lat="43.072539" lon="12.7700157"><ele>422.4</ele><time>2026-04-24T13:42:56.997Z</time></trkpt><trkpt lat="43.072571" lon="12.7699353"><ele>419.8</ele><time>2026-04-24T13:42:57.999Z</time></trkpt><trkpt lat="43.0725139" lon="12.7698093"><ele>417.20000000000005</ele><time>2026-04-24T13:42:59.971Z</time></trkpt><trkpt lat="43.072412" lon="12.7697982"><ele>414.6</ele><time>2026-04-24T13:43:00.967Z</time></trkpt><trkpt lat="43.0723093" lon="12.7698518"><ele>412.0</ele><time>2026-04-24T13:43:01.976Z</time></trkpt><trkpt lat="43.0722149" lon="12.7698923"><ele>411.20000000000005</ele><time>2026-04-24T13:43:02.995Z</time></trkpt><trkpt lat="43.0721287" lon="12.7699002"><ele>410.4</ele><time>2026-04-24T13:43:03.973Z</time></trkpt><trkpt lat="43.072049" lon="12.7698617"><ele>409.6</ele><time>2026-04-24T13:43:04.988Z</time></trkpt><trkpt lat="43.0719756" lon="12.7697818"><ele>408.79999999999995</ele><time>2026-04-24T13:43:05.969Z</time></trkpt><trkpt lat="43.0719282" lon="12.769652"><ele>408.0</ele><time>2026-04-24T13:43:06.978Z</time></trkpt><trkpt lat="43.0719191" lon="12.7694971"><ele>407.33333333333337</ele><time>2026-04-24T13:43:07.983Z</time></trkpt><trkpt lat="43.0719508" lon="12.7693101"><ele>406.6666666666667</ele><time>2026-04-24T13:43:08.99Z</time></trkpt><trkpt lat="43.0720066" lon="12.7690604"><ele>406.0</ele><time>2026-04-24T13:43:09.98Z</time></trkpt><trkpt lat="43.072056" lon="12.7688175"><ele>406.0</ele><time>2026-04-24T13:43:10.979Z</time></trkpt><trkpt lat="43.0721013" lon="12.7685998"><ele>406.0</ele><time>2026-04-24T13:43:11.968Z</time></trkpt><trkpt lat="43.0721227" lon="12.7683789"><ele>406.0</ele><time>2026-04-24T13:43:12.986Z</time></trkpt><trkpt lat="43.0721254" lon="12.7681221"><ele>403.6666666666667</ele><time>2026-04-24T13:43:13.985Z</time></trkpt><trkpt lat="43.0721222" lon="12.7678752"><ele>401.33333333333337</ele><time>2026-04-24T13:43:14.996Z</time></trkpt><trkpt lat="43.0721111" lon="12.7676387"><ele>399.0</ele><time>2026-04-24T13:43:15.978Z</time></trkpt><trkpt lat="43.0720883" lon="12.7674166"><ele>395.5</ele><time>2026-04-24T13:43:16.986Z</time></trkpt><trkpt lat="43.072064" lon="12.767209"><ele>392.0</ele><time>2026-04-24T13:43:17.975Z</time></trkpt><trkpt lat="43.0720351" lon="12.7670191"><ele>388.5</ele><time>2026-04-24T13:43:18.986Z</time></trkpt><trkpt lat="43.0720029" lon="12.7668535"><ele>385.0</ele><time>2026-04-24T13:43:19.984Z</time></trkpt><trkpt lat="43.0719853" lon="12.7667204"><ele>384.2</ele><time>2026-04-24T13:43:20.996Z</time></trkpt><trkpt lat="43.0719605" lon="12.7666144"><ele>383.4</ele><time>2026-04-24T13:43:21.99Z</time></trkpt><trkpt lat="43.0719024" lon="12.7664957"><ele>382.6</ele><time>2026-04-24T13:43:22.986Z</time></trkpt><trkpt lat="43.0718409" lon="12.7663784"><ele>381.8</ele><time>2026-04-24T13:43:23.977Z</time></trkpt><trkpt lat="43.0717796" lon="12.7662564"><ele>381.0</ele><time>2026-04-24T13:43:24.981Z</time></trkpt><trkpt lat="43.0717205" lon="12.7661297"><ele>380.4</ele><time>2026-04-24T13:43:25.987Z</time></trkpt><trkpt lat="43.0716591" lon="12.7660258"><ele>379.8</ele><time>2026-04-24T13:43:26.981Z</time></trkpt><trkpt lat="43.0715735" lon="12.7659536"><ele>379.2</ele><time>2026-04-24T13:43:27.983Z</time></trkpt><trkpt lat="43.0714659" lon="12.765919"><ele>378.59999999999997</ele><time>2026-04-24T13:43:28.991Z</time></trkpt><trkpt lat="43.0713421" lon="12.7659173"><ele>378.0</ele><time>2026-04-24T13:43:29.97Z</time></trkpt><trkpt lat="43.0712025" lon="12.7659227"><ele>374.0</ele><time>2026-04-24T13:43:30.992Z</time></trkpt><trkpt lat="43.0706914" lon="12.7659322"><ele>374.0</ele><time>2026-04-24T13:43:34.995Z</time></trkpt><trkpt lat="43.0705766" lon="12.7659248"><ele>374.0</ele><time>2026-04-24T13:43:35.994Z</time></trkpt><trkpt lat="43.0704649" lon="12.7659204"><ele>374.0</ele><time>2026-04-24T13:43:36.997Z</time></trkpt><trkpt lat="43.0703642" lon="12.7659125"><ele>374.0</ele><time>2026-04-24T13:43:37.993Z</time></trkpt><trkpt lat="43.0702907" lon="12.7658943"><ele>374.0</ele><time>2026-04-24T13:43:38.985Z</time></trkpt><trkpt lat="43.0702201" lon="12.7658155"><ele>374.0</ele><time>2026-04-24T13:43:41.988Z</time></trkpt><trkpt lat="43.0702075" lon="12.765684"><ele>374.0</ele><time>2026-04-24T13:43:43.982Z</time></trkpt><trkpt lat="43.0702225" lon="12.7655557"><ele>374.0</ele><time>2026-04-24T13:43:45.974Z</time></trkpt><trkpt lat="43.0702011" lon="12.7654562"><ele>374.0</ele><time>2026-04-24T13:43:48.991Z</time></trkpt><trkpt lat="43.0701402" lon="12.7654212"><ele>374.0</ele><time>2026-04-24T13:43:50.976Z</time></trkpt><trkpt lat="43.0700598" lon="12.7653856"><ele>374.0</ele><time>2026-04-24T13:43:53.989Z</time></trkpt><trkpt lat="43.0699796" lon="12.7653543"><ele>375.25</ele><time>2026-04-24T13:44:07.995Z</time></trkpt><trkpt lat="43.0698387" lon="12.7653079"><ele>376.5</ele><time>2026-04-24T13:44:09.973Z</time></trkpt><trkpt lat="43.0697451" lon="12.7652805"><ele>377.75</ele><time>2026-04-24T13:44:11.016Z</time></trkpt><trkpt lat="43.0696414" lon="12.7652434"><ele>379.0</ele><time>2026-04-24T13:44:11.983Z</time></trkpt><trkpt lat="43.0695319" lon="12.7651871"><ele>379.0</ele><time>2026-04-24T13:44:12.984Z</time></trkpt><trkpt lat="43.0694179" lon="12.7651085"><ele>379.0</ele><time>2026-04-24T13:44:13.977Z</time></trkpt><trkpt lat="43.0693235" lon="12.7650119"><ele>379.0</ele><time>2026-04-24T13:44:14.991Z</time></trkpt><trkpt lat="43.0692462" lon="12.7648944"><ele>379.0</ele><time>2026-04-24T13:44:15.976Z</time></trkpt><trkpt lat="43.0691848" lon="12.7647669"><ele>379.0</ele><time>2026-04-24T13:44:16.985Z</time></trkpt><trkpt lat="43.0691367" lon="12.7646055"><ele>379.0</ele><time>2026-04-24T13:44:17.993Z</time></trkpt><trkpt lat="43.0691037" lon="12.7644397"><ele>379.0</ele><time>2026-04-24T13:44:18.975Z</time></trkpt><trkpt lat="43.0690702" lon="12.7642599"><ele>379.0</ele><time>2026-04-24T13:44:19.986Z</time></trkpt><trkpt lat="43.0690362" lon="12.764061"><ele>378.0</ele><time>2026-04-24T13:44:20.973Z</time></trkpt><trkpt lat="43.069004" lon="12.7638612"><ele>377.0</ele><time>2026-04-24T13:44:21.986Z</time></trkpt><trkpt lat="43.0689933" lon="12.7636571"><ele>376.0</ele><time>2026-04-24T13:44:22.983Z</time></trkpt><trkpt lat="43.0689884" lon="12.7634574"><ele>375.0</ele><time>2026-04-24T13:44:23.986Z</time></trkpt><trkpt lat="43.068982" lon="12.7632463"><ele>374.5</ele><time>2026-04-24T13:44:24.985Z</time></trkpt><trkpt lat="43.0689663" lon="12.7630498"><ele>374.0</ele><time>2026-04-24T13:44:25.981Z</time></trkpt><trkpt lat="43.0689351" lon="12.7628615"><ele>373.5</ele><time>2026-04-24T13:44:26.985Z</time></trkpt><trkpt lat="43.0688849" lon="12.7626842"><ele>373.0</ele><time>2026-04-24T13:44:27.972Z</time></trkpt><trkpt lat="43.0688173" lon="12.7625313"><ele>372.79999999999995</ele><time>2026-04-24T13:44:28.98Z</time></trkpt><trkpt lat="43.0687366" lon="12.7623978"><ele>372.6</ele><time>2026-04-24T13:44:29.978Z</time></trkpt><trkpt lat="43.0686552" lon="12.7622767"><ele>372.4</ele><time>2026-04-24T13:44:30.992Z</time></trkpt><trkpt lat="43.0685854" lon="12.7621631"><ele>372.20000000000005</ele><time>2026-04-24T13:44:31.976Z</time></trkpt><trkpt lat="43.0685408" lon="12.7620637"><ele>372.0</ele><time>2026-04-24T13:44:32.977Z</time></trkpt><trkpt lat="43.0685243" lon="12.7619631"><ele>371.75</ele><time>2026-04-24T13:44:33.983Z</time></trkpt><trkpt lat="43.0685356" lon="12.7618359"><ele>371.5</ele><time>2026-04-24T13:44:34.996Z</time></trkpt><trkpt lat="43.0685898" lon="12.7616836"><ele>371.25</ele><time>2026-04-24T13:44:35.985Z</time></trkpt><trkpt lat="43.0686699" lon="12.7615104"><ele>371.0</ele><time>2026-04-24T13:44:36.969Z</time></trkpt><trkpt lat="43.0687698" lon="12.7613482"><ele>371.0</ele><time>2026-04-24T13:44:37.972Z</time></trkpt><trkpt lat="43.0688738" lon="12.7612109"><ele>371.0</ele><time>2026-04-24T13:44:38.995Z</time></trkpt><trkpt lat="43.068974" lon="12.7611168"><ele>371.0</ele><time>2026-04-24T13:44:39.971Z</time></trkpt><trkpt lat="43.0690822" lon="12.7610355"><ele>371.0</ele><time>2026-04-24T13:44:40.972Z</time></trkpt><trkpt lat="43.0692131" lon="12.7609955"><ele>370.0</ele><time>2026-04-24T13:44:41.986Z</time></trkpt><trkpt lat="43.0693581" lon="12.7609551"><ele>369.0</ele><time>2026-04-24T13:44:42.977Z</time></trkpt><trkpt lat="43.0695112" lon="12.7609053"><ele>368.0</ele><time>2026-04-24T13:44:43.973Z</time></trkpt><trkpt lat="43.0696636" lon="12.7608371"><ele>368.0</ele><time>2026-04-24T13:44:44.994Z</time></trkpt><trkpt lat="43.0698062" lon="12.7607454"><ele>368.0</ele><time>2026-04-24T13:44:45.98Z</time></trkpt><trkpt lat="43.0699283" lon="12.7606138"><ele>368.0</ele><time>2026-04-24T13:44:46.984Z</time></trkpt><trkpt lat="43.0700224" lon="12.7604536"><ele>368.75</ele><time>2026-04-24T13:44:47.976Z</time></trkpt><trkpt lat="43.0700978" lon="12.7602822"><ele>369.5</ele><time>2026-04-24T13:44:48.986Z</time></trkpt><trkpt lat="43.0701471" lon="12.7601257"><ele>370.25</ele><time>2026-04-24T13:44:49.988Z</time></trkpt><trkpt lat="43.0701779" lon="12.7599735"><ele>371.0</ele><time>2026-04-24T13:44:50.982Z</time></trkpt><trkpt lat="43.0701994" lon="12.7598471"><ele>370.5</ele><time>2026-04-24T13:44:51.971Z</time></trkpt><trkpt lat="43.0702058" lon="12.7597176"><ele>370.0</ele><time>2026-04-24T13:44:53.966Z</time></trkpt><trkpt lat="43.0701688" lon="12.7596283"><ele>369.5</ele><time>2026-04-24T13:44:55.966Z</time></trkpt><trkpt lat="43.0701002" lon="12.7595697"><ele>369.0</ele><time>2026-04-24T13:44:56.978Z</time></trkpt><trkpt lat="43.0700207" lon="12.7595235"><ele>368.5</ele><time>2026-04-24T13:44:57.981Z</time></trkpt><trkpt lat="43.0699254" lon="12.7594615"><ele>368.0</ele><time>2026-04-24T13:44:58.984Z</time></trkpt><trkpt lat="43.0698145" lon="12.7593787"><ele>371.33333333333337</ele><time>2026-04-24T13:44:59.981Z</time></trkpt><trkpt lat="43.0696869" lon="12.7592806"><ele>374.6666666666667</ele><time>2026-04-24T13:45:00.983Z</time></trkpt><trkpt lat="43.0695566" lon="12.7591543"><ele>378.0</ele><time>2026-04-24T13:45:01.982Z</time></trkpt><trkpt lat="43.0694262" lon="12.7590103"><ele>378.0</ele><time>2026-04-24T13:45:02.983Z</time></trkpt><trkpt lat="43.0692799" lon="12.7588637"><ele>378.0</ele><time>2026-04-24T13:45:03.978Z</time></trkpt><trkpt lat="43.0691208" lon="12.7587131"><ele>378.0</ele><time>2026-04-24T13:45:04.988Z</time></trkpt><trkpt lat="43.0689428" lon="12.7585644"><ele>380.33333333333337</ele><time>2026-04-24T13:45:05.971Z</time></trkpt><trkpt lat="43.0687533" lon="12.7584298"><ele>382.6666666666667</ele><time>2026-04-24T13:45:06.979Z</time></trkpt><trkpt lat="43.0685542" lon="12.7583086"><ele>385.0</ele><time>2026-04-24T13:45:07.968Z</time></trkpt><trkpt lat="43.0683456" lon="12.758207"><ele>378.5</ele><time>2026-04-24T13:45:08.979Z</time></trkpt><trkpt lat="43.0681258" lon="12.7581138"><ele>372.0</ele><time>2026-04-24T13:45:09.974Z</time></trkpt><trkpt lat="43.0678988" lon="12.7580322"><ele>372.0</ele><time>2026-04-24T13:45:10.995Z</time></trkpt><trkpt lat="43.06768" lon="12.7579574"><ele>372.0</ele><time>2026-04-24T13:45:11.991Z</time></trkpt><trkpt lat="43.0674828" lon="12.7578683"><ele>372.0</ele><time>2026-04-24T13:45:12.977Z</time></trkpt><trkpt lat="43.0673102" lon="12.757745"><ele>371.3333333333333</ele><time>2026-04-24T13:45:13.985Z</time></trkpt><trkpt lat="43.06717" lon="12.7575698"><ele>370.66666666666663</ele><time>2026-04-24T13:45:14.964Z</time></trkpt><trkpt lat="43.06706" lon="12.7573836"><ele>370.0</ele><time>2026-04-24T13:45:15.977Z</time></trkpt><trkpt lat="43.0669483" lon="12.7571901"><ele>370.0</ele><time>2026-04-24T13:45:16.971Z</time></trkpt><trkpt lat="43.0668414" lon="12.7570061"><ele>370.0</ele><time>2026-04-24T13:45:17.989Z</time></trkpt><trkpt lat="43.0667315" lon="12.7568214"><ele>370.0</ele><time>2026-04-24T13:45:18.998Z</time></trkpt><trkpt lat="43.0666051" lon="12.7566706"><ele>369.75</ele><time>2026-04-24T13:45:19.98Z</time></trkpt><trkpt lat="43.0664735" lon="12.7565752"><ele>369.5</ele><time>2026-04-24T13:45:20.99Z</time></trkpt><trkpt lat="43.0663399" lon="12.7565042"><ele>369.25</ele><time>2026-04-24T13:45:21.984Z</time></trkpt><trkpt lat="43.066203" lon="12.7564534"><ele>369.0</ele><time>2026-04-24T13:45:22.972Z</time></trkpt><trkpt lat="43.0660704" lon="12.7564106"><ele>369.0</ele><time>2026-04-24T13:45:23.97Z</time></trkpt><trkpt lat="43.0659486" lon="12.7563888"><ele>369.0</ele><time>2026-04-24T13:45:24.98Z</time></trkpt><trkpt lat="43.0658307" lon="12.7563629"><ele>369.0</ele><time>2026-04-24T13:45:26.003Z</time></trkpt><trkpt lat="43.0657151" lon="12.7563277"><ele>369.0</ele><time>2026-04-24T13:45:26.981Z</time></trkpt><trkpt lat="43.0656025" lon="12.7562897"><ele>368.5</ele><time>2026-04-24T13:45:27.979Z</time></trkpt><trkpt lat="43.0654955" lon="12.7562358"><ele>368.0</ele><time>2026-04-24T13:45:28.979Z</time></trkpt><trkpt lat="43.0653871" lon="12.7561877"><ele>367.5</ele><time>2026-04-24T13:45:29.992Z</time></trkpt><trkpt lat="43.0652801" lon="12.7561337"><ele>367.0</ele><time>2026-04-24T13:45:30.983Z</time></trkpt><trkpt lat="43.0651608" lon="12.7560836"><ele>367.0</ele><time>2026-04-24T13:45:31.99Z</time></trkpt><trkpt lat="43.0650389" lon="12.7560383"><ele>367.0</ele><time>2026-04-24T13:45:32.999Z</time></trkpt><trkpt lat="43.0649163" lon="12.7559995"><ele>367.0</ele><time>2026-04-24T13:45:33.995Z</time></trkpt><trkpt lat="43.0647872" lon="12.7559673"><ele>367.0</ele><time>2026-04-24T13:45:34.978Z</time></trkpt><trkpt lat="43.0646559" lon="12.7559449"><ele>367.5</ele><time>2026-04-24T13:45:35.985Z</time></trkpt><trkpt lat="43.0645191" lon="12.7559234"><ele>368.0</ele><time>2026-04-24T13:45:36.993Z</time></trkpt><trkpt lat="43.0643803" lon="12.7558967"><ele>368.5</ele><time>2026-04-24T13:45:37.973Z</time></trkpt><trkpt lat="43.0642384" lon="12.7558718"><ele>369.0</ele><time>2026-04-24T13:45:38.982Z</time></trkpt><trkpt lat="43.0641" lon="12.7558553"><ele>369.0</ele><time>2026-04-24T13:45:39.976Z</time></trkpt><trkpt lat="43.0639585" lon="12.7558473"><ele>369.0</ele><time>2026-04-24T13:45:40.987Z</time></trkpt><trkpt lat="43.0638131" lon="12.7558411"><ele>369.0</ele><time>2026-04-24T13:45:41.976Z</time></trkpt><trkpt lat="43.0636682" lon="12.7558382"><ele>369.0</ele><time>2026-04-24T13:45:42.976Z</time></trkpt><trkpt lat="43.063522" lon="12.7558377"><ele>369.0</ele><time>2026-04-24T13:45:43.968Z</time></trkpt><trkpt lat="43.063375" lon="12.7558382"><ele>369.0</ele><time>2026-04-24T13:45:44.988Z</time></trkpt><trkpt lat="43.0632345" lon="12.7558349"><ele>369.0</ele><time>2026-04-24T13:45:45.986Z</time></trkpt><trkpt lat="43.0630945" lon="12.7558301"><ele>369.0</ele><time>2026-04-24T13:45:46.991Z</time></trkpt><trkpt lat="43.0629549" lon="12.7558266"><ele>368.75</ele><time>2026-04-24T13:45:48Z</time></trkpt><trkpt lat="43.0628146" lon="12.7558118"><ele>368.5</ele><time>2026-04-24T13:45:48.991Z</time></trkpt><trkpt lat="43.0626727" lon="12.7557981"><ele>368.25</ele><time>2026-04-24T13:45:49.978Z</time></trkpt><trkpt lat="43.0625262" lon="12.7557719"><ele>368.0</ele><time>2026-04-24T13:45:51Z</time></trkpt><trkpt lat="43.0623773" lon="12.7557268"><ele>367.33333333333337</ele><time>2026-04-24T13:45:51.995Z</time></trkpt><trkpt lat="43.0622302" lon="12.7556594"><ele>366.6666666666667</ele><time>2026-04-24T13:45:52.991Z</time></trkpt><trkpt lat="43.0620866" lon="12.7555921"><ele>366.0</ele><time>2026-04-24T13:45:53.985Z</time></trkpt><trkpt lat="43.0619422" lon="12.7555187"><ele>366.0</ele><time>2026-04-24T13:45:55.005Z</time></trkpt><trkpt lat="43.061801" lon="12.7554472"><ele>366.0</ele><time>2026-04-24T13:45:55.975Z</time></trkpt><trkpt lat="43.0616548" lon="12.7553756"><ele>366.0</ele><time>2026-04-24T13:45:56.972Z</time></trkpt><trkpt lat="43.0615142" lon="12.755301"><ele>366.6666666666667</ele><time>2026-04-24T13:45:57.977Z</time></trkpt><trkpt lat="43.0613716" lon="12.7552237"><ele>367.33333333333337</ele><time>2026-04-24T13:45:58.997Z</time></trkpt><trkpt lat="43.061235" lon="12.7551394"><ele>368.0</ele><time>2026-04-24T13:45:59.99Z</time></trkpt><trkpt lat="43.0610995" lon="12.7550554"><ele>368.0</ele><time>2026-04-24T13:46:00.977Z</time></trkpt><trkpt lat="43.0609692" lon="12.7549735"><ele>368.0</ele><time>2026-04-24T13:46:01.987Z</time></trkpt><trkpt lat="43.0608397" lon="12.7548939"><ele>368.0</ele><time>2026-04-24T13:46:02.987Z</time></trkpt><trkpt lat="43.0607067" lon="12.7548087"><ele>368.0</ele><time>2026-04-24T13:46:03.977Z</time></trkpt><trkpt lat="43.0605744" lon="12.7547257"><ele>366.25</ele><time>2026-04-24T13:46:04.979Z</time></trkpt><trkpt lat="43.0604366" lon="12.7546397"><ele>364.5</ele><time>2026-04-24T13:46:05.987Z</time></trkpt><trkpt lat="43.060304" lon="12.7545512"><ele>362.75</ele><time>2026-04-24T13:46:06.977Z</time></trkpt><trkpt lat="43.0601712" lon="12.7544684"><ele>361.0</ele><time>2026-04-24T13:46:07.974Z</time></trkpt><trkpt lat="43.0600371" lon="12.7544018"><ele>361.75</ele><time>2026-04-24T13:46:08.972Z</time></trkpt><trkpt lat="43.0598972" lon="12.7543653"><ele>362.5</ele><time>2026-04-24T13:46:09.986Z</time></trkpt><trkpt lat="43.0597594" lon="12.7543505"><ele>363.25</ele><time>2026-04-24T13:46:10.973Z</time></trkpt><trkpt lat="43.0596309" lon="12.7543593"><ele>364.0</ele><time>2026-04-24T13:46:11.978Z</time></trkpt><trkpt lat="43.059505" lon="12.7543786"><ele>364.0</ele><time>2026-04-24T13:46:12.988Z</time></trkpt><trkpt lat="43.0593863" lon="12.7543953"><ele>364.0</ele><time>2026-04-24T13:46:13.988Z</time></trkpt><trkpt lat="43.0592736" lon="12.7544104"><ele>364.0</ele><time>2026-04-24T13:46:14.986Z</time></trkpt><trkpt lat="43.05916" lon="12.7544261"><ele>364.0</ele><time>2026-04-24T13:46:15.981Z</time></trkpt><trkpt lat="43.0590582" lon="12.7544532"><ele>363.79999999999995</ele><time>2026-04-24T13:46:17.003Z</time></trkpt><trkpt lat="43.0589549" lon="12.75447"><ele>363.59999999999997</ele><time>2026-04-24T13:46:17.962Z</time></trkpt><trkpt lat="43.0588521" lon="12.7544867"><ele>363.4</ele><time>2026-04-24T13:46:18.979Z</time></trkpt><trkpt lat="43.0587453" lon="12.7545096"><ele>363.2</ele><time>2026-04-24T13:46:19.983Z</time></trkpt><trkpt lat="43.0586369" lon="12.7545206"><ele>363.0</ele><time>2026-04-24T13:46:20.982Z</time></trkpt><trkpt lat="43.0585271" lon="12.7545302"><ele>363.0</ele><time>2026-04-24T13:46:21.993Z</time></trkpt><trkpt lat="43.0584187" lon="12.7545427"><ele>363.0</ele><time>2026-04-24T13:46:22.98Z</time></trkpt><trkpt lat="43.058311" lon="12.7545501"><ele>363.0</ele><time>2026-04-24T13:46:23.988Z</time></trkpt><trkpt lat="43.0581977" lon="12.7545569"><ele>363.0</ele><time>2026-04-24T13:46:24.984Z</time></trkpt><trkpt lat="43.0580799" lon="12.7545605"><ele>363.0</ele><time>2026-04-24T13:46:25.981Z</time></trkpt><trkpt lat="43.0579595" lon="12.7545691"><ele>362.5</ele><time>2026-04-24T13:46:26.978Z</time></trkpt><trkpt lat="43.0578363" lon="12.7545781"><ele>362.0</ele><time>2026-04-24T13:46:27.985Z</time></trkpt><trkpt lat="43.0577068" lon="12.7545935"><ele>361.5</ele><time>2026-04-24T13:46:28.999Z</time></trkpt><trkpt lat="43.0575755" lon="12.7546241"><ele>361.0</ele><time>2026-04-24T13:46:29.987Z</time></trkpt><trkpt lat="43.0574418" lon="12.754657"><ele>360.75</ele><time>2026-04-24T13:46:30.997Z</time></trkpt><trkpt lat="43.0573082" lon="12.7546917"><ele>360.5</ele><time>2026-04-24T13:46:31.986Z</time></trkpt><trkpt lat="43.0571706" lon="12.7547286"><ele>360.25</ele><time>2026-04-24T13:46:33Z</time></trkpt><trkpt lat="43.0570283" lon="12.7547637"><ele>360.0</ele><time>2026-04-24T13:46:33.979Z</time></trkpt><trkpt lat="43.0568891" lon="12.7547918"><ele>360.0</ele><time>2026-04-24T13:46:34.98Z</time></trkpt><trkpt lat="43.0567474" lon="12.7548074"><ele>360.0</ele><time>2026-04-24T13:46:35.985Z</time></trkpt><trkpt lat="43.056603" lon="12.7547969"><ele>360.0</ele><time>2026-04-24T13:46:37.002Z</time></trkpt><trkpt lat="43.0564619" lon="12.7547747"><ele>360.0</ele><time>2026-04-24T13:46:37.995Z</time></trkpt><trkpt lat="43.0563185" lon="12.7547498"><ele>359.0</ele><time>2026-04-24T13:46:38.985Z</time></trkpt><trkpt lat="43.0561679" lon="12.7547109"><ele>358.0</ele><time>2026-04-24T13:46:39.96Z</time></trkpt><trkpt lat="43.0560111" lon="12.754666"><ele>357.0</ele><time>2026-04-24T13:46:41.007Z</time></trkpt><trkpt lat="43.055845" lon="12.754624"><ele>357.0</ele><time>2026-04-24T13:46:41.975Z</time></trkpt><trkpt lat="43.055681" lon="12.7545829"><ele>357.0</ele><time>2026-04-24T13:46:42.997Z</time></trkpt><trkpt lat="43.0555296" lon="12.754541"><ele>357.0</ele><time>2026-04-24T13:46:43.999Z</time></trkpt><trkpt lat="43.0553804" lon="12.7545091"><ele>357.0</ele><time>2026-04-24T13:46:44.995Z</time></trkpt><trkpt lat="43.0552323" lon="12.7544831"><ele>357.0</ele><time>2026-04-24T13:46:45.976Z</time></trkpt><trkpt lat="43.055075" lon="12.7544718"><ele>357.0</ele><time>2026-04-24T13:46:46.995Z</time></trkpt><trkpt lat="43.0549166" lon="12.7544818"><ele>357.0</ele><time>2026-04-24T13:46:47.978Z</time></trkpt><trkpt lat="43.0547514" lon="12.7545075"><ele>357.0</ele><time>2026-04-24T13:46:48.988Z</time></trkpt><trkpt lat="43.0545847" lon="12.7545369"><ele>357.0</ele><time>2026-04-24T13:46:49.977Z</time></trkpt><trkpt lat="43.0544157" lon="12.7545731"><ele>357.0</ele><time>2026-04-24T13:46:50.979Z</time></trkpt><trkpt lat="43.0542507" lon="12.7546076"><ele>357.0</ele><time>2026-04-24T13:46:51.962Z</time></trkpt><trkpt lat="43.054096" lon="12.7546444"><ele>357.0</ele><time>2026-04-24T13:46:53Z</time></trkpt><trkpt lat="43.0539509" lon="12.7546778"><ele>357.5</ele><time>2026-04-24T13:46:53.979Z</time></trkpt><trkpt lat="43.0538102" lon="12.7547089"><ele>358.0</ele><time>2026-04-24T13:46:54.987Z</time></trkpt><trkpt lat="43.0536681" lon="12.7547491"><ele>358.5</ele><time>2026-04-24T13:46:55.97Z</time></trkpt><trkpt lat="43.0535195" lon="12.7547736"><ele>359.0</ele><time>2026-04-24T13:46:56.973Z</time></trkpt><trkpt lat="43.0533656" lon="12.7547911"><ele>359.0</ele><time>2026-04-24T13:46:57.973Z</time></trkpt><trkpt lat="43.0532107" lon="12.7548087"><ele>359.0</ele><time>2026-04-24T13:46:58.982Z</time></trkpt><trkpt lat="43.0530589" lon="12.7548199"><ele>359.0</ele><time>2026-04-24T13:46:59.98Z</time></trkpt><trkpt lat="43.0528981" lon="12.7548273"><ele>359.0</ele><time>2026-04-24T13:47:00.999Z</time></trkpt><trkpt lat="43.0527422" lon="12.7548308"><ele>359.0</ele><time>2026-04-24T13:47:01.971Z</time></trkpt><trkpt lat="43.0525973" lon="12.7548352"><ele>359.0</ele><time>2026-04-24T13:47:02.977Z</time></trkpt><trkpt lat="43.0524622" lon="12.754822"><ele>359.0</ele><time>2026-04-24T13:47:03.984Z</time></trkpt><trkpt lat="43.0523244" lon="12.7548172"><ele>358.25</ele><time>2026-04-24T13:47:05.002Z</time></trkpt><trkpt lat="43.0521922" lon="12.7548047"><ele>357.5</ele><time>2026-04-24T13:47:05.971Z</time></trkpt><trkpt lat="43.0520673" lon="12.7547649"><ele>356.75</ele><time>2026-04-24T13:47:06.995Z</time></trkpt><trkpt lat="43.0519571" lon="12.7547169"><ele>356.0</ele><time>2026-04-24T13:47:07.989Z</time></trkpt><trkpt lat="43.0518465" lon="12.7546623"><ele>356.0</ele><time>2026-04-24T13:47:08.992Z</time></trkpt><trkpt lat="43.0517361" lon="12.7546254"><ele>356.0</ele><time>2026-04-24T13:47:09.978Z</time></trkpt><trkpt lat="43.0516159" lon="12.7546002"><ele>356.0</ele><time>2026-04-24T13:47:11.002Z</time></trkpt><trkpt lat="43.0514812" lon="12.7545889"><ele>356.0</ele><time>2026-04-24T13:47:11.956Z</time></trkpt><trkpt lat="43.0513377" lon="12.7545905"><ele>355.6666666666667</ele><time>2026-04-24T13:47:12.987Z</time></trkpt><trkpt lat="43.0511801" lon="12.7546168"><ele>355.3333333333333</ele><time>2026-04-24T13:47:13.977Z</time></trkpt><trkpt lat="43.0510211" lon="12.7546533"><ele>355.0</ele><time>2026-04-24T13:47:14.977Z</time></trkpt><trkpt lat="43.050868" lon="12.7546884"><ele>354.3333333333333</ele><time>2026-04-24T13:47:15.986Z</time></trkpt><trkpt lat="43.0507074" lon="12.7547144"><ele>353.6666666666667</ele><time>2026-04-24T13:47:16.994Z</time></trkpt><trkpt lat="43.0505384" lon="12.7547351"><ele>353.0</ele><time>2026-04-24T13:47:17.967Z</time></trkpt><trkpt lat="43.0503687" lon="12.7547442"><ele>353.0</ele><time>2026-04-24T13:47:19.002Z</time></trkpt><trkpt lat="43.0501929" lon="12.7547413"><ele>353.0</ele><time>2026-04-24T13:47:19.985Z</time></trkpt><trkpt lat="43.0500103" lon="12.7547317"><ele>353.0</ele><time>2026-04-24T13:47:20.979Z</time></trkpt><trkpt lat="43.0498159" lon="12.7547135"><ele>353.33333333333337</ele><time>2026-04-24T13:47:21.958Z</time></trkpt><trkpt lat="43.0496182" lon="12.7546985"><ele>353.6666666666667</ele><time>2026-04-24T13:47:22.992Z</time></trkpt><trkpt lat="43.0494114" lon="12.754694"><ele>354.0</ele><time>2026-04-24T13:47:23.996Z</time></trkpt><trkpt lat="43.0491936" lon="12.7546955"><ele>354.0</ele><time>2026-04-24T13:47:24.993Z</time></trkpt><trkpt lat="43.0489738" lon="12.7546981"><ele>354.0</ele><time>2026-04-24T13:47:25.987Z</time></trkpt><trkpt lat="43.0487583" lon="12.754691"><ele>354.0</ele><time>2026-04-24T13:47:26.988Z</time></trkpt><trkpt lat="43.0485551" lon="12.7546701"><ele>354.0</ele><time>2026-04-24T13:47:27.976Z</time></trkpt><trkpt lat="43.048359" lon="12.7546356"><ele>354.0</ele><time>2026-04-24T13:47:28.982Z</time></trkpt><trkpt lat="43.0481622" lon="12.754599"><ele>354.0</ele><time>2026-04-24T13:47:29.977Z</time></trkpt><trkpt lat="43.0479758" lon="12.7545656"><ele>353.0</ele><time>2026-04-24T13:47:30.987Z</time></trkpt><trkpt lat="43.0478097" lon="12.7545486"><ele>352.0</ele><time>2026-04-24T13:47:31.977Z</time></trkpt><trkpt lat="43.0476504" lon="12.7545464"><ele>351.0</ele><time>2026-04-24T13:47:32.977Z</time></trkpt><trkpt lat="43.0474916" lon="12.754561"><ele>354.5</ele><time>2026-04-24T13:47:33.987Z</time></trkpt><trkpt lat="43.0473362" lon="12.7545818"><ele>358.0</ele><time>2026-04-24T13:47:34.977Z</time></trkpt><trkpt lat="43.0466582" lon="12.7545037"><ele>359.5</ele><time>2026-04-24T13:47:38.972Z</time></trkpt><trkpt lat="43.0465172" lon="12.7545343"><ele>361.0</ele><time>2026-04-24T13:47:39.97Z</time></trkpt><trkpt lat="43.0463818" lon="12.7545805"><ele>362.5</ele><time>2026-04-24T13:47:40.982Z</time></trkpt><trkpt lat="43.0462776" lon="12.7546032"><ele>364.0</ele><time>2026-04-24T13:47:41.981Z</time></trkpt><trkpt lat="43.0461703" lon="12.7546135"><ele>364.0</ele><time>2026-04-24T13:47:42.983Z</time></trkpt><trkpt lat="43.0460679" lon="12.7545842"><ele>364.0</ele><time>2026-04-24T13:47:43.982Z</time></trkpt><trkpt lat="43.0459884" lon="12.7545111"><ele>364.0</ele><time>2026-04-24T13:47:44.988Z</time></trkpt><trkpt lat="43.0459529" lon="12.7544111"><ele>364.0</ele><time>2026-04-24T13:47:45.986Z</time></trkpt><trkpt lat="43.0459591" lon="12.7543239"><ele>364.0</ele><time>2026-04-24T13:47:46.967Z</time></trkpt><trkpt lat="43.0460031" lon="12.7542364"><ele>364.0</ele><time>2026-04-24T13:47:47.981Z</time></trkpt><trkpt lat="43.0460599" lon="12.754136"><ele>366.3333333333333</ele><time>2026-04-24T13:47:48.972Z</time></trkpt><trkpt lat="43.0461179" lon="12.7540397"><ele>368.66666666666663</ele><time>2026-04-24T13:47:49.988Z</time></trkpt><trkpt lat="43.0461499" lon="12.7539534"><ele>371.0</ele><time>2026-04-24T13:47:50.982Z</time></trkpt><trkpt lat="43.0461712" lon="12.7538705"><ele>373.3333333333333</ele><time>2026-04-24T13:47:51.977Z</time></trkpt><trkpt lat="43.0461879" lon="12.7537797"><ele>375.6666666666667</ele><time>2026-04-24T13:47:52.993Z</time></trkpt><trkpt lat="43.0461916" lon="12.7536596"><ele>378.0</ele><time>2026-04-24T13:47:53.975Z</time></trkpt><trkpt lat="43.0461861" lon="12.7535304"><ele>380.0</ele><time>2026-04-24T13:47:54.978Z</time></trkpt><trkpt lat="43.0461667" lon="12.7533714"><ele>382.0</ele><time>2026-04-24T13:47:55.971Z</time></trkpt><trkpt lat="43.0461331" lon="12.7531941"><ele>384.0</ele><time>2026-04-24T13:47:56.971Z</time></trkpt><trkpt lat="43.0461024" lon="12.75302"><ele>386.0</ele><time>2026-04-24T13:47:57.972Z</time></trkpt><trkpt lat="43.0460832" lon="12.752839"><ele>388.0</ele><time>2026-04-24T13:47:58.98Z</time></trkpt><trkpt lat="43.0460826" lon="12.7526853"><ele>390.0</ele><time>2026-04-24T13:47:59.981Z</time></trkpt><trkpt lat="43.0460901" lon="12.7525373"><ele>392.0</ele><time>2026-04-24T13:48:00.978Z</time></trkpt><trkpt lat="43.0461093" lon="12.752397"><ele>394.0</ele><time>2026-04-24T13:48:01.979Z</time></trkpt><trkpt lat="43.0461394" lon="12.752274"><ele>396.0</ele><time>2026-04-24T13:48:02.983Z</time></trkpt><trkpt lat="43.0461713" lon="12.7521521"><ele>396.0</ele><time>2026-04-24T13:48:03.987Z</time></trkpt><trkpt lat="43.0461919" lon="12.7520599"><ele>396.0</ele><time>2026-04-24T13:48:04.988Z</time></trkpt><trkpt lat="43.0462319" lon="12.7519196"><ele>396.0</ele><time>2026-04-24T13:48:06.998Z</time></trkpt><trkpt lat="43.0462533" lon="12.7518284"><ele>396.0</ele><time>2026-04-24T13:48:07.977Z</time></trkpt><trkpt lat="43.0462776" lon="12.7517426"><ele>396.0</ele><time>2026-04-24T13:48:08.987Z</time></trkpt><trkpt lat="43.0463093" lon="12.7516466"><ele>396.0</ele><time>2026-04-24T13:48:09.972Z</time></trkpt><trkpt lat="43.0463596" lon="12.7515527"><ele>397.3333333333333</ele><time>2026-04-24T13:48:10.989Z</time></trkpt><trkpt lat="43.0464244" lon="12.751472"><ele>398.66666666666663</ele><time>2026-04-24T13:48:11.97Z</time></trkpt><trkpt lat="43.0464875" lon="12.7514071"><ele>400.0</ele><time>2026-04-24T13:48:12.977Z</time></trkpt><trkpt lat="43.0465372" lon="12.7513457"><ele>401.3333333333333</ele><time>2026-04-24T13:48:13.97Z</time></trkpt><trkpt lat="43.0465661" lon="12.7512687"><ele>402.66666666666663</ele><time>2026-04-24T13:48:14.992Z</time></trkpt><trkpt lat="43.0465768" lon="12.7510803"><ele>404.0</ele><time>2026-04-24T13:48:16.988Z</time></trkpt><trkpt lat="43.0465817" lon="12.7509634"><ele>406.2</ele><time>2026-04-24T13:48:17.984Z</time></trkpt><trkpt lat="43.0465872" lon="12.7508359"><ele>408.4</ele><time>2026-04-24T13:48:18.988Z</time></trkpt><trkpt lat="43.0466026" lon="12.7507047"><ele>410.6</ele><time>2026-04-24T13:48:19.974Z</time></trkpt><trkpt lat="43.0466259" lon="12.750568"><ele>412.8</ele><time>2026-04-24T13:48:20.982Z</time></trkpt><trkpt lat="43.0466521" lon="12.7504304"><ele>415.0</ele><time>2026-04-24T13:48:21.979Z</time></trkpt><trkpt lat="43.0466849" lon="12.7503222"><ele>415.0</ele><time>2026-04-24T13:48:22.98Z</time></trkpt><trkpt lat="43.0467341" lon="12.7502358"><ele>415.0</ele><time>2026-04-24T13:48:23.981Z</time></trkpt><trkpt lat="43.0468029" lon="12.7501533"><ele>415.0</ele><time>2026-04-24T13:48:24.968Z</time></trkpt><trkpt lat="43.046884" lon="12.7500648"><ele>415.0</ele><time>2026-04-24T13:48:25.973Z</time></trkpt><trkpt lat="43.0469766" lon="12.7499722"><ele>415.0</ele><time>2026-04-24T13:48:26.976Z</time></trkpt><trkpt lat="43.0470813" lon="12.7498579"><ele>418.25</ele><time>2026-04-24T13:48:27.972Z</time></trkpt><trkpt lat="43.0471911" lon="12.7497368"><ele>421.5</ele><time>2026-04-24T13:48:28.982Z</time></trkpt><trkpt lat="43.0472896" lon="12.7496301"><ele>424.75</ele><time>2026-04-24T13:48:30.003Z</time></trkpt><trkpt lat="43.0473872" lon="12.749547"><ele>428.0</ele><time>2026-04-24T13:48:30.976Z</time></trkpt><trkpt lat="43.0474872" lon="12.7494834"><ele>428.0</ele><time>2026-04-24T13:48:31.975Z</time></trkpt><trkpt lat="43.0475848" lon="12.7494398"><ele>427.99999999999994</ele><time>2026-04-24T13:48:32.982Z</time></trkpt><trkpt lat="43.0476675" lon="12.7493984"><ele>427.99999999999994</ele><time>2026-04-24T13:48:33.989Z</time></trkpt><trkpt lat="43.0477418" lon="12.7493413"><ele>428.0</ele><time>2026-04-24T13:48:34.972Z</time></trkpt><trkpt lat="43.04781" lon="12.7492512"><ele>428.0</ele><time>2026-04-24T13:48:35.998Z</time></trkpt><trkpt lat="43.0478884" lon="12.7491448"><ele>432.0</ele><time>2026-04-24T13:48:36.969Z</time></trkpt><trkpt lat="43.0479782" lon="12.7490617"><ele>435.99999999999994</ele><time>2026-04-24T13:48:37.987Z</time></trkpt><trkpt lat="43.0480696" lon="12.7489986"><ele>439.99999999999994</ele><time>2026-04-24T13:48:38.967Z</time></trkpt><trkpt lat="43.048156" lon="12.7489216"><ele>444.0</ele><time>2026-04-24T13:48:39.976Z</time></trkpt><trkpt lat="43.0482182" lon="12.748833"><ele>448.0</ele><time>2026-04-24T13:48:40.979Z</time></trkpt><trkpt lat="43.0482534" lon="12.7487424"><ele>448.00000000000006</ele><time>2026-04-24T13:48:41.972Z</time></trkpt><trkpt lat="43.0482776" lon="12.7486134"><ele>448.0</ele><time>2026-04-24T13:48:43.977Z</time></trkpt><trkpt lat="43.0482112" lon="12.7485126"><ele>448.0</ele><time>2026-04-24T13:48:45.969Z</time></trkpt><trkpt lat="43.0481402" lon="12.74849"><ele>448.0</ele><time>2026-04-24T13:48:46.973Z</time></trkpt><trkpt lat="43.0480676" lon="12.7484726"><ele>448.00000000000006</ele><time>2026-04-24T13:48:47.984Z</time></trkpt><trkpt lat="43.0479853" lon="12.7484535"><ele>448.0</ele><time>2026-04-24T13:48:48.98Z</time></trkpt><trkpt lat="43.0479069" lon="12.7484069"><ele>452.2</ele><time>2026-04-24T13:48:49.977Z</time></trkpt><trkpt lat="43.0478309" lon="12.7483434"><ele>456.4</ele><time>2026-04-24T13:48:50.991Z</time></trkpt><trkpt lat="43.0477543" lon="12.748259"><ele>460.59999999999997</ele><time>2026-04-24T13:48:51.974Z</time></trkpt><trkpt lat="43.0476713" lon="12.7481727"><ele>464.79999999999995</ele><time>2026-04-24T13:48:52.977Z</time></trkpt><trkpt lat="43.0475793" lon="12.7481049"><ele>469.0</ele><time>2026-04-24T13:48:53.972Z</time></trkpt><trkpt lat="43.0474823" lon="12.7480649"><ele>470.6</ele><time>2026-04-24T13:48:54.978Z</time></trkpt><trkpt lat="43.0473776" lon="12.7480317"><ele>472.2</ele><time>2026-04-24T13:48:55.968Z</time></trkpt><trkpt lat="43.0472778" lon="12.7479949"><ele>473.80000000000007</ele><time>2026-04-24T13:48:56.969Z</time></trkpt><trkpt lat="43.0471856" lon="12.7479377"><ele>475.40000000000003</ele><time>2026-04-24T13:48:57.981Z</time></trkpt><trkpt lat="43.047092" lon="12.7478832"><ele>477.0</ele><time>2026-04-24T13:48:58.98Z</time></trkpt><trkpt lat="43.0469894" lon="12.7478739"><ele>477.0</ele><time>2026-04-24T13:48:59.975Z</time></trkpt><trkpt lat="43.0468727" lon="12.7479107"><ele>477.0</ele><time>2026-04-24T13:49:00.982Z</time></trkpt><trkpt lat="43.0467512" lon="12.7479512"><ele>477.0</ele><time>2026-04-24T13:49:01.968Z</time></trkpt><trkpt lat="43.046626" lon="12.7479704"><ele>477.0</ele><time>2026-04-24T13:49:02.982Z</time></trkpt><trkpt lat="43.0465147" lon="12.7479801"><ele>478.25</ele><time>2026-04-24T13:49:03.968Z</time></trkpt><trkpt lat="43.0464124" lon="12.747982"><ele>479.5</ele><time>2026-04-24T13:49:04.98Z</time></trkpt><trkpt lat="43.0463062" lon="12.7479769"><ele>480.75</ele><time>2026-04-24T13:49:05.97Z</time></trkpt><trkpt lat="43.0461857" lon="12.747971"><ele>482.0</ele><time>2026-04-24T13:49:06.988Z</time></trkpt><trkpt lat="43.0460463" lon="12.7479436"><ele>482.0</ele><time>2026-04-24T13:49:07.965Z</time></trkpt><trkpt lat="43.045916" lon="12.7479047"><ele>482.00000000000006</ele><time>2026-04-24T13:49:08.971Z</time></trkpt><trkpt lat="43.045804" lon="12.7478498"><ele>482.00000000000006</ele><time>2026-04-24T13:49:09.99Z</time></trkpt><trkpt lat="43.0457046" lon="12.7478149"><ele>482.0</ele><time>2026-04-24T13:49:10.98Z</time></trkpt><trkpt lat="43.0456351" lon="12.7477661"><ele>482.0</ele><time>2026-04-24T13:49:11.973Z</time></trkpt><trkpt lat="43.0455885" lon="12.7476985"><ele>487.0</ele><time>2026-04-24T13:49:12.975Z</time></trkpt><trkpt lat="43.0455439" lon="12.7475866"><ele>492.00000000000006</ele><time>2026-04-24T13:49:13.971Z</time></trkpt><trkpt lat="43.045488" lon="12.7474734"><ele>497.00000000000006</ele><time>2026-04-24T13:49:14.988Z</time></trkpt><trkpt lat="43.0454256" lon="12.7473967"><ele>502.0</ele><time>2026-04-24T13:49:15.977Z</time></trkpt><trkpt lat="43.0453385" lon="12.7473428"><ele>507.0</ele><time>2026-04-24T13:49:16.969Z</time></trkpt><trkpt lat="43.0452529" lon="12.7473154"><ele>507.0</ele><time>2026-04-24T13:49:17.967Z</time></trkpt><trkpt lat="43.045158" lon="12.7473047"><ele>507.00000000000006</ele><time>2026-04-24T13:49:18.968Z</time></trkpt><trkpt lat="43.0450392" lon="12.7473031"><ele>507.00000000000006</ele><time>2026-04-24T13:49:19.969Z</time></trkpt><trkpt lat="43.0449293" lon="12.747299"><ele>507.0</ele><time>2026-04-24T13:49:20.969Z</time></trkpt><trkpt lat="43.0448118" lon="12.7473112"><ele>507.0</ele><time>2026-04-24T13:49:21.97Z</time></trkpt><trkpt lat="43.0446993" lon="12.7473219"><ele>504.5</ele><time>2026-04-24T13:49:22.977Z</time></trkpt><trkpt lat="43.0446033" lon="12.7473418"><ele>502.0</ele><time>2026-04-24T13:49:23.979Z</time></trkpt><trkpt lat="43.0445264" lon="12.7473787"><ele>499.5</ele><time>2026-04-24T13:49:24.98Z</time></trkpt><trkpt lat="43.0444444" lon="12.7473857"><ele>497.0</ele><time>2026-04-24T13:49:26.966Z</time></trkpt><trkpt lat="43.0444724" lon="12.7472878"><ele>494.5</ele><time>2026-04-24T13:49:29.978Z</time></trkpt><trkpt lat="43.0445361" lon="12.7472338"><ele>492.0</ele><time>2026-04-24T13:49:30.995Z</time></trkpt><trkpt lat="43.0445961" lon="12.7472016"><ele>492.0</ele><time>2026-04-24T13:49:31.983Z</time></trkpt><trkpt lat="43.0446604" lon="12.7471458"><ele>492.00000000000006</ele><time>2026-04-24T13:49:32.982Z</time></trkpt><trkpt lat="43.0447331" lon="12.7470676"><ele>492.00000000000006</ele><time>2026-04-24T13:49:33.969Z</time></trkpt><trkpt lat="43.0448148" lon="12.7469728"><ele>492.0</ele><time>2026-04-24T13:49:34.978Z</time></trkpt><trkpt lat="43.0449055" lon="12.746871"><ele>492.0</ele><time>2026-04-24T13:49:35.972Z</time></trkpt><trkpt lat="43.0449947" lon="12.7467593"><ele>501.75</ele><time>2026-04-24T13:49:36.986Z</time></trkpt><trkpt lat="43.0451023" lon="12.7466389"><ele>511.5</ele><time>2026-04-24T13:49:37.969Z</time></trkpt><trkpt lat="43.0452139" lon="12.7465086"><ele>521.25</ele><time>2026-04-24T13:49:38.986Z</time></trkpt><trkpt lat="43.0453342" lon="12.7463879"><ele>531.0</ele><time>2026-04-24T13:49:39.967Z</time></trkpt><trkpt lat="43.0454597" lon="12.7462593"><ele>531.0</ele><time>2026-04-24T13:49:40.978Z</time></trkpt><trkpt lat="43.0455877" lon="12.7461255"><ele>531.0</ele><time>2026-04-24T13:49:41.968Z</time></trkpt><trkpt lat="43.0457163" lon="12.7460079"><ele>531.0</ele><time>2026-04-24T13:49:42.981Z</time></trkpt><trkpt lat="43.0458516" lon="12.7458966"><ele>537.25</ele><time>2026-04-24T13:49:43.986Z</time></trkpt><trkpt lat="43.045988" lon="12.7457795"><ele>543.5</ele><time>2026-04-24T13:49:44.977Z</time></trkpt><trkpt lat="43.0461212" lon="12.745679"><ele>549.75</ele><time>2026-04-24T13:49:45.968Z</time></trkpt><trkpt lat="43.0462432" lon="12.7456086"><ele>556.0</ele><time>2026-04-24T13:49:46.987Z</time></trkpt><trkpt lat="43.0463469" lon="12.7455681"><ele>556.0</ele><time>2026-04-24T13:49:47.987Z</time></trkpt><trkpt lat="43.0464131" lon="12.7455403"><ele>556.0</ele><time>2026-04-24T13:49:48.984Z</time></trkpt><trkpt lat="43.0465085" lon="12.7453979"><ele>556.0</ele><time>2026-04-24T13:49:50.987Z</time></trkpt><trkpt lat="43.0465465" lon="12.7452509"><ele>556.0</ele><time>2026-04-24T13:49:51.971Z</time></trkpt><trkpt lat="43.0465899" lon="12.7450878"><ele>560.25</ele><time>2026-04-24T13:49:52.976Z</time></trkpt><trkpt lat="43.0466271" lon="12.744919"><ele>564.5</ele><time>2026-04-24T13:49:53.98Z</time></trkpt><trkpt lat="43.0466484" lon="12.7447443"><ele>568.75</ele><time>2026-04-24T13:49:54.97Z</time></trkpt><trkpt lat="43.0466618" lon="12.744577"><ele>573.0</ele><time>2026-04-24T13:49:55.972Z</time></trkpt><trkpt lat="43.0466707" lon="12.7444132"><ele>576.75</ele><time>2026-04-24T13:49:56.978Z</time></trkpt><trkpt lat="43.0466928" lon="12.7442721"><ele>580.5</ele><time>2026-04-24T13:49:58.004Z</time></trkpt><trkpt lat="43.0467334" lon="12.7441191"><ele>584.25</ele><time>2026-04-24T13:49:58.985Z</time></trkpt><trkpt lat="43.0467869" lon="12.743964"><ele>588.0</ele><time>2026-04-24T13:49:59.967Z</time></trkpt><trkpt lat="43.0468589" lon="12.7438383"><ele>588.0</ele><time>2026-04-24T13:50:00.997Z</time></trkpt><trkpt lat="43.0469409" lon="12.74374"><ele>588.0</ele><time>2026-04-24T13:50:01.991Z</time></trkpt><trkpt lat="43.0469977" lon="12.7436642"><ele>588.0</ele><time>2026-04-24T13:50:02.986Z</time></trkpt><trkpt lat="43.0469538" lon="12.7435749"><ele>588.0</ele><time>2026-04-24T13:50:06.977Z</time></trkpt><trkpt lat="43.0468871" lon="12.743508"><ele>588.0</ele><time>2026-04-24T13:50:08.984Z</time></trkpt><trkpt lat="43.046804" lon="12.7433846"><ele>590.1999999999999</ele><time>2026-04-24T13:50:10.973Z</time></trkpt><trkpt lat="43.0467632" lon="12.7432217"><ele>592.4</ele><time>2026-04-24T13:50:12.974Z</time></trkpt><trkpt lat="43.0467687" lon="12.743117"><ele>594.5999999999999</ele><time>2026-04-24T13:50:13.981Z</time></trkpt><trkpt lat="43.0467697" lon="12.7429985"><ele>596.8</ele><time>2026-04-24T13:50:14.966Z</time></trkpt><trkpt lat="43.0467608" lon="12.7428515"><ele>599.0</ele><time>2026-04-24T13:50:15.973Z</time></trkpt><trkpt lat="43.046745" lon="12.742703"><ele>597.25</ele><time>2026-04-24T13:50:16.982Z</time></trkpt><trkpt lat="43.0466981" lon="12.7425329"><ele>595.5</ele><time>2026-04-24T13:50:17.996Z</time></trkpt><trkpt lat="43.046633" lon="12.7423656"><ele>593.75</ele><time>2026-04-24T13:50:18.983Z</time></trkpt><trkpt lat="43.0465453" lon="12.7421951"><ele>592.0</ele><time>2026-04-24T13:50:19.991Z</time></trkpt><trkpt lat="43.0464373" lon="12.7420167"><ele>596.75</ele><time>2026-04-24T13:50:20.984Z</time></trkpt><trkpt lat="43.0463202" lon="12.7418492"><ele>601.5</ele><time>2026-04-24T13:50:21.967Z</time></trkpt><trkpt lat="43.0462034" lon="12.7417243"><ele>606.25</ele><time>2026-04-24T13:50:22.967Z</time></trkpt><trkpt lat="43.0460853" lon="12.7416762"><ele>611.0</ele><time>2026-04-24T13:50:23.993Z</time></trkpt><trkpt lat="43.0459702" lon="12.7416724"><ele>611.0</ele><time>2026-04-24T13:50:24.983Z</time></trkpt><trkpt lat="43.04586" lon="12.7416774"><ele>611.0</ele><time>2026-04-24T13:50:25.975Z</time></trkpt><trkpt lat="43.0457645" lon="12.741672"><ele>611.0</ele><time>2026-04-24T13:50:26.974Z</time></trkpt><trkpt lat="43.0456796" lon="12.7416647"><ele>611.0</ele><time>2026-04-24T13:50:27.977Z</time></trkpt><trkpt lat="43.0455916" lon="12.7416359"><ele>611.0</ele><time>2026-04-24T13:50:28.994Z</time></trkpt><trkpt lat="43.045502" lon="12.7415982"><ele>610.4</ele><time>2026-04-24T13:50:29.977Z</time></trkpt><trkpt lat="43.0453981" lon="12.74158"><ele>609.8</ele><time>2026-04-24T13:50:30.97Z</time></trkpt><trkpt lat="43.0452967" lon="12.7415988"><ele>609.1999999999999</ele><time>2026-04-24T13:50:31.986Z</time></trkpt><trkpt lat="43.0452051" lon="12.741636"><ele>608.6</ele><time>2026-04-24T13:50:32.982Z</time></trkpt><trkpt lat="43.0451181" lon="12.7417107"><ele>608.0</ele><time>2026-04-24T13:50:33.971Z</time></trkpt><trkpt lat="43.0450322" lon="12.7418457"><ele>604.6666666666666</ele><time>2026-04-24T13:50:34.988Z</time></trkpt><trkpt lat="43.0449428" lon="12.741997"><ele>601.3333333333334</ele><time>2026-04-24T13:50:35.968Z</time></trkpt><trkpt lat="43.0448464" lon="12.7421643"><ele>598.0</ele><time>2026-04-24T13:50:36.966Z</time></trkpt><trkpt lat="43.0447372" lon="12.7423373"><ele>598.0</ele><time>2026-04-24T13:50:37.973Z</time></trkpt><trkpt lat="43.0446219" lon="12.7425101"><ele>598.0</ele><time>2026-04-24T13:50:38.979Z</time></trkpt><trkpt lat="43.0445006" lon="12.7426853"><ele>598.0</ele><time>2026-04-24T13:50:39.972Z</time></trkpt><trkpt lat="43.0443806" lon="12.7428563"><ele>594.3333333333334</ele><time>2026-04-24T13:50:40.979Z</time></trkpt><trkpt lat="43.0442685" lon="12.7430216"><ele>590.6666666666666</ele><time>2026-04-24T13:50:41.995Z</time></trkpt><trkpt lat="43.0441559" lon="12.7431837"><ele>587.0</ele><time>2026-04-24T13:50:42.973Z</time></trkpt><trkpt lat="43.04405" lon="12.7433404"><ele>587.0</ele><time>2026-04-24T13:50:43.995Z</time></trkpt><trkpt lat="43.0439488" lon="12.743486"><ele>587.0</ele><time>2026-04-24T13:50:44.983Z</time></trkpt><trkpt lat="43.0438495" lon="12.7436357"><ele>587.0</ele><time>2026-04-24T13:50:45.992Z</time></trkpt><trkpt lat="43.0437455" lon="12.7437713"><ele>587.0</ele><time>2026-04-24T13:50:46.998Z</time></trkpt><trkpt lat="43.0436403" lon="12.7439002"><ele>582.25</ele><time>2026-04-24T13:50:47.975Z</time></trkpt><trkpt lat="43.0435193" lon="12.7440219"><ele>577.5</ele><time>2026-04-24T13:50:48.977Z</time></trkpt><trkpt lat="43.0433914" lon="12.7441399"><ele>572.75</ele><time>2026-04-24T13:50:49.976Z</time></trkpt><trkpt lat="43.0432684" lon="12.7442434"><ele>568.0</ele><time>2026-04-24T13:50:50.984Z</time></trkpt><trkpt lat="43.0431589" lon="12.7443239"><ele>565.6</ele><time>2026-04-24T13:50:51.982Z</time></trkpt><trkpt lat="43.0430631" lon="12.7443744"><ele>563.1999999999999</ele><time>2026-04-24T13:50:52.984Z</time></trkpt><trkpt lat="43.0429693" lon="12.7443843"><ele>560.8</ele><time>2026-04-24T13:50:53.966Z</time></trkpt><trkpt lat="43.0428793" lon="12.7443488"><ele>558.4</ele><time>2026-04-24T13:50:54.976Z</time></trkpt><trkpt lat="43.0428056" lon="12.7442931"><ele>556.0</ele><time>2026-04-24T13:50:55.973Z</time></trkpt><trkpt lat="43.0427261" lon="12.7442596"><ele>556.0</ele><time>2026-04-24T13:50:56.977Z</time></trkpt><trkpt lat="43.0426606" lon="12.7442795"><ele>556.0</ele><time>2026-04-24T13:50:57.974Z</time></trkpt><trkpt lat="43.0426276" lon="12.7443756"><ele>556.0</ele><time>2026-04-24T13:50:58.98Z</time></trkpt><trkpt lat="43.0426265" lon="12.7445002"><ele>556.0</ele><time>2026-04-24T13:50:59.976Z</time></trkpt><trkpt lat="43.0426541" lon="12.7445915"><ele>556.0</ele><time>2026-04-24T13:51:00.977Z</time></trkpt><trkpt lat="43.0427009" lon="12.7446889"><ele>556.0</ele><time>2026-04-24T13:51:02.977Z</time></trkpt><trkpt lat="43.0427515" lon="12.7447416"><ele>554.0</ele><time>2026-04-24T13:51:05.979Z</time></trkpt><trkpt lat="43.0428391" lon="12.7447757"><ele>552.0</ele><time>2026-04-24T13:51:07.973Z</time></trkpt><trkpt lat="43.0429414" lon="12.7447876"><ele>550.0</ele><time>2026-04-24T13:51:09.971Z</time></trkpt><trkpt lat="43.0430437" lon="12.744758"><ele>548.0</ele><time>2026-04-24T13:51:11.973Z</time></trkpt><trkpt lat="43.043144" lon="12.7447199"><ele>546.0</ele><time>2026-04-24T13:51:13.984Z</time></trkpt><trkpt lat="43.0432316" lon="12.744777"><ele>546.0</ele><time>2026-04-24T13:51:15.979Z</time></trkpt><trkpt lat="43.0431741" lon="12.744883"><ele>546.0</ele><time>2026-04-24T13:51:17.97Z</time></trkpt><trkpt lat="43.0430768" lon="12.7449229"><ele>546.0</ele><time>2026-04-24T13:51:19.973Z</time></trkpt><trkpt lat="43.0429753" lon="12.7449807"><ele>546.0</ele><time>2026-04-24T13:51:21.971Z</time></trkpt><trkpt lat="43.0428907" lon="12.7450335"><ele>546.0</ele><time>2026-04-24T13:51:23.985Z</time></trkpt><trkpt lat="43.0428158" lon="12.7450636"><ele>546.0</ele><time>2026-04-24T13:51:26.977Z</time></trkpt><trkpt lat="43.0429294" lon="12.7450271"><ele>546.0</ele><time>2026-04-24T13:51:31.983Z</time></trkpt><trkpt lat="43.0429934" lon="12.7449758"><ele>546.0</ele><time>2026-04-24T13:51:32.973Z</time></trkpt><trkpt lat="43.0430678" lon="12.7449271"><ele>546.0</ele><time>2026-04-24T13:51:33.977Z</time></trkpt><trkpt lat="43.0431428" lon="12.7448769"><ele>546.0</ele><time>2026-04-24T13:51:34.967Z</time></trkpt><trkpt lat="43.04321" lon="12.7448269"><ele>546.0</ele><time>2026-04-24T13:51:35.978Z</time></trkpt><trkpt lat="43.043256" lon="12.7447673"><ele>546.0</ele><time>2026-04-24T13:51:36.968Z</time></trkpt><trkpt lat="43.0431804" lon="12.7446694"><ele>546.0</ele><time>2026-04-24T13:51:38.978Z</time></trkpt><trkpt lat="43.043116" lon="12.7446776"><ele>546.0</ele><time>2026-04-24T13:51:39.987Z</time></trkpt><trkpt lat="43.0428959" lon="12.7447588"><ele>546.0</ele><time>2026-04-24T13:51:43.979Z</time></trkpt><trkpt lat="43.0427883" lon="12.7447269"><ele>546.0</ele><time>2026-04-24T13:51:45.968Z</time></trkpt><trkpt lat="43.0427201" lon="12.7446872"><ele>546.0</ele><time>2026-04-24T13:51:48.002Z</time></trkpt><trkpt lat="43.0426541" lon="12.744645"><ele>546.0</ele><time>2026-04-24T13:51:49.972Z</time></trkpt><trkpt lat="43.0425755" lon="12.7446224"><ele>546.0</ele><time>2026-04-24T13:51:51.978Z</time></trkpt><trkpt lat="43.0424836" lon="12.7446261"><ele>546.0</ele><time>2026-04-24T13:51:53.985Z</time></trkpt><trkpt lat="43.0424225" lon="12.7445836"><ele>546.0</ele><time>2026-04-24T13:51:55.974Z</time></trkpt><trkpt lat="43.0424079" lon="12.7444434"><ele>547.4285714285714</ele><time>2026-04-24T13:51:57.981Z</time></trkpt><trkpt lat="43.0424182" lon="12.7443487"><ele>548.8571428571429</ele><time>2026-04-24T13:51:58.967Z</time></trkpt><trkpt lat="43.0424288" lon="12.7442536"><ele>550.2857142857142</ele><time>2026-04-24T13:51:59.98Z</time></trkpt><trkpt lat="43.0424449" lon="12.7441524"><ele>551.7142857142858</ele><time>2026-04-24T13:52:00.982Z</time></trkpt><trkpt lat="43.042461" lon="12.7440477"><ele>553.1428571428571</ele><time>2026-04-24T13:52:02.002Z</time></trkpt><trkpt lat="43.0424661" lon="12.7439523"><ele>554.5714285714286</ele><time>2026-04-24T13:52:02.994Z</time></trkpt><trkpt lat="43.0424726" lon="12.7438566"><ele>556.0</ele><time>2026-04-24T13:52:03.981Z</time></trkpt><trkpt lat="43.0424768" lon="12.743762"><ele>556.0</ele><time>2026-04-24T13:52:04.969Z</time></trkpt><trkpt lat="43.0424839" lon="12.7436698"><ele>556.0</ele><time>2026-04-24T13:52:05.97Z</time></trkpt><trkpt lat="43.0424988" lon="12.7435054"><ele>556.0</ele><time>2026-04-24T13:52:07.973Z</time></trkpt><trkpt lat="43.042506" lon="12.7434101"><ele>556.0</ele><time>2026-04-24T13:52:08.977Z</time></trkpt><trkpt lat="43.0425156" lon="12.7433154"><ele>556.0</ele><time>2026-04-24T13:52:09.98Z</time></trkpt><trkpt lat="43.0425215" lon="12.7432231"><ele>556.0</ele><time>2026-04-24T13:52:10.991Z</time></trkpt><trkpt lat="43.042524" lon="12.7431295"><ele>556.6666666666667</ele><time>2026-04-24T13:52:11.971Z</time></trkpt><trkpt lat="43.0425312" lon="12.7429858"><ele>557.3333333333334</ele><time>2026-04-24T13:52:13.973Z</time></trkpt><trkpt lat="43.0425428" lon="12.7428903"><ele>558.0</ele><time>2026-04-24T13:52:15.969Z</time></trkpt><trkpt lat="43.042559" lon="12.7427983"><ele>558.6666666666666</ele><time>2026-04-24T13:52:17.975Z</time></trkpt><trkpt lat="43.0425722" lon="12.7427115"><ele>559.3333333333333</ele><time>2026-04-24T13:52:29.965Z</time></trkpt><trkpt lat="43.042596" lon="12.742575"><ele>560.0</ele><time>2026-04-24T13:52:31.976Z</time></trkpt><trkpt lat="43.0426174" lon="12.7424928"><ele>560.4</ele><time>2026-04-24T13:52:32.995Z</time></trkpt><trkpt lat="43.0426607" lon="12.7423715"><ele>560.8</ele><time>2026-04-24T13:52:34.973Z</time></trkpt><trkpt lat="43.0427201" lon="12.7422119"><ele>561.2</ele><time>2026-04-24T13:52:36.99Z</time></trkpt><trkpt lat="43.0427527" lon="12.742129"><ele>561.6</ele><time>2026-04-24T13:52:37.983Z</time></trkpt><trkpt lat="43.0427798" lon="12.7420337"><ele>562.0</ele><time>2026-04-24T13:52:38.996Z</time></trkpt><trkpt lat="43.0427982" lon="12.7419172"><ele>562.6666666666667</ele><time>2026-04-24T13:52:39.976Z</time></trkpt><trkpt lat="43.0428091" lon="12.7418034"><ele>563.3333333333334</ele><time>2026-04-24T13:52:40.972Z</time></trkpt><trkpt lat="43.0428083" lon="12.7416883"><ele>564.0</ele><time>2026-04-24T13:52:41.967Z</time></trkpt><trkpt lat="43.0428004" lon="12.7415781"><ele>564.6666666666666</ele><time>2026-04-24T13:52:42.977Z</time></trkpt><trkpt lat="43.0427999" lon="12.7414623"><ele>565.3333333333333</ele><time>2026-04-24T13:52:43.967Z</time></trkpt><trkpt lat="43.0427937" lon="12.7413491"><ele>566.0</ele><time>2026-04-24T13:52:44.977Z</time></trkpt><trkpt lat="43.0427704" lon="12.7412358"><ele>566.0</ele><time>2026-04-24T13:52:45.974Z</time></trkpt><trkpt lat="43.0427368" lon="12.7411246"><ele>566.0</ele><time>2026-04-24T13:52:46.982Z</time></trkpt><trkpt lat="43.0427005" lon="12.7410284"><ele>566.0</ele><time>2026-04-24T13:52:47.968Z</time></trkpt><trkpt lat="43.0426605" lon="12.740923"><ele>566.0</ele><time>2026-04-24T13:52:48.973Z</time></trkpt><trkpt lat="43.042614" lon="12.7408248"><ele>566.0</ele><time>2026-04-24T13:52:49.989Z</time></trkpt><trkpt lat="43.0425576" lon="12.7407363"><ele>566.0</ele><time>2026-04-24T13:52:50.974Z</time></trkpt><trkpt lat="43.0424949" lon="12.7406677"><ele>566.2</ele><time>2026-04-24T13:52:51.97Z</time></trkpt><trkpt lat="43.0424287" lon="12.7406069"><ele>566.4000000000001</ele><time>2026-04-24T13:52:52.98Z</time></trkpt><trkpt lat="43.0423615" lon="12.7405444"><ele>566.6</ele><time>2026-04-24T13:52:53.987Z</time></trkpt><trkpt lat="43.0423047" lon="12.7404906"><ele>566.8000000000001</ele><time>2026-04-24T13:52:54.98Z</time></trkpt><trkpt lat="43.0421887" lon="12.7404581"><ele>567.0</ele><time>2026-04-24T13:52:56.97Z</time></trkpt><trkpt lat="43.0420772" lon="12.7404725"><ele>567.0</ele><time>2026-04-24T13:52:58.971Z</time></trkpt><trkpt lat="43.0420096" lon="12.7404839"><ele>567.0</ele><time>2026-04-24T13:52:59.973Z</time></trkpt><trkpt lat="43.0419362" lon="12.7404987"><ele>567.0</ele><time>2026-04-24T13:53:00.975Z</time></trkpt><trkpt lat="43.041864" lon="12.7405287"><ele>567.0</ele><time>2026-04-24T13:53:01.99Z</time></trkpt><trkpt lat="43.0417977" lon="12.7405519"><ele>567.0</ele><time>2026-04-24T13:53:02.97Z</time></trkpt><trkpt lat="43.0417207" lon="12.7405259"><ele>567.0</ele><time>2026-04-24T13:53:04.981Z</time></trkpt><trkpt lat="43.0416409" lon="12.740452"><ele>565.7142857142857</ele><time>2026-04-24T13:53:06.984Z</time></trkpt><trkpt lat="43.0416036" lon="12.7403686"><ele>564.4285714285714</ele><time>2026-04-24T13:53:07.978Z</time></trkpt><trkpt lat="43.0415619" lon="12.7402782"><ele>563.1428571428571</ele><time>2026-04-24T13:53:08.976Z</time></trkpt><trkpt lat="43.0415052" lon="12.740205"><ele>561.8571428571429</ele><time>2026-04-24T13:53:09.973Z</time></trkpt><trkpt lat="43.0414488" lon="12.7401571"><ele>560.5714285714286</ele><time>2026-04-24T13:53:10.986Z</time></trkpt><trkpt lat="43.0413748" lon="12.7401143"><ele>559.2857142857142</ele><time>2026-04-24T13:53:11.987Z</time></trkpt><trkpt lat="43.0413105" lon="12.7400635"><ele>558.0</ele><time>2026-04-24T13:53:12.997Z</time></trkpt><trkpt lat="43.0412518" lon="12.7400105"><ele>562.1999999999999</ele><time>2026-04-24T13:53:13.969Z</time></trkpt><trkpt lat="43.0411693" lon="12.7399222"><ele>566.4</ele><time>2026-04-24T13:53:15.976Z</time></trkpt><trkpt lat="43.0411285" lon="12.7398407"><ele>570.5999999999999</ele><time>2026-04-24T13:53:17.98Z</time></trkpt><trkpt lat="43.04105" lon="12.7397457"><ele>574.8</ele><time>2026-04-24T13:53:19.981Z</time></trkpt><trkpt lat="43.0409554" lon="12.7396715"><ele>579.0</ele><time>2026-04-24T13:53:21.972Z</time></trkpt><trkpt lat="43.0408723" lon="12.7395627"><ele>579.0</ele><time>2026-04-24T13:53:23.982Z</time></trkpt><trkpt lat="43.0408245" lon="12.7394137"><ele>579.0</ele><time>2026-04-24T13:53:25.975Z</time></trkpt><trkpt lat="43.0407837" lon="12.7392448"><ele>579.0</ele><time>2026-04-24T13:53:27.977Z</time></trkpt><trkpt lat="43.0407542" lon="12.7391536"><ele>579.0</ele><time>2026-04-24T13:53:28.977Z</time></trkpt><trkpt lat="43.0407271" lon="12.7390672"><ele>579.0</ele><time>2026-04-24T13:53:29.977Z</time></trkpt><trkpt lat="43.0406877" lon="12.7389811"><ele>578.6666666666666</ele><time>2026-04-24T13:53:30.978Z</time></trkpt><trkpt lat="43.0406491" lon="12.7388861"><ele>578.3333333333334</ele><time>2026-04-24T13:53:31.98Z</time></trkpt><trkpt lat="43.0406146" lon="12.7387907"><ele>578.0</ele><time>2026-04-24T13:53:32.971Z</time></trkpt><trkpt lat="43.0405877" lon="12.7387024"><ele>577.6666666666667</ele><time>2026-04-24T13:53:33.986Z</time></trkpt><trkpt lat="43.0405357" lon="12.7385638"><ele>577.3333333333334</ele><time>2026-04-24T13:53:35.968Z</time></trkpt><trkpt lat="43.0404425" lon="12.7385074"><ele>577.0</ele><time>2026-04-24T13:53:37.967Z</time></trkpt><trkpt lat="43.0403764" lon="12.7384987"><ele>578.0</ele><time>2026-04-24T13:53:38.984Z</time></trkpt><trkpt lat="43.0403042" lon="12.7384823"><ele>579.0</ele><time>2026-04-24T13:53:39.97Z</time></trkpt><trkpt lat="43.0402191" lon="12.7384575"><ele>580.0</ele><time>2026-04-24T13:53:40.979Z</time></trkpt><trkpt lat="43.0401391" lon="12.7384413"><ele>581.0</ele><time>2026-04-24T13:53:41.969Z</time></trkpt><trkpt lat="43.0400629" lon="12.7384284"><ele>582.0</ele><time>2026-04-24T13:53:42.982Z</time></trkpt><trkpt lat="43.0399883" lon="12.7384109"><ele>583.0</ele><time>2026-04-24T13:53:43.984Z</time></trkpt><trkpt lat="43.039922" lon="12.7383925"><ele>583.0</ele><time>2026-04-24T13:53:44.98Z</time></trkpt><trkpt lat="43.039865" lon="12.7383542"><ele>583.0</ele><time>2026-04-24T13:53:45.986Z</time></trkpt><trkpt lat="43.0397822" lon="12.7382262"><ele>583.0</ele><time>2026-04-24T13:53:47.979Z</time></trkpt><trkpt lat="43.0397341" lon="12.7381313"><ele>583.0</ele><time>2026-04-24T13:53:48.982Z</time></trkpt><trkpt lat="43.0396964" lon="12.7380549"><ele>583.0</ele><time>2026-04-24T13:53:49.99Z</time></trkpt><trkpt lat="43.0396499" lon="12.7379836"><ele>583.0</ele><time>2026-04-24T13:53:51.98Z</time></trkpt><trkpt lat="43.0395773" lon="12.7379622"><ele>583.0000000000001</ele><time>2026-04-24T13:53:54.976Z</time></trkpt><trkpt lat="43.0394802" lon="12.737986"><ele>583.0</ele><time>2026-04-24T13:53:56.97Z</time></trkpt><trkpt lat="43.039414" lon="12.7380115"><ele>583.0</ele><time>2026-04-24T13:53:57.981Z</time></trkpt><trkpt lat="43.0393427" lon="12.7380299"><ele>583.0</ele><time>2026-04-24T13:53:58.976Z</time></trkpt><trkpt lat="43.0392716" lon="12.7380408"><ele>583.0</ele><time>2026-04-24T13:53:59.978Z</time></trkpt><trkpt lat="43.0391997" lon="12.7380439"><ele>583.0000000000001</ele><time>2026-04-24T13:54:01.001Z</time></trkpt><trkpt lat="43.0391353" lon="12.7380427"><ele>583.0</ele><time>2026-04-24T13:54:01.971Z</time></trkpt><trkpt lat="43.039063" lon="12.7380382"><ele>582.8333333333334</ele><time>2026-04-24T13:54:02.972Z</time></trkpt><trkpt lat="43.0389536" lon="12.7380366"><ele>582.6666666666667</ele><time>2026-04-24T13:54:04.994Z</time></trkpt><trkpt lat="43.0388871" lon="12.7380213"><ele>582.5</ele><time>2026-04-24T13:54:06.98Z</time></trkpt><trkpt lat="43.0388231" lon="12.7379977"><ele>582.3333333333334</ele><time>2026-04-24T13:54:09.978Z</time></trkpt><trkpt lat="43.0387507" lon="12.7380099"><ele>582.1666666666666</ele><time>2026-04-24T13:54:11.991Z</time></trkpt><trkpt lat="43.0386249" lon="12.7380303"><ele>582.0</ele><time>2026-04-24T13:54:13.969Z</time></trkpt><trkpt lat="43.0385597" lon="12.738034"><ele>582.0</ele><time>2026-04-24T13:54:14.981Z</time></trkpt><trkpt lat="43.0384928" lon="12.7380394"><ele>582.0</ele><time>2026-04-24T13:54:15.965Z</time></trkpt><trkpt lat="43.0384171" lon="12.738045"><ele>582.0</ele><time>2026-04-24T13:54:16.988Z</time></trkpt><trkpt lat="43.0383389" lon="12.7380476"><ele>582.0</ele><time>2026-04-24T13:54:17.973Z</time></trkpt><trkpt lat="43.0382656" lon="12.7380527"><ele>582.0</ele><time>2026-04-24T13:54:18.979Z</time></trkpt><trkpt lat="43.0381992" lon="12.7380492"><ele>582.0</ele><time>2026-04-24T13:54:19.962Z</time></trkpt><trkpt lat="43.0381356" lon="12.7380457"><ele>582.0</ele><time>2026-04-24T13:54:21.004Z</time></trkpt><trkpt lat="43.0380727" lon="12.7380357"><ele>584.1666666666666</ele><time>2026-04-24T13:54:21.987Z</time></trkpt><trkpt lat="43.0380125" lon="12.7380079"><ele>586.3333333333334</ele><time>2026-04-24T13:54:22.986Z</time></trkpt><trkpt lat="43.0379151" lon="12.7379304"><ele>588.5</ele><time>2026-04-24T13:54:24.982Z</time></trkpt><trkpt lat="43.0378143" lon="12.7378605"><ele>590.6666666666667</ele><time>2026-04-24T13:54:26.98Z</time></trkpt><trkpt lat="43.0377587" lon="12.7379257"><ele>592.8333333333334</ele><time>2026-04-24T13:54:28.977Z</time></trkpt><trkpt lat="43.0377373" lon="12.7380209"><ele>595.0</ele><time>2026-04-24T13:54:30.977Z</time></trkpt><trkpt lat="43.0376889" lon="12.7381408"><ele>595.0</ele><time>2026-04-24T13:54:32.973Z</time></trkpt><trkpt lat="43.0376456" lon="12.7382037"><ele>595.0</ele><time>2026-04-24T13:54:33.974Z</time></trkpt><trkpt lat="43.0375926" lon="12.7382617"><ele>595.0</ele><time>2026-04-24T13:54:34.985Z</time></trkpt><trkpt lat="43.037533" lon="12.7383185"><ele>595.0</ele><time>2026-04-24T13:54:35.969Z</time></trkpt><trkpt lat="43.0374651" lon="12.7383836"><ele>595.0</ele><time>2026-04-24T13:54:36.972Z</time></trkpt><trkpt lat="43.0373923" lon="12.7384536"><ele>595.0</ele><time>2026-04-24T13:54:37.985Z</time></trkpt><trkpt lat="43.0373262" lon="12.7385278"><ele>597.1666666666667</ele><time>2026-04-24T13:54:38.975Z</time></trkpt><trkpt lat="43.0372699" lon="12.7386013"><ele>599.3333333333334</ele><time>2026-04-24T13:54:39.975Z</time></trkpt><trkpt lat="43.0372267" lon="12.7386672"><ele>601.5</ele><time>2026-04-24T13:54:40.976Z</time></trkpt><trkpt lat="43.0371781" lon="12.7387403"><ele>603.6666666666666</ele><time>2026-04-24T13:54:41.975Z</time></trkpt><trkpt lat="43.0371204" lon="12.7388214"><ele>605.8333333333333</ele><time>2026-04-24T13:54:42.99Z</time></trkpt><trkpt lat="43.0370553" lon="12.7388953"><ele>608.0</ele><time>2026-04-24T13:54:43.971Z</time></trkpt><trkpt lat="43.036987" lon="12.7389625"><ele>608.0</ele><time>2026-04-24T13:54:44.983Z</time></trkpt><trkpt lat="43.0369154" lon="12.7390272"><ele>608.0</ele><time>2026-04-24T13:54:45.981Z</time></trkpt><trkpt lat="43.0368427" lon="12.7390751"><ele>608.0</ele><time>2026-04-24T13:54:46.996Z</time></trkpt><trkpt lat="43.0367662" lon="12.7391207"><ele>608.0</ele><time>2026-04-24T13:54:47.986Z</time></trkpt><trkpt lat="43.0367107" lon="12.7391924"><ele>608.0</ele><time>2026-04-24T13:54:48.983Z</time></trkpt><trkpt lat="43.0366661" lon="12.7392831"><ele>608.0</ele><time>2026-04-24T13:54:49.965Z</time></trkpt><trkpt lat="43.0366164" lon="12.7393837"><ele>609.0</ele><time>2026-04-24T13:54:50.979Z</time></trkpt><trkpt lat="43.0365669" lon="12.7394853"><ele>610.0</ele><time>2026-04-24T13:54:51.979Z</time></trkpt><trkpt lat="43.036552" lon="12.7395898"><ele>611.0</ele><time>2026-04-24T13:54:52.983Z</time></trkpt><trkpt lat="43.0365037" lon="12.7397378"><ele>612.0</ele><time>2026-04-24T13:54:54.974Z</time></trkpt><trkpt lat="43.0364066" lon="12.7397871"><ele>613.0</ele><time>2026-04-24T13:54:57.971Z</time></trkpt><trkpt lat="43.0363349" lon="12.7397866"><ele>613.0</ele><time>2026-04-24T13:54:58.975Z</time></trkpt><trkpt lat="43.0362528" lon="12.7397897"><ele>613.0</ele><time>2026-04-24T13:54:59.973Z</time></trkpt><trkpt lat="43.0361637" lon="12.7398032"><ele>613.0</ele><time>2026-04-24T13:55:00.979Z</time></trkpt><trkpt lat="43.0360783" lon="12.7398213"><ele>613.0</ele><time>2026-04-24T13:55:01.992Z</time></trkpt><trkpt lat="43.0359947" lon="12.7398274"><ele>613.0</ele><time>2026-04-24T13:55:02.982Z</time></trkpt><trkpt lat="43.0359049" lon="12.7398345"><ele>613.0</ele><time>2026-04-24T13:55:03.975Z</time></trkpt><trkpt lat="43.0358104" lon="12.7398378"><ele>613.3333333333334</ele><time>2026-04-24T13:55:04.983Z</time></trkpt><trkpt lat="43.0357131" lon="12.7398391"><ele>613.6666666666667</ele><time>2026-04-24T13:55:05.992Z</time></trkpt><trkpt lat="43.0356169" lon="12.7398459"><ele>614.0</ele><time>2026-04-24T13:55:06.977Z</time></trkpt><trkpt lat="43.0355263" lon="12.7398596"><ele>614.3333333333334</ele><time>2026-04-24T13:55:07.977Z</time></trkpt><trkpt lat="43.0354427" lon="12.7398748"><ele>614.6666666666666</ele><time>2026-04-24T13:55:08.983Z</time></trkpt><trkpt lat="43.0353697" lon="12.7398976"><ele>615.0</ele><time>2026-04-24T13:55:09.989Z</time></trkpt><trkpt lat="43.0352707" lon="12.7399066"><ele>615.0</ele><time>2026-04-24T13:55:11.975Z</time></trkpt><trkpt lat="43.0352399" lon="12.7398277"><ele>615.0</ele><time>2026-04-24T13:55:13.975Z</time></trkpt><trkpt lat="43.0352558" lon="12.7396636"><ele>615.0</ele><time>2026-04-24T13:55:15.975Z</time></trkpt><trkpt lat="43.0353031" lon="12.7395318"><ele>615.0</ele><time>2026-04-24T13:55:17.976Z</time></trkpt><trkpt lat="43.035344" lon="12.7394593"><ele>615.0</ele><time>2026-04-24T13:55:18.975Z</time></trkpt><trkpt lat="43.0353798" lon="12.7393727"><ele>615.0</ele><time>2026-04-24T13:55:19.972Z</time></trkpt><trkpt lat="43.035407" lon="12.7392751"><ele>615.1666666666666</ele><time>2026-04-24T13:55:20.979Z</time></trkpt><trkpt lat="43.0354296" lon="12.7391643"><ele>615.3333333333334</ele><time>2026-04-24T13:55:21.977Z</time></trkpt><trkpt lat="43.0354345" lon="12.7390492"><ele>615.5</ele><time>2026-04-24T13:55:22.968Z</time></trkpt><trkpt lat="43.0354282" lon="12.738935"><ele>615.6666666666667</ele><time>2026-04-24T13:55:23.981Z</time></trkpt><trkpt lat="43.0354111" lon="12.7388157"><ele>615.8333333333334</ele><time>2026-04-24T13:55:24.974Z</time></trkpt><trkpt lat="43.0353956" lon="12.7386863"><ele>616.0</ele><time>2026-04-24T13:55:25.97Z</time></trkpt><trkpt lat="43.0353834" lon="12.73857"><ele>617.0</ele><time>2026-04-24T13:55:26.976Z</time></trkpt><trkpt lat="43.0353579" lon="12.7384709"><ele>618.0</ele><time>2026-04-24T13:55:27.979Z</time></trkpt><trkpt lat="43.0353339" lon="12.7383664"><ele>619.0</ele><time>2026-04-24T13:55:28.975Z</time></trkpt><trkpt lat="43.0353082" lon="12.7382699"><ele>620.0</ele><time>2026-04-24T13:55:29.974Z</time></trkpt><trkpt lat="43.0352827" lon="12.7381661"><ele>621.0</ele><time>2026-04-24T13:55:30.973Z</time></trkpt><trkpt lat="43.0352665" lon="12.7380665"><ele>622.0</ele><time>2026-04-24T13:55:31.981Z</time></trkpt><trkpt lat="43.0352405" lon="12.7379631"><ele>622.0</ele><time>2026-04-24T13:55:32.976Z</time></trkpt><trkpt lat="43.0351951" lon="12.7378778"><ele>622.0</ele><time>2026-04-24T13:55:33.977Z</time></trkpt><trkpt lat="43.0351421" lon="12.7377968"><ele>622.0</ele><time>2026-04-24T13:55:34.977Z</time></trkpt><trkpt lat="43.0350849" lon="12.7377291"><ele>622.0</ele><time>2026-04-24T13:55:35.97Z</time></trkpt><trkpt lat="43.0350159" lon="12.7376838"><ele>622.0</ele><time>2026-04-24T13:55:36.975Z</time></trkpt><trkpt lat="43.034944" lon="12.7376392"><ele>622.0</ele><time>2026-04-24T13:55:37.966Z</time></trkpt><trkpt lat="43.0348775" lon="12.7375694"><ele>622.4</ele><time>2026-04-24T13:55:38.996Z</time></trkpt><trkpt lat="43.0348083" lon="12.7374944"><ele>622.8000000000001</ele><time>2026-04-24T13:55:39.971Z</time></trkpt><trkpt lat="43.034736" lon="12.7373965"><ele>623.2</ele><time>2026-04-24T13:55:40.977Z</time></trkpt><trkpt lat="43.034651" lon="12.7372807"><ele>623.6</ele><time>2026-04-24T13:55:41.975Z</time></trkpt><trkpt lat="43.0345585" lon="12.7371752"><ele>624.0</ele><time>2026-04-24T13:55:42.988Z</time></trkpt><trkpt lat="43.0344599" lon="12.7370881"><ele>620.0</ele><time>2026-04-24T13:55:43.975Z</time></trkpt><trkpt lat="43.0341093" lon="12.7369433"><ele>616.0</ele><time>2026-04-24T13:55:47.971Z</time></trkpt><trkpt lat="43.0340015" lon="12.7369132"><ele>620.75</ele><time>2026-04-24T13:55:48.974Z</time></trkpt><trkpt lat="43.0338699" lon="12.7368708"><ele>625.5</ele><time>2026-04-24T13:55:49.978Z</time></trkpt><trkpt lat="43.0337328" lon="12.7368209"><ele>630.25</ele><time>2026-04-24T13:55:50.97Z</time></trkpt><trkpt lat="43.0335938" lon="12.7367761"><ele>635.0</ele><time>2026-04-24T13:55:51.976Z</time></trkpt><trkpt lat="43.0334604" lon="12.7367381"><ele>635.0</ele><time>2026-04-24T13:55:52.974Z</time></trkpt><trkpt lat="43.0333423" lon="12.736692"><ele>635.0</ele><time>2026-04-24T13:55:53.983Z</time></trkpt><trkpt lat="43.0332448" lon="12.7366442"><ele>635.0</ele><time>2026-04-24T13:55:54.974Z</time></trkpt><trkpt lat="43.0331433" lon="12.7365805"><ele>635.0</ele><time>2026-04-24T13:55:55.971Z</time></trkpt><trkpt lat="43.033047" lon="12.7365213"><ele>635.0</ele><time>2026-04-24T13:55:56.97Z</time></trkpt><trkpt lat="43.0329694" lon="12.7364349"><ele>633.4</ele><time>2026-04-24T13:55:57.965Z</time></trkpt><trkpt lat="43.0328928" lon="12.7363398"><ele>631.8</ele><time>2026-04-24T13:55:58.965Z</time></trkpt><trkpt lat="43.0328232" lon="12.7362337"><ele>630.2</ele><time>2026-04-24T13:55:59.976Z</time></trkpt><trkpt lat="43.0327499" lon="12.736159"><ele>628.6</ele><time>2026-04-24T13:56:00.98Z</time></trkpt><trkpt lat="43.0326726" lon="12.7361299"><ele>627.0</ele><time>2026-04-24T13:56:01.981Z</time></trkpt><trkpt lat="43.0326023" lon="12.7361005"><ele>627.0</ele><time>2026-04-24T13:56:02.964Z</time></trkpt><trkpt lat="43.032516" lon="12.7360772"><ele>627.0</ele><time>2026-04-24T13:56:03.972Z</time></trkpt><trkpt lat="43.0324082" lon="12.7360799"><ele>627.0</ele><time>2026-04-24T13:56:04.975Z</time></trkpt><trkpt lat="43.0322956" lon="12.7360882"><ele>627.0</ele><time>2026-04-24T13:56:05.983Z</time></trkpt><trkpt lat="43.0321942" lon="12.7360792"><ele>627.0</ele><time>2026-04-24T13:56:06.977Z</time></trkpt><trkpt lat="43.0320988" lon="12.7360681"><ele>627.1666666666666</ele><time>2026-04-24T13:56:07.961Z</time></trkpt><trkpt lat="43.0320096" lon="12.7360538"><ele>627.3333333333334</ele><time>2026-04-24T13:56:08.995Z</time></trkpt><trkpt lat="43.0319207" lon="12.7360303"><ele>627.5</ele><time>2026-04-24T13:56:09.971Z</time></trkpt><trkpt lat="43.031844" lon="12.7360121"><ele>627.6666666666667</ele><time>2026-04-24T13:56:10.982Z</time></trkpt><trkpt lat="43.0317689" lon="12.7359849"><ele>627.8333333333334</ele><time>2026-04-24T13:56:11.974Z</time></trkpt><trkpt lat="43.0316858" lon="12.7359694"><ele>628.0</ele><time>2026-04-24T13:56:12.982Z</time></trkpt><trkpt lat="43.0315993" lon="12.7359547"><ele>628.0</ele><time>2026-04-24T13:56:13.98Z</time></trkpt><trkpt lat="43.0315138" lon="12.7359446"><ele>628.0</ele><time>2026-04-24T13:56:14.994Z</time></trkpt><trkpt lat="43.0314329" lon="12.7359378"><ele>628.0</ele><time>2026-04-24T13:56:16.003Z</time></trkpt><trkpt lat="43.031367" lon="12.735931"><ele>628.0</ele><time>2026-04-24T13:56:17Z</time></trkpt><trkpt lat="43.0312999" lon="12.7358882"><ele>628.0</ele><time>2026-04-24T13:56:18.975Z</time></trkpt><trkpt lat="43.0312665" lon="12.7357647"><ele>628.0</ele><time>2026-04-24T13:56:20.973Z</time></trkpt><trkpt lat="43.0312507" lon="12.7356659"><ele>628.0</ele><time>2026-04-24T13:56:21.961Z</time></trkpt><trkpt lat="43.0312414" lon="12.7355571"><ele>628.0</ele><time>2026-04-24T13:56:22.974Z</time></trkpt><trkpt lat="43.0312346" lon="12.7354513"><ele>628.0</ele><time>2026-04-24T13:56:23.969Z</time></trkpt><trkpt lat="43.0312368" lon="12.7353478"><ele>628.0</ele><time>2026-04-24T13:56:24.983Z</time></trkpt><trkpt lat="43.0312688" lon="12.7351849"><ele>628.0</ele><time>2026-04-24T13:56:26.979Z</time></trkpt><trkpt lat="43.0313566" lon="12.7351207"><ele>628.4</ele><time>2026-04-24T13:56:28.975Z</time></trkpt><trkpt lat="43.0314696" lon="12.7350712"><ele>628.8</ele><time>2026-04-24T13:56:30.968Z</time></trkpt><trkpt lat="43.031557" lon="12.7349965"><ele>629.2</ele><time>2026-04-24T13:56:32.983Z</time></trkpt><trkpt lat="43.0316467" lon="12.7349176"><ele>629.6</ele><time>2026-04-24T13:56:34.974Z</time></trkpt><trkpt lat="43.0317246" lon="12.7348367"><ele>630.0</ele><time>2026-04-24T13:56:36.997Z</time></trkpt><trkpt lat="43.0317731" lon="12.7347811"><ele>630.0</ele><time>2026-04-24T13:56:38.979Z</time></trkpt><trkpt lat="43.0317816" lon="12.7346951"><ele>630.0</ele><time>2026-04-24T13:56:41.976Z</time></trkpt><trkpt lat="43.031745" lon="12.7347728"><ele>630.0</ele><time>2026-04-24T13:56:45.968Z</time></trkpt><trkpt lat="43.0316916" lon="12.7348656"><ele>630.0</ele><time>2026-04-24T13:56:49.971Z</time></trkpt><trkpt lat="43.0316385" lon="12.7349266"><ele>630.0</ele><time>2026-04-24T13:56:51.981Z</time></trkpt><trkpt lat="43.0315438" lon="12.7349979"><ele>630.0</ele><time>2026-04-24T13:56:53.974Z</time></trkpt><trkpt lat="43.0314676" lon="12.7350748"><ele>630.0</ele><time>2026-04-24T13:56:55.994Z</time></trkpt><trkpt lat="43.0313914" lon="12.7351007"><ele>630.0</ele><time>2026-04-24T13:56:57.975Z</time></trkpt><trkpt lat="43.0313242" lon="12.7351187"><ele>630.0</ele><time>2026-04-24T13:56:59.977Z</time></trkpt><trkpt lat="43.0312704" lon="12.7351986"><ele>630.0</ele><time>2026-04-24T13:57:01.973Z</time></trkpt><trkpt lat="43.0312465" lon="12.7353236"><ele>630.0</ele><time>2026-04-24T13:57:03.985Z</time></trkpt><trkpt lat="43.0312538" lon="12.7354338"><ele>630.0</ele><time>2026-04-24T13:57:05.97Z</time></trkpt><trkpt lat="43.0312652" lon="12.7355507"><ele>629.6</ele><time>2026-04-24T13:57:07.984Z</time></trkpt><trkpt lat="43.0312843" lon="12.7357338"><ele>629.2</ele><time>2026-04-24T13:57:09.981Z</time></trkpt><trkpt lat="43.0312989" lon="12.7358618"><ele>628.8</ele><time>2026-04-24T13:57:11.969Z</time></trkpt><trkpt lat="43.0312452" lon="12.7359508"><ele>628.4</ele><time>2026-04-24T13:57:13.972Z</time></trkpt><trkpt lat="43.0311533" lon="12.7359618"><ele>628.0</ele><time>2026-04-24T13:57:15.966Z</time></trkpt><trkpt lat="43.0310674" lon="12.7358611"><ele>628.0</ele><time>2026-04-24T13:57:17.972Z</time></trkpt><trkpt lat="43.0310436" lon="12.7357371"><ele>628.0</ele><time>2026-04-24T13:57:19.972Z</time></trkpt><trkpt lat="43.0310358" lon="12.7356421"><ele>628.0</ele><time>2026-04-24T13:57:20.977Z</time></trkpt><trkpt lat="43.0310324" lon="12.7355182"><ele>628.0</ele><time>2026-04-24T13:57:21.975Z</time></trkpt><trkpt lat="43.0310244" lon="12.7353964"><ele>628.0</ele><time>2026-04-24T13:57:22.996Z</time></trkpt><trkpt lat="43.0310249" lon="12.7352697"><ele>628.0</ele><time>2026-04-24T13:57:23.969Z</time></trkpt><trkpt lat="43.0310284" lon="12.7351366"><ele>628.3333333333334</ele><time>2026-04-24T13:57:24.971Z</time></trkpt><trkpt lat="43.031037" lon="12.7350075"><ele>628.6666666666667</ele><time>2026-04-24T13:57:25.974Z</time></trkpt><trkpt lat="43.0310443" lon="12.734884"><ele>629.0</ele><time>2026-04-24T13:57:26.99Z</time></trkpt><trkpt lat="43.0310423" lon="12.7347587"><ele>629.3333333333334</ele><time>2026-04-24T13:57:27.971Z</time></trkpt><trkpt lat="43.031035" lon="12.7346411"><ele>629.6666666666666</ele><time>2026-04-24T13:57:28.993Z</time></trkpt><trkpt lat="43.0310184" lon="12.7345291"><ele>630.0</ele><time>2026-04-24T13:57:29.986Z</time></trkpt><trkpt lat="43.0309882" lon="12.7344159"><ele>630.2</ele><time>2026-04-24T13:57:30.981Z</time></trkpt><trkpt lat="43.0309218" lon="12.7342883"><ele>630.4</ele><time>2026-04-24T13:57:31.983Z</time></trkpt><trkpt lat="43.0308527" lon="12.7341656"><ele>630.6</ele><time>2026-04-24T13:57:32.988Z</time></trkpt><trkpt lat="43.0307933" lon="12.7340486"><ele>630.8</ele><time>2026-04-24T13:57:33.979Z</time></trkpt><trkpt lat="43.0307442" lon="12.7339245"><ele>631.0</ele><time>2026-04-24T13:57:34.987Z</time></trkpt><trkpt lat="43.0307123" lon="12.7337953"><ele>629.6</ele><time>2026-04-24T13:57:35.978Z</time></trkpt><trkpt lat="43.030685" lon="12.7336673"><ele>628.2</ele><time>2026-04-24T13:57:36.977Z</time></trkpt><trkpt lat="43.0306691" lon="12.7335292"><ele>626.8</ele><time>2026-04-24T13:57:37.985Z</time></trkpt><trkpt lat="43.0306631" lon="12.7333949"><ele>625.4</ele><time>2026-04-24T13:57:38.99Z</time></trkpt><trkpt lat="43.0306612" lon="12.7332664"><ele>624.0</ele><time>2026-04-24T13:57:39.981Z</time></trkpt><trkpt lat="43.0306366" lon="12.7331495"><ele>624.0</ele><time>2026-04-24T13:57:41.001Z</time></trkpt><trkpt lat="43.030587" lon="12.7330616"><ele>624.0</ele><time>2026-04-24T13:57:41.969Z</time></trkpt><trkpt lat="43.0305152" lon="12.7330086"><ele>624.0</ele><time>2026-04-24T13:57:42.986Z</time></trkpt><trkpt lat="43.0304382" lon="12.7329746"><ele>624.0</ele><time>2026-04-24T13:57:43.975Z</time></trkpt><trkpt lat="43.0303489" lon="12.7329508"><ele>624.0</ele><time>2026-04-24T13:57:44.991Z</time></trkpt><trkpt lat="43.0302638" lon="12.7329229"><ele>624.0</ele><time>2026-04-24T13:57:45.987Z</time></trkpt><trkpt lat="43.0301776" lon="12.7328936"><ele>624.0</ele><time>2026-04-24T13:57:46.978Z</time></trkpt><trkpt lat="43.0300924" lon="12.7328603"><ele>624.0</ele><time>2026-04-24T13:57:47.977Z</time></trkpt><trkpt lat="43.0300087" lon="12.7328189"><ele>624.0</ele><time>2026-04-24T13:57:48.982Z</time></trkpt><trkpt lat="43.0299419" lon="12.7327659"><ele>624.0</ele><time>2026-04-24T13:57:49.995Z</time></trkpt><trkpt lat="43.029891" lon="12.7326924"><ele>624.0</ele><time>2026-04-24T13:57:50.983Z</time></trkpt><trkpt lat="43.0298573" lon="12.7325991"><ele>624.0</ele><time>2026-04-24T13:57:51.972Z</time></trkpt><trkpt lat="43.029828" lon="12.7324936"><ele>626.25</ele><time>2026-04-24T13:57:52.986Z</time></trkpt><trkpt lat="43.0297915" lon="12.732362"><ele>628.5</ele><time>2026-04-24T13:57:53.989Z</time></trkpt><trkpt lat="43.0297409" lon="12.7322154"><ele>630.75</ele><time>2026-04-24T13:57:54.975Z</time></trkpt><trkpt lat="43.0296936" lon="12.7320651"><ele>633.0</ele><time>2026-04-24T13:57:55.976Z</time></trkpt><trkpt lat="43.0296542" lon="12.7319264"><ele>636.0</ele><time>2026-04-24T13:57:56.977Z</time></trkpt><trkpt lat="43.0296123" lon="12.731808"><ele>639.0</ele><time>2026-04-24T13:57:57.963Z</time></trkpt><trkpt lat="43.0295512" lon="12.7317164"><ele>642.0</ele><time>2026-04-24T13:57:58.986Z</time></trkpt><trkpt lat="43.0294747" lon="12.7316593"><ele>645.0</ele><time>2026-04-24T13:57:59.988Z</time></trkpt><trkpt lat="43.0293828" lon="12.731637"><ele>648.0</ele><time>2026-04-24T13:58:00.981Z</time></trkpt><trkpt lat="43.0292779" lon="12.7316256"><ele>648.0</ele><time>2026-04-24T13:58:01.981Z</time></trkpt><trkpt lat="43.0291732" lon="12.731615"><ele>648.0</ele><time>2026-04-24T13:58:02.984Z</time></trkpt><trkpt lat="43.029067" lon="12.7316028"><ele>648.0</ele><time>2026-04-24T13:58:03.975Z</time></trkpt><trkpt lat="43.0289638" lon="12.7315654"><ele>648.0</ele><time>2026-04-24T13:58:04.983Z</time></trkpt><trkpt lat="43.0288668" lon="12.7314939"><ele>648.0</ele><time>2026-04-24T13:58:05.977Z</time></trkpt><trkpt lat="43.0287757" lon="12.7314126"><ele>647.8</ele><time>2026-04-24T13:58:06.968Z</time></trkpt><trkpt lat="43.0286858" lon="12.7313303"><ele>647.5999999999999</ele><time>2026-04-24T13:58:07.98Z</time></trkpt><trkpt lat="43.0285966" lon="12.7312423"><ele>647.4000000000001</ele><time>2026-04-24T13:58:08.978Z</time></trkpt><trkpt lat="43.0285054" lon="12.7311579"><ele>647.2</ele><time>2026-04-24T13:58:09.991Z</time></trkpt><trkpt lat="43.0284217" lon="12.731079"><ele>647.0</ele><time>2026-04-24T13:58:10.989Z</time></trkpt><trkpt lat="43.02833" lon="12.7310064"><ele>646.6</ele><time>2026-04-24T13:58:11.982Z</time></trkpt><trkpt lat="43.0282429" lon="12.7309549"><ele>646.2</ele><time>2026-04-24T13:58:12.977Z</time></trkpt><trkpt lat="43.0281741" lon="12.730909"><ele>645.8</ele><time>2026-04-24T13:58:13.973Z</time></trkpt><trkpt lat="43.028108" lon="12.7308774"><ele>645.4</ele><time>2026-04-24T13:58:14.996Z</time></trkpt><trkpt lat="43.0280235" lon="12.7307415"><ele>645.0</ele><time>2026-04-24T13:58:16.978Z</time></trkpt><trkpt lat="43.0279818" lon="12.7306487"><ele>645.0</ele><time>2026-04-24T13:58:17.995Z</time></trkpt><trkpt lat="43.0279314" lon="12.7305417"><ele>645.0</ele><time>2026-04-24T13:58:18.983Z</time></trkpt><trkpt lat="43.0278744" lon="12.7304224"><ele>645.0</ele><time>2026-04-24T13:58:19.961Z</time></trkpt><trkpt lat="43.027814" lon="12.7303137"><ele>645.0</ele><time>2026-04-24T13:58:20.992Z</time></trkpt><trkpt lat="43.0277501" lon="12.7302179"><ele>645.0</ele><time>2026-04-24T13:58:21.999Z</time></trkpt><trkpt lat="43.0276917" lon="12.730139"><ele>646.6666666666666</ele><time>2026-04-24T13:58:22.974Z</time></trkpt><trkpt lat="43.0276434" lon="12.7300636"><ele>648.3333333333334</ele><time>2026-04-24T13:58:23.972Z</time></trkpt><trkpt lat="43.0276172" lon="12.7299587"><ele>650.0</ele><time>2026-04-24T13:58:25.997Z</time></trkpt><trkpt lat="43.0276811" lon="12.7299217"><ele>651.6666666666667</ele><time>2026-04-24T13:58:28.982Z</time></trkpt><trkpt lat="43.0277644" lon="12.7299829"><ele>653.3333333333334</ele><time>2026-04-24T13:58:30.977Z</time></trkpt><trkpt lat="43.0278198" lon="12.7300298"><ele>655.0</ele><time>2026-04-24T13:58:31.994Z</time></trkpt><trkpt lat="43.0278923" lon="12.7300776"><ele>655.0</ele><time>2026-04-24T13:58:32.955Z</time></trkpt><trkpt lat="43.0279778" lon="12.7301263"><ele>655.0</ele><time>2026-04-24T13:58:33.96Z</time></trkpt><trkpt lat="43.0280688" lon="12.7301802"><ele>655.0</ele><time>2026-04-24T13:58:34.984Z</time></trkpt><trkpt lat="43.0281665" lon="12.7302397"><ele>655.0</ele><time>2026-04-24T13:58:35.99Z</time></trkpt><trkpt lat="43.0282662" lon="12.7303002"><ele>655.0</ele><time>2026-04-24T13:58:36.994Z</time></trkpt><trkpt lat="43.0283689" lon="12.7303552"><ele>656.25</ele><time>2026-04-24T13:58:37.975Z</time></trkpt><trkpt lat="43.0284775" lon="12.7303918"><ele>657.5</ele><time>2026-04-24T13:58:38.988Z</time></trkpt><trkpt lat="43.0285897" lon="12.7304136"><ele>658.75</ele><time>2026-04-24T13:58:39.974Z</time></trkpt><trkpt lat="43.0287048" lon="12.7304259"><ele>660.0</ele><time>2026-04-24T13:58:40.989Z</time></trkpt><trkpt lat="43.0288171" lon="12.7304288"><ele>660.0</ele><time>2026-04-24T13:58:41.997Z</time></trkpt><trkpt lat="43.0289275" lon="12.7304151"><ele>660.0</ele><time>2026-04-24T13:58:42.979Z</time></trkpt><trkpt lat="43.0290357" lon="12.730393"><ele>660.0</ele><time>2026-04-24T13:58:43.995Z</time></trkpt><trkpt lat="43.0291407" lon="12.7303436"><ele>660.0</ele><time>2026-04-24T13:58:44.993Z</time></trkpt><trkpt lat="43.0292503" lon="12.7302768"><ele>665.75</ele><time>2026-04-24T13:58:45.987Z</time></trkpt><trkpt lat="43.0293672" lon="12.7302137"><ele>671.5</ele><time>2026-04-24T13:58:46.97Z</time></trkpt><trkpt lat="43.0294951" lon="12.7301765"><ele>677.25</ele><time>2026-04-24T13:58:47.975Z</time></trkpt><trkpt lat="43.0296263" lon="12.7301526"><ele>683.0</ele><time>2026-04-24T13:58:48.988Z</time></trkpt><trkpt lat="43.0297481" lon="12.7301251"><ele>683.0</ele><time>2026-04-24T13:58:49.992Z</time></trkpt><trkpt lat="43.0298663" lon="12.730079"><ele>683.0</ele><time>2026-04-24T13:58:50.989Z</time></trkpt><trkpt lat="43.0299912" lon="12.730027"><ele>683.0</ele><time>2026-04-24T13:58:51.992Z</time></trkpt><trkpt lat="43.0301201" lon="12.7299814"><ele>683.0</ele><time>2026-04-24T13:58:52.983Z</time></trkpt><trkpt lat="43.0302457" lon="12.7299521"><ele>683.0</ele><time>2026-04-24T13:58:53.976Z</time></trkpt><trkpt lat="43.0303685" lon="12.7299254"><ele>683.0</ele><time>2026-04-24T13:58:54.99Z</time></trkpt><trkpt lat="43.0304944" lon="12.7299144"><ele>683.0</ele><time>2026-04-24T13:58:55.975Z</time></trkpt><trkpt lat="43.0306184" lon="12.7299004"><ele>683.0</ele><time>2026-04-24T13:58:56.989Z</time></trkpt><trkpt lat="43.0307395" lon="12.7298881"><ele>685.0</ele><time>2026-04-24T13:58:57.97Z</time></trkpt><trkpt lat="43.0308583" lon="12.7298794"><ele>687.0</ele><time>2026-04-24T13:58:58.986Z</time></trkpt><trkpt lat="43.0309656" lon="12.729869"><ele>689.0</ele><time>2026-04-24T13:58:59.972Z</time></trkpt><trkpt lat="43.0310536" lon="12.7298531"><ele>691.0</ele><time>2026-04-24T13:59:00.982Z</time></trkpt><trkpt lat="43.0311277" lon="12.7298382"><ele>693.0</ele><time>2026-04-24T13:59:01.974Z</time></trkpt><trkpt lat="43.031193" lon="12.7298033"><ele>693.0</ele><time>2026-04-24T13:59:02.986Z</time></trkpt><trkpt lat="43.0312603" lon="12.7297573"><ele>693.0</ele><time>2026-04-24T13:59:03.97Z</time></trkpt><trkpt lat="43.0313289" lon="12.7297051"><ele>693.0</ele><time>2026-04-24T13:59:04.982Z</time></trkpt><trkpt lat="43.0314025" lon="12.7296469"><ele>693.0</ele><time>2026-04-24T13:59:05.987Z</time></trkpt><trkpt lat="43.0314939" lon="12.7295849"><ele>693.0</ele><time>2026-04-24T13:59:06.968Z</time></trkpt><trkpt lat="43.0315976" lon="12.7295335"><ele>694.75</ele><time>2026-04-24T13:59:07.978Z</time></trkpt><trkpt lat="43.0317014" lon="12.7294798"><ele>696.5</ele><time>2026-04-24T13:59:08.98Z</time></trkpt><trkpt lat="43.0318103" lon="12.729428"><ele>698.25</ele><time>2026-04-24T13:59:09.987Z</time></trkpt><trkpt lat="43.0319232" lon="12.7293924"><ele>700.0</ele><time>2026-04-24T13:59:10.982Z</time></trkpt><trkpt lat="43.0320431" lon="12.7293798"><ele>700.0</ele><time>2026-04-24T13:59:11.971Z</time></trkpt><trkpt lat="43.032162" lon="12.7293763"><ele>700.0</ele><time>2026-04-24T13:59:12.997Z</time></trkpt><trkpt lat="43.0322792" lon="12.729386"><ele>700.0</ele><time>2026-04-24T13:59:13.962Z</time></trkpt><trkpt lat="43.0323891" lon="12.7293995"><ele>700.0</ele><time>2026-04-24T13:59:14.987Z</time></trkpt><trkpt lat="43.0325028" lon="12.7294184"><ele>701.6</ele><time>2026-04-24T13:59:15.971Z</time></trkpt><trkpt lat="43.0326158" lon="12.7294521"><ele>703.2</ele><time>2026-04-24T13:59:16.972Z</time></trkpt><trkpt lat="43.0327263" lon="12.7294993"><ele>704.8</ele><time>2026-04-24T13:59:17.981Z</time></trkpt><trkpt lat="43.0328262" lon="12.7295513"><ele>706.4</ele><time>2026-04-24T13:59:19.002Z</time></trkpt><trkpt lat="43.0329105" lon="12.7295983"><ele>708.0</ele><time>2026-04-24T13:59:19.977Z</time></trkpt><trkpt lat="43.0329837" lon="12.7296336"><ele>708.0</ele><time>2026-04-24T13:59:20.988Z</time></trkpt><trkpt lat="43.0330493" lon="12.729665"><ele>708.0</ele><time>2026-04-24T13:59:21.979Z</time></trkpt><trkpt lat="43.0331347" lon="12.7297301"><ele>708.0</ele><time>2026-04-24T13:59:23.968Z</time></trkpt><trkpt lat="43.033179" lon="12.7297947"><ele>708.0</ele><time>2026-04-24T13:59:26.992Z</time></trkpt><trkpt lat="43.0332457" lon="12.7298578"><ele>708.0</ele><time>2026-04-24T13:59:40.996Z</time></trkpt><trkpt lat="43.0333068" lon="12.7299085"><ele>708.0</ele><time>2026-04-24T13:59:42Z</time></trkpt><trkpt lat="43.0333659" lon="12.729979"><ele>709.0</ele><time>2026-04-24T13:59:42.985Z</time></trkpt><trkpt lat="43.0334255" lon="12.7300622"><ele>710.0</ele><time>2026-04-24T13:59:43.965Z</time></trkpt><trkpt lat="43.0334877" lon="12.7301463"><ele>711.0</ele><time>2026-04-24T13:59:44.993Z</time></trkpt><trkpt lat="43.0335512" lon="12.7302296"><ele>712.0</ele><time>2026-04-24T13:59:45.989Z</time></trkpt><trkpt lat="43.0336219" lon="12.7302813"><ele>713.0</ele><time>2026-04-24T13:59:46.985Z</time></trkpt><trkpt lat="43.0336864" lon="12.730284"><ele>714.0</ele><time>2026-04-24T13:59:47.966Z</time></trkpt><trkpt lat="43.0337499" lon="12.7301935"><ele>717.3333333333334</ele><time>2026-04-24T13:59:49.965Z</time></trkpt><trkpt lat="43.0337175" lon="12.7297758"><ele>720.6666666666667</ele><time>2026-04-24T13:59:53.964Z</time></trkpt><trkpt lat="43.0336562" lon="12.7296619"><ele>724.0</ele><time>2026-04-24T13:59:54.98Z</time></trkpt><trkpt lat="43.0335897" lon="12.7295352"><ele>727.6666666666667</ele><time>2026-04-24T13:59:55.978Z</time></trkpt><trkpt lat="43.0335186" lon="12.7293712"><ele>731.3333333333334</ele><time>2026-04-24T13:59:56.97Z</time></trkpt><trkpt lat="43.0334373" lon="12.7291867"><ele>735.0</ele><time>2026-04-24T13:59:57.971Z</time></trkpt><trkpt lat="43.0333561" lon="12.7290078"><ele>734.0</ele><time>2026-04-24T13:59:58.98Z</time></trkpt><trkpt lat="43.0332526" lon="12.7288581"><ele>733.0</ele><time>2026-04-24T13:59:59.987Z</time></trkpt><trkpt lat="43.0331532" lon="12.7287387"><ele>732.0</ele><time>2026-04-24T14:00:00.969Z</time></trkpt><trkpt lat="43.0330607" lon="12.7286284"><ele>731.0</ele><time>2026-04-24T14:00:01.977Z</time></trkpt><trkpt lat="43.0329541" lon="12.7285697"><ele>735.5999999999999</ele><time>2026-04-24T14:00:02.972Z</time></trkpt><trkpt lat="43.0328441" lon="12.7285468"><ele>740.2</ele><time>2026-04-24T14:00:03.979Z</time></trkpt><trkpt lat="43.0327457" lon="12.7285289"><ele>744.8</ele><time>2026-04-24T14:00:04.981Z</time></trkpt><trkpt lat="43.0326537" lon="12.7285079"><ele>749.4000000000001</ele><time>2026-04-24T14:00:05.97Z</time></trkpt><trkpt lat="43.0325578" lon="12.7284754"><ele>754.0</ele><time>2026-04-24T14:00:06.967Z</time></trkpt><trkpt lat="43.0324611" lon="12.7284249"><ele>754.0</ele><time>2026-04-24T14:00:07.973Z</time></trkpt><trkpt lat="43.0323726" lon="12.7283566"><ele>754.0</ele><time>2026-04-24T14:00:08.981Z</time></trkpt><trkpt lat="43.032294" lon="12.7282738"><ele>754.0</ele><time>2026-04-24T14:00:09.988Z</time></trkpt><trkpt lat="43.0322373" lon="12.7282024"><ele>754.0</ele><time>2026-04-24T14:00:10.984Z</time></trkpt><trkpt lat="43.0321902" lon="12.7281301"><ele>754.0</ele><time>2026-04-24T14:00:11.982Z</time></trkpt><trkpt lat="43.0321515" lon="12.7280541"><ele>754.0</ele><time>2026-04-24T14:00:12.977Z</time></trkpt><trkpt lat="43.0321092" lon="12.7279748"><ele>754.0</ele><time>2026-04-24T14:00:13.981Z</time></trkpt><trkpt lat="43.0320477" lon="12.7278715"><ele>754.0</ele><time>2026-04-24T14:00:15.981Z</time></trkpt><trkpt lat="43.0319936" lon="12.727807"><ele>754.0</ele><time>2026-04-24T14:02:44.981Z</time></trkpt><trkpt lat="43.0318829" lon="12.7277275"><ele>754.0</ele><time>2026-04-24T14:02:46.987Z</time></trkpt><trkpt lat="43.0318107" lon="12.7276673"><ele>754.0</ele><time>2026-04-24T14:02:47.973Z</time></trkpt><trkpt lat="43.0317546" lon="12.7276034"><ele>756.5</ele><time>2026-04-24T14:02:48.967Z</time></trkpt><trkpt lat="43.0317379" lon="12.7275074"><ele>759.0</ele><time>2026-04-24T14:02:50.989Z</time></trkpt><trkpt lat="43.0317742" lon="12.7274031"><ele>761.5</ele><time>2026-04-24T14:02:52.977Z</time></trkpt><trkpt lat="43.0318213" lon="12.7272638"><ele>764.0</ele><time>2026-04-24T14:02:54.973Z</time></trkpt><trkpt lat="43.03183" lon="12.7271689"><ele>766.4999999999999</ele><time>2026-04-24T14:02:55.969Z</time></trkpt><trkpt lat="43.0318254" lon="12.7270801"><ele>769.0</ele><time>2026-04-24T14:02:56.974Z</time></trkpt><trkpt lat="43.0318068" lon="12.7269781"><ele>771.2</ele><time>2026-04-24T14:02:57.987Z</time></trkpt><trkpt lat="43.0317792" lon="12.7268439"><ele>773.4000000000001</ele><time>2026-04-24T14:02:58.974Z</time></trkpt><trkpt lat="43.0317644" lon="12.7267126"><ele>775.6</ele><time>2026-04-24T14:02:59.975Z</time></trkpt><trkpt lat="43.0317724" lon="12.7265812"><ele>777.8</ele><time>2026-04-24T14:03:00.975Z</time></trkpt><trkpt lat="43.0318082" lon="12.7264425"><ele>780.0</ele><time>2026-04-24T14:03:01.973Z</time></trkpt><trkpt lat="43.0318557" lon="12.7262917"><ele>780.0</ele><time>2026-04-24T14:03:02.977Z</time></trkpt><trkpt lat="43.0318971" lon="12.7261235"><ele>780.0</ele><time>2026-04-24T14:03:03.973Z</time></trkpt><trkpt lat="43.0319349" lon="12.7259469"><ele>780.0</ele><time>2026-04-24T14:03:04.985Z</time></trkpt><trkpt lat="43.0319677" lon="12.7257718"><ele>780.0</ele><time>2026-04-24T14:03:05.983Z</time></trkpt><trkpt lat="43.0319998" lon="12.7255888"><ele>779.75</ele><time>2026-04-24T14:03:06.976Z</time></trkpt><trkpt lat="43.0320143" lon="12.7254083"><ele>779.5</ele><time>2026-04-24T14:03:07.969Z</time></trkpt><trkpt lat="43.0320143" lon="12.7252405"><ele>779.25</ele><time>2026-04-24T14:03:08.98Z</time></trkpt><trkpt lat="43.0320052" lon="12.7250671"><ele>779.0</ele><time>2026-04-24T14:03:09.981Z</time></trkpt><trkpt lat="43.031998" lon="12.7249032"><ele>778.2</ele><time>2026-04-24T14:03:10.992Z</time></trkpt><trkpt lat="43.0320006" lon="12.7247765"><ele>777.4000000000001</ele><time>2026-04-24T14:03:11.974Z</time></trkpt><trkpt lat="43.032022" lon="12.7246779"><ele>776.6</ele><time>2026-04-24T14:03:12.972Z</time></trkpt><trkpt lat="43.0320737" lon="12.724585"><ele>775.8</ele><time>2026-04-24T14:03:13.969Z</time></trkpt><trkpt lat="43.0321485" lon="12.7244715"><ele>775.0</ele><time>2026-04-24T14:03:14.97Z</time></trkpt><trkpt lat="43.0322394" lon="12.7243504"><ele>774.5</ele><time>2026-04-24T14:03:15.97Z</time></trkpt><trkpt lat="43.0323349" lon="12.7242308"><ele>774.0</ele><time>2026-04-24T14:03:16.98Z</time></trkpt><trkpt lat="43.0324334" lon="12.7241035"><ele>773.5</ele><time>2026-04-24T14:03:17.981Z</time></trkpt><trkpt lat="43.0325253" lon="12.7239777"><ele>773.0</ele><time>2026-04-24T14:03:18.972Z</time></trkpt><trkpt lat="43.0326092" lon="12.7238397"><ele>773.0</ele><time>2026-04-24T14:03:19.96Z</time></trkpt><trkpt lat="43.0326892" lon="12.7236993"><ele>773.0</ele><time>2026-04-24T14:03:20.967Z</time></trkpt><trkpt lat="43.0327471" lon="12.7235677"><ele>773.0</ele><time>2026-04-24T14:03:21.985Z</time></trkpt><trkpt lat="43.0327808" lon="12.7234419"><ele>773.0</ele><time>2026-04-24T14:03:22.978Z</time></trkpt><trkpt lat="43.0327983" lon="12.7233227"><ele>773.0</ele><time>2026-04-24T14:03:23.962Z</time></trkpt><trkpt lat="43.0327863" lon="12.7232016"><ele>772.6666666666667</ele><time>2026-04-24T14:03:24.974Z</time></trkpt><trkpt lat="43.032748" lon="12.7230829"><ele>772.3333333333334</ele><time>2026-04-24T14:03:25.98Z</time></trkpt><trkpt lat="43.0326924" lon="12.7229855"><ele>772.0</ele><time>2026-04-24T14:03:26.976Z</time></trkpt><trkpt lat="43.0326411" lon="12.7229201"><ele>771.6666666666667</ele><time>2026-04-24T14:03:27.971Z</time></trkpt><trkpt lat="43.0325891" lon="12.7228313"><ele>771.3333333333334</ele><time>2026-04-24T14:03:29.975Z</time></trkpt><trkpt lat="43.0326506" lon="12.7227309"><ele>771.0</ele><time>2026-04-24T14:03:31.967Z</time></trkpt><trkpt lat="43.0327729" lon="12.7226894"><ele>769.1666666666666</ele><time>2026-04-24T14:03:33.964Z</time></trkpt><trkpt lat="43.0328526" lon="12.7226922"><ele>767.3333333333334</ele><time>2026-04-24T14:03:34.98Z</time></trkpt><trkpt lat="43.0329271" lon="12.722704"><ele>765.5</ele><time>2026-04-24T14:03:35.972Z</time></trkpt><trkpt lat="43.0329907" lon="12.7227108"><ele>763.6666666666667</ele><time>2026-04-24T14:03:36.979Z</time></trkpt><trkpt lat="43.033077" lon="12.7227076"><ele>761.8333333333334</ele><time>2026-04-24T14:03:38.976Z</time></trkpt><trkpt lat="43.0331611" lon="12.722629"><ele>760.0</ele><time>2026-04-24T14:03:41.969Z</time></trkpt><trkpt lat="43.0332096" lon="12.722503"><ele>760.0</ele><time>2026-04-24T14:03:44.987Z</time></trkpt><trkpt lat="43.0332344" lon="12.7224139"><ele>760.0</ele><time>2026-04-24T14:03:45.967Z</time></trkpt><trkpt lat="43.0332555" lon="12.7223039"><ele>760.0</ele><time>2026-04-24T14:03:46.978Z</time></trkpt><trkpt lat="43.0332782" lon="12.7221924"><ele>760.0</ele><time>2026-04-24T14:03:47.963Z</time></trkpt><trkpt lat="43.0333059" lon="12.7220689"><ele>760.0</ele><time>2026-04-24T14:03:48.974Z</time></trkpt><trkpt lat="43.0333414" lon="12.7219539"><ele>760.0</ele><time>2026-04-24T14:03:49.971Z</time></trkpt><trkpt lat="43.0333608" lon="12.7218312"><ele>759.4</ele><time>2026-04-24T14:03:50.977Z</time></trkpt><trkpt lat="43.0333574" lon="12.7216982"><ele>758.8</ele><time>2026-04-24T14:03:51.976Z</time></trkpt><trkpt lat="43.0333183" lon="12.7215763"><ele>758.2</ele><time>2026-04-24T14:03:52.977Z</time></trkpt><trkpt lat="43.0332605" lon="12.7214797"><ele>757.6</ele><time>2026-04-24T14:03:53.973Z</time></trkpt><trkpt lat="43.0331894" lon="12.7213975"><ele>757.0</ele><time>2026-04-24T14:03:54.978Z</time></trkpt><trkpt lat="43.0329772" lon="12.7210561"><ele>752.1666666666667</ele><time>2026-04-24T14:03:58.974Z</time></trkpt><trkpt lat="43.0329939" lon="12.720957"><ele>747.3333333333334</ele><time>2026-04-24T14:03:59.969Z</time></trkpt><trkpt lat="43.033027" lon="12.7208507"><ele>742.5</ele><time>2026-04-24T14:04:00.971Z</time></trkpt><trkpt lat="43.0330769" lon="12.7207534"><ele>737.6666666666666</ele><time>2026-04-24T14:04:01.962Z</time></trkpt><trkpt lat="43.0331302" lon="12.7206583"><ele>732.8333333333333</ele><time>2026-04-24T14:04:02.98Z</time></trkpt><trkpt lat="43.033202" lon="12.7205752"><ele>728.0</ele><time>2026-04-24T14:04:03.969Z</time></trkpt><trkpt lat="43.0332716" lon="12.7205121"><ele>731.1666666666666</ele><time>2026-04-24T14:04:04.974Z</time></trkpt><trkpt lat="43.0333509" lon="12.720455"><ele>734.3333333333333</ele><time>2026-04-24T14:04:05.972Z</time></trkpt><trkpt lat="43.0334299" lon="12.7204132"><ele>737.5</ele><time>2026-04-24T14:04:06.971Z</time></trkpt><trkpt lat="43.0335103" lon="12.7203868"><ele>740.6666666666666</ele><time>2026-04-24T14:04:07.97Z</time></trkpt><trkpt lat="43.0335916" lon="12.7203694"><ele>743.8333333333334</ele><time>2026-04-24T14:04:08.969Z</time></trkpt><trkpt lat="43.0336681" lon="12.7203627"><ele>747.0</ele><time>2026-04-24T14:04:09.976Z</time></trkpt><trkpt lat="43.0337516" lon="12.7203652"><ele>747.0</ele><time>2026-04-24T14:04:10.976Z</time></trkpt><trkpt lat="43.0338509" lon="12.7203794"><ele>747.0</ele><time>2026-04-24T14:04:11.979Z</time></trkpt><trkpt lat="43.0339574" lon="12.7204074"><ele>747.0</ele><time>2026-04-24T14:04:12.973Z</time></trkpt><trkpt lat="43.0340602" lon="12.720433"><ele>747.0</ele><time>2026-04-24T14:04:13.98Z</time></trkpt><trkpt lat="43.0341524" lon="12.7204598"><ele>747.0</ele><time>2026-04-24T14:04:14.981Z</time></trkpt><trkpt lat="43.0342388" lon="12.7204819"><ele>746.3333333333334</ele><time>2026-04-24T14:04:15.976Z</time></trkpt><trkpt lat="43.0343209" lon="12.7205093"><ele>745.6666666666666</ele><time>2026-04-24T14:04:16.965Z</time></trkpt><trkpt lat="43.0343946" lon="12.7205434"><ele>745.0</ele><time>2026-04-24T14:04:17.986Z</time></trkpt><trkpt lat="43.0344647" lon="12.7205674"><ele>744.3333333333333</ele><time>2026-04-24T14:04:18.974Z</time></trkpt><trkpt lat="43.0345688" lon="12.7205814"><ele>743.6666666666666</ele><time>2026-04-24T14:04:20.978Z</time></trkpt><trkpt lat="43.0346037" lon="12.7204852"><ele>743.0</ele><time>2026-04-24T14:04:23.974Z</time></trkpt><trkpt lat="43.0345403" lon="12.7204316"><ele>743.0</ele><time>2026-04-24T14:04:25.971Z</time></trkpt><trkpt lat="43.0344668" lon="12.7203849"><ele>743.0</ele><time>2026-04-24T14:04:26.971Z</time></trkpt><trkpt lat="43.034366" lon="12.7203189"><ele>743.0</ele><time>2026-04-24T14:04:27.959Z</time></trkpt><trkpt lat="43.0342621" lon="12.7202423"><ele>743.0</ele><time>2026-04-24T14:04:28.989Z</time></trkpt><trkpt lat="43.0341701" lon="12.7201732"><ele>743.0</ele><time>2026-04-24T14:04:29.98Z</time></trkpt><trkpt lat="43.0340853" lon="12.7201063"><ele>739.2</ele><time>2026-04-24T14:04:30.975Z</time></trkpt><trkpt lat="43.0339887" lon="12.7200387"><ele>735.4</ele><time>2026-04-24T14:04:31.969Z</time></trkpt><trkpt lat="43.0338874" lon="12.7199795"><ele>731.6</ele><time>2026-04-24T14:04:32.978Z</time></trkpt><trkpt lat="43.0337935" lon="12.7199236"><ele>727.8000000000001</ele><time>2026-04-24T14:04:33.977Z</time></trkpt><trkpt lat="43.0336964" lon="12.7198663"><ele>724.0</ele><time>2026-04-24T14:04:34.976Z</time></trkpt><trkpt lat="43.0336157" lon="12.7198099"><ele>724.0</ele><time>2026-04-24T14:04:35.974Z</time></trkpt><trkpt lat="43.0335358" lon="12.7197569"><ele>724.0</ele><time>2026-04-24T14:04:36.966Z</time></trkpt><trkpt lat="43.0334512" lon="12.7197201"><ele>724.0</ele><time>2026-04-24T14:04:37.97Z</time></trkpt><trkpt lat="43.0333642" lon="12.7197078"><ele>724.0</ele><time>2026-04-24T14:04:38.968Z</time></trkpt><trkpt lat="43.0332689" lon="12.719704"><ele>724.0</ele><time>2026-04-24T14:04:39.972Z</time></trkpt><trkpt lat="43.0331655" lon="12.7197194"><ele>720.25</ele><time>2026-04-24T14:04:40.977Z</time></trkpt><trkpt lat="43.0330595" lon="12.7197517"><ele>716.5</ele><time>2026-04-24T14:04:41.967Z</time></trkpt><trkpt lat="43.0329425" lon="12.719807"><ele>712.75</ele><time>2026-04-24T14:04:42.97Z</time></trkpt><trkpt lat="43.032832" lon="12.7198619"><ele>709.0</ele><time>2026-04-24T14:04:43.969Z</time></trkpt><trkpt lat="43.0327227" lon="12.7199194"><ele>709.0</ele><time>2026-04-24T14:04:44.974Z</time></trkpt><trkpt lat="43.0326177" lon="12.7199753"><ele>709.0</ele><time>2026-04-24T14:04:45.965Z</time></trkpt><trkpt lat="43.0325203" lon="12.720017"><ele>709.0</ele><time>2026-04-24T14:04:46.972Z</time></trkpt><trkpt lat="43.0324368" lon="12.7200615"><ele>709.0</ele><time>2026-04-24T14:04:47.984Z</time></trkpt><trkpt lat="43.0323621" lon="12.7201059"><ele>709.0</ele><time>2026-04-24T14:04:48.967Z</time></trkpt><trkpt lat="43.0322922" lon="12.7201338"><ele>704.2</ele><time>2026-04-24T14:04:49.971Z</time></trkpt><trkpt lat="43.0322103" lon="12.7201603"><ele>699.4000000000001</ele><time>2026-04-24T14:04:51.978Z</time></trkpt><trkpt lat="43.0321912" lon="12.7200754"><ele>694.6</ele><time>2026-04-24T14:04:54.964Z</time></trkpt><trkpt lat="43.0322431" lon="12.7199681"><ele>689.8</ele><time>2026-04-24T14:04:56.972Z</time></trkpt><trkpt lat="43.0323187" lon="12.7198792"><ele>685.0</ele><time>2026-04-24T14:04:57.961Z</time></trkpt><trkpt lat="43.0324082" lon="12.7197806"><ele>683.8</ele><time>2026-04-24T14:04:58.972Z</time></trkpt><trkpt lat="43.0324944" lon="12.7196837"><ele>682.6</ele><time>2026-04-24T14:04:59.97Z</time></trkpt><trkpt lat="43.0325634" lon="12.7195968"><ele>681.4000000000001</ele><time>2026-04-24T14:05:00.981Z</time></trkpt><trkpt lat="43.0326447" lon="12.7195183"><ele>680.2</ele><time>2026-04-24T14:05:01.97Z</time></trkpt><trkpt lat="43.0327291" lon="12.7194283"><ele>679.0</ele><time>2026-04-24T14:05:02.979Z</time></trkpt><trkpt lat="43.0328104" lon="12.7193408"><ele>679.0</ele><time>2026-04-24T14:05:03.974Z</time></trkpt><trkpt lat="43.0329004" lon="12.719263"><ele>679.0</ele><time>2026-04-24T14:05:04.968Z</time></trkpt><trkpt lat="43.0329838" lon="12.7191912"><ele>679.0</ele><time>2026-04-24T14:05:05.968Z</time></trkpt><trkpt lat="43.0330652" lon="12.719131"><ele>679.0</ele><time>2026-04-24T14:05:06.966Z</time></trkpt><trkpt lat="43.0331535" lon="12.7190756"><ele>679.0</ele><time>2026-04-24T14:05:07.978Z</time></trkpt><trkpt lat="43.0332416" lon="12.7190227"><ele>682.2</ele><time>2026-04-24T14:05:08.974Z</time></trkpt><trkpt lat="43.0333435" lon="12.7189735"><ele>685.4000000000001</ele><time>2026-04-24T14:05:09.959Z</time></trkpt><trkpt lat="43.0334393" lon="12.7189375"><ele>688.6</ele><time>2026-04-24T14:05:10.963Z</time></trkpt><trkpt lat="43.0335437" lon="12.7189117"><ele>691.8</ele><time>2026-04-24T14:05:11.963Z</time></trkpt><trkpt lat="43.033629" lon="12.7189213"><ele>695.0</ele><time>2026-04-24T14:05:12.974Z</time></trkpt><trkpt lat="43.0337177" lon="12.7189497"><ele>695.0</ele><time>2026-04-24T14:05:13.967Z</time></trkpt><trkpt lat="43.0338027" lon="12.7189715"><ele>695.0</ele><time>2026-04-24T14:05:14.975Z</time></trkpt><trkpt lat="43.0338885" lon="12.7189942"><ele>695.0</ele><time>2026-04-24T14:05:15.964Z</time></trkpt><trkpt lat="43.0339586" lon="12.7190106"><ele>695.0</ele><time>2026-04-24T14:05:16.979Z</time></trkpt><trkpt lat="43.0340591" lon="12.7190072"><ele>695.0</ele><time>2026-04-24T14:05:18.965Z</time></trkpt><trkpt lat="43.0340802" lon="12.7188994"><ele>695.0</ele><time>2026-04-24T14:05:20.993Z</time></trkpt><trkpt lat="43.0339589" lon="12.7188306"><ele>695.0</ele><time>2026-04-24T14:05:22.966Z</time></trkpt><trkpt lat="43.0338827" lon="12.7187693"><ele>695.0</ele><time>2026-04-24T14:05:23.962Z</time></trkpt><trkpt lat="43.0338052" lon="12.7187167"><ele>695.0</ele><time>2026-04-24T14:05:24.974Z</time></trkpt><trkpt lat="43.0337244" lon="12.7186331"><ele>695.0</ele><time>2026-04-24T14:05:25.967Z</time></trkpt><trkpt lat="43.0336413" lon="12.7185431"><ele>695.0</ele><time>2026-04-24T14:05:26.967Z</time></trkpt><trkpt lat="43.0335582" lon="12.7184711"><ele>688.4</ele><time>2026-04-24T14:05:27.966Z</time></trkpt><trkpt lat="43.0334604" lon="12.7184279"><ele>681.8</ele><time>2026-04-24T14:05:28.972Z</time></trkpt><trkpt lat="43.0333621" lon="12.7184086"><ele>675.2</ele><time>2026-04-24T14:05:29.96Z</time></trkpt><trkpt lat="43.0332689" lon="12.7183932"><ele>668.6</ele><time>2026-04-24T14:05:30.968Z</time></trkpt><trkpt lat="43.0331769" lon="12.7183802"><ele>662.0</ele><time>2026-04-24T14:05:31.969Z</time></trkpt><trkpt lat="43.0330832" lon="12.7183918"><ele>658.6</ele><time>2026-04-24T14:05:32.967Z</time></trkpt><trkpt lat="43.0329885" lon="12.7183982"><ele>655.2</ele><time>2026-04-24T14:05:33.96Z</time></trkpt><trkpt lat="43.032896" lon="12.7184055"><ele>651.8</ele><time>2026-04-24T14:05:34.97Z</time></trkpt><trkpt lat="43.0328072" lon="12.71842"><ele>648.4</ele><time>2026-04-24T14:05:35.974Z</time></trkpt><trkpt lat="43.0327202" lon="12.7184466"><ele>645.0</ele><time>2026-04-24T14:05:36.966Z</time></trkpt><trkpt lat="43.0326325" lon="12.7184905"><ele>645.0</ele><time>2026-04-24T14:05:37.963Z</time></trkpt><trkpt lat="43.0325548" lon="12.7185449"><ele>645.0</ele><time>2026-04-24T14:05:38.965Z</time></trkpt><trkpt lat="43.0324844" lon="12.7186209"><ele>645.0</ele><time>2026-04-24T14:05:39.974Z</time></trkpt><trkpt lat="43.0324233" lon="12.7186957"><ele>645.0</ele><time>2026-04-24T14:05:40.971Z</time></trkpt><trkpt lat="43.0323587" lon="12.7187617"><ele>645.0</ele><time>2026-04-24T14:05:41.964Z</time></trkpt><trkpt lat="43.0323019" lon="12.7188122"><ele>645.0</ele><time>2026-04-24T14:05:42.968Z</time></trkpt><trkpt lat="43.0322272" lon="12.7188289"><ele>645.0</ele><time>2026-04-24T14:05:44.972Z</time></trkpt><trkpt lat="43.0322187" lon="12.7187336"><ele>645.0</ele><time>2026-04-24T14:05:46.974Z</time></trkpt><trkpt lat="43.032301" lon="12.7185945"><ele>645.0</ele><time>2026-04-24T14:05:48.965Z</time></trkpt><trkpt lat="43.0323593" lon="12.7185183"><ele>645.0</ele><time>2026-04-24T14:05:49.962Z</time></trkpt><trkpt lat="43.032409" lon="12.7184451"><ele>645.0</ele><time>2026-04-24T14:05:50.965Z</time></trkpt><trkpt lat="43.0324679" lon="12.7183716"><ele>645.0</ele><time>2026-04-24T14:05:51.966Z</time></trkpt><trkpt lat="43.0325371" lon="12.7182965"><ele>645.0</ele><time>2026-04-24T14:05:52.966Z</time></trkpt><trkpt lat="43.0326289" lon="12.71822"><ele>645.0</ele><time>2026-04-24T14:05:53.966Z</time></trkpt><trkpt lat="43.0327181" lon="12.7181546"><ele>645.0</ele><time>2026-04-24T14:05:54.971Z</time></trkpt><trkpt lat="43.0328128" lon="12.718091"><ele>645.0</ele><time>2026-04-24T14:05:55.965Z</time></trkpt><trkpt lat="43.0329064" lon="12.7180291"><ele>645.0</ele><time>2026-04-24T14:05:56.966Z</time></trkpt><trkpt lat="43.0330113" lon="12.7179608"><ele>645.0</ele><time>2026-04-24T14:05:57.971Z</time></trkpt><trkpt lat="43.0331071" lon="12.7178878"><ele>645.0</ele><time>2026-04-24T14:05:58.968Z</time></trkpt><trkpt lat="43.0332061" lon="12.7178031"><ele>645.0</ele><time>2026-04-24T14:05:59.971Z</time></trkpt><trkpt lat="43.0333046" lon="12.7177002"><ele>645.0</ele><time>2026-04-24T14:06:00.972Z</time></trkpt><trkpt lat="43.0333838" lon="12.717571"><ele>643.0</ele><time>2026-04-24T14:06:01.965Z</time></trkpt><trkpt lat="43.0334546" lon="12.7174521"><ele>641.0</ele><time>2026-04-24T14:06:02.976Z</time></trkpt><trkpt lat="43.0335201" lon="12.7173392"><ele>639.0</ele><time>2026-04-24T14:06:03.967Z</time></trkpt><trkpt lat="43.033586" lon="12.7172485"><ele>637.0</ele><time>2026-04-24T14:06:04.975Z</time></trkpt><trkpt lat="43.0336546" lon="12.7171788"><ele>635.0</ele><time>2026-04-24T14:06:05.968Z</time></trkpt><trkpt lat="43.0337178" lon="12.7171337"><ele>635.0</ele><time>2026-04-24T14:06:06.968Z</time></trkpt><trkpt lat="43.0337963" lon="12.7170916"><ele>635.0</ele><time>2026-04-24T14:06:07.969Z</time></trkpt><trkpt lat="43.0338866" lon="12.7170433"><ele>635.0</ele><time>2026-04-24T14:06:08.978Z</time></trkpt><trkpt lat="43.0339827" lon="12.7169958"><ele>635.0</ele><time>2026-04-24T14:06:09.966Z</time></trkpt><trkpt lat="43.0340759" lon="12.7169549"><ele>635.0</ele><time>2026-04-24T14:06:10.971Z</time></trkpt><trkpt lat="43.0341584" lon="12.7169144"><ele>636.0</ele><time>2026-04-24T14:06:11.976Z</time></trkpt><trkpt lat="43.0342415" lon="12.7168873"><ele>637.0</ele><time>2026-04-24T14:06:12.976Z</time></trkpt><trkpt lat="43.0343263" lon="12.7168919"><ele>638.0</ele><time>2026-04-24T14:06:13.974Z</time></trkpt><trkpt lat="43.0343964" lon="12.7169133"><ele>639.0</ele><time>2026-04-24T14:06:14.975Z</time></trkpt><trkpt lat="43.0344568" lon="12.7169454"><ele>640.0</ele><time>2026-04-24T14:06:15.974Z</time></trkpt><trkpt lat="43.0345197" lon="12.7170625"><ele>641.0</ele><time>2026-04-24T14:06:17.962Z</time></trkpt><trkpt lat="43.0345661" lon="12.7171869"><ele>641.0</ele><time>2026-04-24T14:06:19.962Z</time></trkpt><trkpt lat="43.0346621" lon="12.7171859"><ele>641.0</ele><time>2026-04-24T14:06:21.974Z</time></trkpt><trkpt lat="43.0347198" lon="12.7171312"><ele>641.0</ele><time>2026-04-24T14:06:22.964Z</time></trkpt><trkpt lat="43.034793" lon="12.7170543"><ele>641.0</ele><time>2026-04-24T14:06:23.963Z</time></trkpt><trkpt lat="43.0348729" lon="12.7169688"><ele>641.0</ele><time>2026-04-24T14:06:24.964Z</time></trkpt><trkpt lat="43.0349475" lon="12.716881"><ele>635.6666666666666</ele><time>2026-04-24T14:06:25.97Z</time></trkpt><trkpt lat="43.0350058" lon="12.7167881"><ele>630.3333333333333</ele><time>2026-04-24T14:06:26.98Z</time></trkpt><trkpt lat="43.0350349" lon="12.7166979"><ele>625.0</ele><time>2026-04-24T14:06:27.972Z</time></trkpt><trkpt lat="43.0350621" lon="12.7166153"><ele>619.6666666666666</ele><time>2026-04-24T14:06:28.969Z</time></trkpt><trkpt lat="43.0351383" lon="12.7165087"><ele>614.3333333333334</ele><time>2026-04-24T14:06:30.972Z</time></trkpt><trkpt lat="43.0352045" lon="12.7164922"><ele>609.0</ele><time>2026-04-24T14:06:31.969Z</time></trkpt><trkpt lat="43.035285" lon="12.7165078"><ele>609.0</ele><time>2026-04-24T14:06:32.964Z</time></trkpt><trkpt lat="43.0353759" lon="12.7165193"><ele>609.0</ele><time>2026-04-24T14:06:33.964Z</time></trkpt><trkpt lat="43.0354572" lon="12.7165456"><ele>609.0</ele><time>2026-04-24T14:06:34.973Z</time></trkpt><trkpt lat="43.0355337" lon="12.7165658"><ele>609.0</ele><time>2026-04-24T14:06:35.967Z</time></trkpt><trkpt lat="43.0356022" lon="12.7165825"><ele>609.0</ele><time>2026-04-24T14:06:36.977Z</time></trkpt><trkpt lat="43.0356632" lon="12.7166193"><ele>609.0</ele><time>2026-04-24T14:06:37.964Z</time></trkpt><trkpt lat="43.0357194" lon="12.7166706"><ele>609.0</ele><time>2026-04-24T14:06:38.979Z</time></trkpt><trkpt lat="43.0357681" lon="12.7167401"><ele>609.0</ele><time>2026-04-24T14:06:39.973Z</time></trkpt><trkpt lat="43.0358114" lon="12.7168195"><ele>609.0</ele><time>2026-04-24T14:06:40.984Z</time></trkpt><trkpt lat="43.0358542" lon="12.7169091"><ele>609.0</ele><time>2026-04-24T14:06:41.973Z</time></trkpt><trkpt lat="43.0358931" lon="12.717003"><ele>609.0</ele><time>2026-04-24T14:06:42.973Z</time></trkpt><trkpt lat="43.0359248" lon="12.7170939"><ele>609.0</ele><time>2026-04-24T14:06:43.964Z</time></trkpt><trkpt lat="43.0359437" lon="12.7171889"><ele>609.0</ele><time>2026-04-24T14:06:44.978Z</time></trkpt><trkpt lat="43.0359575" lon="12.7172805"><ele>609.6666666666666</ele><time>2026-04-24T14:06:45.975Z</time></trkpt><trkpt lat="43.036001" lon="12.7173906"><ele>610.3333333333334</ele><time>2026-04-24T14:06:47.964Z</time></trkpt><trkpt lat="43.0360687" lon="12.7174018"><ele>611.0</ele><time>2026-04-24T14:06:48.962Z</time></trkpt><trkpt lat="43.0361462" lon="12.7173878"><ele>611.6666666666667</ele><time>2026-04-24T14:06:49.973Z</time></trkpt><trkpt lat="43.0362239" lon="12.7173506"><ele>612.3333333333334</ele><time>2026-04-24T14:06:50.968Z</time></trkpt><trkpt lat="43.0363088" lon="12.7173101"><ele>613.0</ele><time>2026-04-24T14:06:51.976Z</time></trkpt><trkpt lat="43.036379" lon="12.7172717"><ele>613.0</ele><time>2026-04-24T14:06:52.973Z</time></trkpt><trkpt lat="43.0364417" lon="12.7172452"><ele>613.0</ele><time>2026-04-24T14:06:53.969Z</time></trkpt><trkpt lat="43.0365559" lon="12.7172431"><ele>613.0</ele><time>2026-04-24T14:06:55.963Z</time></trkpt><trkpt lat="43.0366682" lon="12.7173022"><ele>613.0</ele><time>2026-04-24T14:06:57.963Z</time></trkpt><trkpt lat="43.0367362" lon="12.7173236"><ele>613.0</ele><time>2026-04-24T14:06:58.965Z</time></trkpt><trkpt lat="43.0368397" lon="12.7172584"><ele>611.3333333333334</ele><time>2026-04-24T14:07:00.977Z</time></trkpt><trkpt lat="43.0368898" lon="12.7171003"><ele>609.6666666666667</ele><time>2026-04-24T14:07:02.974Z</time></trkpt><trkpt lat="43.0369269" lon="12.7169921"><ele>608.0</ele><time>2026-04-24T14:07:03.977Z</time></trkpt><trkpt lat="43.0369612" lon="12.7169072"><ele>606.3333333333334</ele><time>2026-04-24T14:07:04.972Z</time></trkpt><trkpt lat="43.0369948" lon="12.7168234"><ele>604.6666666666666</ele><time>2026-04-24T14:07:05.96Z</time></trkpt><trkpt lat="43.0370352" lon="12.7167323"><ele>603.0</ele><time>2026-04-24T14:07:06.968Z</time></trkpt><trkpt lat="43.0370834" lon="12.7166368"><ele>600.8</ele><time>2026-04-24T14:07:07.973Z</time></trkpt><trkpt lat="43.0371308" lon="12.7165362"><ele>598.5999999999999</ele><time>2026-04-24T14:07:08.969Z</time></trkpt><trkpt lat="43.0371898" lon="12.7164313"><ele>596.4000000000001</ele><time>2026-04-24T14:07:09.967Z</time></trkpt><trkpt lat="43.0372593" lon="12.7163254"><ele>594.2</ele><time>2026-04-24T14:07:10.967Z</time></trkpt><trkpt lat="43.0373284" lon="12.7162242"><ele>592.0</ele><time>2026-04-24T14:07:11.961Z</time></trkpt><trkpt lat="43.0373928" lon="12.7161307"><ele>593.0</ele><time>2026-04-24T14:07:12.97Z</time></trkpt><trkpt lat="43.0374518" lon="12.7160447"><ele>594.0</ele><time>2026-04-24T14:07:13.966Z</time></trkpt><trkpt lat="43.0375075" lon="12.7159597"><ele>595.0</ele><time>2026-04-24T14:07:14.97Z</time></trkpt><trkpt lat="43.0375673" lon="12.7158774"><ele>596.0</ele><time>2026-04-24T14:07:15.964Z</time></trkpt><trkpt lat="43.0376263" lon="12.7158035"><ele>597.0</ele><time>2026-04-24T14:07:16.968Z</time></trkpt><trkpt lat="43.0376831" lon="12.7157428"><ele>598.0</ele><time>2026-04-24T14:07:17.979Z</time></trkpt><trkpt lat="43.0377406" lon="12.7156867"><ele>598.0</ele><time>2026-04-24T14:07:18.97Z</time></trkpt><trkpt lat="43.0377924" lon="12.7156269"><ele>598.0</ele><time>2026-04-24T14:07:19.977Z</time></trkpt><trkpt lat="43.037825" lon="12.7155489"><ele>598.0</ele><time>2026-04-24T14:07:20.973Z</time></trkpt><trkpt lat="43.0378271" lon="12.7154251"><ele>598.0</ele><time>2026-04-24T14:07:22.971Z</time></trkpt><trkpt lat="43.0378096" lon="12.7153252"><ele>598.0</ele><time>2026-04-24T14:07:24.97Z</time></trkpt><trkpt lat="43.037913" lon="12.7152866"><ele>598.0</ele><time>2026-04-24T14:07:27.975Z</time></trkpt><trkpt lat="43.0380393" lon="12.7152747"><ele>598.0</ele><time>2026-04-24T14:07:29.97Z</time></trkpt><trkpt lat="43.0381129" lon="12.7152678"><ele>598.0</ele><time>2026-04-24T14:07:30.969Z</time></trkpt><trkpt lat="43.0381865" lon="12.7152549"><ele>598.0</ele><time>2026-04-24T14:07:31.958Z</time></trkpt><trkpt lat="43.038294" lon="12.7151979"><ele>598.0</ele><time>2026-04-24T14:07:33.966Z</time></trkpt><trkpt lat="43.038345" lon="12.7151275"><ele>598.0</ele><time>2026-04-24T14:07:34.973Z</time></trkpt><trkpt lat="43.0383965" lon="12.7150392"><ele>598.0</ele><time>2026-04-24T14:07:35.96Z</time></trkpt><trkpt lat="43.0384517" lon="12.7149487"><ele>602.0</ele><time>2026-04-24T14:07:36.977Z</time></trkpt><trkpt lat="43.0385156" lon="12.7148533"><ele>606.0</ele><time>2026-04-24T14:07:37.975Z</time></trkpt><trkpt lat="43.0385892" lon="12.7147641"><ele>610.0</ele><time>2026-04-24T14:07:38.967Z</time></trkpt><trkpt lat="43.0386871" lon="12.7146755"><ele>614.0</ele><time>2026-04-24T14:07:39.97Z</time></trkpt><trkpt lat="43.0387992" lon="12.7145922"><ele>618.0</ele><time>2026-04-24T14:07:40.972Z</time></trkpt><trkpt lat="43.0388948" lon="12.7144835"><ele>621.8</ele><time>2026-04-24T14:07:41.96Z</time></trkpt><trkpt lat="43.0389369" lon="12.7143533"><ele>625.5999999999999</ele><time>2026-04-24T14:07:42.968Z</time></trkpt><trkpt lat="43.0389469" lon="12.7142192"><ele>629.4000000000001</ele><time>2026-04-24T14:07:43.959Z</time></trkpt><trkpt lat="43.0389279" lon="12.7140809"><ele>633.2</ele><time>2026-04-24T14:07:44.97Z</time></trkpt><trkpt lat="43.0388948" lon="12.7139094"><ele>637.0</ele><time>2026-04-24T14:07:45.963Z</time></trkpt><trkpt lat="43.0388691" lon="12.7137229"><ele>637.75</ele><time>2026-04-24T14:07:46.971Z</time></trkpt><trkpt lat="43.0388768" lon="12.7135324"><ele>638.5</ele><time>2026-04-24T14:07:47.967Z</time></trkpt><trkpt lat="43.0388909" lon="12.7133712"><ele>639.25</ele><time>2026-04-24T14:07:48.969Z</time></trkpt><trkpt lat="43.0388946" lon="12.7132293"><ele>640.0</ele><time>2026-04-24T14:07:49.965Z</time></trkpt><trkpt lat="43.038893" lon="12.7130998"><ele>640.0</ele><time>2026-04-24T14:07:50.952Z</time></trkpt><trkpt lat="43.0388719" lon="12.7129578"><ele>640.0</ele><time>2026-04-24T14:07:51.973Z</time></trkpt><trkpt lat="43.038811" lon="12.7128463"><ele>640.0</ele><time>2026-04-24T14:07:52.967Z</time></trkpt><trkpt lat="43.0387469" lon="12.7127441"><ele>640.0</ele><time>2026-04-24T14:07:53.964Z</time></trkpt><trkpt lat="43.0387035" lon="12.7126392"><ele>640.0</ele><time>2026-04-24T14:07:54.965Z</time></trkpt><trkpt lat="43.0387145" lon="12.7125356"><ele>639.8</ele><time>2026-04-24T14:07:55.965Z</time></trkpt><trkpt lat="43.0387671" lon="12.7124494"><ele>639.6</ele><time>2026-04-24T14:07:56.975Z</time></trkpt><trkpt lat="43.0388263" lon="12.7123788"><ele>639.4</ele><time>2026-04-24T14:07:57.961Z</time></trkpt><trkpt lat="43.0388773" lon="12.7123024"><ele>639.2</ele><time>2026-04-24T14:07:58.965Z</time></trkpt><trkpt lat="43.0389756" lon="12.712069"><ele>639.0</ele><time>2026-04-24T14:08:02.971Z</time></trkpt><trkpt lat="43.0388599" lon="12.7119811"><ele>639.0</ele><time>2026-04-24T14:08:04.961Z</time></trkpt><trkpt lat="43.038764" lon="12.7119665"><ele>639.0</ele><time>2026-04-24T14:08:05.963Z</time></trkpt><trkpt lat="43.0386464" lon="12.7119423"><ele>639.0</ele><time>2026-04-24T14:08:06.965Z</time></trkpt><trkpt lat="43.038511" lon="12.7119312"><ele>639.0</ele><time>2026-04-24T14:08:07.961Z</time></trkpt><trkpt lat="43.0383567" lon="12.7119363"><ele>636.6666666666666</ele><time>2026-04-24T14:08:08.967Z</time></trkpt><trkpt lat="43.0381923" lon="12.7119423"><ele>634.3333333333333</ele><time>2026-04-24T14:08:09.971Z</time></trkpt><trkpt lat="43.03804" lon="12.7119329"><ele>632.0</ele><time>2026-04-24T14:08:10.97Z</time></trkpt><trkpt lat="43.0378979" lon="12.7119115"><ele>632.25</ele><time>2026-04-24T14:08:11.966Z</time></trkpt><trkpt lat="43.0377687" lon="12.711879"><ele>632.5</ele><time>2026-04-24T14:08:12.96Z</time></trkpt><trkpt lat="43.0376505" lon="12.7118163"><ele>632.75</ele><time>2026-04-24T14:08:13.962Z</time></trkpt><trkpt lat="43.0375406" lon="12.7117157"><ele>633.0</ele><time>2026-04-24T14:08:14.965Z</time></trkpt><trkpt lat="43.037457" lon="12.7115619"><ele>633.0</ele><time>2026-04-24T14:08:15.957Z</time></trkpt><trkpt lat="43.0373827" lon="12.7113935"><ele>633.0</ele><time>2026-04-24T14:08:16.966Z</time></trkpt><trkpt lat="43.0373161" lon="12.7112268"><ele>633.0</ele><time>2026-04-24T14:08:17.964Z</time></trkpt><trkpt lat="43.037264" lon="12.7110521"><ele>633.0</ele><time>2026-04-24T14:08:18.956Z</time></trkpt><trkpt lat="43.037241" lon="12.7108836"><ele>637.5</ele><time>2026-04-24T14:08:19.96Z</time></trkpt><trkpt lat="43.0372399" lon="12.7107263"><ele>642.0</ele><time>2026-04-24T14:08:20.962Z</time></trkpt><trkpt lat="43.0372195" lon="12.7106045"><ele>646.5</ele><time>2026-04-24T14:08:21.964Z</time></trkpt><trkpt lat="43.0371753" lon="12.7105392"><ele>651.0</ele><time>2026-04-24T14:08:22.964Z</time></trkpt><trkpt lat="43.037112" lon="12.7105634"><ele>655.5</ele><time>2026-04-24T14:08:23.966Z</time></trkpt><trkpt lat="43.0370493" lon="12.7106403"><ele>660.0</ele><time>2026-04-24T14:08:24.959Z</time></trkpt><trkpt lat="43.0369851" lon="12.7107522"><ele>660.0</ele><time>2026-04-24T14:08:25.967Z</time></trkpt><trkpt lat="43.0368867" lon="12.7108721"><ele>660.0</ele><time>2026-04-24T14:08:26.972Z</time></trkpt><trkpt lat="43.0367537" lon="12.7109986"><ele>660.0</ele><time>2026-04-24T14:08:27.963Z</time></trkpt><trkpt lat="43.036615" lon="12.7111117"><ele>652.75</ele><time>2026-04-24T14:08:28.964Z</time></trkpt><trkpt lat="43.0364771" lon="12.7111966"><ele>645.5</ele><time>2026-04-24T14:08:29.963Z</time></trkpt><trkpt lat="43.0363396" lon="12.7112419"><ele>638.25</ele><time>2026-04-24T14:08:30.968Z</time></trkpt><trkpt lat="43.0362106" lon="12.7112589"><ele>631.0</ele><time>2026-04-24T14:08:31.969Z</time></trkpt><trkpt lat="43.0360681" lon="12.7112412"><ele>631.0</ele><time>2026-04-24T14:08:32.972Z</time></trkpt><trkpt lat="43.0359114" lon="12.7111804"><ele>631.0</ele><time>2026-04-24T14:08:33.963Z</time></trkpt><trkpt lat="43.0357511" lon="12.7111176"><ele>631.0</ele><time>2026-04-24T14:08:34.971Z</time></trkpt><trkpt lat="43.0355831" lon="12.7110499"><ele>630.75</ele><time>2026-04-24T14:08:35.968Z</time></trkpt><trkpt lat="43.0354416" lon="12.710959"><ele>630.5</ele><time>2026-04-24T14:08:36.976Z</time></trkpt><trkpt lat="43.0353455" lon="12.7108698"><ele>630.25</ele><time>2026-04-24T14:08:37.963Z</time></trkpt><trkpt lat="43.0352916" lon="12.7107462"><ele>630.0</ele><time>2026-04-24T14:08:38.966Z</time></trkpt><trkpt lat="43.0352835" lon="12.7105911"><ele>630.0</ele><time>2026-04-24T14:08:39.989Z</time></trkpt><trkpt lat="43.0352828" lon="12.7104346"><ele>630.0</ele><time>2026-04-24T14:08:40.965Z</time></trkpt><trkpt lat="43.0352329" lon="12.7102727"><ele>630.0</ele><time>2026-04-24T14:08:41.959Z</time></trkpt><trkpt lat="43.0351448" lon="12.7101514"><ele>630.0</ele><time>2026-04-24T14:08:42.967Z</time></trkpt><trkpt lat="43.0350367" lon="12.7101136"><ele>634.75</ele><time>2026-04-24T14:08:43.961Z</time></trkpt><trkpt lat="43.03492" lon="12.7101264"><ele>639.5</ele><time>2026-04-24T14:08:44.958Z</time></trkpt><trkpt lat="43.0347998" lon="12.7101354"><ele>644.25</ele><time>2026-04-24T14:08:45.959Z</time></trkpt><trkpt lat="43.0346747" lon="12.7101518"><ele>649.0</ele><time>2026-04-24T14:08:46.971Z</time></trkpt><trkpt lat="43.034508" lon="12.7101247"><ele>649.0</ele><time>2026-04-24T14:08:47.974Z</time></trkpt><trkpt lat="43.0343183" lon="12.7100518"><ele>649.0</ele><time>2026-04-24T14:08:48.968Z</time></trkpt><trkpt lat="43.0341357" lon="12.7099601"><ele>649.0</ele><time>2026-04-24T14:08:49.969Z</time></trkpt><trkpt lat="43.0339691" lon="12.7098917"><ele>646.0</ele><time>2026-04-24T14:08:50.959Z</time></trkpt><trkpt lat="43.0337977" lon="12.7098453"><ele>643.0</ele><time>2026-04-24T14:08:51.966Z</time></trkpt><trkpt lat="43.0336237" lon="12.7097738"><ele>640.0</ele><time>2026-04-24T14:08:52.973Z</time></trkpt><trkpt lat="43.0334341" lon="12.7096862"><ele>636.6666666666667</ele><time>2026-04-24T14:08:53.969Z</time></trkpt><trkpt lat="43.0332427" lon="12.709599"><ele>633.3333333333334</ele><time>2026-04-24T14:08:54.975Z</time></trkpt><trkpt lat="43.0330509" lon="12.7095206"><ele>630.0</ele><time>2026-04-24T14:08:55.959Z</time></trkpt><trkpt lat="43.0328622" lon="12.7094577"><ele>636.6666666666666</ele><time>2026-04-24T14:08:56.965Z</time></trkpt><trkpt lat="43.0326712" lon="12.7093966"><ele>643.3333333333333</ele><time>2026-04-24T14:08:57.965Z</time></trkpt><trkpt lat="43.0324881" lon="12.7093323"><ele>650.0</ele><time>2026-04-24T14:08:58.973Z</time></trkpt><trkpt lat="43.0323082" lon="12.7092587"><ele>650.0</ele><time>2026-04-24T14:08:59.96Z</time></trkpt><trkpt lat="43.0321232" lon="12.7091759"><ele>650.0</ele><time>2026-04-24T14:09:00.969Z</time></trkpt><trkpt lat="43.0319393" lon="12.7090837"><ele>650.0</ele><time>2026-04-24T14:09:01.962Z</time></trkpt><trkpt lat="43.0317542" lon="12.7089905"><ele>645.3333333333333</ele><time>2026-04-24T14:09:02.973Z</time></trkpt><trkpt lat="43.0315791" lon="12.7089004"><ele>640.6666666666666</ele><time>2026-04-24T14:09:03.97Z</time></trkpt><trkpt lat="43.031411" lon="12.7088112"><ele>636.0</ele><time>2026-04-24T14:09:04.961Z</time></trkpt><trkpt lat="43.0312406" lon="12.7087264"><ele>636.0</ele><time>2026-04-24T14:09:05.961Z</time></trkpt><trkpt lat="43.0310752" lon="12.7086475"><ele>636.0</ele><time>2026-04-24T14:09:06.966Z</time></trkpt><trkpt lat="43.0309199" lon="12.7085696"><ele>636.0</ele><time>2026-04-24T14:09:07.967Z</time></trkpt><trkpt lat="43.0307705" lon="12.7084989"><ele>638.0</ele><time>2026-04-24T14:09:08.97Z</time></trkpt><trkpt lat="43.0306341" lon="12.708424"><ele>640.0</ele><time>2026-04-24T14:09:09.97Z</time></trkpt><trkpt lat="43.0305038" lon="12.7083446"><ele>642.0</ele><time>2026-04-24T14:09:10.973Z</time></trkpt><trkpt lat="43.0303781" lon="12.7082433"><ele>644.0</ele><time>2026-04-24T14:09:11.955Z</time></trkpt><trkpt lat="43.0302658" lon="12.708115"><ele>644.0</ele><time>2026-04-24T14:09:12.976Z</time></trkpt><trkpt lat="43.030146" lon="12.7079862"><ele>644.0</ele><time>2026-04-24T14:09:13.96Z</time></trkpt><trkpt lat="43.0300127" lon="12.7078675"><ele>644.0</ele><time>2026-04-24T14:09:14.963Z</time></trkpt><trkpt lat="43.0298682" lon="12.707764"><ele>648.0</ele><time>2026-04-24T14:09:15.959Z</time></trkpt><trkpt lat="43.029715" lon="12.7076559"><ele>652.0</ele><time>2026-04-24T14:09:16.984Z</time></trkpt><trkpt lat="43.0295584" lon="12.7075358"><ele>656.0</ele><time>2026-04-24T14:09:17.972Z</time></trkpt><trkpt lat="43.0294054" lon="12.7074214"><ele>656.0</ele><time>2026-04-24T14:09:18.966Z</time></trkpt><trkpt lat="43.0292548" lon="12.7073082"><ele>656.0</ele><time>2026-04-24T14:09:19.965Z</time></trkpt><trkpt lat="43.0291096" lon="12.7071937"><ele>656.0</ele><time>2026-04-24T14:09:20.972Z</time></trkpt><trkpt lat="43.0289614" lon="12.7070906"><ele>659.0</ele><time>2026-04-24T14:09:21.966Z</time></trkpt><trkpt lat="43.0288055" lon="12.7069929"><ele>662.0</ele><time>2026-04-24T14:09:22.965Z</time></trkpt><trkpt lat="43.0286431" lon="12.7069028"><ele>665.0</ele><time>2026-04-24T14:09:23.96Z</time></trkpt><trkpt lat="43.0284906" lon="12.7068253"><ele>665.0</ele><time>2026-04-24T14:09:24.969Z</time></trkpt><trkpt lat="43.0283377" lon="12.7067573"><ele>665.0</ele><time>2026-04-24T14:09:25.961Z</time></trkpt><trkpt lat="43.0281877" lon="12.7066806"><ele>665.0</ele><time>2026-04-24T14:09:26.96Z</time></trkpt><trkpt lat="43.028044" lon="12.7065985"><ele>656.0</ele><time>2026-04-24T14:09:27.959Z</time></trkpt><trkpt lat="43.0279053" lon="12.7064906"><ele>647.0</ele><time>2026-04-24T14:09:28.968Z</time></trkpt><trkpt lat="43.0277786" lon="12.7063609"><ele>638.0</ele><time>2026-04-24T14:09:29.97Z</time></trkpt><trkpt lat="43.0276516" lon="12.7062328"><ele>638.0</ele><time>2026-04-24T14:09:30.971Z</time></trkpt><trkpt lat="43.0275019" lon="12.7061589"><ele>638.0</ele><time>2026-04-24T14:09:31.969Z</time></trkpt><trkpt lat="43.0273413" lon="12.7061386"><ele>638.0</ele><time>2026-04-24T14:09:32.962Z</time></trkpt><trkpt lat="43.0271828" lon="12.7061334"><ele>633.75</ele><time>2026-04-24T14:09:33.963Z</time></trkpt><trkpt lat="43.0270482" lon="12.7061261"><ele>629.5</ele><time>2026-04-24T14:09:34.957Z</time></trkpt><trkpt lat="43.0269283" lon="12.7060723"><ele>625.25</ele><time>2026-04-24T14:09:35.972Z</time></trkpt><trkpt lat="43.0268135" lon="12.7059898"><ele>621.0</ele><time>2026-04-24T14:09:36.969Z</time></trkpt><trkpt lat="43.0266821" lon="12.7059315"><ele>630.25</ele><time>2026-04-24T14:09:37.965Z</time></trkpt><trkpt lat="43.0265371" lon="12.7059066"><ele>639.5</ele><time>2026-04-24T14:09:38.963Z</time></trkpt><trkpt lat="43.0263987" lon="12.7059384"><ele>648.75</ele><time>2026-04-24T14:09:39.961Z</time></trkpt><trkpt lat="43.0262638" lon="12.7059986"><ele>658.0</ele><time>2026-04-24T14:09:40.965Z</time></trkpt><trkpt lat="43.0261297" lon="12.7060574"><ele>647.0</ele><time>2026-04-24T14:09:41.962Z</time></trkpt><trkpt lat="43.0259933" lon="12.7061011"><ele>636.0</ele><time>2026-04-24T14:09:42.972Z</time></trkpt><trkpt lat="43.0258558" lon="12.7061301"><ele>625.0</ele><time>2026-04-24T14:09:43.977Z</time></trkpt><trkpt lat="43.0257073" lon="12.7061248"><ele>614.0</ele><time>2026-04-24T14:09:44.968Z</time></trkpt><trkpt lat="43.0255492" lon="12.7061113"><ele>609.6666666666666</ele><time>2026-04-24T14:09:45.966Z</time></trkpt><trkpt lat="43.0253877" lon="12.7060864"><ele>605.3333333333334</ele><time>2026-04-24T14:09:46.958Z</time></trkpt><trkpt lat="43.0252332" lon="12.7060564"><ele>601.0</ele><time>2026-04-24T14:09:47.968Z</time></trkpt><trkpt lat="43.0250816" lon="12.7060177"><ele>603.75</ele><time>2026-04-24T14:09:48.96Z</time></trkpt><trkpt lat="43.0249387" lon="12.7059754"><ele>606.5</ele><time>2026-04-24T14:09:49.972Z</time></trkpt><trkpt lat="43.0248044" lon="12.7059279"><ele>609.25</ele><time>2026-04-24T14:09:50.98Z</time></trkpt><trkpt lat="43.0246806" lon="12.7058783"><ele>612.0</ele><time>2026-04-24T14:09:51.975Z</time></trkpt><trkpt lat="43.0245698" lon="12.7058241"><ele>612.0</ele><time>2026-04-24T14:09:52.971Z</time></trkpt><trkpt lat="43.0244735" lon="12.7057558"><ele>612.0</ele><time>2026-04-24T14:09:53.968Z</time></trkpt><trkpt lat="43.0243929" lon="12.7056466"><ele>612.0</ele><time>2026-04-24T14:09:54.976Z</time></trkpt><trkpt lat="43.0243345" lon="12.7055015"><ele>612.0</ele><time>2026-04-24T14:09:55.965Z</time></trkpt><trkpt lat="43.0242771" lon="12.7053252"><ele>616.25</ele><time>2026-04-24T14:09:56.967Z</time></trkpt><trkpt lat="43.02422" lon="12.7051328"><ele>620.5</ele><time>2026-04-24T14:09:57.959Z</time></trkpt><trkpt lat="43.0241654" lon="12.7049363"><ele>624.75</ele><time>2026-04-24T14:09:58.965Z</time></trkpt><trkpt lat="43.0241155" lon="12.7047526"><ele>629.0</ele><time>2026-04-24T14:09:59.958Z</time></trkpt><trkpt lat="43.0240636" lon="12.7045889"><ele>618.5</ele><time>2026-04-24T14:10:00.966Z</time></trkpt><trkpt lat="43.0240121" lon="12.7044249"><ele>608.0</ele><time>2026-04-24T14:10:01.974Z</time></trkpt><trkpt lat="43.023972" lon="12.7042527"><ele>597.5</ele><time>2026-04-24T14:10:02.976Z</time></trkpt><trkpt lat="43.0239462" lon="12.7040709"><ele>587.0</ele><time>2026-04-24T14:10:03.954Z</time></trkpt><trkpt lat="43.0239237" lon="12.7038911"><ele>587.0</ele><time>2026-04-24T14:10:04.974Z</time></trkpt><trkpt lat="43.0239009" lon="12.7037061"><ele>587.0</ele><time>2026-04-24T14:10:05.972Z</time></trkpt><trkpt lat="43.0238788" lon="12.7035127"><ele>587.0</ele><time>2026-04-24T14:10:06.97Z</time></trkpt><trkpt lat="43.023854" lon="12.7033206"><ele>587.0</ele><time>2026-04-24T14:10:07.967Z</time></trkpt><trkpt lat="43.023826" lon="12.7031327"><ele>587.5</ele><time>2026-04-24T14:10:08.965Z</time></trkpt><trkpt lat="43.0238094" lon="12.7029466"><ele>588.0</ele><time>2026-04-24T14:10:09.969Z</time></trkpt><trkpt lat="43.0238065" lon="12.70277"><ele>588.5</ele><time>2026-04-24T14:10:10.969Z</time></trkpt><trkpt lat="43.0238007" lon="12.7026005"><ele>589.0</ele><time>2026-04-24T14:10:11.96Z</time></trkpt><trkpt lat="43.0237877" lon="12.702424"><ele>591.6666666666667</ele><time>2026-04-24T14:10:12.971Z</time></trkpt><trkpt lat="43.0237646" lon="12.7022281"><ele>594.3333333333334</ele><time>2026-04-24T14:10:13.962Z</time></trkpt><trkpt lat="43.0237276" lon="12.7020204"><ele>597.0</ele><time>2026-04-24T14:10:14.968Z</time></trkpt><trkpt lat="43.0236961" lon="12.7018181"><ele>600.5</ele><time>2026-04-24T14:10:15.96Z</time></trkpt><trkpt lat="43.0236675" lon="12.7016242"><ele>604.0</ele><time>2026-04-24T14:10:16.956Z</time></trkpt><trkpt lat="43.0236254" lon="12.7014575"><ele>607.5</ele><time>2026-04-24T14:10:17.968Z</time></trkpt><trkpt lat="43.0235921" lon="12.7013089"><ele>611.0</ele><time>2026-04-24T14:10:18.963Z</time></trkpt><trkpt lat="43.0235614" lon="12.7011909"><ele>611.0</ele><time>2026-04-24T14:10:19.966Z</time></trkpt><trkpt lat="43.0234479" lon="12.7011287"><ele>611.0</ele><time>2026-04-24T14:10:21.959Z</time></trkpt><trkpt lat="43.0233714" lon="12.7011812"><ele>611.0</ele><time>2026-04-24T14:10:22.974Z</time></trkpt><trkpt lat="43.0232925" lon="12.7012626"><ele>611.0</ele><time>2026-04-24T14:10:23.963Z</time></trkpt><trkpt lat="43.0232388" lon="12.7013973"><ele>611.0</ele><time>2026-04-24T14:10:24.972Z</time></trkpt><trkpt lat="43.0231911" lon="12.7015476"><ele>608.0</ele><time>2026-04-24T14:10:25.97Z</time></trkpt><trkpt lat="43.023132" lon="12.7016797"><ele>605.0</ele><time>2026-04-24T14:10:26.958Z</time></trkpt><trkpt lat="43.023057" lon="12.7017975"><ele>602.0</ele><time>2026-04-24T14:10:27.966Z</time></trkpt><trkpt lat="43.0229558" lon="12.701915"><ele>599.0</ele><time>2026-04-24T14:10:28.964Z</time></trkpt><trkpt lat="43.0228523" lon="12.7020283"><ele>599.0</ele><time>2026-04-24T14:10:29.973Z</time></trkpt><trkpt lat="43.0227443" lon="12.7021475"><ele>599.0</ele><time>2026-04-24T14:10:30.964Z</time></trkpt><trkpt lat="43.0226316" lon="12.702256"><ele>599.0</ele><time>2026-04-24T14:10:31.961Z</time></trkpt><trkpt lat="43.0225151" lon="12.702365"><ele>599.0</ele><time>2026-04-24T14:10:32.967Z</time></trkpt><trkpt lat="43.0224014" lon="12.7024654"><ele>598.6</ele><time>2026-04-24T14:10:33.965Z</time></trkpt><trkpt lat="43.0222977" lon="12.7025616"><ele>598.2</ele><time>2026-04-24T14:10:34.961Z</time></trkpt><trkpt lat="43.0221931" lon="12.7026499"><ele>597.8000000000001</ele><time>2026-04-24T14:10:35.969Z</time></trkpt><trkpt lat="43.0221069" lon="12.7027248"><ele>597.4</ele><time>2026-04-24T14:10:36.966Z</time></trkpt><trkpt lat="43.0220214" lon="12.7027934"><ele>597.0</ele><time>2026-04-24T14:10:37.967Z</time></trkpt><trkpt lat="43.0219488" lon="12.7028507"><ele>597.0</ele><time>2026-04-24T14:10:38.97Z</time></trkpt><trkpt lat="43.0218966" lon="12.7029007"><ele>597.0</ele><time>2026-04-24T14:10:39.957Z</time></trkpt><trkpt lat="43.0218201" lon="12.7028999"><ele>597.0</ele><time>2026-04-24T14:10:42.97Z</time></trkpt><trkpt lat="43.0218439" lon="12.7028067"><ele>597.0</ele><time>2026-04-24T14:10:45.964Z</time></trkpt><trkpt lat="43.0219431" lon="12.7026901"><ele>597.0</ele><time>2026-04-24T14:10:47.975Z</time></trkpt><trkpt lat="43.0220029" lon="12.7026179"><ele>597.0</ele><time>2026-04-24T14:10:48.967Z</time></trkpt><trkpt lat="43.0220715" lon="12.7025323"><ele>597.0</ele><time>2026-04-24T14:10:49.978Z</time></trkpt><trkpt lat="43.0221537" lon="12.7024297"><ele>597.0</ele><time>2026-04-24T14:10:50.977Z</time></trkpt><trkpt lat="43.0222408" lon="12.7023172"><ele>597.0</ele><time>2026-04-24T14:10:51.966Z</time></trkpt><trkpt lat="43.0223369" lon="12.702196"><ele>597.0</ele><time>2026-04-24T14:10:52.962Z</time></trkpt><trkpt lat="43.0224358" lon="12.7020718"><ele>597.5</ele><time>2026-04-24T14:10:53.963Z</time></trkpt><trkpt lat="43.0225425" lon="12.7019382"><ele>598.0</ele><time>2026-04-24T14:10:54.976Z</time></trkpt><trkpt lat="43.0226474" lon="12.7018092"><ele>598.5</ele><time>2026-04-24T14:10:55.968Z</time></trkpt><trkpt lat="43.0227424" lon="12.7016946"><ele>599.0</ele><time>2026-04-24T14:10:56.968Z</time></trkpt><trkpt lat="43.022822" lon="12.7015994"><ele>605.25</ele><time>2026-04-24T14:10:57.975Z</time></trkpt><trkpt lat="43.0228922" lon="12.7015109"><ele>611.5</ele><time>2026-04-24T14:10:58.966Z</time></trkpt><trkpt lat="43.0229196" lon="12.7013768"><ele>617.75</ele><time>2026-04-24T14:11:00.962Z</time></trkpt><trkpt lat="43.0227701" lon="12.7013672"><ele>624.0</ele><time>2026-04-24T14:11:02.979Z</time></trkpt><trkpt lat="43.0226708" lon="12.7014188"><ele>624.0</ele><time>2026-04-24T14:11:03.958Z</time></trkpt><trkpt lat="43.0225569" lon="12.7014508"><ele>624.0</ele><time>2026-04-24T14:11:04.966Z</time></trkpt><trkpt lat="43.0224503" lon="12.701485"><ele>624.0</ele><time>2026-04-24T14:11:05.962Z</time></trkpt><trkpt lat="43.0223585" lon="12.7015084"><ele>624.0</ele><time>2026-04-24T14:11:06.967Z</time></trkpt><trkpt lat="43.0222698" lon="12.7014927"><ele>624.0</ele><time>2026-04-24T14:11:07.969Z</time></trkpt><trkpt lat="43.0221707" lon="12.7014269"><ele>622.6</ele><time>2026-04-24T14:11:08.97Z</time></trkpt><trkpt lat="43.0220932" lon="12.7013338"><ele>621.2</ele><time>2026-04-24T14:11:09.976Z</time></trkpt><trkpt lat="43.0220374" lon="12.7012171"><ele>619.8000000000001</ele><time>2026-04-24T14:11:10.971Z</time></trkpt><trkpt lat="43.0220612" lon="12.7011305"><ele>618.4</ele><time>2026-04-24T14:11:11.965Z</time></trkpt><trkpt lat="43.0221923" lon="12.7010303"><ele>617.0</ele><time>2026-04-24T14:11:13.973Z</time></trkpt><trkpt lat="43.0222907" lon="12.7009929"><ele>617.0</ele><time>2026-04-24T14:11:14.973Z</time></trkpt><trkpt lat="43.0223952" lon="12.7009718"><ele>617.0</ele><time>2026-04-24T14:11:15.966Z</time></trkpt><trkpt lat="43.0225077" lon="12.700957"><ele>617.0</ele><time>2026-04-24T14:11:16.967Z</time></trkpt><trkpt lat="43.0226144" lon="12.7009363"><ele>617.0</ele><time>2026-04-24T14:11:17.96Z</time></trkpt><trkpt lat="43.0226929" lon="12.7009123"><ele>617.0</ele><time>2026-04-24T14:11:18.966Z</time></trkpt><trkpt lat="43.0227314" lon="12.7008364"><ele>617.0</ele><time>2026-04-24T14:11:19.963Z</time></trkpt><trkpt lat="43.0226569" lon="12.7006862"><ele>617.0</ele><time>2026-04-24T14:11:21.953Z</time></trkpt><trkpt lat="43.0225585" lon="12.7006551"><ele>617.0</ele><time>2026-04-24T14:11:22.97Z</time></trkpt><trkpt lat="43.0224597" lon="12.7006771"><ele>617.0</ele><time>2026-04-24T14:11:23.952Z</time></trkpt><trkpt lat="43.0223444" lon="12.7006678"><ele>617.0</ele><time>2026-04-24T14:11:24.976Z</time></trkpt><trkpt lat="43.0222245" lon="12.7005966"><ele>617.0</ele><time>2026-04-24T14:11:25.966Z</time></trkpt><trkpt lat="43.0221045" lon="12.7004682"><ele>617.0</ele><time>2026-04-24T14:11:26.954Z</time></trkpt><trkpt lat="43.0219745" lon="12.7003341"><ele>617.0</ele><time>2026-04-24T14:11:27.968Z</time></trkpt><trkpt lat="43.0218483" lon="12.7002126"><ele>621.0</ele><time>2026-04-24T14:11:28.966Z</time></trkpt><trkpt lat="43.0217533" lon="12.7001328"><ele>625.0</ele><time>2026-04-24T14:11:29.967Z</time></trkpt><trkpt lat="43.0216914" lon="12.7000653"><ele>629.0</ele><time>2026-04-24T14:11:30.966Z</time></trkpt><trkpt lat="43.0216782" lon="12.6999771"><ele>633.0</ele><time>2026-04-24T14:11:31.974Z</time></trkpt><trkpt lat="43.021783" lon="12.6998822"><ele>637.0</ele><time>2026-04-24T14:11:33.953Z</time></trkpt><trkpt lat="43.0218706" lon="12.6999055"><ele>637.0</ele><time>2026-04-24T14:11:34.964Z</time></trkpt><trkpt lat="43.0219794" lon="12.6999558"><ele>637.0</ele><time>2026-04-24T14:11:35.969Z</time></trkpt><trkpt lat="43.0221141" lon="12.7000204"><ele>637.0</ele><time>2026-04-24T14:11:36.971Z</time></trkpt><trkpt lat="43.0222509" lon="12.7000641"><ele>637.0</ele><time>2026-04-24T14:11:37.97Z</time></trkpt><trkpt lat="43.0223389" lon="12.7000645"><ele>637.0</ele><time>2026-04-24T14:11:38.964Z</time></trkpt><trkpt lat="43.0223985" lon="12.7000209"><ele>637.0</ele><time>2026-04-24T14:11:39.973Z</time></trkpt><trkpt lat="43.0224151" lon="12.699909"><ele>637.0</ele><time>2026-04-24T14:11:40.967Z</time></trkpt><trkpt lat="43.0223774" lon="12.6998341"><ele>637.0</ele><time>2026-04-24T14:11:41.963Z</time></trkpt><trkpt lat="43.0222811" lon="12.6997627"><ele>637.0</ele><time>2026-04-24T14:11:42.98Z</time></trkpt><trkpt lat="43.0221626" lon="12.699704"><ele>637.0</ele><time>2026-04-24T14:11:43.96Z</time></trkpt><trkpt lat="43.0220376" lon="12.6996383"><ele>637.0</ele><time>2026-04-24T14:11:44.955Z</time></trkpt><trkpt lat="43.0218926" lon="12.6995538"><ele>637.0</ele><time>2026-04-24T14:11:45.957Z</time></trkpt><trkpt lat="43.021746" lon="12.6994559"><ele>636.3333333333334</ele><time>2026-04-24T14:11:46.964Z</time></trkpt><trkpt lat="43.0215926" lon="12.6993722"><ele>635.6666666666666</ele><time>2026-04-24T14:11:47.957Z</time></trkpt><trkpt lat="43.0214551" lon="12.6992662"><ele>635.0</ele><time>2026-04-24T14:11:48.971Z</time></trkpt><trkpt lat="43.0213413" lon="12.6991589"><ele>635.0</ele><time>2026-04-24T14:11:49.979Z</time></trkpt><trkpt lat="43.0212821" lon="12.6990195"><ele>635.0</ele><time>2026-04-24T14:11:50.968Z</time></trkpt><trkpt lat="43.0212522" lon="12.6988519"><ele>635.0</ele><time>2026-04-24T14:11:51.975Z</time></trkpt><trkpt lat="43.0212725" lon="12.6987039"><ele>635.0</ele><time>2026-04-24T14:11:52.963Z</time></trkpt><trkpt lat="43.0213275" lon="12.6985916"><ele>638.8</ele><time>2026-04-24T14:11:53.969Z</time></trkpt><trkpt lat="43.0214076" lon="12.6985488"><ele>642.6</ele><time>2026-04-24T14:11:54.974Z</time></trkpt><trkpt lat="43.0215109" lon="12.698554"><ele>646.4000000000001</ele><time>2026-04-24T14:11:55.964Z</time></trkpt><trkpt lat="43.0216208" lon="12.6985685"><ele>650.2</ele><time>2026-04-24T14:11:56.962Z</time></trkpt><trkpt lat="43.0217532" lon="12.6985986"><ele>654.0</ele><time>2026-04-24T14:11:57.959Z</time></trkpt><trkpt lat="43.0219034" lon="12.6986361"><ele>656.6666666666666</ele><time>2026-04-24T14:11:58.971Z</time></trkpt><trkpt lat="43.0220718" lon="12.6986639"><ele>659.3333333333333</ele><time>2026-04-24T14:11:59.965Z</time></trkpt><trkpt lat="43.0222582" lon="12.6986791"><ele>662.0</ele><time>2026-04-24T14:12:00.963Z</time></trkpt><trkpt lat="43.0224307" lon="12.698687"><ele>666.3333333333333</ele><time>2026-04-24T14:12:01.973Z</time></trkpt><trkpt lat="43.0225819" lon="12.6986751"><ele>670.6666666666666</ele><time>2026-04-24T14:12:02.984Z</time></trkpt><trkpt lat="43.0227179" lon="12.6986315"><ele>675.0</ele><time>2026-04-24T14:12:03.962Z</time></trkpt><trkpt lat="43.0231454" lon="12.6982823"><ele>679.75</ele><time>2026-04-24T14:12:07.975Z</time></trkpt><trkpt lat="43.0232231" lon="12.6981107"><ele>684.5</ele><time>2026-04-24T14:12:08.987Z</time></trkpt><trkpt lat="43.0232864" lon="12.6979355"><ele>689.25</ele><time>2026-04-24T14:12:09.964Z</time></trkpt><trkpt lat="43.0233428" lon="12.6977625"><ele>694.0</ele><time>2026-04-24T14:12:10.962Z</time></trkpt><trkpt lat="43.0233838" lon="12.6976122"><ele>698.0</ele><time>2026-04-24T14:12:11.972Z</time></trkpt><trkpt lat="43.0234175" lon="12.6975052"><ele>702.0</ele><time>2026-04-24T14:12:12.969Z</time></trkpt><trkpt lat="43.0234378" lon="12.6973739"><ele>706.0</ele><time>2026-04-24T14:12:14.966Z</time></trkpt><trkpt lat="43.0233032" lon="12.6973811"><ele>710.0</ele><time>2026-04-24T14:12:16.976Z</time></trkpt><trkpt lat="43.023218" lon="12.6974434"><ele>714.0</ele><time>2026-04-24T14:12:17.963Z</time></trkpt><trkpt lat="43.0231401" lon="12.6975321"><ele>714.75</ele><time>2026-04-24T14:12:18.971Z</time></trkpt><trkpt lat="43.0230511" lon="12.6976271"><ele>715.5</ele><time>2026-04-24T14:12:19.967Z</time></trkpt><trkpt lat="43.022944" lon="12.6976916"><ele>716.25</ele><time>2026-04-24T14:12:20.974Z</time></trkpt><trkpt lat="43.02283" lon="12.6977156"><ele>717.0</ele><time>2026-04-24T14:12:21.97Z</time></trkpt><trkpt lat="43.022721" lon="12.6977064"><ele>717.0</ele><time>2026-04-24T14:12:22.972Z</time></trkpt><trkpt lat="43.0226583" lon="12.6976507"><ele>717.0</ele><time>2026-04-24T14:12:23.962Z</time></trkpt><trkpt lat="43.0226542" lon="12.69756"><ele>717.0</ele><time>2026-04-24T14:12:24.976Z</time></trkpt><trkpt lat="43.0227717" lon="12.6974561"><ele>717.0</ele><time>2026-04-24T14:12:26.973Z</time></trkpt><trkpt lat="43.0228646" lon="12.6974127"><ele>717.0</ele><time>2026-04-24T14:12:27.969Z</time></trkpt><trkpt lat="43.0229714" lon="12.6973497"><ele>717.0</ele><time>2026-04-24T14:12:28.971Z</time></trkpt><trkpt lat="43.0230769" lon="12.697273"><ele>717.0</ele><time>2026-04-24T14:12:29.959Z</time></trkpt><trkpt lat="43.023161" lon="12.697193"><ele>717.0</ele><time>2026-04-24T14:12:30.967Z</time></trkpt><trkpt lat="43.0232219" lon="12.6970917"><ele>717.0</ele><time>2026-04-24T14:12:31.962Z</time></trkpt><trkpt lat="43.0232416" lon="12.6970027"><ele>717.0</ele><time>2026-04-24T14:12:32.973Z</time></trkpt><trkpt lat="43.0232121" lon="12.6969218"><ele>717.0</ele><time>2026-04-24T14:12:33.96Z</time></trkpt><trkpt lat="43.0231433" lon="12.6968963"><ele>717.0</ele><time>2026-04-24T14:12:34.971Z</time></trkpt><trkpt lat="43.0230472" lon="12.6969304"><ele>717.0</ele><time>2026-04-24T14:12:35.968Z</time></trkpt><trkpt lat="43.0229403" lon="12.6970104"><ele>717.0</ele><time>2026-04-24T14:12:36.961Z</time></trkpt><trkpt lat="43.0228269" lon="12.6970866"><ele>717.0</ele><time>2026-04-24T14:12:37.978Z</time></trkpt><trkpt lat="43.0226991" lon="12.6971176"><ele>717.0</ele><time>2026-04-24T14:12:38.994Z</time></trkpt><trkpt lat="43.0225483" lon="12.6971207"><ele>717.0</ele><time>2026-04-24T14:12:39.987Z</time></trkpt><trkpt lat="43.0223845" lon="12.6970642"><ele>717.0</ele><time>2026-04-24T14:12:40.977Z</time></trkpt><trkpt lat="43.0222083" lon="12.696954"><ele>721.0</ele><time>2026-04-24T14:12:41.963Z</time></trkpt><trkpt lat="43.0220329" lon="12.6968363"><ele>725.0</ele><time>2026-04-24T14:12:42.977Z</time></trkpt><trkpt lat="43.0218811" lon="12.6967275"><ele>729.0</ele><time>2026-04-24T14:12:43.977Z</time></trkpt><trkpt lat="43.0217601" lon="12.6966308"><ele>729.0</ele><time>2026-04-24T14:12:44.968Z</time></trkpt><trkpt lat="43.0216838" lon="12.6965309"><ele>729.0</ele><time>2026-04-24T14:12:45.965Z</time></trkpt><trkpt lat="43.0216654" lon="12.6964355"><ele>729.0</ele><time>2026-04-24T14:12:46.971Z</time></trkpt><trkpt lat="43.0217248" lon="12.6963108"><ele>729.0</ele><time>2026-04-24T14:12:48.97Z</time></trkpt><trkpt lat="43.0217986" lon="12.6963289"><ele>729.0</ele><time>2026-04-24T14:12:49.962Z</time></trkpt><trkpt lat="43.0218999" lon="12.6964224"><ele>729.0</ele><time>2026-04-24T14:12:50.972Z</time></trkpt><trkpt lat="43.0220009" lon="12.6965118"><ele>729.0</ele><time>2026-04-24T14:12:51.964Z</time></trkpt><trkpt lat="43.0220982" lon="12.696554"><ele>729.0</ele><time>2026-04-24T14:12:52.972Z</time></trkpt><trkpt lat="43.0221748" lon="12.6964328"><ele>729.0</ele><time>2026-04-24T14:12:54.973Z</time></trkpt><trkpt lat="43.0221613" lon="12.6963328"><ele>729.0</ele><time>2026-04-24T14:12:55.961Z</time></trkpt><trkpt lat="43.0221016" lon="12.6962546"><ele>729.0</ele><time>2026-04-24T14:12:56.967Z</time></trkpt><trkpt lat="43.0220139" lon="12.6961683"><ele>729.0</ele><time>2026-04-24T14:12:57.959Z</time></trkpt><trkpt lat="43.021921" lon="12.6960738"><ele>729.0</ele><time>2026-04-24T14:12:58.984Z</time></trkpt><trkpt lat="43.0218273" lon="12.6959363"><ele>729.0</ele><time>2026-04-24T14:12:59.968Z</time></trkpt><trkpt lat="43.021752" lon="12.695772"><ele>733.75</ele><time>2026-04-24T14:13:00.965Z</time></trkpt><trkpt lat="43.0216935" lon="12.6955804"><ele>738.5</ele><time>2026-04-24T14:13:01.966Z</time></trkpt><trkpt lat="43.021667" lon="12.695397"><ele>743.25</ele><time>2026-04-24T14:13:02.959Z</time></trkpt><trkpt lat="43.0216632" lon="12.6952312"><ele>748.0</ele><time>2026-04-24T14:13:03.967Z</time></trkpt><trkpt lat="43.021643" lon="12.6950882"><ele>749.5</ele><time>2026-04-24T14:13:04.971Z</time></trkpt><trkpt lat="43.0215767" lon="12.6949967"><ele>751.0</ele><time>2026-04-24T14:13:05.97Z</time></trkpt><trkpt lat="43.0214644" lon="12.6949473"><ele>752.5</ele><time>2026-04-24T14:13:06.97Z</time></trkpt><trkpt lat="43.0213225" lon="12.6949336"><ele>754.0</ele><time>2026-04-24T14:13:07.969Z</time></trkpt><trkpt lat="43.0211646" lon="12.6949065"><ele>754.0</ele><time>2026-04-24T14:13:08.975Z</time></trkpt><trkpt lat="43.0210059" lon="12.6948652"><ele>754.0</ele><time>2026-04-24T14:13:09.963Z</time></trkpt><trkpt lat="43.0208638" lon="12.694823"><ele>754.0</ele><time>2026-04-24T14:13:10.973Z</time></trkpt><trkpt lat="43.0207426" lon="12.6947744"><ele>754.0</ele><time>2026-04-24T14:13:11.965Z</time></trkpt><trkpt lat="43.0206477" lon="12.6947284"><ele>754.0</ele><time>2026-04-24T14:13:12.979Z</time></trkpt><trkpt lat="43.0205923" lon="12.6946843"><ele>754.0</ele><time>2026-04-24T14:13:13.969Z</time></trkpt><trkpt lat="43.0205904" lon="12.6945445"><ele>754.0</ele><time>2026-04-24T14:13:15.982Z</time></trkpt><trkpt lat="43.0206797" lon="12.6945061"><ele>754.0</ele><time>2026-04-24T14:13:16.975Z</time></trkpt><trkpt lat="43.0207878" lon="12.6945309"><ele>754.0</ele><time>2026-04-24T14:13:17.968Z</time></trkpt><trkpt lat="43.0208933" lon="12.6945917"><ele>754.0</ele><time>2026-04-24T14:13:18.963Z</time></trkpt><trkpt lat="43.021001" lon="12.694641"><ele>754.0</ele><time>2026-04-24T14:13:19.972Z</time></trkpt><trkpt lat="43.0210809" lon="12.694635"><ele>754.0</ele><time>2026-04-24T14:13:20.968Z</time></trkpt><trkpt lat="43.021121" lon="12.6945514"><ele>754.0</ele><time>2026-04-24T14:13:21.963Z</time></trkpt><trkpt lat="43.0211109" lon="12.6944309"><ele>754.0</ele><time>2026-04-24T14:13:22.968Z</time></trkpt><trkpt lat="43.0210583" lon="12.694343"><ele>754.0</ele><time>2026-04-24T14:13:23.96Z</time></trkpt><trkpt lat="43.0209513" lon="12.6942766"><ele>759.3333333333334</ele><time>2026-04-24T14:13:24.971Z</time></trkpt><trkpt lat="43.0208219" lon="12.6942166"><ele>764.6666666666667</ele><time>2026-04-24T14:13:25.958Z</time></trkpt><trkpt lat="43.0206798" lon="12.6941584"><ele>770.0</ele><time>2026-04-24T14:13:26.955Z</time></trkpt><trkpt lat="43.0205224" lon="12.6940793"><ele>770.0</ele><time>2026-04-24T14:13:27.961Z</time></trkpt><trkpt lat="43.020371" lon="12.6939583"><ele>770.0</ele><time>2026-04-24T14:13:28.986Z</time></trkpt><trkpt lat="43.0202278" lon="12.6938055"><ele>770.0</ele><time>2026-04-24T14:13:29.965Z</time></trkpt><trkpt lat="43.0200903" lon="12.6936174"><ele>768.6666666666667</ele><time>2026-04-24T14:13:30.98Z</time></trkpt><trkpt lat="43.0199573" lon="12.6933978"><ele>767.3333333333334</ele><time>2026-04-24T14:13:31.969Z</time></trkpt><trkpt lat="43.0198245" lon="12.6931567"><ele>766.0</ele><time>2026-04-24T14:13:32.982Z</time></trkpt><trkpt lat="43.0197167" lon="12.6929232"><ele>772.3333333333334</ele><time>2026-04-24T14:13:33.976Z</time></trkpt><trkpt lat="43.0196437" lon="12.6926969"><ele>778.6666666666667</ele><time>2026-04-24T14:13:34.97Z</time></trkpt><trkpt lat="43.0195978" lon="12.6924869"><ele>785.0</ele><time>2026-04-24T14:13:35.961Z</time></trkpt><trkpt lat="43.0195629" lon="12.692282"><ele>785.0</ele><time>2026-04-24T14:13:36.978Z</time></trkpt><trkpt lat="43.0195395" lon="12.6920986"><ele>785.0</ele><time>2026-04-24T14:13:37.972Z</time></trkpt><trkpt lat="43.0195143" lon="12.6919519"><ele>785.0</ele><time>2026-04-24T14:13:38.976Z</time></trkpt><trkpt lat="43.0194346" lon="12.6918538"><ele>785.0</ele><time>2026-04-24T14:13:39.98Z</time></trkpt><trkpt lat="43.0193416" lon="12.6918157"><ele>787.0</ele><time>2026-04-24T14:13:40.981Z</time></trkpt><trkpt lat="43.0192459" lon="12.6918168"><ele>789.0</ele><time>2026-04-24T14:13:41.957Z</time></trkpt><trkpt lat="43.0191395" lon="12.691825"><ele>791.0</ele><time>2026-04-24T14:13:42.962Z</time></trkpt><trkpt lat="43.0190483" lon="12.6918109"><ele>793.0</ele><time>2026-04-24T14:13:43.969Z</time></trkpt><trkpt lat="43.0189557" lon="12.6917713"><ele>795.0</ele><time>2026-04-24T14:13:44.975Z</time></trkpt><trkpt lat="43.0188836" lon="12.6916791"><ele>795.0</ele><time>2026-04-24T14:13:45.969Z</time></trkpt><trkpt lat="43.0188249" lon="12.6915431"><ele>795.0</ele><time>2026-04-24T14:13:46.975Z</time></trkpt><trkpt lat="43.0187729" lon="12.6913967"><ele>795.0</ele><time>2026-04-24T14:13:47.949Z</time></trkpt><trkpt lat="43.0187344" lon="12.6912545"><ele>795.0</ele><time>2026-04-24T14:13:48.974Z</time></trkpt><trkpt lat="43.0187009" lon="12.6911432"><ele>795.0</ele><time>2026-04-24T14:13:49.966Z</time></trkpt><trkpt lat="43.0186767" lon="12.6910421"><ele>796.6</ele><time>2026-04-24T14:13:50.974Z</time></trkpt><trkpt lat="43.0186794" lon="12.6909557"><ele>798.2</ele><time>2026-04-24T14:13:51.966Z</time></trkpt><trkpt lat="43.0187721" lon="12.6908543"><ele>799.8</ele><time>2026-04-24T14:13:53.958Z</time></trkpt><trkpt lat="43.0188505" lon="12.6908561"><ele>801.4</ele><time>2026-04-24T14:13:54.965Z</time></trkpt><trkpt lat="43.0189413" lon="12.690893"><ele>803.0</ele><time>2026-04-24T14:13:55.98Z</time></trkpt><trkpt lat="43.01903" lon="12.6909449"><ele>803.0</ele><time>2026-04-24T14:13:56.969Z</time></trkpt><trkpt lat="43.0191213" lon="12.6909982"><ele>803.0</ele><time>2026-04-24T14:13:57.988Z</time></trkpt><trkpt lat="43.0192196" lon="12.6910509"><ele>803.0</ele><time>2026-04-24T14:13:58.976Z</time></trkpt><trkpt lat="43.0193334" lon="12.691101"><ele>803.0</ele><time>2026-04-24T14:13:59.97Z</time></trkpt><trkpt lat="43.0194498" lon="12.6911368"><ele>803.0</ele><time>2026-04-24T14:14:00.989Z</time></trkpt><trkpt lat="43.0195715" lon="12.6911754"><ele>803.5</ele><time>2026-04-24T14:14:01.989Z</time></trkpt><trkpt lat="43.0196983" lon="12.691216"><ele>804.0</ele><time>2026-04-24T14:14:02.987Z</time></trkpt><trkpt lat="43.0198239" lon="12.6912652"><ele>804.5</ele><time>2026-04-24T14:14:03.973Z</time></trkpt><trkpt lat="43.0199466" lon="12.6913146"><ele>805.0</ele><time>2026-04-24T14:14:04.986Z</time></trkpt><trkpt lat="43.0200671" lon="12.6913687"><ele>808.25</ele><time>2026-04-24T14:14:05.971Z</time></trkpt><trkpt lat="43.0201886" lon="12.6914268"><ele>811.5</ele><time>2026-04-24T14:14:06.977Z</time></trkpt><trkpt lat="43.0203044" lon="12.6914884"><ele>814.75</ele><time>2026-04-24T14:14:07.964Z</time></trkpt><trkpt lat="43.0204269" lon="12.6915436"><ele>818.0</ele><time>2026-04-24T14:14:08.975Z</time></trkpt><trkpt lat="43.0205554" lon="12.6915879"><ele>818.0</ele><time>2026-04-24T14:14:09.99Z</time></trkpt><trkpt lat="43.0206853" lon="12.6916197"><ele>818.0</ele><time>2026-04-24T14:14:10.97Z</time></trkpt><trkpt lat="43.0208147" lon="12.6916494"><ele>818.0</ele><time>2026-04-24T14:14:11.973Z</time></trkpt><trkpt lat="43.0209437" lon="12.6916725"><ele>818.0</ele><time>2026-04-24T14:14:12.984Z</time></trkpt><trkpt lat="43.021081" lon="12.6916984"><ele>821.0</ele><time>2026-04-24T14:14:13.982Z</time></trkpt><trkpt lat="43.0212238" lon="12.6917218"><ele>824.0</ele><time>2026-04-24T14:14:14.976Z</time></trkpt><trkpt lat="43.0213658" lon="12.6917474"><ele>827.0</ele><time>2026-04-24T14:14:15.977Z</time></trkpt><trkpt lat="43.0215072" lon="12.6917598"><ele>830.0</ele><time>2026-04-24T14:14:16.973Z</time></trkpt><trkpt lat="43.0216497" lon="12.6917694"><ele>832.5</ele><time>2026-04-24T14:14:17.968Z</time></trkpt><trkpt lat="43.0217849" lon="12.6917711"><ele>835.0</ele><time>2026-04-24T14:14:18.972Z</time></trkpt><trkpt lat="43.0219125" lon="12.6917483"><ele>837.5</ele><time>2026-04-24T14:14:19.96Z</time></trkpt><trkpt lat="43.022037" lon="12.6917185"><ele>840.0</ele><time>2026-04-24T14:14:20.984Z</time></trkpt><trkpt lat="43.0221597" lon="12.6916754"><ele>840.0</ele><time>2026-04-24T14:14:21.971Z</time></trkpt><trkpt lat="43.0222599" lon="12.6916161"><ele>840.0</ele><time>2026-04-24T14:14:22.971Z</time></trkpt><trkpt lat="43.0223502" lon="12.691548"><ele>840.0</ele><time>2026-04-24T14:14:23.984Z</time></trkpt><trkpt lat="43.0224316" lon="12.6914699"><ele>840.0</ele><time>2026-04-24T14:14:24.973Z</time></trkpt><trkpt lat="43.0225275" lon="12.6913894"><ele>840.0</ele><time>2026-04-24T14:14:25.983Z</time></trkpt><trkpt lat="43.0226253" lon="12.6913213"><ele>839.8</ele><time>2026-04-24T14:14:26.984Z</time></trkpt><trkpt lat="43.0227303" lon="12.6912706"><ele>839.6</ele><time>2026-04-24T14:14:27.981Z</time></trkpt><trkpt lat="43.0228418" lon="12.6912417"><ele>839.4000000000001</ele><time>2026-04-24T14:14:28.967Z</time></trkpt><trkpt lat="43.0229563" lon="12.6912415"><ele>839.2</ele><time>2026-04-24T14:14:29.968Z</time></trkpt><trkpt lat="43.0230636" lon="12.6912679"><ele>839.0</ele><time>2026-04-24T14:14:30.983Z</time></trkpt><trkpt lat="43.023179" lon="12.6912967"><ele>839.0</ele><time>2026-04-24T14:14:31.959Z</time></trkpt><trkpt lat="43.0233037" lon="12.6913208"><ele>839.0</ele><time>2026-04-24T14:14:32.977Z</time></trkpt><trkpt lat="43.023435" lon="12.6913514"><ele>839.0</ele><time>2026-04-24T14:14:33.977Z</time></trkpt><trkpt lat="43.0235708" lon="12.6913749"><ele>839.0</ele><time>2026-04-24T14:14:34.987Z</time></trkpt><trkpt lat="43.0237098" lon="12.691397"><ele>840.0</ele><time>2026-04-24T14:14:35.966Z</time></trkpt><trkpt lat="43.0238543" lon="12.6914042"><ele>841.0</ele><time>2026-04-24T14:14:36.97Z</time></trkpt><trkpt lat="43.0239963" lon="12.6914128"><ele>842.0</ele><time>2026-04-24T14:14:37.972Z</time></trkpt><trkpt lat="43.0241465" lon="12.6914151"><ele>843.0</ele><time>2026-04-24T14:14:38.983Z</time></trkpt><trkpt lat="43.0242871" lon="12.691434"><ele>844.25</ele><time>2026-04-24T14:14:39.964Z</time></trkpt><trkpt lat="43.0244302" lon="12.6914522"><ele>845.5</ele><time>2026-04-24T14:14:40.968Z</time></trkpt><trkpt lat="43.0245672" lon="12.6914766"><ele>846.75</ele><time>2026-04-24T14:14:41.96Z</time></trkpt><trkpt lat="43.024708" lon="12.691519"><ele>848.0</ele><time>2026-04-24T14:14:42.984Z</time></trkpt><trkpt lat="43.0248401" lon="12.6915908"><ele>848.0</ele><time>2026-04-24T14:14:43.969Z</time></trkpt><trkpt lat="43.0249699" lon="12.6916823"><ele>848.0</ele><time>2026-04-24T14:14:44.974Z</time></trkpt><trkpt lat="43.025095" lon="12.6917947"><ele>848.0</ele><time>2026-04-24T14:14:45.981Z</time></trkpt><trkpt lat="43.025227" lon="12.6919208"><ele>847.0</ele><time>2026-04-24T14:14:46.988Z</time></trkpt><trkpt lat="43.0253802" lon="12.6920587"><ele>846.0</ele><time>2026-04-24T14:14:47.974Z</time></trkpt><trkpt lat="43.0255411" lon="12.6921958"><ele>845.0</ele><time>2026-04-24T14:14:48.978Z</time></trkpt><trkpt lat="43.0257031" lon="12.6923387"><ele>847.0</ele><time>2026-04-24T14:14:49.967Z</time></trkpt><trkpt lat="43.0258741" lon="12.6924821"><ele>849.0</ele><time>2026-04-24T14:14:50.97Z</time></trkpt><trkpt lat="43.0260417" lon="12.6926441"><ele>851.0</ele><time>2026-04-24T14:14:51.963Z</time></trkpt><trkpt lat="43.0261937" lon="12.6927949"><ele>851.0</ele><time>2026-04-24T14:14:52.974Z</time></trkpt><trkpt lat="43.0263378" lon="12.6929463"><ele>851.0</ele><time>2026-04-24T14:14:53.969Z</time></trkpt><trkpt lat="43.02648" lon="12.693087"><ele>851.0</ele><time>2026-04-24T14:14:54.971Z</time></trkpt><trkpt lat="43.0266184" lon="12.6932322"><ele>852.6666666666667</ele><time>2026-04-24T14:14:55.967Z</time></trkpt><trkpt lat="43.0267435" lon="12.6933907"><ele>854.3333333333333</ele><time>2026-04-24T14:14:56.973Z</time></trkpt><trkpt lat="43.0268617" lon="12.6935732"><ele>856.0</ele><time>2026-04-24T14:14:57.961Z</time></trkpt><trkpt lat="43.0269678" lon="12.6937583"><ele>856.0</ele><time>2026-04-24T14:14:58.963Z</time></trkpt><trkpt lat="43.0270637" lon="12.6939386"><ele>856.0</ele><time>2026-04-24T14:14:59.969Z</time></trkpt><trkpt lat="43.0271455" lon="12.6941049"><ele>856.0</ele><time>2026-04-24T14:15:00.975Z</time></trkpt><trkpt lat="43.0272092" lon="12.6942571"><ele>856.0</ele><time>2026-04-24T14:15:01.975Z</time></trkpt><trkpt lat="43.0272542" lon="12.6943956"><ele>854.1999999999999</ele><time>2026-04-24T14:15:02.969Z</time></trkpt><trkpt lat="43.0272937" lon="12.694538"><ele>852.3999999999999</ele><time>2026-04-24T14:15:03.965Z</time></trkpt><trkpt lat="43.0273296" lon="12.6946747"><ele>850.6</ele><time>2026-04-24T14:15:04.977Z</time></trkpt><trkpt lat="43.0273667" lon="12.6948048"><ele>848.8</ele><time>2026-04-24T14:15:05.998Z</time></trkpt><trkpt lat="43.0274031" lon="12.694943"><ele>847.0</ele><time>2026-04-24T14:15:06.977Z</time></trkpt><trkpt lat="43.0274446" lon="12.6950874"><ele>853.0</ele><time>2026-04-24T14:15:07.975Z</time></trkpt><trkpt lat="43.0274824" lon="12.6952343"><ele>859.0</ele><time>2026-04-24T14:15:08.974Z</time></trkpt><trkpt lat="43.0275175" lon="12.6953738"><ele>865.0</ele><time>2026-04-24T14:15:09.972Z</time></trkpt><trkpt lat="43.0275596" lon="12.6955136"><ele>871.0</ele><time>2026-04-24T14:15:10.981Z</time></trkpt><trkpt lat="43.0276029" lon="12.6956605"><ele>877.0</ele><time>2026-04-24T14:15:11.971Z</time></trkpt><trkpt lat="43.0276488" lon="12.6958081"><ele>877.0</ele><time>2026-04-24T14:15:12.973Z</time></trkpt><trkpt lat="43.0276949" lon="12.6959575"><ele>877.0</ele><time>2026-04-24T14:15:13.973Z</time></trkpt><trkpt lat="43.0277391" lon="12.6961155"><ele>877.0</ele><time>2026-04-24T14:15:14.969Z</time></trkpt><trkpt lat="43.0277829" lon="12.6962703"><ele>877.0</ele><time>2026-04-24T14:15:15.977Z</time></trkpt><trkpt lat="43.0278382" lon="12.696428"><ele>875.0</ele><time>2026-04-24T14:15:16.968Z</time></trkpt><trkpt lat="43.0279025" lon="12.6965847"><ele>873.0</ele><time>2026-04-24T14:15:17.968Z</time></trkpt><trkpt lat="43.027964" lon="12.6967334"><ele>871.0</ele><time>2026-04-24T14:15:18.993Z</time></trkpt><trkpt lat="43.0280355" lon="12.69688"><ele>869.0</ele><time>2026-04-24T14:15:19.973Z</time></trkpt><trkpt lat="43.0281164" lon="12.6970281"><ele>866.75</ele><time>2026-04-24T14:15:20.985Z</time></trkpt><trkpt lat="43.0281987" lon="12.6971662"><ele>864.5</ele><time>2026-04-24T14:15:21.978Z</time></trkpt><trkpt lat="43.0282861" lon="12.6973048"><ele>862.25</ele><time>2026-04-24T14:15:22.988Z</time></trkpt><trkpt lat="43.0283702" lon="12.6974396"><ele>860.0</ele><time>2026-04-24T14:15:23.972Z</time></trkpt><trkpt lat="43.0284449" lon="12.6975627"><ele>868.25</ele><time>2026-04-24T14:15:24.983Z</time></trkpt><trkpt lat="43.028521" lon="12.6976922"><ele>876.5</ele><time>2026-04-24T14:15:25.973Z</time></trkpt><trkpt lat="43.0285833" lon="12.6978264"><ele>884.75</ele><time>2026-04-24T14:15:26.979Z</time></trkpt><trkpt lat="43.0286247" lon="12.6979798"><ele>893.0</ele><time>2026-04-24T14:15:27.968Z</time></trkpt><trkpt lat="43.0286477" lon="12.6981547"><ele>893.25</ele><time>2026-04-24T14:15:28.979Z</time></trkpt><trkpt lat="43.0286667" lon="12.6983371"><ele>893.5</ele><time>2026-04-24T14:15:29.981Z</time></trkpt><trkpt lat="43.0286847" lon="12.6985252"><ele>893.75</ele><time>2026-04-24T14:15:30.984Z</time></trkpt><trkpt lat="43.0286997" lon="12.698727"><ele>894.0</ele><time>2026-04-24T14:15:31.967Z</time></trkpt><trkpt lat="43.0287154" lon="12.6989203"><ele>894.2</ele><time>2026-04-24T14:15:32.972Z</time></trkpt><trkpt lat="43.0287343" lon="12.6990862"><ele>894.4000000000001</ele><time>2026-04-24T14:15:33.973Z</time></trkpt><trkpt lat="43.0287411" lon="12.6992244"><ele>894.6</ele><time>2026-04-24T14:15:34.974Z</time></trkpt><trkpt lat="43.0287445" lon="12.699338"><ele>894.8</ele><time>2026-04-24T14:15:35.972Z</time></trkpt><trkpt lat="43.0287777" lon="12.699449"><ele>895.0</ele><time>2026-04-24T14:15:37.992Z</time></trkpt><trkpt lat="43.0288779" lon="12.6994747"><ele>895.0</ele><time>2026-04-24T14:15:39.974Z</time></trkpt><trkpt lat="43.0289379" lon="12.6993181"><ele>895.0</ele><time>2026-04-24T14:15:41.958Z</time></trkpt><trkpt lat="43.0289564" lon="12.6992021"><ele>895.0</ele><time>2026-04-24T14:15:42.978Z</time></trkpt><trkpt lat="43.0289865" lon="12.699089"><ele>895.0</ele><time>2026-04-24T14:15:43.962Z</time></trkpt><trkpt lat="43.0290373" lon="12.698974"><ele>895.0</ele><time>2026-04-24T14:15:44.971Z</time></trkpt><trkpt lat="43.0290965" lon="12.6988659"><ele>900.2</ele><time>2026-04-24T14:15:45.972Z</time></trkpt><trkpt lat="43.0291556" lon="12.6987787"><ele>905.4</ele><time>2026-04-24T14:15:46.975Z</time></trkpt><trkpt lat="43.0292236" lon="12.6987039"><ele>910.5999999999999</ele><time>2026-04-24T14:15:47.978Z</time></trkpt><trkpt lat="43.0292983" lon="12.6986388"><ele>915.8</ele><time>2026-04-24T14:15:48.983Z</time></trkpt><trkpt lat="43.0293931" lon="12.6985935"><ele>921.0</ele><time>2026-04-24T14:15:49.981Z</time></trkpt><trkpt lat="43.0294985" lon="12.6985753"><ele>922.4</ele><time>2026-04-24T14:15:50.973Z</time></trkpt><trkpt lat="43.0296043" lon="12.6986042"><ele>923.8</ele><time>2026-04-24T14:15:51.984Z</time></trkpt><trkpt lat="43.029698" lon="12.698654"><ele>925.1999999999999</ele><time>2026-04-24T14:15:52.983Z</time></trkpt><trkpt lat="43.0297897" lon="12.6987328"><ele>926.5999999999999</ele><time>2026-04-24T14:15:53.991Z</time></trkpt><trkpt lat="43.0298749" lon="12.6988265"><ele>928.0</ele><time>2026-04-24T14:15:54.978Z</time></trkpt><trkpt lat="43.0299574" lon="12.6989415"><ele>931.5</ele><time>2026-04-24T14:15:55.993Z</time></trkpt><trkpt lat="43.0300406" lon="12.6990787"><ele>935.0</ele><time>2026-04-24T14:15:56.995Z</time></trkpt><trkpt lat="43.0301339" lon="12.6992288"><ele>938.5</ele><time>2026-04-24T14:15:57.98Z</time></trkpt><trkpt lat="43.0302398" lon="12.6993959"><ele>942.0</ele><time>2026-04-24T14:15:58.998Z</time></trkpt><trkpt lat="43.0303522" lon="12.6995541"><ele>946.0</ele><time>2026-04-24T14:15:59.982Z</time></trkpt><trkpt lat="43.0304753" lon="12.699705"><ele>950.0</ele><time>2026-04-24T14:16:00.982Z</time></trkpt><trkpt lat="43.0306094" lon="12.6998515"><ele>954.0</ele><time>2026-04-24T14:16:01.966Z</time></trkpt><trkpt lat="43.0307508" lon="12.699989"><ele>955.3333333333333</ele><time>2026-04-24T14:16:02.97Z</time></trkpt><trkpt lat="43.030891" lon="12.7001106"><ele>956.6666666666666</ele><time>2026-04-24T14:16:03.974Z</time></trkpt><trkpt lat="43.0310324" lon="12.7002109"><ele>958.0</ele><time>2026-04-24T14:16:04.977Z</time></trkpt><trkpt lat="43.0311661" lon="12.7002876"><ele>961.5</ele><time>2026-04-24T14:16:05.985Z</time></trkpt><trkpt lat="43.031299" lon="12.7003648"><ele>965.0</ele><time>2026-04-24T14:16:06.999Z</time></trkpt><trkpt lat="43.0314298" lon="12.7004416"><ele>968.5</ele><time>2026-04-24T14:16:07.982Z</time></trkpt><trkpt lat="43.0315612" lon="12.7005256"><ele>972.0</ele><time>2026-04-24T14:16:08.964Z</time></trkpt><trkpt lat="43.0319396" lon="12.7007783"><ele>972.1666666666666</ele><time>2026-04-24T14:16:11.988Z</time></trkpt><trkpt lat="43.0320379" lon="12.7008557"><ele>972.3333333333333</ele><time>2026-04-24T14:16:12.987Z</time></trkpt><trkpt lat="43.0321223" lon="12.7009239"><ele>972.5</ele><time>2026-04-24T14:16:13.99Z</time></trkpt><trkpt lat="43.0321923" lon="12.7009873"><ele>972.6666666666666</ele><time>2026-04-24T14:16:14.998Z</time></trkpt><trkpt lat="43.0322611" lon="12.7010357"><ele>972.8333333333333</ele><time>2026-04-24T14:16:15.97Z</time></trkpt><trkpt lat="43.0323308" lon="12.7010666"><ele>973.0</ele><time>2026-04-24T14:16:16.992Z</time></trkpt><trkpt lat="43.0324027" lon="12.7010549"><ele>973.0</ele><time>2026-04-24T14:16:17.977Z</time></trkpt><trkpt lat="43.0324579" lon="12.7010036"><ele>973.0</ele><time>2026-04-24T14:16:18.988Z</time></trkpt><trkpt lat="43.0325247" lon="12.7008372"><ele>973.0</ele><time>2026-04-24T14:16:20.985Z</time></trkpt><trkpt lat="43.0325292" lon="12.7007266"><ele>973.0</ele><time>2026-04-24T14:16:21.986Z</time></trkpt><trkpt lat="43.0325439" lon="12.7006118"><ele>973.0</ele><time>2026-04-24T14:16:22.98Z</time></trkpt><trkpt lat="43.0325533" lon="12.7004869"><ele>974.2</ele><time>2026-04-24T14:16:23.972Z</time></trkpt><trkpt lat="43.0325614" lon="12.7003568"><ele>975.4</ele><time>2026-04-24T14:16:24.977Z</time></trkpt><trkpt lat="43.0325685" lon="12.7002223"><ele>976.6000000000001</ele><time>2026-04-24T14:16:25.97Z</time></trkpt><trkpt lat="43.0325796" lon="12.7000934"><ele>977.8000000000001</ele><time>2026-04-24T14:16:26.974Z</time></trkpt><trkpt lat="43.0325898" lon="12.6999627"><ele>979.0</ele><time>2026-04-24T14:16:27.972Z</time></trkpt><trkpt lat="43.0325991" lon="12.6998403"><ele>979.0</ele><time>2026-04-24T14:16:28.976Z</time></trkpt><trkpt lat="43.0326087" lon="12.6997036"><ele>979.0000000000001</ele><time>2026-04-24T14:16:29.975Z</time></trkpt><trkpt lat="43.0326167" lon="12.6995666"><ele>979.0000000000001</ele><time>2026-04-24T14:16:30.973Z</time></trkpt><trkpt lat="43.0326222" lon="12.699425"><ele>979.0</ele><time>2026-04-24T14:16:31.973Z</time></trkpt><trkpt lat="43.0326313" lon="12.6992759"><ele>979.0</ele><time>2026-04-24T14:16:32.982Z</time></trkpt><trkpt lat="43.0326362" lon="12.6991076"><ele>980.0</ele><time>2026-04-24T14:16:33.972Z</time></trkpt><trkpt lat="43.0326466" lon="12.6989262"><ele>981.0</ele><time>2026-04-24T14:16:34.984Z</time></trkpt><trkpt lat="43.0326604" lon="12.698723"><ele>982.0</ele><time>2026-04-24T14:16:35.967Z</time></trkpt><trkpt lat="43.0326763" lon="12.6985"><ele>983.0</ele><time>2026-04-24T14:16:36.977Z</time></trkpt><trkpt lat="43.0326909" lon="12.6982536"><ele>984.0</ele><time>2026-04-24T14:16:37.97Z</time></trkpt><trkpt lat="43.0327072" lon="12.6980013"><ele>985.0</ele><time>2026-04-24T14:16:38.977Z</time></trkpt><trkpt lat="43.0327203" lon="12.6977397"><ele>986.0</ele><time>2026-04-24T14:16:39.991Z</time></trkpt><trkpt lat="43.0327366" lon="12.6974978"><ele>987.6666666666667</ele><time>2026-04-24T14:16:40.994Z</time></trkpt><trkpt lat="43.0327476" lon="12.6972697"><ele>989.3333333333333</ele><time>2026-04-24T14:16:41.961Z</time></trkpt><trkpt lat="43.0327614" lon="12.6970392"><ele>991.0</ele><time>2026-04-24T14:16:42.993Z</time></trkpt><trkpt lat="43.0327779" lon="12.6968144"><ele>992.0</ele><time>2026-04-24T14:16:43.994Z</time></trkpt><trkpt lat="43.0328132" lon="12.696597"><ele>993.0</ele><time>2026-04-24T14:16:44.978Z</time></trkpt><trkpt lat="43.0328687" lon="12.6963703"><ele>994.0</ele><time>2026-04-24T14:16:45.975Z</time></trkpt><trkpt lat="43.0329339" lon="12.6961247"><ele>994.3333333333333</ele><time>2026-04-24T14:16:46.997Z</time></trkpt><trkpt lat="43.0330022" lon="12.6958681"><ele>994.6666666666667</ele><time>2026-04-24T14:16:47.985Z</time></trkpt><trkpt lat="43.0330813" lon="12.6956035"><ele>995.0</ele><time>2026-04-24T14:16:48.986Z</time></trkpt><trkpt lat="43.0331598" lon="12.69532"><ele>994.6666666666667</ele><time>2026-04-24T14:16:49.989Z</time></trkpt><trkpt lat="43.0332419" lon="12.6950263"><ele>994.3333333333333</ele><time>2026-04-24T14:16:51.006Z</time></trkpt><trkpt lat="43.0333187" lon="12.6947538"><ele>994.0</ele><time>2026-04-24T14:16:51.979Z</time></trkpt><trkpt lat="43.0333932" lon="12.6944949"><ele>1000.6666666666666</ele><time>2026-04-24T14:16:52.989Z</time></trkpt><trkpt lat="43.0334735" lon="12.6942422"><ele>1007.3333333333333</ele><time>2026-04-24T14:16:53.979Z</time></trkpt><trkpt lat="43.0335576" lon="12.694002"><ele>1014.0</ele><time>2026-04-24T14:16:55Z</time></trkpt><trkpt lat="43.0336432" lon="12.6937989"><ele>1014.0</ele><time>2026-04-24T14:16:55.96Z</time></trkpt><trkpt lat="43.03374" lon="12.693612"><ele>1014.0</ele><time>2026-04-24T14:16:56.982Z</time></trkpt><trkpt lat="43.0338444" lon="12.6934396"><ele>1014.0</ele><time>2026-04-24T14:16:57.994Z</time></trkpt><trkpt lat="43.0339356" lon="12.6932832"><ele>1013.5</ele><time>2026-04-24T14:16:58.975Z</time></trkpt><trkpt lat="43.0340236" lon="12.6931319"><ele>1013.0</ele><time>2026-04-24T14:16:59.967Z</time></trkpt><trkpt lat="43.0340841" lon="12.6929892"><ele>1012.5</ele><time>2026-04-24T14:17:00.978Z</time></trkpt><trkpt lat="43.0341251" lon="12.6928369"><ele>1012.0</ele><time>2026-04-24T14:17:01.977Z</time></trkpt><trkpt lat="43.034137" lon="12.6926633"><ele>1011.3333333333333</ele><time>2026-04-24T14:17:02.98Z</time></trkpt><trkpt lat="43.0341353" lon="12.6924546"><ele>1010.6666666666667</ele><time>2026-04-24T14:17:03.964Z</time></trkpt><trkpt lat="43.0341229" lon="12.692224"><ele>1010.0</ele><time>2026-04-24T14:17:04.983Z</time></trkpt><trkpt lat="43.0341101" lon="12.6919755"><ele>1010.3333333333334</ele><time>2026-04-24T14:17:05.981Z</time></trkpt><trkpt lat="43.0341074" lon="12.6917154"><ele>1010.6666666666667</ele><time>2026-04-24T14:17:06.971Z</time></trkpt><trkpt lat="43.0341089" lon="12.6914577"><ele>1011.0</ele><time>2026-04-24T14:17:07.98Z</time></trkpt><trkpt lat="43.0341195" lon="12.6912092"><ele>1021.0</ele><time>2026-04-24T14:17:08.973Z</time></trkpt><trkpt lat="43.0341406" lon="12.6909658"><ele>1031.0</ele><time>2026-04-24T14:17:09.977Z</time></trkpt><trkpt lat="43.0341658" lon="12.690744"><ele>1041.0</ele><time>2026-04-24T14:17:10.972Z</time></trkpt><trkpt lat="43.0341877" lon="12.6905372"><ele>1041.0</ele><time>2026-04-24T14:17:11.975Z</time></trkpt><trkpt lat="43.0342131" lon="12.690328"><ele>1041.0</ele><time>2026-04-24T14:17:12.984Z</time></trkpt><trkpt lat="43.034244" lon="12.6901157"><ele>1041.0</ele><time>2026-04-24T14:17:13.969Z</time></trkpt><trkpt lat="43.0342797" lon="12.689908"><ele>1041.3333333333333</ele><time>2026-04-24T14:17:14.967Z</time></trkpt><trkpt lat="43.0343143" lon="12.6897002"><ele>1041.6666666666665</ele><time>2026-04-24T14:17:15.983Z</time></trkpt><trkpt lat="43.0343552" lon="12.6894883"><ele>1042.0</ele><time>2026-04-24T14:17:16.987Z</time></trkpt><trkpt lat="43.034393" lon="12.6892804"><ele>1042.0</ele><time>2026-04-24T14:17:17.971Z</time></trkpt><trkpt lat="43.0344265" lon="12.6890802"><ele>1042.0</ele><time>2026-04-24T14:17:18.976Z</time></trkpt><trkpt lat="43.0344589" lon="12.6888868"><ele>1042.0</ele><time>2026-04-24T14:17:19.972Z</time></trkpt><trkpt lat="43.0344878" lon="12.6886973"><ele>1042.0</ele><time>2026-04-24T14:17:20.986Z</time></trkpt><trkpt lat="43.0345212" lon="12.6885062"><ele>1042.0</ele><time>2026-04-24T14:17:21.973Z</time></trkpt><trkpt lat="43.0345539" lon="12.6883127"><ele>1042.0</ele><time>2026-04-24T14:17:22.977Z</time></trkpt><trkpt lat="43.0345891" lon="12.6881198"><ele>1042.0</ele><time>2026-04-24T14:17:23.974Z</time></trkpt><trkpt lat="43.0346287" lon="12.6879229"><ele>1042.0</ele><time>2026-04-24T14:17:24.974Z</time></trkpt><trkpt lat="43.0346702" lon="12.6877134"><ele>1042.0</ele><time>2026-04-24T14:17:25.972Z</time></trkpt><trkpt lat="43.0347163" lon="12.6875018"><ele>1042.0</ele><time>2026-04-24T14:17:26.976Z</time></trkpt><trkpt lat="43.0347688" lon="12.6872913"><ele>1042.0</ele><time>2026-04-24T14:17:27.978Z</time></trkpt><trkpt lat="43.034825" lon="12.6870751"><ele>1041.0</ele><time>2026-04-24T14:17:28.964Z</time></trkpt><trkpt lat="43.0348755" lon="12.6868498"><ele>1040.0</ele><time>2026-04-24T14:17:29.98Z</time></trkpt><trkpt lat="43.0349335" lon="12.6866238"><ele>1039.0</ele><time>2026-04-24T14:17:30.966Z</time></trkpt><trkpt lat="43.0349915" lon="12.6863937"><ele>1047.0</ele><time>2026-04-24T14:17:31.977Z</time></trkpt><trkpt lat="43.0350563" lon="12.6861789"><ele>1055.0</ele><time>2026-04-24T14:17:32.98Z</time></trkpt><trkpt lat="43.0351269" lon="12.6859745"><ele>1063.0</ele><time>2026-04-24T14:17:33.973Z</time></trkpt><trkpt lat="43.0351923" lon="12.6857873"><ele>1063.0</ele><time>2026-04-24T14:17:34.978Z</time></trkpt><trkpt lat="43.0352531" lon="12.6856375"><ele>1063.0</ele><time>2026-04-24T14:17:35.97Z</time></trkpt><trkpt lat="43.0353142" lon="12.6855149"><ele>1063.0</ele><time>2026-04-24T14:17:36.984Z</time></trkpt><trkpt lat="43.0353631" lon="12.6854272"><ele>1063.0</ele><time>2026-04-24T14:17:37.968Z</time></trkpt><trkpt lat="43.03542" lon="12.6853657"><ele>1063.0</ele><time>2026-04-24T14:17:38.967Z</time></trkpt><trkpt lat="43.0355246" lon="12.6853896"><ele>1063.0</ele><time>2026-04-24T14:17:40.968Z</time></trkpt><trkpt lat="43.0355297" lon="12.6855409"><ele>1063.0</ele><time>2026-04-24T14:17:42.971Z</time></trkpt><trkpt lat="43.0354815" lon="12.6856479"><ele>1063.0</ele><time>2026-04-24T14:17:43.967Z</time></trkpt><trkpt lat="43.0354254" lon="12.6857846"><ele>1063.0</ele><time>2026-04-24T14:17:44.973Z</time></trkpt><trkpt lat="43.0353698" lon="12.6859544"><ele>1064.5</ele><time>2026-04-24T14:17:45.966Z</time></trkpt><trkpt lat="43.0353278" lon="12.6861389"><ele>1066.0</ele><time>2026-04-24T14:17:46.987Z</time></trkpt><trkpt lat="43.0353023" lon="12.6863378"><ele>1067.5</ele><time>2026-04-24T14:17:47.981Z</time></trkpt><trkpt lat="43.0352928" lon="12.6865523"><ele>1069.0</ele><time>2026-04-24T14:17:48.988Z</time></trkpt><trkpt lat="43.0353127" lon="12.6867952"><ele>1069.6666666666665</ele><time>2026-04-24T14:17:49.982Z</time></trkpt><trkpt lat="43.0353506" lon="12.68705"><ele>1070.3333333333333</ele><time>2026-04-24T14:17:50.975Z</time></trkpt><trkpt lat="43.0353927" lon="12.6873041"><ele>1071.0</ele><time>2026-04-24T14:17:51.97Z</time></trkpt><trkpt lat="43.0354367" lon="12.6875487"><ele>1071.0</ele><time>2026-04-24T14:17:52.981Z</time></trkpt><trkpt lat="43.035479" lon="12.6877841"><ele>1071.0</ele><time>2026-04-24T14:17:53.978Z</time></trkpt><trkpt lat="43.0355152" lon="12.6880095"><ele>1071.0</ele><time>2026-04-24T14:17:54.972Z</time></trkpt><trkpt lat="43.0355497" lon="12.6882229"><ele>1071.0</ele><time>2026-04-24T14:17:55.983Z</time></trkpt><trkpt lat="43.0355789" lon="12.6884325"><ele>1071.0</ele><time>2026-04-24T14:17:56.982Z</time></trkpt><trkpt lat="43.0356168" lon="12.688645"><ele>1071.0</ele><time>2026-04-24T14:17:57.973Z</time></trkpt><trkpt lat="43.0356646" lon="12.6888584"><ele>1071.0</ele><time>2026-04-24T14:17:58.977Z</time></trkpt><trkpt lat="43.0357192" lon="12.6890721"><ele>1071.0</ele><time>2026-04-24T14:17:59.97Z</time></trkpt><trkpt lat="43.0357757" lon="12.6892988"><ele>1071.0</ele><time>2026-04-24T14:18:01.003Z</time></trkpt><trkpt lat="43.0358421" lon="12.6895371"><ele>1078.0</ele><time>2026-04-24T14:18:01.982Z</time></trkpt><trkpt lat="43.035916" lon="12.6897805"><ele>1085.0</ele><time>2026-04-24T14:18:02.99Z</time></trkpt><trkpt lat="43.0359993" lon="12.6900238"><ele>1092.0</ele><time>2026-04-24T14:18:03.974Z</time></trkpt><trkpt lat="43.0360848" lon="12.6902766"><ele>1092.0</ele><time>2026-04-24T14:18:04.988Z</time></trkpt><trkpt lat="43.0361762" lon="12.6905409"><ele>1092.0</ele><time>2026-04-24T14:18:05.969Z</time></trkpt><trkpt lat="43.0362778" lon="12.6908075"><ele>1092.0</ele><time>2026-04-24T14:18:06.979Z</time></trkpt><trkpt lat="43.0363828" lon="12.6910779"><ele>1091.0</ele><time>2026-04-24T14:18:07.974Z</time></trkpt><trkpt lat="43.036486" lon="12.6913464"><ele>1090.0</ele><time>2026-04-24T14:18:08.99Z</time></trkpt><trkpt lat="43.0365832" lon="12.6916002"><ele>1089.0</ele><time>2026-04-24T14:18:09.99Z</time></trkpt><trkpt lat="43.0366775" lon="12.6918391"><ele>1094.3333333333333</ele><time>2026-04-24T14:18:10.979Z</time></trkpt><trkpt lat="43.0367745" lon="12.6920656"><ele>1099.6666666666665</ele><time>2026-04-24T14:18:11.988Z</time></trkpt><trkpt lat="43.0368858" lon="12.6922849"><ele>1105.0</ele><time>2026-04-24T14:18:12.983Z</time></trkpt><trkpt lat="43.0370092" lon="12.6924961"><ele>1105.0</ele><time>2026-04-24T14:18:13.98Z</time></trkpt><trkpt lat="43.0371314" lon="12.6926881"><ele>1105.0</ele><time>2026-04-24T14:18:14.985Z</time></trkpt><trkpt lat="43.0372397" lon="12.6928514"><ele>1105.0</ele><time>2026-04-24T14:18:15.99Z</time></trkpt><trkpt lat="43.0373429" lon="12.6929974"><ele>1104.25</ele><time>2026-04-24T14:18:16.98Z</time></trkpt><trkpt lat="43.037438" lon="12.6931357"><ele>1103.5</ele><time>2026-04-24T14:18:17.994Z</time></trkpt><trkpt lat="43.0375224" lon="12.6932665"><ele>1102.75</ele><time>2026-04-24T14:18:18.984Z</time></trkpt><trkpt lat="43.0376023" lon="12.6933833"><ele>1102.0</ele><time>2026-04-24T14:18:19.994Z</time></trkpt><trkpt lat="43.0376782" lon="12.6934777"><ele>1104.3333333333333</ele><time>2026-04-24T14:18:20.983Z</time></trkpt><trkpt lat="43.0377563" lon="12.6935339"><ele>1106.6666666666665</ele><time>2026-04-24T14:18:21.98Z</time></trkpt><trkpt lat="43.0378255" lon="12.6935593"><ele>1109.0</ele><time>2026-04-24T14:18:22.998Z</time></trkpt><trkpt lat="43.0378922" lon="12.6935236"><ele>1111.3333333333333</ele><time>2026-04-24T14:18:23.999Z</time></trkpt><trkpt lat="43.037947" lon="12.6934424"><ele>1113.6666666666667</ele><time>2026-04-24T14:18:24.985Z</time></trkpt><trkpt lat="43.0379721" lon="12.6933384"><ele>1116.0</ele><time>2026-04-24T14:18:25.991Z</time></trkpt><trkpt lat="43.0379773" lon="12.6931981"><ele>1116.0</ele><time>2026-04-24T14:18:26.994Z</time></trkpt><trkpt lat="43.0379711" lon="12.693019"><ele>1116.0</ele><time>2026-04-24T14:18:27.965Z</time></trkpt><trkpt lat="43.0379671" lon="12.6927964"><ele>1116.0</ele><time>2026-04-24T14:18:28.978Z</time></trkpt><trkpt lat="43.0379613" lon="12.6925385"><ele>1117.6666666666667</ele><time>2026-04-24T14:18:29.981Z</time></trkpt><trkpt lat="43.0379573" lon="12.692265"><ele>1119.3333333333335</ele><time>2026-04-24T14:18:30.982Z</time></trkpt><trkpt lat="43.0379516" lon="12.6919738"><ele>1121.0</ele><time>2026-04-24T14:18:31.978Z</time></trkpt><trkpt lat="43.0379429" lon="12.6916692"><ele>1123.0</ele><time>2026-04-24T14:18:32.976Z</time></trkpt><trkpt lat="43.0379399" lon="12.6913634"><ele>1125.0</ele><time>2026-04-24T14:18:33.98Z</time></trkpt><trkpt lat="43.0379373" lon="12.6910446"><ele>1127.5</ele><time>2026-04-24T14:18:34.972Z</time></trkpt><trkpt lat="43.0379402" lon="12.6907311"><ele>1130.0</ele><time>2026-04-24T14:18:35.988Z</time></trkpt><trkpt lat="43.03794" lon="12.6904287"><ele>1131.6666666666667</ele><time>2026-04-24T14:18:36.982Z</time></trkpt><trkpt lat="43.0379403" lon="12.6901277"><ele>1133.3333333333333</ele><time>2026-04-24T14:18:37.966Z</time></trkpt><trkpt lat="43.0379465" lon="12.6898292"><ele>1135.0</ele><time>2026-04-24T14:18:38.984Z</time></trkpt><trkpt lat="43.0379588" lon="12.689535"><ele>1136.0</ele><time>2026-04-24T14:18:39.994Z</time></trkpt><trkpt lat="43.0379874" lon="12.6892366"><ele>1137.0</ele><time>2026-04-24T14:18:40.991Z</time></trkpt><trkpt lat="43.0380253" lon="12.6889262"><ele>1137.0</ele><time>2026-04-24T14:18:41.961Z</time></trkpt><trkpt lat="43.0380757" lon="12.688604"><ele>1137.0</ele><time>2026-04-24T14:18:42.975Z</time></trkpt><trkpt lat="43.0381289" lon="12.6882821"><ele>1137.0</ele><time>2026-04-24T14:18:43.994Z</time></trkpt><trkpt lat="43.038182" lon="12.6879675"><ele>1137.0</ele><time>2026-04-24T14:18:44.986Z</time></trkpt><trkpt lat="43.0382398" lon="12.6876854"><ele>1137.6666666666667</ele><time>2026-04-24T14:18:45.983Z</time></trkpt><trkpt lat="43.0382899" lon="12.6874461"><ele>1138.3333333333335</ele><time>2026-04-24T14:18:46.993Z</time></trkpt><trkpt lat="43.0383388" lon="12.6872124"><ele>1139.0</ele><time>2026-04-24T14:18:48.005Z</time></trkpt><trkpt lat="43.0384021" lon="12.6869677"><ele>1145.6666666666667</ele><time>2026-04-24T14:18:48.987Z</time></trkpt><trkpt lat="43.0384706" lon="12.6867298"><ele>1152.3333333333333</ele><time>2026-04-24T14:18:49.975Z</time></trkpt><trkpt lat="43.0385356" lon="12.6865147"><ele>1159.0</ele><time>2026-04-24T14:18:50.987Z</time></trkpt><trkpt lat="43.0386056" lon="12.6863252"><ele>1159.0</ele><time>2026-04-24T14:18:51.994Z</time></trkpt><trkpt lat="43.0386821" lon="12.6861759"><ele>1159.0</ele><time>2026-04-24T14:18:52.976Z</time></trkpt><trkpt lat="43.0387832" lon="12.6860462"><ele>1159.0</ele><time>2026-04-24T14:18:53.981Z</time></trkpt><trkpt lat="43.0389136" lon="12.6859379"><ele>1159.0</ele><time>2026-04-24T14:18:54.993Z</time></trkpt><trkpt lat="43.0390776" lon="12.6858333"><ele>1162.6666666666665</ele><time>2026-04-24T14:18:55.975Z</time></trkpt><trkpt lat="43.039264" lon="12.6857286"><ele>1166.3333333333333</ele><time>2026-04-24T14:18:56.977Z</time></trkpt><trkpt lat="43.0394727" lon="12.6856067"><ele>1170.0</ele><time>2026-04-24T14:18:57.966Z</time></trkpt><trkpt lat="43.0396666" lon="12.6854921"><ele>1170.0</ele><time>2026-04-24T14:18:58.983Z</time></trkpt><trkpt lat="43.039829" lon="12.6853781"><ele>1170.0</ele><time>2026-04-24T14:18:59.978Z</time></trkpt><trkpt lat="43.0399678" lon="12.6852464"><ele>1170.0</ele><time>2026-04-24T14:19:00.996Z</time></trkpt><trkpt lat="43.0400855" lon="12.6850892"><ele>1171.6666666666667</ele><time>2026-04-24T14:19:01.985Z</time></trkpt><trkpt lat="43.0402022" lon="12.6848952"><ele>1173.3333333333335</ele><time>2026-04-24T14:19:02.987Z</time></trkpt><trkpt lat="43.0403195" lon="12.684664"><ele>1175.0</ele><time>2026-04-24T14:19:03.986Z</time></trkpt><trkpt lat="43.0404419" lon="12.6844462"><ele>1173.3333333333335</ele><time>2026-04-24T14:19:04.996Z</time></trkpt><trkpt lat="43.0405599" lon="12.6842528"><ele>1171.6666666666667</ele><time>2026-04-24T14:19:05.982Z</time></trkpt><trkpt lat="43.0406921" lon="12.6840752"><ele>1170.0</ele><time>2026-04-24T14:19:06.966Z</time></trkpt><trkpt lat="43.0408458" lon="12.6839022"><ele>1174.0</ele><time>2026-04-24T14:19:07.973Z</time></trkpt><trkpt lat="43.0410279" lon="12.6837325"><ele>1178.0</ele><time>2026-04-24T14:19:08.978Z</time></trkpt><trkpt lat="43.0412082" lon="12.6835592"><ele>1182.0</ele><time>2026-04-24T14:19:09.974Z</time></trkpt><trkpt lat="43.0413706" lon="12.6834111"><ele>1182.0</ele><time>2026-04-24T14:19:10.98Z</time></trkpt><trkpt lat="43.0414993" lon="12.683263"><ele>1182.0</ele><time>2026-04-24T14:19:11.98Z</time></trkpt><trkpt lat="43.0416104" lon="12.6830847"><ele>1182.0</ele><time>2026-04-24T14:19:13.004Z</time></trkpt><trkpt lat="43.0416929" lon="12.6828794"><ele>1186.0</ele><time>2026-04-24T14:19:13.975Z</time></trkpt><trkpt lat="43.0417563" lon="12.6826513"><ele>1190.0</ele><time>2026-04-24T14:19:14.977Z</time></trkpt><trkpt lat="43.0418085" lon="12.68241"><ele>1194.0</ele><time>2026-04-24T14:19:15.986Z</time></trkpt><trkpt lat="43.0418622" lon="12.6821559"><ele>1192.6666666666667</ele><time>2026-04-24T14:19:16.993Z</time></trkpt><trkpt lat="43.0419244" lon="12.6819013"><ele>1191.3333333333335</ele><time>2026-04-24T14:19:17.983Z</time></trkpt><trkpt lat="43.0420007" lon="12.6816835"><ele>1190.0</ele><time>2026-04-24T14:19:18.978Z</time></trkpt><trkpt lat="43.0420926" lon="12.6814887"><ele>1190.0</ele><time>2026-04-24T14:19:19.997Z</time></trkpt><trkpt lat="43.042204" lon="12.6813023"><ele>1190.0</ele><time>2026-04-24T14:19:20.976Z</time></trkpt><trkpt lat="43.0423279" lon="12.6811282"><ele>1190.0</ele><time>2026-04-24T14:19:21.973Z</time></trkpt><trkpt lat="43.0424678" lon="12.6809737"><ele>1194.3333333333335</ele><time>2026-04-24T14:19:22.985Z</time></trkpt><trkpt lat="43.0426363" lon="12.6808253"><ele>1198.6666666666667</ele><time>2026-04-24T14:19:23.976Z</time></trkpt><trkpt lat="43.0428245" lon="12.6806932"><ele>1203.0</ele><time>2026-04-24T14:19:24.978Z</time></trkpt><trkpt lat="43.0430332" lon="12.6805794"><ele>1203.0</ele><time>2026-04-24T14:19:25.971Z</time></trkpt><trkpt lat="43.043237" lon="12.6804936"><ele>1203.0</ele><time>2026-04-24T14:19:26.982Z</time></trkpt><trkpt lat="43.0434258" lon="12.6804388"><ele>1203.0</ele><time>2026-04-24T14:19:27.991Z</time></trkpt><trkpt lat="43.0436131" lon="12.6804159"><ele>1206.6666666666667</ele><time>2026-04-24T14:19:28.984Z</time></trkpt><trkpt lat="43.0437999" lon="12.680417"><ele>1210.3333333333335</ele><time>2026-04-24T14:19:29.993Z</time></trkpt><trkpt lat="43.0439539" lon="12.6804171"><ele>1214.0</ele><time>2026-04-24T14:19:30.977Z</time></trkpt><trkpt lat="43.0441005" lon="12.6803816"><ele>1215.6666666666667</ele><time>2026-04-24T14:19:32.001Z</time></trkpt><trkpt lat="43.0442383" lon="12.6802719"><ele>1217.3333333333333</ele><time>2026-04-24T14:19:32.984Z</time></trkpt><trkpt lat="43.044377" lon="12.6801334"><ele>1219.0</ele><time>2026-04-24T14:19:33.99Z</time></trkpt><trkpt lat="43.0445268" lon="12.6799917"><ele>1219.6666666666665</ele><time>2026-04-24T14:19:34.994Z</time></trkpt><trkpt lat="43.0446802" lon="12.6798483"><ele>1220.3333333333333</ele><time>2026-04-24T14:19:35.995Z</time></trkpt><trkpt lat="43.0448096" lon="12.6797137"><ele>1221.0</ele><time>2026-04-24T14:19:36.975Z</time></trkpt><trkpt lat="43.0449171" lon="12.679547"><ele>1224.3333333333333</ele><time>2026-04-24T14:19:37.995Z</time></trkpt><trkpt lat="43.0450007" lon="12.6793412"><ele>1227.6666666666665</ele><time>2026-04-24T14:19:38.997Z</time></trkpt><trkpt lat="43.0450682" lon="12.679104"><ele>1231.0</ele><time>2026-04-24T14:19:39.983Z</time></trkpt><trkpt lat="43.0451355" lon="12.6788342"><ele>1231.0</ele><time>2026-04-24T14:19:40.972Z</time></trkpt><trkpt lat="43.0452107" lon="12.678606"><ele>1231.0</ele><time>2026-04-24T14:19:41.963Z</time></trkpt><trkpt lat="43.0452872" lon="12.6784319"><ele>1231.0</ele><time>2026-04-24T14:19:42.966Z</time></trkpt><trkpt lat="43.0453844" lon="12.6782694"><ele>1231.0</ele><time>2026-04-24T14:19:43.968Z</time></trkpt><trkpt lat="43.0455033" lon="12.6781095"><ele>1231.0</ele><time>2026-04-24T14:19:44.975Z</time></trkpt><trkpt lat="43.0456312" lon="12.6779454"><ele>1231.0</ele><time>2026-04-24T14:19:45.994Z</time></trkpt><trkpt lat="43.0457584" lon="12.6777693"><ele>1236.6666666666665</ele><time>2026-04-24T14:19:46.981Z</time></trkpt><trkpt lat="43.0458915" lon="12.6775896"><ele>1242.3333333333333</ele><time>2026-04-24T14:19:47.982Z</time></trkpt><trkpt lat="43.0460392" lon="12.6773962"><ele>1248.0</ele><time>2026-04-24T14:19:48.988Z</time></trkpt><trkpt lat="43.0461779" lon="12.6772078"><ele>1248.0</ele><time>2026-04-24T14:19:50.003Z</time></trkpt><trkpt lat="43.0463026" lon="12.677031"><ele>1248.0</ele><time>2026-04-24T14:19:50.973Z</time></trkpt><trkpt lat="43.0464227" lon="12.6768646"><ele>1248.0</ele><time>2026-04-24T14:19:51.986Z</time></trkpt><trkpt lat="43.0465492" lon="12.6767075"><ele>1249.6666666666667</ele><time>2026-04-24T14:19:53.002Z</time></trkpt><trkpt lat="43.0466828" lon="12.6765528"><ele>1251.3333333333335</ele><time>2026-04-24T14:19:53.978Z</time></trkpt><trkpt lat="43.046827" lon="12.6764051"><ele>1253.0</ele><time>2026-04-24T14:19:54.977Z</time></trkpt><trkpt lat="43.0469805" lon="12.6762739"><ele>1253.0</ele><time>2026-04-24T14:19:55.978Z</time></trkpt><trkpt lat="43.0471205" lon="12.6761563"><ele>1253.0</ele><time>2026-04-24T14:19:56.993Z</time></trkpt><trkpt lat="43.0472429" lon="12.6760517"><ele>1253.0</ele><time>2026-04-24T14:19:57.984Z</time></trkpt><trkpt lat="43.047379" lon="12.6759797"><ele>1252.3333333333335</ele><time>2026-04-24T14:19:59.001Z</time></trkpt><trkpt lat="43.0475435" lon="12.6759409"><ele>1251.6666666666667</ele><time>2026-04-24T14:20:00.001Z</time></trkpt><trkpt lat="43.0477233" lon="12.6759055"><ele>1251.0</ele><time>2026-04-24T14:20:00.98Z</time></trkpt><trkpt lat="43.0479046" lon="12.675865"><ele>1251.0</ele><time>2026-04-24T14:20:01.979Z</time></trkpt><trkpt lat="43.0480695" lon="12.6757674"><ele>1251.0</ele><time>2026-04-24T14:20:02.987Z</time></trkpt><trkpt lat="43.0482137" lon="12.6756212"><ele>1251.0</ele><time>2026-04-24T14:20:04Z</time></trkpt><trkpt lat="43.0483591" lon="12.6754518"><ele>1251.5</ele><time>2026-04-24T14:20:04.984Z</time></trkpt><trkpt lat="43.0484868" lon="12.675328"><ele>1252.0</ele><time>2026-04-24T14:20:05.981Z</time></trkpt><trkpt lat="43.0485943" lon="12.675233"><ele>1252.5</ele><time>2026-04-24T14:20:06.994Z</time></trkpt><trkpt lat="43.0487139" lon="12.675193"><ele>1253.0</ele><time>2026-04-24T14:20:07.988Z</time></trkpt><trkpt lat="43.0488563" lon="12.6752001"><ele>1253.0</ele><time>2026-04-24T14:20:08.976Z</time></trkpt><trkpt lat="43.0490206" lon="12.6752222"><ele>1253.0</ele><time>2026-04-24T14:20:09.969Z</time></trkpt><trkpt lat="43.049177" lon="12.675248"><ele>1253.0</ele><time>2026-04-24T14:20:10.991Z</time></trkpt><trkpt lat="43.0493175" lon="12.6752984"><ele>1253.0</ele><time>2026-04-24T14:20:11.971Z</time></trkpt><trkpt lat="43.0494469" lon="12.6753827"><ele>1253.0</ele><time>2026-04-24T14:20:12.965Z</time></trkpt><trkpt lat="43.0500326" lon="12.6759433"><ele>1252.0</ele><time>2026-04-24T14:20:16.987Z</time></trkpt><trkpt lat="43.0502055" lon="12.6760375"><ele>1251.0</ele><time>2026-04-24T14:20:17.999Z</time></trkpt><trkpt lat="43.0503671" lon="12.6761298"><ele>1250.0</ele><time>2026-04-24T14:20:18.995Z</time></trkpt><trkpt lat="43.0505256" lon="12.6762556"><ele>1249.0</ele><time>2026-04-24T14:20:19.969Z</time></trkpt><trkpt lat="43.0506659" lon="12.6764135"><ele>1248.0</ele><time>2026-04-24T14:20:20.997Z</time></trkpt><trkpt lat="43.0507994" lon="12.6765798"><ele>1247.0</ele><time>2026-04-24T14:20:21.968Z</time></trkpt><trkpt lat="43.0509241" lon="12.6767412"><ele>1246.0</ele><time>2026-04-24T14:20:22.99Z</time></trkpt><trkpt lat="43.0510403" lon="12.6768643"><ele>1245.0</ele><time>2026-04-24T14:20:23.996Z</time></trkpt><trkpt lat="43.051154" lon="12.6769603"><ele>1244.0</ele><time>2026-04-24T14:20:24.985Z</time></trkpt><trkpt lat="43.0512701" lon="12.6770015"><ele>1243.0</ele><time>2026-04-24T14:20:25.976Z</time></trkpt><trkpt lat="43.0513853" lon="12.6769971"><ele>1243.0</ele><time>2026-04-24T14:20:26.988Z</time></trkpt><trkpt lat="43.0514926" lon="12.676942"><ele>1243.0</ele><time>2026-04-24T14:20:27.984Z</time></trkpt><trkpt lat="43.0516006" lon="12.6768351"><ele>1243.0</ele><time>2026-04-24T14:20:29Z</time></trkpt><trkpt lat="43.0517173" lon="12.6767006"><ele>1243.0</ele><time>2026-04-24T14:20:29.963Z</time></trkpt><trkpt lat="43.0518642" lon="12.6765385"><ele>1248.3333333333333</ele><time>2026-04-24T14:20:30.967Z</time></trkpt><trkpt lat="43.0520063" lon="12.6763803"><ele>1253.6666666666667</ele><time>2026-04-24T14:20:31.981Z</time></trkpt><trkpt lat="43.0521402" lon="12.6762283"><ele>1259.0</ele><time>2026-04-24T14:20:32.984Z</time></trkpt><trkpt lat="43.052274" lon="12.6760793"><ele>1262.0</ele><time>2026-04-24T14:20:33.99Z</time></trkpt><trkpt lat="43.0524315" lon="12.6759165"><ele>1265.0</ele><time>2026-04-24T14:20:34.98Z</time></trkpt><trkpt lat="43.0525932" lon="12.6757454"><ele>1268.0</ele><time>2026-04-24T14:20:35.987Z</time></trkpt><trkpt lat="43.0527293" lon="12.6755694"><ele>1268.3333333333335</ele><time>2026-04-24T14:20:36.987Z</time></trkpt><trkpt lat="43.0528415" lon="12.6753692"><ele>1268.6666666666667</ele><time>2026-04-24T14:20:37.958Z</time></trkpt><trkpt lat="43.052935" lon="12.675173"><ele>1269.0</ele><time>2026-04-24T14:20:38.99Z</time></trkpt><trkpt lat="43.0530123" lon="12.6749877"><ele>1268.6000000000001</ele><time>2026-04-24T14:20:39.989Z</time></trkpt><trkpt lat="43.0530795" lon="12.6748403"><ele>1268.2</ele><time>2026-04-24T14:20:40.983Z</time></trkpt><trkpt lat="43.0531472" lon="12.6747276"><ele>1267.8000000000002</ele><time>2026-04-24T14:20:41.965Z</time></trkpt><trkpt lat="43.0532287" lon="12.6746596"><ele>1267.4</ele><time>2026-04-24T14:20:42.972Z</time></trkpt><trkpt lat="43.0533259" lon="12.6746365"><ele>1267.0</ele><time>2026-04-24T14:20:43.986Z</time></trkpt><trkpt lat="43.0534528" lon="12.6746542"><ele>1269.0</ele><time>2026-04-24T14:20:44.973Z</time></trkpt><trkpt lat="43.0536044" lon="12.6747181"><ele>1271.0</ele><time>2026-04-24T14:20:45.979Z</time></trkpt><trkpt lat="43.0537838" lon="12.6748119"><ele>1273.0</ele><time>2026-04-24T14:20:46.987Z</time></trkpt><trkpt lat="43.0539792" lon="12.6748945"><ele>1270.3333333333333</ele><time>2026-04-24T14:20:47.965Z</time></trkpt><trkpt lat="43.0541793" lon="12.6749476"><ele>1267.6666666666667</ele><time>2026-04-24T14:20:48.982Z</time></trkpt><trkpt lat="43.0543609" lon="12.6749805"><ele>1265.0</ele><time>2026-04-24T14:20:49.974Z</time></trkpt><trkpt lat="43.0545247" lon="12.6750082"><ele>1265.0</ele><time>2026-04-24T14:20:50.994Z</time></trkpt><trkpt lat="43.0546767" lon="12.6750141"><ele>1265.0</ele><time>2026-04-24T14:20:51.992Z</time></trkpt><trkpt lat="43.0548077" lon="12.6749908"><ele>1265.0</ele><time>2026-04-24T14:20:53.002Z</time></trkpt><trkpt lat="43.0549213" lon="12.6749417"><ele>1265.0</ele><time>2026-04-24T14:20:53.988Z</time></trkpt><trkpt lat="43.0550077" lon="12.6748502"><ele>1263.25</ele><time>2026-04-24T14:20:54.994Z</time></trkpt><trkpt lat="43.0550775" lon="12.6747126"><ele>1261.5</ele><time>2026-04-24T14:20:55.969Z</time></trkpt><trkpt lat="43.055136" lon="12.674534"><ele>1259.75</ele><time>2026-04-24T14:20:56.995Z</time></trkpt><trkpt lat="43.0551793" lon="12.6743169"><ele>1258.0</ele><time>2026-04-24T14:20:57.99Z</time></trkpt><trkpt lat="43.0552208" lon="12.6740718"><ele>1258.0</ele><time>2026-04-24T14:20:58.972Z</time></trkpt><trkpt lat="43.0552639" lon="12.6738014"><ele>1258.0</ele><time>2026-04-24T14:20:59.984Z</time></trkpt><trkpt lat="43.0553186" lon="12.6735234"><ele>1258.0</ele><time>2026-04-24T14:21:00.982Z</time></trkpt><trkpt lat="43.0553804" lon="12.6732143"><ele>1258.0</ele><time>2026-04-24T14:21:01.986Z</time></trkpt><trkpt lat="43.0554524" lon="12.6728733"><ele>1258.0</ele><time>2026-04-24T14:21:02.981Z</time></trkpt><trkpt lat="43.0555275" lon="12.6725002"><ele>1258.0</ele><time>2026-04-24T14:21:03.984Z</time></trkpt><trkpt lat="43.055603" lon="12.6721273"><ele>1258.0</ele><time>2026-04-24T14:21:04.981Z</time></trkpt><trkpt lat="43.0556702" lon="12.6717745"><ele>1258.5</ele><time>2026-04-24T14:21:05.982Z</time></trkpt><trkpt lat="43.0557294" lon="12.6714372"><ele>1259.0</ele><time>2026-04-24T14:21:06.98Z</time></trkpt><trkpt lat="43.0557847" lon="12.6710874"><ele>1263.5</ele><time>2026-04-24T14:21:07.976Z</time></trkpt><trkpt lat="43.0558331" lon="12.6707215"><ele>1268.0</ele><time>2026-04-24T14:21:08.979Z</time></trkpt><trkpt lat="43.0558617" lon="12.6703435"><ele>1266.0</ele><time>2026-04-24T14:21:09.966Z</time></trkpt><trkpt lat="43.0558814" lon="12.6699869"><ele>1264.0</ele><time>2026-04-24T14:21:10.97Z</time></trkpt><trkpt lat="43.0558911" lon="12.6696771"><ele>1263.6666666666665</ele><time>2026-04-24T14:21:11.988Z</time></trkpt><trkpt lat="43.0558989" lon="12.6694307"><ele>1263.3333333333333</ele><time>2026-04-24T14:21:12.99Z</time></trkpt><trkpt lat="43.0559051" lon="12.6691896"><ele>1263.0</ele><time>2026-04-24T14:21:13.971Z</time></trkpt><trkpt lat="43.0559115" lon="12.6689473"><ele>1263.0</ele><time>2026-04-24T14:21:14.976Z</time></trkpt><trkpt lat="43.0559238" lon="12.6687199"><ele>1263.0</ele><time>2026-04-24T14:21:15.977Z</time></trkpt><trkpt lat="43.0559503" lon="12.6685425"><ele>1263.0</ele><time>2026-04-24T14:21:16.98Z</time></trkpt><trkpt lat="43.0559926" lon="12.6684184"><ele>1263.0</ele><time>2026-04-24T14:21:17.972Z</time></trkpt><trkpt lat="43.05606" lon="12.6683474"><ele>1262.6</ele><time>2026-04-24T14:21:18.973Z</time></trkpt><trkpt lat="43.0561467" lon="12.6683021"><ele>1262.1999999999998</ele><time>2026-04-24T14:21:19.977Z</time></trkpt><trkpt lat="43.0562526" lon="12.6683111"><ele>1261.8</ele><time>2026-04-24T14:21:20.983Z</time></trkpt><trkpt lat="43.0563681" lon="12.6683499"><ele>1261.3999999999999</ele><time>2026-04-24T14:21:21.968Z</time></trkpt><trkpt lat="43.0564657" lon="12.668396"><ele>1261.0</ele><time>2026-04-24T14:21:22.985Z</time></trkpt><trkpt lat="43.0565419" lon="12.6684318"><ele>1261.0</ele><time>2026-04-24T14:21:23.984Z</time></trkpt><trkpt lat="43.0566037" lon="12.6684724"><ele>1261.0</ele><time>2026-04-24T14:21:24.982Z</time></trkpt><trkpt lat="43.056692" lon="12.6685221"><ele>1261.0</ele><time>2026-04-24T14:21:26.993Z</time></trkpt><trkpt lat="43.0567615" lon="12.6685573"><ele>1261.0</ele><time>2026-04-24T14:21:28.975Z</time></trkpt><trkpt lat="43.0568282" lon="12.6685923"><ele>1261.0</ele><time>2026-04-24T14:22:36.002Z</time></trkpt><trkpt lat="43.0569195" lon="12.6686651"><ele>1261.0</ele><time>2026-04-24T14:22:38.002Z</time></trkpt><trkpt lat="43.0569775" lon="12.6687114"><ele>1262.8333333333333</ele><time>2026-04-24T14:22:38.976Z</time></trkpt><trkpt lat="43.0570349" lon="12.66875"><ele>1264.6666666666665</ele><time>2026-04-24T14:22:39.966Z</time></trkpt><trkpt lat="43.0571307" lon="12.6688119"><ele>1266.5</ele><time>2026-04-24T14:22:41.964Z</time></trkpt><trkpt lat="43.0572122" lon="12.6688703"><ele>1268.3333333333333</ele><time>2026-04-24T14:22:43.971Z</time></trkpt><trkpt lat="43.0573121" lon="12.6689344"><ele>1270.1666666666667</ele><time>2026-04-24T14:22:45.985Z</time></trkpt><trkpt lat="43.0573727" lon="12.6689758"><ele>1272.0</ele><time>2026-04-24T14:22:46.979Z</time></trkpt><trkpt lat="43.0574398" lon="12.6690249"><ele>1272.4</ele><time>2026-04-24T14:22:47.985Z</time></trkpt><trkpt lat="43.0575127" lon="12.6690759"><ele>1272.8000000000002</ele><time>2026-04-24T14:22:48.997Z</time></trkpt><trkpt lat="43.0575954" lon="12.6691228"><ele>1273.2</ele><time>2026-04-24T14:22:49.99Z</time></trkpt><trkpt lat="43.0576879" lon="12.6691829"><ele>1273.6000000000001</ele><time>2026-04-24T14:22:50.992Z</time></trkpt><trkpt lat="43.057794" lon="12.6692498"><ele>1274.0</ele><time>2026-04-24T14:22:51.992Z</time></trkpt><trkpt lat="43.0579096" lon="12.6693285"><ele>1274.0</ele><time>2026-04-24T14:22:52.994Z</time></trkpt><trkpt lat="43.0580321" lon="12.6694025"><ele>1274.0</ele><time>2026-04-24T14:22:53.966Z</time></trkpt><trkpt lat="43.0581603" lon="12.6694848"><ele>1274.0</ele><time>2026-04-24T14:22:54.989Z</time></trkpt><trkpt lat="43.0582864" lon="12.6695692"><ele>1274.0</ele><time>2026-04-24T14:22:55.991Z</time></trkpt><trkpt lat="43.0583962" lon="12.66966"><ele>1275.25</ele><time>2026-04-24T14:22:56.995Z</time></trkpt><trkpt lat="43.0584943" lon="12.6697612"><ele>1276.5</ele><time>2026-04-24T14:22:57.981Z</time></trkpt><trkpt lat="43.0585894" lon="12.6698918"><ele>1277.75</ele><time>2026-04-24T14:22:58.988Z</time></trkpt><trkpt lat="43.0586815" lon="12.6700368"><ele>1279.0</ele><time>2026-04-24T14:22:59.993Z</time></trkpt><trkpt lat="43.0587758" lon="12.6701948"><ele>1280.0</ele><time>2026-04-24T14:23:00.982Z</time></trkpt><trkpt lat="43.0588801" lon="12.6703665"><ele>1281.0</ele><time>2026-04-24T14:23:01.99Z</time></trkpt><trkpt lat="43.0589877" lon="12.6705501"><ele>1282.0</ele><time>2026-04-24T14:23:02.992Z</time></trkpt><trkpt lat="43.0590987" lon="12.6707404"><ele>1277.3333333333333</ele><time>2026-04-24T14:23:03.964Z</time></trkpt><trkpt lat="43.0592059" lon="12.6709213"><ele>1272.6666666666667</ele><time>2026-04-24T14:23:04.987Z</time></trkpt><trkpt lat="43.0593161" lon="12.6710967"><ele>1268.0</ele><time>2026-04-24T14:23:05.982Z</time></trkpt><trkpt lat="43.0594238" lon="12.6712762"><ele>1268.0</ele><time>2026-04-24T14:23:06.983Z</time></trkpt><trkpt lat="43.059531" lon="12.671446"><ele>1268.0</ele><time>2026-04-24T14:23:07.983Z</time></trkpt><trkpt lat="43.05965" lon="12.6716087"><ele>1268.0</ele><time>2026-04-24T14:23:08.998Z</time></trkpt><trkpt lat="43.0597846" lon="12.6717691"><ele>1268.0</ele><time>2026-04-24T14:23:09.983Z</time></trkpt><trkpt lat="43.0599344" lon="12.6719182"><ele>1268.0</ele><time>2026-04-24T14:23:10.975Z</time></trkpt><trkpt lat="43.0600905" lon="12.6720527"><ele>1268.0</ele><time>2026-04-24T14:23:11.977Z</time></trkpt><trkpt lat="43.0602533" lon="12.6721713"><ele>1265.0</ele><time>2026-04-24T14:23:12.979Z</time></trkpt><trkpt lat="43.0604095" lon="12.6722861"><ele>1262.0</ele><time>2026-04-24T14:23:13.967Z</time></trkpt><trkpt lat="43.0605604" lon="12.6723997"><ele>1259.0</ele><time>2026-04-24T14:23:14.983Z</time></trkpt><trkpt lat="43.0607128" lon="12.6725121"><ele>1260.6666666666667</ele><time>2026-04-24T14:23:15.993Z</time></trkpt><trkpt lat="43.0608628" lon="12.6726184"><ele>1262.3333333333333</ele><time>2026-04-24T14:23:16.996Z</time></trkpt><trkpt lat="43.0610074" lon="12.6727201"><ele>1264.0</ele><time>2026-04-24T14:23:17.985Z</time></trkpt><trkpt lat="43.0611519" lon="12.672828"><ele>1264.0</ele><time>2026-04-24T14:23:18.989Z</time></trkpt><trkpt lat="43.0612937" lon="12.6729359"><ele>1264.0</ele><time>2026-04-24T14:23:19.995Z</time></trkpt><trkpt lat="43.0614337" lon="12.6730336"><ele>1264.0</ele><time>2026-04-24T14:23:20.979Z</time></trkpt><trkpt lat="43.061567" lon="12.6731247"><ele>1264.0</ele><time>2026-04-24T14:23:21.965Z</time></trkpt><trkpt lat="43.0617021" lon="12.6732141"><ele>1264.0</ele><time>2026-04-24T14:23:22.995Z</time></trkpt><trkpt lat="43.0618481" lon="12.6733019"><ele>1264.0</ele><time>2026-04-24T14:23:23.994Z</time></trkpt><trkpt lat="43.0620055" lon="12.6733775"><ele>1264.0</ele><time>2026-04-24T14:23:24.982Z</time></trkpt><trkpt lat="43.0621635" lon="12.673446"><ele>1264.0</ele><time>2026-04-24T14:23:25.99Z</time></trkpt><trkpt lat="43.0623183" lon="12.6735118"><ele>1264.0</ele><time>2026-04-24T14:23:26.995Z</time></trkpt><trkpt lat="43.0624641" lon="12.6735767"><ele>1263.25</ele><time>2026-04-24T14:23:27.985Z</time></trkpt><trkpt lat="43.0626039" lon="12.673636"><ele>1262.5</ele><time>2026-04-24T14:23:28.989Z</time></trkpt><trkpt lat="43.0627429" lon="12.6737026"><ele>1261.75</ele><time>2026-04-24T14:23:29.994Z</time></trkpt><trkpt lat="43.0628751" lon="12.6737674"><ele>1261.0</ele><time>2026-04-24T14:23:30.995Z</time></trkpt><trkpt lat="43.0629999" lon="12.6738236"><ele>1261.0</ele><time>2026-04-24T14:23:32.005Z</time></trkpt><trkpt lat="43.0631208" lon="12.6738723"><ele>1261.0</ele><time>2026-04-24T14:23:32.98Z</time></trkpt><trkpt lat="43.0632508" lon="12.673909"><ele>1261.0</ele><time>2026-04-24T14:23:33.977Z</time></trkpt><trkpt lat="43.0633872" lon="12.6739271"><ele>1261.0</ele><time>2026-04-24T14:23:34.991Z</time></trkpt><trkpt lat="43.0635297" lon="12.6739191"><ele>1259.5</ele><time>2026-04-24T14:23:35.975Z</time></trkpt><trkpt lat="43.0636778" lon="12.6739001"><ele>1258.0</ele><time>2026-04-24T14:23:36.987Z</time></trkpt><trkpt lat="43.0638264" lon="12.6738822"><ele>1256.5</ele><time>2026-04-24T14:23:37.983Z</time></trkpt><trkpt lat="43.0639739" lon="12.67386"><ele>1255.0</ele><time>2026-04-24T14:23:38.995Z</time></trkpt><trkpt lat="43.0641165" lon="12.6738408"><ele>1254.75</ele><time>2026-04-24T14:23:39.977Z</time></trkpt><trkpt lat="43.0642506" lon="12.6738135"><ele>1254.5</ele><time>2026-04-24T14:23:41Z</time></trkpt><trkpt lat="43.0643794" lon="12.6737757"><ele>1254.25</ele><time>2026-04-24T14:23:41.961Z</time></trkpt><trkpt lat="43.0645055" lon="12.6737139"><ele>1254.0</ele><time>2026-04-24T14:23:42.968Z</time></trkpt><trkpt lat="43.0646197" lon="12.6736241"><ele>1252.6666666666667</ele><time>2026-04-24T14:23:43.982Z</time></trkpt><trkpt lat="43.0647311" lon="12.6734881"><ele>1251.3333333333335</ele><time>2026-04-24T14:23:44.962Z</time></trkpt><trkpt lat="43.064838" lon="12.6733419"><ele>1250.0</ele><time>2026-04-24T14:23:45.988Z</time></trkpt><trkpt lat="43.0649487" lon="12.673188"><ele>1249.6666666666667</ele><time>2026-04-24T14:23:46.986Z</time></trkpt><trkpt lat="43.0650613" lon="12.6730245"><ele>1249.3333333333333</ele><time>2026-04-24T14:23:47.998Z</time></trkpt><trkpt lat="43.0651808" lon="12.6728476"><ele>1249.0</ele><time>2026-04-24T14:23:48.986Z</time></trkpt><trkpt lat="43.0653047" lon="12.6726701"><ele>1247.3333333333333</ele><time>2026-04-24T14:23:50.003Z</time></trkpt><trkpt lat="43.0654354" lon="12.6724808"><ele>1245.6666666666667</ele><time>2026-04-24T14:23:50.973Z</time></trkpt><trkpt lat="43.0655799" lon="12.6723096"><ele>1244.0</ele><time>2026-04-24T14:23:51.978Z</time></trkpt><trkpt lat="43.0657071" lon="12.6721122"><ele>1242.6666666666667</ele><time>2026-04-24T14:23:53.001Z</time></trkpt><trkpt lat="43.0658325" lon="12.6719111"><ele>1241.3333333333333</ele><time>2026-04-24T14:23:53.972Z</time></trkpt><trkpt lat="43.0659621" lon="12.6717136"><ele>1240.0</ele><time>2026-04-24T14:23:54.976Z</time></trkpt><trkpt lat="43.0660904" lon="12.6715227"><ele>1240.0</ele><time>2026-04-24T14:23:55.987Z</time></trkpt><trkpt lat="43.0662211" lon="12.6713309"><ele>1240.0</ele><time>2026-04-24T14:23:57Z</time></trkpt><trkpt lat="43.0663492" lon="12.6711339"><ele>1240.0</ele><time>2026-04-24T14:23:57.992Z</time></trkpt><trkpt lat="43.0664821" lon="12.6709424"><ele>1238.3333333333333</ele><time>2026-04-24T14:23:58.996Z</time></trkpt><trkpt lat="43.0666175" lon="12.6707498"><ele>1236.6666666666667</ele><time>2026-04-24T14:23:59.989Z</time></trkpt><trkpt lat="43.0667555" lon="12.670556"><ele>1235.0</ele><time>2026-04-24T14:24:00.985Z</time></trkpt><trkpt lat="43.0668903" lon="12.6703618"><ele>1233.0</ele><time>2026-04-24T14:24:01.981Z</time></trkpt><trkpt lat="43.067018" lon="12.6701758"><ele>1231.0</ele><time>2026-04-24T14:24:03.005Z</time></trkpt><trkpt lat="43.0671473" lon="12.6699919"><ele>1229.0</ele><time>2026-04-24T14:24:04.005Z</time></trkpt><trkpt lat="43.067273" lon="12.6698087"><ele>1229.0</ele><time>2026-04-24T14:24:04.991Z</time></trkpt><trkpt lat="43.0673926" lon="12.6696328"><ele>1229.0</ele><time>2026-04-24T14:24:05.98Z</time></trkpt><trkpt lat="43.067504" lon="12.6694672"><ele>1229.0</ele><time>2026-04-24T14:24:06.997Z</time></trkpt><trkpt lat="43.0676143" lon="12.6693118"><ele>1227.75</ele><time>2026-04-24T14:24:07.993Z</time></trkpt><trkpt lat="43.0677196" lon="12.6691724"><ele>1226.5</ele><time>2026-04-24T14:24:08.982Z</time></trkpt><trkpt lat="43.0678162" lon="12.669024"><ele>1225.25</ele><time>2026-04-24T14:24:09.986Z</time></trkpt><trkpt lat="43.0679058" lon="12.6688898"><ele>1224.0</ele><time>2026-04-24T14:24:10.995Z</time></trkpt><trkpt lat="43.067989" lon="12.6687717"><ele>1224.0</ele><time>2026-04-24T14:24:11.978Z</time></trkpt><trkpt lat="43.0680732" lon="12.6686816"><ele>1224.0</ele><time>2026-04-24T14:24:12.965Z</time></trkpt><trkpt lat="43.0681714" lon="12.6686234"><ele>1224.0</ele><time>2026-04-24T14:24:13.983Z</time></trkpt><trkpt lat="43.0682996" lon="12.6685929"><ele>1224.0</ele><time>2026-04-24T14:24:14.981Z</time></trkpt><trkpt lat="43.0684527" lon="12.6685748"><ele>1221.5</ele><time>2026-04-24T14:24:15.972Z</time></trkpt><trkpt lat="43.0686117" lon="12.6685556"><ele>1219.0</ele><time>2026-04-24T14:24:16.963Z</time></trkpt><trkpt lat="43.0691025" lon="12.6685817"><ele>1220.5</ele><time>2026-04-24T14:24:21.009Z</time></trkpt><trkpt lat="43.06921" lon="12.6686726"><ele>1222.0</ele><time>2026-04-24T14:24:22.001Z</time></trkpt><trkpt lat="43.0693343" lon="12.6687934"><ele>1223.5</ele><time>2026-04-24T14:24:22.983Z</time></trkpt><trkpt lat="43.0694534" lon="12.6689068"><ele>1225.0</ele><time>2026-04-24T14:24:23.987Z</time></trkpt><trkpt lat="43.0695734" lon="12.6690145"><ele>1225.0</ele><time>2026-04-24T14:24:25.001Z</time></trkpt><trkpt lat="43.0696759" lon="12.6691191"><ele>1225.0</ele><time>2026-04-24T14:24:26.005Z</time></trkpt><trkpt lat="43.0697641" lon="12.6692079"><ele>1225.0</ele><time>2026-04-24T14:24:26.996Z</time></trkpt><trkpt lat="43.0698487" lon="12.6692807"><ele>1225.0</ele><time>2026-04-24T14:24:27.987Z</time></trkpt><trkpt lat="43.0699394" lon="12.6693363"><ele>1225.0</ele><time>2026-04-24T14:24:29.003Z</time></trkpt><trkpt lat="43.0700273" lon="12.6693649"><ele>1222.25</ele><time>2026-04-24T14:24:29.985Z</time></trkpt><trkpt lat="43.0701343" lon="12.6693476"><ele>1219.5</ele><time>2026-04-24T14:24:30.994Z</time></trkpt><trkpt lat="43.0702455" lon="12.6692982"><ele>1216.75</ele><time>2026-04-24T14:24:31.981Z</time></trkpt><trkpt lat="43.0703623" lon="12.6692166"><ele>1214.0</ele><time>2026-04-24T14:24:33.001Z</time></trkpt><trkpt lat="43.0704716" lon="12.6691151"><ele>1214.0</ele><time>2026-04-24T14:24:33.978Z</time></trkpt><trkpt lat="43.0705725" lon="12.6690081"><ele>1214.0</ele><time>2026-04-24T14:24:34.989Z</time></trkpt><trkpt lat="43.0706765" lon="12.6689042"><ele>1214.0</ele><time>2026-04-24T14:24:36Z</time></trkpt><trkpt lat="43.0707761" lon="12.6688149"><ele>1214.0</ele><time>2026-04-24T14:24:37.006Z</time></trkpt><trkpt lat="43.0708623" lon="12.6687279"><ele>1211.0</ele><time>2026-04-24T14:24:37.965Z</time></trkpt><trkpt lat="43.0709355" lon="12.6686229"><ele>1208.0</ele><time>2026-04-24T14:24:38.999Z</time></trkpt><trkpt lat="43.0709966" lon="12.6685003"><ele>1205.0</ele><time>2026-04-24T14:24:39.997Z</time></trkpt><trkpt lat="43.0710286" lon="12.668333"><ele>1202.0</ele><time>2026-04-24T14:24:40.997Z</time></trkpt><trkpt lat="43.0710495" lon="12.6681381"><ele>1202.0</ele><time>2026-04-24T14:24:41.969Z</time></trkpt><trkpt lat="43.0710679" lon="12.6679127"><ele>1202.0</ele><time>2026-04-24T14:24:42.961Z</time></trkpt><trkpt lat="43.0710907" lon="12.6676817"><ele>1202.0</ele><time>2026-04-24T14:24:43.984Z</time></trkpt><trkpt lat="43.0711113" lon="12.6674408"><ele>1200.6666666666667</ele><time>2026-04-24T14:24:44.977Z</time></trkpt><trkpt lat="43.0711332" lon="12.6672129"><ele>1199.3333333333333</ele><time>2026-04-24T14:24:45.979Z</time></trkpt><trkpt lat="43.0711585" lon="12.6669948"><ele>1198.0</ele><time>2026-04-24T14:24:46.982Z</time></trkpt><trkpt lat="43.0711824" lon="12.666777"><ele>1197.25</ele><time>2026-04-24T14:24:47.981Z</time></trkpt><trkpt lat="43.0712083" lon="12.6665694"><ele>1196.5</ele><time>2026-04-24T14:24:48.989Z</time></trkpt><trkpt lat="43.0712284" lon="12.6663756"><ele>1195.75</ele><time>2026-04-24T14:24:49.979Z</time></trkpt><trkpt lat="43.0712388" lon="12.6661865"><ele>1195.0</ele><time>2026-04-24T14:24:50.986Z</time></trkpt><trkpt lat="43.0712393" lon="12.6660001"><ele>1193.3333333333333</ele><time>2026-04-24T14:24:51.994Z</time></trkpt><trkpt lat="43.0712148" lon="12.6657887"><ele>1191.6666666666667</ele><time>2026-04-24T14:24:52.973Z</time></trkpt><trkpt lat="43.0711867" lon="12.6655637"><ele>1190.0</ele><time>2026-04-24T14:24:53.992Z</time></trkpt><trkpt lat="43.0711531" lon="12.6653366"><ele>1187.0</ele><time>2026-04-24T14:24:54.999Z</time></trkpt><trkpt lat="43.0711233" lon="12.6651127"><ele>1184.0</ele><time>2026-04-24T14:24:55.979Z</time></trkpt><trkpt lat="43.0710848" lon="12.6648896"><ele>1181.0</ele><time>2026-04-24T14:24:56.978Z</time></trkpt><trkpt lat="43.0710481" lon="12.664682"><ele>1181.0</ele><time>2026-04-24T14:24:57.998Z</time></trkpt><trkpt lat="43.0710145" lon="12.664488"><ele>1181.0</ele><time>2026-04-24T14:24:58.991Z</time></trkpt><trkpt lat="43.0709882" lon="12.6643011"><ele>1181.0</ele><time>2026-04-24T14:24:59.993Z</time></trkpt><trkpt lat="43.0709547" lon="12.6641337"><ele>1181.0</ele><time>2026-04-24T14:25:00.979Z</time></trkpt><trkpt lat="43.0709296" lon="12.663973"><ele>1180.0</ele><time>2026-04-24T14:25:01.984Z</time></trkpt><trkpt lat="43.0709164" lon="12.6638313"><ele>1179.0</ele><time>2026-04-24T14:25:02.994Z</time></trkpt><trkpt lat="43.0709155" lon="12.6636971"><ele>1178.0</ele><time>2026-04-24T14:25:03.996Z</time></trkpt><trkpt lat="43.0709365" lon="12.6635553"><ele>1177.0</ele><time>2026-04-24T14:25:04.969Z</time></trkpt><trkpt lat="43.0709902" lon="12.6634019"><ele>1176.0</ele><time>2026-04-24T14:25:05.967Z</time></trkpt><trkpt lat="43.0710665" lon="12.6632455"><ele>1174.75</ele><time>2026-04-24T14:25:06.988Z</time></trkpt><trkpt lat="43.0711364" lon="12.6630966"><ele>1173.5</ele><time>2026-04-24T14:25:07.998Z</time></trkpt><trkpt lat="43.0712054" lon="12.6629461"><ele>1172.25</ele><time>2026-04-24T14:25:08.979Z</time></trkpt><trkpt lat="43.0712724" lon="12.6628134"><ele>1171.0</ele><time>2026-04-24T14:25:09.989Z</time></trkpt><trkpt lat="43.0713447" lon="12.662714"><ele>1169.3999999999999</ele><time>2026-04-24T14:25:10.993Z</time></trkpt><trkpt lat="43.0714323" lon="12.6626321"><ele>1167.8</ele><time>2026-04-24T14:25:11.975Z</time></trkpt><trkpt lat="43.0715393" lon="12.6625702"><ele>1166.1999999999998</ele><time>2026-04-24T14:25:12.978Z</time></trkpt><trkpt lat="43.0716519" lon="12.6625255"><ele>1164.6</ele><time>2026-04-24T14:25:13.992Z</time></trkpt><trkpt lat="43.0717517" lon="12.6624917"><ele>1163.0</ele><time>2026-04-24T14:25:14.987Z</time></trkpt><trkpt lat="43.0718424" lon="12.6624614"><ele>1163.0</ele><time>2026-04-24T14:25:15.973Z</time></trkpt><trkpt lat="43.0719298" lon="12.662432"><ele>1163.0</ele><time>2026-04-24T14:25:16.993Z</time></trkpt><trkpt lat="43.0720089" lon="12.6624046"><ele>1163.0</ele><time>2026-04-24T14:25:17.983Z</time></trkpt><trkpt lat="43.0720751" lon="12.6623795"><ele>1163.0</ele><time>2026-04-24T14:25:18.992Z</time></trkpt><trkpt lat="43.0721761" lon="12.6623406"><ele>1163.0</ele><time>2026-04-24T14:25:20.989Z</time></trkpt><trkpt lat="43.0722357" lon="12.6623125"><ele>1163.0</ele><time>2026-04-24T14:25:22.99Z</time></trkpt><trkpt lat="43.0723047" lon="12.6622891"><ele>1163.0</ele><time>2026-04-24T14:25:24.981Z</time></trkpt><trkpt lat="43.0723843" lon="12.6622806"><ele>1163.0</ele><time>2026-04-24T14:25:26.984Z</time></trkpt><trkpt lat="43.0724987" lon="12.6623159"><ele>1163.0</ele><time>2026-04-24T14:25:28.993Z</time></trkpt><trkpt lat="43.072557" lon="12.6623715"><ele>1163.0</ele><time>2026-04-24T14:25:29.993Z</time></trkpt><trkpt lat="43.0726096" lon="12.6624644"><ele>1163.0</ele><time>2026-04-24T14:25:30.989Z</time></trkpt><trkpt lat="43.0726615" lon="12.6625851"><ele>1163.0</ele><time>2026-04-24T14:25:31.988Z</time></trkpt><trkpt lat="43.0727107" lon="12.6627153"><ele>1163.0</ele><time>2026-04-24T14:25:32.999Z</time></trkpt><trkpt lat="43.0727618" lon="12.6628374"><ele>1163.0</ele><time>2026-04-24T14:25:33.981Z</time></trkpt><trkpt lat="43.0728139" lon="12.6629484"><ele>1163.0</ele><time>2026-04-24T14:25:34.99Z</time></trkpt><trkpt lat="43.0728651" lon="12.6630372"><ele>1163.0</ele><time>2026-04-24T14:25:35.993Z</time></trkpt><trkpt lat="43.0729182" lon="12.6630967"><ele>1163.0</ele><time>2026-04-24T14:25:36.99Z</time></trkpt><trkpt lat="43.07303" lon="12.663129"><ele>1163.0</ele><time>2026-04-24T14:25:38.977Z</time></trkpt><trkpt lat="43.0730786" lon="12.6630735"><ele>1163.0</ele><time>2026-04-24T14:25:39.993Z</time></trkpt><trkpt lat="43.0731002" lon="12.6629839"><ele>1163.0</ele><time>2026-04-24T14:25:41Z</time></trkpt><trkpt lat="43.0730997" lon="12.6628577"><ele>1163.0</ele><time>2026-04-24T14:25:41.979Z</time></trkpt><trkpt lat="43.0731027" lon="12.6627093"><ele>1163.0</ele><time>2026-04-24T14:25:42.964Z</time></trkpt><trkpt lat="43.073108" lon="12.6625425"><ele>1161.25</ele><time>2026-04-24T14:25:43.975Z</time></trkpt><trkpt lat="43.0731086" lon="12.6623621"><ele>1159.5</ele><time>2026-04-24T14:25:44.98Z</time></trkpt><trkpt lat="43.0731245" lon="12.6621766"><ele>1157.75</ele><time>2026-04-24T14:25:45.971Z</time></trkpt><trkpt lat="43.0731308" lon="12.6619934"><ele>1156.0</ele><time>2026-04-24T14:25:46.975Z</time></trkpt><trkpt lat="43.0731342" lon="12.6618017"><ele>1154.75</ele><time>2026-04-24T14:25:47.953Z</time></trkpt><trkpt lat="43.0731402" lon="12.6615974"><ele>1153.5</ele><time>2026-04-24T14:25:48.995Z</time></trkpt><trkpt lat="43.0731378" lon="12.6614054"><ele>1152.25</ele><time>2026-04-24T14:25:49.977Z</time></trkpt><trkpt lat="43.0731308" lon="12.6612134"><ele>1151.0</ele><time>2026-04-24T14:25:50.982Z</time></trkpt><trkpt lat="43.073107" lon="12.6610263"><ele>1149.0</ele><time>2026-04-24T14:25:51.98Z</time></trkpt><trkpt lat="43.0730598" lon="12.6608445"><ele>1147.0</ele><time>2026-04-24T14:25:52.972Z</time></trkpt><trkpt lat="43.0729892" lon="12.6606687"><ele>1145.0</ele><time>2026-04-24T14:25:53.982Z</time></trkpt><trkpt lat="43.0729038" lon="12.6605003"><ele>1143.0</ele><time>2026-04-24T14:25:54.975Z</time></trkpt><trkpt lat="43.0728206" lon="12.6603315"><ele>1139.75</ele><time>2026-04-24T14:25:55.982Z</time></trkpt><trkpt lat="43.0727469" lon="12.6601789"><ele>1136.5</ele><time>2026-04-24T14:25:56.974Z</time></trkpt><trkpt lat="43.0726716" lon="12.6600371"><ele>1133.25</ele><time>2026-04-24T14:25:57.974Z</time></trkpt><trkpt lat="43.0725874" lon="12.6599186"><ele>1130.0</ele><time>2026-04-24T14:25:58.991Z</time></trkpt><trkpt lat="43.0724804" lon="12.6598139"><ele>1130.75</ele><time>2026-04-24T14:25:59.979Z</time></trkpt><trkpt lat="43.0723584" lon="12.6597411"><ele>1131.5</ele><time>2026-04-24T14:26:00.985Z</time></trkpt><trkpt lat="43.0722207" lon="12.6596956"><ele>1132.25</ele><time>2026-04-24T14:26:01.973Z</time></trkpt><trkpt lat="43.0720963" lon="12.6596612"><ele>1133.0</ele><time>2026-04-24T14:26:02.986Z</time></trkpt><trkpt lat="43.0719831" lon="12.6596352"><ele>1133.0</ele><time>2026-04-24T14:26:03.966Z</time></trkpt><trkpt lat="43.0718827" lon="12.659604"><ele>1133.0</ele><time>2026-04-24T14:26:04.974Z</time></trkpt><trkpt lat="43.0718009" lon="12.6595686"><ele>1133.0</ele><time>2026-04-24T14:26:05.959Z</time></trkpt><trkpt lat="43.0717411" lon="12.6595137"><ele>1133.0</ele><time>2026-04-24T14:26:06.993Z</time></trkpt><trkpt lat="43.0716979" lon="12.6594325"><ele>1133.0</ele><time>2026-04-24T14:26:07.987Z</time></trkpt><trkpt lat="43.0716885" lon="12.6593397"><ele>1133.0</ele><time>2026-04-24T14:26:08.996Z</time></trkpt><trkpt lat="43.0717228" lon="12.6592416"><ele>1129.75</ele><time>2026-04-24T14:26:09.979Z</time></trkpt><trkpt lat="43.0717926" lon="12.659161"><ele>1126.5</ele><time>2026-04-24T14:26:10.964Z</time></trkpt><trkpt lat="43.0718988" lon="12.6591088"><ele>1123.25</ele><time>2026-04-24T14:26:11.975Z</time></trkpt><trkpt lat="43.0720209" lon="12.6590426"><ele>1120.0</ele><time>2026-04-24T14:26:12.976Z</time></trkpt><trkpt lat="43.0721452" lon="12.6589791"><ele>1120.0</ele><time>2026-04-24T14:26:13.985Z</time></trkpt><trkpt lat="43.0722681" lon="12.6589372"><ele>1120.0</ele><time>2026-04-24T14:26:14.971Z</time></trkpt><trkpt lat="43.0724081" lon="12.6589298"><ele>1120.0</ele><time>2026-04-24T14:26:15.976Z</time></trkpt><trkpt lat="43.0725515" lon="12.6589638"><ele>1120.0</ele><time>2026-04-24T14:26:16.988Z</time></trkpt><trkpt lat="43.0727171" lon="12.6590232"><ele>1119.3333333333333</ele><time>2026-04-24T14:26:17.979Z</time></trkpt><trkpt lat="43.0728938" lon="12.6590862"><ele>1118.6666666666667</ele><time>2026-04-24T14:26:18.97Z</time></trkpt><trkpt lat="43.0730651" lon="12.6591477"><ele>1118.0</ele><time>2026-04-24T14:26:19.969Z</time></trkpt><trkpt lat="43.073224" lon="12.6592171"><ele>1117.75</ele><time>2026-04-24T14:26:20.995Z</time></trkpt><trkpt lat="43.0733656" lon="12.6592921"><ele>1117.5</ele><time>2026-04-24T14:26:21.978Z</time></trkpt><trkpt lat="43.0734929" lon="12.6593914"><ele>1117.25</ele><time>2026-04-24T14:26:22.988Z</time></trkpt><trkpt lat="43.0736135" lon="12.6595131"><ele>1117.0</ele><time>2026-04-24T14:26:23.993Z</time></trkpt><trkpt lat="43.0737226" lon="12.6596686"><ele>1117.0</ele><time>2026-04-24T14:26:24.994Z</time></trkpt><trkpt lat="43.0738235" lon="12.6598424"><ele>1117.0</ele><time>2026-04-24T14:26:25.985Z</time></trkpt><trkpt lat="43.0739063" lon="12.6600022"><ele>1117.0</ele><time>2026-04-24T14:26:26.979Z</time></trkpt><trkpt lat="43.0739702" lon="12.6601379"><ele>1117.0</ele><time>2026-04-24T14:26:27.992Z</time></trkpt><trkpt lat="43.0740189" lon="12.6602545"><ele>1115.4</ele><time>2026-04-24T14:26:28.995Z</time></trkpt><trkpt lat="43.0740591" lon="12.660345"><ele>1113.8000000000002</ele><time>2026-04-24T14:26:29.981Z</time></trkpt><trkpt lat="43.0741059" lon="12.6604104"><ele>1112.2</ele><time>2026-04-24T14:26:30.99Z</time></trkpt><trkpt lat="43.0741968" lon="12.6603937"><ele>1110.6000000000001</ele><time>2026-04-24T14:26:32.989Z</time></trkpt><trkpt lat="43.0742087" lon="12.6602258"><ele>1109.0</ele><time>2026-04-24T14:26:34.993Z</time></trkpt><trkpt lat="43.0741666" lon="12.6601098"><ele>1108.25</ele><time>2026-04-24T14:26:35.992Z</time></trkpt><trkpt lat="43.0741065" lon="12.6599657"><ele>1107.5</ele><time>2026-04-24T14:26:36.976Z</time></trkpt><trkpt lat="43.0740511" lon="12.6597893"><ele>1106.75</ele><time>2026-04-24T14:26:37.977Z</time></trkpt><trkpt lat="43.0739959" lon="12.6595691"><ele>1106.0</ele><time>2026-04-24T14:26:38.981Z</time></trkpt><trkpt lat="43.0739312" lon="12.6593228"><ele>1106.0</ele><time>2026-04-24T14:26:39.98Z</time></trkpt><trkpt lat="43.0738577" lon="12.6590692"><ele>1106.0</ele><time>2026-04-24T14:26:40.97Z</time></trkpt><trkpt lat="43.0737819" lon="12.6588178"><ele>1106.0</ele><time>2026-04-24T14:26:41.974Z</time></trkpt><trkpt lat="43.0737092" lon="12.6585711"><ele>1103.0</ele><time>2026-04-24T14:26:42.964Z</time></trkpt><trkpt lat="43.0736352" lon="12.6583205"><ele>1100.0</ele><time>2026-04-24T14:26:43.99Z</time></trkpt><trkpt lat="43.0735615" lon="12.6580858"><ele>1097.0</ele><time>2026-04-24T14:26:44.98Z</time></trkpt><trkpt lat="43.073488" lon="12.657859"><ele>1094.3333333333335</ele><time>2026-04-24T14:26:45.985Z</time></trkpt><trkpt lat="43.0734196" lon="12.6576419"><ele>1091.6666666666667</ele><time>2026-04-24T14:26:46.981Z</time></trkpt><trkpt lat="43.0733554" lon="12.6574378"><ele>1089.0</ele><time>2026-04-24T14:26:47.983Z</time></trkpt><trkpt lat="43.0732972" lon="12.6572527"><ele>1088.25</ele><time>2026-04-24T14:26:48.983Z</time></trkpt><trkpt lat="43.0732489" lon="12.6570698"><ele>1087.5</ele><time>2026-04-24T14:26:49.987Z</time></trkpt><trkpt lat="43.0732221" lon="12.6568817"><ele>1086.75</ele><time>2026-04-24T14:26:50.989Z</time></trkpt><trkpt lat="43.0732168" lon="12.6566954"><ele>1086.0</ele><time>2026-04-24T14:26:51.977Z</time></trkpt><trkpt lat="43.0732191" lon="12.6565132"><ele>1086.0</ele><time>2026-04-24T14:26:52.977Z</time></trkpt><trkpt lat="43.0732205" lon="12.6563291"><ele>1086.0</ele><time>2026-04-24T14:26:53.98Z</time></trkpt><trkpt lat="43.0732217" lon="12.6561338"><ele>1086.0</ele><time>2026-04-24T14:26:54.983Z</time></trkpt><trkpt lat="43.0732117" lon="12.655928"><ele>1086.0</ele><time>2026-04-24T14:26:55.981Z</time></trkpt><trkpt lat="43.0732009" lon="12.6557027"><ele>1082.3333333333333</ele><time>2026-04-24T14:26:56.984Z</time></trkpt><trkpt lat="43.0731977" lon="12.6554768"><ele>1078.6666666666665</ele><time>2026-04-24T14:26:57.997Z</time></trkpt><trkpt lat="43.0731993" lon="12.6552548"><ele>1075.0</ele><time>2026-04-24T14:26:58.982Z</time></trkpt><trkpt lat="43.073201" lon="12.6550396"><ele>1072.75</ele><time>2026-04-24T14:26:59.984Z</time></trkpt><trkpt lat="43.073198" lon="12.6548268"><ele>1070.5</ele><time>2026-04-24T14:27:01.002Z</time></trkpt><trkpt lat="43.0731955" lon="12.65462"><ele>1068.25</ele><time>2026-04-24T14:27:01.99Z</time></trkpt><trkpt lat="43.0731908" lon="12.6544301"><ele>1066.0</ele><time>2026-04-24T14:27:02.983Z</time></trkpt><trkpt lat="43.0731799" lon="12.6542487"><ele>1065.25</ele><time>2026-04-24T14:27:03.98Z</time></trkpt><trkpt lat="43.0731551" lon="12.6540754"><ele>1064.5</ele><time>2026-04-24T14:27:04.979Z</time></trkpt><trkpt lat="43.0730936" lon="12.6539151"><ele>1063.75</ele><time>2026-04-24T14:27:05.993Z</time></trkpt><trkpt lat="43.0729922" lon="12.6537669"><ele>1063.0</ele><time>2026-04-24T14:27:06.994Z</time></trkpt><trkpt lat="43.072859" lon="12.6536439"><ele>1060.6666666666665</ele><time>2026-04-24T14:27:07.977Z</time></trkpt><trkpt lat="43.072708" lon="12.653556"><ele>1058.3333333333333</ele><time>2026-04-24T14:27:08.98Z</time></trkpt><trkpt lat="43.072534" lon="12.6534823"><ele>1056.0</ele><time>2026-04-24T14:27:09.994Z</time></trkpt><trkpt lat="43.0723517" lon="12.6534278"><ele>1054.6666666666667</ele><time>2026-04-24T14:27:10.979Z</time></trkpt><trkpt lat="43.0721745" lon="12.6533981"><ele>1053.3333333333335</ele><time>2026-04-24T14:27:11.987Z</time></trkpt><trkpt lat="43.0719869" lon="12.6533988"><ele>1052.0</ele><time>2026-04-24T14:27:12.993Z</time></trkpt><trkpt lat="43.0717976" lon="12.6534112"><ele>1052.0</ele><time>2026-04-24T14:27:13.979Z</time></trkpt><trkpt lat="43.0716199" lon="12.6534313"><ele>1052.0</ele><time>2026-04-24T14:27:14.987Z</time></trkpt><trkpt lat="43.0714577" lon="12.6534527"><ele>1052.0</ele><time>2026-04-24T14:27:15.982Z</time></trkpt><trkpt lat="43.0713129" lon="12.653472"><ele>1054.25</ele><time>2026-04-24T14:27:16.992Z</time></trkpt><trkpt lat="43.0711809" lon="12.6534762"><ele>1056.5</ele><time>2026-04-24T14:27:17.973Z</time></trkpt><trkpt lat="43.0710669" lon="12.6534468"><ele>1058.75</ele><time>2026-04-24T14:27:18.996Z</time></trkpt><trkpt lat="43.0709704" lon="12.6533603"><ele>1061.0</ele><time>2026-04-24T14:27:19.988Z</time></trkpt><trkpt lat="43.0709012" lon="12.6532443"><ele>1061.0</ele><time>2026-04-24T14:27:20.978Z</time></trkpt><trkpt lat="43.070845" lon="12.6531035"><ele>1061.0</ele><time>2026-04-24T14:27:21.969Z</time></trkpt><trkpt lat="43.0707864" lon="12.6529256"><ele>1061.0</ele><time>2026-04-24T14:27:22.978Z</time></trkpt><trkpt lat="43.070739" lon="12.6527299"><ele>1061.0</ele><time>2026-04-24T14:27:23.971Z</time></trkpt><trkpt lat="43.0707059" lon="12.652519"><ele>1067.6666666666667</ele><time>2026-04-24T14:27:24.979Z</time></trkpt><trkpt lat="43.0706767" lon="12.6522874"><ele>1074.3333333333333</ele><time>2026-04-24T14:27:25.965Z</time></trkpt><trkpt lat="43.0706353" lon="12.6520473"><ele>1081.0</ele><time>2026-04-24T14:27:26.979Z</time></trkpt><trkpt lat="43.0705704" lon="12.6518039"><ele>1081.0</ele><time>2026-04-24T14:27:27.976Z</time></trkpt><trkpt lat="43.0704873" lon="12.6515536"><ele>1081.0</ele><time>2026-04-24T14:27:28.968Z</time></trkpt><trkpt lat="43.0703973" lon="12.6513022"><ele>1081.0</ele><time>2026-04-24T14:27:29.967Z</time></trkpt><trkpt lat="43.0703024" lon="12.651045"><ele>1078.0</ele><time>2026-04-24T14:27:30.984Z</time></trkpt><trkpt lat="43.0702218" lon="12.6507978"><ele>1075.0</ele><time>2026-04-24T14:27:31.976Z</time></trkpt><trkpt lat="43.0701466" lon="12.6505562"><ele>1072.0</ele><time>2026-04-24T14:27:32.972Z</time></trkpt><trkpt lat="43.070075" lon="12.6503219"><ele>1071.6666666666665</ele><time>2026-04-24T14:27:33.968Z</time></trkpt><trkpt lat="43.0699966" lon="12.6501083"><ele>1071.3333333333333</ele><time>2026-04-24T14:27:34.995Z</time></trkpt><trkpt lat="43.0699104" lon="12.6499043"><ele>1071.0</ele><time>2026-04-24T14:27:35.958Z</time></trkpt><trkpt lat="43.0698069" lon="12.6497006"><ele>1071.0</ele><time>2026-04-24T14:27:36.984Z</time></trkpt><trkpt lat="43.0696805" lon="12.6494972"><ele>1071.0</ele><time>2026-04-24T14:27:37.984Z</time></trkpt><trkpt lat="43.0695501" lon="12.6493018"><ele>1071.0</ele><time>2026-04-24T14:27:38.996Z</time></trkpt><trkpt lat="43.0694215" lon="12.6491188"><ele>1066.6666666666667</ele><time>2026-04-24T14:27:39.963Z</time></trkpt><trkpt lat="43.0693035" lon="12.6489586"><ele>1062.3333333333335</ele><time>2026-04-24T14:27:40.986Z</time></trkpt><trkpt lat="43.0691811" lon="12.6488164"><ele>1058.0</ele><time>2026-04-24T14:27:41.989Z</time></trkpt><trkpt lat="43.0690483" lon="12.6487"><ele>1054.3333333333335</ele><time>2026-04-24T14:27:42.958Z</time></trkpt><trkpt lat="43.0689073" lon="12.6486193"><ele>1050.6666666666667</ele><time>2026-04-24T14:27:43.975Z</time></trkpt><trkpt lat="43.0687536" lon="12.6485636"><ele>1047.0</ele><time>2026-04-24T14:27:44.99Z</time></trkpt><trkpt lat="43.0685871" lon="12.648562"><ele>1049.0</ele><time>2026-04-24T14:27:46.002Z</time></trkpt><trkpt lat="43.0684185" lon="12.6486301"><ele>1051.0</ele><time>2026-04-24T14:27:46.966Z</time></trkpt><trkpt lat="43.068251" lon="12.6487028"><ele>1053.0</ele><time>2026-04-24T14:27:47.96Z</time></trkpt><trkpt lat="43.068097" lon="12.6487682"><ele>1049.25</ele><time>2026-04-24T14:27:48.962Z</time></trkpt><trkpt lat="43.0679567" lon="12.6488528"><ele>1045.5</ele><time>2026-04-24T14:27:49.968Z</time></trkpt><trkpt lat="43.0678453" lon="12.6489472"><ele>1041.75</ele><time>2026-04-24T14:27:50.974Z</time></trkpt><trkpt lat="43.067761" lon="12.6490587"><ele>1038.0</ele><time>2026-04-24T14:27:51.98Z</time></trkpt><trkpt lat="43.0677005" lon="12.6492001"><ele>1038.0</ele><time>2026-04-24T14:27:52.988Z</time></trkpt><trkpt lat="43.0676495" lon="12.6493901"><ele>1038.0</ele><time>2026-04-24T14:27:53.984Z</time></trkpt><trkpt lat="43.067612" lon="12.6496064"><ele>1038.0</ele><time>2026-04-24T14:27:54.968Z</time></trkpt><trkpt lat="43.0675726" lon="12.6498434"><ele>1037.6666666666667</ele><time>2026-04-24T14:27:55.981Z</time></trkpt><trkpt lat="43.0675282" lon="12.6501001"><ele>1037.3333333333335</ele><time>2026-04-24T14:27:56.977Z</time></trkpt><trkpt lat="43.0674982" lon="12.6503703"><ele>1037.0</ele><time>2026-04-24T14:27:57.978Z</time></trkpt><trkpt lat="43.0674883" lon="12.6506412"><ele>1037.0</ele><time>2026-04-24T14:27:58.99Z</time></trkpt><trkpt lat="43.0674757" lon="12.6509009"><ele>1037.0</ele><time>2026-04-24T14:27:59.973Z</time></trkpt><trkpt lat="43.0674526" lon="12.6511512"><ele>1037.0</ele><time>2026-04-24T14:28:00.967Z</time></trkpt><trkpt lat="43.0674163" lon="12.6513867"><ele>1030.75</ele><time>2026-04-24T14:28:01.965Z</time></trkpt><trkpt lat="43.0673786" lon="12.6516087"><ele>1024.5</ele><time>2026-04-24T14:28:02.977Z</time></trkpt><trkpt lat="43.0673414" lon="12.6517933"><ele>1018.25</ele><time>2026-04-24T14:28:03.982Z</time></trkpt><trkpt lat="43.0673194" lon="12.6519515"><ele>1012.0</ele><time>2026-04-24T14:28:04.965Z</time></trkpt><trkpt lat="43.0672959" lon="12.6520696"><ele>1011.9999999999999</ele><time>2026-04-24T14:28:05.967Z</time></trkpt><trkpt lat="43.067261" lon="12.6521647"><ele>1012.0</ele><time>2026-04-24T14:28:06.985Z</time></trkpt><trkpt lat="43.0671682" lon="12.6522207"><ele>1012.0</ele><time>2026-04-24T14:28:08.966Z</time></trkpt><trkpt lat="43.067126" lon="12.6521408"><ele>1012.0</ele><time>2026-04-24T14:28:09.989Z</time></trkpt><trkpt lat="43.0671274" lon="12.652028"><ele>1011.9999999999999</ele><time>2026-04-24T14:28:11.005Z</time></trkpt><trkpt lat="43.0671519" lon="12.6518837"><ele>1012.0</ele><time>2026-04-24T14:28:11.971Z</time></trkpt><trkpt lat="43.0672146" lon="12.6517172"><ele>1008.0</ele><time>2026-04-24T14:28:12.977Z</time></trkpt><trkpt lat="43.0672565" lon="12.6515103"><ele>1004.0</ele><time>2026-04-24T14:28:13.98Z</time></trkpt><trkpt lat="43.0672791" lon="12.6512849"><ele>1000.0</ele><time>2026-04-24T14:28:14.981Z</time></trkpt><trkpt lat="43.0672752" lon="12.6510448"><ele>999.0</ele><time>2026-04-24T14:28:15.961Z</time></trkpt><trkpt lat="43.0672459" lon="12.6507857"><ele>998.0</ele><time>2026-04-24T14:28:16.966Z</time></trkpt><trkpt lat="43.0671806" lon="12.6505066"><ele>997.0</ele><time>2026-04-24T14:28:17.968Z</time></trkpt><trkpt lat="43.0671242" lon="12.6502459"><ele>997.0</ele><time>2026-04-24T14:28:18.978Z</time></trkpt><trkpt lat="43.067062" lon="12.6499849"><ele>997.0</ele><time>2026-04-24T14:28:19.966Z</time></trkpt><trkpt lat="43.0669862" lon="12.6497408"><ele>997.0</ele><time>2026-04-24T14:28:20.962Z</time></trkpt><trkpt lat="43.0665985" lon="12.6488608"><ele>988.6666666666666</ele><time>2026-04-24T14:28:24.98Z</time></trkpt><trkpt lat="43.066507" lon="12.6486573"><ele>980.3333333333333</ele><time>2026-04-24T14:28:25.969Z</time></trkpt><trkpt lat="43.0664255" lon="12.6484635"><ele>972.0</ele><time>2026-04-24T14:28:26.976Z</time></trkpt><trkpt lat="43.0664033" lon="12.648256"><ele>972.0</ele><time>2026-04-24T14:28:27.979Z</time></trkpt><trkpt lat="43.0664136" lon="12.6480357"><ele>972.0</ele><time>2026-04-24T14:28:28.983Z</time></trkpt><trkpt lat="43.066417" lon="12.6477901"><ele>972.0</ele><time>2026-04-24T14:28:29.984Z</time></trkpt><trkpt lat="43.0664006" lon="12.6475359"><ele>972.6666666666667</ele><time>2026-04-24T14:28:30.965Z</time></trkpt><trkpt lat="43.0663671" lon="12.6472856"><ele>973.3333333333334</ele><time>2026-04-24T14:28:31.97Z</time></trkpt><trkpt lat="43.0663305" lon="12.6470582"><ele>974.0</ele><time>2026-04-24T14:28:32.994Z</time></trkpt><trkpt lat="43.0663029" lon="12.6468689"><ele>972.25</ele><time>2026-04-24T14:28:33.973Z</time></trkpt><trkpt lat="43.0662832" lon="12.6467041"><ele>970.5</ele><time>2026-04-24T14:28:34.982Z</time></trkpt><trkpt lat="43.066294" lon="12.6465592"><ele>968.75</ele><time>2026-04-24T14:28:35.964Z</time></trkpt><trkpt lat="43.0663652" lon="12.6464386"><ele>967.0</ele><time>2026-04-24T14:28:36.98Z</time></trkpt><trkpt lat="43.0664806" lon="12.6463671"><ele>967.0</ele><time>2026-04-24T14:28:37.97Z</time></trkpt><trkpt lat="43.0666058" lon="12.6462827"><ele>967.0</ele><time>2026-04-24T14:28:38.986Z</time></trkpt><trkpt lat="43.0667299" lon="12.6461579"><ele>967.0</ele><time>2026-04-24T14:28:39.965Z</time></trkpt><trkpt lat="43.066848" lon="12.645989"><ele>970.3333333333333</ele><time>2026-04-24T14:28:40.981Z</time></trkpt><trkpt lat="43.0669522" lon="12.6458256"><ele>973.6666666666667</ele><time>2026-04-24T14:28:41.974Z</time></trkpt><trkpt lat="43.0670706" lon="12.6456796"><ele>977.0</ele><time>2026-04-24T14:28:42.955Z</time></trkpt><trkpt lat="43.0672091" lon="12.6455381"><ele>977.0</ele><time>2026-04-24T14:28:43.983Z</time></trkpt><trkpt lat="43.0673655" lon="12.6454106"><ele>977.0</ele><time>2026-04-24T14:28:44.977Z</time></trkpt><trkpt lat="43.0675429" lon="12.6452838"><ele>977.0</ele><time>2026-04-24T14:28:45.976Z</time></trkpt><trkpt lat="43.0677375" lon="12.6451575"><ele>973.3333333333334</ele><time>2026-04-24T14:28:46.99Z</time></trkpt><trkpt lat="43.0679352" lon="12.6450459"><ele>969.6666666666667</ele><time>2026-04-24T14:28:47.991Z</time></trkpt><trkpt lat="43.0681217" lon="12.6449375"><ele>966.0</ele><time>2026-04-24T14:28:48.983Z</time></trkpt><trkpt lat="43.0682993" lon="12.644824"><ele>966.0</ele><time>2026-04-24T14:28:49.978Z</time></trkpt><trkpt lat="43.06847" lon="12.6447039"><ele>966.0</ele><time>2026-04-24T14:28:50.981Z</time></trkpt><trkpt lat="43.06863" lon="12.6445857"><ele>966.0</ele><time>2026-04-24T14:28:51.982Z</time></trkpt><trkpt lat="43.0687832" lon="12.6444853"><ele>959.6666666666667</ele><time>2026-04-24T14:28:52.976Z</time></trkpt><trkpt lat="43.0689373" lon="12.6444012"><ele>953.3333333333334</ele><time>2026-04-24T14:28:53.981Z</time></trkpt><trkpt lat="43.0691087" lon="12.6443434"><ele>947.0</ele><time>2026-04-24T14:28:54.987Z</time></trkpt><trkpt lat="43.069286" lon="12.6443169"><ele>947.0</ele><time>2026-04-24T14:28:55.964Z</time></trkpt><trkpt lat="43.0694691" lon="12.6443108"><ele>947.0</ele><time>2026-04-24T14:28:56.969Z</time></trkpt><trkpt lat="43.0696402" lon="12.6442961"><ele>947.0</ele><time>2026-04-24T14:28:57.964Z</time></trkpt><trkpt lat="43.0697921" lon="12.6442685"><ele>947.0</ele><time>2026-04-24T14:28:58.993Z</time></trkpt><trkpt lat="43.0699373" lon="12.6442623"><ele>947.0</ele><time>2026-04-24T14:28:59.978Z</time></trkpt><trkpt lat="43.070073" lon="12.6442957"><ele>947.0</ele><time>2026-04-24T14:29:00.985Z</time></trkpt><trkpt lat="43.0702072" lon="12.6443573"><ele>947.0</ele><time>2026-04-24T14:29:01.971Z</time></trkpt><trkpt lat="43.0703262" lon="12.6444615"><ele>950.0</ele><time>2026-04-24T14:29:02.978Z</time></trkpt><trkpt lat="43.0704227" lon="12.6445896"><ele>953.0</ele><time>2026-04-24T14:29:03.973Z</time></trkpt><trkpt lat="43.0705019" lon="12.6447101"><ele>956.0</ele><time>2026-04-24T14:29:04.986Z</time></trkpt><trkpt lat="43.0705667" lon="12.6448013"><ele>959.0</ele><time>2026-04-24T14:29:05.992Z</time></trkpt><trkpt lat="43.0706295" lon="12.6448432"><ele>962.0</ele><time>2026-04-24T14:29:06.972Z</time></trkpt><trkpt lat="43.070695" lon="12.6448417"><ele>962.0</ele><time>2026-04-24T14:29:07.973Z</time></trkpt><trkpt lat="43.0707598" lon="12.6447109"><ele>962.0</ele><time>2026-04-24T14:29:09.976Z</time></trkpt><trkpt lat="43.0707323" lon="12.6445962"><ele>962.0</ele><time>2026-04-24T14:29:10.967Z</time></trkpt><trkpt lat="43.0706694" lon="12.6444648"><ele>962.0</ele><time>2026-04-24T14:29:11.967Z</time></trkpt><trkpt lat="43.0706034" lon="12.6443003"><ele>954.6666666666667</ele><time>2026-04-24T14:29:12.973Z</time></trkpt><trkpt lat="43.0705128" lon="12.6441076"><ele>947.3333333333333</ele><time>2026-04-24T14:29:13.974Z</time></trkpt><trkpt lat="43.0704085" lon="12.643905"><ele>940.0</ele><time>2026-04-24T14:29:14.972Z</time></trkpt><trkpt lat="43.0702763" lon="12.6436864"><ele>936.3333333333333</ele><time>2026-04-24T14:29:15.975Z</time></trkpt><trkpt lat="43.0701381" lon="12.6434614"><ele>932.6666666666667</ele><time>2026-04-24T14:29:16.983Z</time></trkpt><trkpt lat="43.0699883" lon="12.6432338"><ele>929.0</ele><time>2026-04-24T14:29:17.96Z</time></trkpt><trkpt lat="43.0698435" lon="12.6430036"><ele>923.6666666666667</ele><time>2026-04-24T14:29:18.975Z</time></trkpt><trkpt lat="43.0697015" lon="12.6427948"><ele>918.3333333333333</ele><time>2026-04-24T14:29:19.974Z</time></trkpt><trkpt lat="43.0695583" lon="12.6425867"><ele>913.0</ele><time>2026-04-24T14:29:20.968Z</time></trkpt><trkpt lat="43.0694246" lon="12.6423881"><ele>913.0</ele><time>2026-04-24T14:29:21.966Z</time></trkpt><trkpt lat="43.0693035" lon="12.6422092"><ele>913.0</ele><time>2026-04-24T14:29:22.974Z</time></trkpt><trkpt lat="43.0692049" lon="12.6420568"><ele>913.0</ele><time>2026-04-24T14:29:23.974Z</time></trkpt><trkpt lat="43.0691055" lon="12.6419351"><ele>908.25</ele><time>2026-04-24T14:29:24.978Z</time></trkpt><trkpt lat="43.0689849" lon="12.6418744"><ele>903.5</ele><time>2026-04-24T14:29:25.971Z</time></trkpt><trkpt lat="43.0688399" lon="12.6418669"><ele>898.75</ele><time>2026-04-24T14:29:26.973Z</time></trkpt><trkpt lat="43.0686811" lon="12.6418994"><ele>894.0</ele><time>2026-04-24T14:29:27.975Z</time></trkpt><trkpt lat="43.0685181" lon="12.6419208"><ele>894.0</ele><time>2026-04-24T14:29:28.969Z</time></trkpt><trkpt lat="43.0683613" lon="12.6419292"><ele>894.0</ele><time>2026-04-24T14:29:29.974Z</time></trkpt><trkpt lat="43.0682056" lon="12.6419468"><ele>894.0</ele><time>2026-04-24T14:29:30.985Z</time></trkpt><trkpt lat="43.0680459" lon="12.641992"><ele>895.3333333333333</ele><time>2026-04-24T14:29:31.965Z</time></trkpt><trkpt lat="43.0678895" lon="12.6420747"><ele>896.6666666666666</ele><time>2026-04-24T14:29:32.972Z</time></trkpt><trkpt lat="43.0677283" lon="12.6421801"><ele>898.0</ele><time>2026-04-24T14:29:33.98Z</time></trkpt><trkpt lat="43.067542" lon="12.642241"><ele>895.6666666666666</ele><time>2026-04-24T14:29:34.976Z</time></trkpt><trkpt lat="43.067342" lon="12.6422459"><ele>893.3333333333333</ele><time>2026-04-24T14:29:35.97Z</time></trkpt><trkpt lat="43.0671377" lon="12.6422449"><ele>891.0</ele><time>2026-04-24T14:29:36.976Z</time></trkpt><trkpt lat="43.0669437" lon="12.6422255"><ele>891.0</ele><time>2026-04-24T14:29:37.991Z</time></trkpt><trkpt lat="43.0667585" lon="12.6421782"><ele>891.0</ele><time>2026-04-24T14:29:38.98Z</time></trkpt><trkpt lat="43.0665771" lon="12.6421296"><ele>891.0</ele><time>2026-04-24T14:29:39.969Z</time></trkpt><trkpt lat="43.0663979" lon="12.6421141"><ele>886.6666666666667</ele><time>2026-04-24T14:29:40.983Z</time></trkpt><trkpt lat="43.0662219" lon="12.6421261"><ele>882.3333333333334</ele><time>2026-04-24T14:29:41.972Z</time></trkpt><trkpt lat="43.0660658" lon="12.6421571"><ele>878.0</ele><time>2026-04-24T14:29:42.974Z</time></trkpt><trkpt lat="43.0659263" lon="12.642222"><ele>878.0</ele><time>2026-04-24T14:29:43.963Z</time></trkpt><trkpt lat="43.0657961" lon="12.6423382"><ele>878.0</ele><time>2026-04-24T14:29:44.978Z</time></trkpt><trkpt lat="43.0656672" lon="12.6424981"><ele>878.0</ele><time>2026-04-24T14:29:45.968Z</time></trkpt><trkpt lat="43.0655304" lon="12.6426707"><ele>875.0</ele><time>2026-04-24T14:29:46.972Z</time></trkpt><trkpt lat="43.0653917" lon="12.6428369"><ele>872.0</ele><time>2026-04-24T14:29:47.998Z</time></trkpt><trkpt lat="43.0652418" lon="12.6429818"><ele>869.0</ele><time>2026-04-24T14:29:48.979Z</time></trkpt><trkpt lat="43.0650764" lon="12.6430917"><ele>859.0</ele><time>2026-04-24T14:29:49.965Z</time></trkpt><trkpt lat="43.0648999" lon="12.6431894"><ele>849.0</ele><time>2026-04-24T14:29:50.969Z</time></trkpt><trkpt lat="43.0647178" lon="12.6433029"><ele>839.0</ele><time>2026-04-24T14:29:51.974Z</time></trkpt><trkpt lat="43.0645433" lon="12.6434425"><ele>839.0</ele><time>2026-04-24T14:29:52.984Z</time></trkpt><trkpt lat="43.0643721" lon="12.6435859"><ele>839.0</ele><time>2026-04-24T14:29:53.957Z</time></trkpt><trkpt lat="43.0642078" lon="12.6437434"><ele>839.0</ele><time>2026-04-24T14:29:54.979Z</time></trkpt><trkpt lat="43.0640689" lon="12.6439124"><ele>834.0</ele><time>2026-04-24T14:29:55.981Z</time></trkpt><trkpt lat="43.0639512" lon="12.6440877"><ele>829.0</ele><time>2026-04-24T14:29:56.97Z</time></trkpt><trkpt lat="43.0638404" lon="12.6442604"><ele>824.0</ele><time>2026-04-24T14:29:57.966Z</time></trkpt><trkpt lat="43.0637206" lon="12.6444082"><ele>818.3333333333334</ele><time>2026-04-24T14:29:58.977Z</time></trkpt><trkpt lat="43.0635789" lon="12.6445205"><ele>812.6666666666667</ele><time>2026-04-24T14:29:59.977Z</time></trkpt><trkpt lat="43.0634323" lon="12.6446084"><ele>807.0</ele><time>2026-04-24T14:30:00.978Z</time></trkpt><trkpt lat="43.0632751" lon="12.6446867"><ele>807.0</ele><time>2026-04-24T14:30:01.987Z</time></trkpt><trkpt lat="43.0631305" lon="12.6447791"><ele>807.0</ele><time>2026-04-24T14:30:02.988Z</time></trkpt><trkpt lat="43.0629932" lon="12.644892"><ele>807.0</ele><time>2026-04-24T14:30:03.96Z</time></trkpt><trkpt lat="43.0628669" lon="12.6450171"><ele>807.0</ele><time>2026-04-24T14:30:04.977Z</time></trkpt><trkpt lat="43.0627473" lon="12.6451626"><ele>807.0</ele><time>2026-04-24T14:30:05.998Z</time></trkpt><trkpt lat="43.0626424" lon="12.6453254"><ele>807.0</ele><time>2026-04-24T14:30:06.998Z</time></trkpt><trkpt lat="43.0625554" lon="12.6454642"><ele>811.0</ele><time>2026-04-24T14:30:07.967Z</time></trkpt><trkpt lat="43.0624813" lon="12.6456033"><ele>815.0</ele><time>2026-04-24T14:30:08.986Z</time></trkpt><trkpt lat="43.0624295" lon="12.6457745"><ele>819.0</ele><time>2026-04-24T14:30:09.984Z</time></trkpt><trkpt lat="43.0624089" lon="12.645953"><ele>823.0</ele><time>2026-04-24T14:30:10.993Z</time></trkpt><trkpt lat="43.0624228" lon="12.6461667"><ele>821.3333333333333</ele><time>2026-04-24T14:30:11.972Z</time></trkpt><trkpt lat="43.0624572" lon="12.6463977"><ele>819.6666666666667</ele><time>2026-04-24T14:30:12.992Z</time></trkpt><trkpt lat="43.0624955" lon="12.6466152"><ele>818.0</ele><time>2026-04-24T14:30:13.964Z</time></trkpt><trkpt lat="43.0625214" lon="12.6468345"><ele>815.5</ele><time>2026-04-24T14:30:14.969Z</time></trkpt><trkpt lat="43.0625289" lon="12.6470521"><ele>813.0</ele><time>2026-04-24T14:30:15.959Z</time></trkpt><trkpt lat="43.0625157" lon="12.6472579"><ele>810.5</ele><time>2026-04-24T14:30:16.962Z</time></trkpt><trkpt lat="43.0625073" lon="12.6474342"><ele>808.0</ele><time>2026-04-24T14:30:17.972Z</time></trkpt><trkpt lat="43.0625124" lon="12.6475958"><ele>807.9999999999999</ele><time>2026-04-24T14:30:18.974Z</time></trkpt><trkpt lat="43.0625318" lon="12.6477307"><ele>808.0</ele><time>2026-04-24T14:30:19.965Z</time></trkpt><trkpt lat="43.0625617" lon="12.6478436"><ele>808.0</ele><time>2026-04-24T14:30:20.967Z</time></trkpt><trkpt lat="43.0625859" lon="12.6479357"><ele>808.0</ele><time>2026-04-24T14:30:21.982Z</time></trkpt><trkpt lat="43.0626175" lon="12.6480245"><ele>807.9999999999999</ele><time>2026-04-24T14:30:22.961Z</time></trkpt><trkpt lat="43.062661" lon="12.6481194"><ele>808.0</ele><time>2026-04-24T14:30:23.965Z</time></trkpt><trkpt lat="43.0627144" lon="12.6482134"><ele>805.6666666666666</ele><time>2026-04-24T14:30:24.969Z</time></trkpt><trkpt lat="43.0627685" lon="12.6483045"><ele>803.3333333333333</ele><time>2026-04-24T14:30:25.972Z</time></trkpt><trkpt lat="43.062819" lon="12.6483877"><ele>801.0</ele><time>2026-04-24T14:30:26.98Z</time></trkpt><trkpt lat="43.0628677" lon="12.6484753"><ele>798.6666666666667</ele><time>2026-04-24T14:30:27.962Z</time></trkpt><trkpt lat="43.0629084" lon="12.6485614"><ele>796.3333333333334</ele><time>2026-04-24T14:30:28.981Z</time></trkpt><trkpt lat="43.062946" lon="12.648656"><ele>794.0</ele><time>2026-04-24T14:30:29.975Z</time></trkpt><trkpt lat="43.0629745" lon="12.6487564"><ele>790.5000000000001</ele><time>2026-04-24T14:30:30.972Z</time></trkpt><trkpt lat="43.0630074" lon="12.6488672"><ele>787.0</ele><time>2026-04-24T14:30:31.977Z</time></trkpt><trkpt lat="43.0630392" lon="12.648969"><ele>783.5</ele><time>2026-04-24T14:30:32.986Z</time></trkpt><trkpt lat="43.0630692" lon="12.6490675"><ele>780.0</ele><time>2026-04-24T14:30:33.968Z</time></trkpt><trkpt lat="43.0630959" lon="12.6491515"><ele>776.5000000000001</ele><time>2026-04-24T14:30:34.973Z</time></trkpt><trkpt lat="43.063128" lon="12.6492743"><ele>773.0</ele><time>2026-04-24T14:30:36.954Z</time></trkpt><trkpt lat="43.0631278" lon="12.6493746"><ele>773.0000000000001</ele><time>2026-04-24T14:30:39.979Z</time></trkpt><trkpt lat="43.0630375" lon="12.6493317"><ele>773.0</ele><time>2026-04-24T14:30:43.972Z</time></trkpt><trkpt lat="43.0629989" lon="12.6492613"><ele>773.0</ele><time>2026-04-24T14:30:44.965Z</time></trkpt><trkpt lat="43.0629571" lon="12.6491832"><ele>773.0</ele><time>2026-04-24T14:30:45.969Z</time></trkpt><trkpt lat="43.062909" lon="12.6490901"><ele>773.0000000000001</ele><time>2026-04-24T14:30:46.974Z</time></trkpt><trkpt lat="43.0628467" lon="12.648981"><ele>773.0</ele><time>2026-04-24T14:30:47.963Z</time></trkpt><trkpt lat="43.0627697" lon="12.648855"><ele>773.0</ele><time>2026-04-24T14:30:48.968Z</time></trkpt><trkpt lat="43.0626913" lon="12.6487322"><ele>773.0</ele><time>2026-04-24T14:30:49.966Z</time></trkpt><trkpt lat="43.0625942" lon="12.6486237"><ele>773.0</ele><time>2026-04-24T14:30:50.954Z</time></trkpt><trkpt lat="43.0624758" lon="12.6485392"><ele>773.0</ele><time>2026-04-24T14:30:51.96Z</time></trkpt><trkpt lat="43.0623563" lon="12.6484593"><ele>768.75</ele><time>2026-04-24T14:30:52.97Z</time></trkpt><trkpt lat="43.0622329" lon="12.6483909"><ele>764.5</ele><time>2026-04-24T14:30:53.971Z</time></trkpt><trkpt lat="43.0621203" lon="12.6483215"><ele>760.25</ele><time>2026-04-24T14:30:54.974Z</time></trkpt><trkpt lat="43.062013" lon="12.6482432"><ele>756.0</ele><time>2026-04-24T14:30:55.959Z</time></trkpt><trkpt lat="43.0619166" lon="12.6481562"><ele>756.0</ele><time>2026-04-24T14:30:56.967Z</time></trkpt><trkpt lat="43.0618374" lon="12.6480723"><ele>756.0</ele><time>2026-04-24T14:30:57.985Z</time></trkpt><trkpt lat="43.0617873" lon="12.6479616"><ele>756.0</ele><time>2026-04-24T14:30:58.965Z</time></trkpt><trkpt lat="43.0617681" lon="12.6478238"><ele>756.0</ele><time>2026-04-24T14:30:59.964Z</time></trkpt><trkpt lat="43.0617648" lon="12.6476552"><ele>756.0</ele><time>2026-04-24T14:31:00.985Z</time></trkpt><trkpt lat="43.0617626" lon="12.6474907"><ele>757.0</ele><time>2026-04-24T14:31:01.968Z</time></trkpt><trkpt lat="43.0617486" lon="12.6473286"><ele>758.0</ele><time>2026-04-24T14:31:02.968Z</time></trkpt><trkpt lat="43.0617131" lon="12.647175"><ele>759.0</ele><time>2026-04-24T14:31:03.976Z</time></trkpt><trkpt lat="43.0616566" lon="12.6470263"><ele>760.0</ele><time>2026-04-24T14:31:04.987Z</time></trkpt><trkpt lat="43.0616047" lon="12.6468984"><ele>753.4</ele><time>2026-04-24T14:31:05.97Z</time></trkpt><trkpt lat="43.0615592" lon="12.6467842"><ele>746.8</ele><time>2026-04-24T14:31:06.976Z</time></trkpt><trkpt lat="43.061527" lon="12.6466833"><ele>740.2</ele><time>2026-04-24T14:31:07.983Z</time></trkpt><trkpt lat="43.0614963" lon="12.6465888"><ele>733.6</ele><time>2026-04-24T14:31:08.987Z</time></trkpt><trkpt lat="43.0614075" lon="12.6465815"><ele>727.0</ele><time>2026-04-24T14:31:10.977Z</time></trkpt><trkpt lat="43.0614295" lon="12.6467296"><ele>727.0</ele><time>2026-04-24T14:31:12.968Z</time></trkpt><trkpt lat="43.0614665" lon="12.6468277"><ele>727.0</ele><time>2026-04-24T14:31:13.963Z</time></trkpt><trkpt lat="43.0615077" lon="12.6469407"><ele>727.0</ele><time>2026-04-24T14:31:14.973Z</time></trkpt><trkpt lat="43.0615446" lon="12.6470495"><ele>727.0</ele><time>2026-04-24T14:31:15.966Z</time></trkpt><trkpt lat="43.0615824" lon="12.6471584"><ele>727.0</ele><time>2026-04-24T14:31:16.976Z</time></trkpt><trkpt lat="43.0616136" lon="12.6472607"><ele>727.0</ele><time>2026-04-24T14:31:17.971Z</time></trkpt><trkpt lat="43.0615848" lon="12.6473794"><ele>727.0</ele><time>2026-04-24T14:31:19.967Z</time></trkpt><trkpt lat="43.0615149" lon="12.6473167"><ele>727.0</ele><time>2026-04-24T14:31:21.98Z</time></trkpt><trkpt lat="43.0614509" lon="12.6471553"><ele>727.0</ele><time>2026-04-24T14:31:23.959Z</time></trkpt><trkpt lat="43.0613864" lon="12.647041"><ele>727.0</ele><time>2026-04-24T14:31:24.968Z</time></trkpt><trkpt lat="43.0612896" lon="12.6469203"><ele>727.0</ele><time>2026-04-24T14:31:25.972Z</time></trkpt><trkpt lat="43.0611849" lon="12.6468012"><ele>727.0</ele><time>2026-04-24T14:31:26.964Z</time></trkpt><trkpt lat="43.0610864" lon="12.646672"><ele>727.0</ele><time>2026-04-24T14:31:27.962Z</time></trkpt><trkpt lat="43.0610011" lon="12.6465243"><ele>727.0</ele><time>2026-04-24T14:31:28.973Z</time></trkpt><trkpt lat="43.0609263" lon="12.6463573"><ele>727.0</ele><time>2026-04-24T14:31:29.986Z</time></trkpt><trkpt lat="43.060867" lon="12.6461812"><ele>727.0</ele><time>2026-04-24T14:31:30.974Z</time></trkpt><trkpt lat="43.0608161" lon="12.6459996"><ele>727.0</ele><time>2026-04-24T14:31:31.965Z</time></trkpt><trkpt lat="43.0607819" lon="12.645815"><ele>727.0</ele><time>2026-04-24T14:31:32.975Z</time></trkpt><trkpt lat="43.060775" lon="12.645625"><ele>728.0</ele><time>2026-04-24T14:31:33.98Z</time></trkpt><trkpt lat="43.0607869" lon="12.6454244"><ele>729.0</ele><time>2026-04-24T14:31:34.967Z</time></trkpt><trkpt lat="43.0608096" lon="12.6452196"><ele>730.0</ele><time>2026-04-24T14:31:35.967Z</time></trkpt><trkpt lat="43.0608392" lon="12.6450142"><ele>725.3333333333334</ele><time>2026-04-24T14:31:36.976Z</time></trkpt><trkpt lat="43.0608806" lon="12.6447942"><ele>720.6666666666666</ele><time>2026-04-24T14:31:37.975Z</time></trkpt><trkpt lat="43.0609325" lon="12.644574"><ele>716.0</ele><time>2026-04-24T14:31:38.976Z</time></trkpt><trkpt lat="43.0609885" lon="12.6443554"><ele>709.6666666666666</ele><time>2026-04-24T14:31:39.969Z</time></trkpt><trkpt lat="43.0610436" lon="12.6441417"><ele>703.3333333333334</ele><time>2026-04-24T14:31:40.981Z</time></trkpt><trkpt lat="43.0611051" lon="12.6439384"><ele>697.0</ele><time>2026-04-24T14:31:41.96Z</time></trkpt><trkpt lat="43.061169" lon="12.6437488"><ele>690.0</ele><time>2026-04-24T14:31:42.96Z</time></trkpt><trkpt lat="43.0612399" lon="12.6435615"><ele>683.0</ele><time>2026-04-24T14:31:43.968Z</time></trkpt><trkpt lat="43.0613331" lon="12.6433741"><ele>676.0</ele><time>2026-04-24T14:31:44.969Z</time></trkpt><trkpt lat="43.0614354" lon="12.643193"><ele>676.0</ele><time>2026-04-24T14:31:45.966Z</time></trkpt><trkpt lat="43.0615352" lon="12.6430094"><ele>676.0</ele><time>2026-04-24T14:31:46.974Z</time></trkpt><trkpt lat="43.0616319" lon="12.6428474"><ele>676.0</ele><time>2026-04-24T14:31:47.966Z</time></trkpt><trkpt lat="43.0617224" lon="12.642709"><ele>677.4</ele><time>2026-04-24T14:31:48.968Z</time></trkpt><trkpt lat="43.0618023" lon="12.6426017"><ele>678.8</ele><time>2026-04-24T14:31:49.96Z</time></trkpt><trkpt lat="43.0618654" lon="12.6425313"><ele>680.1999999999999</ele><time>2026-04-24T14:31:50.964Z</time></trkpt><trkpt lat="43.0618999" lon="12.6424018"><ele>681.5999999999999</ele><time>2026-04-24T14:31:52.97Z</time></trkpt><trkpt lat="43.0617926" lon="12.6423989"><ele>683.0</ele><time>2026-04-24T14:31:54.982Z</time></trkpt><trkpt lat="43.0617278" lon="12.6424817"><ele>683.0</ele><time>2026-04-24T14:31:55.956Z</time></trkpt><trkpt lat="43.0616571" lon="12.6425607"><ele>683.0</ele><time>2026-04-24T14:31:56.977Z</time></trkpt><trkpt lat="43.0615965" lon="12.6426437"><ele>683.0</ele><time>2026-04-24T14:31:57.981Z</time></trkpt><trkpt lat="43.0615101" lon="12.6427178"><ele>683.0</ele><time>2026-04-24T14:31:59.974Z</time></trkpt><trkpt lat="43.0615172" lon="12.6426309"><ele>683.0</ele><time>2026-04-24T14:32:02.979Z</time></trkpt><trkpt lat="43.0616224" lon="12.6424951"><ele>683.0</ele><time>2026-04-24T14:32:04.977Z</time></trkpt><trkpt lat="43.0617055" lon="12.6423695"><ele>683.0</ele><time>2026-04-24T14:32:05.969Z</time></trkpt><trkpt lat="43.0618069" lon="12.6422293"><ele>683.0</ele><time>2026-04-24T14:32:06.973Z</time></trkpt><trkpt lat="43.0619216" lon="12.6420792"><ele>683.0</ele><time>2026-04-24T14:32:07.969Z</time></trkpt><trkpt lat="43.0620342" lon="12.6419261"><ele>675.0</ele><time>2026-04-24T14:32:08.982Z</time></trkpt><trkpt lat="43.0621438" lon="12.6417756"><ele>667.0</ele><time>2026-04-24T14:32:09.983Z</time></trkpt><trkpt lat="43.0622412" lon="12.6416234"><ele>659.0</ele><time>2026-04-24T14:32:10.957Z</time></trkpt><trkpt lat="43.0623341" lon="12.6414506"><ele>659.0</ele><time>2026-04-24T14:32:11.976Z</time></trkpt><trkpt lat="43.0624272" lon="12.6412604"><ele>659.0</ele><time>2026-04-24T14:32:12.966Z</time></trkpt><trkpt lat="43.0625099" lon="12.6410724"><ele>659.0</ele><time>2026-04-24T14:32:13.976Z</time></trkpt><trkpt lat="43.0625808" lon="12.6408809"><ele>660.6666666666666</ele><time>2026-04-24T14:32:14.963Z</time></trkpt><trkpt lat="43.0626505" lon="12.6406696"><ele>662.3333333333334</ele><time>2026-04-24T14:32:15.963Z</time></trkpt><trkpt lat="43.06271" lon="12.6404561"><ele>664.0</ele><time>2026-04-24T14:32:16.974Z</time></trkpt><trkpt lat="43.0627679" lon="12.640243"><ele>658.0</ele><time>2026-04-24T14:32:17.965Z</time></trkpt><trkpt lat="43.0628299" lon="12.6400323"><ele>652.0</ele><time>2026-04-24T14:32:18.965Z</time></trkpt><trkpt lat="43.0628998" lon="12.6398389"><ele>646.0</ele><time>2026-04-24T14:32:19.97Z</time></trkpt><trkpt lat="43.0629806" lon="12.63966"><ele>646.0</ele><time>2026-04-24T14:32:20.956Z</time></trkpt><trkpt lat="43.0630598" lon="12.6395072"><ele>646.0</ele><time>2026-04-24T14:32:21.96Z</time></trkpt><trkpt lat="43.0631292" lon="12.6393728"><ele>646.0</ele><time>2026-04-24T14:32:22.967Z</time></trkpt><trkpt lat="43.063198" lon="12.6392549"><ele>646.0</ele><time>2026-04-24T14:32:23.978Z</time></trkpt><trkpt lat="43.0632604" lon="12.6391582"><ele>641.0</ele><time>2026-04-24T14:32:24.964Z</time></trkpt><trkpt lat="43.0631813" lon="12.6389754"><ele>636.0</ele><time>2026-04-24T14:32:28.977Z</time></trkpt><trkpt lat="43.0631163" lon="12.6390384"><ele>631.0</ele><time>2026-04-24T14:32:29.97Z</time></trkpt><trkpt lat="43.0630348" lon="12.6391656"><ele>626.0</ele><time>2026-04-24T14:32:30.976Z</time></trkpt><trkpt lat="43.0629485" lon="12.6393002"><ele>626.0</ele><time>2026-04-24T14:32:31.98Z</time></trkpt><trkpt lat="43.0628618" lon="12.6394424"><ele>626.0</ele><time>2026-04-24T14:32:32.973Z</time></trkpt><trkpt lat="43.0627802" lon="12.6395838"><ele>626.0</ele><time>2026-04-24T14:32:33.969Z</time></trkpt><trkpt lat="43.0627139" lon="12.6397066"><ele>626.0</ele><time>2026-04-24T14:32:34.982Z</time></trkpt><trkpt lat="43.0626525" lon="12.6397659"><ele>626.0</ele><time>2026-04-24T14:32:35.973Z</time></trkpt><trkpt lat="43.0625956" lon="12.6397107"><ele>626.0</ele><time>2026-04-24T14:32:37.986Z</time></trkpt><trkpt lat="43.0626456" lon="12.6395201"><ele>626.0</ele><time>2026-04-24T14:32:39.965Z</time></trkpt><trkpt lat="43.0627143" lon="12.6393939"><ele>626.0</ele><time>2026-04-24T14:32:40.972Z</time></trkpt><trkpt lat="43.0627951" lon="12.6392186"><ele>626.0</ele><time>2026-04-24T14:32:41.977Z</time></trkpt><trkpt lat="43.0628895" lon="12.6390161"><ele>626.0</ele><time>2026-04-24T14:32:42.992Z</time></trkpt><trkpt lat="43.0629885" lon="12.6387975"><ele>626.0</ele><time>2026-04-24T14:32:43.957Z</time></trkpt><trkpt lat="43.0630813" lon="12.6385759"><ele>626.6666666666666</ele><time>2026-04-24T14:32:44.977Z</time></trkpt><trkpt lat="43.0631735" lon="12.638368"><ele>627.3333333333334</ele><time>2026-04-24T14:32:45.978Z</time></trkpt><trkpt lat="43.0632666" lon="12.6381638"><ele>628.0</ele><time>2026-04-24T14:32:46.979Z</time></trkpt><trkpt lat="43.0633543" lon="12.6379633"><ele>622.0</ele><time>2026-04-24T14:32:47.972Z</time></trkpt><trkpt lat="43.0634375" lon="12.6377611"><ele>616.0</ele><time>2026-04-24T14:32:48.974Z</time></trkpt><trkpt lat="43.0635198" lon="12.6375577"><ele>610.0</ele><time>2026-04-24T14:32:49.998Z</time></trkpt><trkpt lat="43.0635949" lon="12.6373557"><ele>610.0</ele><time>2026-04-24T14:32:50.958Z</time></trkpt><trkpt lat="43.0636748" lon="12.6371471"><ele>610.0</ele><time>2026-04-24T14:32:51.969Z</time></trkpt><trkpt lat="43.0637494" lon="12.6369363"><ele>610.0</ele><time>2026-04-24T14:32:52.989Z</time></trkpt><trkpt lat="43.063823" lon="12.6367343"><ele>603.3333333333334</ele><time>2026-04-24T14:32:53.966Z</time></trkpt><trkpt lat="43.0639026" lon="12.6365273"><ele>596.6666666666666</ele><time>2026-04-24T14:32:54.971Z</time></trkpt><trkpt lat="43.0639841" lon="12.6363162"><ele>590.0</ele><time>2026-04-24T14:32:55.978Z</time></trkpt><trkpt lat="43.0640712" lon="12.6361162"><ele>591.3333333333333</ele><time>2026-04-24T14:32:56.984Z</time></trkpt><trkpt lat="43.0641645" lon="12.6359124"><ele>592.6666666666666</ele><time>2026-04-24T14:32:57.969Z</time></trkpt><trkpt lat="43.0642609" lon="12.6357228"><ele>594.0</ele><time>2026-04-24T14:32:58.969Z</time></trkpt><trkpt lat="43.0643601" lon="12.6355454"><ele>594.0</ele><time>2026-04-24T14:32:59.97Z</time></trkpt><trkpt lat="43.0644668" lon="12.6353906"><ele>594.0</ele><time>2026-04-24T14:33:00.97Z</time></trkpt><trkpt lat="43.0645797" lon="12.6352398"><ele>594.0</ele><time>2026-04-24T14:33:01.97Z</time></trkpt><trkpt lat="43.0647044" lon="12.6350859"><ele>594.6666666666666</ele><time>2026-04-24T14:33:02.973Z</time></trkpt><trkpt lat="43.0648299" lon="12.6349272"><ele>595.3333333333333</ele><time>2026-04-24T14:33:03.977Z</time></trkpt><trkpt lat="43.0649479" lon="12.6347556"><ele>596.0</ele><time>2026-04-24T14:33:04.978Z</time></trkpt><trkpt lat="43.0650641" lon="12.6345675"><ele>587.3333333333333</ele><time>2026-04-24T14:33:05.961Z</time></trkpt><trkpt lat="43.0651705" lon="12.6343669"><ele>578.6666666666666</ele><time>2026-04-24T14:33:06.973Z</time></trkpt><trkpt lat="43.0652745" lon="12.6341775"><ele>570.0</ele><time>2026-04-24T14:33:07.964Z</time></trkpt><trkpt lat="43.0653783" lon="12.6339949"><ele>570.0</ele><time>2026-04-24T14:33:08.964Z</time></trkpt><trkpt lat="43.0654729" lon="12.6338118"><ele>570.0</ele><time>2026-04-24T14:33:09.976Z</time></trkpt><trkpt lat="43.0655596" lon="12.6336335"><ele>570.0</ele><time>2026-04-24T14:33:10.965Z</time></trkpt><trkpt lat="43.0656368" lon="12.6334372"><ele>567.6666666666666</ele><time>2026-04-24T14:33:11.957Z</time></trkpt><trkpt lat="43.0657056" lon="12.6332242"><ele>565.3333333333333</ele><time>2026-04-24T14:33:12.963Z</time></trkpt><trkpt lat="43.0657572" lon="12.6330046"><ele>563.0</ele><time>2026-04-24T14:33:13.966Z</time></trkpt><trkpt lat="43.0658058" lon="12.6327823"><ele>563.0</ele><time>2026-04-24T14:33:14.978Z</time></trkpt><trkpt lat="43.0658512" lon="12.6325564"><ele>563.0</ele><time>2026-04-24T14:33:15.967Z</time></trkpt><trkpt lat="43.0658979" lon="12.6323418"><ele>563.0</ele><time>2026-04-24T14:33:16.974Z</time></trkpt><trkpt lat="43.0659474" lon="12.6321338"><ele>559.75</ele><time>2026-04-24T14:33:17.984Z</time></trkpt><trkpt lat="43.0660095" lon="12.6319411"><ele>556.5</ele><time>2026-04-24T14:33:18.964Z</time></trkpt><trkpt lat="43.0660863" lon="12.6317835"><ele>553.25</ele><time>2026-04-24T14:33:19.963Z</time></trkpt><trkpt lat="43.0661943" lon="12.6316527"><ele>550.0</ele><time>2026-04-24T14:33:20.987Z</time></trkpt><trkpt lat="43.0663272" lon="12.6315637"><ele>550.0</ele><time>2026-04-24T14:33:21.995Z</time></trkpt><trkpt lat="43.0664797" lon="12.6314782"><ele>550.0</ele><time>2026-04-24T14:33:22.975Z</time></trkpt><trkpt lat="43.066644" lon="12.6314147"><ele>550.0</ele><time>2026-04-24T14:33:23.977Z</time></trkpt><trkpt lat="43.0667988" lon="12.6313573"><ele>545.3333333333334</ele><time>2026-04-24T14:33:24.974Z</time></trkpt><trkpt lat="43.0669553" lon="12.6312911"><ele>540.6666666666666</ele><time>2026-04-24T14:33:25.976Z</time></trkpt><trkpt lat="43.0671079" lon="12.6312211"><ele>536.0</ele><time>2026-04-24T14:33:26.968Z</time></trkpt><trkpt lat="43.0672511" lon="12.6311331"><ele>536.0</ele><time>2026-04-24T14:33:27.97Z</time></trkpt><trkpt lat="43.0673885" lon="12.6310263"><ele>536.0</ele><time>2026-04-24T14:33:28.994Z</time></trkpt><trkpt lat="43.0675219" lon="12.6309005"><ele>536.0</ele><time>2026-04-24T14:33:29.967Z</time></trkpt><trkpt lat="43.0676471" lon="12.6307505"><ele>538.3333333333333</ele><time>2026-04-24T14:33:30.971Z</time></trkpt><trkpt lat="43.0677601" lon="12.630575"><ele>540.6666666666666</ele><time>2026-04-24T14:33:31.949Z</time></trkpt><trkpt lat="43.0678596" lon="12.6304062"><ele>543.0</ele><time>2026-04-24T14:33:32.987Z</time></trkpt><trkpt lat="43.0679462" lon="12.630246"><ele>538.5</ele><time>2026-04-24T14:33:33.965Z</time></trkpt><trkpt lat="43.0680273" lon="12.6301033"><ele>534.0</ele><time>2026-04-24T14:33:34.966Z</time></trkpt><trkpt lat="43.0681058" lon="12.6299727"><ele>529.5</ele><time>2026-04-24T14:33:35.985Z</time></trkpt><trkpt lat="43.068179" lon="12.6298468"><ele>525.0</ele><time>2026-04-24T14:33:36.978Z</time></trkpt><trkpt lat="43.0682462" lon="12.6297225"><ele>525.25</ele><time>2026-04-24T14:33:37.956Z</time></trkpt><trkpt lat="43.0683139" lon="12.6295976"><ele>525.5</ele><time>2026-04-24T14:33:38.986Z</time></trkpt><trkpt lat="43.068384" lon="12.6294765"><ele>525.75</ele><time>2026-04-24T14:33:39.968Z</time></trkpt><trkpt lat="43.0684562" lon="12.6293494"><ele>526.0</ele><time>2026-04-24T14:33:40.976Z</time></trkpt><trkpt lat="43.0685294" lon="12.6292203"><ele>526.0</ele><time>2026-04-24T14:33:41.977Z</time></trkpt><trkpt lat="43.0685961" lon="12.6290864"><ele>526.0</ele><time>2026-04-24T14:33:42.98Z</time></trkpt><trkpt lat="43.0686629" lon="12.6289447"><ele>526.0</ele><time>2026-04-24T14:33:43.986Z</time></trkpt><trkpt lat="43.068726" lon="12.6287988"><ele>526.0</ele><time>2026-04-24T14:33:44.96Z</time></trkpt><trkpt lat="43.0687883" lon="12.6286486"><ele>522.75</ele><time>2026-04-24T14:33:45.972Z</time></trkpt><trkpt lat="43.0688502" lon="12.6285018"><ele>519.5</ele><time>2026-04-24T14:33:46.973Z</time></trkpt><trkpt lat="43.068918" lon="12.6283469"><ele>516.25</ele><time>2026-04-24T14:33:47.969Z</time></trkpt><trkpt lat="43.068996" lon="12.6281907"><ele>513.0</ele><time>2026-04-24T14:33:48.966Z</time></trkpt><trkpt lat="43.0690686" lon="12.628031"><ele>512.75</ele><time>2026-04-24T14:33:49.972Z</time></trkpt><trkpt lat="43.0691418" lon="12.6278672"><ele>512.5</ele><time>2026-04-24T14:33:50.981Z</time></trkpt><trkpt lat="43.0692125" lon="12.6277024"><ele>512.25</ele><time>2026-04-24T14:33:51.968Z</time></trkpt><trkpt lat="43.0692738" lon="12.6275312"><ele>512.0</ele><time>2026-04-24T14:33:52.99Z</time></trkpt><trkpt lat="43.0693233" lon="12.6273521"><ele>512.0</ele><time>2026-04-24T14:33:53.983Z</time></trkpt><trkpt lat="43.0693607" lon="12.6271675"><ele>512.0</ele><time>2026-04-24T14:33:54.963Z</time></trkpt><trkpt lat="43.0693841" lon="12.6269863"><ele>512.0</ele><time>2026-04-24T14:33:55.958Z</time></trkpt><trkpt lat="43.0694014" lon="12.6268009"><ele>512.0</ele><time>2026-04-24T14:33:56.977Z</time></trkpt><trkpt lat="43.0694071" lon="12.6266148"><ele>509.5</ele><time>2026-04-24T14:33:57.977Z</time></trkpt><trkpt lat="43.0694053" lon="12.6264275"><ele>507.0</ele><time>2026-04-24T14:33:58.971Z</time></trkpt><trkpt lat="43.0693893" lon="12.6262395"><ele>504.5</ele><time>2026-04-24T14:33:59.968Z</time></trkpt><trkpt lat="43.069368" lon="12.6260584"><ele>502.0</ele><time>2026-04-24T14:34:00.973Z</time></trkpt><trkpt lat="43.0693447" lon="12.6258793"><ele>500.25</ele><time>2026-04-24T14:34:01.972Z</time></trkpt><trkpt lat="43.0693135" lon="12.625717"><ele>498.5</ele><time>2026-04-24T14:34:02.974Z</time></trkpt><trkpt lat="43.0692848" lon="12.6255704"><ele>496.75</ele><time>2026-04-24T14:34:03.981Z</time></trkpt><trkpt lat="43.0692523" lon="12.625424"><ele>495.0</ele><time>2026-04-24T14:34:04.996Z</time></trkpt><trkpt lat="43.0692234" lon="12.6252739"><ele>493.6666666666667</ele><time>2026-04-24T14:34:05.957Z</time></trkpt><trkpt lat="43.0692059" lon="12.6251254"><ele>492.33333333333337</ele><time>2026-04-24T14:34:06.972Z</time></trkpt><trkpt lat="43.069195" lon="12.6249842"><ele>491.0</ele><time>2026-04-24T14:34:07.991Z</time></trkpt><trkpt lat="43.0691876" lon="12.6248687"><ele>489.6666666666667</ele><time>2026-04-24T14:34:08.975Z</time></trkpt><trkpt lat="43.0691786" lon="12.6247733"><ele>488.33333333333337</ele><time>2026-04-24T14:34:09.979Z</time></trkpt><trkpt lat="43.0691683" lon="12.6246869"><ele>487.0</ele><time>2026-04-24T14:34:11.002Z</time></trkpt><trkpt lat="43.06916" lon="12.6245954"><ele>487.00000000000006</ele><time>2026-04-24T14:34:11.993Z</time></trkpt><trkpt lat="43.0691559" lon="12.6244978"><ele>487.0</ele><time>2026-04-24T14:34:12.975Z</time></trkpt><trkpt lat="43.0691646" lon="12.6243857"><ele>487.0</ele><time>2026-04-24T14:34:13.981Z</time></trkpt><trkpt lat="43.0691818" lon="12.6242685"><ele>487.0</ele><time>2026-04-24T14:34:14.983Z</time></trkpt><trkpt lat="43.0692043" lon="12.6241362"><ele>487.00000000000006</ele><time>2026-04-24T14:34:15.986Z</time></trkpt><trkpt lat="43.0692225" lon="12.6239935"><ele>487.0</ele><time>2026-04-24T14:34:16.97Z</time></trkpt><trkpt lat="43.0692381" lon="12.6238562"><ele>486.0</ele><time>2026-04-24T14:34:17.995Z</time></trkpt><trkpt lat="43.0692535" lon="12.6237052"><ele>485.00000000000006</ele><time>2026-04-24T14:34:18.974Z</time></trkpt><trkpt lat="43.0692666" lon="12.6235555"><ele>484.00000000000006</ele><time>2026-04-24T14:34:19.994Z</time></trkpt><trkpt lat="43.069273" lon="12.6234084"><ele>483.0</ele><time>2026-04-24T14:34:20.974Z</time></trkpt><trkpt lat="43.0692765" lon="12.6232649"><ele>482.0</ele><time>2026-04-24T14:34:21.994Z</time></trkpt><trkpt lat="43.0692706" lon="12.6231262"><ele>480.3333333333333</ele><time>2026-04-24T14:34:22.993Z</time></trkpt><trkpt lat="43.0692603" lon="12.6229974"><ele>478.66666666666663</ele><time>2026-04-24T14:34:23.959Z</time></trkpt><trkpt lat="43.0692453" lon="12.6228848"><ele>477.0</ele><time>2026-04-24T14:34:24.978Z</time></trkpt><trkpt lat="43.0692283" lon="12.6227671"><ele>475.33333333333337</ele><time>2026-04-24T14:34:25.974Z</time></trkpt><trkpt lat="43.0692092" lon="12.6226612"><ele>473.6666666666667</ele><time>2026-04-24T14:34:26.977Z</time></trkpt><trkpt lat="43.0691982" lon="12.6225727"><ele>472.0</ele><time>2026-04-24T14:34:27.965Z</time></trkpt><trkpt lat="43.0691889" lon="12.622446"><ele>471.83333333333337</ele><time>2026-04-24T14:34:29.975Z</time></trkpt><trkpt lat="43.0691817" lon="12.6223235"><ele>471.6666666666667</ele><time>2026-04-24T14:34:32.996Z</time></trkpt><trkpt lat="43.0691468" lon="12.6222319"><ele>471.5</ele><time>2026-04-24T14:34:35.971Z</time></trkpt><trkpt lat="43.0690733" lon="12.6222737"><ele>471.33333333333337</ele><time>2026-04-24T14:34:39.97Z</time></trkpt><trkpt lat="43.0690601" lon="12.6223905"><ele>471.1666666666667</ele><time>2026-04-24T14:34:41.973Z</time></trkpt><trkpt lat="43.0690284" lon="12.6225279"><ele>471.0</ele><time>2026-04-24T14:34:43.968Z</time></trkpt><trkpt lat="43.0689769" lon="12.622676"><ele>468.1666666666667</ele><time>2026-04-24T14:34:45.969Z</time></trkpt><trkpt lat="43.0689466" lon="12.622763"><ele>465.33333333333337</ele><time>2026-04-24T14:34:46.978Z</time></trkpt><trkpt lat="43.0689101" lon="12.6228534"><ele>462.5</ele><time>2026-04-24T14:34:47.976Z</time></trkpt><trkpt lat="43.0688668" lon="12.6229377"><ele>459.6666666666667</ele><time>2026-04-24T14:34:48.977Z</time></trkpt><trkpt lat="43.0688202" lon="12.6230225"><ele>456.83333333333337</ele><time>2026-04-24T14:34:49.966Z</time></trkpt><trkpt lat="43.0687684" lon="12.6231038"><ele>454.0</ele><time>2026-04-24T14:34:50.989Z</time></trkpt><trkpt lat="43.0687097" lon="12.6231882"><ele>454.0</ele><time>2026-04-24T14:34:51.983Z</time></trkpt><trkpt lat="43.0686529" lon="12.6232961"><ele>454.0</ele><time>2026-04-24T14:34:52.991Z</time></trkpt><trkpt lat="43.068596" lon="12.6234273"><ele>454.0</ele><time>2026-04-24T14:34:53.978Z</time></trkpt><trkpt lat="43.068546" lon="12.6235732"><ele>454.0</ele><time>2026-04-24T14:34:54.988Z</time></trkpt><trkpt lat="43.0684962" lon="12.6237153"><ele>454.0</ele><time>2026-04-24T14:34:55.98Z</time></trkpt><trkpt lat="43.0684481" lon="12.6238482"><ele>455.1666666666667</ele><time>2026-04-24T14:34:56.989Z</time></trkpt><trkpt lat="43.0684052" lon="12.6239662"><ele>456.33333333333337</ele><time>2026-04-24T14:34:57.958Z</time></trkpt><trkpt lat="43.068366" lon="12.6240774"><ele>457.5</ele><time>2026-04-24T14:34:58.989Z</time></trkpt><trkpt lat="43.0683265" lon="12.6241817"><ele>458.66666666666663</ele><time>2026-04-24T14:34:59.988Z</time></trkpt><trkpt lat="43.068291" lon="12.624277"><ele>459.8333333333333</ele><time>2026-04-24T14:35:00.978Z</time></trkpt><trkpt lat="43.0682507" lon="12.6243662"><ele>461.0</ele><time>2026-04-24T14:35:01.984Z</time></trkpt><trkpt lat="43.0682114" lon="12.6244568"><ele>458.8571428571429</ele><time>2026-04-24T14:35:02.972Z</time></trkpt><trkpt lat="43.0681745" lon="12.6245496"><ele>456.7142857142858</ele><time>2026-04-24T14:35:03.988Z</time></trkpt><trkpt lat="43.068145" lon="12.6246455"><ele>454.57142857142856</ele><time>2026-04-24T14:35:04.976Z</time></trkpt><trkpt lat="43.068125" lon="12.6247442"><ele>452.42857142857144</ele><time>2026-04-24T14:35:05.976Z</time></trkpt><trkpt lat="43.0681139" lon="12.6248438"><ele>450.2857142857143</ele><time>2026-04-24T14:35:06.98Z</time></trkpt><trkpt lat="43.068095" lon="12.6249361"><ele>448.1428571428571</ele><time>2026-04-24T14:35:07.973Z</time></trkpt><trkpt lat="43.0680734" lon="12.6250312"><ele>446.0</ele><time>2026-04-24T14:35:08.969Z</time></trkpt><trkpt lat="43.0680364" lon="12.6251204"><ele>446.0</ele><time>2026-04-24T14:35:09.979Z</time></trkpt><trkpt lat="43.0679906" lon="12.6252081"><ele>446.0</ele><time>2026-04-24T14:35:10.979Z</time></trkpt><trkpt lat="43.0679279" lon="12.6252876"><ele>446.0</ele><time>2026-04-24T14:35:11.968Z</time></trkpt><trkpt lat="43.067856" lon="12.6253716"><ele>446.0</ele><time>2026-04-24T14:35:12.978Z</time></trkpt><trkpt lat="43.067775" lon="12.6254521"><ele>446.0</ele><time>2026-04-24T14:35:13.975Z</time></trkpt><trkpt lat="43.0676966" lon="12.6255334"><ele>446.20000000000005</ele><time>2026-04-24T14:35:14.993Z</time></trkpt><trkpt lat="43.0676151" lon="12.6256176"><ele>446.40000000000003</ele><time>2026-04-24T14:35:15.963Z</time></trkpt><trkpt lat="43.0675257" lon="12.6257032"><ele>446.6</ele><time>2026-04-24T14:35:16.977Z</time></trkpt><trkpt lat="43.0674396" lon="12.6257818"><ele>446.8</ele><time>2026-04-24T14:35:17.978Z</time></trkpt><trkpt lat="43.0673583" lon="12.6258529"><ele>447.0</ele><time>2026-04-24T14:35:18.994Z</time></trkpt><trkpt lat="43.0672814" lon="12.6259199"><ele>447.0</ele><time>2026-04-24T14:35:19.963Z</time></trkpt><trkpt lat="43.0672053" lon="12.6259862"><ele>447.0</ele><time>2026-04-24T14:35:20.976Z</time></trkpt><trkpt lat="43.0671234" lon="12.6260453"><ele>447.0</ele><time>2026-04-24T14:35:21.975Z</time></trkpt><trkpt lat="43.0670477" lon="12.6261092"><ele>447.0</ele><time>2026-04-24T14:35:22.973Z</time></trkpt><trkpt lat="43.0669757" lon="12.6261679"><ele>447.0</ele><time>2026-04-24T14:35:23.972Z</time></trkpt><trkpt lat="43.0669" lon="12.6262138"><ele>447.0</ele><time>2026-04-24T14:35:24.985Z</time></trkpt><trkpt lat="43.0668297" lon="12.6262434"><ele>447.8</ele><time>2026-04-24T14:35:25.991Z</time></trkpt><trkpt lat="43.0667601" lon="12.6262655"><ele>448.6</ele><time>2026-04-24T14:35:26.969Z</time></trkpt><trkpt lat="43.0666425" lon="12.626263"><ele>449.40000000000003</ele><time>2026-04-24T14:35:28.992Z</time></trkpt><trkpt lat="43.0665446" lon="12.6262018"><ele>450.20000000000005</ele><time>2026-04-24T14:35:30.988Z</time></trkpt><trkpt lat="43.0664916" lon="12.6260602"><ele>451.0</ele><time>2026-04-24T14:35:32.963Z</time></trkpt><trkpt lat="43.0664911" lon="12.6259734"><ele>450.4285714285714</ele><time>2026-04-24T14:35:33.965Z</time></trkpt><trkpt lat="43.0665223" lon="12.6258859"><ele>449.8571428571429</ele><time>2026-04-24T14:35:34.974Z</time></trkpt><trkpt lat="43.0665637" lon="12.6258092"><ele>449.2857142857143</ele><time>2026-04-24T14:35:35.981Z</time></trkpt><trkpt lat="43.0666249" lon="12.625749"><ele>448.71428571428567</ele><time>2026-04-24T14:35:36.974Z</time></trkpt><trkpt lat="43.0666831" lon="12.6256896"><ele>448.1428571428571</ele><time>2026-04-24T14:35:37.966Z</time></trkpt><trkpt lat="43.0667445" lon="12.6256269"><ele>447.57142857142856</ele><time>2026-04-24T14:35:38.978Z</time></trkpt><trkpt lat="43.0668044" lon="12.6255665"><ele>447.0</ele><time>2026-04-24T14:35:39.978Z</time></trkpt><trkpt lat="43.0668681" lon="12.6255022"><ele>447.0</ele><time>2026-04-24T14:35:40.968Z</time></trkpt><trkpt lat="43.0669306" lon="12.6254212"><ele>447.0</ele><time>2026-04-24T14:35:41.967Z</time></trkpt><trkpt lat="43.066983" lon="12.6253407"><ele>447.0</ele><time>2026-04-24T14:35:42.982Z</time></trkpt><trkpt lat="43.0670311" lon="12.6252689"><ele>447.0</ele><time>2026-04-24T14:35:43.968Z</time></trkpt><trkpt lat="43.0670815" lon="12.6251949"><ele>447.0</ele><time>2026-04-24T14:35:44.972Z</time></trkpt><trkpt lat="43.0671294" lon="12.6251094"><ele>447.0</ele><time>2026-04-24T14:35:45.975Z</time></trkpt><trkpt lat="43.067176" lon="12.625022"><ele>446.8333333333333</ele><time>2026-04-24T14:35:46.988Z</time></trkpt><trkpt lat="43.0672216" lon="12.6249422"><ele>446.66666666666663</ele><time>2026-04-24T14:35:47.964Z</time></trkpt><trkpt lat="43.0672706" lon="12.6248644"><ele>446.5</ele><time>2026-04-24T14:35:48.987Z</time></trkpt><trkpt lat="43.0673153" lon="12.6247837"><ele>446.3333333333333</ele><time>2026-04-24T14:35:49.968Z</time></trkpt><trkpt lat="43.0673555" lon="12.6247089"><ele>446.16666666666663</ele><time>2026-04-24T14:35:50.984Z</time></trkpt><trkpt lat="43.0674178" lon="12.6245728"><ele>446.0</ele><time>2026-04-24T14:35:52.998Z</time></trkpt><trkpt lat="43.0674438" lon="12.6244897"><ele>444.4</ele><time>2026-04-24T14:35:53.976Z</time></trkpt><trkpt lat="43.0674723" lon="12.6243276"><ele>442.8</ele><time>2026-04-24T14:35:55.969Z</time></trkpt><trkpt lat="43.0674375" lon="12.6241844"><ele>441.19999999999993</ele><time>2026-04-24T14:35:57.983Z</time></trkpt><trkpt lat="43.0673535" lon="12.6241061"><ele>439.59999999999997</ele><time>2026-04-24T14:35:59.985Z</time></trkpt><trkpt lat="43.0672938" lon="12.6240712"><ele>438.0</ele><time>2026-04-24T14:36:00.986Z</time></trkpt><trkpt lat="43.067225" lon="12.6240319"><ele>434.59999999999997</ele><time>2026-04-24T14:36:01.959Z</time></trkpt><trkpt lat="43.0671576" lon="12.624003"><ele>431.19999999999993</ele><time>2026-04-24T14:36:02.972Z</time></trkpt><trkpt lat="43.0670434" lon="12.623958"><ele>427.8</ele><time>2026-04-24T14:36:04.996Z</time></trkpt><trkpt lat="43.0669428" lon="12.6239107"><ele>424.4</ele><time>2026-04-24T14:36:06.961Z</time></trkpt><trkpt lat="43.0668517" lon="12.6238746"><ele>421.0</ele><time>2026-04-24T14:36:08.988Z</time></trkpt><trkpt lat="43.0667623" lon="12.623828"><ele>421.0</ele><time>2026-04-24T14:36:10.979Z</time></trkpt><trkpt lat="43.0667235" lon="12.6237532"><ele>421.0</ele><time>2026-04-24T14:36:12.967Z</time></trkpt><trkpt lat="43.0667364" lon="12.623631"><ele>421.0</ele><time>2026-04-24T14:36:15.989Z</time></trkpt><trkpt lat="43.0667804" lon="12.6235385"><ele>421.0</ele><time>2026-04-24T14:36:17.963Z</time></trkpt><trkpt lat="43.0668134" lon="12.6234075"><ele>421.0</ele><time>2026-04-24T14:36:19.978Z</time></trkpt><trkpt lat="43.0668798" lon="12.6232597"><ele>419.33333333333337</ele><time>2026-04-24T14:36:21.984Z</time></trkpt><trkpt lat="43.066935" lon="12.6231904"><ele>417.6666666666667</ele><time>2026-04-24T14:36:22.973Z</time></trkpt><trkpt lat="43.0669899" lon="12.6231286"><ele>416.0</ele><time>2026-04-24T14:36:23.974Z</time></trkpt><trkpt lat="43.0670417" lon="12.6230732"><ele>414.33333333333337</ele><time>2026-04-24T14:36:24.971Z</time></trkpt><trkpt lat="43.0671217" lon="12.6229552"><ele>412.6666666666667</ele><time>2026-04-24T14:36:26.989Z</time></trkpt><trkpt lat="43.0671732" lon="12.6228116"><ele>411.0</ele><time>2026-04-24T14:36:28.975Z</time></trkpt><trkpt lat="43.0671849" lon="12.6227245"><ele>409.33333333333337</ele><time>2026-04-24T14:36:29.971Z</time></trkpt><trkpt lat="43.0670369" lon="12.6222843"><ele>407.6666666666667</ele><time>2026-04-24T14:36:34.967Z</time></trkpt><trkpt lat="43.0669883" lon="12.6221831"><ele>406.0</ele><time>2026-04-24T14:36:35.982Z</time></trkpt><trkpt lat="43.0669438" lon="12.6220788"><ele>406.1666666666667</ele><time>2026-04-24T14:36:36.98Z</time></trkpt><trkpt lat="43.0668914" lon="12.6219784"><ele>406.33333333333337</ele><time>2026-04-24T14:36:37.973Z</time></trkpt><trkpt lat="43.0668385" lon="12.6218812"><ele>406.5</ele><time>2026-04-24T14:36:38.962Z</time></trkpt><trkpt lat="43.0667926" lon="12.6217802"><ele>406.66666666666663</ele><time>2026-04-24T14:36:39.965Z</time></trkpt><trkpt lat="43.0667523" lon="12.6216838"><ele>406.8333333333333</ele><time>2026-04-24T14:36:40.982Z</time></trkpt><trkpt lat="43.0667179" lon="12.6215827"><ele>407.0</ele><time>2026-04-24T14:36:41.972Z</time></trkpt><trkpt lat="43.0666837" lon="12.6214814"><ele>406.99999999999994</ele><time>2026-04-24T14:36:42.98Z</time></trkpt><trkpt lat="43.0666553" lon="12.6213729"><ele>407.0</ele><time>2026-04-24T14:36:43.969Z</time></trkpt><trkpt lat="43.0666363" lon="12.621274"><ele>407.0</ele><time>2026-04-24T14:36:44.985Z</time></trkpt><trkpt lat="43.0666243" lon="12.6211834"><ele>407.0</ele><time>2026-04-24T14:36:45.96Z</time></trkpt><trkpt lat="43.0666092" lon="12.6210877"><ele>406.99999999999994</ele><time>2026-04-24T14:36:46.971Z</time></trkpt><trkpt lat="43.0666033" lon="12.6209812"><ele>407.0</ele><time>2026-04-24T14:36:47.974Z</time></trkpt><trkpt lat="43.066599" lon="12.620871"><ele>406.8333333333333</ele><time>2026-04-24T14:36:48.98Z</time></trkpt><trkpt lat="43.066591" lon="12.6207453"><ele>406.66666666666663</ele><time>2026-04-24T14:36:49.97Z</time></trkpt><trkpt lat="43.0665916" lon="12.6206192"><ele>406.5</ele><time>2026-04-24T14:36:50.976Z</time></trkpt><trkpt lat="43.0665899" lon="12.6204937"><ele>406.33333333333337</ele><time>2026-04-24T14:36:51.995Z</time></trkpt><trkpt lat="43.0666028" lon="12.6203806"><ele>406.1666666666667</ele><time>2026-04-24T14:36:52.963Z</time></trkpt><trkpt lat="43.0666238" lon="12.6202822"><ele>406.0</ele><time>2026-04-24T14:36:53.972Z</time></trkpt><trkpt lat="43.066646" lon="12.6201976"><ele>406.0</ele><time>2026-04-24T14:36:54.983Z</time></trkpt><trkpt lat="43.0666764" lon="12.6200348"><ele>406.0</ele><time>2026-04-24T14:36:56.963Z</time></trkpt><trkpt lat="43.066703" lon="12.6198907"><ele>406.0</ele><time>2026-04-24T14:36:58.996Z</time></trkpt><trkpt lat="43.0666957" lon="12.619796"><ele>406.0</ele><time>2026-04-24T14:37:00.975Z</time></trkpt><trkpt lat="43.0666065" lon="12.6197339"><ele>406.0</ele><time>2026-04-24T14:37:03.961Z</time></trkpt><trkpt lat="43.0664933" lon="12.6197824"><ele>403.7142857142857</ele><time>2026-04-24T14:37:05.989Z</time></trkpt><trkpt lat="43.066439" lon="12.6198559"><ele>401.42857142857144</ele><time>2026-04-24T14:37:06.965Z</time></trkpt><trkpt lat="43.0663925" lon="12.6199448"><ele>399.1428571428571</ele><time>2026-04-24T14:37:07.971Z</time></trkpt><trkpt lat="43.0663615" lon="12.6200488"><ele>396.8571428571429</ele><time>2026-04-24T14:37:08.972Z</time></trkpt><trkpt lat="43.066348" lon="12.6201533"><ele>394.57142857142856</ele><time>2026-04-24T14:37:09.99Z</time></trkpt><trkpt lat="43.0663394" lon="12.620245"><ele>392.2857142857143</ele><time>2026-04-24T14:37:10.961Z</time></trkpt><trkpt lat="43.0663302" lon="12.6203323"><ele>390.0</ele><time>2026-04-24T14:37:11.972Z</time></trkpt><trkpt lat="43.0663265" lon="12.6204211"><ele>390.0</ele><time>2026-04-24T14:37:12.978Z</time></trkpt><trkpt lat="43.0663151" lon="12.6205837"><ele>390.0</ele><time>2026-04-24T14:37:14.972Z</time></trkpt><trkpt lat="43.0663104" lon="12.6207253"><ele>390.0</ele><time>2026-04-24T14:37:16.982Z</time></trkpt><trkpt lat="43.0663063" lon="12.6208386"><ele>390.0</ele><time>2026-04-24T14:37:18.977Z</time></trkpt><trkpt lat="43.0662717" lon="12.6209329"><ele>390.0</ele><time>2026-04-24T14:37:21.969Z</time></trkpt><trkpt lat="43.0662084" lon="12.6209516"><ele>390.0</ele><time>2026-04-24T14:37:23.979Z</time></trkpt><trkpt lat="43.0661358" lon="12.6208722"><ele>390.0</ele><time>2026-04-24T14:37:25.971Z</time></trkpt><trkpt lat="43.066071" lon="12.6207212"><ele>390.0</ele><time>2026-04-24T14:37:27.97Z</time></trkpt><trkpt lat="43.066035" lon="12.620638"><ele>390.0</ele><time>2026-04-24T14:37:28.972Z</time></trkpt><trkpt lat="43.0659939" lon="12.6205506"><ele>390.0</ele><time>2026-04-24T14:37:29.97Z</time></trkpt><trkpt lat="43.0659519" lon="12.6204511"><ele>390.0</ele><time>2026-04-24T14:37:30.981Z</time></trkpt><trkpt lat="43.0659089" lon="12.6203479"><ele>390.0</ele><time>2026-04-24T14:37:31.972Z</time></trkpt><trkpt lat="43.0658626" lon="12.62024"><ele>390.0</ele><time>2026-04-24T14:37:32.971Z</time></trkpt><trkpt lat="43.0658188" lon="12.6201292"><ele>390.0</ele><time>2026-04-24T14:37:33.981Z</time></trkpt><trkpt lat="43.0657713" lon="12.6200154"><ele>390.0</ele><time>2026-04-24T14:37:34.973Z</time></trkpt><trkpt lat="43.065722" lon="12.619894"><ele>390.0</ele><time>2026-04-24T14:37:35.982Z</time></trkpt><trkpt lat="43.0656779" lon="12.6197727"><ele>390.0</ele><time>2026-04-24T14:37:36.989Z</time></trkpt><trkpt lat="43.0656406" lon="12.6196494"><ele>387.7142857142857</ele><time>2026-04-24T14:37:37.98Z</time></trkpt><trkpt lat="43.065614" lon="12.6195341"><ele>385.42857142857144</ele><time>2026-04-24T14:37:38.978Z</time></trkpt><trkpt lat="43.0655961" lon="12.6194342"><ele>383.1428571428571</ele><time>2026-04-24T14:37:39.972Z</time></trkpt><trkpt lat="43.0655815" lon="12.619344"><ele>380.8571428571429</ele><time>2026-04-24T14:37:40.989Z</time></trkpt><trkpt lat="43.0655718" lon="12.6192555"><ele>378.5714285714286</ele><time>2026-04-24T14:37:41.969Z</time></trkpt><trkpt lat="43.0655681" lon="12.6191687"><ele>376.2857142857143</ele><time>2026-04-24T14:37:42.968Z</time></trkpt><trkpt lat="43.0655797" lon="12.619076"><ele>374.0</ele><time>2026-04-24T14:37:44.001Z</time></trkpt><trkpt lat="43.0656048" lon="12.6189763"><ele>373.7142857142857</ele><time>2026-04-24T14:37:44.967Z</time></trkpt><trkpt lat="43.0656439" lon="12.6188836"><ele>373.42857142857144</ele><time>2026-04-24T14:37:45.972Z</time></trkpt><trkpt lat="43.0656916" lon="12.6187968"><ele>373.14285714285717</ele><time>2026-04-24T14:37:46.993Z</time></trkpt><trkpt lat="43.0657324" lon="12.6187178"><ele>372.8571428571429</ele><time>2026-04-24T14:37:47.996Z</time></trkpt><trkpt lat="43.0657747" lon="12.6186505"><ele>372.57142857142856</ele><time>2026-04-24T14:37:48.961Z</time></trkpt><trkpt lat="43.0658198" lon="12.6185755"><ele>372.28571428571433</ele><time>2026-04-24T14:37:49.978Z</time></trkpt><trkpt lat="43.0658627" lon="12.6185013"><ele>372.0</ele><time>2026-04-24T14:37:50.985Z</time></trkpt><trkpt lat="43.0659066" lon="12.6184243"><ele>373.14285714285717</ele><time>2026-04-24T14:37:51.991Z</time></trkpt><trkpt lat="43.065954" lon="12.6183449"><ele>374.2857142857143</ele><time>2026-04-24T14:37:52.976Z</time></trkpt><trkpt lat="43.0659983" lon="12.6182667"><ele>375.42857142857144</ele><time>2026-04-24T14:37:53.985Z</time></trkpt><trkpt lat="43.0660411" lon="12.6181937"><ele>376.57142857142856</ele><time>2026-04-24T14:37:54.983Z</time></trkpt><trkpt lat="43.0660838" lon="12.6181167"><ele>377.7142857142857</ele><time>2026-04-24T14:37:55.989Z</time></trkpt><trkpt lat="43.0661301" lon="12.6180398"><ele>378.8571428571429</ele><time>2026-04-24T14:37:56.969Z</time></trkpt><trkpt lat="43.0661757" lon="12.61796"><ele>380.0</ele><time>2026-04-24T14:37:57.982Z</time></trkpt><trkpt lat="43.0662267" lon="12.6178772"><ele>379.0</ele><time>2026-04-24T14:37:58.975Z</time></trkpt><trkpt lat="43.0662831" lon="12.6177913"><ele>378.0</ele><time>2026-04-24T14:37:59.977Z</time></trkpt><trkpt lat="43.0663361" lon="12.617708"><ele>377.0</ele><time>2026-04-24T14:38:00.971Z</time></trkpt><trkpt lat="43.0663917" lon="12.6176202"><ele>376.0</ele><time>2026-04-24T14:38:01.975Z</time></trkpt><trkpt lat="43.0664496" lon="12.6175549"><ele>375.0</ele><time>2026-04-24T14:38:02.981Z</time></trkpt><trkpt lat="43.0665396" lon="12.6175066"><ele>374.0</ele><time>2026-04-24T14:38:04.982Z</time></trkpt><trkpt lat="43.0666104" lon="12.6174928"><ele>374.6</ele><time>2026-04-24T14:38:06.97Z</time></trkpt><trkpt lat="43.0666937" lon="12.6174724"><ele>375.2</ele><time>2026-04-24T14:38:08.981Z</time></trkpt><trkpt lat="43.0668137" lon="12.6174539"><ele>375.8</ele><time>2026-04-24T14:38:10.965Z</time></trkpt><trkpt lat="43.0668942" lon="12.6174423"><ele>376.40000000000003</ele><time>2026-04-24T14:38:11.97Z</time></trkpt><trkpt lat="43.0669786" lon="12.6174331"><ele>377.0</ele><time>2026-04-24T14:38:12.992Z</time></trkpt><trkpt lat="43.0670616" lon="12.6174165"><ele>376.99999999999994</ele><time>2026-04-24T14:38:13.987Z</time></trkpt><trkpt lat="43.0671355" lon="12.6173912"><ele>377.0</ele><time>2026-04-24T14:38:14.978Z</time></trkpt><trkpt lat="43.0671949" lon="12.6173496"><ele>377.0</ele><time>2026-04-24T14:38:15.999Z</time></trkpt><trkpt lat="43.067241" lon="12.6172804"><ele>377.0</ele><time>2026-04-24T14:38:16.995Z</time></trkpt><trkpt lat="43.0672801" lon="12.6171993"><ele>377.0</ele><time>2026-04-24T14:38:17.955Z</time></trkpt><trkpt lat="43.0673111" lon="12.6171022"><ele>376.99999999999994</ele><time>2026-04-24T14:38:18.965Z</time></trkpt><trkpt lat="43.0673449" lon="12.6169959"><ele>377.0</ele><time>2026-04-24T14:38:19.965Z</time></trkpt><trkpt lat="43.0673625" lon="12.6168881"><ele>377.0</ele><time>2026-04-24T14:38:20.972Z</time></trkpt><trkpt lat="43.067379" lon="12.6167767"><ele>377.0</ele><time>2026-04-24T14:38:21.969Z</time></trkpt><trkpt lat="43.0674017" lon="12.6166633"><ele>377.0</ele><time>2026-04-24T14:38:22.972Z</time></trkpt><trkpt lat="43.0674257" lon="12.6165506"><ele>377.0</ele><time>2026-04-24T14:38:23.965Z</time></trkpt><trkpt lat="43.0674488" lon="12.6164303"><ele>377.0</ele><time>2026-04-24T14:38:24.976Z</time></trkpt><trkpt lat="43.0674642" lon="12.6162938"><ele>377.0</ele><time>2026-04-24T14:38:25.981Z</time></trkpt><trkpt lat="43.0674643" lon="12.6161543"><ele>375.0</ele><time>2026-04-24T14:38:26.977Z</time></trkpt><trkpt lat="43.0674483" lon="12.6160144"><ele>373.0</ele><time>2026-04-24T14:38:27.954Z</time></trkpt><trkpt lat="43.067431" lon="12.6158802"><ele>371.0</ele><time>2026-04-24T14:38:28.991Z</time></trkpt><trkpt lat="43.0674127" lon="12.6157551"><ele>369.0</ele><time>2026-04-24T14:38:29.966Z</time></trkpt><trkpt lat="43.0674094" lon="12.615647"><ele>367.0</ele><time>2026-04-24T14:38:30.989Z</time></trkpt><trkpt lat="43.0674252" lon="12.6155367"><ele>367.0</ele><time>2026-04-24T14:38:31.984Z</time></trkpt><trkpt lat="43.0674581" lon="12.61543"><ele>367.0</ele><time>2026-04-24T14:38:32.973Z</time></trkpt><trkpt lat="43.0675101" lon="12.6153341"><ele>367.0</ele><time>2026-04-24T14:38:33.962Z</time></trkpt><trkpt lat="43.0675893" lon="12.6152358"><ele>367.0</ele><time>2026-04-24T14:38:34.973Z</time></trkpt><trkpt lat="43.0676904" lon="12.6151482"><ele>367.0</ele><time>2026-04-24T14:38:35.949Z</time></trkpt><trkpt lat="43.0678105" lon="12.6150669"><ele>364.0</ele><time>2026-04-24T14:38:36.997Z</time></trkpt><trkpt lat="43.0679512" lon="12.6149939"><ele>361.0</ele><time>2026-04-24T14:38:37.961Z</time></trkpt><trkpt lat="43.0680972" lon="12.6149308"><ele>358.0</ele><time>2026-04-24T14:38:38.971Z</time></trkpt><trkpt lat="43.0682447" lon="12.6148837"><ele>357.25</ele><time>2026-04-24T14:38:39.971Z</time></trkpt><trkpt lat="43.0683758" lon="12.614818"><ele>356.5</ele><time>2026-04-24T14:38:40.997Z</time></trkpt><trkpt lat="43.0684769" lon="12.6147188"><ele>355.75</ele><time>2026-04-24T14:38:41.951Z</time></trkpt><trkpt lat="43.0685378" lon="12.6145898"><ele>355.0</ele><time>2026-04-24T14:38:42.979Z</time></trkpt><trkpt lat="43.0685615" lon="12.6144488"><ele>355.0</ele><time>2026-04-24T14:38:43.974Z</time></trkpt><trkpt lat="43.0685454" lon="12.6142961"><ele>355.0</ele><time>2026-04-24T14:38:44.979Z</time></trkpt><trkpt lat="43.0684926" lon="12.6141489"><ele>355.0</ele><time>2026-04-24T14:38:45.958Z</time></trkpt><trkpt lat="43.0684302" lon="12.6140356"><ele>355.0</ele><time>2026-04-24T14:38:46.972Z</time></trkpt><trkpt lat="43.0683663" lon="12.6139309"><ele>355.0</ele><time>2026-04-24T14:38:47.973Z</time></trkpt><trkpt lat="43.0683009" lon="12.6138266"><ele>352.4</ele><time>2026-04-24T14:38:48.973Z</time></trkpt><trkpt lat="43.0682438" lon="12.61372"><ele>349.8</ele><time>2026-04-24T14:38:49.965Z</time></trkpt><trkpt lat="43.068185" lon="12.6136132"><ele>347.20000000000005</ele><time>2026-04-24T14:38:50.978Z</time></trkpt><trkpt lat="43.0681172" lon="12.6135323"><ele>344.6</ele><time>2026-04-24T14:38:51.981Z</time></trkpt><trkpt lat="43.0680496" lon="12.613451"><ele>342.0</ele><time>2026-04-24T14:38:52.965Z</time></trkpt><trkpt lat="43.0679764" lon="12.6133637"><ele>340.8</ele><time>2026-04-24T14:38:53.971Z</time></trkpt><trkpt lat="43.0679149" lon="12.6132612"><ele>339.6</ele><time>2026-04-24T14:38:54.976Z</time></trkpt><trkpt lat="43.0678615" lon="12.613149"><ele>338.40000000000003</ele><time>2026-04-24T14:38:55.96Z</time></trkpt><trkpt lat="43.067812" lon="12.6130222"><ele>337.20000000000005</ele><time>2026-04-24T14:38:56.965Z</time></trkpt><trkpt lat="43.0677652" lon="12.6129017"><ele>336.0</ele><time>2026-04-24T14:38:57.972Z</time></trkpt><trkpt lat="43.0677417" lon="12.6127598"><ele>336.0</ele><time>2026-04-24T14:38:58.996Z</time></trkpt><trkpt lat="43.067745" lon="12.6126188"><ele>336.0</ele><time>2026-04-24T14:38:59.961Z</time></trkpt><trkpt lat="43.0677754" lon="12.612475"><ele>336.0</ele><time>2026-04-24T14:39:00.986Z</time></trkpt><trkpt lat="43.0678224" lon="12.6123577"><ele>336.0</ele><time>2026-04-24T14:39:01.982Z</time></trkpt><trkpt lat="43.0678918" lon="12.6122325"><ele>336.0</ele><time>2026-04-24T14:39:02.985Z</time></trkpt><trkpt lat="43.0679726" lon="12.6121064"><ele>337.0</ele><time>2026-04-24T14:39:03.97Z</time></trkpt><trkpt lat="43.0680605" lon="12.6119876"><ele>338.0</ele><time>2026-04-24T14:39:04.97Z</time></trkpt><trkpt lat="43.0681389" lon="12.6118711"><ele>339.0</ele><time>2026-04-24T14:39:05.968Z</time></trkpt><trkpt lat="43.0682141" lon="12.6117578"><ele>340.0</ele><time>2026-04-24T14:39:06.985Z</time></trkpt><trkpt lat="43.0682947" lon="12.6116454"><ele>340.0</ele><time>2026-04-24T14:39:07.962Z</time></trkpt><trkpt lat="43.0683739" lon="12.6115318"><ele>340.0</ele><time>2026-04-24T14:39:08.985Z</time></trkpt><trkpt lat="43.0684549" lon="12.6114212"><ele>340.0</ele><time>2026-04-24T14:39:10Z</time></trkpt><trkpt lat="43.068537" lon="12.6113151"><ele>340.0</ele><time>2026-04-24T14:39:10.963Z</time></trkpt><trkpt lat="43.0686162" lon="12.611215"><ele>337.0</ele><time>2026-04-24T14:39:11.97Z</time></trkpt><trkpt lat="43.0687047" lon="12.6111241"><ele>334.0</ele><time>2026-04-24T14:39:12.975Z</time></trkpt><trkpt lat="43.068799" lon="12.6110574"><ele>331.0</ele><time>2026-04-24T14:39:13.97Z</time></trkpt><trkpt lat="43.0688932" lon="12.6110239"><ele>328.0</ele><time>2026-04-24T14:39:14.97Z</time></trkpt><trkpt lat="43.0689937" lon="12.6110045"><ele>325.0</ele><time>2026-04-24T14:39:15.966Z</time></trkpt><trkpt lat="43.069103" lon="12.6109963"><ele>326.2</ele><time>2026-04-24T14:39:16.972Z</time></trkpt><trkpt lat="43.0692122" lon="12.6109871"><ele>327.4</ele><time>2026-04-24T14:39:17.974Z</time></trkpt><trkpt lat="43.0693191" lon="12.6109732"><ele>328.6</ele><time>2026-04-24T14:39:18.968Z</time></trkpt><trkpt lat="43.0694237" lon="12.6109566"><ele>329.8</ele><time>2026-04-24T14:39:19.991Z</time></trkpt><trkpt lat="43.0695314" lon="12.6109265"><ele>331.0</ele><time>2026-04-24T14:39:20.981Z</time></trkpt><trkpt lat="43.0696332" lon="12.6108595"><ele>331.0</ele><time>2026-04-24T14:39:21.957Z</time></trkpt><trkpt lat="43.0697183" lon="12.6107638"><ele>331.0</ele><time>2026-04-24T14:39:22.967Z</time></trkpt><trkpt lat="43.0697908" lon="12.6106436"><ele>331.0</ele><time>2026-04-24T14:39:23.98Z</time></trkpt><trkpt lat="43.0698609" lon="12.6105271"><ele>331.0</ele><time>2026-04-24T14:39:24.993Z</time></trkpt><trkpt lat="43.0699314" lon="12.6104203"><ele>331.0</ele><time>2026-04-24T14:39:25.965Z</time></trkpt><trkpt lat="43.0700028" lon="12.6103116"><ele>330.25</ele><time>2026-04-24T14:39:26.982Z</time></trkpt><trkpt lat="43.070074" lon="12.6101944"><ele>329.5</ele><time>2026-04-24T14:39:27.97Z</time></trkpt><trkpt lat="43.0701328" lon="12.6100707"><ele>328.75</ele><time>2026-04-24T14:39:28.971Z</time></trkpt><trkpt lat="43.0701872" lon="12.6099319"><ele>328.0</ele><time>2026-04-24T14:39:29.964Z</time></trkpt><trkpt lat="43.0702341" lon="12.6097856"><ele>328.0</ele><time>2026-04-24T14:39:30.967Z</time></trkpt><trkpt lat="43.0702844" lon="12.6096402"><ele>328.0</ele><time>2026-04-24T14:39:31.972Z</time></trkpt><trkpt lat="43.0703347" lon="12.609507"><ele>328.0</ele><time>2026-04-24T14:39:32.966Z</time></trkpt><trkpt lat="43.0703797" lon="12.6093754"><ele>328.0</ele><time>2026-04-24T14:39:33.976Z</time></trkpt><trkpt lat="43.0704282" lon="12.6092514"><ele>328.0</ele><time>2026-04-24T14:39:34.975Z</time></trkpt><trkpt lat="43.0704863" lon="12.6091345"><ele>326.59999999999997</ele><time>2026-04-24T14:39:35.983Z</time></trkpt><trkpt lat="43.0705555" lon="12.6090171"><ele>325.2</ele><time>2026-04-24T14:39:36.969Z</time></trkpt><trkpt lat="43.0706293" lon="12.6089066"><ele>323.8</ele><time>2026-04-24T14:39:37.989Z</time></trkpt><trkpt lat="43.0707035" lon="12.6088088"><ele>322.4</ele><time>2026-04-24T14:39:38.971Z</time></trkpt><trkpt lat="43.0707706" lon="12.6087177"><ele>321.0</ele><time>2026-04-24T14:39:39.987Z</time></trkpt><trkpt lat="43.0708292" lon="12.6086259"><ele>321.0</ele><time>2026-04-24T14:39:40.981Z</time></trkpt><trkpt lat="43.070876" lon="12.6085263"><ele>321.0</ele><time>2026-04-24T14:39:41.968Z</time></trkpt><trkpt lat="43.0709147" lon="12.6084395"><ele>321.0</ele><time>2026-04-24T14:39:42.991Z</time></trkpt><trkpt lat="43.0709317" lon="12.6083501"><ele>321.0</ele><time>2026-04-24T14:39:43.964Z</time></trkpt><trkpt lat="43.0709115" lon="12.6082035"><ele>321.0</ele><time>2026-04-24T14:39:45.969Z</time></trkpt><trkpt lat="43.0707938" lon="12.6081706"><ele>319.40000000000003</ele><time>2026-04-24T14:39:47.966Z</time></trkpt><trkpt lat="43.0707126" lon="12.6082094"><ele>317.8</ele><time>2026-04-24T14:39:48.971Z</time></trkpt><trkpt lat="43.0706343" lon="12.6082758"><ele>316.20000000000005</ele><time>2026-04-24T14:39:49.976Z</time></trkpt><trkpt lat="43.0705525" lon="12.6083464"><ele>314.6</ele><time>2026-04-24T14:39:50.969Z</time></trkpt><trkpt lat="43.0704648" lon="12.6084192"><ele>313.0</ele><time>2026-04-24T14:39:51.964Z</time></trkpt><trkpt lat="43.070373" lon="12.6084942"><ele>313.0</ele><time>2026-04-24T14:39:52.973Z</time></trkpt><trkpt lat="43.0702781" lon="12.6085719"><ele>313.0</ele><time>2026-04-24T14:39:53.971Z</time></trkpt><trkpt lat="43.0701817" lon="12.608638"><ele>313.0</ele><time>2026-04-24T14:39:54.971Z</time></trkpt><trkpt lat="43.0700954" lon="12.6086987"><ele>313.0</ele><time>2026-04-24T14:39:55.962Z</time></trkpt><trkpt lat="43.0700089" lon="12.6087519"><ele>313.0</ele><time>2026-04-24T14:39:56.987Z</time></trkpt><trkpt lat="43.0699302" lon="12.6087886"><ele>311.6</ele><time>2026-04-24T14:39:57.978Z</time></trkpt><trkpt lat="43.0698362" lon="12.6087915"><ele>310.20000000000005</ele><time>2026-04-24T14:39:58.967Z</time></trkpt><trkpt lat="43.0697563" lon="12.6087348"><ele>308.8</ele><time>2026-04-24T14:39:59.964Z</time></trkpt><trkpt lat="43.0696943" lon="12.6086508"><ele>307.40000000000003</ele><time>2026-04-24T14:40:00.966Z</time></trkpt><trkpt lat="43.0696566" lon="12.6085171"><ele>306.0</ele><time>2026-04-24T14:40:01.976Z</time></trkpt><trkpt lat="43.0696386" lon="12.6083693"><ele>303.75</ele><time>2026-04-24T14:40:02.966Z</time></trkpt><trkpt lat="43.0696149" lon="12.6081912"><ele>301.5</ele><time>2026-04-24T14:40:03.971Z</time></trkpt><trkpt lat="43.0695973" lon="12.6080054"><ele>299.25</ele><time>2026-04-24T14:40:04.968Z</time></trkpt><trkpt lat="43.0695812" lon="12.6078348"><ele>297.0</ele><time>2026-04-24T14:40:05.969Z</time></trkpt><trkpt lat="43.0695644" lon="12.6076742"><ele>296.6</ele><time>2026-04-24T14:40:06.969Z</time></trkpt><trkpt lat="43.0695501" lon="12.607524"><ele>296.2</ele><time>2026-04-24T14:40:07.979Z</time></trkpt><trkpt lat="43.0695327" lon="12.6073765"><ele>295.8</ele><time>2026-04-24T14:40:08.998Z</time></trkpt><trkpt lat="43.0695121" lon="12.6072348"><ele>295.4</ele><time>2026-04-24T14:40:09.978Z</time></trkpt><trkpt lat="43.0695018" lon="12.6070889"><ele>295.0</ele><time>2026-04-24T14:40:10.975Z</time></trkpt><trkpt lat="43.0695128" lon="12.6069487"><ele>294.5</ele><time>2026-04-24T14:40:11.974Z</time></trkpt><trkpt lat="43.069549" lon="12.6068161"><ele>294.0</ele><time>2026-04-24T14:40:12.969Z</time></trkpt><trkpt lat="43.0696184" lon="12.6066806"><ele>293.5</ele><time>2026-04-24T14:40:13.969Z</time></trkpt><trkpt lat="43.0696988" lon="12.606556"><ele>293.0</ele><time>2026-04-24T14:40:14.996Z</time></trkpt><trkpt lat="43.0697851" lon="12.6064309"><ele>293.0</ele><time>2026-04-24T14:40:15.982Z</time></trkpt><trkpt lat="43.0698803" lon="12.6062866"><ele>293.0</ele><time>2026-04-24T14:40:16.966Z</time></trkpt><trkpt lat="43.0699831" lon="12.6061426"><ele>293.0</ele><time>2026-04-24T14:40:17.963Z</time></trkpt><trkpt lat="43.070083" lon="12.605999"><ele>293.0</ele><time>2026-04-24T14:40:18.974Z</time></trkpt><trkpt lat="43.0701825" lon="12.6058603"><ele>292.8</ele><time>2026-04-24T14:40:19.988Z</time></trkpt><trkpt lat="43.0702828" lon="12.6057401"><ele>292.6</ele><time>2026-04-24T14:40:20.967Z</time></trkpt><trkpt lat="43.0703724" lon="12.6056319"><ele>292.4</ele><time>2026-04-24T14:40:21.98Z</time></trkpt><trkpt lat="43.0704445" lon="12.6055422"><ele>292.2</ele><time>2026-04-24T14:40:22.994Z</time></trkpt><trkpt lat="43.0705089" lon="12.6054655"><ele>292.0</ele><time>2026-04-24T14:40:23.983Z</time></trkpt><trkpt lat="43.0705847" lon="12.6053967"><ele>291.0</ele><time>2026-04-24T14:40:24.985Z</time></trkpt><trkpt lat="43.0706672" lon="12.6053235"><ele>290.0</ele><time>2026-04-24T14:40:25.956Z</time></trkpt><trkpt lat="43.0707604" lon="12.6052496"><ele>289.0</ele><time>2026-04-24T14:40:26.979Z</time></trkpt><trkpt lat="43.0708573" lon="12.6051767"><ele>288.0</ele><time>2026-04-24T14:40:27.964Z</time></trkpt><trkpt lat="43.0709576" lon="12.6051165"><ele>287.0</ele><time>2026-04-24T14:40:28.962Z</time></trkpt><trkpt lat="43.0710663" lon="12.6050539"><ele>287.0</ele><time>2026-04-24T14:40:29.973Z</time></trkpt><trkpt lat="43.0711848" lon="12.6049868"><ele>287.0</ele><time>2026-04-24T14:40:30.991Z</time></trkpt><trkpt lat="43.0713216" lon="12.6049168"><ele>287.0</ele><time>2026-04-24T14:40:31.973Z</time></trkpt><trkpt lat="43.0714685" lon="12.6048481"><ele>287.0</ele><time>2026-04-24T14:40:32.983Z</time></trkpt><trkpt lat="43.0716271" lon="12.6047718"><ele>287.5</ele><time>2026-04-24T14:40:33.987Z</time></trkpt><trkpt lat="43.071786" lon="12.6046989"><ele>288.0</ele><time>2026-04-24T14:40:34.959Z</time></trkpt><trkpt lat="43.0723597" lon="12.6044605"><ele>285.0</ele><time>2026-04-24T14:40:38.993Z</time></trkpt><trkpt lat="43.072486" lon="12.6043976"><ele>282.0</ele><time>2026-04-24T14:40:39.971Z</time></trkpt><trkpt lat="43.0726049" lon="12.6043371"><ele>279.0</ele><time>2026-04-24T14:40:40.991Z</time></trkpt><trkpt lat="43.0727104" lon="12.6042787"><ele>276.0</ele><time>2026-04-24T14:40:41.967Z</time></trkpt><trkpt lat="43.0727971" lon="12.6042244"><ele>276.0</ele><time>2026-04-24T14:40:42.964Z</time></trkpt><trkpt lat="43.0728674" lon="12.6041796"><ele>276.0</ele><time>2026-04-24T14:40:43.969Z</time></trkpt><trkpt lat="43.0729291" lon="12.6041454"><ele>276.0</ele><time>2026-04-24T14:40:44.993Z</time></trkpt><trkpt lat="43.0730332" lon="12.6040739"><ele>276.0</ele><time>2026-04-24T14:40:46.977Z</time></trkpt><trkpt lat="43.0731481" lon="12.6040352"><ele>276.0</ele><time>2026-04-24T14:40:48.992Z</time></trkpt><trkpt lat="43.0732165" lon="12.6040042"><ele>276.6</ele><time>2026-04-24T14:40:49.967Z</time></trkpt><trkpt lat="43.0732872" lon="12.6039571"><ele>277.20000000000005</ele><time>2026-04-24T14:40:50.963Z</time></trkpt><trkpt lat="43.0733683" lon="12.6038979"><ele>277.79999999999995</ele><time>2026-04-24T14:40:51.996Z</time></trkpt><trkpt lat="43.073465" lon="12.6038286"><ele>278.4</ele><time>2026-04-24T14:40:52.987Z</time></trkpt><trkpt lat="43.0735732" lon="12.60375"><ele>279.0</ele><time>2026-04-24T14:40:53.976Z</time></trkpt><trkpt lat="43.0736822" lon="12.6036321"><ele>273.6666666666667</ele><time>2026-04-24T14:40:54.957Z</time></trkpt><trkpt lat="43.0737951" lon="12.6034907"><ele>268.33333333333337</ele><time>2026-04-24T14:40:55.977Z</time></trkpt><trkpt lat="43.0739197" lon="12.6033429"><ele>263.0</ele><time>2026-04-24T14:40:56.974Z</time></trkpt><trkpt lat="43.07406" lon="12.6031949"><ele>261.33333333333337</ele><time>2026-04-24T14:40:57.968Z</time></trkpt><trkpt lat="43.0742137" lon="12.6030558"><ele>259.6666666666667</ele><time>2026-04-24T14:40:58.973Z</time></trkpt><trkpt lat="43.0743685" lon="12.6029129"><ele>258.0</ele><time>2026-04-24T14:40:59.969Z</time></trkpt><trkpt lat="43.0745216" lon="12.6027715"><ele>258.0</ele><time>2026-04-24T14:41:00.973Z</time></trkpt><trkpt lat="43.0746778" lon="12.6026164"><ele>258.0</ele><time>2026-04-24T14:41:01.971Z</time></trkpt><trkpt lat="43.0748374" lon="12.6024583"><ele>258.0</ele><time>2026-04-24T14:41:02.983Z</time></trkpt><trkpt lat="43.0749992" lon="12.6023171"><ele>261.0</ele><time>2026-04-24T14:41:03.959Z</time></trkpt><trkpt lat="43.075168" lon="12.602213"><ele>264.0</ele><time>2026-04-24T14:41:04.983Z</time></trkpt><trkpt lat="43.0753466" lon="12.6021141"><ele>267.0</ele><time>2026-04-24T14:41:05.957Z</time></trkpt><trkpt lat="43.07553" lon="12.60201"><ele>264.0</ele><time>2026-04-24T14:41:06.953Z</time></trkpt><trkpt lat="43.0757113" lon="12.6019126"><ele>261.0</ele><time>2026-04-24T14:41:07.971Z</time></trkpt><trkpt lat="43.0758884" lon="12.6018186"><ele>258.0</ele><time>2026-04-24T14:41:08.972Z</time></trkpt><trkpt lat="43.0760533" lon="12.6017298"><ele>258.0</ele><time>2026-04-24T14:41:09.965Z</time></trkpt><trkpt lat="43.0762064" lon="12.6016453"><ele>258.0</ele><time>2026-04-24T14:41:10.976Z</time></trkpt><trkpt lat="43.0763485" lon="12.6015474"><ele>258.0</ele><time>2026-04-24T14:41:11.984Z</time></trkpt><trkpt lat="43.0764719" lon="12.6014346"><ele>258.0</ele><time>2026-04-24T14:41:12.978Z</time></trkpt><trkpt lat="43.0765758" lon="12.6013013"><ele>258.0</ele><time>2026-04-24T14:41:13.978Z</time></trkpt><trkpt lat="43.076661" lon="12.6011414"><ele>258.0</ele><time>2026-04-24T14:41:14.973Z</time></trkpt><trkpt lat="43.0767414" lon="12.600953"><ele>258.0</ele><time>2026-04-24T14:41:15.99Z</time></trkpt><trkpt lat="43.0768131" lon="12.6007604"><ele>254.66666666666669</ele><time>2026-04-24T14:41:16.969Z</time></trkpt><trkpt lat="43.0768686" lon="12.6005656"><ele>251.33333333333334</ele><time>2026-04-24T14:41:17.986Z</time></trkpt><trkpt lat="43.0769229" lon="12.6003782"><ele>248.0</ele><time>2026-04-24T14:41:18.987Z</time></trkpt><trkpt lat="43.0769818" lon="12.600185"><ele>247.33333333333334</ele><time>2026-04-24T14:41:19.974Z</time></trkpt><trkpt lat="43.0770335" lon="12.5999908"><ele>246.66666666666669</ele><time>2026-04-24T14:41:20.97Z</time></trkpt><trkpt lat="43.0770767" lon="12.5997867"><ele>246.0</ele><time>2026-04-24T14:41:21.968Z</time></trkpt><trkpt lat="43.0770933" lon="12.5995644"><ele>246.33333333333331</ele><time>2026-04-24T14:41:22.962Z</time></trkpt><trkpt lat="43.0770975" lon="12.5993425"><ele>246.66666666666666</ele><time>2026-04-24T14:41:23.998Z</time></trkpt><trkpt lat="43.0770864" lon="12.5991018"><ele>247.0</ele><time>2026-04-24T14:41:24.972Z</time></trkpt><trkpt lat="43.0770639" lon="12.5988589"><ele>248.0</ele><time>2026-04-24T14:41:25.968Z</time></trkpt><trkpt lat="43.0770438" lon="12.5986108"><ele>249.0</ele><time>2026-04-24T14:41:26.986Z</time></trkpt><trkpt lat="43.0770218" lon="12.5983629"><ele>250.0</ele><time>2026-04-24T14:41:27.982Z</time></trkpt><trkpt lat="43.0770017" lon="12.5981192"><ele>250.0</ele><time>2026-04-24T14:41:28.976Z</time></trkpt><trkpt lat="43.07698" lon="12.5978735"><ele>250.0</ele><time>2026-04-24T14:41:29.975Z</time></trkpt><trkpt lat="43.0769626" lon="12.5976201"><ele>250.0</ele><time>2026-04-24T14:41:30.977Z</time></trkpt><trkpt lat="43.0769495" lon="12.597365"><ele>250.33333333333331</ele><time>2026-04-24T14:41:31.978Z</time></trkpt><trkpt lat="43.0769366" lon="12.5971053"><ele>250.66666666666669</ele><time>2026-04-24T14:41:32.969Z</time></trkpt><trkpt lat="43.0769254" lon="12.5968345"><ele>251.0</ele><time>2026-04-24T14:41:33.977Z</time></trkpt><trkpt lat="43.0769126" lon="12.5965416"><ele>251.0</ele><time>2026-04-24T14:41:34.994Z</time></trkpt><trkpt lat="43.0769" lon="12.5962289"><ele>251.0</ele><time>2026-04-24T14:41:35.969Z</time></trkpt><trkpt lat="43.0768809" lon="12.5959038"><ele>250.5</ele><time>2026-04-24T14:41:36.973Z</time></trkpt><trkpt lat="43.0768605" lon="12.5955604"><ele>250.0</ele><time>2026-04-24T14:41:37.971Z</time></trkpt><trkpt lat="43.0768435" lon="12.5952126"><ele>249.0</ele><time>2026-04-24T14:41:38.972Z</time></trkpt><trkpt lat="43.0768265" lon="12.5948548"><ele>248.0</ele><time>2026-04-24T14:41:39.977Z</time></trkpt><trkpt lat="43.0768144" lon="12.5944811"><ele>247.0</ele><time>2026-04-24T14:41:40.972Z</time></trkpt><trkpt lat="43.0767944" lon="12.5941019"><ele>246.0</ele><time>2026-04-24T14:41:41.97Z</time></trkpt><trkpt lat="43.0767706" lon="12.5937115"><ele>246.5</ele><time>2026-04-24T14:41:42.976Z</time></trkpt><trkpt lat="43.0767488" lon="12.5933101"><ele>247.0</ele><time>2026-04-24T14:41:43.978Z</time></trkpt><trkpt lat="43.076731" lon="12.5928901"><ele>247.5</ele><time>2026-04-24T14:41:44.97Z</time></trkpt><trkpt lat="43.0767081" lon="12.5924667"><ele>248.0</ele><time>2026-04-24T14:41:45.975Z</time></trkpt><trkpt lat="43.0766871" lon="12.5920396"><ele>249.0</ele><time>2026-04-24T14:41:46.962Z</time></trkpt><trkpt lat="43.0766667" lon="12.5916458"><ele>250.0</ele><time>2026-04-24T14:41:47.991Z</time></trkpt><trkpt lat="43.0766509" lon="12.5912862"><ele>251.0</ele><time>2026-04-24T14:41:48.974Z</time></trkpt><trkpt lat="43.0766328" lon="12.5909427"><ele>252.0</ele><time>2026-04-24T14:41:49.996Z</time></trkpt><trkpt lat="43.0766173" lon="12.5906204"><ele>254.5</ele><time>2026-04-24T14:41:50.965Z</time></trkpt><trkpt lat="43.0766015" lon="12.5903003"><ele>257.0</ele><time>2026-04-24T14:41:51.97Z</time></trkpt><trkpt lat="43.0765918" lon="12.5899849"><ele>257.0</ele><time>2026-04-24T14:41:52.967Z</time></trkpt><trkpt lat="43.0765855" lon="12.5896707"><ele>257.0</ele><time>2026-04-24T14:41:53.963Z</time></trkpt><trkpt lat="43.0765764" lon="12.5893637"><ele>254.66666666666669</ele><time>2026-04-24T14:41:54.964Z</time></trkpt><trkpt lat="43.0765702" lon="12.5890627"><ele>252.33333333333331</ele><time>2026-04-24T14:41:55.97Z</time></trkpt><trkpt lat="43.0765657" lon="12.5887601"><ele>250.0</ele><time>2026-04-24T14:41:56.971Z</time></trkpt><trkpt lat="43.0765596" lon="12.5884546"><ele>246.66666666666666</ele><time>2026-04-24T14:41:57.967Z</time></trkpt><trkpt lat="43.0765533" lon="12.588156"><ele>243.33333333333331</ele><time>2026-04-24T14:41:58.974Z</time></trkpt><trkpt lat="43.0765484" lon="12.5878643"><ele>240.0</ele><time>2026-04-24T14:41:59.977Z</time></trkpt><trkpt lat="43.0765416" lon="12.5875917"><ele>238.0</ele><time>2026-04-24T14:42:00.991Z</time></trkpt><trkpt lat="43.0765404" lon="12.5873211"><ele>236.0</ele><time>2026-04-24T14:42:01.971Z</time></trkpt><trkpt lat="43.0765358" lon="12.5870477"><ele>234.0</ele><time>2026-04-24T14:42:02.976Z</time></trkpt><trkpt lat="43.0765313" lon="12.5867676"><ele>233.0</ele><time>2026-04-24T14:42:03.963Z</time></trkpt><trkpt lat="43.0765241" lon="12.5864806"><ele>232.0</ele><time>2026-04-24T14:42:04.952Z</time></trkpt><trkpt lat="43.0765173" lon="12.5861732"><ele>231.0</ele><time>2026-04-24T14:42:05.971Z</time></trkpt><trkpt lat="43.0765074" lon="12.5858541"><ele>229.5</ele><time>2026-04-24T14:42:06.998Z</time></trkpt><trkpt lat="43.0764999" lon="12.5855152"><ele>228.0</ele><time>2026-04-24T14:42:07.968Z</time></trkpt><trkpt lat="43.0764964" lon="12.5851642"><ele>227.0</ele><time>2026-04-24T14:42:08.983Z</time></trkpt><trkpt lat="43.076488" lon="12.5847918"><ele>226.0</ele><time>2026-04-24T14:42:09.967Z</time></trkpt><trkpt lat="43.0764805" lon="12.5844084"><ele>226.0</ele><time>2026-04-24T14:42:10.985Z</time></trkpt><trkpt lat="43.0764686" lon="12.5840241"><ele>226.0</ele><time>2026-04-24T14:42:11.994Z</time></trkpt><trkpt lat="43.0764661" lon="12.5836607"><ele>225.5</ele><time>2026-04-24T14:42:12.991Z</time></trkpt><trkpt lat="43.0764672" lon="12.5833115"><ele>225.0</ele><time>2026-04-24T14:42:13.97Z</time></trkpt><trkpt lat="43.076473" lon="12.5829733"><ele>225.33333333333331</ele><time>2026-04-24T14:42:14.976Z</time></trkpt><trkpt lat="43.0764737" lon="12.5826519"><ele>225.66666666666666</ele><time>2026-04-24T14:42:15.985Z</time></trkpt><trkpt lat="43.0764719" lon="12.5823582"><ele>226.0</ele><time>2026-04-24T14:42:16.999Z</time></trkpt><trkpt lat="43.0764596" lon="12.5821027"><ele>225.66666666666666</ele><time>2026-04-24T14:42:17.96Z</time></trkpt><trkpt lat="43.0764572" lon="12.5818558"><ele>225.33333333333331</ele><time>2026-04-24T14:42:18.978Z</time></trkpt><trkpt lat="43.0764532" lon="12.5815893"><ele>225.0</ele><time>2026-04-24T14:42:19.979Z</time></trkpt><trkpt lat="43.0764511" lon="12.5813201"><ele>224.66666666666669</ele><time>2026-04-24T14:42:20.993Z</time></trkpt><trkpt lat="43.0764435" lon="12.5810684"><ele>224.33333333333334</ele><time>2026-04-24T14:42:21.98Z</time></trkpt><trkpt lat="43.0764368" lon="12.5808089"><ele>224.0</ele><time>2026-04-24T14:42:22.995Z</time></trkpt><trkpt lat="43.0764246" lon="12.5805296"><ele>223.33333333333334</ele><time>2026-04-24T14:42:23.964Z</time></trkpt><trkpt lat="43.076419" lon="12.5802347"><ele>222.66666666666669</ele><time>2026-04-24T14:42:24.999Z</time></trkpt><trkpt lat="43.0764111" lon="12.5799324"><ele>222.0</ele><time>2026-04-24T14:42:25.968Z</time></trkpt><trkpt lat="43.0764019" lon="12.5796226"><ele>223.0</ele><time>2026-04-24T14:42:26.98Z</time></trkpt><trkpt lat="43.0763958" lon="12.5793006"><ele>224.0</ele><time>2026-04-24T14:42:27.996Z</time></trkpt><trkpt lat="43.0763883" lon="12.5789681"><ele>222.5</ele><time>2026-04-24T14:42:28.981Z</time></trkpt><trkpt lat="43.0763812" lon="12.5786254"><ele>221.0</ele><time>2026-04-24T14:42:29.974Z</time></trkpt><trkpt lat="43.0763739" lon="12.5782877"><ele>221.0</ele><time>2026-04-24T14:42:30.99Z</time></trkpt><trkpt lat="43.0763677" lon="12.5779493"><ele>221.0</ele><time>2026-04-24T14:42:31.956Z</time></trkpt><trkpt lat="43.0763608" lon="12.5776184"><ele>221.0</ele><time>2026-04-24T14:42:32.994Z</time></trkpt><trkpt lat="43.0763533" lon="12.5773019"><ele>221.0</ele><time>2026-04-24T14:42:33.97Z</time></trkpt><trkpt lat="43.0763465" lon="12.5770037"><ele>221.0</ele><time>2026-04-24T14:42:34.994Z</time></trkpt><trkpt lat="43.0763391" lon="12.5767088"><ele>221.0</ele><time>2026-04-24T14:42:35.993Z</time></trkpt><trkpt lat="43.0763309" lon="12.576428"><ele>221.0</ele><time>2026-04-24T14:42:36.981Z</time></trkpt><trkpt lat="43.0763203" lon="12.5761747"><ele>221.0</ele><time>2026-04-24T14:42:37.986Z</time></trkpt><trkpt lat="43.0763179" lon="12.575933"><ele>221.0</ele><time>2026-04-24T14:42:38.965Z</time></trkpt><trkpt lat="43.076316" lon="12.5756992"><ele>221.0</ele><time>2026-04-24T14:42:39.978Z</time></trkpt><trkpt lat="43.0763075" lon="12.5754814"><ele>221.0</ele><time>2026-04-24T14:42:40.99Z</time></trkpt><trkpt lat="43.0763044" lon="12.5752663"><ele>221.0</ele><time>2026-04-24T14:42:41.994Z</time></trkpt><trkpt lat="43.0762966" lon="12.5750599"><ele>221.0</ele><time>2026-04-24T14:42:42.961Z</time></trkpt><trkpt lat="43.0762889" lon="12.5748505"><ele>221.0</ele><time>2026-04-24T14:42:43.993Z</time></trkpt><trkpt lat="43.0762776" lon="12.5746333"><ele>219.66666666666669</ele><time>2026-04-24T14:42:44.984Z</time></trkpt><trkpt lat="43.076269" lon="12.5744218"><ele>218.33333333333331</ele><time>2026-04-24T14:42:45.986Z</time></trkpt><trkpt lat="43.0762609" lon="12.574212"><ele>217.0</ele><time>2026-04-24T14:42:46.997Z</time></trkpt><trkpt lat="43.0762552" lon="12.5740094"><ele>217.0</ele><time>2026-04-24T14:42:47.964Z</time></trkpt><trkpt lat="43.0762481" lon="12.5737924"><ele>217.0</ele><time>2026-04-24T14:42:48.977Z</time></trkpt><trkpt lat="43.0762431" lon="12.5735633"><ele>217.0</ele><time>2026-04-24T14:42:49.979Z</time></trkpt><trkpt lat="43.07623" lon="12.5733127"><ele>216.33333333333331</ele><time>2026-04-24T14:42:51.003Z</time></trkpt><trkpt lat="43.0762168" lon="12.5730449"><ele>215.66666666666669</ele><time>2026-04-24T14:42:51.959Z</time></trkpt><trkpt lat="43.0762106" lon="12.5727542"><ele>215.0</ele><time>2026-04-24T14:42:52.987Z</time></trkpt><trkpt lat="43.0762035" lon="12.5724601"><ele>215.0</ele><time>2026-04-24T14:42:53.99Z</time></trkpt><trkpt lat="43.0761991" lon="12.5721803"><ele>215.0</ele><time>2026-04-24T14:42:54.973Z</time></trkpt><trkpt lat="43.0761945" lon="12.5719075"><ele>215.0</ele><time>2026-04-24T14:42:55.969Z</time></trkpt><trkpt lat="43.0761831" lon="12.5716411"><ele>214.66666666666669</ele><time>2026-04-24T14:42:56.999Z</time></trkpt><trkpt lat="43.0761734" lon="12.5713771"><ele>214.33333333333331</ele><time>2026-04-24T14:42:57.993Z</time></trkpt><trkpt lat="43.0761639" lon="12.5711134"><ele>214.0</ele><time>2026-04-24T14:42:58.975Z</time></trkpt><trkpt lat="43.0761523" lon="12.5708596"><ele>214.0</ele><time>2026-04-24T14:42:59.962Z</time></trkpt><trkpt lat="43.0761375" lon="12.5706112"><ele>214.0</ele><time>2026-04-24T14:43:00.982Z</time></trkpt><trkpt lat="43.07612" lon="12.5703495"><ele>214.0</ele><time>2026-04-24T14:43:01.984Z</time></trkpt><trkpt lat="43.0761018" lon="12.5700814"><ele>214.0</ele><time>2026-04-24T14:43:02.973Z</time></trkpt><trkpt lat="43.0760885" lon="12.5698067"><ele>214.0</ele><time>2026-04-24T14:43:03.976Z</time></trkpt><trkpt lat="43.0760828" lon="12.5695305"><ele>214.0</ele><time>2026-04-24T14:43:04.992Z</time></trkpt><trkpt lat="43.0760812" lon="12.5692417"><ele>214.0</ele><time>2026-04-24T14:43:05.977Z</time></trkpt><trkpt lat="43.0760787" lon="12.5689459"><ele>214.0</ele><time>2026-04-24T14:43:06.986Z</time></trkpt><trkpt lat="43.0760696" lon="12.5686484"><ele>214.0</ele><time>2026-04-24T14:43:07.972Z</time></trkpt><trkpt lat="43.0760581" lon="12.5683399"><ele>213.5</ele><time>2026-04-24T14:43:08.985Z</time></trkpt><trkpt lat="43.0760487" lon="12.568027"><ele>213.0</ele><time>2026-04-24T14:43:09.979Z</time></trkpt><trkpt lat="43.0760378" lon="12.5677136"><ele>211.5</ele><time>2026-04-24T14:43:10.984Z</time></trkpt><trkpt lat="43.0760245" lon="12.5673952"><ele>210.0</ele><time>2026-04-24T14:43:11.998Z</time></trkpt><trkpt lat="43.0760138" lon="12.5670769"><ele>210.33333333333331</ele><time>2026-04-24T14:43:12.976Z</time></trkpt><trkpt lat="43.0760053" lon="12.5667755"><ele>210.66666666666666</ele><time>2026-04-24T14:43:13.964Z</time></trkpt><trkpt lat="43.0759946" lon="12.5664927"><ele>211.0</ele><time>2026-04-24T14:43:14.998Z</time></trkpt><trkpt lat="43.0759855" lon="12.5662149"><ele>211.33333333333331</ele><time>2026-04-24T14:43:15.988Z</time></trkpt><trkpt lat="43.075973" lon="12.5659409"><ele>211.66666666666669</ele><time>2026-04-24T14:43:16.967Z</time></trkpt><trkpt lat="43.0759617" lon="12.5656662"><ele>212.0</ele><time>2026-04-24T14:43:17.976Z</time></trkpt><trkpt lat="43.0759518" lon="12.5653934"><ele>211.0</ele><time>2026-04-24T14:43:18.993Z</time></trkpt><trkpt lat="43.0759426" lon="12.5651141"><ele>210.0</ele><time>2026-04-24T14:43:19.999Z</time></trkpt><trkpt lat="43.0759327" lon="12.5648419"><ele>209.0</ele><time>2026-04-24T14:43:20.976Z</time></trkpt><trkpt lat="43.0759221" lon="12.5645824"><ele>209.33333333333334</ele><time>2026-04-24T14:43:21.984Z</time></trkpt><trkpt lat="43.0759087" lon="12.5643397"><ele>209.66666666666669</ele><time>2026-04-24T14:43:22.993Z</time></trkpt><trkpt lat="43.0758947" lon="12.5640934"><ele>210.0</ele><time>2026-04-24T14:43:23.97Z</time></trkpt><trkpt lat="43.075882" lon="12.563845"><ele>210.0</ele><time>2026-04-24T14:43:24.981Z</time></trkpt><trkpt lat="43.0758734" lon="12.5635976"><ele>210.0</ele><time>2026-04-24T14:43:25.981Z</time></trkpt><trkpt lat="43.0758624" lon="12.5633532"><ele>210.0</ele><time>2026-04-24T14:43:26.988Z</time></trkpt><trkpt lat="43.0758491" lon="12.5631163"><ele>210.0</ele><time>2026-04-24T14:43:27.954Z</time></trkpt><trkpt lat="43.0758356" lon="12.5628735"><ele>210.0</ele><time>2026-04-24T14:43:28.979Z</time></trkpt><trkpt lat="43.075828" lon="12.5626247"><ele>210.0</ele><time>2026-04-24T14:43:29.989Z</time></trkpt><trkpt lat="43.0758185" lon="12.5623784"><ele>210.0</ele><time>2026-04-24T14:43:30.997Z</time></trkpt><trkpt lat="43.0758099" lon="12.5621296"><ele>210.0</ele><time>2026-04-24T14:43:31.964Z</time></trkpt><trkpt lat="43.0757987" lon="12.5618759"><ele>210.0</ele><time>2026-04-24T14:43:32.977Z</time></trkpt><trkpt lat="43.0757923" lon="12.5616262"><ele>210.0</ele><time>2026-04-24T14:43:33.984Z</time></trkpt><trkpt lat="43.0757838" lon="12.5613746"><ele>210.0</ele><time>2026-04-24T14:43:35.001Z</time></trkpt><trkpt lat="43.0757751" lon="12.5611205"><ele>210.0</ele><time>2026-04-24T14:43:35.968Z</time></trkpt><trkpt lat="43.0757664" lon="12.5608712"><ele>209.0</ele><time>2026-04-24T14:43:36.974Z</time></trkpt><trkpt lat="43.0757542" lon="12.5606253"><ele>208.0</ele><time>2026-04-24T14:43:37.965Z</time></trkpt><trkpt lat="43.0757455" lon="12.5603862"><ele>207.0</ele><time>2026-04-24T14:43:38.961Z</time></trkpt><trkpt lat="43.0757312" lon="12.5601417"><ele>207.0</ele><time>2026-04-24T14:43:39.966Z</time></trkpt><trkpt lat="43.0757182" lon="12.5599048"><ele>207.0</ele><time>2026-04-24T14:43:40.989Z</time></trkpt><trkpt lat="43.0757037" lon="12.5596662"><ele>207.0</ele><time>2026-04-24T14:43:41.994Z</time></trkpt><trkpt lat="43.0756949" lon="12.5594317"><ele>207.0</ele><time>2026-04-24T14:43:42.985Z</time></trkpt><trkpt lat="43.0756902" lon="12.5592032"><ele>207.0</ele><time>2026-04-24T14:43:43.981Z</time></trkpt><trkpt lat="43.0756868" lon="12.5590014"><ele>207.0</ele><time>2026-04-24T14:43:44.985Z</time></trkpt><trkpt lat="43.0756838" lon="12.5588296"><ele>207.0</ele><time>2026-04-24T14:43:45.987Z</time></trkpt><trkpt lat="43.075681" lon="12.5586731"><ele>206.75</ele><time>2026-04-24T14:43:46.969Z</time></trkpt><trkpt lat="43.075676" lon="12.5585191"><ele>206.5</ele><time>2026-04-24T14:43:47.981Z</time></trkpt><trkpt lat="43.0756693" lon="12.5583487"><ele>206.25</ele><time>2026-04-24T14:43:48.993Z</time></trkpt><trkpt lat="43.0756592" lon="12.5581575"><ele>206.0</ele><time>2026-04-24T14:43:49.982Z</time></trkpt><trkpt lat="43.0756513" lon="12.5579435"><ele>205.66666666666669</ele><time>2026-04-24T14:43:50.977Z</time></trkpt><trkpt lat="43.0756446" lon="12.5577176"><ele>205.33333333333331</ele><time>2026-04-24T14:43:51.989Z</time></trkpt><trkpt lat="43.0756427" lon="12.5574779"><ele>205.0</ele><time>2026-04-24T14:43:52.978Z</time></trkpt><trkpt lat="43.0756374" lon="12.5572315"><ele>204.66666666666666</ele><time>2026-04-24T14:43:53.976Z</time></trkpt><trkpt lat="43.0756277" lon="12.556979"><ele>204.33333333333331</ele><time>2026-04-24T14:43:54.99Z</time></trkpt><trkpt lat="43.0756156" lon="12.5567083"><ele>204.0</ele><time>2026-04-24T14:43:55.979Z</time></trkpt><trkpt lat="43.075602" lon="12.55643"><ele>203.66666666666669</ele><time>2026-04-24T14:43:56.992Z</time></trkpt><trkpt lat="43.0755942" lon="12.5561416"><ele>203.33333333333334</ele><time>2026-04-24T14:43:57.975Z</time></trkpt><trkpt lat="43.0755844" lon="12.5558479"><ele>203.0</ele><time>2026-04-24T14:43:58.997Z</time></trkpt><trkpt lat="43.0755742" lon="12.5555409"><ele>203.0</ele><time>2026-04-24T14:43:59.976Z</time></trkpt><trkpt lat="43.0755619" lon="12.5552301"><ele>203.0</ele><time>2026-04-24T14:44:00.983Z</time></trkpt><trkpt lat="43.0755484" lon="12.5549317"><ele>203.0</ele><time>2026-04-24T14:44:01.978Z</time></trkpt><trkpt lat="43.0755374" lon="12.5546345"><ele>203.0</ele><time>2026-04-24T14:44:02.986Z</time></trkpt><trkpt lat="43.0755204" lon="12.5543326"><ele>203.0</ele><time>2026-04-24T14:44:03.985Z</time></trkpt><trkpt lat="43.0755047" lon="12.554026"><ele>203.0</ele><time>2026-04-24T14:44:04.973Z</time></trkpt><trkpt lat="43.0754883" lon="12.5537209"><ele>203.0</ele><time>2026-04-24T14:44:05.991Z</time></trkpt><trkpt lat="43.0754723" lon="12.5534097"><ele>203.0</ele><time>2026-04-24T14:44:06.955Z</time></trkpt><trkpt lat="43.0754547" lon="12.5530971"><ele>202.33333333333334</ele><time>2026-04-24T14:44:07.994Z</time></trkpt><trkpt lat="43.0754377" lon="12.5527946"><ele>201.66666666666669</ele><time>2026-04-24T14:44:08.971Z</time></trkpt><trkpt lat="43.0754185" lon="12.5525083"><ele>201.0</ele><time>2026-04-24T14:44:09.981Z</time></trkpt><trkpt lat="43.0754024" lon="12.5522342"><ele>200.33333333333331</ele><time>2026-04-24T14:44:10.99Z</time></trkpt><trkpt lat="43.0753878" lon="12.5519764"><ele>199.66666666666666</ele><time>2026-04-24T14:44:11.969Z</time></trkpt><trkpt lat="43.0753709" lon="12.5517326"><ele>199.0</ele><time>2026-04-24T14:44:12.983Z</time></trkpt><trkpt lat="43.0753544" lon="12.5514993"><ele>199.0</ele><time>2026-04-24T14:44:13.989Z</time></trkpt><trkpt lat="43.0753435" lon="12.5512825"><ele>199.0</ele><time>2026-04-24T14:44:14.993Z</time></trkpt><trkpt lat="43.075329" lon="12.5510844"><ele>199.0</ele><time>2026-04-24T14:44:15.963Z</time></trkpt><trkpt lat="43.0753165" lon="12.5509005"><ele>199.0</ele><time>2026-04-24T14:44:16.992Z</time></trkpt><trkpt lat="43.0753052" lon="12.5507254"><ele>199.2</ele><time>2026-04-24T14:44:17.981Z</time></trkpt><trkpt lat="43.0752947" lon="12.5505713"><ele>199.39999999999998</ele><time>2026-04-24T14:44:19.002Z</time></trkpt><trkpt lat="43.0752857" lon="12.5504385"><ele>199.6</ele><time>2026-04-24T14:44:19.968Z</time></trkpt><trkpt lat="43.0752783" lon="12.5503339"><ele>199.8</ele><time>2026-04-24T14:44:20.977Z</time></trkpt><trkpt lat="43.0752737" lon="12.5502289"><ele>200.0</ele><time>2026-04-24T14:44:21.986Z</time></trkpt><trkpt lat="43.0752783" lon="12.5501046"><ele>199.6</ele><time>2026-04-24T14:44:22.977Z</time></trkpt><trkpt lat="43.0752909" lon="12.5499638"><ele>199.2</ele><time>2026-04-24T14:44:23.969Z</time></trkpt><trkpt lat="43.075304" lon="12.5498012"><ele>198.8</ele><time>2026-04-24T14:44:24.965Z</time></trkpt><trkpt lat="43.0753101" lon="12.5496435"><ele>198.4</ele><time>2026-04-24T14:44:25.983Z</time></trkpt><trkpt lat="43.0753233" lon="12.5494959"><ele>198.0</ele><time>2026-04-24T14:44:26.976Z</time></trkpt><trkpt lat="43.0753335" lon="12.5493596"><ele>198.0</ele><time>2026-04-24T14:44:27.966Z</time></trkpt><trkpt lat="43.0753467" lon="12.5492185"><ele>198.0</ele><time>2026-04-24T14:44:28.982Z</time></trkpt><trkpt lat="43.0753569" lon="12.5490803"><ele>198.0</ele><time>2026-04-24T14:44:29.998Z</time></trkpt><trkpt lat="43.0753697" lon="12.5489378"><ele>198.0</ele><time>2026-04-24T14:44:30.973Z</time></trkpt><trkpt lat="43.0753882" lon="12.548789"><ele>198.0</ele><time>2026-04-24T14:44:31.968Z</time></trkpt><trkpt lat="43.0754138" lon="12.5486408"><ele>198.4</ele><time>2026-04-24T14:44:32.977Z</time></trkpt><trkpt lat="43.0754399" lon="12.5484923"><ele>198.8</ele><time>2026-04-24T14:44:33.998Z</time></trkpt><trkpt lat="43.0754644" lon="12.5483506"><ele>199.2</ele><time>2026-04-24T14:44:34.969Z</time></trkpt><trkpt lat="43.075493" lon="12.5482028"><ele>199.6</ele><time>2026-04-24T14:44:35.985Z</time></trkpt><trkpt lat="43.0755246" lon="12.5480494"><ele>200.0</ele><time>2026-04-24T14:44:36.975Z</time></trkpt><trkpt lat="43.0755557" lon="12.5479012"><ele>200.33333333333334</ele><time>2026-04-24T14:44:37.989Z</time></trkpt><trkpt lat="43.0755832" lon="12.5477644"><ele>200.66666666666669</ele><time>2026-04-24T14:44:38.97Z</time></trkpt><trkpt lat="43.075607" lon="12.5476398"><ele>201.0</ele><time>2026-04-24T14:44:39.977Z</time></trkpt><trkpt lat="43.0757037" lon="12.5471643"><ele>201.0</ele><time>2026-04-24T14:44:43.988Z</time></trkpt><trkpt lat="43.0757245" lon="12.5470657"><ele>201.0</ele><time>2026-04-24T14:44:44.993Z</time></trkpt><trkpt lat="43.0757594" lon="12.5469244"><ele>201.0</ele><time>2026-04-24T14:44:46.97Z</time></trkpt><trkpt lat="43.0757768" lon="12.5468129"><ele>201.0</ele><time>2026-04-24T14:44:48.983Z</time></trkpt><trkpt lat="43.0757892" lon="12.5467222"><ele>201.0</ele><time>2026-04-24T14:44:50.968Z</time></trkpt><trkpt lat="43.0757996" lon="12.5466083"><ele>201.0</ele><time>2026-04-24T14:44:52.956Z</time></trkpt><trkpt lat="43.0758254" lon="12.5464451"><ele>201.33333333333334</ele><time>2026-04-24T14:44:54.978Z</time></trkpt><trkpt lat="43.0758658" lon="12.5462797"><ele>201.66666666666669</ele><time>2026-04-24T14:44:56.97Z</time></trkpt><trkpt lat="43.0758932" lon="12.5461886"><ele>202.0</ele><time>2026-04-24T14:44:57.951Z</time></trkpt><trkpt lat="43.0759122" lon="12.5460921"><ele>202.33333333333334</ele><time>2026-04-24T14:44:58.976Z</time></trkpt><trkpt lat="43.0759322" lon="12.5460063"><ele>202.66666666666669</ele><time>2026-04-24T14:44:59.968Z</time></trkpt><trkpt lat="43.0759472" lon="12.5459172"><ele>203.0</ele><time>2026-04-24T14:45:00.965Z</time></trkpt><trkpt lat="43.0759632" lon="12.5457811"><ele>203.0</ele><time>2026-04-24T14:45:02.994Z</time></trkpt><trkpt lat="43.0759885" lon="12.5456556"><ele>203.0</ele><time>2026-04-24T14:45:04.973Z</time></trkpt><trkpt lat="43.0760151" lon="12.5455072"><ele>203.0</ele><time>2026-04-24T14:45:06.96Z</time></trkpt><trkpt lat="43.0760312" lon="12.5454202"><ele>203.0</ele><time>2026-04-24T14:45:07.964Z</time></trkpt><trkpt lat="43.076041" lon="12.5453332"><ele>203.0</ele><time>2026-04-24T14:45:08.975Z</time></trkpt><trkpt lat="43.076065" lon="12.545178"><ele>203.00000000000003</ele><time>2026-04-24T14:45:10.968Z</time></trkpt><trkpt lat="43.0760881" lon="12.5450112"><ele>203.0</ele><time>2026-04-24T14:45:12.983Z</time></trkpt><trkpt lat="43.0761004" lon="12.5449107"><ele>203.0</ele><time>2026-04-24T14:45:13.968Z</time></trkpt><trkpt lat="43.0761148" lon="12.5448049"><ele>203.0</ele><time>2026-04-24T14:45:14.97Z</time></trkpt><trkpt lat="43.0761292" lon="12.5446997"><ele>203.00000000000003</ele><time>2026-04-24T14:45:15.994Z</time></trkpt><trkpt lat="43.0761437" lon="12.544602"><ele>203.0</ele><time>2026-04-24T14:45:16.982Z</time></trkpt><trkpt lat="43.0761599" lon="12.5445057"><ele>202.83333333333334</ele><time>2026-04-24T14:45:17.958Z</time></trkpt><trkpt lat="43.0761746" lon="12.5444218"><ele>202.66666666666669</ele><time>2026-04-24T14:45:18.978Z</time></trkpt><trkpt lat="43.0761893" lon="12.5443321"><ele>202.5</ele><time>2026-04-24T14:45:19.956Z</time></trkpt><trkpt lat="43.0762022" lon="12.5442438"><ele>202.33333333333331</ele><time>2026-04-24T14:45:20.992Z</time></trkpt><trkpt lat="43.0762174" lon="12.5441547"><ele>202.16666666666666</ele><time>2026-04-24T14:45:21.96Z</time></trkpt><trkpt lat="43.0762424" lon="12.5439848"><ele>202.0</ele><time>2026-04-24T14:45:23.979Z</time></trkpt><trkpt lat="43.0762664" lon="12.5438348"><ele>202.0</ele><time>2026-04-24T14:45:25.966Z</time></trkpt><trkpt lat="43.0762883" lon="12.5436836"><ele>202.0</ele><time>2026-04-24T14:45:27.984Z</time></trkpt><trkpt lat="43.0763032" lon="12.5435942"><ele>202.0</ele><time>2026-04-24T14:45:28.99Z</time></trkpt><trkpt lat="43.0763471" lon="12.5434413"><ele>202.0</ele><time>2026-04-24T14:45:30.99Z</time></trkpt><trkpt lat="43.0764115" lon="12.5433323"><ele>202.0</ele><time>2026-04-24T14:45:32.984Z</time></trkpt><trkpt lat="43.0764711" lon="12.5432695"><ele>202.0</ele><time>2026-04-24T14:45:34.971Z</time></trkpt><trkpt lat="43.0764967" lon="12.5431904"><ele>202.0</ele><time>2026-04-24T14:45:36.966Z</time></trkpt><trkpt lat="43.0764795" lon="12.5430709"><ele>202.0</ele><time>2026-04-24T14:45:38.969Z</time></trkpt><trkpt lat="43.0764522" lon="12.5429905"><ele>202.0</ele><time>2026-04-24T14:45:39.957Z</time></trkpt><trkpt lat="43.0764193" lon="12.5429003"><ele>202.0</ele><time>2026-04-24T14:45:40.971Z</time></trkpt><trkpt lat="43.0764159" lon="12.542812"><ele>202.0</ele><time>2026-04-24T14:45:41.971Z</time></trkpt><trkpt lat="43.0764329" lon="12.5427004"><ele>202.0</ele><time>2026-04-24T14:45:42.981Z</time></trkpt><trkpt lat="43.0764512" lon="12.5425681"><ele>202.0</ele><time>2026-04-24T14:45:43.966Z</time></trkpt><trkpt lat="43.0764797" lon="12.5424097"><ele>202.0</ele><time>2026-04-24T14:45:44.971Z</time></trkpt><trkpt lat="43.0765137" lon="12.5422606"><ele>202.0</ele><time>2026-04-24T14:45:45.969Z</time></trkpt><trkpt lat="43.076543" lon="12.5421001"><ele>202.0</ele><time>2026-04-24T14:45:46.959Z</time></trkpt><trkpt lat="43.0765718" lon="12.5419379"><ele>201.75</ele><time>2026-04-24T14:45:47.976Z</time></trkpt><trkpt lat="43.0765997" lon="12.5417691"><ele>201.5</ele><time>2026-04-24T14:45:48.985Z</time></trkpt><trkpt lat="43.0766263" lon="12.5416017"><ele>201.25</ele><time>2026-04-24T14:45:49.981Z</time></trkpt><trkpt lat="43.0766582" lon="12.5414367"><ele>201.0</ele><time>2026-04-24T14:45:50.981Z</time></trkpt><trkpt lat="43.0766859" lon="12.54126"><ele>201.25</ele><time>2026-04-24T14:45:51.968Z</time></trkpt><trkpt lat="43.0767093" lon="12.5410928"><ele>201.5</ele><time>2026-04-24T14:45:52.973Z</time></trkpt><trkpt lat="43.0767333" lon="12.5409217"><ele>201.75</ele><time>2026-04-24T14:45:53.978Z</time></trkpt><trkpt lat="43.0767566" lon="12.5407449"><ele>202.0</ele><time>2026-04-24T14:45:54.972Z</time></trkpt><trkpt lat="43.076783" lon="12.5405778"><ele>202.0</ele><time>2026-04-24T14:45:55.965Z</time></trkpt><trkpt lat="43.0768105" lon="12.5404096"><ele>202.0</ele><time>2026-04-24T14:45:56.982Z</time></trkpt><trkpt lat="43.0768422" lon="12.5402455"><ele>202.0</ele><time>2026-04-24T14:45:57.971Z</time></trkpt><trkpt lat="43.0768688" lon="12.5400881"><ele>202.0</ele><time>2026-04-24T14:45:58.97Z</time></trkpt><trkpt lat="43.0768922" lon="12.5399258"><ele>201.5</ele><time>2026-04-24T14:45:59.966Z</time></trkpt><trkpt lat="43.0769205" lon="12.5397528"><ele>201.0</ele><time>2026-04-24T14:46:00.98Z</time></trkpt><trkpt lat="43.0769481" lon="12.5395695"><ele>200.5</ele><time>2026-04-24T14:46:01.965Z</time></trkpt><trkpt lat="43.076986" lon="12.5393762"><ele>200.0</ele><time>2026-04-24T14:46:02.97Z</time></trkpt><trkpt lat="43.077023" lon="12.5391762"><ele>200.0</ele><time>2026-04-24T14:46:03.981Z</time></trkpt><trkpt lat="43.0770568" lon="12.538978"><ele>200.0</ele><time>2026-04-24T14:46:04.969Z</time></trkpt><trkpt lat="43.0770863" lon="12.5387847"><ele>200.0</ele><time>2026-04-24T14:46:05.968Z</time></trkpt><trkpt lat="43.0771158" lon="12.53859"><ele>200.0</ele><time>2026-04-24T14:46:06.977Z</time></trkpt><trkpt lat="43.0771441" lon="12.5383957"><ele>199.75</ele><time>2026-04-24T14:46:07.989Z</time></trkpt><trkpt lat="43.0771775" lon="12.5382153"><ele>199.5</ele><time>2026-04-24T14:46:08.97Z</time></trkpt><trkpt lat="43.0772046" lon="12.5380414"><ele>199.25</ele><time>2026-04-24T14:46:09.983Z</time></trkpt><trkpt lat="43.077234" lon="12.5378868"><ele>199.0</ele><time>2026-04-24T14:46:10.994Z</time></trkpt><trkpt lat="43.0772623" lon="12.5377316"><ele>199.0</ele><time>2026-04-24T14:46:12.004Z</time></trkpt><trkpt lat="43.077292" lon="12.5375685"><ele>199.0</ele><time>2026-04-24T14:46:12.963Z</time></trkpt><trkpt lat="43.0773207" lon="12.5374045"><ele>199.0</ele><time>2026-04-24T14:46:13.98Z</time></trkpt><trkpt lat="43.0773524" lon="12.5372348"><ele>199.0</ele><time>2026-04-24T14:46:14.969Z</time></trkpt><trkpt lat="43.0773759" lon="12.5370649"><ele>199.0</ele><time>2026-04-24T14:46:15.985Z</time></trkpt><trkpt lat="43.0773983" lon="12.5368883"><ele>199.0</ele><time>2026-04-24T14:46:16.971Z</time></trkpt><trkpt lat="43.0774191" lon="12.5367013"><ele>199.0</ele><time>2026-04-24T14:46:17.979Z</time></trkpt><trkpt lat="43.0774311" lon="12.5365009"><ele>199.0</ele><time>2026-04-24T14:46:18.973Z</time></trkpt><trkpt lat="43.0774401" lon="12.5362926"><ele>199.66666666666666</ele><time>2026-04-24T14:46:19.986Z</time></trkpt><trkpt lat="43.0774516" lon="12.5360605"><ele>200.33333333333331</ele><time>2026-04-24T14:46:20.968Z</time></trkpt><trkpt lat="43.0774662" lon="12.5358014"><ele>201.0</ele><time>2026-04-24T14:46:21.993Z</time></trkpt><trkpt lat="43.0774876" lon="12.5355374"><ele>201.33333333333331</ele><time>2026-04-24T14:46:23.001Z</time></trkpt><trkpt lat="43.0775091" lon="12.5352451"><ele>201.66666666666666</ele><time>2026-04-24T14:46:23.991Z</time></trkpt><trkpt lat="43.0775304" lon="12.5349442"><ele>202.0</ele><time>2026-04-24T14:46:24.982Z</time></trkpt><trkpt lat="43.0775515" lon="12.5346428"><ele>201.66666666666666</ele><time>2026-04-24T14:46:25.977Z</time></trkpt><trkpt lat="43.0775652" lon="12.5343601"><ele>201.33333333333331</ele><time>2026-04-24T14:46:26.974Z</time></trkpt><trkpt lat="43.0775832" lon="12.5340931"><ele>201.0</ele><time>2026-04-24T14:46:27.959Z</time></trkpt><trkpt lat="43.0775998" lon="12.533833"><ele>200.33333333333331</ele><time>2026-04-24T14:46:28.964Z</time></trkpt><trkpt lat="43.07761" lon="12.533587"><ele>199.66666666666666</ele><time>2026-04-24T14:46:29.972Z</time></trkpt><trkpt lat="43.0776256" lon="12.5333218"><ele>199.0</ele><time>2026-04-24T14:46:30.991Z</time></trkpt><trkpt lat="43.0776372" lon="12.5330452"><ele>198.66666666666666</ele><time>2026-04-24T14:46:31.967Z</time></trkpt><trkpt lat="43.0776476" lon="12.5327505"><ele>198.33333333333331</ele><time>2026-04-24T14:46:32.986Z</time></trkpt><trkpt lat="43.0776591" lon="12.5324416"><ele>198.0</ele><time>2026-04-24T14:46:33.979Z</time></trkpt><trkpt lat="43.0776764" lon="12.5321294"><ele>198.0</ele><time>2026-04-24T14:46:34.997Z</time></trkpt><trkpt lat="43.0776999" lon="12.5318102"><ele>198.0</ele><time>2026-04-24T14:46:35.984Z</time></trkpt><trkpt lat="43.0777229" lon="12.5314971"><ele>198.0</ele><time>2026-04-24T14:46:36.974Z</time></trkpt><trkpt lat="43.0777389" lon="12.5311928"><ele>198.0</ele><time>2026-04-24T14:46:37.989Z</time></trkpt><trkpt lat="43.0777499" lon="12.530912"><ele>198.0</ele><time>2026-04-24T14:46:38.964Z</time></trkpt><trkpt lat="43.0777638" lon="12.5306445"><ele>198.0</ele><time>2026-04-24T14:46:39.967Z</time></trkpt><trkpt lat="43.0777754" lon="12.5303941"><ele>198.0</ele><time>2026-04-24T14:46:40.983Z</time></trkpt><trkpt lat="43.077786" lon="12.53015"><ele>198.0</ele><time>2026-04-24T14:46:41.98Z</time></trkpt><trkpt lat="43.0777965" lon="12.5299006"><ele>198.0</ele><time>2026-04-24T14:46:42.968Z</time></trkpt><trkpt lat="43.0778109" lon="12.529645"><ele>198.0</ele><time>2026-04-24T14:46:43.978Z</time></trkpt><trkpt lat="43.0778232" lon="12.529385"><ele>198.0</ele><time>2026-04-24T14:46:44.985Z</time></trkpt><trkpt lat="43.077837" lon="12.5291244"><ele>198.0</ele><time>2026-04-24T14:46:45.961Z</time></trkpt><trkpt lat="43.077852" lon="12.5288773"><ele>198.0</ele><time>2026-04-24T14:46:46.988Z</time></trkpt><trkpt lat="43.0778635" lon="12.5286374"><ele>198.0</ele><time>2026-04-24T14:46:47.993Z</time></trkpt><trkpt lat="43.0778721" lon="12.5284001"><ele>198.0</ele><time>2026-04-24T14:46:49Z</time></trkpt><trkpt lat="43.0778791" lon="12.5281631"><ele>198.0</ele><time>2026-04-24T14:46:49.968Z</time></trkpt><trkpt lat="43.0778884" lon="12.5279153"><ele>198.0</ele><time>2026-04-24T14:46:50.961Z</time></trkpt><trkpt lat="43.0778957" lon="12.5276373"><ele>198.0</ele><time>2026-04-24T14:46:51.961Z</time></trkpt><trkpt lat="43.0779085" lon="12.5273418"><ele>198.0</ele><time>2026-04-24T14:46:52.999Z</time></trkpt><trkpt lat="43.0779282" lon="12.5270284"><ele>198.0</ele><time>2026-04-24T14:46:53.972Z</time></trkpt><trkpt lat="43.0779444" lon="12.5266996"><ele>198.5</ele><time>2026-04-24T14:46:54.981Z</time></trkpt><trkpt lat="43.0779641" lon="12.5263717"><ele>199.0</ele><time>2026-04-24T14:46:55.971Z</time></trkpt><trkpt lat="43.077987" lon="12.5260588"><ele>199.0</ele><time>2026-04-24T14:46:56.997Z</time></trkpt><trkpt lat="43.0780107" lon="12.5257548"><ele>199.0</ele><time>2026-04-24T14:46:57.957Z</time></trkpt><trkpt lat="43.0780278" lon="12.5254828"><ele>199.0</ele><time>2026-04-24T14:46:58.986Z</time></trkpt><trkpt lat="43.0780467" lon="12.5252081"><ele>199.0</ele><time>2026-04-24T14:46:59.975Z</time></trkpt><trkpt lat="43.0780644" lon="12.524941"><ele>199.0</ele><time>2026-04-24T14:47:00.992Z</time></trkpt><trkpt lat="43.0780807" lon="12.5246724"><ele>199.0</ele><time>2026-04-24T14:47:01.964Z</time></trkpt><trkpt lat="43.078097" lon="12.5244017"><ele>199.0</ele><time>2026-04-24T14:47:02.991Z</time></trkpt><trkpt lat="43.078114" lon="12.5241282"><ele>199.0</ele><time>2026-04-24T14:47:03.969Z</time></trkpt><trkpt lat="43.0781323" lon="12.5238511"><ele>199.0</ele><time>2026-04-24T14:47:04.993Z</time></trkpt><trkpt lat="43.0781528" lon="12.5235683"><ele>199.0</ele><time>2026-04-24T14:47:05.959Z</time></trkpt><trkpt lat="43.0781745" lon="12.5232856"><ele>199.0</ele><time>2026-04-24T14:47:06.992Z</time></trkpt><trkpt lat="43.0781915" lon="12.5229999"><ele>199.0</ele><time>2026-04-24T14:47:07.984Z</time></trkpt><trkpt lat="43.0782109" lon="12.5227104"><ele>198.66666666666666</ele><time>2026-04-24T14:47:08.979Z</time></trkpt><trkpt lat="43.0782303" lon="12.5224167"><ele>198.33333333333331</ele><time>2026-04-24T14:47:09.972Z</time></trkpt><trkpt lat="43.0782462" lon="12.5221207"><ele>198.0</ele><time>2026-04-24T14:47:10.982Z</time></trkpt><trkpt lat="43.0782577" lon="12.5218192"><ele>198.0</ele><time>2026-04-24T14:47:11.948Z</time></trkpt><trkpt lat="43.0782738" lon="12.5215201"><ele>198.0</ele><time>2026-04-24T14:47:12.971Z</time></trkpt><trkpt lat="43.0782862" lon="12.5212199"><ele>198.0</ele><time>2026-04-24T14:47:13.976Z</time></trkpt><trkpt lat="43.0782973" lon="12.5209229"><ele>198.0</ele><time>2026-04-24T14:47:14.979Z</time></trkpt><trkpt lat="43.0783071" lon="12.5206265"><ele>198.0</ele><time>2026-04-24T14:47:15.982Z</time></trkpt><trkpt lat="43.0783208" lon="12.5203324"><ele>198.0</ele><time>2026-04-24T14:47:16.962Z</time></trkpt><trkpt lat="43.0783356" lon="12.5200306"><ele>198.0</ele><time>2026-04-24T14:47:17.978Z</time></trkpt><trkpt lat="43.0783543" lon="12.5197286"><ele>198.0</ele><time>2026-04-24T14:47:18.975Z</time></trkpt><trkpt lat="43.0783718" lon="12.5194293"><ele>198.0</ele><time>2026-04-24T14:47:19.963Z</time></trkpt><trkpt lat="43.0783863" lon="12.5191294"><ele>198.0</ele><time>2026-04-24T14:47:20.961Z</time></trkpt><trkpt lat="43.0784053" lon="12.5188311"><ele>198.0</ele><time>2026-04-24T14:47:21.999Z</time></trkpt><trkpt lat="43.0784198" lon="12.5185289"><ele>198.0</ele><time>2026-04-24T14:47:22.98Z</time></trkpt><trkpt lat="43.0784323" lon="12.5182322"><ele>198.0</ele><time>2026-04-24T14:47:23.956Z</time></trkpt><trkpt lat="43.0784474" lon="12.5179334"><ele>198.0</ele><time>2026-04-24T14:47:24.981Z</time></trkpt><trkpt lat="43.0784601" lon="12.5176374"><ele>198.0</ele><time>2026-04-24T14:47:25.958Z</time></trkpt><trkpt lat="43.0784742" lon="12.5173366"><ele>198.66666666666669</ele><time>2026-04-24T14:47:26.991Z</time></trkpt><trkpt lat="43.0784909" lon="12.5170454"><ele>199.33333333333334</ele><time>2026-04-24T14:47:27.971Z</time></trkpt><trkpt lat="43.0785076" lon="12.5167573"><ele>200.0</ele><time>2026-04-24T14:47:28.988Z</time></trkpt><trkpt lat="43.0785231" lon="12.516482"><ele>199.33333333333334</ele><time>2026-04-24T14:47:29.974Z</time></trkpt><trkpt lat="43.0785334" lon="12.5162269"><ele>198.66666666666669</ele><time>2026-04-24T14:47:30.992Z</time></trkpt><trkpt lat="43.0785487" lon="12.5159877"><ele>198.0</ele><time>2026-04-24T14:47:31.969Z</time></trkpt><trkpt lat="43.0785572" lon="12.5157517"><ele>198.0</ele><time>2026-04-24T14:47:32.993Z</time></trkpt><trkpt lat="43.0785694" lon="12.5155233"><ele>198.0</ele><time>2026-04-24T14:47:33.994Z</time></trkpt><trkpt lat="43.0785807" lon="12.5153114"><ele>198.0</ele><time>2026-04-24T14:47:34.97Z</time></trkpt><trkpt lat="43.0785999" lon="12.5151209"><ele>198.0</ele><time>2026-04-24T14:47:35.954Z</time></trkpt><trkpt lat="43.0786253" lon="12.5149451"><ele>198.0</ele><time>2026-04-24T14:47:36.99Z</time></trkpt><trkpt lat="43.0786775" lon="12.5147939"><ele>198.0</ele><time>2026-04-24T14:47:38.001Z</time></trkpt><trkpt lat="43.078758" lon="12.514656"><ele>198.0</ele><time>2026-04-24T14:47:38.968Z</time></trkpt><trkpt lat="43.0788385" lon="12.5145303"><ele>198.0</ele><time>2026-04-24T14:47:39.958Z</time></trkpt><trkpt lat="43.078895" lon="12.5143787"><ele>198.0</ele><time>2026-04-24T14:47:40.976Z</time></trkpt><trkpt lat="43.0789137" lon="12.5141968"><ele>198.0</ele><time>2026-04-24T14:47:41.974Z</time></trkpt><trkpt lat="43.078888" lon="12.5140203"><ele>198.0</ele><time>2026-04-24T14:47:42.971Z</time></trkpt><trkpt lat="43.0788233" lon="12.5138721"><ele>197.75</ele><time>2026-04-24T14:47:43.969Z</time></trkpt><trkpt lat="43.0787475" lon="12.5137123"><ele>197.5</ele><time>2026-04-24T14:47:44.978Z</time></trkpt><trkpt lat="43.078695" lon="12.5135276"><ele>197.25</ele><time>2026-04-24T14:47:45.967Z</time></trkpt><trkpt lat="43.0786844" lon="12.5133121"><ele>197.0</ele><time>2026-04-24T14:47:46.972Z</time></trkpt><trkpt lat="43.0786865" lon="12.5131086"><ele>197.0</ele><time>2026-04-24T14:47:47.971Z</time></trkpt><trkpt lat="43.0786923" lon="12.5129041"><ele>197.0</ele><time>2026-04-24T14:47:48.967Z</time></trkpt><trkpt lat="43.078703" lon="12.5127101"><ele>197.0</ele><time>2026-04-24T14:47:49.969Z</time></trkpt><trkpt lat="43.0787105" lon="12.5125256"><ele>197.0</ele><time>2026-04-24T14:47:50.975Z</time></trkpt><trkpt lat="43.0787205" lon="12.5123528"><ele>197.0</ele><time>2026-04-24T14:47:51.969Z</time></trkpt><trkpt lat="43.078726" lon="12.5121929"><ele>197.0</ele><time>2026-04-24T14:47:52.974Z</time></trkpt><trkpt lat="43.0787276" lon="12.5120415"><ele>197.0</ele><time>2026-04-24T14:47:53.978Z</time></trkpt><trkpt lat="43.0787356" lon="12.5118999"><ele>197.0</ele><time>2026-04-24T14:47:54.975Z</time></trkpt><trkpt lat="43.0787421" lon="12.5117638"><ele>197.0</ele><time>2026-04-24T14:47:55.992Z</time></trkpt><trkpt lat="43.0787463" lon="12.5116213"><ele>197.0</ele><time>2026-04-24T14:47:56.956Z</time></trkpt><trkpt lat="43.0787555" lon="12.5114693"><ele>197.0</ele><time>2026-04-24T14:47:57.979Z</time></trkpt><trkpt lat="43.0787634" lon="12.5113213"><ele>197.0</ele><time>2026-04-24T14:47:58.993Z</time></trkpt><trkpt lat="43.0787704" lon="12.5111654"><ele>197.0</ele><time>2026-04-24T14:47:59.971Z</time></trkpt><trkpt lat="43.0787785" lon="12.5110018"><ele>196.75</ele><time>2026-04-24T14:48:00.97Z</time></trkpt><trkpt lat="43.0787888" lon="12.5108345"><ele>196.5</ele><time>2026-04-24T14:48:02.004Z</time></trkpt><trkpt lat="43.0787999" lon="12.5106682"><ele>196.25</ele><time>2026-04-24T14:48:02.994Z</time></trkpt><trkpt lat="43.0788082" lon="12.5105106"><ele>196.0</ele><time>2026-04-24T14:48:03.968Z</time></trkpt><trkpt lat="43.0788064" lon="12.5103686"><ele>196.0</ele><time>2026-04-24T14:48:04.987Z</time></trkpt><trkpt lat="43.0787915" lon="12.5102404"><ele>196.0</ele><time>2026-04-24T14:48:05.976Z</time></trkpt><trkpt lat="43.0787718" lon="12.5101341"><ele>196.0</ele><time>2026-04-24T14:48:06.985Z</time></trkpt><trkpt lat="43.0787261" lon="12.5099869"><ele>196.0</ele><time>2026-04-24T14:48:08.963Z</time></trkpt><trkpt lat="43.0787085" lon="12.5098458"><ele>196.0</ele><time>2026-04-24T14:48:10.961Z</time></trkpt><trkpt lat="43.078714" lon="12.5097535"><ele>196.0</ele><time>2026-04-24T14:48:11.965Z</time></trkpt><trkpt lat="43.0787229" lon="12.5096432"><ele>196.0</ele><time>2026-04-24T14:48:12.985Z</time></trkpt><trkpt lat="43.0787301" lon="12.5095207"><ele>196.0</ele><time>2026-04-24T14:48:13.961Z</time></trkpt><trkpt lat="43.0787574" lon="12.5093728"><ele>196.0</ele><time>2026-04-24T14:48:14.972Z</time></trkpt><trkpt lat="43.0787921" lon="12.5092113"><ele>196.0</ele><time>2026-04-24T14:48:15.991Z</time></trkpt><trkpt lat="43.0788428" lon="12.5090469"><ele>196.0</ele><time>2026-04-24T14:48:16.979Z</time></trkpt><trkpt lat="43.0788883" lon="12.5088622"><ele>196.0</ele><time>2026-04-24T14:48:17.972Z</time></trkpt><trkpt lat="43.0789183" lon="12.5086727"><ele>196.0</ele><time>2026-04-24T14:48:18.972Z</time></trkpt><trkpt lat="43.0789322" lon="12.5084698"><ele>196.0</ele><time>2026-04-24T14:48:19.968Z</time></trkpt><trkpt lat="43.0789423" lon="12.5082568"><ele>196.33333333333331</ele><time>2026-04-24T14:48:20.981Z</time></trkpt><trkpt lat="43.0789558" lon="12.5080331"><ele>196.66666666666669</ele><time>2026-04-24T14:48:21.974Z</time></trkpt><trkpt lat="43.0789669" lon="12.507808"><ele>197.0</ele><time>2026-04-24T14:48:22.957Z</time></trkpt><trkpt lat="43.0789802" lon="12.5075845"><ele>197.0</ele><time>2026-04-24T14:48:23.983Z</time></trkpt><trkpt lat="43.0789874" lon="12.5073581"><ele>197.0</ele><time>2026-04-24T14:48:24.995Z</time></trkpt><trkpt lat="43.0789992" lon="12.5071376"><ele>197.0</ele><time>2026-04-24T14:48:25.961Z</time></trkpt><trkpt lat="43.0790123" lon="12.5069161"><ele>197.0</ele><time>2026-04-24T14:48:26.981Z</time></trkpt><trkpt lat="43.0790288" lon="12.5066978"><ele>197.0</ele><time>2026-04-24T14:48:27.969Z</time></trkpt><trkpt lat="43.0790428" lon="12.5064772"><ele>197.0</ele><time>2026-04-24T14:48:28.987Z</time></trkpt><trkpt lat="43.0790605" lon="12.5062643"><ele>197.25</ele><time>2026-04-24T14:48:29.968Z</time></trkpt><trkpt lat="43.0790728" lon="12.506061"><ele>197.5</ele><time>2026-04-24T14:48:30.993Z</time></trkpt><trkpt lat="43.0790812" lon="12.5058775"><ele>197.75</ele><time>2026-04-24T14:48:31.977Z</time></trkpt><trkpt lat="43.0790897" lon="12.5056975"><ele>198.0</ele><time>2026-04-24T14:48:32.955Z</time></trkpt><trkpt lat="43.0790891" lon="12.5055292"><ele>198.25</ele><time>2026-04-24T14:48:33.963Z</time></trkpt><trkpt lat="43.0790901" lon="12.5053704"><ele>198.5</ele><time>2026-04-24T14:48:34.977Z</time></trkpt><trkpt lat="43.0790921" lon="12.5052108"><ele>198.75</ele><time>2026-04-24T14:48:35.973Z</time></trkpt><trkpt lat="43.0790942" lon="12.5050536"><ele>199.0</ele><time>2026-04-24T14:48:36.981Z</time></trkpt><trkpt lat="43.0790914" lon="12.5048915"><ele>199.0</ele><time>2026-04-24T14:48:37.959Z</time></trkpt><trkpt lat="43.0790804" lon="12.5047276"><ele>199.0</ele><time>2026-04-24T14:48:38.974Z</time></trkpt><trkpt lat="43.0790617" lon="12.5045697"><ele>199.0</ele><time>2026-04-24T14:48:39.963Z</time></trkpt><trkpt lat="43.0790354" lon="12.5044139"><ele>199.0</ele><time>2026-04-24T14:48:40.971Z</time></trkpt><trkpt lat="43.0789989" lon="12.5042541"><ele>199.0</ele><time>2026-04-24T14:48:41.964Z</time></trkpt><trkpt lat="43.0789579" lon="12.50409"><ele>199.0</ele><time>2026-04-24T14:48:42.97Z</time></trkpt><trkpt lat="43.078922" lon="12.5039253"><ele>199.0</ele><time>2026-04-24T14:48:43.958Z</time></trkpt><trkpt lat="43.0788837" lon="12.5037528"><ele>199.0</ele><time>2026-04-24T14:48:44.964Z</time></trkpt><trkpt lat="43.0789892" lon="12.5027671"><ele>199.0</ele><time>2026-04-24T14:48:49.958Z</time></trkpt><trkpt lat="43.0790768" lon="12.5025861"><ele>199.0</ele><time>2026-04-24T14:48:50.961Z</time></trkpt><trkpt lat="43.0791861" lon="12.5024166"><ele>199.0</ele><time>2026-04-24T14:48:51.96Z</time></trkpt><trkpt lat="43.0793016" lon="12.5022394"><ele>198.33333333333331</ele><time>2026-04-24T14:48:52.988Z</time></trkpt><trkpt lat="43.0794149" lon="12.5020576"><ele>197.66666666666669</ele><time>2026-04-24T14:48:53.968Z</time></trkpt><trkpt lat="43.0795234" lon="12.5018703"><ele>197.0</ele><time>2026-04-24T14:48:54.969Z</time></trkpt><trkpt lat="43.0796325" lon="12.5016783"><ele>197.0</ele><time>2026-04-24T14:48:55.966Z</time></trkpt><trkpt lat="43.0797297" lon="12.5014809"><ele>197.0</ele><time>2026-04-24T14:48:56.98Z</time></trkpt><trkpt lat="43.0798043" lon="12.5012846"><ele>197.0</ele><time>2026-04-24T14:48:57.968Z</time></trkpt><trkpt lat="43.0798713" lon="12.5010771"><ele>197.33333333333334</ele><time>2026-04-24T14:48:58.988Z</time></trkpt><trkpt lat="43.0799179" lon="12.5008617"><ele>197.66666666666669</ele><time>2026-04-24T14:48:59.982Z</time></trkpt><trkpt lat="43.0799559" lon="12.500653"><ele>198.0</ele><time>2026-04-24T14:49:00.97Z</time></trkpt><trkpt lat="43.0799882" lon="12.5004592"><ele>198.0</ele><time>2026-04-24T14:49:01.961Z</time></trkpt><trkpt lat="43.080028" lon="12.500265"><ele>198.0</ele><time>2026-04-24T14:49:02.975Z</time></trkpt><trkpt lat="43.0800677" lon="12.5000666"><ele>198.0</ele><time>2026-04-24T14:49:03.985Z</time></trkpt><trkpt lat="43.0800978" lon="12.4998906"><ele>198.0</ele><time>2026-04-24T14:49:04.971Z</time></trkpt><trkpt lat="43.0801278" lon="12.4997208"><ele>197.75</ele><time>2026-04-24T14:49:05.97Z</time></trkpt><trkpt lat="43.0801616" lon="12.4995613"><ele>197.5</ele><time>2026-04-24T14:49:06.987Z</time></trkpt><trkpt lat="43.0801988" lon="12.4994104"><ele>197.25</ele><time>2026-04-24T14:49:07.961Z</time></trkpt><trkpt lat="43.0802286" lon="12.4992567"><ele>197.0</ele><time>2026-04-24T14:49:08.973Z</time></trkpt><trkpt lat="43.0802611" lon="12.4990958"><ele>197.0</ele><time>2026-04-24T14:49:09.977Z</time></trkpt><trkpt lat="43.080298" lon="12.4989283"><ele>197.0</ele><time>2026-04-24T14:49:10.974Z</time></trkpt><trkpt lat="43.080335" lon="12.4987487"><ele>197.0</ele><time>2026-04-24T14:49:11.977Z</time></trkpt><trkpt lat="43.0803736" lon="12.4985551"><ele>197.0</ele><time>2026-04-24T14:49:12.979Z</time></trkpt><trkpt lat="43.0804144" lon="12.4983473"><ele>197.0</ele><time>2026-04-24T14:49:13.974Z</time></trkpt><trkpt lat="43.0804613" lon="12.4981401"><ele>197.0</ele><time>2026-04-24T14:49:14.965Z</time></trkpt><trkpt lat="43.0805187" lon="12.4979345"><ele>197.0</ele><time>2026-04-24T14:49:15.966Z</time></trkpt><trkpt lat="43.0805821" lon="12.4977206"><ele>197.0</ele><time>2026-04-24T14:49:16.989Z</time></trkpt><trkpt lat="43.0806508" lon="12.4975063"><ele>197.0</ele><time>2026-04-24T14:49:17.981Z</time></trkpt><trkpt lat="43.0807249" lon="12.4973066"><ele>197.0</ele><time>2026-04-24T14:49:18.974Z</time></trkpt><trkpt lat="43.0807852" lon="12.4971248"><ele>197.0</ele><time>2026-04-24T14:49:19.964Z</time></trkpt><trkpt lat="43.0808413" lon="12.4969515"><ele>197.0</ele><time>2026-04-24T14:49:21.006Z</time></trkpt><trkpt lat="43.0808971" lon="12.4967717"><ele>197.0</ele><time>2026-04-24T14:49:21.969Z</time></trkpt><trkpt lat="43.0809533" lon="12.4965949"><ele>197.0</ele><time>2026-04-24T14:49:22.973Z</time></trkpt><trkpt lat="43.0810096" lon="12.4964056"><ele>196.66666666666669</ele><time>2026-04-24T14:49:23.992Z</time></trkpt><trkpt lat="43.0810633" lon="12.4962142"><ele>196.33333333333331</ele><time>2026-04-24T14:49:24.982Z</time></trkpt><trkpt lat="43.081119" lon="12.4960164"><ele>196.0</ele><time>2026-04-24T14:49:25.963Z</time></trkpt><trkpt lat="43.0811677" lon="12.4958112"><ele>196.0</ele><time>2026-04-24T14:49:26.975Z</time></trkpt><trkpt lat="43.0812117" lon="12.4955983"><ele>196.0</ele><time>2026-04-24T14:49:27.988Z</time></trkpt><trkpt lat="43.0812555" lon="12.495383"><ele>196.0</ele><time>2026-04-24T14:49:28.97Z</time></trkpt><trkpt lat="43.0812951" lon="12.4951648"><ele>195.66666666666666</ele><time>2026-04-24T14:49:29.972Z</time></trkpt><trkpt lat="43.0813369" lon="12.4949403"><ele>195.33333333333331</ele><time>2026-04-24T14:49:30.996Z</time></trkpt><trkpt lat="43.0813752" lon="12.4947148"><ele>195.0</ele><time>2026-04-24T14:49:31.995Z</time></trkpt><trkpt lat="43.081414" lon="12.4944897"><ele>194.66666666666669</ele><time>2026-04-24T14:49:32.977Z</time></trkpt><trkpt lat="43.0814543" lon="12.4942733"><ele>194.33333333333334</ele><time>2026-04-24T14:49:33.957Z</time></trkpt><trkpt lat="43.0814921" lon="12.4940608"><ele>194.0</ele><time>2026-04-24T14:49:34.97Z</time></trkpt><trkpt lat="43.0815297" lon="12.4938515"><ele>194.0</ele><time>2026-04-24T14:49:35.971Z</time></trkpt><trkpt lat="43.0815707" lon="12.4936467"><ele>194.0</ele><time>2026-04-24T14:49:36.983Z</time></trkpt><trkpt lat="43.0816124" lon="12.4934439"><ele>194.0</ele><time>2026-04-24T14:49:37.975Z</time></trkpt><trkpt lat="43.0816642" lon="12.4932428"><ele>194.33333333333334</ele><time>2026-04-24T14:49:38.984Z</time></trkpt><trkpt lat="43.0817261" lon="12.4930426"><ele>194.66666666666669</ele><time>2026-04-24T14:49:39.96Z</time></trkpt><trkpt lat="43.0817958" lon="12.492851"><ele>195.0</ele><time>2026-04-24T14:49:40.976Z</time></trkpt><trkpt lat="43.081868" lon="12.4926677"><ele>195.0</ele><time>2026-04-24T14:49:41.994Z</time></trkpt><trkpt lat="43.0819495" lon="12.4925179"><ele>195.0</ele><time>2026-04-24T14:49:42.989Z</time></trkpt><trkpt lat="43.0820293" lon="12.4923773"><ele>195.0</ele><time>2026-04-24T14:49:43.971Z</time></trkpt><trkpt lat="43.0821127" lon="12.4922484"><ele>195.0</ele><time>2026-04-24T14:49:44.985Z</time></trkpt><trkpt lat="43.0821962" lon="12.4921374"><ele>195.0</ele><time>2026-04-24T14:49:45.975Z</time></trkpt><trkpt lat="43.0822785" lon="12.4920442"><ele>195.0</ele><time>2026-04-24T14:49:46.972Z</time></trkpt><trkpt lat="43.082361" lon="12.4919598"><ele>195.0</ele><time>2026-04-24T14:49:47.969Z</time></trkpt><trkpt lat="43.0824445" lon="12.4918737"><ele>195.0</ele><time>2026-04-24T14:49:48.98Z</time></trkpt><trkpt lat="43.0825256" lon="12.491787"><ele>195.0</ele><time>2026-04-24T14:49:49.974Z</time></trkpt><trkpt lat="43.0826093" lon="12.4917093"><ele>195.0</ele><time>2026-04-24T14:49:50.962Z</time></trkpt><trkpt lat="43.0826951" lon="12.49165"><ele>195.0</ele><time>2026-04-24T14:49:51.97Z</time></trkpt><trkpt lat="43.0827871" lon="12.4916106"><ele>195.0</ele><time>2026-04-24T14:49:52.968Z</time></trkpt><trkpt lat="43.0828847" lon="12.4915982"><ele>195.0</ele><time>2026-04-24T14:49:53.972Z</time></trkpt><trkpt lat="43.0829837" lon="12.4915877"><ele>195.0</ele><time>2026-04-24T14:49:54.972Z</time></trkpt><trkpt lat="43.0830831" lon="12.4915718"><ele>195.0</ele><time>2026-04-24T14:49:55.982Z</time></trkpt><trkpt lat="43.0831615" lon="12.4915374"><ele>195.0</ele><time>2026-04-24T14:49:56.978Z</time></trkpt><trkpt lat="43.0832299" lon="12.4914725"><ele>195.0</ele><time>2026-04-24T14:49:57.958Z</time></trkpt><trkpt lat="43.0832812" lon="12.4913898"><ele>195.0</ele><time>2026-04-24T14:49:58.984Z</time></trkpt><trkpt lat="43.0833105" lon="12.491269"><ele>195.0</ele><time>2026-04-24T14:49:59.996Z</time></trkpt><trkpt lat="43.0833105" lon="12.4911513"><ele>195.0</ele><time>2026-04-24T14:50:00.975Z</time></trkpt><trkpt lat="43.0832859" lon="12.4910315"><ele>195.4</ele><time>2026-04-24T14:50:01.96Z</time></trkpt><trkpt lat="43.0832535" lon="12.4909138"><ele>195.8</ele><time>2026-04-24T14:50:02.979Z</time></trkpt><trkpt lat="43.083224" lon="12.4907944"><ele>196.2</ele><time>2026-04-24T14:50:03.987Z</time></trkpt><trkpt lat="43.0832138" lon="12.4906764"><ele>196.6</ele><time>2026-04-24T14:50:04.972Z</time></trkpt><trkpt lat="43.0832165" lon="12.4905423"><ele>197.0</ele><time>2026-04-24T14:50:05.977Z</time></trkpt><trkpt lat="43.08324" lon="12.4903956"><ele>196.75</ele><time>2026-04-24T14:50:06.981Z</time></trkpt><trkpt lat="43.0832798" lon="12.4902322"><ele>196.5</ele><time>2026-04-24T14:50:07.973Z</time></trkpt><trkpt lat="43.0833195" lon="12.4900654"><ele>196.25</ele><time>2026-04-24T14:50:08.976Z</time></trkpt><trkpt lat="43.0833602" lon="12.4898884"><ele>196.0</ele><time>2026-04-24T14:50:09.976Z</time></trkpt><trkpt lat="43.0834032" lon="12.489721"><ele>196.25</ele><time>2026-04-24T14:50:10.983Z</time></trkpt><trkpt lat="43.0834485" lon="12.4895668"><ele>196.5</ele><time>2026-04-24T14:50:11.965Z</time></trkpt><trkpt lat="43.0834998" lon="12.4894222"><ele>196.75</ele><time>2026-04-24T14:50:12.969Z</time></trkpt><trkpt lat="43.0835583" lon="12.4892899"><ele>197.0</ele><time>2026-04-24T14:50:13.968Z</time></trkpt><trkpt lat="43.0836184" lon="12.4891669"><ele>197.0</ele><time>2026-04-24T14:50:14.971Z</time></trkpt><trkpt lat="43.0836803" lon="12.4890609"><ele>197.0</ele><time>2026-04-24T14:50:15.968Z</time></trkpt><trkpt lat="43.0837361" lon="12.4889663"><ele>197.0</ele><time>2026-04-24T14:50:16.963Z</time></trkpt><trkpt lat="43.0837932" lon="12.4888836"><ele>197.0</ele><time>2026-04-24T14:50:17.971Z</time></trkpt><trkpt lat="43.0838533" lon="12.4887989"><ele>197.0</ele><time>2026-04-24T14:50:18.979Z</time></trkpt><trkpt lat="43.0839157" lon="12.4886985"><ele>197.39999999999998</ele><time>2026-04-24T14:50:19.965Z</time></trkpt><trkpt lat="43.0839816" lon="12.4885959"><ele>197.79999999999998</ele><time>2026-04-24T14:50:20.978Z</time></trkpt><trkpt lat="43.0840503" lon="12.4884879"><ele>198.2</ele><time>2026-04-24T14:50:21.99Z</time></trkpt><trkpt lat="43.0841268" lon="12.4883694"><ele>198.6</ele><time>2026-04-24T14:50:22.971Z</time></trkpt><trkpt lat="43.0842059" lon="12.4882577"><ele>199.0</ele><time>2026-04-24T14:50:23.969Z</time></trkpt><trkpt lat="43.0842877" lon="12.488143"><ele>199.0</ele><time>2026-04-24T14:50:24.968Z</time></trkpt><trkpt lat="43.0843724" lon="12.4880211"><ele>199.0</ele><time>2026-04-24T14:50:25.982Z</time></trkpt><trkpt lat="43.0844563" lon="12.4878892"><ele>199.0</ele><time>2026-04-24T14:50:26.96Z</time></trkpt><trkpt lat="43.0845242" lon="12.4877523"><ele>199.0</ele><time>2026-04-24T14:50:27.965Z</time></trkpt><trkpt lat="43.0845646" lon="12.4876052"><ele>199.0</ele><time>2026-04-24T14:50:28.981Z</time></trkpt><trkpt lat="43.0845783" lon="12.4874477"><ele>199.0</ele><time>2026-04-24T14:50:29.97Z</time></trkpt><trkpt lat="43.0845659" lon="12.4873001"><ele>199.0</ele><time>2026-04-24T14:50:30.989Z</time></trkpt><trkpt lat="43.0845131" lon="12.4871767"><ele>199.0</ele><time>2026-04-24T14:50:31.981Z</time></trkpt><trkpt lat="43.0844311" lon="12.4870625"><ele>199.0</ele><time>2026-04-24T14:50:32.97Z</time></trkpt><trkpt lat="43.0843483" lon="12.4869471"><ele>199.0</ele><time>2026-04-24T14:50:33.969Z</time></trkpt><trkpt lat="43.0842614" lon="12.4868385"><ele>199.0</ele><time>2026-04-24T14:50:34.974Z</time></trkpt><trkpt lat="43.0841668" lon="12.4867201"><ele>199.0</ele><time>2026-04-24T14:50:35.973Z</time></trkpt><trkpt lat="43.0840681" lon="12.4865984"><ele>199.0</ele><time>2026-04-24T14:50:36.959Z</time></trkpt><trkpt lat="43.0839666" lon="12.4864739"><ele>199.2</ele><time>2026-04-24T14:50:37.963Z</time></trkpt><trkpt lat="43.0838748" lon="12.4863628"><ele>199.39999999999998</ele><time>2026-04-24T14:50:38.971Z</time></trkpt><trkpt lat="43.0838075" lon="12.4862643"><ele>199.6</ele><time>2026-04-24T14:50:39.957Z</time></trkpt><trkpt lat="43.0837585" lon="12.4861638"><ele>199.8</ele><time>2026-04-24T14:50:40.966Z</time></trkpt><trkpt lat="43.0837193" lon="12.4860707"><ele>200.0</ele><time>2026-04-24T14:50:41.975Z</time></trkpt><trkpt lat="43.0836831" lon="12.4859894"><ele>200.0</ele><time>2026-04-24T14:50:42.996Z</time></trkpt><trkpt lat="43.0835727" lon="12.4858825"><ele>200.0</ele><time>2026-04-24T14:50:44.988Z</time></trkpt><trkpt lat="43.0834822" lon="12.485844"><ele>200.0</ele><time>2026-04-24T14:50:45.979Z</time></trkpt><trkpt lat="43.0833843" lon="12.4858057"><ele>200.0</ele><time>2026-04-24T14:50:46.985Z</time></trkpt><trkpt lat="43.0832832" lon="12.4857365"><ele>200.0</ele><time>2026-04-24T14:50:47.975Z</time></trkpt><trkpt lat="43.0832015" lon="12.4856643"><ele>200.0</ele><time>2026-04-24T14:50:48.973Z</time></trkpt><trkpt lat="43.0831399" lon="12.4855638"><ele>200.0</ele><time>2026-04-24T14:50:49.979Z</time></trkpt><trkpt lat="43.083106" lon="12.4854444"><ele>200.0</ele><time>2026-04-24T14:50:50.983Z</time></trkpt><trkpt lat="43.0831275" lon="12.4853183"><ele>200.0</ele><time>2026-04-24T14:50:51.972Z</time></trkpt><trkpt lat="43.0831586" lon="12.4851869"><ele>200.0</ele><time>2026-04-24T14:50:52.971Z</time></trkpt><trkpt lat="43.0831873" lon="12.4850634"><ele>200.2</ele><time>2026-04-24T14:50:53.971Z</time></trkpt><trkpt lat="43.0832184" lon="12.4849327"><ele>200.4</ele><time>2026-04-24T14:50:54.993Z</time></trkpt><trkpt lat="43.0832388" lon="12.4848018"><ele>200.60000000000002</ele><time>2026-04-24T14:50:55.965Z</time></trkpt><trkpt lat="43.0832628" lon="12.4846428"><ele>200.8</ele><time>2026-04-24T14:50:56.97Z</time></trkpt><trkpt lat="43.0832964" lon="12.4844776"><ele>201.0</ele><time>2026-04-24T14:50:57.974Z</time></trkpt><trkpt lat="43.083332" lon="12.4842983"><ele>202.33333333333331</ele><time>2026-04-24T14:50:58.969Z</time></trkpt><trkpt lat="43.0833731" lon="12.484096"><ele>203.66666666666666</ele><time>2026-04-24T14:50:59.963Z</time></trkpt><trkpt lat="43.0834148" lon="12.4838945"><ele>205.0</ele><time>2026-04-24T14:51:00.974Z</time></trkpt><trkpt lat="43.0834586" lon="12.4836843"><ele>206.33333333333331</ele><time>2026-04-24T14:51:01.976Z</time></trkpt><trkpt lat="43.0835049" lon="12.4834608"><ele>207.66666666666669</ele><time>2026-04-24T14:51:02.978Z</time></trkpt><trkpt lat="43.083551" lon="12.4832323"><ele>209.0</ele><time>2026-04-24T14:51:03.961Z</time></trkpt><trkpt lat="43.0836007" lon="12.4829959"><ele>211.0</ele><time>2026-04-24T14:51:04.976Z</time></trkpt><trkpt lat="43.0836489" lon="12.482755"><ele>213.0</ele><time>2026-04-24T14:51:05.968Z</time></trkpt><trkpt lat="43.0836998" lon="12.4825115"><ele>215.0</ele><time>2026-04-24T14:51:06.971Z</time></trkpt><trkpt lat="43.0837506" lon="12.4822562"><ele>216.33333333333334</ele><time>2026-04-24T14:51:07.964Z</time></trkpt><trkpt lat="43.0838047" lon="12.4819969"><ele>217.66666666666669</ele><time>2026-04-24T14:51:08.969Z</time></trkpt><trkpt lat="43.0838491" lon="12.4817477"><ele>219.0</ele><time>2026-04-24T14:51:09.974Z</time></trkpt><trkpt lat="43.0838847" lon="12.4815257"><ele>219.0</ele><time>2026-04-24T14:51:10.974Z</time></trkpt><trkpt lat="43.0839221" lon="12.4813178"><ele>219.0</ele><time>2026-04-24T14:51:11.963Z</time></trkpt><trkpt lat="43.0839737" lon="12.4811153"><ele>219.0</ele><time>2026-04-24T14:51:12.976Z</time></trkpt><trkpt lat="43.0840305" lon="12.4809277"><ele>219.25</ele><time>2026-04-24T14:51:13.97Z</time></trkpt><trkpt lat="43.0840861" lon="12.4807521"><ele>219.5</ele><time>2026-04-24T14:51:14.969Z</time></trkpt><trkpt lat="43.0841416" lon="12.4805884"><ele>219.75</ele><time>2026-04-24T14:51:15.973Z</time></trkpt><trkpt lat="43.0841964" lon="12.4804309"><ele>220.0</ele><time>2026-04-24T14:51:16.974Z</time></trkpt><trkpt lat="43.0842595" lon="12.4802684"><ele>219.5</ele><time>2026-04-24T14:51:17.964Z</time></trkpt><trkpt lat="43.0843208" lon="12.4801021"><ele>219.0</ele><time>2026-04-24T14:51:18.967Z</time></trkpt><trkpt lat="43.0843737" lon="12.4799352"><ele>218.5</ele><time>2026-04-24T14:51:19.974Z</time></trkpt><trkpt lat="43.0844293" lon="12.4797828"><ele>218.0</ele><time>2026-04-24T14:51:20.974Z</time></trkpt><trkpt lat="43.0844859" lon="12.479618"><ele>217.25</ele><time>2026-04-24T14:51:21.967Z</time></trkpt><trkpt lat="43.0845484" lon="12.4794385"><ele>216.5</ele><time>2026-04-24T14:51:22.973Z</time></trkpt><trkpt lat="43.0846199" lon="12.4792518"><ele>215.75</ele><time>2026-04-24T14:51:23.967Z</time></trkpt><trkpt lat="43.0846843" lon="12.4790774"><ele>215.0</ele><time>2026-04-24T14:51:24.978Z</time></trkpt><trkpt lat="43.0847448" lon="12.4789088"><ele>214.75</ele><time>2026-04-24T14:51:25.967Z</time></trkpt><trkpt lat="43.0848064" lon="12.4787422"><ele>214.5</ele><time>2026-04-24T14:51:26.976Z</time></trkpt><trkpt lat="43.0848668" lon="12.4785826"><ele>214.25</ele><time>2026-04-24T14:51:27.968Z</time></trkpt><trkpt lat="43.0849303" lon="12.4784214"><ele>214.0</ele><time>2026-04-24T14:51:28.968Z</time></trkpt><trkpt lat="43.0849989" lon="12.4782599"><ele>214.0</ele><time>2026-04-24T14:51:29.97Z</time></trkpt><trkpt lat="43.0850626" lon="12.4780887"><ele>214.0</ele><time>2026-04-24T14:51:30.974Z</time></trkpt><trkpt lat="43.0851246" lon="12.4779191"><ele>214.0</ele><time>2026-04-24T14:51:31.962Z</time></trkpt><trkpt lat="43.0851892" lon="12.4777402"><ele>214.0</ele><time>2026-04-24T14:51:32.966Z</time></trkpt><trkpt lat="43.0852542" lon="12.4775498"><ele>214.33333333333331</ele><time>2026-04-24T14:51:33.969Z</time></trkpt><trkpt lat="43.0853233" lon="12.4773576"><ele>214.66666666666669</ele><time>2026-04-24T14:51:34.978Z</time></trkpt><trkpt lat="43.085398" lon="12.4771612"><ele>215.0</ele><time>2026-04-24T14:51:35.986Z</time></trkpt><trkpt lat="43.0854709" lon="12.4769601"><ele>215.0</ele><time>2026-04-24T14:51:36.967Z</time></trkpt><trkpt lat="43.0855448" lon="12.476752"><ele>215.0</ele><time>2026-04-24T14:51:37.98Z</time></trkpt><trkpt lat="43.0856212" lon="12.4765377"><ele>215.0</ele><time>2026-04-24T14:51:38.99Z</time></trkpt><trkpt lat="43.0856992" lon="12.4763228"><ele>216.66666666666669</ele><time>2026-04-24T14:51:39.951Z</time></trkpt><trkpt lat="43.0857808" lon="12.476104"><ele>218.33333333333331</ele><time>2026-04-24T14:51:40.968Z</time></trkpt><trkpt lat="43.0858635" lon="12.4758762"><ele>220.0</ele><time>2026-04-24T14:51:41.973Z</time></trkpt><trkpt lat="43.0859478" lon="12.4756501"><ele>220.0</ele><time>2026-04-24T14:51:42.983Z</time></trkpt><trkpt lat="43.0860248" lon="12.4754408"><ele>220.0</ele><time>2026-04-24T14:51:43.971Z</time></trkpt><trkpt lat="43.0860901" lon="12.4752478"><ele>220.0</ele><time>2026-04-24T14:51:44.984Z</time></trkpt><trkpt lat="43.0861565" lon="12.4750778"><ele>220.75</ele><time>2026-04-24T14:51:45.974Z</time></trkpt><trkpt lat="43.086216" lon="12.4749181"><ele>221.5</ele><time>2026-04-24T14:51:46.966Z</time></trkpt><trkpt lat="43.0862709" lon="12.4747647"><ele>222.25</ele><time>2026-04-24T14:51:47.97Z</time></trkpt><trkpt lat="43.086321" lon="12.4746216"><ele>223.0</ele><time>2026-04-24T14:51:48.981Z</time></trkpt><trkpt lat="43.0863672" lon="12.474488"><ele>224.0</ele><time>2026-04-24T14:51:49.998Z</time></trkpt><trkpt lat="43.0864126" lon="12.4743626"><ele>225.0</ele><time>2026-04-24T14:51:50.968Z</time></trkpt><trkpt lat="43.0864595" lon="12.4742415"><ele>226.0</ele><time>2026-04-24T14:51:51.964Z</time></trkpt><trkpt lat="43.086496" lon="12.474119"><ele>227.0</ele><time>2026-04-24T14:51:52.986Z</time></trkpt><trkpt lat="43.0865348" lon="12.4739962"><ele>228.0</ele><time>2026-04-24T14:51:53.973Z</time></trkpt><trkpt lat="43.0865639" lon="12.4738839"><ele>228.5</ele><time>2026-04-24T14:51:54.967Z</time></trkpt><trkpt lat="43.0865931" lon="12.4737715"><ele>229.0</ele><time>2026-04-24T14:51:55.965Z</time></trkpt><trkpt lat="43.0866195" lon="12.4736652"><ele>229.5</ele><time>2026-04-24T14:51:56.994Z</time></trkpt><trkpt lat="43.0866444" lon="12.4735569"><ele>230.0</ele><time>2026-04-24T14:51:57.973Z</time></trkpt><trkpt lat="43.0866739" lon="12.4734541"><ele>230.5</ele><time>2026-04-24T14:51:58.974Z</time></trkpt><trkpt lat="43.0866953" lon="12.4733488"><ele>231.0</ele><time>2026-04-24T14:51:59.975Z</time></trkpt><trkpt lat="43.0867162" lon="12.4732311"><ele>231.0</ele><time>2026-04-24T14:52:00.97Z</time></trkpt><trkpt lat="43.0867405" lon="12.4730919"><ele>231.00000000000003</ele><time>2026-04-24T14:52:01.974Z</time></trkpt><trkpt lat="43.0867663" lon="12.4729451"><ele>231.00000000000003</ele><time>2026-04-24T14:52:02.973Z</time></trkpt><trkpt lat="43.0867923" lon="12.472795"><ele>231.0</ele><time>2026-04-24T14:52:03.969Z</time></trkpt><trkpt lat="43.0868155" lon="12.4726407"><ele>231.0</ele><time>2026-04-24T14:52:04.999Z</time></trkpt><trkpt lat="43.0868366" lon="12.4724811"><ele>229.20000000000002</ele><time>2026-04-24T14:52:05.964Z</time></trkpt><trkpt lat="43.0868588" lon="12.472325"><ele>227.40000000000003</ele><time>2026-04-24T14:52:06.973Z</time></trkpt><trkpt lat="43.0868783" lon="12.4721787"><ele>225.6</ele><time>2026-04-24T14:52:07.978Z</time></trkpt><trkpt lat="43.0868929" lon="12.4720311"><ele>223.8</ele><time>2026-04-24T14:52:08.963Z</time></trkpt><trkpt lat="43.0869038" lon="12.4718799"><ele>222.0</ele><time>2026-04-24T14:52:09.961Z</time></trkpt><trkpt lat="43.0869142" lon="12.4717224"><ele>220.25</ele><time>2026-04-24T14:52:10.958Z</time></trkpt><trkpt lat="43.0869269" lon="12.4715662"><ele>218.5</ele><time>2026-04-24T14:52:11.972Z</time></trkpt><trkpt lat="43.0869408" lon="12.4714067"><ele>216.75</ele><time>2026-04-24T14:52:12.973Z</time></trkpt><trkpt lat="43.0869525" lon="12.4712369"><ele>215.0</ele><time>2026-04-24T14:52:13.968Z</time></trkpt><trkpt lat="43.0869619" lon="12.4710714"><ele>213.5</ele><time>2026-04-24T14:52:14.97Z</time></trkpt><trkpt lat="43.0869661" lon="12.4709109"><ele>212.0</ele><time>2026-04-24T14:52:15.96Z</time></trkpt><trkpt lat="43.086967" lon="12.4707543"><ele>210.5</ele><time>2026-04-24T14:52:16.97Z</time></trkpt><trkpt lat="43.0869616" lon="12.4706024"><ele>209.0</ele><time>2026-04-24T14:52:17.976Z</time></trkpt><trkpt lat="43.0869446" lon="12.4704573"><ele>207.2</ele><time>2026-04-24T14:52:18.974Z</time></trkpt><trkpt lat="43.0869225" lon="12.4703186"><ele>205.39999999999998</ele><time>2026-04-24T14:52:19.956Z</time></trkpt><trkpt lat="43.0868995" lon="12.4701943"><ele>203.6</ele><time>2026-04-24T14:52:20.968Z</time></trkpt><trkpt lat="43.0868806" lon="12.4700883"><ele>201.8</ele><time>2026-04-24T14:52:21.976Z</time></trkpt><trkpt lat="43.0868565" lon="12.469944"><ele>200.0</ele><time>2026-04-24T14:52:23.955Z</time></trkpt><trkpt lat="43.0868463" lon="12.4697901"><ele>200.0</ele><time>2026-04-24T14:52:25.983Z</time></trkpt><trkpt lat="43.0868971" lon="12.4696615"><ele>200.0</ele><time>2026-04-24T14:52:27.971Z</time></trkpt><trkpt lat="43.0869669" lon="12.4695355"><ele>200.0</ele><time>2026-04-24T14:52:29.971Z</time></trkpt><trkpt lat="43.0869525" lon="12.4693702"><ele>200.0</ele><time>2026-04-24T14:52:31.972Z</time></trkpt><trkpt lat="43.0868995" lon="12.4692825"><ele>200.0</ele><time>2026-04-24T14:52:32.969Z</time></trkpt><trkpt lat="43.0868425" lon="12.4691845"><ele>198.75</ele><time>2026-04-24T14:52:33.964Z</time></trkpt><trkpt lat="43.0868016" lon="12.4690516"><ele>197.5</ele><time>2026-04-24T14:52:34.974Z</time></trkpt><trkpt lat="43.0867837" lon="12.4688903"><ele>196.25</ele><time>2026-04-24T14:52:35.964Z</time></trkpt><trkpt lat="43.0867767" lon="12.4687297"><ele>195.0</ele><time>2026-04-24T14:52:36.975Z</time></trkpt><trkpt lat="43.0867695" lon="12.4685644"><ele>194.6</ele><time>2026-04-24T14:52:37.955Z</time></trkpt><trkpt lat="43.086764" lon="12.4684102"><ele>194.2</ele><time>2026-04-24T14:52:38.965Z</time></trkpt><trkpt lat="43.0867651" lon="12.4682682"><ele>193.8</ele><time>2026-04-24T14:52:39.955Z</time></trkpt><trkpt lat="43.0867643" lon="12.4681349"><ele>193.4</ele><time>2026-04-24T14:52:40.964Z</time></trkpt><trkpt lat="43.0867671" lon="12.4679934"><ele>193.0</ele><time>2026-04-24T14:52:41.966Z</time></trkpt><trkpt lat="43.0867725" lon="12.4678358"><ele>192.75</ele><time>2026-04-24T14:52:42.972Z</time></trkpt><trkpt lat="43.0867757" lon="12.4676705"><ele>192.5</ele><time>2026-04-24T14:52:43.967Z</time></trkpt><trkpt lat="43.0867765" lon="12.4675092"><ele>192.25</ele><time>2026-04-24T14:52:44.963Z</time></trkpt><trkpt lat="43.0867847" lon="12.4673469"><ele>192.0</ele><time>2026-04-24T14:52:45.969Z</time></trkpt><trkpt lat="43.086802" lon="12.4671789"><ele>191.75</ele><time>2026-04-24T14:52:46.971Z</time></trkpt><trkpt lat="43.0868303" lon="12.4670092"><ele>191.5</ele><time>2026-04-24T14:52:47.968Z</time></trkpt><trkpt lat="43.0868757" lon="12.46685"><ele>191.25</ele><time>2026-04-24T14:52:48.973Z</time></trkpt><trkpt lat="43.0869371" lon="12.4666976"><ele>191.0</ele><time>2026-04-24T14:52:49.975Z</time></trkpt><trkpt lat="43.0871581" lon="12.4660493"><ele>191.0</ele><time>2026-04-24T14:52:53.986Z</time></trkpt><trkpt lat="43.0871846" lon="12.46587"><ele>191.0</ele><time>2026-04-24T14:52:54.998Z</time></trkpt><trkpt lat="43.0871816" lon="12.4656947"><ele>191.0</ele><time>2026-04-24T14:52:55.967Z</time></trkpt><trkpt lat="43.0871569" lon="12.4655266"><ele>191.0</ele><time>2026-04-24T14:52:56.984Z</time></trkpt><trkpt lat="43.0871413" lon="12.4653656"><ele>190.75</ele><time>2026-04-24T14:52:57.99Z</time></trkpt><trkpt lat="43.0871382" lon="12.4652087"><ele>190.5</ele><time>2026-04-24T14:52:58.992Z</time></trkpt><trkpt lat="43.0871518" lon="12.4650523"><ele>190.25</ele><time>2026-04-24T14:52:59.981Z</time></trkpt><trkpt lat="43.0871751" lon="12.4648883"><ele>190.0</ele><time>2026-04-24T14:53:00.97Z</time></trkpt><trkpt lat="43.0872067" lon="12.4647259"><ele>189.75</ele><time>2026-04-24T14:53:01.962Z</time></trkpt><trkpt lat="43.0872351" lon="12.464561"><ele>189.5</ele><time>2026-04-24T14:53:02.989Z</time></trkpt><trkpt lat="43.0872687" lon="12.4644099"><ele>189.25</ele><time>2026-04-24T14:53:03.971Z</time></trkpt><trkpt lat="43.0873063" lon="12.4642534"><ele>189.0</ele><time>2026-04-24T14:53:04.99Z</time></trkpt><trkpt lat="43.0873426" lon="12.464102"><ele>189.0</ele><time>2026-04-24T14:53:05.985Z</time></trkpt><trkpt lat="43.0873842" lon="12.4639536"><ele>189.0</ele><time>2026-04-24T14:53:06.971Z</time></trkpt><trkpt lat="43.087437" lon="12.4638042"><ele>189.0</ele><time>2026-04-24T14:53:07.974Z</time></trkpt><trkpt lat="43.0874991" lon="12.4636604"><ele>189.0</ele><time>2026-04-24T14:53:08.969Z</time></trkpt><trkpt lat="43.087567" lon="12.4635278"><ele>188.5</ele><time>2026-04-24T14:53:09.963Z</time></trkpt><trkpt lat="43.0876386" lon="12.4633903"><ele>188.0</ele><time>2026-04-24T14:53:10.975Z</time></trkpt><trkpt lat="43.0877106" lon="12.4632509"><ele>187.5</ele><time>2026-04-24T14:53:11.973Z</time></trkpt><trkpt lat="43.0877871" lon="12.4631048"><ele>187.0</ele><time>2026-04-24T14:53:12.955Z</time></trkpt><trkpt lat="43.0878644" lon="12.4629498"><ele>187.25</ele><time>2026-04-24T14:53:13.958Z</time></trkpt><trkpt lat="43.0879358" lon="12.4627974"><ele>187.5</ele><time>2026-04-24T14:53:14.982Z</time></trkpt><trkpt lat="43.0879947" lon="12.4626448"><ele>187.75</ele><time>2026-04-24T14:53:15.959Z</time></trkpt><trkpt lat="43.0880442" lon="12.4624845"><ele>188.0</ele><time>2026-04-24T14:53:16.975Z</time></trkpt><trkpt lat="43.0880812" lon="12.4623249"><ele>188.0</ele><time>2026-04-24T14:53:17.982Z</time></trkpt><trkpt lat="43.0881064" lon="12.4621619"><ele>188.0</ele><time>2026-04-24T14:53:18.981Z</time></trkpt><trkpt lat="43.0881318" lon="12.4620062"><ele>188.0</ele><time>2026-04-24T14:53:19.96Z</time></trkpt><trkpt lat="43.0881532" lon="12.4618501"><ele>188.0</ele><time>2026-04-24T14:53:20.953Z</time></trkpt><trkpt lat="43.0881802" lon="12.4616953"><ele>188.0</ele><time>2026-04-24T14:53:21.981Z</time></trkpt><trkpt lat="43.0882073" lon="12.4615366"><ele>188.0</ele><time>2026-04-24T14:53:22.978Z</time></trkpt><trkpt lat="43.0882373" lon="12.4613718"><ele>188.0</ele><time>2026-04-24T14:53:23.969Z</time></trkpt><trkpt lat="43.0882668" lon="12.4612071"><ele>188.0</ele><time>2026-04-24T14:53:24.967Z</time></trkpt><trkpt lat="43.0882932" lon="12.4610377"><ele>187.75</ele><time>2026-04-24T14:53:25.97Z</time></trkpt><trkpt lat="43.0883184" lon="12.460874"><ele>187.5</ele><time>2026-04-24T14:53:26.967Z</time></trkpt><trkpt lat="43.0883406" lon="12.4607211"><ele>187.25</ele><time>2026-04-24T14:53:27.984Z</time></trkpt><trkpt lat="43.0883631" lon="12.4605682"><ele>187.0</ele><time>2026-04-24T14:53:28.983Z</time></trkpt><trkpt lat="43.0883898" lon="12.4604192"><ele>186.75</ele><time>2026-04-24T14:53:29.973Z</time></trkpt><trkpt lat="43.0884147" lon="12.4602695"><ele>186.5</ele><time>2026-04-24T14:53:30.977Z</time></trkpt><trkpt lat="43.0884387" lon="12.460111"><ele>186.25</ele><time>2026-04-24T14:53:31.968Z</time></trkpt><trkpt lat="43.0884628" lon="12.4599547"><ele>186.0</ele><time>2026-04-24T14:53:32.974Z</time></trkpt><trkpt lat="43.0884874" lon="12.4597982"><ele>186.0</ele><time>2026-04-24T14:53:33.966Z</time></trkpt><trkpt lat="43.0885118" lon="12.4596315"><ele>186.0</ele><time>2026-04-24T14:53:34.969Z</time></trkpt><trkpt lat="43.0885368" lon="12.4594687"><ele>186.0</ele><time>2026-04-24T14:53:35.97Z</time></trkpt><trkpt lat="43.0885538" lon="12.4592971"><ele>186.0</ele><time>2026-04-24T14:53:36.991Z</time></trkpt><trkpt lat="43.0885726" lon="12.4591242"><ele>186.0</ele><time>2026-04-24T14:53:37.965Z</time></trkpt><trkpt lat="43.0885939" lon="12.4589523"><ele>186.0</ele><time>2026-04-24T14:53:38.961Z</time></trkpt><trkpt lat="43.0886142" lon="12.4587949"><ele>186.0</ele><time>2026-04-24T14:53:39.962Z</time></trkpt><trkpt lat="43.0886319" lon="12.4586345"><ele>186.0</ele><time>2026-04-24T14:53:40.974Z</time></trkpt><trkpt lat="43.0886499" lon="12.4584767"><ele>186.5</ele><time>2026-04-24T14:53:41.959Z</time></trkpt><trkpt lat="43.0886762" lon="12.4583252"><ele>187.0</ele><time>2026-04-24T14:53:42.972Z</time></trkpt><trkpt lat="43.0887046" lon="12.458178"><ele>187.5</ele><time>2026-04-24T14:53:43.969Z</time></trkpt><trkpt lat="43.0887275" lon="12.4580225"><ele>188.0</ele><time>2026-04-24T14:53:44.971Z</time></trkpt><trkpt lat="43.088751" lon="12.4578636"><ele>188.0</ele><time>2026-04-24T14:53:45.976Z</time></trkpt><trkpt lat="43.0887746" lon="12.4576994"><ele>188.0</ele><time>2026-04-24T14:53:46.971Z</time></trkpt><trkpt lat="43.0888017" lon="12.4575432"><ele>188.0</ele><time>2026-04-24T14:53:47.972Z</time></trkpt><trkpt lat="43.0888304" lon="12.4573888"><ele>188.0</ele><time>2026-04-24T14:53:48.976Z</time></trkpt><trkpt lat="43.0888589" lon="12.4572398"><ele>189.8</ele><time>2026-04-24T14:53:49.957Z</time></trkpt><trkpt lat="43.0888784" lon="12.4571005"><ele>191.60000000000002</ele><time>2026-04-24T14:53:50.989Z</time></trkpt><trkpt lat="43.0889039" lon="12.4569553"><ele>193.39999999999998</ele><time>2026-04-24T14:53:51.965Z</time></trkpt><trkpt lat="43.0889233" lon="12.4568078"><ele>195.2</ele><time>2026-04-24T14:53:52.963Z</time></trkpt><trkpt lat="43.0889278" lon="12.4566657"><ele>197.0</ele><time>2026-04-24T14:53:53.969Z</time></trkpt><trkpt lat="43.0889249" lon="12.4565081"><ele>197.0</ele><time>2026-04-24T14:53:54.982Z</time></trkpt><trkpt lat="43.08891" lon="12.4563575"><ele>197.0</ele><time>2026-04-24T14:53:55.964Z</time></trkpt><trkpt lat="43.0888969" lon="12.4562085"><ele>197.0</ele><time>2026-04-24T14:53:56.981Z</time></trkpt><trkpt lat="43.0888957" lon="12.4560638"><ele>197.0</ele><time>2026-04-24T14:53:57.989Z</time></trkpt><trkpt lat="43.0889032" lon="12.4559137"><ele>197.0</ele><time>2026-04-24T14:53:58.973Z</time></trkpt><trkpt lat="43.0889177" lon="12.4557429"><ele>196.75</ele><time>2026-04-24T14:53:59.969Z</time></trkpt><trkpt lat="43.0889441" lon="12.4555764"><ele>196.5</ele><time>2026-04-24T14:54:00.988Z</time></trkpt><trkpt lat="43.0889797" lon="12.455399"><ele>196.25</ele><time>2026-04-24T14:54:01.979Z</time></trkpt><trkpt lat="43.0890272" lon="12.4552325"><ele>196.0</ele><time>2026-04-24T14:54:02.971Z</time></trkpt><trkpt lat="43.0890818" lon="12.4550735"><ele>193.75</ele><time>2026-04-24T14:54:03.954Z</time></trkpt><trkpt lat="43.0891329" lon="12.4549298"><ele>191.5</ele><time>2026-04-24T14:54:04.965Z</time></trkpt><trkpt lat="43.0891789" lon="12.454783"><ele>189.25</ele><time>2026-04-24T14:54:05.98Z</time></trkpt><trkpt lat="43.089214" lon="12.4546197"><ele>187.0</ele><time>2026-04-24T14:54:06.961Z</time></trkpt><trkpt lat="43.089237" lon="12.4544452"><ele>187.0</ele><time>2026-04-24T14:54:07.968Z</time></trkpt><trkpt lat="43.089246" lon="12.4542738"><ele>187.0</ele><time>2026-04-24T14:54:08.97Z</time></trkpt><trkpt lat="43.0892377" lon="12.4541025"><ele>187.0</ele><time>2026-04-24T14:54:09.96Z</time></trkpt><trkpt lat="43.0892288" lon="12.4539323"><ele>187.0</ele><time>2026-04-24T14:54:10.978Z</time></trkpt><trkpt lat="43.0892112" lon="12.4537796"><ele>186.8</ele><time>2026-04-24T14:54:11.957Z</time></trkpt><trkpt lat="43.0891945" lon="12.453629"><ele>186.6</ele><time>2026-04-24T14:54:12.972Z</time></trkpt><trkpt lat="43.0891824" lon="12.4534849"><ele>186.4</ele><time>2026-04-24T14:54:13.955Z</time></trkpt><trkpt lat="43.089171" lon="12.453334"><ele>186.20000000000002</ele><time>2026-04-24T14:54:14.964Z</time></trkpt><trkpt lat="43.0891583" lon="12.4531939"><ele>186.0</ele><time>2026-04-24T14:54:15.971Z</time></trkpt><trkpt lat="43.0891399" lon="12.453049"><ele>186.0</ele><time>2026-04-24T14:54:16.971Z</time></trkpt><trkpt lat="43.0891225" lon="12.4529103"><ele>186.0</ele><time>2026-04-24T14:54:17.956Z</time></trkpt><trkpt lat="43.0891115" lon="12.4527713"><ele>186.0</ele><time>2026-04-24T14:54:18.968Z</time></trkpt><trkpt lat="43.0890919" lon="12.4526441"><ele>186.0</ele><time>2026-04-24T14:54:19.976Z</time></trkpt><trkpt lat="43.0890643" lon="12.4525272"><ele>186.0</ele><time>2026-04-24T14:54:20.967Z</time></trkpt><trkpt lat="43.0890343" lon="12.4524127"><ele>186.16666666666666</ele><time>2026-04-24T14:54:21.97Z</time></trkpt><trkpt lat="43.0890006" lon="12.4522927"><ele>186.33333333333334</ele><time>2026-04-24T14:54:22.981Z</time></trkpt><trkpt lat="43.0889642" lon="12.4521804"><ele>186.5</ele><time>2026-04-24T14:54:23.961Z</time></trkpt><trkpt lat="43.0889328" lon="12.4520758"><ele>186.66666666666669</ele><time>2026-04-24T14:54:24.957Z</time></trkpt><trkpt lat="43.0889054" lon="12.4519774"><ele>186.83333333333334</ele><time>2026-04-24T14:54:25.967Z</time></trkpt><trkpt lat="43.0888827" lon="12.4518846"><ele>187.0</ele><time>2026-04-24T14:54:26.96Z</time></trkpt><trkpt lat="43.0888287" lon="12.4517465"><ele>187.0</ele><time>2026-04-24T14:54:28.967Z</time></trkpt><trkpt lat="43.0887942" lon="12.4516068"><ele>187.0</ele><time>2026-04-24T14:54:30.993Z</time></trkpt><trkpt lat="43.0887511" lon="12.451462"><ele>187.0</ele><time>2026-04-24T14:54:32.971Z</time></trkpt><trkpt lat="43.0887066" lon="12.4513174"><ele>187.0</ele><time>2026-04-24T14:54:34.981Z</time></trkpt><trkpt lat="43.088682" lon="12.451235"><ele>187.0</ele><time>2026-04-24T14:54:35.968Z</time></trkpt><trkpt lat="43.0886395" lon="12.4511072"><ele>186.8</ele><time>2026-04-24T14:54:37.981Z</time></trkpt><trkpt lat="43.0886067" lon="12.4509985"><ele>186.6</ele><time>2026-04-24T14:54:39.952Z</time></trkpt><trkpt lat="43.0885692" lon="12.4508782"><ele>186.4</ele><time>2026-04-24T14:54:41.956Z</time></trkpt><trkpt lat="43.0885213" lon="12.4507243"><ele>186.20000000000002</ele><time>2026-04-24T14:54:43.957Z</time></trkpt><trkpt lat="43.0884903" lon="12.4506436"><ele>186.0</ele><time>2026-04-24T14:54:44.953Z</time></trkpt><trkpt lat="43.0884485" lon="12.4505242"><ele>186.0</ele><time>2026-04-24T14:54:45.973Z</time></trkpt><trkpt lat="43.0884105" lon="12.4504066"><ele>186.0</ele><time>2026-04-24T14:54:46.961Z</time></trkpt><trkpt lat="43.0883789" lon="12.4502991"><ele>186.0</ele><time>2026-04-24T14:54:47.962Z</time></trkpt><trkpt lat="43.0883491" lon="12.4501942"><ele>186.0</ele><time>2026-04-24T14:54:48.961Z</time></trkpt><trkpt lat="43.0883207" lon="12.4500949"><ele>186.0</ele><time>2026-04-24T14:54:49.966Z</time></trkpt><trkpt lat="43.0882994" lon="12.4500076"><ele>186.0</ele><time>2026-04-24T14:54:50.971Z</time></trkpt><trkpt lat="43.0882662" lon="12.449861"><ele>185.83333333333334</ele><time>2026-04-24T14:54:52.97Z</time></trkpt><trkpt lat="43.0882433" lon="12.4497711"><ele>185.66666666666666</ele><time>2026-04-24T14:54:53.984Z</time></trkpt><trkpt lat="43.088219" lon="12.4496657"><ele>185.5</ele><time>2026-04-24T14:54:54.965Z</time></trkpt><trkpt lat="43.0881919" lon="12.4495621"><ele>185.33333333333331</ele><time>2026-04-24T14:54:55.968Z</time></trkpt><trkpt lat="43.0881698" lon="12.4494674"><ele>185.16666666666666</ele><time>2026-04-24T14:54:56.979Z</time></trkpt><trkpt lat="43.0881426" lon="12.4493759"><ele>185.0</ele><time>2026-04-24T14:54:57.965Z</time></trkpt><trkpt lat="43.0881101" lon="12.4492774"><ele>184.8</ele><time>2026-04-24T14:54:58.974Z</time></trkpt><trkpt lat="43.0880779" lon="12.4491624"><ele>184.6</ele><time>2026-04-24T14:54:59.973Z</time></trkpt><trkpt lat="43.0880477" lon="12.4490502"><ele>184.39999999999998</ele><time>2026-04-24T14:55:00.974Z</time></trkpt><trkpt lat="43.0880145" lon="12.4489296"><ele>184.2</ele><time>2026-04-24T14:55:01.98Z</time></trkpt><trkpt lat="43.0879807" lon="12.4488095"><ele>184.0</ele><time>2026-04-24T14:55:02.967Z</time></trkpt><trkpt lat="43.0879482" lon="12.4486933"><ele>184.0</ele><time>2026-04-24T14:55:03.979Z</time></trkpt><trkpt lat="43.0879171" lon="12.4485778"><ele>184.0</ele><time>2026-04-24T14:55:04.976Z</time></trkpt><trkpt lat="43.0878861" lon="12.4484704"><ele>184.0</ele><time>2026-04-24T14:55:05.957Z</time></trkpt><trkpt lat="43.0878529" lon="12.4483686"><ele>184.0</ele><time>2026-04-24T14:55:06.98Z</time></trkpt><trkpt lat="43.0878202" lon="12.4482637"><ele>184.0</ele><time>2026-04-24T14:55:07.964Z</time></trkpt><trkpt lat="43.0877886" lon="12.4481626"><ele>184.0</ele><time>2026-04-24T14:55:08.977Z</time></trkpt><trkpt lat="43.0877633" lon="12.448072"><ele>184.0</ele><time>2026-04-24T14:55:09.965Z</time></trkpt><trkpt lat="43.0877379" lon="12.4479854"><ele>184.0</ele><time>2026-04-24T14:55:10.969Z</time></trkpt><trkpt lat="43.0877083" lon="12.4478913"><ele>184.0</ele><time>2026-04-24T14:55:11.949Z</time></trkpt><trkpt lat="43.087668" lon="12.4477916"><ele>184.0</ele><time>2026-04-24T14:55:12.962Z</time></trkpt><trkpt lat="43.0876179" lon="12.447702"><ele>184.0</ele><time>2026-04-24T14:55:13.962Z</time></trkpt><trkpt lat="43.0875648" lon="12.4476318"><ele>184.0</ele><time>2026-04-24T14:55:14.965Z</time></trkpt><trkpt lat="43.0874913" lon="12.4475967"><ele>184.5</ele><time>2026-04-24T14:55:15.978Z</time></trkpt><trkpt lat="43.0874216" lon="12.4475924"><ele>185.0</ele><time>2026-04-24T14:55:16.982Z</time></trkpt><trkpt lat="43.087359" lon="12.4476191"><ele>185.5</ele><time>2026-04-24T14:55:17.971Z</time></trkpt><trkpt lat="43.0872364" lon="12.4476917"><ele>186.0</ele><time>2026-04-24T14:55:19.971Z</time></trkpt><trkpt lat="43.0871598" lon="12.4477165"><ele>186.5</ele><time>2026-04-24T14:55:20.965Z</time></trkpt><trkpt lat="43.0870868" lon="12.4477232"><ele>187.0</ele><time>2026-04-24T14:55:21.973Z</time></trkpt><trkpt lat="43.0870179" lon="12.447713"><ele>187.0</ele><time>2026-04-24T14:55:23.026Z</time></trkpt><trkpt lat="43.0869582" lon="12.4476845"><ele>187.0</ele><time>2026-04-24T14:55:23.971Z</time></trkpt><trkpt lat="43.0869011" lon="12.4476476"><ele>187.0</ele><time>2026-04-24T14:55:24.973Z</time></trkpt><trkpt lat="43.0868422" lon="12.4476059"><ele>187.0</ele><time>2026-04-24T14:55:25.963Z</time></trkpt><trkpt lat="43.0867841" lon="12.4475513"><ele>187.0</ele><time>2026-04-24T14:55:26.969Z</time></trkpt><trkpt lat="43.0867293" lon="12.4474814"><ele>187.0</ele><time>2026-04-24T14:55:27.963Z</time></trkpt><trkpt lat="43.0866799" lon="12.4473972"><ele>187.0</ele><time>2026-04-24T14:55:28.965Z</time></trkpt><trkpt lat="43.0866314" lon="12.447305"><ele>187.2</ele><time>2026-04-24T14:55:29.973Z</time></trkpt><trkpt lat="43.0865881" lon="12.4471874"><ele>187.39999999999998</ele><time>2026-04-24T14:55:30.963Z</time></trkpt><trkpt lat="43.0865711" lon="12.447075"><ele>187.60000000000002</ele><time>2026-04-24T14:55:31.962Z</time></trkpt><trkpt lat="43.0865845" lon="12.4469709"><ele>187.8</ele><time>2026-04-24T14:55:32.965Z</time></trkpt><trkpt lat="43.0866151" lon="12.446885"><ele>188.0</ele><time>2026-04-24T14:55:33.961Z</time></trkpt><trkpt lat="43.0867063" lon="12.4467528"><ele>188.0</ele><time>2026-04-24T14:55:35.963Z</time></trkpt><trkpt lat="43.0867818" lon="12.4467038"><ele>188.0</ele><time>2026-04-24T14:55:36.981Z</time></trkpt><trkpt lat="43.0868739" lon="12.4466677"><ele>188.0</ele><time>2026-04-24T14:55:37.966Z</time></trkpt><trkpt lat="43.0869764" lon="12.4466318"><ele>188.0</ele><time>2026-04-24T14:55:38.97Z</time></trkpt><trkpt lat="43.0870896" lon="12.4465988"><ele>188.0</ele><time>2026-04-24T14:55:39.966Z</time></trkpt><trkpt lat="43.0872088" lon="12.4465661"><ele>188.0</ele><time>2026-04-24T14:55:40.966Z</time></trkpt><trkpt lat="43.0873328" lon="12.446536"><ele>188.0</ele><time>2026-04-24T14:55:41.961Z</time></trkpt><trkpt lat="43.0874543" lon="12.4465018"><ele>188.0</ele><time>2026-04-24T14:55:42.967Z</time></trkpt><trkpt lat="43.0875821" lon="12.4464594"><ele>188.0</ele><time>2026-04-24T14:55:43.959Z</time></trkpt><trkpt lat="43.0877213" lon="12.4464165"><ele>188.66666666666666</ele><time>2026-04-24T14:55:44.966Z</time></trkpt><trkpt lat="43.0878619" lon="12.4463628"><ele>189.33333333333334</ele><time>2026-04-24T14:55:45.96Z</time></trkpt><trkpt lat="43.0880072" lon="12.4463045"><ele>190.0</ele><time>2026-04-24T14:55:46.981Z</time></trkpt><trkpt lat="43.0881601" lon="12.4462501"><ele>190.0</ele><time>2026-04-24T14:55:47.969Z</time></trkpt><trkpt lat="43.0883118" lon="12.4462028"><ele>190.0</ele><time>2026-04-24T14:55:48.965Z</time></trkpt><trkpt lat="43.0884569" lon="12.4461573"><ele>190.0</ele><time>2026-04-24T14:55:49.962Z</time></trkpt><trkpt lat="43.0885974" lon="12.4461154"><ele>190.0</ele><time>2026-04-24T14:55:50.97Z</time></trkpt><trkpt lat="43.0887316" lon="12.4460697"><ele>190.0</ele><time>2026-04-24T14:55:51.969Z</time></trkpt><trkpt lat="43.0888629" lon="12.4460307"><ele>190.0</ele><time>2026-04-24T14:55:52.982Z</time></trkpt><trkpt lat="43.0889854" lon="12.4459948"><ele>190.0</ele><time>2026-04-24T14:55:53.966Z</time></trkpt><trkpt lat="43.0890963" lon="12.4459539"><ele>190.0</ele><time>2026-04-24T14:55:54.972Z</time></trkpt><trkpt lat="43.0892034" lon="12.4459083"><ele>189.8</ele><time>2026-04-24T14:55:55.969Z</time></trkpt><trkpt lat="43.0893029" lon="12.4458756"><ele>189.6</ele><time>2026-04-24T14:55:56.978Z</time></trkpt><trkpt lat="43.089405" lon="12.4458529"><ele>189.39999999999998</ele><time>2026-04-24T14:55:57.967Z</time></trkpt><trkpt lat="43.0894998" lon="12.4458238"><ele>189.2</ele><time>2026-04-24T14:55:58.964Z</time></trkpt><trkpt lat="43.089595" lon="12.445797"><ele>189.0</ele><time>2026-04-24T14:55:59.964Z</time></trkpt><trkpt lat="43.0896892" lon="12.4457731"><ele>189.0</ele><time>2026-04-24T14:56:00.971Z</time></trkpt><trkpt lat="43.0897739" lon="12.4457392"><ele>189.0</ele><time>2026-04-24T14:56:01.969Z</time></trkpt><trkpt lat="43.0898591" lon="12.4457145"><ele>189.0</ele><time>2026-04-24T14:56:02.969Z</time></trkpt><trkpt lat="43.0899441" lon="12.4456929"><ele>189.0</ele><time>2026-04-24T14:56:03.964Z</time></trkpt><trkpt lat="43.090027" lon="12.4456646"><ele>189.0</ele><time>2026-04-24T14:56:04.964Z</time></trkpt><trkpt lat="43.0901099" lon="12.4456385"><ele>189.0</ele><time>2026-04-24T14:56:05.96Z</time></trkpt><trkpt lat="43.0901918" lon="12.4456207"><ele>189.16666666666666</ele><time>2026-04-24T14:56:06.969Z</time></trkpt><trkpt lat="43.0902582" lon="12.4456014"><ele>189.33333333333334</ele><time>2026-04-24T14:56:07.966Z</time></trkpt><trkpt lat="43.0903694" lon="12.4455672"><ele>189.5</ele><time>2026-04-24T14:56:09.965Z</time></trkpt><trkpt lat="43.0904319" lon="12.4455537"><ele>189.66666666666669</ele><time>2026-04-24T14:56:12.969Z</time></trkpt><trkpt lat="43.0905008" lon="12.445524"><ele>189.83333333333334</ele><time>2026-04-24T14:56:14.962Z</time></trkpt><trkpt lat="43.0906254" lon="12.4454929"><ele>190.0</ele><time>2026-04-24T14:56:16.976Z</time></trkpt><trkpt lat="43.0907084" lon="12.4454703"><ele>190.0</ele><time>2026-04-24T14:56:17.964Z</time></trkpt><trkpt lat="43.0907892" lon="12.4454351"><ele>190.0</ele><time>2026-04-24T14:56:18.956Z</time></trkpt><trkpt lat="43.0908877" lon="12.4453872"><ele>190.0</ele><time>2026-04-24T14:56:19.957Z</time></trkpt><trkpt lat="43.0909798" lon="12.4453368"><ele>190.0</ele><time>2026-04-24T14:56:20.976Z</time></trkpt><trkpt lat="43.0910586" lon="12.4452757"><ele>190.0</ele><time>2026-04-24T14:56:21.975Z</time></trkpt><trkpt lat="43.0911365" lon="12.4452084"><ele>190.0</ele><time>2026-04-24T14:56:22.968Z</time></trkpt><trkpt lat="43.0912084" lon="12.4451463"><ele>190.0</ele><time>2026-04-24T14:56:23.965Z</time></trkpt><trkpt lat="43.0912644" lon="12.4450972"><ele>190.0</ele><time>2026-04-24T14:56:24.969Z</time></trkpt><trkpt lat="43.0913489" lon="12.4450037"><ele>190.0</ele><time>2026-04-24T14:56:26.972Z</time></trkpt><trkpt lat="43.0914188" lon="12.4449337"><ele>190.0</ele><time>2026-04-24T14:56:28.975Z</time></trkpt><trkpt lat="43.091478" lon="12.4448587"><ele>190.0</ele><time>2026-04-24T14:56:30.974Z</time></trkpt><trkpt lat="43.091544" lon="12.4447812"><ele>190.0</ele><time>2026-04-24T14:56:32.966Z</time></trkpt><trkpt lat="43.0916492" lon="12.444719"><ele>190.0</ele><time>2026-04-24T14:56:34.977Z</time></trkpt><trkpt lat="43.0917134" lon="12.4446017"><ele>190.0</ele><time>2026-04-24T14:56:36.967Z</time></trkpt><trkpt lat="43.0917297" lon="12.4445132"><ele>190.0</ele><time>2026-04-24T14:56:37.976Z</time></trkpt><trkpt lat="43.0917358" lon="12.4444162"><ele>190.0</ele><time>2026-04-24T14:56:38.977Z</time></trkpt><trkpt lat="43.0917456" lon="12.4443253"><ele>190.0</ele><time>2026-04-24T14:56:39.964Z</time></trkpt><trkpt lat="43.0917564" lon="12.4442342"><ele>190.33333333333334</ele><time>2026-04-24T14:56:40.965Z</time></trkpt><trkpt lat="43.0917786" lon="12.4440517"><ele>190.66666666666669</ele><time>2026-04-24T14:56:42.979Z</time></trkpt><trkpt lat="43.0917904" lon="12.4439523"><ele>191.0</ele><time>2026-04-24T14:56:43.964Z</time></trkpt><trkpt lat="43.0917979" lon="12.4438479"><ele>191.33333333333334</ele><time>2026-04-24T14:56:44.968Z</time></trkpt><trkpt lat="43.0918072" lon="12.4437407"><ele>191.66666666666666</ele><time>2026-04-24T14:56:45.967Z</time></trkpt><trkpt lat="43.0918145" lon="12.4436243"><ele>192.0</ele><time>2026-04-24T14:56:46.97Z</time></trkpt><trkpt lat="43.0918154" lon="12.4435044"><ele>192.39999999999998</ele><time>2026-04-24T14:56:47.953Z</time></trkpt><trkpt lat="43.0918182" lon="12.4433756"><ele>192.79999999999998</ele><time>2026-04-24T14:56:48.968Z</time></trkpt><trkpt lat="43.0918209" lon="12.443228"><ele>193.2</ele><time>2026-04-24T14:56:49.963Z</time></trkpt><trkpt lat="43.0918275" lon="12.4430719"><ele>193.6</ele><time>2026-04-24T14:56:50.962Z</time></trkpt><trkpt lat="43.0918441" lon="12.4429033"><ele>194.0</ele><time>2026-04-24T14:56:51.967Z</time></trkpt><trkpt lat="43.0918605" lon="12.4427206"><ele>194.66666666666669</ele><time>2026-04-24T14:56:52.969Z</time></trkpt><trkpt lat="43.0918791" lon="12.4425252"><ele>195.33333333333331</ele><time>2026-04-24T14:56:53.961Z</time></trkpt><trkpt lat="43.0918933" lon="12.4423395"><ele>196.0</ele><time>2026-04-24T14:56:54.975Z</time></trkpt><trkpt lat="43.0919405" lon="12.4414216"><ele>196.60000000000002</ele><time>2026-04-24T14:56:59.966Z</time></trkpt><trkpt lat="43.0919535" lon="12.4412549"><ele>197.2</ele><time>2026-04-24T14:57:00.979Z</time></trkpt><trkpt lat="43.091948" lon="12.4411032"><ele>197.8</ele><time>2026-04-24T14:57:01.968Z</time></trkpt><trkpt lat="43.0919294" lon="12.4409692"><ele>198.39999999999998</ele><time>2026-04-24T14:57:02.961Z</time></trkpt><trkpt lat="43.0919046" lon="12.4408586"><ele>199.0</ele><time>2026-04-24T14:57:03.962Z</time></trkpt><trkpt lat="43.0918598" lon="12.4407114"><ele>198.99999999999997</ele><time>2026-04-24T14:57:05.962Z</time></trkpt><trkpt lat="43.0918299" lon="12.4405931"><ele>199.0</ele><time>2026-04-24T14:57:07.961Z</time></trkpt><trkpt lat="43.0917893" lon="12.4404583"><ele>199.0</ele><time>2026-04-24T14:57:09.965Z</time></trkpt><trkpt lat="43.0917688" lon="12.4403748"><ele>199.0</ele><time>2026-04-24T14:57:10.959Z</time></trkpt><trkpt lat="43.0917372" lon="12.4402546"><ele>198.99999999999997</ele><time>2026-04-24T14:57:12.97Z</time></trkpt><trkpt lat="43.0917069" lon="12.4401359"><ele>199.0</ele><time>2026-04-24T14:57:14.964Z</time></trkpt><trkpt lat="43.0916876" lon="12.4400436"><ele>199.39999999999998</ele><time>2026-04-24T14:57:15.961Z</time></trkpt><trkpt lat="43.0916693" lon="12.4399399"><ele>199.8</ele><time>2026-04-24T14:57:16.966Z</time></trkpt><trkpt lat="43.09165" lon="12.4398137"><ele>200.2</ele><time>2026-04-24T14:57:17.955Z</time></trkpt><trkpt lat="43.0916267" lon="12.4396729"><ele>200.60000000000002</ele><time>2026-04-24T14:57:18.973Z</time></trkpt><trkpt lat="43.0915959" lon="12.439535"><ele>201.0</ele><time>2026-04-24T14:57:19.99Z</time></trkpt><trkpt lat="43.0915731" lon="12.4394054"><ele>200.83333333333334</ele><time>2026-04-24T14:57:20.961Z</time></trkpt><trkpt lat="43.0915567" lon="12.4392811"><ele>200.66666666666669</ele><time>2026-04-24T14:57:21.972Z</time></trkpt><trkpt lat="43.0915417" lon="12.4391723"><ele>200.5</ele><time>2026-04-24T14:57:22.957Z</time></trkpt><trkpt lat="43.0915307" lon="12.4390703"><ele>200.33333333333334</ele><time>2026-04-24T14:57:23.967Z</time></trkpt><trkpt lat="43.0915211" lon="12.4389797"><ele>200.16666666666669</ele><time>2026-04-24T14:57:24.968Z</time></trkpt><trkpt lat="43.0915019" lon="12.4388326"><ele>200.0</ele><time>2026-04-24T14:57:26.969Z</time></trkpt><trkpt lat="43.0914843" lon="12.4387053"><ele>200.00000000000003</ele><time>2026-04-24T14:57:28.963Z</time></trkpt><trkpt lat="43.0914514" lon="12.43856"><ele>200.0</ele><time>2026-04-24T14:57:30.978Z</time></trkpt><trkpt lat="43.0914268" lon="12.4384722"><ele>200.0</ele><time>2026-04-24T14:57:31.967Z</time></trkpt><trkpt lat="43.091409" lon="12.438383"><ele>200.0</ele><time>2026-04-24T14:57:32.96Z</time></trkpt><trkpt lat="43.0913974" lon="12.4382908"><ele>200.00000000000003</ele><time>2026-04-24T14:57:33.976Z</time></trkpt><trkpt lat="43.0913767" lon="12.4381849"><ele>200.0</ele><time>2026-04-24T14:57:34.978Z</time></trkpt><trkpt lat="43.0913571" lon="12.4380645"><ele>200.2</ele><time>2026-04-24T14:57:35.957Z</time></trkpt><trkpt lat="43.0913413" lon="12.4379502"><ele>200.4</ele><time>2026-04-24T14:57:36.965Z</time></trkpt><trkpt lat="43.0913243" lon="12.4378305"><ele>200.60000000000002</ele><time>2026-04-24T14:57:37.971Z</time></trkpt><trkpt lat="43.0913037" lon="12.4376984"><ele>200.8</ele><time>2026-04-24T14:57:38.966Z</time></trkpt><trkpt lat="43.0912834" lon="12.4375766"><ele>201.0</ele><time>2026-04-24T14:57:39.962Z</time></trkpt><trkpt lat="43.0912594" lon="12.4374535"><ele>201.0</ele><time>2026-04-24T14:57:40.968Z</time></trkpt><trkpt lat="43.091237" lon="12.4373469"><ele>201.0</ele><time>2026-04-24T14:57:41.971Z</time></trkpt><trkpt lat="43.0912122" lon="12.4372383"><ele>201.0</ele><time>2026-04-24T14:57:42.972Z</time></trkpt><trkpt lat="43.0911882" lon="12.4371266"><ele>201.0</ele><time>2026-04-24T14:57:43.969Z</time></trkpt><trkpt lat="43.0911619" lon="12.4370109"><ele>201.0</ele><time>2026-04-24T14:57:44.964Z</time></trkpt><trkpt lat="43.0911386" lon="12.4368861"><ele>201.0</ele><time>2026-04-24T14:57:45.969Z</time></trkpt><trkpt lat="43.0911078" lon="12.4367549"><ele>201.60000000000002</ele><time>2026-04-24T14:57:46.974Z</time></trkpt><trkpt lat="43.0910821" lon="12.436614"><ele>202.2</ele><time>2026-04-24T14:57:47.965Z</time></trkpt><trkpt lat="43.0910559" lon="12.4364785"><ele>202.8</ele><time>2026-04-24T14:57:48.977Z</time></trkpt><trkpt lat="43.0910341" lon="12.4363633"><ele>203.39999999999998</ele><time>2026-04-24T14:57:49.967Z</time></trkpt><trkpt lat="43.0910148" lon="12.4362712"><ele>204.0</ele><time>2026-04-24T14:57:50.966Z</time></trkpt><trkpt lat="43.0909874" lon="12.4361446"><ele>204.33333333333334</ele><time>2026-04-24T14:57:52.964Z</time></trkpt><trkpt lat="43.0909459" lon="12.4360603"><ele>204.66666666666669</ele><time>2026-04-24T14:57:55.96Z</time></trkpt><trkpt lat="43.0908814" lon="12.4360137"><ele>205.0</ele><time>2026-04-24T14:57:58.972Z</time></trkpt><trkpt lat="43.0907954" lon="12.4359622"><ele>205.33333333333334</ele><time>2026-04-24T14:58:00.961Z</time></trkpt><trkpt lat="43.0907266" lon="12.4358573"><ele>205.66666666666669</ele><time>2026-04-24T14:58:02.973Z</time></trkpt><trkpt lat="43.0906847" lon="12.4357282"><ele>206.0</ele><time>2026-04-24T14:58:04.98Z</time></trkpt><trkpt lat="43.0906484" lon="12.4355594"><ele>206.00000000000003</ele><time>2026-04-24T14:58:06.966Z</time></trkpt><trkpt lat="43.0906287" lon="12.4354749"><ele>206.0</ele><time>2026-04-24T14:58:07.965Z</time></trkpt><trkpt lat="43.0906164" lon="12.4353808"><ele>206.0</ele><time>2026-04-24T14:58:08.971Z</time></trkpt><trkpt lat="43.0906099" lon="12.4352852"><ele>206.0</ele><time>2026-04-24T14:58:09.964Z</time></trkpt><trkpt lat="43.0905903" lon="12.4351919"><ele>206.00000000000003</ele><time>2026-04-24T14:58:10.974Z</time></trkpt><trkpt lat="43.0905748" lon="12.4351026"><ele>206.0</ele><time>2026-04-24T14:58:11.968Z</time></trkpt><trkpt lat="43.0905408" lon="12.4349509"><ele>206.0</ele><time>2026-04-24T14:58:13.958Z</time></trkpt><trkpt lat="43.0905102" lon="12.4348094"><ele>206.0</ele><time>2026-04-24T14:58:15.971Z</time></trkpt><trkpt lat="43.0904812" lon="12.434709"><ele>206.0</ele><time>2026-04-24T14:58:19.959Z</time></trkpt><trkpt lat="43.0904508" lon="12.4346185"><ele>206.0</ele><time>2026-04-24T14:58:23.962Z</time></trkpt><trkpt lat="43.0904168" lon="12.4344789"><ele>206.0</ele><time>2026-04-24T14:58:26.969Z</time></trkpt><trkpt lat="43.09038" lon="12.434328"><ele>206.0</ele><time>2026-04-24T14:58:28.97Z</time></trkpt><trkpt lat="43.090355" lon="12.4342018"><ele>206.0</ele><time>2026-04-24T14:58:30.964Z</time></trkpt><trkpt lat="43.0903318" lon="12.4340836"><ele>206.0</ele><time>2026-04-24T14:58:32.966Z</time></trkpt><trkpt lat="43.0903119" lon="12.4339623"><ele>206.0</ele><time>2026-04-24T14:58:34.96Z</time></trkpt><trkpt lat="43.0902806" lon="12.4338049"><ele>206.0</ele><time>2026-04-24T14:58:36.981Z</time></trkpt><trkpt lat="43.090251" lon="12.4336456"><ele>206.00000000000003</ele><time>2026-04-24T14:58:38.958Z</time></trkpt><trkpt lat="43.0902352" lon="12.43356"><ele>206.0</ele><time>2026-04-24T14:58:39.973Z</time></trkpt><trkpt lat="43.0902166" lon="12.4334647"><ele>206.0</ele><time>2026-04-24T14:58:40.96Z</time></trkpt><trkpt lat="43.0901922" lon="12.4333609"><ele>206.0</ele><time>2026-04-24T14:58:41.964Z</time></trkpt><trkpt lat="43.0901606" lon="12.4332506"><ele>206.00000000000003</ele><time>2026-04-24T14:58:42.972Z</time></trkpt><trkpt lat="43.0901263" lon="12.4331144"><ele>206.0</ele><time>2026-04-24T14:58:43.972Z</time></trkpt><trkpt lat="43.0900851" lon="12.4329691"><ele>206.5</ele><time>2026-04-24T14:58:44.967Z</time></trkpt><trkpt lat="43.0900464" lon="12.4328064"><ele>207.0</ele><time>2026-04-24T14:58:45.969Z</time></trkpt><trkpt lat="43.0900145" lon="12.4326465"><ele>207.5</ele><time>2026-04-24T14:58:46.958Z</time></trkpt><trkpt lat="43.0899882" lon="12.4324952"><ele>208.0</ele><time>2026-04-24T14:58:47.971Z</time></trkpt><trkpt lat="43.0899613" lon="12.4323539"><ele>208.0</ele><time>2026-04-24T14:58:48.969Z</time></trkpt><trkpt lat="43.0899358" lon="12.4322224"><ele>208.0</ele><time>2026-04-24T14:58:49.964Z</time></trkpt><trkpt lat="43.0899068" lon="12.4320975"><ele>208.0</ele><time>2026-04-24T14:58:50.965Z</time></trkpt><trkpt lat="43.0898671" lon="12.431976"><ele>208.0</ele><time>2026-04-24T14:58:51.972Z</time></trkpt><trkpt lat="43.0898164" lon="12.4318799"><ele>208.0</ele><time>2026-04-24T14:58:52.974Z</time></trkpt><trkpt lat="43.0897594" lon="12.4317993"><ele>207.33333333333331</ele><time>2026-04-24T14:58:53.966Z</time></trkpt><trkpt lat="43.0897073" lon="12.4317173"><ele>206.66666666666666</ele><time>2026-04-24T14:58:54.971Z</time></trkpt><trkpt lat="43.0896651" lon="12.4316346"><ele>206.0</ele><time>2026-04-24T14:58:55.962Z</time></trkpt><trkpt lat="43.0896242" lon="12.4315611"><ele>205.33333333333331</ele><time>2026-04-24T14:58:56.962Z</time></trkpt><trkpt lat="43.0895333" lon="12.4315149"><ele>204.66666666666666</ele><time>2026-04-24T14:58:58.972Z</time></trkpt><trkpt lat="43.0895586" lon="12.4316323"><ele>204.0</ele><time>2026-04-24T14:59:01.976Z</time></trkpt><trkpt lat="43.0896299" lon="12.4317214"><ele>204.0</ele><time>2026-04-24T14:59:02.983Z</time></trkpt><trkpt lat="43.0897132" lon="12.4318187"><ele>204.0</ele><time>2026-04-24T14:59:03.961Z</time></trkpt><trkpt lat="43.0897899" lon="12.4319124"><ele>204.0</ele><time>2026-04-24T14:59:04.969Z</time></trkpt><trkpt lat="43.089847" lon="12.4320084"><ele>204.0</ele><time>2026-04-24T14:59:05.97Z</time></trkpt><trkpt lat="43.0898985" lon="12.4321348"><ele>204.0</ele><time>2026-04-24T14:59:06.983Z</time></trkpt><trkpt lat="43.0899352" lon="12.4322789"><ele>204.79999999999998</ele><time>2026-04-24T14:59:07.971Z</time></trkpt><trkpt lat="43.0899646" lon="12.4324192"><ele>205.6</ele><time>2026-04-24T14:59:08.966Z</time></trkpt><trkpt lat="43.0900001" lon="12.4325653"><ele>206.4</ele><time>2026-04-24T14:59:09.981Z</time></trkpt><trkpt lat="43.0900368" lon="12.4326963"><ele>207.2</ele><time>2026-04-24T14:59:10.977Z</time></trkpt><trkpt lat="43.0900661" lon="12.4328191"><ele>208.0</ele><time>2026-04-24T14:59:11.966Z</time></trkpt><trkpt lat="43.0900949" lon="12.4329294"><ele>207.66666666666666</ele><time>2026-04-24T14:59:12.962Z</time></trkpt><trkpt lat="43.0901107" lon="12.433032"><ele>207.33333333333331</ele><time>2026-04-24T14:59:13.985Z</time></trkpt><trkpt lat="43.0901008" lon="12.4331248"><ele>207.0</ele><time>2026-04-24T14:59:14.962Z</time></trkpt><trkpt lat="43.0900137" lon="12.4332365"><ele>206.66666666666669</ele><time>2026-04-24T14:59:16.959Z</time></trkpt><trkpt lat="43.0899531" lon="12.433276"><ele>206.33333333333334</ele><time>2026-04-24T14:59:17.954Z</time></trkpt><trkpt lat="43.089894" lon="12.4333142"><ele>206.0</ele><time>2026-04-24T14:59:18.973Z</time></trkpt><trkpt lat="43.0898146" lon="12.4334075"><ele>206.00000000000003</ele><time>2026-04-24T14:59:20.965Z</time></trkpt><trkpt lat="43.0897908" lon="12.4335108"><ele>206.0</ele><time>2026-04-24T14:59:22.981Z</time></trkpt><trkpt lat="43.0898358" lon="12.4336085"><ele>206.0</ele><time>2026-04-24T14:59:25.962Z</time></trkpt><trkpt lat="43.089906" lon="12.4336606"><ele>206.0</ele><time>2026-04-24T14:59:27.961Z</time></trkpt><trkpt lat="43.0899617" lon="12.4337038"><ele>206.00000000000003</ele><time>2026-04-24T14:59:28.963Z</time></trkpt><trkpt lat="43.09003" lon="12.4337832"><ele>206.0</ele><time>2026-04-24T14:59:29.973Z</time></trkpt><trkpt lat="43.090098" lon="12.4338706"><ele>206.00000000000003</ele><time>2026-04-24T14:59:30.974Z</time></trkpt><trkpt lat="43.0901576" lon="12.4339422"><ele>206.0</ele><time>2026-04-24T14:59:31.97Z</time></trkpt><trkpt lat="43.0902061" lon="12.4340009"><ele>206.0</ele><time>2026-04-24T14:59:32.979Z</time></trkpt><trkpt lat="43.0902587" lon="12.4340745"><ele>206.0</ele><time>2026-04-24T14:59:34.976Z</time></trkpt><trkpt lat="43.0903315" lon="12.4341543"><ele>206.00000000000003</ele><time>2026-04-24T14:59:37.969Z</time></trkpt><trkpt lat="43.0903697" lon="12.4342348"><ele>206.0</ele><time>2026-04-24T14:59:39.963Z</time></trkpt><trkpt lat="43.0903932" lon="12.4343404"><ele>205.99999999999997</ele><time>2026-04-24T14:59:42.96Z</time></trkpt><trkpt lat="43.090415" lon="12.4344265"><ele>206.0</ele><time>2026-04-24T14:59:45.969Z</time></trkpt><trkpt lat="43.0904383" lon="12.4345088"><ele>206.0</ele><time>2026-04-24T14:59:47.965Z</time></trkpt><trkpt lat="43.0904554" lon="12.4346191"><ele>206.0</ele><time>2026-04-24T14:59:50.969Z</time></trkpt><trkpt lat="43.0904864" lon="12.4347188"><ele>206.0</ele><time>2026-04-24T14:59:53.973Z</time></trkpt><trkpt lat="43.0905027" lon="12.434821"><ele>205.99999999999997</ele><time>2026-04-24T14:59:56.97Z</time></trkpt><trkpt lat="43.0905776" lon="12.4348523"><ele>206.0</ele><time>2026-04-24T15:00:01.955Z</time></trkpt><trkpt lat="43.0906351" lon="12.4348135"><ele>206.5</ele><time>2026-04-24T15:00:03.955Z</time></trkpt><trkpt lat="43.0907671" lon="12.434763"><ele>207.0</ele><time>2026-04-24T15:00:05.964Z</time></trkpt><trkpt lat="43.0908745" lon="12.4347223"><ele>207.5</ele><time>2026-04-24T15:00:06.965Z</time></trkpt><trkpt lat="43.0909853" lon="12.4346577"><ele>208.0</ele><time>2026-04-24T15:00:07.977Z</time></trkpt><trkpt lat="43.0910864" lon="12.4345651"><ele>208.0</ele><time>2026-04-24T15:00:08.974Z</time></trkpt><trkpt lat="43.0911787" lon="12.4344662"><ele>208.0</ele><time>2026-04-24T15:00:09.969Z</time></trkpt><trkpt lat="43.0912847" lon="12.4343311"><ele>208.0</ele><time>2026-04-24T15:00:10.966Z</time></trkpt><trkpt lat="43.0913497" lon="12.4341682"><ele>208.0</ele><time>2026-04-24T15:00:11.964Z</time></trkpt><trkpt lat="43.0913701" lon="12.4340019"><ele>208.0</ele><time>2026-04-24T15:00:12.98Z</time></trkpt><trkpt lat="43.0913443" lon="12.433811"><ele>208.0</ele><time>2026-04-24T15:00:13.976Z</time></trkpt><trkpt lat="43.0913222" lon="12.4336277"><ele>208.0</ele><time>2026-04-24T15:00:14.962Z</time></trkpt><trkpt lat="43.0913009" lon="12.4334476"><ele>208.0</ele><time>2026-04-24T15:00:15.968Z</time></trkpt><trkpt lat="43.0912764" lon="12.4332697"><ele>208.0</ele><time>2026-04-24T15:00:16.976Z</time></trkpt><trkpt lat="43.0912806" lon="12.4331047"><ele>208.0</ele><time>2026-04-24T15:00:17.963Z</time></trkpt><trkpt lat="43.0912975" lon="12.432948"><ele>208.0</ele><time>2026-04-24T15:00:18.969Z</time></trkpt><trkpt lat="43.0913602" lon="12.4328083"><ele>208.0</ele><time>2026-04-24T15:00:19.954Z</time></trkpt><trkpt lat="43.0914624" lon="12.4326912"><ele>209.25</ele><time>2026-04-24T15:00:20.961Z</time></trkpt><trkpt lat="43.0915753" lon="12.4325994"><ele>210.5</ele><time>2026-04-24T15:00:21.961Z</time></trkpt><trkpt lat="43.0916928" lon="12.4325198"><ele>211.75</ele><time>2026-04-24T15:00:22.978Z</time></trkpt><trkpt lat="43.0918227" lon="12.4324543"><ele>213.0</ele><time>2026-04-24T15:00:23.955Z</time></trkpt><trkpt lat="43.0919543" lon="12.4323792"><ele>215.75</ele><time>2026-04-24T15:00:24.969Z</time></trkpt><trkpt lat="43.0920913" lon="12.4323073"><ele>218.5</ele><time>2026-04-24T15:00:25.969Z</time></trkpt><trkpt lat="43.0922294" lon="12.4322399"><ele>221.25</ele><time>2026-04-24T15:00:26.972Z</time></trkpt><trkpt lat="43.092355" lon="12.4321751"><ele>224.0</ele><time>2026-04-24T15:00:27.964Z</time></trkpt><trkpt lat="43.0924589" lon="12.4321234"><ele>225.00000000000003</ele><time>2026-04-24T15:00:28.98Z</time></trkpt><trkpt lat="43.0925579" lon="12.4320828"><ele>226.0</ele><time>2026-04-24T15:00:29.971Z</time></trkpt><trkpt lat="43.0926409" lon="12.432051"><ele>227.0</ele><time>2026-04-24T15:00:30.966Z</time></trkpt><trkpt lat="43.092723" lon="12.4320229"><ele>228.0</ele><time>2026-04-24T15:00:31.97Z</time></trkpt><trkpt lat="43.092793" lon="12.4319779"><ele>229.00000000000003</ele><time>2026-04-24T15:00:32.968Z</time></trkpt><trkpt lat="43.0928468" lon="12.4319084"><ele>230.0</ele><time>2026-04-24T15:00:33.965Z</time></trkpt><trkpt lat="43.0928734" lon="12.4317874"><ele>230.0</ele><time>2026-04-24T15:00:34.976Z</time></trkpt><trkpt lat="43.0928848" lon="12.4316427"><ele>230.0</ele><time>2026-04-24T15:00:35.97Z</time></trkpt><trkpt lat="43.0928895" lon="12.4314913"><ele>230.0</ele><time>2026-04-24T15:00:36.968Z</time></trkpt><trkpt lat="43.0929017" lon="12.4313232"><ele>230.0</ele><time>2026-04-24T15:00:37.978Z</time></trkpt><trkpt lat="43.0929125" lon="12.4311449"><ele>230.33333333333334</ele><time>2026-04-24T15:00:38.978Z</time></trkpt><trkpt lat="43.0929213" lon="12.4309278"><ele>230.66666666666669</ele><time>2026-04-24T15:00:39.983Z</time></trkpt><trkpt lat="43.0929484" lon="12.4306973"><ele>231.0</ele><time>2026-04-24T15:00:40.971Z</time></trkpt><trkpt lat="43.092979" lon="12.4304474"><ele>230.33333333333331</ele><time>2026-04-24T15:00:41.978Z</time></trkpt><trkpt lat="43.0930177" lon="12.430185"><ele>229.66666666666666</ele><time>2026-04-24T15:00:42.98Z</time></trkpt><trkpt lat="43.0930621" lon="12.429938"><ele>229.0</ele><time>2026-04-24T15:00:43.974Z</time></trkpt><trkpt lat="43.0931239" lon="12.4297094"><ele>227.66666666666666</ele><time>2026-04-24T15:00:44.966Z</time></trkpt><trkpt lat="43.0931937" lon="12.4295054"><ele>226.33333333333331</ele><time>2026-04-24T15:00:45.978Z</time></trkpt><trkpt lat="43.0932633" lon="12.4292773"><ele>225.0</ele><time>2026-04-24T15:00:46.977Z</time></trkpt><trkpt lat="43.0933428" lon="12.4290498"><ele>227.66666666666669</ele><time>2026-04-24T15:00:47.965Z</time></trkpt><trkpt lat="43.0934319" lon="12.4288079"><ele>230.33333333333334</ele><time>2026-04-24T15:00:48.963Z</time></trkpt><trkpt lat="43.0935243" lon="12.4285625"><ele>233.0</ele><time>2026-04-24T15:00:49.975Z</time></trkpt><trkpt lat="43.0936176" lon="12.4283393"><ele>233.0</ele><time>2026-04-24T15:00:50.971Z</time></trkpt><trkpt lat="43.0937083" lon="12.4281174"><ele>233.0</ele><time>2026-04-24T15:00:51.973Z</time></trkpt><trkpt lat="43.0937958" lon="12.4279"><ele>233.0</ele><time>2026-04-24T15:00:52.969Z</time></trkpt><trkpt lat="43.093889" lon="12.4276831"><ele>232.0</ele><time>2026-04-24T15:00:53.98Z</time></trkpt><trkpt lat="43.0939872" lon="12.4274575"><ele>231.0</ele><time>2026-04-24T15:00:54.981Z</time></trkpt><trkpt lat="43.0940829" lon="12.427246"><ele>230.0</ele><time>2026-04-24T15:00:55.962Z</time></trkpt><trkpt lat="43.0941687" lon="12.4270456"><ele>230.0</ele><time>2026-04-24T15:00:56.982Z</time></trkpt><trkpt lat="43.0942679" lon="12.4268632"><ele>230.0</ele><time>2026-04-24T15:00:57.97Z</time></trkpt><trkpt lat="43.0943687" lon="12.4266897"><ele>230.0</ele><time>2026-04-24T15:00:58.98Z</time></trkpt><trkpt lat="43.0944646" lon="12.4265304"><ele>221.0</ele><time>2026-04-24T15:00:59.959Z</time></trkpt><trkpt lat="43.0948756" lon="12.4258223"><ele>221.5</ele><time>2026-04-24T15:01:04.972Z</time></trkpt><trkpt lat="43.0949579" lon="12.4256877"><ele>222.0</ele><time>2026-04-24T15:01:05.957Z</time></trkpt><trkpt lat="43.0950396" lon="12.4255333"><ele>222.5</ele><time>2026-04-24T15:01:06.966Z</time></trkpt><trkpt lat="43.0951315" lon="12.425373"><ele>223.0</ele><time>2026-04-24T15:01:07.973Z</time></trkpt><trkpt lat="43.0952293" lon="12.4251933"><ele>223.0</ele><time>2026-04-24T15:01:08.966Z</time></trkpt><trkpt lat="43.0953285" lon="12.4250013"><ele>223.0</ele><time>2026-04-24T15:01:09.972Z</time></trkpt><trkpt lat="43.0954324" lon="12.4248005"><ele>223.0</ele><time>2026-04-24T15:01:10.974Z</time></trkpt><trkpt lat="43.0955406" lon="12.4245916"><ele>223.33333333333331</ele><time>2026-04-24T15:01:11.969Z</time></trkpt><trkpt lat="43.0956531" lon="12.4243865"><ele>223.66666666666669</ele><time>2026-04-24T15:01:12.97Z</time></trkpt><trkpt lat="43.0957743" lon="12.4241817"><ele>224.0</ele><time>2026-04-24T15:01:13.974Z</time></trkpt><trkpt lat="43.0958985" lon="12.4239655"><ele>224.33333333333334</ele><time>2026-04-24T15:01:14.958Z</time></trkpt><trkpt lat="43.0960229" lon="12.4237432"><ele>224.66666666666669</ele><time>2026-04-24T15:01:15.969Z</time></trkpt><trkpt lat="43.0961486" lon="12.4235126"><ele>225.0</ele><time>2026-04-24T15:01:16.97Z</time></trkpt><trkpt lat="43.0962751" lon="12.423282"><ele>225.0</ele><time>2026-04-24T15:01:17.964Z</time></trkpt><trkpt lat="43.0964029" lon="12.4230582"><ele>225.0</ele><time>2026-04-24T15:01:18.977Z</time></trkpt><trkpt lat="43.0965271" lon="12.422826"><ele>225.0</ele><time>2026-04-24T15:01:19.969Z</time></trkpt><trkpt lat="43.0966502" lon="12.4225993"><ele>226.33333333333331</ele><time>2026-04-24T15:01:20.973Z</time></trkpt><trkpt lat="43.0967711" lon="12.4223765"><ele>227.66666666666666</ele><time>2026-04-24T15:01:21.965Z</time></trkpt><trkpt lat="43.0968946" lon="12.4221584"><ele>229.0</ele><time>2026-04-24T15:01:22.969Z</time></trkpt><trkpt lat="43.0970189" lon="12.4219389"><ele>230.33333333333331</ele><time>2026-04-24T15:01:23.965Z</time></trkpt><trkpt lat="43.0971403" lon="12.4217368"><ele>231.66666666666669</ele><time>2026-04-24T15:01:24.974Z</time></trkpt><trkpt lat="43.0972454" lon="12.4215496"><ele>233.0</ele><time>2026-04-24T15:01:25.968Z</time></trkpt><trkpt lat="43.0973466" lon="12.4213705"><ele>233.25</ele><time>2026-04-24T15:01:26.978Z</time></trkpt><trkpt lat="43.097433" lon="12.4212022"><ele>233.5</ele><time>2026-04-24T15:01:27.971Z</time></trkpt><trkpt lat="43.0974937" lon="12.4210249"><ele>233.75</ele><time>2026-04-24T15:01:28.978Z</time></trkpt><trkpt lat="43.0975263" lon="12.4208326"><ele>234.0</ele><time>2026-04-24T15:01:29.952Z</time></trkpt><trkpt lat="43.0975322" lon="12.4206207"><ele>234.0</ele><time>2026-04-24T15:01:30.97Z</time></trkpt><trkpt lat="43.0975152" lon="12.4203905"><ele>234.0</ele><time>2026-04-24T15:01:31.968Z</time></trkpt><trkpt lat="43.0974954" lon="12.4201642"><ele>234.0</ele><time>2026-04-24T15:01:32.958Z</time></trkpt><trkpt lat="43.0974877" lon="12.4199471"><ele>234.0</ele><time>2026-04-24T15:01:33.973Z</time></trkpt><trkpt lat="43.0974827" lon="12.4197266"><ele>234.0</ele><time>2026-04-24T15:01:34.968Z</time></trkpt><trkpt lat="43.0974755" lon="12.419501"><ele>234.0</ele><time>2026-04-24T15:01:35.976Z</time></trkpt><trkpt lat="43.0974725" lon="12.4192717"><ele>235.33333333333331</ele><time>2026-04-24T15:01:36.975Z</time></trkpt><trkpt lat="43.097468" lon="12.4190444"><ele>236.66666666666666</ele><time>2026-04-24T15:01:37.976Z</time></trkpt><trkpt lat="43.097464" lon="12.4188141"><ele>238.0</ele><time>2026-04-24T15:01:38.962Z</time></trkpt><trkpt lat="43.0974607" lon="12.4185883"><ele>239.66666666666666</ele><time>2026-04-24T15:01:39.98Z</time></trkpt><trkpt lat="43.0974578" lon="12.4183666"><ele>241.33333333333331</ele><time>2026-04-24T15:01:40.976Z</time></trkpt><trkpt lat="43.0974531" lon="12.4181401"><ele>243.0</ele><time>2026-04-24T15:01:41.967Z</time></trkpt><trkpt lat="43.0974425" lon="12.4179165"><ele>245.0</ele><time>2026-04-24T15:01:42.974Z</time></trkpt><trkpt lat="43.0974323" lon="12.4176911"><ele>247.0</ele><time>2026-04-24T15:01:43.97Z</time></trkpt><trkpt lat="43.0974267" lon="12.4174689"><ele>249.0</ele><time>2026-04-24T15:01:44.963Z</time></trkpt><trkpt lat="43.0974199" lon="12.4172486"><ele>248.0</ele><time>2026-04-24T15:01:45.978Z</time></trkpt><trkpt lat="43.0974112" lon="12.4170313"><ele>247.0</ele><time>2026-04-24T15:01:46.976Z</time></trkpt><trkpt lat="43.0973983" lon="12.4168286"><ele>246.0</ele><time>2026-04-24T15:01:47.969Z</time></trkpt><trkpt lat="43.0973848" lon="12.4166416"><ele>245.0</ele><time>2026-04-24T15:01:48.986Z</time></trkpt><trkpt lat="43.097367" lon="12.4164549"><ele>245.75</ele><time>2026-04-24T15:01:49.969Z</time></trkpt><trkpt lat="43.0973505" lon="12.4162807"><ele>246.5</ele><time>2026-04-24T15:01:50.966Z</time></trkpt><trkpt lat="43.0973321" lon="12.4161045"><ele>247.25</ele><time>2026-04-24T15:01:51.967Z</time></trkpt><trkpt lat="43.0973178" lon="12.4159156"><ele>248.0</ele><time>2026-04-24T15:01:52.977Z</time></trkpt><trkpt lat="43.0973066" lon="12.4157114"><ele>248.0</ele><time>2026-04-24T15:01:53.959Z</time></trkpt><trkpt lat="43.0972975" lon="12.4155015"><ele>248.0</ele><time>2026-04-24T15:01:54.955Z</time></trkpt><trkpt lat="43.097289" lon="12.4152964"><ele>248.0</ele><time>2026-04-24T15:01:55.959Z</time></trkpt><trkpt lat="43.0972766" lon="12.4151068"><ele>248.0</ele><time>2026-04-24T15:01:56.96Z</time></trkpt><trkpt lat="43.0972656" lon="12.4149328"><ele>249.60000000000002</ele><time>2026-04-24T15:01:57.953Z</time></trkpt><trkpt lat="43.0972556" lon="12.4147684"><ele>251.20000000000002</ele><time>2026-04-24T15:01:58.973Z</time></trkpt><trkpt lat="43.0972493" lon="12.4146175"><ele>252.8</ele><time>2026-04-24T15:01:59.976Z</time></trkpt><trkpt lat="43.0972393" lon="12.4144727"><ele>254.4</ele><time>2026-04-24T15:02:00.96Z</time></trkpt><trkpt lat="43.0972268" lon="12.4143255"><ele>256.0</ele><time>2026-04-24T15:02:01.988Z</time></trkpt><trkpt lat="43.0972172" lon="12.4141644"><ele>257.75</ele><time>2026-04-24T15:02:02.981Z</time></trkpt><trkpt lat="43.0972071" lon="12.4139936"><ele>259.5</ele><time>2026-04-24T15:02:03.97Z</time></trkpt><trkpt lat="43.0972004" lon="12.4138353"><ele>261.25</ele><time>2026-04-24T15:02:04.968Z</time></trkpt><trkpt lat="43.0971994" lon="12.4136918"><ele>263.0</ele><time>2026-04-24T15:02:05.985Z</time></trkpt><trkpt lat="43.0971993" lon="12.4135488"><ele>263.6</ele><time>2026-04-24T15:02:06.963Z</time></trkpt><trkpt lat="43.0972036" lon="12.4134107"><ele>264.20000000000005</ele><time>2026-04-24T15:02:07.965Z</time></trkpt><trkpt lat="43.0972243" lon="12.4132751"><ele>264.8</ele><time>2026-04-24T15:02:08.978Z</time></trkpt><trkpt lat="43.0972688" lon="12.413156"><ele>265.40000000000003</ele><time>2026-04-24T15:02:09.958Z</time></trkpt><trkpt lat="43.0973254" lon="12.4130467"><ele>266.0</ele><time>2026-04-24T15:02:10.955Z</time></trkpt><trkpt lat="43.0973889" lon="12.412949"><ele>270.5</ele><time>2026-04-24T15:02:11.976Z</time></trkpt><trkpt lat="43.097457" lon="12.4128523"><ele>275.0</ele><time>2026-04-24T15:02:12.978Z</time></trkpt><trkpt lat="43.0975304" lon="12.4127464"><ele>279.5</ele><time>2026-04-24T15:02:13.968Z</time></trkpt><trkpt lat="43.0976112" lon="12.412624"><ele>284.0</ele><time>2026-04-24T15:02:14.958Z</time></trkpt><trkpt lat="43.0977018" lon="12.4124817"><ele>284.0</ele><time>2026-04-24T15:02:15.972Z</time></trkpt><trkpt lat="43.0978052" lon="12.4123178"><ele>284.0</ele><time>2026-04-24T15:02:16.98Z</time></trkpt><trkpt lat="43.0979173" lon="12.4121485"><ele>284.0</ele><time>2026-04-24T15:02:17.987Z</time></trkpt><trkpt lat="43.0980435" lon="12.411972"><ele>284.6666666666667</ele><time>2026-04-24T15:02:18.979Z</time></trkpt><trkpt lat="43.0981778" lon="12.4117892"><ele>285.3333333333333</ele><time>2026-04-24T15:02:19.968Z</time></trkpt><trkpt lat="43.0983101" lon="12.4116042"><ele>286.0</ele><time>2026-04-24T15:02:20.98Z</time></trkpt><trkpt lat="43.0984326" lon="12.4114211"><ele>291.66666666666663</ele><time>2026-04-24T15:02:21.978Z</time></trkpt><trkpt lat="43.0985445" lon="12.4112399"><ele>297.3333333333333</ele><time>2026-04-24T15:02:22.988Z</time></trkpt><trkpt lat="43.0986424" lon="12.4110693"><ele>303.0</ele><time>2026-04-24T15:02:23.987Z</time></trkpt><trkpt lat="43.0987331" lon="12.4109099"><ele>303.0</ele><time>2026-04-24T15:02:24.973Z</time></trkpt><trkpt lat="43.0988208" lon="12.4107579"><ele>303.0</ele><time>2026-04-24T15:02:25.972Z</time></trkpt><trkpt lat="43.0989129" lon="12.4106212"><ele>303.0</ele><time>2026-04-24T15:02:26.979Z</time></trkpt><trkpt lat="43.099" lon="12.4104941"><ele>303.0</ele><time>2026-04-24T15:02:27.976Z</time></trkpt><trkpt lat="43.0990796" lon="12.4103659"><ele>307.5</ele><time>2026-04-24T15:02:28.959Z</time></trkpt><trkpt lat="43.0991537" lon="12.4102389"><ele>312.0</ele><time>2026-04-24T15:02:29.977Z</time></trkpt><trkpt lat="43.0992287" lon="12.4101149"><ele>316.5</ele><time>2026-04-24T15:02:30.98Z</time></trkpt><trkpt lat="43.0993137" lon="12.4099816"><ele>321.0</ele><time>2026-04-24T15:02:31.99Z</time></trkpt><trkpt lat="43.0993979" lon="12.40985"><ele>321.0</ele><time>2026-04-24T15:02:32.978Z</time></trkpt><trkpt lat="43.0994858" lon="12.4097187"><ele>321.0</ele><time>2026-04-24T15:02:33.983Z</time></trkpt><trkpt lat="43.0995771" lon="12.4095827"><ele>321.0</ele><time>2026-04-24T15:02:34.97Z</time></trkpt><trkpt lat="43.0996682" lon="12.4094485"><ele>321.0</ele><time>2026-04-24T15:02:35.969Z</time></trkpt><trkpt lat="43.0997607" lon="12.4093103"><ele>321.75</ele><time>2026-04-24T15:02:36.965Z</time></trkpt><trkpt lat="43.0998642" lon="12.4091634"><ele>322.5</ele><time>2026-04-24T15:02:37.98Z</time></trkpt><trkpt lat="43.0999732" lon="12.4090191"><ele>323.25</ele><time>2026-04-24T15:02:38.983Z</time></trkpt><trkpt lat="43.1000799" lon="12.4088821"><ele>324.0</ele><time>2026-04-24T15:02:39.961Z</time></trkpt><trkpt lat="43.1001764" lon="12.4087597"><ele>326.75</ele><time>2026-04-24T15:02:40.976Z</time></trkpt><trkpt lat="43.1002672" lon="12.408641"><ele>329.5</ele><time>2026-04-24T15:02:41.964Z</time></trkpt><trkpt lat="43.1003606" lon="12.408522"><ele>332.25</ele><time>2026-04-24T15:02:42.975Z</time></trkpt><trkpt lat="43.1004532" lon="12.4084084"><ele>335.0</ele><time>2026-04-24T15:02:43.978Z</time></trkpt><trkpt lat="43.1005465" lon="12.4082951"><ele>335.0</ele><time>2026-04-24T15:02:44.968Z</time></trkpt><trkpt lat="43.1006341" lon="12.4081937"><ele>335.0</ele><time>2026-04-24T15:02:45.959Z</time></trkpt><trkpt lat="43.1007189" lon="12.4080946"><ele>335.0</ele><time>2026-04-24T15:02:46.965Z</time></trkpt><trkpt lat="43.1008055" lon="12.408001"><ele>335.0</ele><time>2026-04-24T15:02:47.973Z</time></trkpt><trkpt lat="43.1008913" lon="12.4079072"><ele>335.0</ele><time>2026-04-24T15:02:48.978Z</time></trkpt><trkpt lat="43.1009697" lon="12.4078076"><ele>338.2</ele><time>2026-04-24T15:02:49.966Z</time></trkpt><trkpt lat="43.101041" lon="12.4077096"><ele>341.4</ele><time>2026-04-24T15:02:50.976Z</time></trkpt><trkpt lat="43.1011077" lon="12.4075983"><ele>344.6</ele><time>2026-04-24T15:02:51.986Z</time></trkpt><trkpt lat="43.1011665" lon="12.4074878"><ele>347.8</ele><time>2026-04-24T15:02:52.97Z</time></trkpt><trkpt lat="43.1012196" lon="12.4073777"><ele>351.0</ele><time>2026-04-24T15:02:53.964Z</time></trkpt><trkpt lat="43.1012694" lon="12.4072828"><ele>351.0</ele><time>2026-04-24T15:02:54.973Z</time></trkpt><trkpt lat="43.1013215" lon="12.4071883"><ele>351.0</ele><time>2026-04-24T15:02:55.97Z</time></trkpt><trkpt lat="43.1013799" lon="12.407089"><ele>351.0</ele><time>2026-04-24T15:02:56.964Z</time></trkpt><trkpt lat="43.1014425" lon="12.4069829"><ele>351.0</ele><time>2026-04-24T15:02:57.956Z</time></trkpt><trkpt lat="43.1015104" lon="12.406867"><ele>351.0</ele><time>2026-04-24T15:02:58.974Z</time></trkpt><trkpt lat="43.1015767" lon="12.406746"><ele>352.20000000000005</ele><time>2026-04-24T15:02:59.97Z</time></trkpt><trkpt lat="43.1016462" lon="12.4066194"><ele>353.40000000000003</ele><time>2026-04-24T15:03:00.966Z</time></trkpt><trkpt lat="43.1017095" lon="12.40651"><ele>354.6</ele><time>2026-04-24T15:03:01.963Z</time></trkpt><trkpt lat="43.101769" lon="12.4064088"><ele>355.8</ele><time>2026-04-24T15:03:02.979Z</time></trkpt><trkpt lat="43.1018332" lon="12.4063081"><ele>357.0</ele><time>2026-04-24T15:03:03.974Z</time></trkpt><trkpt lat="43.1018974" lon="12.4061956"><ele>358.75</ele><time>2026-04-24T15:03:04.965Z</time></trkpt><trkpt lat="43.1019757" lon="12.4060735"><ele>360.5</ele><time>2026-04-24T15:03:05.959Z</time></trkpt><trkpt lat="43.1020603" lon="12.4059462"><ele>362.25</ele><time>2026-04-24T15:03:06.975Z</time></trkpt><trkpt lat="43.1021435" lon="12.405822"><ele>364.0</ele><time>2026-04-24T15:03:07.974Z</time></trkpt><trkpt lat="43.1022248" lon="12.4057007"><ele>364.0</ele><time>2026-04-24T15:03:08.972Z</time></trkpt><trkpt lat="43.1023019" lon="12.4055852"><ele>364.0</ele><time>2026-04-24T15:03:09.974Z</time></trkpt><trkpt lat="43.1023762" lon="12.4054749"><ele>364.0</ele><time>2026-04-24T15:03:10.969Z</time></trkpt><trkpt lat="43.1024434" lon="12.4053651"><ele>364.0</ele><time>2026-04-24T15:03:11.976Z</time></trkpt><trkpt lat="43.1025058" lon="12.40525"><ele>364.0</ele><time>2026-04-24T15:03:12.987Z</time></trkpt><trkpt lat="43.1025646" lon="12.4051242"><ele>364.0</ele><time>2026-04-24T15:03:13.966Z</time></trkpt><trkpt lat="43.1026138" lon="12.404984"><ele>364.0</ele><time>2026-04-24T15:03:14.968Z</time></trkpt><trkpt lat="43.1026532" lon="12.4048362"><ele>364.0</ele><time>2026-04-24T15:03:15.959Z</time></trkpt><trkpt lat="43.1026768" lon="12.4046947"><ele>364.0</ele><time>2026-04-24T15:03:16.968Z</time></trkpt><trkpt lat="43.1026952" lon="12.4045779"><ele>364.0</ele><time>2026-04-24T15:03:17.974Z</time></trkpt><trkpt lat="43.1026986" lon="12.4044681"><ele>364.0</ele><time>2026-04-24T15:03:18.973Z</time></trkpt><trkpt lat="43.1026941" lon="12.4043679"><ele>364.0</ele><time>2026-04-24T15:03:19.959Z</time></trkpt><trkpt lat="43.1026791" lon="12.4042804"><ele>364.0</ele><time>2026-04-24T15:03:20.967Z</time></trkpt><trkpt lat="43.1026538" lon="12.4041855"><ele>364.0</ele><time>2026-04-24T15:03:21.986Z</time></trkpt><trkpt lat="43.1026172" lon="12.4040791"><ele>364.0</ele><time>2026-04-24T15:03:22.968Z</time></trkpt><trkpt lat="43.1025753" lon="12.4039614"><ele>364.0</ele><time>2026-04-24T15:03:23.964Z</time></trkpt><trkpt lat="43.1025225" lon="12.4038195"><ele>363.6</ele><time>2026-04-24T15:03:24.982Z</time></trkpt><trkpt lat="43.1024736" lon="12.4036754"><ele>363.2</ele><time>2026-04-24T15:03:25.982Z</time></trkpt><trkpt lat="43.102425" lon="12.4035406"><ele>362.8</ele><time>2026-04-24T15:03:26.972Z</time></trkpt><trkpt lat="43.1023759" lon="12.403428"><ele>362.40000000000003</ele><time>2026-04-24T15:03:27.987Z</time></trkpt><trkpt lat="43.1023592" lon="12.4032965"><ele>362.0</ele><time>2026-04-24T15:03:28.978Z</time></trkpt><trkpt lat="43.1023548" lon="12.4031553"><ele>362.0</ele><time>2026-04-24T15:03:29.968Z</time></trkpt><trkpt lat="43.1023638" lon="12.4030261"><ele>362.0</ele><time>2026-04-24T15:03:30.978Z</time></trkpt><trkpt lat="43.1023823" lon="12.4028968"><ele>362.0</ele><time>2026-04-24T15:03:31.972Z</time></trkpt><trkpt lat="43.1024014" lon="12.402765"><ele>362.0</ele><time>2026-04-24T15:03:32.967Z</time></trkpt><trkpt lat="43.1024281" lon="12.402639"><ele>362.0</ele><time>2026-04-24T15:03:33.975Z</time></trkpt><trkpt lat="43.1024608" lon="12.4025137"><ele>363.5</ele><time>2026-04-24T15:03:34.972Z</time></trkpt><trkpt lat="43.1024956" lon="12.4023789"><ele>365.0</ele><time>2026-04-24T15:03:35.965Z</time></trkpt><trkpt lat="43.1025312" lon="12.4022312"><ele>366.5</ele><time>2026-04-24T15:03:36.961Z</time></trkpt><trkpt lat="43.1025653" lon="12.4020816"><ele>368.0</ele><time>2026-04-24T15:03:37.965Z</time></trkpt><trkpt lat="43.1026023" lon="12.4019193"><ele>370.25</ele><time>2026-04-24T15:03:38.977Z</time></trkpt><trkpt lat="43.1026479" lon="12.4017548"><ele>372.5</ele><time>2026-04-24T15:03:39.97Z</time></trkpt><trkpt lat="43.1026996" lon="12.4015906"><ele>374.75</ele><time>2026-04-24T15:03:40.981Z</time></trkpt><trkpt lat="43.1027646" lon="12.4014388"><ele>377.0</ele><time>2026-04-24T15:03:41.969Z</time></trkpt><trkpt lat="43.1028293" lon="12.4012911"><ele>379.25</ele><time>2026-04-24T15:03:42.97Z</time></trkpt><trkpt lat="43.1028929" lon="12.4011514"><ele>381.5</ele><time>2026-04-24T15:03:43.963Z</time></trkpt><trkpt lat="43.1029513" lon="12.4010193"><ele>383.75</ele><time>2026-04-24T15:03:44.979Z</time></trkpt><trkpt lat="43.1030102" lon="12.4008922"><ele>386.0</ele><time>2026-04-24T15:03:45.969Z</time></trkpt><trkpt lat="43.1030663" lon="12.4007676"><ele>386.0</ele><time>2026-04-24T15:03:46.963Z</time></trkpt><trkpt lat="43.1031191" lon="12.4006416"><ele>386.0</ele><time>2026-04-24T15:03:47.966Z</time></trkpt><trkpt lat="43.103179" lon="12.4005111"><ele>386.0</ele><time>2026-04-24T15:03:48.975Z</time></trkpt><trkpt lat="43.1032418" lon="12.4003725"><ele>386.0</ele><time>2026-04-24T15:03:49.967Z</time></trkpt><trkpt lat="43.1033025" lon="12.40023"><ele>388.0</ele><time>2026-04-24T15:03:50.972Z</time></trkpt><trkpt lat="43.103367" lon="12.4000919"><ele>390.0</ele><time>2026-04-24T15:03:51.974Z</time></trkpt><trkpt lat="43.1034286" lon="12.3999498"><ele>392.0</ele><time>2026-04-24T15:03:52.958Z</time></trkpt><trkpt lat="43.1034867" lon="12.3998129"><ele>394.0</ele><time>2026-04-24T15:03:53.965Z</time></trkpt><trkpt lat="43.1035483" lon="12.3996723"><ele>400.25</ele><time>2026-04-24T15:03:54.982Z</time></trkpt><trkpt lat="43.1036115" lon="12.3995329"><ele>406.5</ele><time>2026-04-24T15:03:55.969Z</time></trkpt><trkpt lat="43.1036787" lon="12.3993841"><ele>412.75</ele><time>2026-04-24T15:03:56.973Z</time></trkpt><trkpt lat="43.1037466" lon="12.399237"><ele>419.0</ele><time>2026-04-24T15:03:57.98Z</time></trkpt><trkpt lat="43.1038165" lon="12.3990857"><ele>419.0</ele><time>2026-04-24T15:03:58.967Z</time></trkpt><trkpt lat="43.1038838" lon="12.3989369"><ele>419.0</ele><time>2026-04-24T15:03:59.961Z</time></trkpt><trkpt lat="43.1039458" lon="12.3987915"><ele>419.0</ele><time>2026-04-24T15:04:00.972Z</time></trkpt><trkpt lat="43.1039992" lon="12.3986625"><ele>419.0</ele><time>2026-04-24T15:04:01.966Z</time></trkpt><trkpt lat="43.1040426" lon="12.3985396"><ele>418.2</ele><time>2026-04-24T15:04:02.965Z</time></trkpt><trkpt lat="43.1041078" lon="12.3982999"><ele>417.4</ele><time>2026-04-24T15:04:04.963Z</time></trkpt><trkpt lat="43.1041299" lon="12.3981871"><ele>416.6</ele><time>2026-04-24T15:04:05.965Z</time></trkpt><trkpt lat="43.1041497" lon="12.3980702"><ele>415.8</ele><time>2026-04-24T15:04:06.985Z</time></trkpt><trkpt lat="43.1041563" lon="12.3979479"><ele>415.0</ele><time>2026-04-24T15:04:07.977Z</time></trkpt><trkpt lat="43.1041569" lon="12.3977953"><ele>417.4</ele><time>2026-04-24T15:04:08.965Z</time></trkpt><trkpt lat="43.1041597" lon="12.39767"><ele>419.8</ele><time>2026-04-24T15:04:09.967Z</time></trkpt><trkpt lat="43.1041519" lon="12.3975297"><ele>422.20000000000005</ele><time>2026-04-24T15:04:10.973Z</time></trkpt><trkpt lat="43.1041404" lon="12.3973938"><ele>424.6</ele><time>2026-04-24T15:04:11.969Z</time></trkpt><trkpt lat="43.1041255" lon="12.3972551"><ele>427.0</ele><time>2026-04-24T15:04:12.989Z</time></trkpt><trkpt lat="43.1041025" lon="12.3971196"><ele>427.20000000000005</ele><time>2026-04-24T15:04:13.955Z</time></trkpt><trkpt lat="43.1040902" lon="12.3969811"><ele>427.40000000000003</ele><time>2026-04-24T15:04:14.964Z</time></trkpt><trkpt lat="43.104082" lon="12.3968515"><ele>427.59999999999997</ele><time>2026-04-24T15:04:15.955Z</time></trkpt><trkpt lat="43.1040828" lon="12.3967275"><ele>427.79999999999995</ele><time>2026-04-24T15:04:16.99Z</time></trkpt><trkpt lat="43.1040959" lon="12.396613"><ele>428.0</ele><time>2026-04-24T15:04:17.964Z</time></trkpt><trkpt lat="43.1041158" lon="12.3965008"><ele>427.99999999999994</ele><time>2026-04-24T15:04:18.968Z</time></trkpt><trkpt lat="43.1041361" lon="12.3963817"><ele>428.0</ele><time>2026-04-24T15:04:19.96Z</time></trkpt><trkpt lat="43.1041514" lon="12.3962681"><ele>428.0</ele><time>2026-04-24T15:04:20.966Z</time></trkpt><trkpt lat="43.1041696" lon="12.3961663"><ele>428.0</ele><time>2026-04-24T15:04:21.974Z</time></trkpt><trkpt lat="43.1041833" lon="12.3960772"><ele>427.99999999999994</ele><time>2026-04-24T15:04:22.972Z</time></trkpt><trkpt lat="43.1041954" lon="12.3959845"><ele>428.0</ele><time>2026-04-24T15:04:23.976Z</time></trkpt><trkpt lat="43.1042089" lon="12.3958848"><ele>428.49999999999994</ele><time>2026-04-24T15:04:24.977Z</time></trkpt><trkpt lat="43.1042215" lon="12.3957943"><ele>429.0</ele><time>2026-04-24T15:04:25.976Z</time></trkpt><trkpt lat="43.1042286" lon="12.3957024"><ele>429.5</ele><time>2026-04-24T15:04:26.976Z</time></trkpt><trkpt lat="43.104238" lon="12.3956167"><ele>430.0</ele><time>2026-04-24T15:04:27.966Z</time></trkpt><trkpt lat="43.1042563" lon="12.3954807"><ele>430.49999999999994</ele><time>2026-04-24T15:04:29.964Z</time></trkpt><trkpt lat="43.1042668" lon="12.3953714"><ele>431.0</ele><time>2026-04-24T15:04:32.966Z</time></trkpt><trkpt lat="43.1042777" lon="12.3952612"><ele>432.0</ele><time>2026-04-24T15:04:46.964Z</time></trkpt><trkpt lat="43.104298" lon="12.3951195"><ele>433.0</ele><time>2026-04-24T15:04:48.981Z</time></trkpt><trkpt lat="43.1043371" lon="12.3949444"><ele>434.0</ele><time>2026-04-24T15:04:50.962Z</time></trkpt><trkpt lat="43.1043457" lon="12.3948356"><ele>435.0</ele><time>2026-04-24T15:04:51.977Z</time></trkpt><trkpt lat="43.1043495" lon="12.3947123"><ele>436.0</ele><time>2026-04-24T15:04:52.957Z</time></trkpt><trkpt lat="43.1043585" lon="12.3945889"><ele>436.8</ele><time>2026-04-24T15:04:53.956Z</time></trkpt><trkpt lat="43.1043684" lon="12.3944606"><ele>437.6</ele><time>2026-04-24T15:04:54.986Z</time></trkpt><trkpt lat="43.1043841" lon="12.3943347"><ele>438.4</ele><time>2026-04-24T15:04:55.961Z</time></trkpt><trkpt lat="43.104401" lon="12.3942047"><ele>439.2</ele><time>2026-04-24T15:04:56.984Z</time></trkpt><trkpt lat="43.1044145" lon="12.3940695"><ele>440.0</ele><time>2026-04-24T15:04:57.968Z</time></trkpt><trkpt lat="43.1044305" lon="12.3939335"><ele>440.4</ele><time>2026-04-24T15:04:58.988Z</time></trkpt><trkpt lat="43.1044408" lon="12.3938032"><ele>440.8</ele><time>2026-04-24T15:04:59.956Z</time></trkpt><trkpt lat="43.1044565" lon="12.3936705"><ele>441.20000000000005</ele><time>2026-04-24T15:05:00.971Z</time></trkpt><trkpt lat="43.1044725" lon="12.3935496"><ele>441.6</ele><time>2026-04-24T15:05:01.976Z</time></trkpt><trkpt lat="43.1044894" lon="12.3934301"><ele>442.0</ele><time>2026-04-24T15:05:02.974Z</time></trkpt><trkpt lat="43.1045209" lon="12.3933227"><ele>442.00000000000006</ele><time>2026-04-24T15:05:03.96Z</time></trkpt><trkpt lat="43.1045528" lon="12.3932307"><ele>442.0</ele><time>2026-04-24T15:05:04.962Z</time></trkpt><trkpt lat="43.1045665" lon="12.3931328"><ele>442.0</ele><time>2026-04-24T15:05:06.956Z</time></trkpt><trkpt lat="43.1045386" lon="12.3930458"><ele>442.0</ele><time>2026-04-24T15:05:08.963Z</time></trkpt><trkpt lat="43.1044637" lon="12.3930286"><ele>442.00000000000006</ele><time>2026-04-24T15:05:10.986Z</time></trkpt><trkpt lat="43.1043991" lon="12.3931096"><ele>442.0</ele><time>2026-04-24T15:05:12.958Z</time></trkpt><trkpt lat="43.1042846" lon="12.3931973"><ele>442.0</ele><time>2026-04-24T15:05:14.964Z</time></trkpt><trkpt lat="43.1041717" lon="12.3932697"><ele>442.00000000000006</ele><time>2026-04-24T15:05:16.967Z</time></trkpt><trkpt lat="43.1040504" lon="12.3933511"><ele>442.00000000000006</ele><time>2026-04-24T15:05:18.961Z</time></trkpt><trkpt lat="43.1039865" lon="12.3934022"><ele>442.0</ele><time>2026-04-24T15:05:19.969Z</time></trkpt><trkpt lat="43.1039232" lon="12.3934617"><ele>442.0</ele><time>2026-04-24T15:05:20.96Z</time></trkpt><trkpt lat="43.1038519" lon="12.3935184"><ele>442.1666666666667</ele><time>2026-04-24T15:05:21.965Z</time></trkpt><trkpt lat="43.103775" lon="12.3935773"><ele>442.33333333333337</ele><time>2026-04-24T15:05:22.958Z</time></trkpt><trkpt lat="43.1037012" lon="12.3936353"><ele>442.5</ele><time>2026-04-24T15:05:23.949Z</time></trkpt><trkpt lat="43.1036285" lon="12.3936911"><ele>442.66666666666663</ele><time>2026-04-24T15:05:24.971Z</time></trkpt><trkpt lat="43.1035597" lon="12.3937459"><ele>442.8333333333333</ele><time>2026-04-24T15:05:25.964Z</time></trkpt><trkpt lat="43.1035007" lon="12.3937913"><ele>443.0</ele><time>2026-04-24T15:05:26.957Z</time></trkpt><trkpt lat="43.1034013" lon="12.3938665"><ele>443.0</ele><time>2026-04-24T15:05:28.974Z</time></trkpt><trkpt lat="43.1033009" lon="12.393938"><ele>442.99999999999994</ele><time>2026-04-24T15:05:30.971Z</time></trkpt><trkpt lat="43.1031928" lon="12.3939984"><ele>442.99999999999994</ele><time>2026-04-24T15:05:32.968Z</time></trkpt><trkpt lat="43.1031292" lon="12.3940358"><ele>443.0</ele><time>2026-04-24T15:05:33.976Z</time></trkpt><trkpt lat="43.1030546" lon="12.394083"><ele>443.0</ele><time>2026-04-24T15:05:34.959Z</time></trkpt><trkpt lat="43.1029844" lon="12.3941229"><ele>442.8333333333333</ele><time>2026-04-24T15:05:35.953Z</time></trkpt><trkpt lat="43.1029241" lon="12.3941676"><ele>442.66666666666663</ele><time>2026-04-24T15:05:36.957Z</time></trkpt><trkpt lat="43.1028509" lon="12.3942143"><ele>442.5</ele><time>2026-04-24T15:05:37.97Z</time></trkpt><trkpt lat="43.1027788" lon="12.3942605"><ele>442.33333333333337</ele><time>2026-04-24T15:05:38.966Z</time></trkpt><trkpt lat="43.1027018" lon="12.3943043"><ele>442.1666666666667</ele><time>2026-04-24T15:05:39.96Z</time></trkpt><trkpt lat="43.1026273" lon="12.3943529"><ele>442.0</ele><time>2026-04-24T15:05:40.97Z</time></trkpt><trkpt lat="43.1025533" lon="12.3944048"><ele>442.00000000000006</ele><time>2026-04-24T15:05:41.966Z</time></trkpt><trkpt lat="43.1024858" lon="12.3944366"><ele>442.0</ele><time>2026-04-24T15:05:42.951Z</time></trkpt><trkpt lat="43.1023875" lon="12.3944036"><ele>442.0</ele><time>2026-04-24T15:05:44.964Z</time></trkpt><trkpt lat="43.1023384" lon="12.3942546"><ele>442.0</ele><time>2026-04-24T15:05:46.963Z</time></trkpt><trkpt lat="43.1022942" lon="12.3941926"><ele>442.00000000000006</ele><time>2026-04-24T15:05:47.963Z</time></trkpt><trkpt lat="43.1022356" lon="12.3941501"><ele>442.0</ele><time>2026-04-24T15:05:48.973Z</time></trkpt><trkpt lat="43.102166" lon="12.3941386"><ele>440.50000000000006</ele><time>2026-04-24T15:05:49.959Z</time></trkpt><trkpt lat="43.1020946" lon="12.3941646"><ele>439.0</ele><time>2026-04-24T15:05:50.967Z</time></trkpt><trkpt lat="43.1020246" lon="12.3942088"><ele>437.5</ele><time>2026-04-24T15:05:51.957Z</time></trkpt><trkpt lat="43.1019593" lon="12.3942372"><ele>436.0</ele><time>2026-04-24T15:05:52.976Z</time></trkpt><trkpt lat="43.1018671" lon="12.394205"><ele>434.50000000000006</ele><time>2026-04-24T15:05:54.973Z</time></trkpt><trkpt lat="43.1018969" lon="12.3941052"><ele>433.0</ele><time>2026-04-24T15:05:57.964Z</time></trkpt><trkpt lat="43.1020399" lon="12.3940061"><ele>433.0</ele><time>2026-04-24T15:05:59.977Z</time></trkpt><trkpt lat="43.1021417" lon="12.3939358"><ele>433.0</ele><time>2026-04-24T15:06:00.965Z</time></trkpt><trkpt lat="43.1022558" lon="12.3938544"><ele>433.0</ele><time>2026-04-24T15:06:01.962Z</time></trkpt><trkpt lat="43.1023882" lon="12.3937529"><ele>433.0</ele><time>2026-04-24T15:06:02.979Z</time></trkpt><trkpt lat="43.1025296" lon="12.3936377"><ele>430.6666666666667</ele><time>2026-04-24T15:06:03.973Z</time></trkpt><trkpt lat="43.1026689" lon="12.3935257"><ele>428.33333333333337</ele><time>2026-04-24T15:06:04.976Z</time></trkpt><trkpt lat="43.1028043" lon="12.3934216"><ele>426.0</ele><time>2026-04-24T15:06:05.959Z</time></trkpt><trkpt lat="43.1029278" lon="12.3933228"><ele>426.0</ele><time>2026-04-24T15:06:06.976Z</time></trkpt><trkpt lat="43.1030464" lon="12.3932379"><ele>426.0</ele><time>2026-04-24T15:06:07.954Z</time></trkpt><trkpt lat="43.1031633" lon="12.3931518"><ele>426.0</ele><time>2026-04-24T15:06:08.99Z</time></trkpt><trkpt lat="43.1032756" lon="12.3930558"><ele>426.0</ele><time>2026-04-24T15:06:09.96Z</time></trkpt><trkpt lat="43.103383" lon="12.3929575"><ele>425.25</ele><time>2026-04-24T15:06:10.969Z</time></trkpt><trkpt lat="43.1034867" lon="12.3928571"><ele>424.5</ele><time>2026-04-24T15:06:11.959Z</time></trkpt><trkpt lat="43.1035843" lon="12.3927446"><ele>423.75</ele><time>2026-04-24T15:06:12.976Z</time></trkpt><trkpt lat="43.1036743" lon="12.3926428"><ele>423.0</ele><time>2026-04-24T15:06:13.961Z</time></trkpt><trkpt lat="43.1037593" lon="12.3925402"><ele>423.0</ele><time>2026-04-24T15:06:14.957Z</time></trkpt><trkpt lat="43.1038377" lon="12.3924491"><ele>423.0</ele><time>2026-04-24T15:06:15.975Z</time></trkpt><trkpt lat="43.1039042" lon="12.3923628"><ele>423.0</ele><time>2026-04-24T15:06:16.982Z</time></trkpt><trkpt lat="43.1039715" lon="12.3922909"><ele>423.0</ele><time>2026-04-24T15:06:17.957Z</time></trkpt><trkpt lat="43.104024" lon="12.3922133"><ele>423.0</ele><time>2026-04-24T15:06:18.972Z</time></trkpt><trkpt lat="43.1040873" lon="12.3921437"><ele>423.0</ele><time>2026-04-24T15:06:19.96Z</time></trkpt><trkpt lat="43.1041538" lon="12.3920772"><ele>424.0</ele><time>2026-04-24T15:06:20.968Z</time></trkpt><trkpt lat="43.1042241" lon="12.3920021"><ele>425.0</ele><time>2026-04-24T15:06:21.962Z</time></trkpt><trkpt lat="43.1042966" lon="12.3919237"><ele>426.0</ele><time>2026-04-24T15:06:22.978Z</time></trkpt><trkpt lat="43.1043627" lon="12.3918486"><ele>427.0</ele><time>2026-04-24T15:06:23.973Z</time></trkpt><trkpt lat="43.1044189" lon="12.3917727"><ele>428.0</ele><time>2026-04-24T15:06:24.964Z</time></trkpt><trkpt lat="43.1044779" lon="12.3916928"><ele>429.0</ele><time>2026-04-24T15:06:25.96Z</time></trkpt><trkpt lat="43.1045421" lon="12.3916022"><ele>429.0</ele><time>2026-04-24T15:06:26.965Z</time></trkpt><trkpt lat="43.1046136" lon="12.3915274"><ele>429.0</ele><time>2026-04-24T15:06:27.96Z</time></trkpt><trkpt lat="43.1046839" lon="12.3914555"><ele>429.0</ele><time>2026-04-24T15:06:28.962Z</time></trkpt><trkpt lat="43.1047615" lon="12.3913818"><ele>429.0</ele><time>2026-04-24T15:06:29.967Z</time></trkpt><trkpt lat="43.1048425" lon="12.3913208"><ele>429.0</ele><time>2026-04-24T15:06:30.966Z</time></trkpt><trkpt lat="43.1049327" lon="12.3912609"><ele>428.6</ele><time>2026-04-24T15:06:31.965Z</time></trkpt><trkpt lat="43.1050248" lon="12.3912092"><ele>428.2</ele><time>2026-04-24T15:06:32.961Z</time></trkpt><trkpt lat="43.1051114" lon="12.391155"><ele>427.80000000000007</ele><time>2026-04-24T15:06:33.958Z</time></trkpt><trkpt lat="43.1051984" lon="12.3911141"><ele>427.40000000000003</ele><time>2026-04-24T15:06:34.961Z</time></trkpt><trkpt lat="43.1052858" lon="12.3910698"><ele>427.0</ele><time>2026-04-24T15:06:35.971Z</time></trkpt><trkpt lat="43.1053685" lon="12.3910328"><ele>427.0</ele><time>2026-04-24T15:06:36.965Z</time></trkpt><trkpt lat="43.1054518" lon="12.3910017"><ele>427.00000000000006</ele><time>2026-04-24T15:06:37.96Z</time></trkpt><trkpt lat="43.1055376" lon="12.3909478"><ele>427.00000000000006</ele><time>2026-04-24T15:06:38.973Z</time></trkpt><trkpt lat="43.1056342" lon="12.3908966"><ele>427.0</ele><time>2026-04-24T15:06:39.951Z</time></trkpt><trkpt lat="43.1057383" lon="12.3908426"><ele>427.0</ele><time>2026-04-24T15:06:40.97Z</time></trkpt><trkpt lat="43.1058454" lon="12.3907825"><ele>427.75</ele><time>2026-04-24T15:06:41.961Z</time></trkpt><trkpt lat="43.1059516" lon="12.3907118"><ele>428.5</ele><time>2026-04-24T15:06:42.963Z</time></trkpt><trkpt lat="43.1060598" lon="12.3906557"><ele>429.25</ele><time>2026-04-24T15:06:43.975Z</time></trkpt><trkpt lat="43.1061755" lon="12.3905987"><ele>430.0</ele><time>2026-04-24T15:06:44.988Z</time></trkpt><trkpt lat="43.1062838" lon="12.3905312"><ele>429.2</ele><time>2026-04-24T15:06:45.984Z</time></trkpt><trkpt lat="43.1063848" lon="12.39047"><ele>428.4</ele><time>2026-04-24T15:06:46.986Z</time></trkpt><trkpt lat="43.1064849" lon="12.3904188"><ele>427.6</ele><time>2026-04-24T15:06:47.972Z</time></trkpt><trkpt lat="43.1065788" lon="12.3903685"><ele>426.8</ele><time>2026-04-24T15:06:48.98Z</time></trkpt><trkpt lat="43.1066726" lon="12.3903127"><ele>426.0</ele><time>2026-04-24T15:06:49.954Z</time></trkpt><trkpt lat="43.1067579" lon="12.3902592"><ele>426.0</ele><time>2026-04-24T15:06:50.969Z</time></trkpt><trkpt lat="43.1068408" lon="12.3901951"><ele>426.0</ele><time>2026-04-24T15:06:51.968Z</time></trkpt><trkpt lat="43.1069307" lon="12.3901318"><ele>426.0</ele><time>2026-04-24T15:06:52.968Z</time></trkpt><trkpt lat="43.1070088" lon="12.3900734"><ele>426.0</ele><time>2026-04-24T15:06:53.972Z</time></trkpt><trkpt lat="43.1070799" lon="12.3900135"><ele>426.0</ele><time>2026-04-24T15:06:54.975Z</time></trkpt><trkpt lat="43.1071397" lon="12.3899549"><ele>426.0</ele><time>2026-04-24T15:06:55.964Z</time></trkpt><trkpt lat="43.1072015" lon="12.3898937"><ele>426.0</ele><time>2026-04-24T15:06:56.954Z</time></trkpt><trkpt lat="43.1072435" lon="12.3898256"><ele>426.0</ele><time>2026-04-24T15:06:57.98Z</time></trkpt><trkpt lat="43.1070482" lon="12.3892463"><ele>427.0</ele><time>2026-04-24T15:07:02.951Z</time></trkpt><trkpt lat="43.1069475" lon="12.3891822"><ele>428.0</ele><time>2026-04-24T15:07:04.962Z</time></trkpt><trkpt lat="43.1068903" lon="12.3891116"><ele>429.0</ele><time>2026-04-24T15:07:05.955Z</time></trkpt><trkpt lat="43.1068172" lon="12.3890611"><ele>430.0</ele><time>2026-04-24T15:07:06.962Z</time></trkpt><trkpt lat="43.1067451" lon="12.3890209"><ele>431.0</ele><time>2026-04-24T15:07:07.967Z</time></trkpt><trkpt lat="43.1066589" lon="12.3889838"><ele>432.0</ele><time>2026-04-24T15:07:08.957Z</time></trkpt><trkpt lat="43.1065801" lon="12.3889483"><ele>431.3333333333333</ele><time>2026-04-24T15:07:09.961Z</time></trkpt><trkpt lat="43.1065022" lon="12.3889197"><ele>430.66666666666663</ele><time>2026-04-24T15:07:10.971Z</time></trkpt><trkpt lat="43.1064425" lon="12.3888802"><ele>430.0</ele><time>2026-04-24T15:07:11.954Z</time></trkpt><trkpt lat="43.1063321" lon="12.388833"><ele>429.3333333333333</ele><time>2026-04-24T15:07:13.969Z</time></trkpt><trkpt lat="43.106242" lon="12.3887652"><ele>428.66666666666663</ele><time>2026-04-24T15:07:15.966Z</time></trkpt><trkpt lat="43.1062046" lon="12.3886949"><ele>428.0</ele><time>2026-04-24T15:07:17.953Z</time></trkpt><trkpt lat="43.1061956" lon="12.3886085"><ele>428.0</ele><time>2026-04-24T15:07:19.962Z</time></trkpt><trkpt lat="43.1062167" lon="12.3884961"><ele>427.99999999999994</ele><time>2026-04-24T15:07:21.968Z</time></trkpt><trkpt lat="43.1062594" lon="12.3883279"><ele>427.99999999999994</ele><time>2026-04-24T15:07:23.98Z</time></trkpt><trkpt lat="43.1062902" lon="12.3882217"><ele>428.0</ele><time>2026-04-24T15:07:24.966Z</time></trkpt><trkpt lat="43.1063099" lon="12.3880902"><ele>428.0</ele><time>2026-04-24T15:07:25.96Z</time></trkpt><trkpt lat="43.1063324" lon="12.3879627"><ele>427.3333333333333</ele><time>2026-04-24T15:07:26.966Z</time></trkpt><trkpt lat="43.1063499" lon="12.3878554"><ele>426.66666666666663</ele><time>2026-04-24T15:07:27.977Z</time></trkpt><trkpt lat="43.1063869" lon="12.3877721"><ele>426.0</ele><time>2026-04-24T15:07:28.984Z</time></trkpt><trkpt lat="43.106442" lon="12.3877206"><ele>425.33333333333337</ele><time>2026-04-24T15:07:29.964Z</time></trkpt><trkpt lat="43.1065064" lon="12.3877137"><ele>424.6666666666667</ele><time>2026-04-24T15:07:30.962Z</time></trkpt><trkpt lat="43.1066163" lon="12.3877702"><ele>424.0</ele><time>2026-04-24T15:07:32.965Z</time></trkpt><trkpt lat="43.1067074" lon="12.3878342"><ele>426.4</ele><time>2026-04-24T15:07:34.974Z</time></trkpt><trkpt lat="43.106774" lon="12.3878572"><ele>428.79999999999995</ele><time>2026-04-24T15:07:35.97Z</time></trkpt><trkpt lat="43.106862" lon="12.3878922"><ele>431.20000000000005</ele><time>2026-04-24T15:07:36.96Z</time></trkpt><trkpt lat="43.1069658" lon="12.3879322"><ele>433.6</ele><time>2026-04-24T15:07:37.951Z</time></trkpt><trkpt lat="43.1070927" lon="12.3879814"><ele>436.0</ele><time>2026-04-24T15:07:38.986Z</time></trkpt><trkpt lat="43.1072127" lon="12.3880318"><ele>436.4</ele><time>2026-04-24T15:07:39.965Z</time></trkpt><trkpt lat="43.1073101" lon="12.388106"><ele>436.8</ele><time>2026-04-24T15:07:40.99Z</time></trkpt><trkpt lat="43.1073669" lon="12.388209"><ele>437.19999999999993</ele><time>2026-04-24T15:07:41.966Z</time></trkpt><trkpt lat="43.10738" lon="12.3883365"><ele>437.59999999999997</ele><time>2026-04-24T15:07:42.965Z</time></trkpt><trkpt lat="43.1073643" lon="12.3884447"><ele>438.0</ele><time>2026-04-24T15:07:43.951Z</time></trkpt><trkpt lat="43.1073358" lon="12.3885595"><ele>438.0</ele><time>2026-04-24T15:07:44.964Z</time></trkpt><trkpt lat="43.1073079" lon="12.3886582"><ele>438.0</ele><time>2026-04-24T15:07:45.968Z</time></trkpt><trkpt lat="43.1073062" lon="12.3887666"><ele>438.0</ele><time>2026-04-24T15:07:46.971Z</time></trkpt><trkpt lat="43.107332" lon="12.3888676"><ele>438.0</ele><time>2026-04-24T15:07:47.965Z</time></trkpt><trkpt lat="43.1073886" lon="12.3889112"><ele>438.0</ele><time>2026-04-24T15:07:48.977Z</time></trkpt><trkpt lat="43.1075112" lon="12.3888975"><ele>438.0</ele><time>2026-04-24T15:07:50.95Z</time></trkpt><trkpt lat="43.1075619" lon="12.388823"><ele>440.1666666666667</ele><time>2026-04-24T15:07:51.964Z</time></trkpt><trkpt lat="43.107595" lon="12.3887175"><ele>442.33333333333337</ele><time>2026-04-24T15:07:52.973Z</time></trkpt><trkpt lat="43.1076038" lon="12.3886097"><ele>444.5</ele><time>2026-04-24T15:07:53.967Z</time></trkpt><trkpt lat="43.1076172" lon="12.3884947"><ele>446.6666666666667</ele><time>2026-04-24T15:07:54.955Z</time></trkpt><trkpt lat="43.1076528" lon="12.3883794"><ele>448.83333333333337</ele><time>2026-04-24T15:07:55.963Z</time></trkpt><trkpt lat="43.1076906" lon="12.3882444"><ele>451.0</ele><time>2026-04-24T15:07:56.976Z</time></trkpt><trkpt lat="43.1077315" lon="12.3881278"><ele>451.0</ele><time>2026-04-24T15:07:57.968Z</time></trkpt><trkpt lat="43.1077743" lon="12.3880133"><ele>451.0</ele><time>2026-04-24T15:07:58.971Z</time></trkpt><trkpt lat="43.107819" lon="12.3878988"><ele>451.0</ele><time>2026-04-24T15:07:59.97Z</time></trkpt><trkpt lat="43.107865" lon="12.3877904"><ele>451.0</ele><time>2026-04-24T15:08:00.968Z</time></trkpt><trkpt lat="43.1079072" lon="12.3876802"><ele>451.0</ele><time>2026-04-24T15:08:01.952Z</time></trkpt><trkpt lat="43.1079501" lon="12.3875725"><ele>451.20000000000005</ele><time>2026-04-24T15:08:02.956Z</time></trkpt><trkpt lat="43.1079953" lon="12.3874607"><ele>451.40000000000003</ele><time>2026-04-24T15:08:03.961Z</time></trkpt><trkpt lat="43.1080447" lon="12.3873418"><ele>451.6</ele><time>2026-04-24T15:08:04.972Z</time></trkpt><trkpt lat="43.1080941" lon="12.3872192"><ele>451.8</ele><time>2026-04-24T15:08:05.972Z</time></trkpt><trkpt lat="43.1081408" lon="12.3870947"><ele>452.0</ele><time>2026-04-24T15:08:06.979Z</time></trkpt><trkpt lat="43.1081873" lon="12.3869676"><ele>450.99999999999994</ele><time>2026-04-24T15:08:07.96Z</time></trkpt><trkpt lat="43.1082335" lon="12.3868569"><ele>450.0</ele><time>2026-04-24T15:08:08.969Z</time></trkpt><trkpt lat="43.108276" lon="12.3867512"><ele>449.0</ele><time>2026-04-24T15:08:09.961Z</time></trkpt><trkpt lat="43.1083223" lon="12.3866466"><ele>448.0</ele><time>2026-04-24T15:08:10.977Z</time></trkpt><trkpt lat="43.1083505" lon="12.3865516"><ele>446.99999999999994</ele><time>2026-04-24T15:08:11.967Z</time></trkpt><trkpt lat="43.1084184" lon="12.3864488"><ele>446.0</ele><time>2026-04-24T15:08:13.96Z</time></trkpt><trkpt lat="43.1084861" lon="12.3864914"><ele>448.66666666666663</ele><time>2026-04-24T15:08:15.981Z</time></trkpt><trkpt lat="43.1084984" lon="12.3866464"><ele>451.3333333333333</ele><time>2026-04-24T15:08:17.969Z</time></trkpt><trkpt lat="43.1084673" lon="12.3867353"><ele>454.0</ele><time>2026-04-24T15:08:18.955Z</time></trkpt><trkpt lat="43.1084277" lon="12.3868065"><ele>456.66666666666663</ele><time>2026-04-24T15:08:19.954Z</time></trkpt><trkpt lat="43.1083867" lon="12.3868877"><ele>459.3333333333333</ele><time>2026-04-24T15:08:20.965Z</time></trkpt><trkpt lat="43.1083469" lon="12.3869863"><ele>462.0</ele><time>2026-04-24T15:08:21.968Z</time></trkpt><trkpt lat="43.1083052" lon="12.3871097"><ele>464.0</ele><time>2026-04-24T15:08:22.964Z</time></trkpt><trkpt lat="43.108249" lon="12.3872381"><ele>466.00000000000006</ele><time>2026-04-24T15:08:23.979Z</time></trkpt><trkpt lat="43.1082015" lon="12.3873765"><ele>468.00000000000006</ele><time>2026-04-24T15:08:24.97Z</time></trkpt><trkpt lat="43.1081506" lon="12.3875168"><ele>470.0</ele><time>2026-04-24T15:08:25.958Z</time></trkpt><trkpt lat="43.1080991" lon="12.3876528"><ele>472.0</ele><time>2026-04-24T15:08:26.971Z</time></trkpt><trkpt lat="43.108044" lon="12.3877823"><ele>468.0</ele><time>2026-04-24T15:08:27.964Z</time></trkpt><trkpt lat="43.1079911" lon="12.387919"><ele>464.00000000000006</ele><time>2026-04-24T15:08:28.978Z</time></trkpt><trkpt lat="43.1079501" lon="12.3880674"><ele>460.00000000000006</ele><time>2026-04-24T15:08:29.973Z</time></trkpt><trkpt lat="43.1079218" lon="12.3882012"><ele>456.0</ele><time>2026-04-24T15:08:30.962Z</time></trkpt><trkpt lat="43.1079136" lon="12.3883365"><ele>452.0</ele><time>2026-04-24T15:08:31.963Z</time></trkpt><trkpt lat="43.1079276" lon="12.38844"><ele>451.8333333333333</ele><time>2026-04-24T15:08:32.981Z</time></trkpt><trkpt lat="43.1079629" lon="12.3885191"><ele>451.66666666666663</ele><time>2026-04-24T15:08:33.97Z</time></trkpt><trkpt lat="43.1080593" lon="12.3885799"><ele>451.5</ele><time>2026-04-24T15:08:35.976Z</time></trkpt><trkpt lat="43.108152" lon="12.3885845"><ele>451.33333333333337</ele><time>2026-04-24T15:08:37.979Z</time></trkpt><trkpt lat="43.1082102" lon="12.3885428"><ele>451.1666666666667</ele><time>2026-04-24T15:08:39.969Z</time></trkpt><trkpt lat="43.1082287" lon="12.3884548"><ele>451.0</ele><time>2026-04-24T15:08:41.958Z</time></trkpt><trkpt lat="43.1082394" lon="12.3883396"><ele>454.50000000000006</ele><time>2026-04-24T15:08:44.973Z</time></trkpt><trkpt lat="43.1082578" lon="12.3882149"><ele>458.0</ele><time>2026-04-24T15:08:47.975Z</time></trkpt><trkpt lat="43.1082728" lon="12.3881064"><ele>461.5</ele><time>2026-04-24T15:08:49.975Z</time></trkpt><trkpt lat="43.1082868" lon="12.3880023"><ele>465.0</ele><time>2026-04-24T15:08:52.962Z</time></trkpt><trkpt lat="43.1083092" lon="12.3879036"><ele>468.50000000000006</ele><time>2026-04-24T15:08:55.957Z</time></trkpt><trkpt lat="43.108359" lon="12.3877972"><ele>472.0</ele><time>2026-04-24T15:08:58.962Z</time></trkpt><trkpt lat="43.1083169" lon="12.3878749"><ele>472.0</ele><time>2026-04-24T15:09:06.981Z</time></trkpt><trkpt lat="43.1083148" lon="12.3879652"><ele>472.0</ele><time>2026-04-24T15:09:13.974Z</time></trkpt><trkpt lat="43.1082816" lon="12.3880473"><ele>475.0</ele><time>2026-04-24T15:09:21.966Z</time></trkpt><trkpt lat="43.1082479" lon="12.3881292"><ele>475.0</ele><time>2026-04-24T15:10:25.954Z</time></trkpt></trkseg></trk></gpx>